<?xml version="1.0" encoding="UTF-8" standalone="no" ?>
<gpx xmlns="http://www.topografix.com/GPX/1/1" xmlns:xsi="http://www.w3.org/2001/XMLSchema-instance" xsi:schemaLocation="http://www.topografix.com/GPX/1/1 http://www.topografix.com/GPX/1/1/gpx.xsd" version="1.1" creator="VisuGPX - https://www.visugpx.com">
  <metadata>
    <name>2018-06-05 Bike ride-Georges de Reneins O v47k</name>
    <desc><![CDATA[2018-06-05 Bike ride-Georges de Reneins O v47k]]></desc>
  </metadata>
  <wpt lat="45.92459" lon="4.73714">
    <ele>174</ele>
    <name><![CDATA[2018-06-05 10:16 (Start)]]></name>
  </wpt>
  <wpt lat="45.92458" lon="4.73712">
    <ele>174</ele>
    <name><![CDATA[2018-06-05 10:16 (End)]]></name>
  </wpt>
  <trk>
    <name><![CDATA[2018-06-05 10:16]]></name>
    <trkseg>
      <trkpt lat="45.92459" lon="4.73714">
        <ele>174</ele>
        <time>2018-06-05T08:16:34.54Z</time>
      </trkpt>
      <trkpt lat="45.92459" lon="4.73712">
        <ele>174</ele>
        <time>2018-06-05T08:16:33.423Z</time>
      </trkpt>
      <trkpt lat="45.92459" lon="4.73715">
        <ele>174</ele>
        <time>2018-06-05T08:16:34.423Z</time>
      </trkpt>
      <trkpt lat="45.92459" lon="4.73716">
        <ele>174</ele>
        <time>2018-06-05T08:16:35.423Z</time>
      </trkpt>
      <trkpt lat="45.92466" lon="4.73715">
        <ele>174</ele>
        <time>2018-06-05T08:16:36.423Z</time>
      </trkpt>
      <trkpt lat="45.92463" lon="4.7371">
        <ele>174</ele>
        <time>2018-06-05T08:16:46Z</time>
      </trkpt>
      <trkpt lat="45.92463" lon="4.73709">
        <ele>174</ele>
        <time>2018-06-05T08:16:47Z</time>
      </trkpt>
      <trkpt lat="45.92463" lon="4.73709">
        <ele>174</ele>
        <time>2018-06-05T08:16:51Z</time>
      </trkpt>
      <trkpt lat="45.92463" lon="4.73708">
        <ele>174</ele>
        <time>2018-06-05T08:16:52Z</time>
      </trkpt>
      <trkpt lat="45.92468" lon="4.73698">
        <ele>174</ele>
        <time>2018-06-05T08:17:00Z</time>
      </trkpt>
      <trkpt lat="45.92468" lon="4.73695">
        <ele>174</ele>
        <time>2018-06-05T08:17:01Z</time>
      </trkpt>
      <trkpt lat="45.92469" lon="4.73684">
        <ele>174</ele>
        <time>2018-06-05T08:17:04Z</time>
      </trkpt>
      <trkpt lat="45.92469" lon="4.7368">
        <ele>174</ele>
        <time>2018-06-05T08:17:05Z</time>
      </trkpt>
      <trkpt lat="45.92471" lon="4.73666">
        <ele>174</ele>
        <time>2018-06-05T08:17:06Z</time>
      </trkpt>
      <trkpt lat="45.92473" lon="4.73654">
        <ele>174</ele>
        <time>2018-06-05T08:17:08Z</time>
      </trkpt>
      <trkpt lat="45.92473" lon="4.73652">
        <ele>174</ele>
        <time>2018-06-05T08:17:09Z</time>
      </trkpt>
      <trkpt lat="45.92473" lon="4.73643">
        <ele>174</ele>
        <time>2018-06-05T08:17:10Z</time>
      </trkpt>
      <trkpt lat="45.92474" lon="4.73638">
        <ele>174</ele>
        <time>2018-06-05T08:17:11Z</time>
      </trkpt>
      <trkpt lat="45.92473" lon="4.73626">
        <ele>174</ele>
        <time>2018-06-05T08:17:13Z</time>
      </trkpt>
      <trkpt lat="45.92472" lon="4.7362">
        <ele>174</ele>
        <time>2018-06-05T08:17:14Z</time>
      </trkpt>
      <trkpt lat="45.92472" lon="4.73611">
        <ele>174</ele>
        <time>2018-06-05T08:17:15Z</time>
      </trkpt>
      <trkpt lat="45.92474" lon="4.73603">
        <ele>174</ele>
        <time>2018-06-05T08:17:16Z</time>
      </trkpt>
      <trkpt lat="45.92475" lon="4.73596">
        <ele>174</ele>
        <time>2018-06-05T08:17:17Z</time>
      </trkpt>
      <trkpt lat="45.92474" lon="4.7359">
        <ele>174</ele>
        <time>2018-06-05T08:17:18Z</time>
      </trkpt>
      <trkpt lat="45.92471" lon="4.73579">
        <ele>173</ele>
        <time>2018-06-05T08:17:20Z</time>
      </trkpt>
      <trkpt lat="45.92471" lon="4.73571">
        <ele>173</ele>
        <time>2018-06-05T08:17:21Z</time>
      </trkpt>
      <trkpt lat="45.9247" lon="4.73559">
        <ele>173</ele>
        <time>2018-06-05T08:17:23Z</time>
      </trkpt>
      <trkpt lat="45.9247" lon="4.73557">
        <ele>173</ele>
        <time>2018-06-05T08:17:24Z</time>
      </trkpt>
      <trkpt lat="45.9247" lon="4.73547">
        <ele>173</ele>
        <time>2018-06-05T08:17:27Z</time>
      </trkpt>
      <trkpt lat="45.9247" lon="4.73535">
        <ele>174</ele>
        <time>2018-06-05T08:17:28Z</time>
      </trkpt>
      <trkpt lat="45.9247" lon="4.73524">
        <ele>174</ele>
        <time>2018-06-05T08:17:30Z</time>
      </trkpt>
      <trkpt lat="45.9247" lon="4.73517">
        <ele>174</ele>
        <time>2018-06-05T08:17:31Z</time>
      </trkpt>
      <trkpt lat="45.9247" lon="4.73509">
        <ele>174</ele>
        <time>2018-06-05T08:17:32Z</time>
      </trkpt>
      <trkpt lat="45.92469" lon="4.73503">
        <ele>174</ele>
        <time>2018-06-05T08:17:33Z</time>
      </trkpt>
      <trkpt lat="45.9247" lon="4.73495">
        <ele>173</ele>
        <time>2018-06-05T08:17:34Z</time>
      </trkpt>
      <trkpt lat="45.9247" lon="4.73488">
        <ele>173</ele>
        <time>2018-06-05T08:17:35Z</time>
      </trkpt>
      <trkpt lat="45.9247" lon="4.7348">
        <ele>173</ele>
        <time>2018-06-05T08:17:36Z</time>
      </trkpt>
      <trkpt lat="45.9247" lon="4.73472">
        <ele>173</ele>
        <time>2018-06-05T08:17:37Z</time>
      </trkpt>
      <trkpt lat="45.9247" lon="4.73464">
        <ele>173</ele>
        <time>2018-06-05T08:17:38Z</time>
      </trkpt>
      <trkpt lat="45.92469" lon="4.73456">
        <ele>173</ele>
        <time>2018-06-05T08:17:39Z</time>
      </trkpt>
      <trkpt lat="45.92467" lon="4.73449">
        <ele>173</ele>
        <time>2018-06-05T08:17:40Z</time>
      </trkpt>
      <trkpt lat="45.92465" lon="4.73442">
        <ele>173</ele>
        <time>2018-06-05T08:17:41Z</time>
      </trkpt>
      <trkpt lat="45.92462" lon="4.73435">
        <ele>173</ele>
        <time>2018-06-05T08:17:42Z</time>
      </trkpt>
      <trkpt lat="45.92458" lon="4.73429">
        <ele>173</ele>
        <time>2018-06-05T08:17:43Z</time>
      </trkpt>
      <trkpt lat="45.92453" lon="4.73425">
        <ele>173</ele>
        <time>2018-06-05T08:17:44Z</time>
      </trkpt>
      <trkpt lat="45.92449" lon="4.73421">
        <ele>173</ele>
        <time>2018-06-05T08:17:45Z</time>
      </trkpt>
      <trkpt lat="45.92444" lon="4.73417">
        <ele>172</ele>
        <time>2018-06-05T08:17:46Z</time>
      </trkpt>
      <trkpt lat="45.92439" lon="4.73413">
        <ele>172</ele>
        <time>2018-06-05T08:17:47Z</time>
      </trkpt>
      <trkpt lat="45.92434" lon="4.73409">
        <ele>172</ele>
        <time>2018-06-05T08:17:48Z</time>
      </trkpt>
      <trkpt lat="45.9243" lon="4.73403">
        <ele>172</ele>
        <time>2018-06-05T08:17:49Z</time>
      </trkpt>
      <trkpt lat="45.92427" lon="4.73396">
        <ele>172</ele>
        <time>2018-06-05T08:17:50Z</time>
      </trkpt>
      <trkpt lat="45.92426" lon="4.73388">
        <ele>172</ele>
        <time>2018-06-05T08:17:51Z</time>
      </trkpt>
      <trkpt lat="45.92423" lon="4.7338">
        <ele>172</ele>
        <time>2018-06-05T08:17:52Z</time>
      </trkpt>
      <trkpt lat="45.92422" lon="4.73372">
        <ele>172</ele>
        <time>2018-06-05T08:17:53Z</time>
      </trkpt>
      <trkpt lat="45.92421" lon="4.73364">
        <ele>172</ele>
        <time>2018-06-05T08:17:54Z</time>
      </trkpt>
      <trkpt lat="45.92419" lon="4.73355">
        <ele>171</ele>
        <time>2018-06-05T08:17:55Z</time>
      </trkpt>
      <trkpt lat="45.92418" lon="4.73347">
        <ele>171</ele>
        <time>2018-06-05T08:17:56Z</time>
      </trkpt>
      <trkpt lat="45.92419" lon="4.73338">
        <ele>171</ele>
        <time>2018-06-05T08:17:57Z</time>
      </trkpt>
      <trkpt lat="45.92419" lon="4.7333">
        <ele>171</ele>
        <time>2018-06-05T08:17:58Z</time>
      </trkpt>
      <trkpt lat="45.92418" lon="4.73322">
        <ele>171</ele>
        <time>2018-06-05T08:17:59Z</time>
      </trkpt>
      <trkpt lat="45.92418" lon="4.73315">
        <ele>171</ele>
        <time>2018-06-05T08:18:00Z</time>
      </trkpt>
      <trkpt lat="45.92415" lon="4.73306">
        <ele>171</ele>
        <time>2018-06-05T08:18:01Z</time>
      </trkpt>
      <trkpt lat="45.92415" lon="4.73299">
        <ele>171</ele>
        <time>2018-06-05T08:18:02Z</time>
      </trkpt>
      <trkpt lat="45.92413" lon="4.73291">
        <ele>171</ele>
        <time>2018-06-05T08:18:03Z</time>
      </trkpt>
      <trkpt lat="45.92412" lon="4.73283">
        <ele>171</ele>
        <time>2018-06-05T08:18:04Z</time>
      </trkpt>
      <trkpt lat="45.92412" lon="4.73275">
        <ele>171</ele>
        <time>2018-06-05T08:18:05Z</time>
      </trkpt>
      <trkpt lat="45.92412" lon="4.73267">
        <ele>171</ele>
        <time>2018-06-05T08:18:06Z</time>
      </trkpt>
      <trkpt lat="45.92411" lon="4.73259">
        <ele>171</ele>
        <time>2018-06-05T08:18:07Z</time>
      </trkpt>
      <trkpt lat="45.9241" lon="4.73252">
        <ele>171</ele>
        <time>2018-06-05T08:18:08Z</time>
      </trkpt>
      <trkpt lat="45.9241" lon="4.73244">
        <ele>171</ele>
        <time>2018-06-05T08:18:09Z</time>
      </trkpt>
      <trkpt lat="45.92409" lon="4.73236">
        <ele>171</ele>
        <time>2018-06-05T08:18:10Z</time>
      </trkpt>
      <trkpt lat="45.92409" lon="4.73228">
        <ele>171</ele>
        <time>2018-06-05T08:18:11Z</time>
      </trkpt>
      <trkpt lat="45.92408" lon="4.73221">
        <ele>171</ele>
        <time>2018-06-05T08:18:12Z</time>
      </trkpt>
      <trkpt lat="45.92407" lon="4.73213">
        <ele>171</ele>
        <time>2018-06-05T08:18:13Z</time>
      </trkpt>
      <trkpt lat="45.92407" lon="4.73205">
        <ele>171</ele>
        <time>2018-06-05T08:18:14Z</time>
      </trkpt>
      <trkpt lat="45.92407" lon="4.73196">
        <ele>171</ele>
        <time>2018-06-05T08:18:15Z</time>
      </trkpt>
      <trkpt lat="45.92407" lon="4.73187">
        <ele>171</ele>
        <time>2018-06-05T08:18:16Z</time>
      </trkpt>
      <trkpt lat="45.92406" lon="4.73178">
        <ele>171</ele>
        <time>2018-06-05T08:18:17Z</time>
      </trkpt>
      <trkpt lat="45.92406" lon="4.7317">
        <ele>170</ele>
        <time>2018-06-05T08:18:18Z</time>
      </trkpt>
      <trkpt lat="45.92407" lon="4.7316">
        <ele>170</ele>
        <time>2018-06-05T08:18:19Z</time>
      </trkpt>
      <trkpt lat="45.92406" lon="4.73153">
        <ele>171</ele>
        <time>2018-06-05T08:18:20Z</time>
      </trkpt>
      <trkpt lat="45.92405" lon="4.73144">
        <ele>171</ele>
        <time>2018-06-05T08:18:21Z</time>
      </trkpt>
      <trkpt lat="45.92406" lon="4.73135">
        <ele>171</ele>
        <time>2018-06-05T08:18:22Z</time>
      </trkpt>
      <trkpt lat="45.92407" lon="4.73127">
        <ele>171</ele>
        <time>2018-06-05T08:18:23Z</time>
      </trkpt>
      <trkpt lat="45.9241" lon="4.7312">
        <ele>171</ele>
        <time>2018-06-05T08:18:24Z</time>
      </trkpt>
      <trkpt lat="45.92414" lon="4.73113">
        <ele>171</ele>
        <time>2018-06-05T08:18:25Z</time>
      </trkpt>
      <trkpt lat="45.92418" lon="4.73108">
        <ele>171</ele>
        <time>2018-06-05T08:18:26Z</time>
      </trkpt>
      <trkpt lat="45.92423" lon="4.73104">
        <ele>171</ele>
        <time>2018-06-05T08:18:27Z</time>
      </trkpt>
      <trkpt lat="45.92428" lon="4.731">
        <ele>171</ele>
        <time>2018-06-05T08:18:28Z</time>
      </trkpt>
      <trkpt lat="45.92434" lon="4.73097">
        <ele>171</ele>
        <time>2018-06-05T08:18:29Z</time>
      </trkpt>
      <trkpt lat="45.92438" lon="4.73091">
        <ele>171</ele>
        <time>2018-06-05T08:18:30Z</time>
      </trkpt>
      <trkpt lat="45.92443" lon="4.73087">
        <ele>170</ele>
        <time>2018-06-05T08:18:31Z</time>
      </trkpt>
      <trkpt lat="45.92445" lon="4.73081">
        <ele>170</ele>
        <time>2018-06-05T08:18:32Z</time>
      </trkpt>
      <trkpt lat="45.9245" lon="4.73078">
        <ele>170</ele>
        <time>2018-06-05T08:18:33Z</time>
      </trkpt>
      <trkpt lat="45.92455" lon="4.73074">
        <ele>170</ele>
        <time>2018-06-05T08:18:34Z</time>
      </trkpt>
      <trkpt lat="45.92459" lon="4.7307">
        <ele>170</ele>
        <time>2018-06-05T08:18:35Z</time>
      </trkpt>
      <trkpt lat="45.92464" lon="4.73067">
        <ele>170</ele>
        <time>2018-06-05T08:18:36Z</time>
      </trkpt>
      <trkpt lat="45.92468" lon="4.73063">
        <ele>170</ele>
        <time>2018-06-05T08:18:37Z</time>
      </trkpt>
      <trkpt lat="45.92473" lon="4.7306">
        <ele>170</ele>
        <time>2018-06-05T08:18:38Z</time>
      </trkpt>
      <trkpt lat="45.92477" lon="4.73055">
        <ele>170</ele>
        <time>2018-06-05T08:18:39Z</time>
      </trkpt>
      <trkpt lat="45.92482" lon="4.73051">
        <ele>170</ele>
        <time>2018-06-05T08:18:40Z</time>
      </trkpt>
      <trkpt lat="45.92488" lon="4.73047">
        <ele>170</ele>
        <time>2018-06-05T08:18:41Z</time>
      </trkpt>
      <trkpt lat="45.92493" lon="4.73044">
        <ele>170</ele>
        <time>2018-06-05T08:18:42Z</time>
      </trkpt>
      <trkpt lat="45.92498" lon="4.7304">
        <ele>170</ele>
        <time>2018-06-05T08:18:43Z</time>
      </trkpt>
      <trkpt lat="45.92504" lon="4.73036">
        <ele>169</ele>
        <time>2018-06-05T08:18:44Z</time>
      </trkpt>
      <trkpt lat="45.92509" lon="4.73032">
        <ele>169</ele>
        <time>2018-06-05T08:18:45Z</time>
      </trkpt>
      <trkpt lat="45.92514" lon="4.73028">
        <ele>169</ele>
        <time>2018-06-05T08:18:46Z</time>
      </trkpt>
      <trkpt lat="45.92519" lon="4.73024">
        <ele>169</ele>
        <time>2018-06-05T08:18:47Z</time>
      </trkpt>
      <trkpt lat="45.92525" lon="4.73018">
        <ele>169</ele>
        <time>2018-06-05T08:18:48Z</time>
      </trkpt>
      <trkpt lat="45.9253" lon="4.73013">
        <ele>169</ele>
        <time>2018-06-05T08:18:49Z</time>
      </trkpt>
      <trkpt lat="45.92534" lon="4.73008">
        <ele>169</ele>
        <time>2018-06-05T08:18:50Z</time>
      </trkpt>
      <trkpt lat="45.92539" lon="4.73003">
        <ele>169</ele>
        <time>2018-06-05T08:18:51Z</time>
      </trkpt>
      <trkpt lat="45.92545" lon="4.72999">
        <ele>169</ele>
        <time>2018-06-05T08:18:52Z</time>
      </trkpt>
      <trkpt lat="45.9255" lon="4.72995">
        <ele>169</ele>
        <time>2018-06-05T08:18:53Z</time>
      </trkpt>
      <trkpt lat="45.92555" lon="4.72989">
        <ele>169</ele>
        <time>2018-06-05T08:18:54Z</time>
      </trkpt>
      <trkpt lat="45.9256" lon="4.72984">
        <ele>169</ele>
        <time>2018-06-05T08:18:55Z</time>
      </trkpt>
      <trkpt lat="45.92563" lon="4.72971">
        <ele>169</ele>
        <time>2018-06-05T08:18:56Z</time>
      </trkpt>
      <trkpt lat="45.92568" lon="4.72965">
        <ele>169</ele>
        <time>2018-06-05T08:18:57Z</time>
      </trkpt>
      <trkpt lat="45.92573" lon="4.7296">
        <ele>169</ele>
        <time>2018-06-05T08:18:58Z</time>
      </trkpt>
      <trkpt lat="45.92578" lon="4.72955">
        <ele>169</ele>
        <time>2018-06-05T08:18:59Z</time>
      </trkpt>
      <trkpt lat="45.92583" lon="4.72948">
        <ele>169</ele>
        <time>2018-06-05T08:19:00Z</time>
      </trkpt>
      <trkpt lat="45.92589" lon="4.72943">
        <ele>169</ele>
        <time>2018-06-05T08:19:01Z</time>
      </trkpt>
      <trkpt lat="45.92593" lon="4.72938">
        <ele>169</ele>
        <time>2018-06-05T08:19:02Z</time>
      </trkpt>
      <trkpt lat="45.92598" lon="4.72932">
        <ele>169</ele>
        <time>2018-06-05T08:19:03Z</time>
      </trkpt>
      <trkpt lat="45.92604" lon="4.72929">
        <ele>169</ele>
        <time>2018-06-05T08:19:04Z</time>
      </trkpt>
      <trkpt lat="45.92611" lon="4.72923">
        <ele>169</ele>
        <time>2018-06-05T08:19:05Z</time>
      </trkpt>
      <trkpt lat="45.92615" lon="4.72918">
        <ele>169</ele>
        <time>2018-06-05T08:19:06Z</time>
      </trkpt>
      <trkpt lat="45.92622" lon="4.72913">
        <ele>169</ele>
        <time>2018-06-05T08:19:08Z</time>
      </trkpt>
      <trkpt lat="45.92627" lon="4.7291">
        <ele>169</ele>
        <time>2018-06-05T08:19:09Z</time>
      </trkpt>
      <trkpt lat="45.92632" lon="4.72908">
        <ele>169</ele>
        <time>2018-06-05T08:19:10Z</time>
      </trkpt>
      <trkpt lat="45.92636" lon="4.72903">
        <ele>169</ele>
        <time>2018-06-05T08:19:11Z</time>
      </trkpt>
      <trkpt lat="45.92643" lon="4.72896">
        <ele>169</ele>
        <time>2018-06-05T08:19:13Z</time>
      </trkpt>
      <trkpt lat="45.92649" lon="4.72892">
        <ele>169</ele>
        <time>2018-06-05T08:19:14Z</time>
      </trkpt>
      <trkpt lat="45.92653" lon="4.72889">
        <ele>169</ele>
        <time>2018-06-05T08:19:15Z</time>
      </trkpt>
      <trkpt lat="45.92658" lon="4.72885">
        <ele>169</ele>
        <time>2018-06-05T08:19:16Z</time>
      </trkpt>
      <trkpt lat="45.92662" lon="4.72881">
        <ele>169</ele>
        <time>2018-06-05T08:19:17Z</time>
      </trkpt>
      <trkpt lat="45.92668" lon="4.72878">
        <ele>170</ele>
        <time>2018-06-05T08:19:18Z</time>
      </trkpt>
      <trkpt lat="45.92673" lon="4.72875">
        <ele>169</ele>
        <time>2018-06-05T08:19:19Z</time>
      </trkpt>
      <trkpt lat="45.92678" lon="4.72871">
        <ele>169</ele>
        <time>2018-06-05T08:19:20Z</time>
      </trkpt>
      <trkpt lat="45.92683" lon="4.72866">
        <ele>169</ele>
        <time>2018-06-05T08:19:21Z</time>
      </trkpt>
      <trkpt lat="45.92689" lon="4.72861">
        <ele>169</ele>
        <time>2018-06-05T08:19:22Z</time>
      </trkpt>
      <trkpt lat="45.92695" lon="4.72858">
        <ele>169</ele>
        <time>2018-06-05T08:19:23Z</time>
      </trkpt>
      <trkpt lat="45.927" lon="4.72854">
        <ele>169</ele>
        <time>2018-06-05T08:19:24Z</time>
      </trkpt>
      <trkpt lat="45.92705" lon="4.72848">
        <ele>169</ele>
        <time>2018-06-05T08:19:25Z</time>
      </trkpt>
      <trkpt lat="45.92709" lon="4.72845">
        <ele>169</ele>
        <time>2018-06-05T08:19:26Z</time>
      </trkpt>
      <trkpt lat="45.92715" lon="4.72841">
        <ele>169</ele>
        <time>2018-06-05T08:19:27Z</time>
      </trkpt>
      <trkpt lat="45.9272" lon="4.72837">
        <ele>169</ele>
        <time>2018-06-05T08:19:28Z</time>
      </trkpt>
      <trkpt lat="45.92726" lon="4.72832">
        <ele>170</ele>
        <time>2018-06-05T08:19:29Z</time>
      </trkpt>
      <trkpt lat="45.92731" lon="4.72828">
        <ele>170</ele>
        <time>2018-06-05T08:19:30Z</time>
      </trkpt>
      <trkpt lat="45.92736" lon="4.72825">
        <ele>169</ele>
        <time>2018-06-05T08:19:31Z</time>
      </trkpt>
      <trkpt lat="45.92741" lon="4.7282">
        <ele>169</ele>
        <time>2018-06-05T08:19:32Z</time>
      </trkpt>
      <trkpt lat="45.92746" lon="4.72814">
        <ele>170</ele>
        <time>2018-06-05T08:19:33Z</time>
      </trkpt>
      <trkpt lat="45.9275" lon="4.72812">
        <ele>170</ele>
        <time>2018-06-05T08:19:34Z</time>
      </trkpt>
      <trkpt lat="45.92754" lon="4.72804">
        <ele>170</ele>
        <time>2018-06-05T08:19:35Z</time>
      </trkpt>
      <trkpt lat="45.92759" lon="4.72801">
        <ele>170</ele>
        <time>2018-06-05T08:19:36Z</time>
      </trkpt>
      <trkpt lat="45.92763" lon="4.72798">
        <ele>170</ele>
        <time>2018-06-05T08:19:37Z</time>
      </trkpt>
      <trkpt lat="45.92768" lon="4.72794">
        <ele>170</ele>
        <time>2018-06-05T08:19:38Z</time>
      </trkpt>
      <trkpt lat="45.92772" lon="4.72791">
        <ele>170</ele>
        <time>2018-06-05T08:19:39Z</time>
      </trkpt>
      <trkpt lat="45.92776" lon="4.72789">
        <ele>170</ele>
        <time>2018-06-05T08:19:40Z</time>
      </trkpt>
      <trkpt lat="45.92781" lon="4.72786">
        <ele>170</ele>
        <time>2018-06-05T08:19:41Z</time>
      </trkpt>
      <trkpt lat="45.92785" lon="4.72783">
        <ele>171</ele>
        <time>2018-06-05T08:19:42Z</time>
      </trkpt>
      <trkpt lat="45.92793" lon="4.72781">
        <ele>171</ele>
        <time>2018-06-05T08:19:44Z</time>
      </trkpt>
      <trkpt lat="45.92796" lon="4.72781">
        <ele>171</ele>
        <time>2018-06-05T08:19:45Z</time>
      </trkpt>
      <trkpt lat="45.92802" lon="4.7279">
        <ele>171</ele>
        <time>2018-06-05T08:19:47Z</time>
      </trkpt>
      <trkpt lat="45.92802" lon="4.72796">
        <ele>171</ele>
        <time>2018-06-05T08:19:48Z</time>
      </trkpt>
      <trkpt lat="45.92802" lon="4.72804">
        <ele>171</ele>
        <time>2018-06-05T08:19:49Z</time>
      </trkpt>
      <trkpt lat="45.92804" lon="4.72811">
        <ele>171</ele>
        <time>2018-06-05T08:19:50Z</time>
      </trkpt>
      <trkpt lat="45.92805" lon="4.72817">
        <ele>171</ele>
        <time>2018-06-05T08:19:51Z</time>
      </trkpt>
      <trkpt lat="45.92807" lon="4.72824">
        <ele>171</ele>
        <time>2018-06-05T08:19:52Z</time>
      </trkpt>
      <trkpt lat="45.92808" lon="4.72832">
        <ele>171</ele>
        <time>2018-06-05T08:19:53Z</time>
      </trkpt>
      <trkpt lat="45.9281" lon="4.72839">
        <ele>170</ele>
        <time>2018-06-05T08:19:54Z</time>
      </trkpt>
      <trkpt lat="45.92812" lon="4.72847">
        <ele>170</ele>
        <time>2018-06-05T08:19:55Z</time>
      </trkpt>
      <trkpt lat="45.92813" lon="4.72854">
        <ele>170</ele>
        <time>2018-06-05T08:19:56Z</time>
      </trkpt>
      <trkpt lat="45.92815" lon="4.72862">
        <ele>170</ele>
        <time>2018-06-05T08:19:57Z</time>
      </trkpt>
      <trkpt lat="45.92816" lon="4.72869">
        <ele>170</ele>
        <time>2018-06-05T08:19:58Z</time>
      </trkpt>
      <trkpt lat="45.92817" lon="4.72877">
        <ele>170</ele>
        <time>2018-06-05T08:19:59Z</time>
      </trkpt>
      <trkpt lat="45.92819" lon="4.72885">
        <ele>170</ele>
        <time>2018-06-05T08:20:00Z</time>
      </trkpt>
      <trkpt lat="45.92821" lon="4.72894">
        <ele>170</ele>
        <time>2018-06-05T08:20:01Z</time>
      </trkpt>
      <trkpt lat="45.92822" lon="4.72903">
        <ele>170</ele>
        <time>2018-06-05T08:20:02Z</time>
      </trkpt>
      <trkpt lat="45.92823" lon="4.72911">
        <ele>170</ele>
        <time>2018-06-05T08:20:03Z</time>
      </trkpt>
      <trkpt lat="45.92824" lon="4.7292">
        <ele>170</ele>
        <time>2018-06-05T08:20:04Z</time>
      </trkpt>
      <trkpt lat="45.92826" lon="4.72927">
        <ele>170</ele>
        <time>2018-06-05T08:20:05Z</time>
      </trkpt>
      <trkpt lat="45.92827" lon="4.72935">
        <ele>170</ele>
        <time>2018-06-05T08:20:06Z</time>
      </trkpt>
      <trkpt lat="45.92828" lon="4.72943">
        <ele>170</ele>
        <time>2018-06-05T08:20:07Z</time>
      </trkpt>
      <trkpt lat="45.92828" lon="4.72952">
        <ele>170</ele>
        <time>2018-06-05T08:20:08Z</time>
      </trkpt>
      <trkpt lat="45.92828" lon="4.7296">
        <ele>170</ele>
        <time>2018-06-05T08:20:09Z</time>
      </trkpt>
      <trkpt lat="45.92828" lon="4.72969">
        <ele>170</ele>
        <time>2018-06-05T08:20:10Z</time>
      </trkpt>
      <trkpt lat="45.9283" lon="4.72977">
        <ele>170</ele>
        <time>2018-06-05T08:20:11Z</time>
      </trkpt>
      <trkpt lat="45.92831" lon="4.72985">
        <ele>170</ele>
        <time>2018-06-05T08:20:12Z</time>
      </trkpt>
      <trkpt lat="45.92833" lon="4.72992">
        <ele>170</ele>
        <time>2018-06-05T08:20:13Z</time>
      </trkpt>
      <trkpt lat="45.92834" lon="4.73002">
        <ele>170</ele>
        <time>2018-06-05T08:20:14Z</time>
      </trkpt>
      <trkpt lat="45.92835" lon="4.7301">
        <ele>170</ele>
        <time>2018-06-05T08:20:15Z</time>
      </trkpt>
      <trkpt lat="45.92837" lon="4.73019">
        <ele>171</ele>
        <time>2018-06-05T08:20:16Z</time>
      </trkpt>
      <trkpt lat="45.92838" lon="4.73028">
        <ele>171</ele>
        <time>2018-06-05T08:20:17Z</time>
      </trkpt>
      <trkpt lat="45.92839" lon="4.73036">
        <ele>171</ele>
        <time>2018-06-05T08:20:18Z</time>
      </trkpt>
      <trkpt lat="45.92839" lon="4.7304">
        <ele>171</ele>
        <time>2018-06-05T08:20:19Z</time>
      </trkpt>
      <trkpt lat="45.92841" lon="4.7305">
        <ele>171</ele>
        <time>2018-06-05T08:20:20Z</time>
      </trkpt>
      <trkpt lat="45.92843" lon="4.73058">
        <ele>171</ele>
        <time>2018-06-05T08:20:21Z</time>
      </trkpt>
      <trkpt lat="45.92844" lon="4.73066">
        <ele>171</ele>
        <time>2018-06-05T08:20:22Z</time>
      </trkpt>
      <trkpt lat="45.92845" lon="4.73074">
        <ele>171</ele>
        <time>2018-06-05T08:20:23Z</time>
      </trkpt>
      <trkpt lat="45.92845" lon="4.73081">
        <ele>171</ele>
        <time>2018-06-05T08:20:24Z</time>
      </trkpt>
      <trkpt lat="45.92847" lon="4.73093">
        <ele>171</ele>
        <time>2018-06-05T08:20:26Z</time>
      </trkpt>
      <trkpt lat="45.92849" lon="4.73099">
        <ele>171</ele>
        <time>2018-06-05T08:20:27Z</time>
      </trkpt>
      <trkpt lat="45.92857" lon="4.73101">
        <ele>171</ele>
        <time>2018-06-05T08:20:31Z</time>
      </trkpt>
      <trkpt lat="45.92863" lon="4.73095">
        <ele>171</ele>
        <time>2018-06-05T08:20:32Z</time>
      </trkpt>
      <trkpt lat="45.9287" lon="4.73089">
        <ele>172</ele>
        <time>2018-06-05T08:20:35Z</time>
      </trkpt>
      <trkpt lat="45.92877" lon="4.73084">
        <ele>172</ele>
        <time>2018-06-05T08:20:36Z</time>
      </trkpt>
      <trkpt lat="45.92883" lon="4.73078">
        <ele>172</ele>
        <time>2018-06-05T08:20:37Z</time>
      </trkpt>
      <trkpt lat="45.92885" lon="4.73074">
        <ele>172</ele>
        <time>2018-06-05T08:20:38Z</time>
      </trkpt>
      <trkpt lat="45.92889" lon="4.73068">
        <ele>172</ele>
        <time>2018-06-05T08:20:39Z</time>
      </trkpt>
      <trkpt lat="45.92893" lon="4.73064">
        <ele>172</ele>
        <time>2018-06-05T08:20:40Z</time>
      </trkpt>
      <trkpt lat="45.92897" lon="4.7306">
        <ele>172</ele>
        <time>2018-06-05T08:20:41Z</time>
      </trkpt>
      <trkpt lat="45.92901" lon="4.73054">
        <ele>172</ele>
        <time>2018-06-05T08:20:42Z</time>
      </trkpt>
      <trkpt lat="45.92905" lon="4.73049">
        <ele>172</ele>
        <time>2018-06-05T08:20:43Z</time>
      </trkpt>
      <trkpt lat="45.92907" lon="4.73044">
        <ele>172</ele>
        <time>2018-06-05T08:20:44Z</time>
      </trkpt>
      <trkpt lat="45.92911" lon="4.73039">
        <ele>172</ele>
        <time>2018-06-05T08:20:45Z</time>
      </trkpt>
      <trkpt lat="45.92915" lon="4.73035">
        <ele>172</ele>
        <time>2018-06-05T08:20:46Z</time>
      </trkpt>
      <trkpt lat="45.92919" lon="4.73029">
        <ele>172</ele>
        <time>2018-06-05T08:20:47Z</time>
      </trkpt>
      <trkpt lat="45.92923" lon="4.73024">
        <ele>171</ele>
        <time>2018-06-05T08:20:48Z</time>
      </trkpt>
      <trkpt lat="45.92928" lon="4.73018">
        <ele>171</ele>
        <time>2018-06-05T08:20:49Z</time>
      </trkpt>
      <trkpt lat="45.92931" lon="4.73011">
        <ele>171</ele>
        <time>2018-06-05T08:20:50Z</time>
      </trkpt>
      <trkpt lat="45.92935" lon="4.73006">
        <ele>171</ele>
        <time>2018-06-05T08:20:51Z</time>
      </trkpt>
      <trkpt lat="45.92939" lon="4.73003">
        <ele>171</ele>
        <time>2018-06-05T08:20:52Z</time>
      </trkpt>
      <trkpt lat="45.92943" lon="4.72997">
        <ele>171</ele>
        <time>2018-06-05T08:20:53Z</time>
      </trkpt>
      <trkpt lat="45.9295" lon="4.72989">
        <ele>171</ele>
        <time>2018-06-05T08:20:54Z</time>
      </trkpt>
      <trkpt lat="45.92954" lon="4.72984">
        <ele>171</ele>
        <time>2018-06-05T08:20:55Z</time>
      </trkpt>
      <trkpt lat="45.9296" lon="4.72978">
        <ele>171</ele>
        <time>2018-06-05T08:20:56Z</time>
      </trkpt>
      <trkpt lat="45.92964" lon="4.72973">
        <ele>171</ele>
        <time>2018-06-05T08:20:57Z</time>
      </trkpt>
      <trkpt lat="45.92967" lon="4.72969">
        <ele>171</ele>
        <time>2018-06-05T08:20:58Z</time>
      </trkpt>
      <trkpt lat="45.92972" lon="4.72962">
        <ele>171</ele>
        <time>2018-06-05T08:20:59Z</time>
      </trkpt>
      <trkpt lat="45.92976" lon="4.72953">
        <ele>171</ele>
        <time>2018-06-05T08:21:00Z</time>
      </trkpt>
      <trkpt lat="45.92981" lon="4.72949">
        <ele>171</ele>
        <time>2018-06-05T08:21:01Z</time>
      </trkpt>
      <trkpt lat="45.92985" lon="4.72944">
        <ele>171</ele>
        <time>2018-06-05T08:21:02Z</time>
      </trkpt>
      <trkpt lat="45.9299" lon="4.7294">
        <ele>171</ele>
        <time>2018-06-05T08:21:03Z</time>
      </trkpt>
      <trkpt lat="45.92995" lon="4.72933">
        <ele>171</ele>
        <time>2018-06-05T08:21:04Z</time>
      </trkpt>
      <trkpt lat="45.92999" lon="4.72927">
        <ele>171</ele>
        <time>2018-06-05T08:21:05Z</time>
      </trkpt>
      <trkpt lat="45.93005" lon="4.72921">
        <ele>171</ele>
        <time>2018-06-05T08:21:06Z</time>
      </trkpt>
      <trkpt lat="45.93009" lon="4.72914">
        <ele>171</ele>
        <time>2018-06-05T08:21:07Z</time>
      </trkpt>
      <trkpt lat="45.93015" lon="4.72907">
        <ele>171</ele>
        <time>2018-06-05T08:21:08Z</time>
      </trkpt>
      <trkpt lat="45.93019" lon="4.72902">
        <ele>172</ele>
        <time>2018-06-05T08:21:09Z</time>
      </trkpt>
      <trkpt lat="45.93024" lon="4.72897">
        <ele>172</ele>
        <time>2018-06-05T08:21:10Z</time>
      </trkpt>
      <trkpt lat="45.93028" lon="4.72892">
        <ele>172</ele>
        <time>2018-06-05T08:21:11Z</time>
      </trkpt>
      <trkpt lat="45.93035" lon="4.72889">
        <ele>172</ele>
        <time>2018-06-05T08:21:12Z</time>
      </trkpt>
      <trkpt lat="45.93039" lon="4.72881">
        <ele>172</ele>
        <time>2018-06-05T08:21:13Z</time>
      </trkpt>
      <trkpt lat="45.93044" lon="4.72874">
        <ele>172</ele>
        <time>2018-06-05T08:21:14Z</time>
      </trkpt>
      <trkpt lat="45.93049" lon="4.7287">
        <ele>172</ele>
        <time>2018-06-05T08:21:15Z</time>
      </trkpt>
      <trkpt lat="45.93055" lon="4.72864">
        <ele>172</ele>
        <time>2018-06-05T08:21:16Z</time>
      </trkpt>
      <trkpt lat="45.93058" lon="4.72858">
        <ele>172</ele>
        <time>2018-06-05T08:21:17Z</time>
      </trkpt>
      <trkpt lat="45.93063" lon="4.72853">
        <ele>172</ele>
        <time>2018-06-05T08:21:18Z</time>
      </trkpt>
      <trkpt lat="45.93068" lon="4.72847">
        <ele>172</ele>
        <time>2018-06-05T08:21:19Z</time>
      </trkpt>
      <trkpt lat="45.93106" lon="4.72808">
        <ele>171</ele>
        <time>2018-06-05T08:21:27Z</time>
      </trkpt>
      <trkpt lat="45.93109" lon="4.72798">
        <ele>171</ele>
        <time>2018-06-05T08:21:29Z</time>
      </trkpt>
      <trkpt lat="45.9311" lon="4.72795">
        <ele>171</ele>
        <time>2018-06-05T08:21:30Z</time>
      </trkpt>
      <trkpt lat="45.93117" lon="4.72787">
        <ele>171</ele>
        <time>2018-06-05T08:21:31Z</time>
      </trkpt>
      <trkpt lat="45.93124" lon="4.72781">
        <ele>171</ele>
        <time>2018-06-05T08:21:32Z</time>
      </trkpt>
      <trkpt lat="45.93129" lon="4.72776">
        <ele>171</ele>
        <time>2018-06-05T08:21:33Z</time>
      </trkpt>
      <trkpt lat="45.93134" lon="4.7277">
        <ele>171</ele>
        <time>2018-06-05T08:21:34Z</time>
      </trkpt>
      <trkpt lat="45.93141" lon="4.72765">
        <ele>171</ele>
        <time>2018-06-05T08:21:35Z</time>
      </trkpt>
      <trkpt lat="45.93145" lon="4.7276">
        <ele>171</ele>
        <time>2018-06-05T08:21:36Z</time>
      </trkpt>
      <trkpt lat="45.9315" lon="4.72756">
        <ele>170</ele>
        <time>2018-06-05T08:21:37Z</time>
      </trkpt>
      <trkpt lat="45.93155" lon="4.72751">
        <ele>170</ele>
        <time>2018-06-05T08:21:38Z</time>
      </trkpt>
      <trkpt lat="45.9316" lon="4.72745">
        <ele>170</ele>
        <time>2018-06-05T08:21:39Z</time>
      </trkpt>
      <trkpt lat="45.93163" lon="4.72741">
        <ele>170</ele>
        <time>2018-06-05T08:21:40Z</time>
      </trkpt>
      <trkpt lat="45.93166" lon="4.72738">
        <ele>170</ele>
        <time>2018-06-05T08:21:41Z</time>
      </trkpt>
      <trkpt lat="45.93171" lon="4.72732">
        <ele>170</ele>
        <time>2018-06-05T08:21:42Z</time>
      </trkpt>
      <trkpt lat="45.93175" lon="4.72727">
        <ele>170</ele>
        <time>2018-06-05T08:21:43Z</time>
      </trkpt>
      <trkpt lat="45.93181" lon="4.7272">
        <ele>169</ele>
        <time>2018-06-05T08:21:44Z</time>
      </trkpt>
      <trkpt lat="45.93185" lon="4.72714">
        <ele>169</ele>
        <time>2018-06-05T08:21:45Z</time>
      </trkpt>
      <trkpt lat="45.93189" lon="4.7271">
        <ele>169</ele>
        <time>2018-06-05T08:21:46Z</time>
      </trkpt>
      <trkpt lat="45.93193" lon="4.72704">
        <ele>169</ele>
        <time>2018-06-05T08:21:47Z</time>
      </trkpt>
      <trkpt lat="45.93198" lon="4.72699">
        <ele>169</ele>
        <time>2018-06-05T08:21:48Z</time>
      </trkpt>
      <trkpt lat="45.93202" lon="4.72693">
        <ele>169</ele>
        <time>2018-06-05T08:21:49Z</time>
      </trkpt>
      <trkpt lat="45.93206" lon="4.72687">
        <ele>169</ele>
        <time>2018-06-05T08:21:50Z</time>
      </trkpt>
      <trkpt lat="45.93211" lon="4.72681">
        <ele>169</ele>
        <time>2018-06-05T08:21:51Z</time>
      </trkpt>
      <trkpt lat="45.93215" lon="4.72676">
        <ele>169</ele>
        <time>2018-06-05T08:21:52Z</time>
      </trkpt>
      <trkpt lat="45.9322" lon="4.72672">
        <ele>169</ele>
        <time>2018-06-05T08:21:53Z</time>
      </trkpt>
      <trkpt lat="45.93224" lon="4.72668">
        <ele>169</ele>
        <time>2018-06-05T08:21:54Z</time>
      </trkpt>
      <trkpt lat="45.93227" lon="4.72662">
        <ele>169</ele>
        <time>2018-06-05T08:21:55Z</time>
      </trkpt>
      <trkpt lat="45.93231" lon="4.72658">
        <ele>169</ele>
        <time>2018-06-05T08:21:56Z</time>
      </trkpt>
      <trkpt lat="45.93236" lon="4.72653">
        <ele>169</ele>
        <time>2018-06-05T08:21:57Z</time>
      </trkpt>
      <trkpt lat="45.9324" lon="4.72649">
        <ele>170</ele>
        <time>2018-06-05T08:21:58Z</time>
      </trkpt>
      <trkpt lat="45.93244" lon="4.72644">
        <ele>170</ele>
        <time>2018-06-05T08:21:59Z</time>
      </trkpt>
      <trkpt lat="45.9325" lon="4.72638">
        <ele>170</ele>
        <time>2018-06-05T08:22:00Z</time>
      </trkpt>
      <trkpt lat="45.93254" lon="4.72633">
        <ele>170</ele>
        <time>2018-06-05T08:22:01Z</time>
      </trkpt>
      <trkpt lat="45.93257" lon="4.72625">
        <ele>170</ele>
        <time>2018-06-05T08:22:02Z</time>
      </trkpt>
      <trkpt lat="45.93262" lon="4.72619">
        <ele>170</ele>
        <time>2018-06-05T08:22:03Z</time>
      </trkpt>
      <trkpt lat="45.93266" lon="4.72615">
        <ele>170</ele>
        <time>2018-06-05T08:22:04Z</time>
      </trkpt>
      <trkpt lat="45.9327" lon="4.7261">
        <ele>170</ele>
        <time>2018-06-05T08:22:05Z</time>
      </trkpt>
      <trkpt lat="45.93273" lon="4.72606">
        <ele>170</ele>
        <time>2018-06-05T08:22:06Z</time>
      </trkpt>
      <trkpt lat="45.93279" lon="4.726">
        <ele>170</ele>
        <time>2018-06-05T08:22:07Z</time>
      </trkpt>
      <trkpt lat="45.93283" lon="4.72595">
        <ele>170</ele>
        <time>2018-06-05T08:22:08Z</time>
      </trkpt>
      <trkpt lat="45.93288" lon="4.72591">
        <ele>170</ele>
        <time>2018-06-05T08:22:09Z</time>
      </trkpt>
      <trkpt lat="45.93292" lon="4.72585">
        <ele>170</ele>
        <time>2018-06-05T08:22:10Z</time>
      </trkpt>
      <trkpt lat="45.93296" lon="4.72579">
        <ele>171</ele>
        <time>2018-06-05T08:22:11Z</time>
      </trkpt>
      <trkpt lat="45.93299" lon="4.72576">
        <ele>171</ele>
        <time>2018-06-05T08:22:12Z</time>
      </trkpt>
      <trkpt lat="45.93305" lon="4.72569">
        <ele>171</ele>
        <time>2018-06-05T08:22:13Z</time>
      </trkpt>
      <trkpt lat="45.93309" lon="4.72566">
        <ele>171</ele>
        <time>2018-06-05T08:22:14Z</time>
      </trkpt>
      <trkpt lat="45.93313" lon="4.7256">
        <ele>171</ele>
        <time>2018-06-05T08:22:15Z</time>
      </trkpt>
      <trkpt lat="45.93319" lon="4.72557">
        <ele>171</ele>
        <time>2018-06-05T08:22:16Z</time>
      </trkpt>
      <trkpt lat="45.93323" lon="4.72552">
        <ele>172</ele>
        <time>2018-06-05T08:22:17Z</time>
      </trkpt>
      <trkpt lat="45.93329" lon="4.72546">
        <ele>172</ele>
        <time>2018-06-05T08:22:18Z</time>
      </trkpt>
      <trkpt lat="45.93334" lon="4.72535">
        <ele>172</ele>
        <time>2018-06-05T08:22:19Z</time>
      </trkpt>
      <trkpt lat="45.93338" lon="4.7253">
        <ele>172</ele>
        <time>2018-06-05T08:22:20Z</time>
      </trkpt>
      <trkpt lat="45.93344" lon="4.72525">
        <ele>172</ele>
        <time>2018-06-05T08:22:21Z</time>
      </trkpt>
      <trkpt lat="45.93349" lon="4.7252">
        <ele>172</ele>
        <time>2018-06-05T08:22:22Z</time>
      </trkpt>
      <trkpt lat="45.93352" lon="4.72515">
        <ele>172</ele>
        <time>2018-06-05T08:22:23Z</time>
      </trkpt>
      <trkpt lat="45.93356" lon="4.72509">
        <ele>172</ele>
        <time>2018-06-05T08:22:24Z</time>
      </trkpt>
      <trkpt lat="45.9336" lon="4.72504">
        <ele>172</ele>
        <time>2018-06-05T08:22:25Z</time>
      </trkpt>
      <trkpt lat="45.93363" lon="4.72499">
        <ele>173</ele>
        <time>2018-06-05T08:22:26Z</time>
      </trkpt>
      <trkpt lat="45.93367" lon="4.72495">
        <ele>173</ele>
        <time>2018-06-05T08:22:27Z</time>
      </trkpt>
      <trkpt lat="45.9337" lon="4.7249">
        <ele>173</ele>
        <time>2018-06-05T08:22:28Z</time>
      </trkpt>
      <trkpt lat="45.93374" lon="4.72485">
        <ele>173</ele>
        <time>2018-06-05T08:22:29Z</time>
      </trkpt>
      <trkpt lat="45.93378" lon="4.72481">
        <ele>173</ele>
        <time>2018-06-05T08:22:30Z</time>
      </trkpt>
      <trkpt lat="45.93381" lon="4.72476">
        <ele>173</ele>
        <time>2018-06-05T08:22:31Z</time>
      </trkpt>
      <trkpt lat="45.93385" lon="4.72471">
        <ele>173</ele>
        <time>2018-06-05T08:22:32Z</time>
      </trkpt>
      <trkpt lat="45.93389" lon="4.72465">
        <ele>173</ele>
        <time>2018-06-05T08:22:33Z</time>
      </trkpt>
      <trkpt lat="45.93392" lon="4.72459">
        <ele>173</ele>
        <time>2018-06-05T08:22:34Z</time>
      </trkpt>
      <trkpt lat="45.93397" lon="4.7245">
        <ele>173</ele>
        <time>2018-06-05T08:22:36Z</time>
      </trkpt>
      <trkpt lat="45.93398" lon="4.72446">
        <ele>173</ele>
        <time>2018-06-05T08:22:37Z</time>
      </trkpt>
      <trkpt lat="45.93399" lon="4.72439">
        <ele>173</ele>
        <time>2018-06-05T08:22:38Z</time>
      </trkpt>
      <trkpt lat="45.93401" lon="4.72434">
        <ele>173</ele>
        <time>2018-06-05T08:22:39Z</time>
      </trkpt>
      <trkpt lat="45.93404" lon="4.72428">
        <ele>173</ele>
        <time>2018-06-05T08:22:40Z</time>
      </trkpt>
      <trkpt lat="45.93409" lon="4.72423">
        <ele>174</ele>
        <time>2018-06-05T08:22:41Z</time>
      </trkpt>
      <trkpt lat="45.93413" lon="4.72418">
        <ele>174</ele>
        <time>2018-06-05T08:22:42Z</time>
      </trkpt>
      <trkpt lat="45.93417" lon="4.72415">
        <ele>174</ele>
        <time>2018-06-05T08:22:43Z</time>
      </trkpt>
      <trkpt lat="45.93422" lon="4.72412">
        <ele>174</ele>
        <time>2018-06-05T08:22:44Z</time>
      </trkpt>
      <trkpt lat="45.93427" lon="4.72409">
        <ele>174</ele>
        <time>2018-06-05T08:22:45Z</time>
      </trkpt>
      <trkpt lat="45.93433" lon="4.72405">
        <ele>174</ele>
        <time>2018-06-05T08:22:46Z</time>
      </trkpt>
      <trkpt lat="45.93438" lon="4.72401">
        <ele>173</ele>
        <time>2018-06-05T08:22:47Z</time>
      </trkpt>
      <trkpt lat="45.93443" lon="4.724">
        <ele>173</ele>
        <time>2018-06-05T08:22:48Z</time>
      </trkpt>
      <trkpt lat="45.93449" lon="4.72397">
        <ele>173</ele>
        <time>2018-06-05T08:22:49Z</time>
      </trkpt>
      <trkpt lat="45.93454" lon="4.72393">
        <ele>173</ele>
        <time>2018-06-05T08:22:50Z</time>
      </trkpt>
      <trkpt lat="45.9346" lon="4.72388">
        <ele>173</ele>
        <time>2018-06-05T08:22:51Z</time>
      </trkpt>
      <trkpt lat="45.93464" lon="4.72386">
        <ele>173</ele>
        <time>2018-06-05T08:22:52Z</time>
      </trkpt>
      <trkpt lat="45.9347" lon="4.72379">
        <ele>173</ele>
        <time>2018-06-05T08:22:53Z</time>
      </trkpt>
      <trkpt lat="45.93475" lon="4.72373">
        <ele>173</ele>
        <time>2018-06-05T08:22:54Z</time>
      </trkpt>
      <trkpt lat="45.9348" lon="4.72364">
        <ele>173</ele>
        <time>2018-06-05T08:22:55Z</time>
      </trkpt>
      <trkpt lat="45.93485" lon="4.72357">
        <ele>173</ele>
        <time>2018-06-05T08:22:56Z</time>
      </trkpt>
      <trkpt lat="45.93488" lon="4.72352">
        <ele>173</ele>
        <time>2018-06-05T08:22:57Z</time>
      </trkpt>
      <trkpt lat="45.93494" lon="4.72345">
        <ele>173</ele>
        <time>2018-06-05T08:22:58Z</time>
      </trkpt>
      <trkpt lat="45.93498" lon="4.72339">
        <ele>173</ele>
        <time>2018-06-05T08:22:59Z</time>
      </trkpt>
      <trkpt lat="45.93503" lon="4.72331">
        <ele>173</ele>
        <time>2018-06-05T08:23:00Z</time>
      </trkpt>
      <trkpt lat="45.93507" lon="4.72324">
        <ele>173</ele>
        <time>2018-06-05T08:23:01Z</time>
      </trkpt>
      <trkpt lat="45.93512" lon="4.72318">
        <ele>173</ele>
        <time>2018-06-05T08:23:02Z</time>
      </trkpt>
      <trkpt lat="45.93516" lon="4.72313">
        <ele>173</ele>
        <time>2018-06-05T08:23:03Z</time>
      </trkpt>
      <trkpt lat="45.93521" lon="4.72306">
        <ele>173</ele>
        <time>2018-06-05T08:23:04Z</time>
      </trkpt>
      <trkpt lat="45.93524" lon="4.723">
        <ele>172</ele>
        <time>2018-06-05T08:23:05Z</time>
      </trkpt>
      <trkpt lat="45.93526" lon="4.72294">
        <ele>172</ele>
        <time>2018-06-05T08:23:06Z</time>
      </trkpt>
      <trkpt lat="45.93529" lon="4.72287">
        <ele>172</ele>
        <time>2018-06-05T08:23:07Z</time>
      </trkpt>
      <trkpt lat="45.93531" lon="4.72282">
        <ele>172</ele>
        <time>2018-06-05T08:23:08Z</time>
      </trkpt>
      <trkpt lat="45.93534" lon="4.72274">
        <ele>172</ele>
        <time>2018-06-05T08:23:09Z</time>
      </trkpt>
      <trkpt lat="45.93536" lon="4.72269">
        <ele>172</ele>
        <time>2018-06-05T08:23:10Z</time>
      </trkpt>
      <trkpt lat="45.93539" lon="4.72262">
        <ele>172</ele>
        <time>2018-06-05T08:23:11Z</time>
      </trkpt>
      <trkpt lat="45.93542" lon="4.72255">
        <ele>172</ele>
        <time>2018-06-05T08:23:12Z</time>
      </trkpt>
      <trkpt lat="45.93544" lon="4.7225">
        <ele>172</ele>
        <time>2018-06-05T08:23:13Z</time>
      </trkpt>
      <trkpt lat="45.93546" lon="4.72244">
        <ele>172</ele>
        <time>2018-06-05T08:23:14Z</time>
      </trkpt>
      <trkpt lat="45.93549" lon="4.72237">
        <ele>172</ele>
        <time>2018-06-05T08:23:15Z</time>
      </trkpt>
      <trkpt lat="45.93552" lon="4.72233">
        <ele>172</ele>
        <time>2018-06-05T08:23:16Z</time>
      </trkpt>
      <trkpt lat="45.93556" lon="4.72228">
        <ele>173</ele>
        <time>2018-06-05T08:23:17Z</time>
      </trkpt>
      <trkpt lat="45.93559" lon="4.72222">
        <ele>173</ele>
        <time>2018-06-05T08:23:18Z</time>
      </trkpt>
      <trkpt lat="45.93565" lon="4.72215">
        <ele>173</ele>
        <time>2018-06-05T08:23:19Z</time>
      </trkpt>
      <trkpt lat="45.93569" lon="4.7221">
        <ele>173</ele>
        <time>2018-06-05T08:23:20Z</time>
      </trkpt>
      <trkpt lat="45.93574" lon="4.72205">
        <ele>173</ele>
        <time>2018-06-05T08:23:21Z</time>
      </trkpt>
      <trkpt lat="45.93579" lon="4.722">
        <ele>173</ele>
        <time>2018-06-05T08:23:22Z</time>
      </trkpt>
      <trkpt lat="45.93585" lon="4.72195">
        <ele>173</ele>
        <time>2018-06-05T08:23:23Z</time>
      </trkpt>
      <trkpt lat="45.9359" lon="4.7219">
        <ele>173</ele>
        <time>2018-06-05T08:23:24Z</time>
      </trkpt>
      <trkpt lat="45.93594" lon="4.72185">
        <ele>173</ele>
        <time>2018-06-05T08:23:25Z</time>
      </trkpt>
      <trkpt lat="45.93598" lon="4.7218">
        <ele>173</ele>
        <time>2018-06-05T08:23:26Z</time>
      </trkpt>
      <trkpt lat="45.93603" lon="4.72176">
        <ele>173</ele>
        <time>2018-06-05T08:23:27Z</time>
      </trkpt>
      <trkpt lat="45.93609" lon="4.72172">
        <ele>173</ele>
        <time>2018-06-05T08:23:28Z</time>
      </trkpt>
      <trkpt lat="45.93614" lon="4.72168">
        <ele>173</ele>
        <time>2018-06-05T08:23:29Z</time>
      </trkpt>
      <trkpt lat="45.9362" lon="4.72162">
        <ele>173</ele>
        <time>2018-06-05T08:23:30Z</time>
      </trkpt>
      <trkpt lat="45.93625" lon="4.72158">
        <ele>173</ele>
        <time>2018-06-05T08:23:31Z</time>
      </trkpt>
      <trkpt lat="45.93631" lon="4.72152">
        <ele>173</ele>
        <time>2018-06-05T08:23:32Z</time>
      </trkpt>
      <trkpt lat="45.93636" lon="4.72145">
        <ele>173</ele>
        <time>2018-06-05T08:23:33Z</time>
      </trkpt>
      <trkpt lat="45.93641" lon="4.72139">
        <ele>173</ele>
        <time>2018-06-05T08:23:34Z</time>
      </trkpt>
      <trkpt lat="45.93647" lon="4.72131">
        <ele>173</ele>
        <time>2018-06-05T08:23:35Z</time>
      </trkpt>
      <trkpt lat="45.9365" lon="4.72124">
        <ele>173</ele>
        <time>2018-06-05T08:23:36Z</time>
      </trkpt>
      <trkpt lat="45.93652" lon="4.72117">
        <ele>173</ele>
        <time>2018-06-05T08:23:37Z</time>
      </trkpt>
      <trkpt lat="45.93656" lon="4.72111">
        <ele>173</ele>
        <time>2018-06-05T08:23:38Z</time>
      </trkpt>
      <trkpt lat="45.9366" lon="4.72105">
        <ele>173</ele>
        <time>2018-06-05T08:23:39Z</time>
      </trkpt>
      <trkpt lat="45.93663" lon="4.72097">
        <ele>173</ele>
        <time>2018-06-05T08:23:40Z</time>
      </trkpt>
      <trkpt lat="45.93667" lon="4.72089">
        <ele>172</ele>
        <time>2018-06-05T08:23:41Z</time>
      </trkpt>
      <trkpt lat="45.9367" lon="4.72082">
        <ele>172</ele>
        <time>2018-06-05T08:23:42Z</time>
      </trkpt>
      <trkpt lat="45.93675" lon="4.72075">
        <ele>172</ele>
        <time>2018-06-05T08:23:43Z</time>
      </trkpt>
      <trkpt lat="45.93679" lon="4.72067">
        <ele>172</ele>
        <time>2018-06-05T08:23:44Z</time>
      </trkpt>
      <trkpt lat="45.93683" lon="4.72061">
        <ele>172</ele>
        <time>2018-06-05T08:23:45Z</time>
      </trkpt>
      <trkpt lat="45.93686" lon="4.72054">
        <ele>172</ele>
        <time>2018-06-05T08:23:46Z</time>
      </trkpt>
      <trkpt lat="45.9369" lon="4.72048">
        <ele>172</ele>
        <time>2018-06-05T08:23:47Z</time>
      </trkpt>
      <trkpt lat="45.93694" lon="4.72042">
        <ele>173</ele>
        <time>2018-06-05T08:23:48Z</time>
      </trkpt>
      <trkpt lat="45.93696" lon="4.72038">
        <ele>172</ele>
        <time>2018-06-05T08:23:49Z</time>
      </trkpt>
      <trkpt lat="45.93699" lon="4.72028">
        <ele>172</ele>
        <time>2018-06-05T08:23:50Z</time>
      </trkpt>
      <trkpt lat="45.93702" lon="4.72022">
        <ele>172</ele>
        <time>2018-06-05T08:23:51Z</time>
      </trkpt>
      <trkpt lat="45.93706" lon="4.72017">
        <ele>172</ele>
        <time>2018-06-05T08:23:52Z</time>
      </trkpt>
      <trkpt lat="45.93709" lon="4.72011">
        <ele>172</ele>
        <time>2018-06-05T08:23:53Z</time>
      </trkpt>
      <trkpt lat="45.93713" lon="4.72006">
        <ele>172</ele>
        <time>2018-06-05T08:23:54Z</time>
      </trkpt>
      <trkpt lat="45.93719" lon="4.71998">
        <ele>172</ele>
        <time>2018-06-05T08:23:55Z</time>
      </trkpt>
      <trkpt lat="45.93723" lon="4.71992">
        <ele>172</ele>
        <time>2018-06-05T08:23:56Z</time>
      </trkpt>
      <trkpt lat="45.93726" lon="4.71986">
        <ele>172</ele>
        <time>2018-06-05T08:23:57Z</time>
      </trkpt>
      <trkpt lat="45.93731" lon="4.71979">
        <ele>172</ele>
        <time>2018-06-05T08:23:58Z</time>
      </trkpt>
      <trkpt lat="45.93732" lon="4.71971">
        <ele>172</ele>
        <time>2018-06-05T08:23:59Z</time>
      </trkpt>
      <trkpt lat="45.93736" lon="4.71966">
        <ele>172</ele>
        <time>2018-06-05T08:24:00Z</time>
      </trkpt>
      <trkpt lat="45.93739" lon="4.71961">
        <ele>172</ele>
        <time>2018-06-05T08:24:01Z</time>
      </trkpt>
      <trkpt lat="45.93746" lon="4.71957">
        <ele>172</ele>
        <time>2018-06-05T08:24:02Z</time>
      </trkpt>
      <trkpt lat="45.93752" lon="4.71955">
        <ele>171</ele>
        <time>2018-06-05T08:24:03Z</time>
      </trkpt>
      <trkpt lat="45.93757" lon="4.71946">
        <ele>171</ele>
        <time>2018-06-05T08:24:04Z</time>
      </trkpt>
      <trkpt lat="45.93761" lon="4.7194">
        <ele>171</ele>
        <time>2018-06-05T08:24:05Z</time>
      </trkpt>
      <trkpt lat="45.93764" lon="4.71933">
        <ele>171</ele>
        <time>2018-06-05T08:24:06Z</time>
      </trkpt>
      <trkpt lat="45.93768" lon="4.71928">
        <ele>171</ele>
        <time>2018-06-05T08:24:07Z</time>
      </trkpt>
      <trkpt lat="45.93772" lon="4.71922">
        <ele>171</ele>
        <time>2018-06-05T08:24:08Z</time>
      </trkpt>
      <trkpt lat="45.93776" lon="4.71916">
        <ele>172</ele>
        <time>2018-06-05T08:24:09Z</time>
      </trkpt>
      <trkpt lat="45.93779" lon="4.71908">
        <ele>172</ele>
        <time>2018-06-05T08:24:10Z</time>
      </trkpt>
      <trkpt lat="45.9378" lon="4.71899">
        <ele>172</ele>
        <time>2018-06-05T08:24:11Z</time>
      </trkpt>
      <trkpt lat="45.93781" lon="4.7189">
        <ele>172</ele>
        <time>2018-06-05T08:24:12Z</time>
      </trkpt>
      <trkpt lat="45.93781" lon="4.7188">
        <ele>172</ele>
        <time>2018-06-05T08:24:13Z</time>
      </trkpt>
      <trkpt lat="45.93787" lon="4.71876">
        <ele>172</ele>
        <time>2018-06-05T08:24:14Z</time>
      </trkpt>
      <trkpt lat="45.93793" lon="4.71869">
        <ele>172</ele>
        <time>2018-06-05T08:24:15Z</time>
      </trkpt>
      <trkpt lat="45.93798" lon="4.71859">
        <ele>172</ele>
        <time>2018-06-05T08:24:16Z</time>
      </trkpt>
      <trkpt lat="45.93801" lon="4.71853">
        <ele>172</ele>
        <time>2018-06-05T08:24:17Z</time>
      </trkpt>
      <trkpt lat="45.93806" lon="4.71848">
        <ele>172</ele>
        <time>2018-06-05T08:24:18Z</time>
      </trkpt>
      <trkpt lat="45.93813" lon="4.71843">
        <ele>172</ele>
        <time>2018-06-05T08:24:19Z</time>
      </trkpt>
      <trkpt lat="45.93817" lon="4.71836">
        <ele>172</ele>
        <time>2018-06-05T08:24:20Z</time>
      </trkpt>
      <trkpt lat="45.93821" lon="4.71829">
        <ele>173</ele>
        <time>2018-06-05T08:24:21Z</time>
      </trkpt>
      <trkpt lat="45.93825" lon="4.71822">
        <ele>173</ele>
        <time>2018-06-05T08:24:22Z</time>
      </trkpt>
      <trkpt lat="45.93829" lon="4.71814">
        <ele>173</ele>
        <time>2018-06-05T08:24:23Z</time>
      </trkpt>
      <trkpt lat="45.93833" lon="4.71807">
        <ele>173</ele>
        <time>2018-06-05T08:24:24Z</time>
      </trkpt>
      <trkpt lat="45.93836" lon="4.718">
        <ele>173</ele>
        <time>2018-06-05T08:24:25Z</time>
      </trkpt>
      <trkpt lat="45.93841" lon="4.71793">
        <ele>173</ele>
        <time>2018-06-05T08:24:26Z</time>
      </trkpt>
      <trkpt lat="45.93845" lon="4.71785">
        <ele>173</ele>
        <time>2018-06-05T08:24:27Z</time>
      </trkpt>
      <trkpt lat="45.93849" lon="4.71777">
        <ele>173</ele>
        <time>2018-06-05T08:24:28Z</time>
      </trkpt>
      <trkpt lat="45.93853" lon="4.71772">
        <ele>173</ele>
        <time>2018-06-05T08:24:29Z</time>
      </trkpt>
      <trkpt lat="45.93858" lon="4.71766">
        <ele>173</ele>
        <time>2018-06-05T08:24:30Z</time>
      </trkpt>
      <trkpt lat="45.93862" lon="4.71759">
        <ele>173</ele>
        <time>2018-06-05T08:24:31Z</time>
      </trkpt>
      <trkpt lat="45.93868" lon="4.71752">
        <ele>173</ele>
        <time>2018-06-05T08:24:32Z</time>
      </trkpt>
      <trkpt lat="45.93873" lon="4.71748">
        <ele>174</ele>
        <time>2018-06-05T08:24:33Z</time>
      </trkpt>
      <trkpt lat="45.93879" lon="4.71741">
        <ele>174</ele>
        <time>2018-06-05T08:24:34Z</time>
      </trkpt>
      <trkpt lat="45.93884" lon="4.71735">
        <ele>174</ele>
        <time>2018-06-05T08:24:35Z</time>
      </trkpt>
      <trkpt lat="45.93889" lon="4.7173">
        <ele>174</ele>
        <time>2018-06-05T08:24:36Z</time>
      </trkpt>
      <trkpt lat="45.93894" lon="4.71724">
        <ele>174</ele>
        <time>2018-06-05T08:24:37Z</time>
      </trkpt>
      <trkpt lat="45.93899" lon="4.71718">
        <ele>174</ele>
        <time>2018-06-05T08:24:38Z</time>
      </trkpt>
      <trkpt lat="45.93905" lon="4.71715">
        <ele>174</ele>
        <time>2018-06-05T08:24:39Z</time>
      </trkpt>
      <trkpt lat="45.9391" lon="4.7171">
        <ele>174</ele>
        <time>2018-06-05T08:24:40Z</time>
      </trkpt>
      <trkpt lat="45.93916" lon="4.71708">
        <ele>174</ele>
        <time>2018-06-05T08:24:41Z</time>
      </trkpt>
      <trkpt lat="45.93922" lon="4.71707">
        <ele>174</ele>
        <time>2018-06-05T08:24:42Z</time>
      </trkpt>
      <trkpt lat="45.93927" lon="4.71704">
        <ele>174</ele>
        <time>2018-06-05T08:24:43Z</time>
      </trkpt>
      <trkpt lat="45.93933" lon="4.71701">
        <ele>174</ele>
        <time>2018-06-05T08:24:44Z</time>
      </trkpt>
      <trkpt lat="45.93938" lon="4.71698">
        <ele>174</ele>
        <time>2018-06-05T08:24:45Z</time>
      </trkpt>
      <trkpt lat="45.93944" lon="4.71694">
        <ele>175</ele>
        <time>2018-06-05T08:24:46Z</time>
      </trkpt>
      <trkpt lat="45.93949" lon="4.71692">
        <ele>175</ele>
        <time>2018-06-05T08:24:47Z</time>
      </trkpt>
      <trkpt lat="45.93954" lon="4.71689">
        <ele>175</ele>
        <time>2018-06-05T08:24:48Z</time>
      </trkpt>
      <trkpt lat="45.93961" lon="4.71684">
        <ele>175</ele>
        <time>2018-06-05T08:24:49Z</time>
      </trkpt>
      <trkpt lat="45.93966" lon="4.71681">
        <ele>175</ele>
        <time>2018-06-05T08:24:50Z</time>
      </trkpt>
      <trkpt lat="45.9397" lon="4.7168">
        <ele>175</ele>
        <time>2018-06-05T08:24:51Z</time>
      </trkpt>
      <trkpt lat="45.93976" lon="4.71679">
        <ele>175</ele>
        <time>2018-06-05T08:24:52Z</time>
      </trkpt>
      <trkpt lat="45.93981" lon="4.71677">
        <ele>176</ele>
        <time>2018-06-05T08:24:53Z</time>
      </trkpt>
      <trkpt lat="45.93987" lon="4.71673">
        <ele>176</ele>
        <time>2018-06-05T08:24:54Z</time>
      </trkpt>
      <trkpt lat="45.93991" lon="4.71675">
        <ele>176</ele>
        <time>2018-06-05T08:24:55Z</time>
      </trkpt>
      <trkpt lat="45.93996" lon="4.71676">
        <ele>176</ele>
        <time>2018-06-05T08:24:56Z</time>
      </trkpt>
      <trkpt lat="45.94" lon="4.7168">
        <ele>176</ele>
        <time>2018-06-05T08:24:57Z</time>
      </trkpt>
      <trkpt lat="45.94008" lon="4.71685">
        <ele>175</ele>
        <time>2018-06-05T08:24:59Z</time>
      </trkpt>
      <trkpt lat="45.94013" lon="4.71685">
        <ele>175</ele>
        <time>2018-06-05T08:25:00Z</time>
      </trkpt>
      <trkpt lat="45.94017" lon="4.71682">
        <ele>175</ele>
        <time>2018-06-05T08:25:01Z</time>
      </trkpt>
      <trkpt lat="45.94021" lon="4.71675">
        <ele>175</ele>
        <time>2018-06-05T08:25:02Z</time>
      </trkpt>
      <trkpt lat="45.94024" lon="4.71669">
        <ele>175</ele>
        <time>2018-06-05T08:25:03Z</time>
      </trkpt>
      <trkpt lat="45.94026" lon="4.71663">
        <ele>175</ele>
        <time>2018-06-05T08:25:04Z</time>
      </trkpt>
      <trkpt lat="45.9403" lon="4.71657">
        <ele>175</ele>
        <time>2018-06-05T08:25:05Z</time>
      </trkpt>
      <trkpt lat="45.94035" lon="4.71652">
        <ele>175</ele>
        <time>2018-06-05T08:25:06Z</time>
      </trkpt>
      <trkpt lat="45.9404" lon="4.71646">
        <ele>175</ele>
        <time>2018-06-05T08:25:07Z</time>
      </trkpt>
      <trkpt lat="45.94046" lon="4.71645">
        <ele>175</ele>
        <time>2018-06-05T08:25:08Z</time>
      </trkpt>
      <trkpt lat="45.94052" lon="4.71642">
        <ele>175</ele>
        <time>2018-06-05T08:25:09Z</time>
      </trkpt>
      <trkpt lat="45.94057" lon="4.71639">
        <ele>174</ele>
        <time>2018-06-05T08:25:10Z</time>
      </trkpt>
      <trkpt lat="45.94063" lon="4.71637">
        <ele>174</ele>
        <time>2018-06-05T08:25:11Z</time>
      </trkpt>
      <trkpt lat="45.94069" lon="4.71634">
        <ele>174</ele>
        <time>2018-06-05T08:25:12Z</time>
      </trkpt>
      <trkpt lat="45.94074" lon="4.7163">
        <ele>174</ele>
        <time>2018-06-05T08:25:13Z</time>
      </trkpt>
      <trkpt lat="45.9408" lon="4.71628">
        <ele>174</ele>
        <time>2018-06-05T08:25:14Z</time>
      </trkpt>
      <trkpt lat="45.94086" lon="4.71625">
        <ele>173</ele>
        <time>2018-06-05T08:25:15Z</time>
      </trkpt>
      <trkpt lat="45.94091" lon="4.71623">
        <ele>173</ele>
        <time>2018-06-05T08:25:16Z</time>
      </trkpt>
      <trkpt lat="45.94097" lon="4.71625">
        <ele>173</ele>
        <time>2018-06-05T08:25:17Z</time>
      </trkpt>
      <trkpt lat="45.94104" lon="4.71622">
        <ele>173</ele>
        <time>2018-06-05T08:25:18Z</time>
      </trkpt>
      <trkpt lat="45.94109" lon="4.71621">
        <ele>173</ele>
        <time>2018-06-05T08:25:19Z</time>
      </trkpt>
      <trkpt lat="45.94115" lon="4.71618">
        <ele>173</ele>
        <time>2018-06-05T08:25:20Z</time>
      </trkpt>
      <trkpt lat="45.94121" lon="4.71615">
        <ele>173</ele>
        <time>2018-06-05T08:25:21Z</time>
      </trkpt>
      <trkpt lat="45.94128" lon="4.71614">
        <ele>173</ele>
        <time>2018-06-05T08:25:22Z</time>
      </trkpt>
      <trkpt lat="45.94133" lon="4.71613">
        <ele>173</ele>
        <time>2018-06-05T08:25:23Z</time>
      </trkpt>
      <trkpt lat="45.94138" lon="4.71609">
        <ele>173</ele>
        <time>2018-06-05T08:25:24Z</time>
      </trkpt>
      <trkpt lat="45.94144" lon="4.71607">
        <ele>173</ele>
        <time>2018-06-05T08:25:25Z</time>
      </trkpt>
      <trkpt lat="45.9415" lon="4.71604">
        <ele>173</ele>
        <time>2018-06-05T08:25:26Z</time>
      </trkpt>
      <trkpt lat="45.94156" lon="4.71604">
        <ele>173</ele>
        <time>2018-06-05T08:25:27Z</time>
      </trkpt>
      <trkpt lat="45.94163" lon="4.716">
        <ele>173</ele>
        <time>2018-06-05T08:25:28Z</time>
      </trkpt>
      <trkpt lat="45.94169" lon="4.71597">
        <ele>173</ele>
        <time>2018-06-05T08:25:29Z</time>
      </trkpt>
      <trkpt lat="45.94176" lon="4.71593">
        <ele>173</ele>
        <time>2018-06-05T08:25:30Z</time>
      </trkpt>
      <trkpt lat="45.94182" lon="4.71591">
        <ele>173</ele>
        <time>2018-06-05T08:25:31Z</time>
      </trkpt>
      <trkpt lat="45.94188" lon="4.71587">
        <ele>173</ele>
        <time>2018-06-05T08:25:32Z</time>
      </trkpt>
      <trkpt lat="45.94194" lon="4.71585">
        <ele>173</ele>
        <time>2018-06-05T08:25:33Z</time>
      </trkpt>
      <trkpt lat="45.94199" lon="4.71583">
        <ele>174</ele>
        <time>2018-06-05T08:25:34Z</time>
      </trkpt>
      <trkpt lat="45.94205" lon="4.71582">
        <ele>174</ele>
        <time>2018-06-05T08:25:35Z</time>
      </trkpt>
      <trkpt lat="45.94211" lon="4.7158">
        <ele>174</ele>
        <time>2018-06-05T08:25:36Z</time>
      </trkpt>
      <trkpt lat="45.94216" lon="4.71576">
        <ele>174</ele>
        <time>2018-06-05T08:25:37Z</time>
      </trkpt>
      <trkpt lat="45.94222" lon="4.71574">
        <ele>174</ele>
        <time>2018-06-05T08:25:38Z</time>
      </trkpt>
      <trkpt lat="45.94229" lon="4.71572">
        <ele>174</ele>
        <time>2018-06-05T08:25:39Z</time>
      </trkpt>
      <trkpt lat="45.94235" lon="4.7157">
        <ele>174</ele>
        <time>2018-06-05T08:25:40Z</time>
      </trkpt>
      <trkpt lat="45.94243" lon="4.71566">
        <ele>174</ele>
        <time>2018-06-05T08:25:42Z</time>
      </trkpt>
      <trkpt lat="45.94252" lon="4.71562">
        <ele>175</ele>
        <time>2018-06-05T08:25:43Z</time>
      </trkpt>
      <trkpt lat="45.94258" lon="4.71559">
        <ele>175</ele>
        <time>2018-06-05T08:25:44Z</time>
      </trkpt>
      <trkpt lat="45.94261" lon="4.71559">
        <ele>175</ele>
        <time>2018-06-05T08:25:45Z</time>
      </trkpt>
      <trkpt lat="45.94267" lon="4.71556">
        <ele>175</ele>
        <time>2018-06-05T08:25:46Z</time>
      </trkpt>
      <trkpt lat="45.94273" lon="4.71555">
        <ele>175</ele>
        <time>2018-06-05T08:25:47Z</time>
      </trkpt>
      <trkpt lat="45.94279" lon="4.71551">
        <ele>175</ele>
        <time>2018-06-05T08:25:48Z</time>
      </trkpt>
      <trkpt lat="45.94285" lon="4.71549">
        <ele>175</ele>
        <time>2018-06-05T08:25:49Z</time>
      </trkpt>
      <trkpt lat="45.94291" lon="4.71547">
        <ele>175</ele>
        <time>2018-06-05T08:25:50Z</time>
      </trkpt>
      <trkpt lat="45.94296" lon="4.71545">
        <ele>175</ele>
        <time>2018-06-05T08:25:51Z</time>
      </trkpt>
      <trkpt lat="45.94301" lon="4.71543">
        <ele>175</ele>
        <time>2018-06-05T08:25:52Z</time>
      </trkpt>
      <trkpt lat="45.94308" lon="4.71541">
        <ele>175</ele>
        <time>2018-06-05T08:25:53Z</time>
      </trkpt>
      <trkpt lat="45.94312" lon="4.71542">
        <ele>175</ele>
        <time>2018-06-05T08:25:54Z</time>
      </trkpt>
      <trkpt lat="45.94318" lon="4.7154">
        <ele>175</ele>
        <time>2018-06-05T08:25:55Z</time>
      </trkpt>
      <trkpt lat="45.94323" lon="4.71539">
        <ele>175</ele>
        <time>2018-06-05T08:25:56Z</time>
      </trkpt>
      <trkpt lat="45.94327" lon="4.71538">
        <ele>176</ele>
        <time>2018-06-05T08:25:57Z</time>
      </trkpt>
      <trkpt lat="45.94333" lon="4.71537">
        <ele>176</ele>
        <time>2018-06-05T08:25:58Z</time>
      </trkpt>
      <trkpt lat="45.94338" lon="4.71534">
        <ele>176</ele>
        <time>2018-06-05T08:25:59Z</time>
      </trkpt>
      <trkpt lat="45.94344" lon="4.71531">
        <ele>176</ele>
        <time>2018-06-05T08:26:00Z</time>
      </trkpt>
      <trkpt lat="45.94349" lon="4.71529">
        <ele>176</ele>
        <time>2018-06-05T08:26:01Z</time>
      </trkpt>
      <trkpt lat="45.94355" lon="4.71527">
        <ele>176</ele>
        <time>2018-06-05T08:26:02Z</time>
      </trkpt>
      <trkpt lat="45.94361" lon="4.71527">
        <ele>176</ele>
        <time>2018-06-05T08:26:03Z</time>
      </trkpt>
      <trkpt lat="45.94367" lon="4.71526">
        <ele>176</ele>
        <time>2018-06-05T08:26:04Z</time>
      </trkpt>
      <trkpt lat="45.94372" lon="4.71522">
        <ele>176</ele>
        <time>2018-06-05T08:26:05Z</time>
      </trkpt>
      <trkpt lat="45.94377" lon="4.71521">
        <ele>176</ele>
        <time>2018-06-05T08:26:06Z</time>
      </trkpt>
      <trkpt lat="45.94383" lon="4.7152">
        <ele>177</ele>
        <time>2018-06-05T08:26:07Z</time>
      </trkpt>
      <trkpt lat="45.94388" lon="4.71516">
        <ele>177</ele>
        <time>2018-06-05T08:26:08Z</time>
      </trkpt>
      <trkpt lat="45.94395" lon="4.71514">
        <ele>177</ele>
        <time>2018-06-05T08:26:09Z</time>
      </trkpt>
      <trkpt lat="45.944" lon="4.71512">
        <ele>177</ele>
        <time>2018-06-05T08:26:10Z</time>
      </trkpt>
      <trkpt lat="45.94404" lon="4.71509">
        <ele>177</ele>
        <time>2018-06-05T08:26:11Z</time>
      </trkpt>
      <trkpt lat="45.94409" lon="4.71508">
        <ele>177</ele>
        <time>2018-06-05T08:26:12Z</time>
      </trkpt>
      <trkpt lat="45.94413" lon="4.71507">
        <ele>177</ele>
        <time>2018-06-05T08:26:13Z</time>
      </trkpt>
      <trkpt lat="45.94417" lon="4.71506">
        <ele>178</ele>
        <time>2018-06-05T08:26:14Z</time>
      </trkpt>
      <trkpt lat="45.94422" lon="4.71502">
        <ele>178</ele>
        <time>2018-06-05T08:26:15Z</time>
      </trkpt>
      <trkpt lat="45.94427" lon="4.715">
        <ele>178</ele>
        <time>2018-06-05T08:26:16Z</time>
      </trkpt>
      <trkpt lat="45.94433" lon="4.71496">
        <ele>178</ele>
        <time>2018-06-05T08:26:17Z</time>
      </trkpt>
      <trkpt lat="45.94441" lon="4.71493">
        <ele>178</ele>
        <time>2018-06-05T08:26:19Z</time>
      </trkpt>
      <trkpt lat="45.94446" lon="4.71492">
        <ele>178</ele>
        <time>2018-06-05T08:26:20Z</time>
      </trkpt>
      <trkpt lat="45.9445" lon="4.71491">
        <ele>179</ele>
        <time>2018-06-05T08:26:21Z</time>
      </trkpt>
      <trkpt lat="45.94455" lon="4.71486">
        <ele>179</ele>
        <time>2018-06-05T08:26:22Z</time>
      </trkpt>
      <trkpt lat="45.9446" lon="4.71484">
        <ele>179</ele>
        <time>2018-06-05T08:26:23Z</time>
      </trkpt>
      <trkpt lat="45.94464" lon="4.71482">
        <ele>179</ele>
        <time>2018-06-05T08:26:24Z</time>
      </trkpt>
      <trkpt lat="45.94469" lon="4.7148">
        <ele>179</ele>
        <time>2018-06-05T08:26:25Z</time>
      </trkpt>
      <trkpt lat="45.94473" lon="4.71478">
        <ele>179</ele>
        <time>2018-06-05T08:26:26Z</time>
      </trkpt>
      <trkpt lat="45.94477" lon="4.71474">
        <ele>179</ele>
        <time>2018-06-05T08:26:27Z</time>
      </trkpt>
      <trkpt lat="45.94481" lon="4.71471">
        <ele>179</ele>
        <time>2018-06-05T08:26:28Z</time>
      </trkpt>
      <trkpt lat="45.9449" lon="4.7147">
        <ele>179</ele>
        <time>2018-06-05T08:26:30Z</time>
      </trkpt>
      <trkpt lat="45.94495" lon="4.71465">
        <ele>179</ele>
        <time>2018-06-05T08:26:31Z</time>
      </trkpt>
      <trkpt lat="45.94503" lon="4.71464">
        <ele>180</ele>
        <time>2018-06-05T08:26:33Z</time>
      </trkpt>
      <trkpt lat="45.94508" lon="4.71462">
        <ele>180</ele>
        <time>2018-06-05T08:26:34Z</time>
      </trkpt>
      <trkpt lat="45.94516" lon="4.71458">
        <ele>180</ele>
        <time>2018-06-05T08:26:36Z</time>
      </trkpt>
      <trkpt lat="45.94521" lon="4.71457">
        <ele>180</ele>
        <time>2018-06-05T08:26:37Z</time>
      </trkpt>
      <trkpt lat="45.9453" lon="4.71453">
        <ele>180</ele>
        <time>2018-06-05T08:26:39Z</time>
      </trkpt>
      <trkpt lat="45.94533" lon="4.7145">
        <ele>180</ele>
        <time>2018-06-05T08:26:40Z</time>
      </trkpt>
      <trkpt lat="45.94541" lon="4.71448">
        <ele>180</ele>
        <time>2018-06-05T08:26:42Z</time>
      </trkpt>
      <trkpt lat="45.94548" lon="4.71447">
        <ele>181</ele>
        <time>2018-06-05T08:26:43Z</time>
      </trkpt>
      <trkpt lat="45.94553" lon="4.71445">
        <ele>181</ele>
        <time>2018-06-05T08:26:44Z</time>
      </trkpt>
      <trkpt lat="45.94557" lon="4.71443">
        <ele>181</ele>
        <time>2018-06-05T08:26:45Z</time>
      </trkpt>
      <trkpt lat="45.94564" lon="4.71442">
        <ele>181</ele>
        <time>2018-06-05T08:26:48Z</time>
      </trkpt>
      <trkpt lat="45.94573" lon="4.71442">
        <ele>181</ele>
        <time>2018-06-05T08:26:49Z</time>
      </trkpt>
      <trkpt lat="45.94578" lon="4.71441">
        <ele>182</ele>
        <time>2018-06-05T08:26:50Z</time>
      </trkpt>
      <trkpt lat="45.94585" lon="4.71439">
        <ele>182</ele>
        <time>2018-06-05T08:26:51Z</time>
      </trkpt>
      <trkpt lat="45.94589" lon="4.71439">
        <ele>182</ele>
        <time>2018-06-05T08:26:52Z</time>
      </trkpt>
      <trkpt lat="45.94595" lon="4.71441">
        <ele>182</ele>
        <time>2018-06-05T08:26:53Z</time>
      </trkpt>
      <trkpt lat="45.94603" lon="4.71443">
        <ele>182</ele>
        <time>2018-06-05T08:26:55Z</time>
      </trkpt>
      <trkpt lat="45.94608" lon="4.71443">
        <ele>181</ele>
        <time>2018-06-05T08:26:56Z</time>
      </trkpt>
      <trkpt lat="45.94613" lon="4.71443">
        <ele>181</ele>
        <time>2018-06-05T08:26:57Z</time>
      </trkpt>
      <trkpt lat="45.94618" lon="4.71442">
        <ele>181</ele>
        <time>2018-06-05T08:26:58Z</time>
      </trkpt>
      <trkpt lat="45.94623" lon="4.71443">
        <ele>181</ele>
        <time>2018-06-05T08:26:59Z</time>
      </trkpt>
      <trkpt lat="45.94627" lon="4.71443">
        <ele>181</ele>
        <time>2018-06-05T08:27:00Z</time>
      </trkpt>
      <trkpt lat="45.94636" lon="4.71441">
        <ele>181</ele>
        <time>2018-06-05T08:27:02Z</time>
      </trkpt>
      <trkpt lat="45.94641" lon="4.71443">
        <ele>181</ele>
        <time>2018-06-05T08:27:03Z</time>
      </trkpt>
      <trkpt lat="45.94646" lon="4.71443">
        <ele>181</ele>
        <time>2018-06-05T08:27:04Z</time>
      </trkpt>
      <trkpt lat="45.94651" lon="4.71444">
        <ele>181</ele>
        <time>2018-06-05T08:27:05Z</time>
      </trkpt>
      <trkpt lat="45.94656" lon="4.71444">
        <ele>181</ele>
        <time>2018-06-05T08:27:06Z</time>
      </trkpt>
      <trkpt lat="45.9466" lon="4.71446">
        <ele>181</ele>
        <time>2018-06-05T08:27:07Z</time>
      </trkpt>
      <trkpt lat="45.94668" lon="4.71447">
        <ele>182</ele>
        <time>2018-06-05T08:27:09Z</time>
      </trkpt>
      <trkpt lat="45.94674" lon="4.71448">
        <ele>182</ele>
        <time>2018-06-05T08:27:10Z</time>
      </trkpt>
      <trkpt lat="45.94682" lon="4.71449">
        <ele>182</ele>
        <time>2018-06-05T08:27:12Z</time>
      </trkpt>
      <trkpt lat="45.94687" lon="4.7145">
        <ele>182</ele>
        <time>2018-06-05T08:27:13Z</time>
      </trkpt>
      <trkpt lat="45.94691" lon="4.7145">
        <ele>182</ele>
        <time>2018-06-05T08:27:14Z</time>
      </trkpt>
      <trkpt lat="45.94697" lon="4.71449">
        <ele>182</ele>
        <time>2018-06-05T08:27:15Z</time>
      </trkpt>
      <trkpt lat="45.94702" lon="4.71449">
        <ele>182</ele>
        <time>2018-06-05T08:27:16Z</time>
      </trkpt>
      <trkpt lat="45.94707" lon="4.71449">
        <ele>182</ele>
        <time>2018-06-05T08:27:17Z</time>
      </trkpt>
      <trkpt lat="45.94715" lon="4.7145">
        <ele>182</ele>
        <time>2018-06-05T08:27:19Z</time>
      </trkpt>
      <trkpt lat="45.9472" lon="4.71451">
        <ele>182</ele>
        <time>2018-06-05T08:27:20Z</time>
      </trkpt>
      <trkpt lat="45.94726" lon="4.71454">
        <ele>182</ele>
        <time>2018-06-05T08:27:21Z</time>
      </trkpt>
      <trkpt lat="45.94732" lon="4.71454">
        <ele>182</ele>
        <time>2018-06-05T08:27:22Z</time>
      </trkpt>
      <trkpt lat="45.94738" lon="4.71454">
        <ele>182</ele>
        <time>2018-06-05T08:27:23Z</time>
      </trkpt>
      <trkpt lat="45.94741" lon="4.71457">
        <ele>182</ele>
        <time>2018-06-05T08:27:24Z</time>
      </trkpt>
      <trkpt lat="45.94747" lon="4.71457">
        <ele>182</ele>
        <time>2018-06-05T08:27:25Z</time>
      </trkpt>
      <trkpt lat="45.94752" lon="4.71458">
        <ele>183</ele>
        <time>2018-06-05T08:27:26Z</time>
      </trkpt>
      <trkpt lat="45.94758" lon="4.71459">
        <ele>183</ele>
        <time>2018-06-05T08:27:27Z</time>
      </trkpt>
      <trkpt lat="45.94763" lon="4.7146">
        <ele>183</ele>
        <time>2018-06-05T08:27:28Z</time>
      </trkpt>
      <trkpt lat="45.94769" lon="4.7146">
        <ele>183</ele>
        <time>2018-06-05T08:27:29Z</time>
      </trkpt>
      <trkpt lat="45.94775" lon="4.71461">
        <ele>183</ele>
        <time>2018-06-05T08:27:30Z</time>
      </trkpt>
      <trkpt lat="45.94781" lon="4.7146">
        <ele>183</ele>
        <time>2018-06-05T08:27:31Z</time>
      </trkpt>
      <trkpt lat="45.94788" lon="4.71461">
        <ele>183</ele>
        <time>2018-06-05T08:27:32Z</time>
      </trkpt>
      <trkpt lat="45.94795" lon="4.71462">
        <ele>183</ele>
        <time>2018-06-05T08:27:33Z</time>
      </trkpt>
      <trkpt lat="45.94801" lon="4.71462">
        <ele>183</ele>
        <time>2018-06-05T08:27:34Z</time>
      </trkpt>
      <trkpt lat="45.94808" lon="4.71463">
        <ele>183</ele>
        <time>2018-06-05T08:27:35Z</time>
      </trkpt>
      <trkpt lat="45.94814" lon="4.71465">
        <ele>183</ele>
        <time>2018-06-05T08:27:36Z</time>
      </trkpt>
      <trkpt lat="45.9482" lon="4.71466">
        <ele>183</ele>
        <time>2018-06-05T08:27:37Z</time>
      </trkpt>
      <trkpt lat="45.94825" lon="4.71465">
        <ele>183</ele>
        <time>2018-06-05T08:27:38Z</time>
      </trkpt>
      <trkpt lat="45.94831" lon="4.71466">
        <ele>183</ele>
        <time>2018-06-05T08:27:39Z</time>
      </trkpt>
      <trkpt lat="45.94837" lon="4.71465">
        <ele>183</ele>
        <time>2018-06-05T08:27:40Z</time>
      </trkpt>
      <trkpt lat="45.94843" lon="4.71467">
        <ele>183</ele>
        <time>2018-06-05T08:27:41Z</time>
      </trkpt>
      <trkpt lat="45.94849" lon="4.71467">
        <ele>183</ele>
        <time>2018-06-05T08:27:42Z</time>
      </trkpt>
      <trkpt lat="45.94856" lon="4.71468">
        <ele>183</ele>
        <time>2018-06-05T08:27:43Z</time>
      </trkpt>
      <trkpt lat="45.94861" lon="4.71469">
        <ele>183</ele>
        <time>2018-06-05T08:27:44Z</time>
      </trkpt>
      <trkpt lat="45.94866" lon="4.7147">
        <ele>183</ele>
        <time>2018-06-05T08:27:45Z</time>
      </trkpt>
      <trkpt lat="45.94871" lon="4.71471">
        <ele>183</ele>
        <time>2018-06-05T08:27:46Z</time>
      </trkpt>
      <trkpt lat="45.94877" lon="4.71472">
        <ele>183</ele>
        <time>2018-06-05T08:27:47Z</time>
      </trkpt>
      <trkpt lat="45.94883" lon="4.71472">
        <ele>183</ele>
        <time>2018-06-05T08:27:48Z</time>
      </trkpt>
      <trkpt lat="45.94888" lon="4.71474">
        <ele>183</ele>
        <time>2018-06-05T08:27:49Z</time>
      </trkpt>
      <trkpt lat="45.94893" lon="4.71474">
        <ele>183</ele>
        <time>2018-06-05T08:27:50Z</time>
      </trkpt>
      <trkpt lat="45.949" lon="4.71474">
        <ele>183</ele>
        <time>2018-06-05T08:27:51Z</time>
      </trkpt>
      <trkpt lat="45.94906" lon="4.71474">
        <ele>183</ele>
        <time>2018-06-05T08:27:52Z</time>
      </trkpt>
      <trkpt lat="45.94911" lon="4.71474">
        <ele>183</ele>
        <time>2018-06-05T08:27:53Z</time>
      </trkpt>
      <trkpt lat="45.94917" lon="4.71474">
        <ele>182</ele>
        <time>2018-06-05T08:27:54Z</time>
      </trkpt>
      <trkpt lat="45.94922" lon="4.71473">
        <ele>183</ele>
        <time>2018-06-05T08:27:55Z</time>
      </trkpt>
      <trkpt lat="45.94927" lon="4.71473">
        <ele>183</ele>
        <time>2018-06-05T08:27:56Z</time>
      </trkpt>
      <trkpt lat="45.94933" lon="4.71474">
        <ele>183</ele>
        <time>2018-06-05T08:27:57Z</time>
      </trkpt>
      <trkpt lat="45.94939" lon="4.71473">
        <ele>183</ele>
        <time>2018-06-05T08:27:58Z</time>
      </trkpt>
      <trkpt lat="45.94945" lon="4.71476">
        <ele>183</ele>
        <time>2018-06-05T08:27:59Z</time>
      </trkpt>
      <trkpt lat="45.9495" lon="4.71479">
        <ele>183</ele>
        <time>2018-06-05T08:28:00Z</time>
      </trkpt>
      <trkpt lat="45.94956" lon="4.71484">
        <ele>183</ele>
        <time>2018-06-05T08:28:01Z</time>
      </trkpt>
      <trkpt lat="45.94961" lon="4.71487">
        <ele>182</ele>
        <time>2018-06-05T08:28:02Z</time>
      </trkpt>
      <trkpt lat="45.94966" lon="4.71491">
        <ele>182</ele>
        <time>2018-06-05T08:28:03Z</time>
      </trkpt>
      <trkpt lat="45.94972" lon="4.71488">
        <ele>182</ele>
        <time>2018-06-05T08:28:04Z</time>
      </trkpt>
      <trkpt lat="45.94979" lon="4.71487">
        <ele>182</ele>
        <time>2018-06-05T08:28:05Z</time>
      </trkpt>
      <trkpt lat="45.94985" lon="4.71484">
        <ele>182</ele>
        <time>2018-06-05T08:28:06Z</time>
      </trkpt>
      <trkpt lat="45.9499" lon="4.7148">
        <ele>182</ele>
        <time>2018-06-05T08:28:07Z</time>
      </trkpt>
      <trkpt lat="45.94996" lon="4.71479">
        <ele>182</ele>
        <time>2018-06-05T08:28:08Z</time>
      </trkpt>
      <trkpt lat="45.95003" lon="4.71478">
        <ele>181</ele>
        <time>2018-06-05T08:28:09Z</time>
      </trkpt>
      <trkpt lat="45.95009" lon="4.71478">
        <ele>181</ele>
        <time>2018-06-05T08:28:10Z</time>
      </trkpt>
      <trkpt lat="45.95015" lon="4.71478">
        <ele>181</ele>
        <time>2018-06-05T08:28:11Z</time>
      </trkpt>
      <trkpt lat="45.95023" lon="4.71479">
        <ele>181</ele>
        <time>2018-06-05T08:28:12Z</time>
      </trkpt>
      <trkpt lat="45.9503" lon="4.71478">
        <ele>181</ele>
        <time>2018-06-05T08:28:13Z</time>
      </trkpt>
      <trkpt lat="45.95037" lon="4.71479">
        <ele>181</ele>
        <time>2018-06-05T08:28:14Z</time>
      </trkpt>
      <trkpt lat="45.95043" lon="4.7148">
        <ele>181</ele>
        <time>2018-06-05T08:28:15Z</time>
      </trkpt>
      <trkpt lat="45.95051" lon="4.71481">
        <ele>181</ele>
        <time>2018-06-05T08:28:16Z</time>
      </trkpt>
      <trkpt lat="45.95058" lon="4.71482">
        <ele>181</ele>
        <time>2018-06-05T08:28:17Z</time>
      </trkpt>
      <trkpt lat="45.95067" lon="4.71484">
        <ele>181</ele>
        <time>2018-06-05T08:28:18Z</time>
      </trkpt>
      <trkpt lat="45.95075" lon="4.71484">
        <ele>180</ele>
        <time>2018-06-05T08:28:19Z</time>
      </trkpt>
      <trkpt lat="45.95083" lon="4.71484">
        <ele>180</ele>
        <time>2018-06-05T08:28:20Z</time>
      </trkpt>
      <trkpt lat="45.95092" lon="4.71485">
        <ele>179</ele>
        <time>2018-06-05T08:28:21Z</time>
      </trkpt>
      <trkpt lat="45.951" lon="4.71485">
        <ele>179</ele>
        <time>2018-06-05T08:28:22Z</time>
      </trkpt>
      <trkpt lat="45.95107" lon="4.71485">
        <ele>179</ele>
        <time>2018-06-05T08:28:23Z</time>
      </trkpt>
      <trkpt lat="45.95116" lon="4.71485">
        <ele>179</ele>
        <time>2018-06-05T08:28:24Z</time>
      </trkpt>
      <trkpt lat="45.95125" lon="4.71485">
        <ele>178</ele>
        <time>2018-06-05T08:28:25Z</time>
      </trkpt>
      <trkpt lat="45.95133" lon="4.71486">
        <ele>178</ele>
        <time>2018-06-05T08:28:26Z</time>
      </trkpt>
      <trkpt lat="45.95142" lon="4.71485">
        <ele>178</ele>
        <time>2018-06-05T08:28:27Z</time>
      </trkpt>
      <trkpt lat="45.95152" lon="4.71486">
        <ele>178</ele>
        <time>2018-06-05T08:28:28Z</time>
      </trkpt>
      <trkpt lat="45.95161" lon="4.71487">
        <ele>178</ele>
        <time>2018-06-05T08:28:29Z</time>
      </trkpt>
      <trkpt lat="45.95169" lon="4.71488">
        <ele>177</ele>
        <time>2018-06-05T08:28:30Z</time>
      </trkpt>
      <trkpt lat="45.95178" lon="4.71489">
        <ele>177</ele>
        <time>2018-06-05T08:28:31Z</time>
      </trkpt>
      <trkpt lat="45.95185" lon="4.71488">
        <ele>177</ele>
        <time>2018-06-05T08:28:32Z</time>
      </trkpt>
      <trkpt lat="45.95194" lon="4.71489">
        <ele>177</ele>
        <time>2018-06-05T08:28:33Z</time>
      </trkpt>
      <trkpt lat="45.95203" lon="4.71493">
        <ele>177</ele>
        <time>2018-06-05T08:28:34Z</time>
      </trkpt>
      <trkpt lat="45.95214" lon="4.71503">
        <ele>176</ele>
        <time>2018-06-05T08:28:35Z</time>
      </trkpt>
      <trkpt lat="45.95223" lon="4.71505">
        <ele>176</ele>
        <time>2018-06-05T08:28:36Z</time>
      </trkpt>
      <trkpt lat="45.9523" lon="4.71501">
        <ele>176</ele>
        <time>2018-06-05T08:28:37Z</time>
      </trkpt>
      <trkpt lat="45.95241" lon="4.715">
        <ele>177</ele>
        <time>2018-06-05T08:28:38Z</time>
      </trkpt>
      <trkpt lat="45.95247" lon="4.71496">
        <ele>177</ele>
        <time>2018-06-05T08:28:39Z</time>
      </trkpt>
      <trkpt lat="45.95256" lon="4.71497">
        <ele>177</ele>
        <time>2018-06-05T08:28:40Z</time>
      </trkpt>
      <trkpt lat="45.95262" lon="4.71498">
        <ele>176</ele>
        <time>2018-06-05T08:28:41Z</time>
      </trkpt>
      <trkpt lat="45.95268" lon="4.71501">
        <ele>176</ele>
        <time>2018-06-05T08:28:42Z</time>
      </trkpt>
      <trkpt lat="45.95276" lon="4.715">
        <ele>176</ele>
        <time>2018-06-05T08:28:43Z</time>
      </trkpt>
      <trkpt lat="45.95284" lon="4.71499">
        <ele>176</ele>
        <time>2018-06-05T08:28:44Z</time>
      </trkpt>
      <trkpt lat="45.95292" lon="4.715">
        <ele>176</ele>
        <time>2018-06-05T08:28:45Z</time>
      </trkpt>
      <trkpt lat="45.953" lon="4.715">
        <ele>175</ele>
        <time>2018-06-05T08:28:46Z</time>
      </trkpt>
      <trkpt lat="45.95308" lon="4.715">
        <ele>175</ele>
        <time>2018-06-05T08:28:47Z</time>
      </trkpt>
      <trkpt lat="45.95314" lon="4.71501">
        <ele>174</ele>
        <time>2018-06-05T08:28:48Z</time>
      </trkpt>
      <trkpt lat="45.95319" lon="4.71503">
        <ele>174</ele>
        <time>2018-06-05T08:28:49Z</time>
      </trkpt>
      <trkpt lat="45.95327" lon="4.71501">
        <ele>174</ele>
        <time>2018-06-05T08:28:50Z</time>
      </trkpt>
      <trkpt lat="45.95334" lon="4.71501">
        <ele>174</ele>
        <time>2018-06-05T08:28:51Z</time>
      </trkpt>
      <trkpt lat="45.95341" lon="4.71501">
        <ele>174</ele>
        <time>2018-06-05T08:28:52Z</time>
      </trkpt>
      <trkpt lat="45.95347" lon="4.71501">
        <ele>174</ele>
        <time>2018-06-05T08:28:53Z</time>
      </trkpt>
      <trkpt lat="45.95354" lon="4.71499">
        <ele>175</ele>
        <time>2018-06-05T08:28:54Z</time>
      </trkpt>
      <trkpt lat="45.9536" lon="4.71501">
        <ele>174</ele>
        <time>2018-06-05T08:28:55Z</time>
      </trkpt>
      <trkpt lat="45.95366" lon="4.71502">
        <ele>174</ele>
        <time>2018-06-05T08:28:56Z</time>
      </trkpt>
      <trkpt lat="45.95371" lon="4.71504">
        <ele>174</ele>
        <time>2018-06-05T08:28:57Z</time>
      </trkpt>
      <trkpt lat="45.95376" lon="4.71503">
        <ele>174</ele>
        <time>2018-06-05T08:28:58Z</time>
      </trkpt>
      <trkpt lat="45.9538" lon="4.71502">
        <ele>174</ele>
        <time>2018-06-05T08:28:59Z</time>
      </trkpt>
      <trkpt lat="45.95386" lon="4.71501">
        <ele>174</ele>
        <time>2018-06-05T08:29:00Z</time>
      </trkpt>
      <trkpt lat="45.95392" lon="4.71502">
        <ele>174</ele>
        <time>2018-06-05T08:29:01Z</time>
      </trkpt>
      <trkpt lat="45.95398" lon="4.71501">
        <ele>174</ele>
        <time>2018-06-05T08:29:02Z</time>
      </trkpt>
      <trkpt lat="45.95404" lon="4.71502">
        <ele>174</ele>
        <time>2018-06-05T08:29:03Z</time>
      </trkpt>
      <trkpt lat="45.95411" lon="4.71501">
        <ele>174</ele>
        <time>2018-06-05T08:29:04Z</time>
      </trkpt>
      <trkpt lat="45.95417" lon="4.71502">
        <ele>174</ele>
        <time>2018-06-05T08:29:05Z</time>
      </trkpt>
      <trkpt lat="45.95424" lon="4.71502">
        <ele>174</ele>
        <time>2018-06-05T08:29:06Z</time>
      </trkpt>
      <trkpt lat="45.95431" lon="4.71503">
        <ele>175</ele>
        <time>2018-06-05T08:29:07Z</time>
      </trkpt>
      <trkpt lat="45.95437" lon="4.71503">
        <ele>175</ele>
        <time>2018-06-05T08:29:08Z</time>
      </trkpt>
      <trkpt lat="45.95443" lon="4.71505">
        <ele>175</ele>
        <time>2018-06-05T08:29:09Z</time>
      </trkpt>
      <trkpt lat="45.95449" lon="4.71506">
        <ele>175</ele>
        <time>2018-06-05T08:29:10Z</time>
      </trkpt>
      <trkpt lat="45.95455" lon="4.71506">
        <ele>175</ele>
        <time>2018-06-05T08:29:11Z</time>
      </trkpt>
      <trkpt lat="45.95461" lon="4.71507">
        <ele>175</ele>
        <time>2018-06-05T08:29:12Z</time>
      </trkpt>
      <trkpt lat="45.95465" lon="4.71508">
        <ele>175</ele>
        <time>2018-06-05T08:29:13Z</time>
      </trkpt>
      <trkpt lat="45.95471" lon="4.71509">
        <ele>175</ele>
        <time>2018-06-05T08:29:14Z</time>
      </trkpt>
      <trkpt lat="45.95477" lon="4.71509">
        <ele>176</ele>
        <time>2018-06-05T08:29:15Z</time>
      </trkpt>
      <trkpt lat="45.95484" lon="4.7151">
        <ele>176</ele>
        <time>2018-06-05T08:29:16Z</time>
      </trkpt>
      <trkpt lat="45.9549" lon="4.7151">
        <ele>176</ele>
        <time>2018-06-05T08:29:17Z</time>
      </trkpt>
      <trkpt lat="45.95496" lon="4.71511">
        <ele>176</ele>
        <time>2018-06-05T08:29:18Z</time>
      </trkpt>
      <trkpt lat="45.95503" lon="4.71511">
        <ele>177</ele>
        <time>2018-06-05T08:29:19Z</time>
      </trkpt>
      <trkpt lat="45.9551" lon="4.71511">
        <ele>177</ele>
        <time>2018-06-05T08:29:20Z</time>
      </trkpt>
      <trkpt lat="45.95515" lon="4.71511">
        <ele>177</ele>
        <time>2018-06-05T08:29:21Z</time>
      </trkpt>
      <trkpt lat="45.95523" lon="4.71512">
        <ele>177</ele>
        <time>2018-06-05T08:29:22Z</time>
      </trkpt>
      <trkpt lat="45.95528" lon="4.71512">
        <ele>177</ele>
        <time>2018-06-05T08:29:23Z</time>
      </trkpt>
      <trkpt lat="45.95534" lon="4.71513">
        <ele>177</ele>
        <time>2018-06-05T08:29:24Z</time>
      </trkpt>
      <trkpt lat="45.9554" lon="4.71513">
        <ele>177</ele>
        <time>2018-06-05T08:29:25Z</time>
      </trkpt>
      <trkpt lat="45.95544" lon="4.71515">
        <ele>177</ele>
        <time>2018-06-05T08:29:26Z</time>
      </trkpt>
      <trkpt lat="45.95549" lon="4.71515">
        <ele>178</ele>
        <time>2018-06-05T08:29:27Z</time>
      </trkpt>
      <trkpt lat="45.95554" lon="4.71514">
        <ele>178</ele>
        <time>2018-06-05T08:29:28Z</time>
      </trkpt>
      <trkpt lat="45.9556" lon="4.71514">
        <ele>178</ele>
        <time>2018-06-05T08:29:29Z</time>
      </trkpt>
      <trkpt lat="45.95566" lon="4.71514">
        <ele>178</ele>
        <time>2018-06-05T08:29:30Z</time>
      </trkpt>
      <trkpt lat="45.95571" lon="4.71517">
        <ele>178</ele>
        <time>2018-06-05T08:29:31Z</time>
      </trkpt>
      <trkpt lat="45.95575" lon="4.71518">
        <ele>178</ele>
        <time>2018-06-05T08:29:32Z</time>
      </trkpt>
      <trkpt lat="45.95579" lon="4.71521">
        <ele>178</ele>
        <time>2018-06-05T08:29:33Z</time>
      </trkpt>
      <trkpt lat="45.95584" lon="4.7152">
        <ele>179</ele>
        <time>2018-06-05T08:29:34Z</time>
      </trkpt>
      <trkpt lat="45.9559" lon="4.71521">
        <ele>179</ele>
        <time>2018-06-05T08:29:35Z</time>
      </trkpt>
      <trkpt lat="45.95596" lon="4.7152">
        <ele>179</ele>
        <time>2018-06-05T08:29:36Z</time>
      </trkpt>
      <trkpt lat="45.95601" lon="4.71521">
        <ele>179</ele>
        <time>2018-06-05T08:29:37Z</time>
      </trkpt>
      <trkpt lat="45.95608" lon="4.7152">
        <ele>179</ele>
        <time>2018-06-05T08:29:38Z</time>
      </trkpt>
      <trkpt lat="45.95613" lon="4.7152">
        <ele>179</ele>
        <time>2018-06-05T08:29:39Z</time>
      </trkpt>
      <trkpt lat="45.95618" lon="4.71521">
        <ele>179</ele>
        <time>2018-06-05T08:29:40Z</time>
      </trkpt>
      <trkpt lat="45.95623" lon="4.71522">
        <ele>179</ele>
        <time>2018-06-05T08:29:41Z</time>
      </trkpt>
      <trkpt lat="45.95629" lon="4.71522">
        <ele>179</ele>
        <time>2018-06-05T08:29:42Z</time>
      </trkpt>
      <trkpt lat="45.95634" lon="4.71523">
        <ele>179</ele>
        <time>2018-06-05T08:29:43Z</time>
      </trkpt>
      <trkpt lat="45.95639" lon="4.71524">
        <ele>179</ele>
        <time>2018-06-05T08:29:44Z</time>
      </trkpt>
      <trkpt lat="45.95645" lon="4.71524">
        <ele>180</ele>
        <time>2018-06-05T08:29:45Z</time>
      </trkpt>
      <trkpt lat="45.95651" lon="4.71524">
        <ele>180</ele>
        <time>2018-06-05T08:29:46Z</time>
      </trkpt>
      <trkpt lat="45.95656" lon="4.71524">
        <ele>180</ele>
        <time>2018-06-05T08:29:47Z</time>
      </trkpt>
      <trkpt lat="45.95661" lon="4.71526">
        <ele>180</ele>
        <time>2018-06-05T08:29:48Z</time>
      </trkpt>
      <trkpt lat="45.95667" lon="4.71528">
        <ele>180</ele>
        <time>2018-06-05T08:29:49Z</time>
      </trkpt>
      <trkpt lat="45.95674" lon="4.71527">
        <ele>180</ele>
        <time>2018-06-05T08:29:50Z</time>
      </trkpt>
      <trkpt lat="45.9568" lon="4.71526">
        <ele>180</ele>
        <time>2018-06-05T08:29:51Z</time>
      </trkpt>
      <trkpt lat="45.95685" lon="4.71527">
        <ele>180</ele>
        <time>2018-06-05T08:29:52Z</time>
      </trkpt>
      <trkpt lat="45.95688" lon="4.71525">
        <ele>180</ele>
        <time>2018-06-05T08:29:53Z</time>
      </trkpt>
      <trkpt lat="45.95695" lon="4.71526">
        <ele>180</ele>
        <time>2018-06-05T08:29:54Z</time>
      </trkpt>
      <trkpt lat="45.957" lon="4.71526">
        <ele>180</ele>
        <time>2018-06-05T08:29:55Z</time>
      </trkpt>
      <trkpt lat="45.95705" lon="4.71528">
        <ele>180</ele>
        <time>2018-06-05T08:29:56Z</time>
      </trkpt>
      <trkpt lat="45.95711" lon="4.71528">
        <ele>180</ele>
        <time>2018-06-05T08:29:57Z</time>
      </trkpt>
      <trkpt lat="45.95716" lon="4.7153">
        <ele>180</ele>
        <time>2018-06-05T08:29:58Z</time>
      </trkpt>
      <trkpt lat="45.9572" lon="4.71531">
        <ele>180</ele>
        <time>2018-06-05T08:29:59Z</time>
      </trkpt>
      <trkpt lat="45.95726" lon="4.71531">
        <ele>180</ele>
        <time>2018-06-05T08:30:00Z</time>
      </trkpt>
      <trkpt lat="45.95731" lon="4.71532">
        <ele>180</ele>
        <time>2018-06-05T08:30:01Z</time>
      </trkpt>
      <trkpt lat="45.95736" lon="4.71532">
        <ele>180</ele>
        <time>2018-06-05T08:30:02Z</time>
      </trkpt>
      <trkpt lat="45.95741" lon="4.71533">
        <ele>180</ele>
        <time>2018-06-05T08:30:03Z</time>
      </trkpt>
      <trkpt lat="45.95746" lon="4.71533">
        <ele>180</ele>
        <time>2018-06-05T08:30:04Z</time>
      </trkpt>
      <trkpt lat="45.95751" lon="4.71533">
        <ele>180</ele>
        <time>2018-06-05T08:30:05Z</time>
      </trkpt>
      <trkpt lat="45.95756" lon="4.71533">
        <ele>180</ele>
        <time>2018-06-05T08:30:06Z</time>
      </trkpt>
      <trkpt lat="45.95761" lon="4.71534">
        <ele>180</ele>
        <time>2018-06-05T08:30:07Z</time>
      </trkpt>
      <trkpt lat="45.95766" lon="4.71533">
        <ele>180</ele>
        <time>2018-06-05T08:30:08Z</time>
      </trkpt>
      <trkpt lat="45.95772" lon="4.71533">
        <ele>180</ele>
        <time>2018-06-05T08:30:09Z</time>
      </trkpt>
      <trkpt lat="45.95777" lon="4.71534">
        <ele>180</ele>
        <time>2018-06-05T08:30:10Z</time>
      </trkpt>
      <trkpt lat="45.95781" lon="4.71532">
        <ele>180</ele>
        <time>2018-06-05T08:30:11Z</time>
      </trkpt>
      <trkpt lat="45.95787" lon="4.71531">
        <ele>181</ele>
        <time>2018-06-05T08:30:12Z</time>
      </trkpt>
      <trkpt lat="45.95792" lon="4.71533">
        <ele>181</ele>
        <time>2018-06-05T08:30:13Z</time>
      </trkpt>
      <trkpt lat="45.95797" lon="4.71532">
        <ele>181</ele>
        <time>2018-06-05T08:30:14Z</time>
      </trkpt>
      <trkpt lat="45.95806" lon="4.71533">
        <ele>181</ele>
        <time>2018-06-05T08:30:16Z</time>
      </trkpt>
      <trkpt lat="45.95812" lon="4.71533">
        <ele>181</ele>
        <time>2018-06-05T08:30:17Z</time>
      </trkpt>
      <trkpt lat="45.95817" lon="4.71534">
        <ele>181</ele>
        <time>2018-06-05T08:30:18Z</time>
      </trkpt>
      <trkpt lat="45.95821" lon="4.71536">
        <ele>181</ele>
        <time>2018-06-05T08:30:19Z</time>
      </trkpt>
      <trkpt lat="45.95827" lon="4.71538">
        <ele>181</ele>
        <time>2018-06-05T08:30:20Z</time>
      </trkpt>
      <trkpt lat="45.95833" lon="4.71538">
        <ele>181</ele>
        <time>2018-06-05T08:30:21Z</time>
      </trkpt>
      <trkpt lat="45.95841" lon="4.7154">
        <ele>181</ele>
        <time>2018-06-05T08:30:23Z</time>
      </trkpt>
      <trkpt lat="45.95846" lon="4.7154">
        <ele>181</ele>
        <time>2018-06-05T08:30:24Z</time>
      </trkpt>
      <trkpt lat="45.95852" lon="4.71542">
        <ele>181</ele>
        <time>2018-06-05T08:30:25Z</time>
      </trkpt>
      <trkpt lat="45.95858" lon="4.71542">
        <ele>181</ele>
        <time>2018-06-05T08:30:26Z</time>
      </trkpt>
      <trkpt lat="45.95864" lon="4.71543">
        <ele>181</ele>
        <time>2018-06-05T08:30:27Z</time>
      </trkpt>
      <trkpt lat="45.95869" lon="4.71543">
        <ele>181</ele>
        <time>2018-06-05T08:30:28Z</time>
      </trkpt>
      <trkpt lat="45.95873" lon="4.71544">
        <ele>181</ele>
        <time>2018-06-05T08:30:29Z</time>
      </trkpt>
      <trkpt lat="45.95878" lon="4.71544">
        <ele>181</ele>
        <time>2018-06-05T08:30:30Z</time>
      </trkpt>
      <trkpt lat="45.95883" lon="4.71543">
        <ele>181</ele>
        <time>2018-06-05T08:30:31Z</time>
      </trkpt>
      <trkpt lat="45.95889" lon="4.71544">
        <ele>181</ele>
        <time>2018-06-05T08:30:32Z</time>
      </trkpt>
      <trkpt lat="45.95893" lon="4.71543">
        <ele>181</ele>
        <time>2018-06-05T08:30:33Z</time>
      </trkpt>
      <trkpt lat="45.95899" lon="4.71543">
        <ele>181</ele>
        <time>2018-06-05T08:30:34Z</time>
      </trkpt>
      <trkpt lat="45.95903" lon="4.71543">
        <ele>181</ele>
        <time>2018-06-05T08:30:35Z</time>
      </trkpt>
      <trkpt lat="45.95909" lon="4.71541">
        <ele>181</ele>
        <time>2018-06-05T08:30:36Z</time>
      </trkpt>
      <trkpt lat="45.95914" lon="4.71542">
        <ele>181</ele>
        <time>2018-06-05T08:30:37Z</time>
      </trkpt>
      <trkpt lat="45.9592" lon="4.71541">
        <ele>183</ele>
        <time>2018-06-05T08:30:38Z</time>
      </trkpt>
      <trkpt lat="45.95925" lon="4.71541">
        <ele>183</ele>
        <time>2018-06-05T08:30:39Z</time>
      </trkpt>
      <trkpt lat="45.9593" lon="4.71542">
        <ele>183</ele>
        <time>2018-06-05T08:30:40Z</time>
      </trkpt>
      <trkpt lat="45.95934" lon="4.71542">
        <ele>183</ele>
        <time>2018-06-05T08:30:41Z</time>
      </trkpt>
      <trkpt lat="45.9594" lon="4.71543">
        <ele>183</ele>
        <time>2018-06-05T08:30:42Z</time>
      </trkpt>
      <trkpt lat="45.95947" lon="4.71547">
        <ele>183</ele>
        <time>2018-06-05T08:30:44Z</time>
      </trkpt>
      <trkpt lat="45.95953" lon="4.71548">
        <ele>183</ele>
        <time>2018-06-05T08:30:45Z</time>
      </trkpt>
      <trkpt lat="45.95958" lon="4.71549">
        <ele>183</ele>
        <time>2018-06-05T08:30:46Z</time>
      </trkpt>
      <trkpt lat="45.95963" lon="4.71551">
        <ele>183</ele>
        <time>2018-06-05T08:30:47Z</time>
      </trkpt>
      <trkpt lat="45.9597" lon="4.71553">
        <ele>183</ele>
        <time>2018-06-05T08:30:49Z</time>
      </trkpt>
      <trkpt lat="45.95975" lon="4.71553">
        <ele>183</ele>
        <time>2018-06-05T08:30:50Z</time>
      </trkpt>
      <trkpt lat="45.9598" lon="4.71554">
        <ele>183</ele>
        <time>2018-06-05T08:30:51Z</time>
      </trkpt>
      <trkpt lat="45.95985" lon="4.71553">
        <ele>183</ele>
        <time>2018-06-05T08:30:52Z</time>
      </trkpt>
      <trkpt lat="45.95994" lon="4.7155">
        <ele>183</ele>
        <time>2018-06-05T08:30:54Z</time>
      </trkpt>
      <trkpt lat="45.95998" lon="4.71549">
        <ele>184</ele>
        <time>2018-06-05T08:30:55Z</time>
      </trkpt>
      <trkpt lat="45.96006" lon="4.71548">
        <ele>185</ele>
        <time>2018-06-05T08:30:57Z</time>
      </trkpt>
      <trkpt lat="45.96012" lon="4.71549">
        <ele>185</ele>
        <time>2018-06-05T08:30:58Z</time>
      </trkpt>
      <trkpt lat="45.96017" lon="4.71549">
        <ele>185</ele>
        <time>2018-06-05T08:30:59Z</time>
      </trkpt>
      <trkpt lat="45.96022" lon="4.7155">
        <ele>185</ele>
        <time>2018-06-05T08:31:00Z</time>
      </trkpt>
      <trkpt lat="45.96027" lon="4.71549">
        <ele>185</ele>
        <time>2018-06-05T08:31:01Z</time>
      </trkpt>
      <trkpt lat="45.96032" lon="4.7155">
        <ele>185</ele>
        <time>2018-06-05T08:31:02Z</time>
      </trkpt>
      <trkpt lat="45.96038" lon="4.7155">
        <ele>185</ele>
        <time>2018-06-05T08:31:03Z</time>
      </trkpt>
      <trkpt lat="45.96045" lon="4.7155">
        <ele>185</ele>
        <time>2018-06-05T08:31:04Z</time>
      </trkpt>
      <trkpt lat="45.96051" lon="4.71551">
        <ele>185</ele>
        <time>2018-06-05T08:31:05Z</time>
      </trkpt>
      <trkpt lat="45.96054" lon="4.71552">
        <ele>185</ele>
        <time>2018-06-05T08:31:06Z</time>
      </trkpt>
      <trkpt lat="45.96059" lon="4.71554">
        <ele>185</ele>
        <time>2018-06-05T08:31:07Z</time>
      </trkpt>
      <trkpt lat="45.96065" lon="4.71556">
        <ele>185</ele>
        <time>2018-06-05T08:31:08Z</time>
      </trkpt>
      <trkpt lat="45.96071" lon="4.71555">
        <ele>185</ele>
        <time>2018-06-05T08:31:09Z</time>
      </trkpt>
      <trkpt lat="45.96075" lon="4.71558">
        <ele>185</ele>
        <time>2018-06-05T08:31:10Z</time>
      </trkpt>
      <trkpt lat="45.9608" lon="4.71556">
        <ele>185</ele>
        <time>2018-06-05T08:31:11Z</time>
      </trkpt>
      <trkpt lat="45.96086" lon="4.71557">
        <ele>184</ele>
        <time>2018-06-05T08:31:12Z</time>
      </trkpt>
      <trkpt lat="45.96092" lon="4.71558">
        <ele>184</ele>
        <time>2018-06-05T08:31:13Z</time>
      </trkpt>
      <trkpt lat="45.96099" lon="4.7156">
        <ele>184</ele>
        <time>2018-06-05T08:31:14Z</time>
      </trkpt>
      <trkpt lat="45.96105" lon="4.7156">
        <ele>184</ele>
        <time>2018-06-05T08:31:15Z</time>
      </trkpt>
      <trkpt lat="45.96112" lon="4.71561">
        <ele>184</ele>
        <time>2018-06-05T08:31:16Z</time>
      </trkpt>
      <trkpt lat="45.96119" lon="4.71561">
        <ele>184</ele>
        <time>2018-06-05T08:31:17Z</time>
      </trkpt>
      <trkpt lat="45.96125" lon="4.71562">
        <ele>184</ele>
        <time>2018-06-05T08:31:18Z</time>
      </trkpt>
      <trkpt lat="45.9613" lon="4.71563">
        <ele>184</ele>
        <time>2018-06-05T08:31:19Z</time>
      </trkpt>
      <trkpt lat="45.96136" lon="4.71563">
        <ele>184</ele>
        <time>2018-06-05T08:31:20Z</time>
      </trkpt>
      <trkpt lat="45.96142" lon="4.71564">
        <ele>183</ele>
        <time>2018-06-05T08:31:21Z</time>
      </trkpt>
      <trkpt lat="45.96148" lon="4.71565">
        <ele>183</ele>
        <time>2018-06-05T08:31:22Z</time>
      </trkpt>
      <trkpt lat="45.96153" lon="4.71565">
        <ele>183</ele>
        <time>2018-06-05T08:31:23Z</time>
      </trkpt>
      <trkpt lat="45.96158" lon="4.71566">
        <ele>183</ele>
        <time>2018-06-05T08:31:24Z</time>
      </trkpt>
      <trkpt lat="45.96164" lon="4.71567">
        <ele>182</ele>
        <time>2018-06-05T08:31:25Z</time>
      </trkpt>
      <trkpt lat="45.9617" lon="4.71568">
        <ele>182</ele>
        <time>2018-06-05T08:31:26Z</time>
      </trkpt>
      <trkpt lat="45.96176" lon="4.71569">
        <ele>182</ele>
        <time>2018-06-05T08:31:27Z</time>
      </trkpt>
      <trkpt lat="45.96183" lon="4.71571">
        <ele>182</ele>
        <time>2018-06-05T08:31:28Z</time>
      </trkpt>
      <trkpt lat="45.96189" lon="4.71569">
        <ele>183</ele>
        <time>2018-06-05T08:31:29Z</time>
      </trkpt>
      <trkpt lat="45.96195" lon="4.71571">
        <ele>183</ele>
        <time>2018-06-05T08:31:30Z</time>
      </trkpt>
      <trkpt lat="45.96201" lon="4.71572">
        <ele>183</ele>
        <time>2018-06-05T08:31:31Z</time>
      </trkpt>
      <trkpt lat="45.96207" lon="4.71573">
        <ele>183</ele>
        <time>2018-06-05T08:31:32Z</time>
      </trkpt>
      <trkpt lat="45.96214" lon="4.71574">
        <ele>183</ele>
        <time>2018-06-05T08:31:33Z</time>
      </trkpt>
      <trkpt lat="45.9622" lon="4.71575">
        <ele>183</ele>
        <time>2018-06-05T08:31:34Z</time>
      </trkpt>
      <trkpt lat="45.96225" lon="4.71576">
        <ele>183</ele>
        <time>2018-06-05T08:31:35Z</time>
      </trkpt>
      <trkpt lat="45.96232" lon="4.71577">
        <ele>183</ele>
        <time>2018-06-05T08:31:36Z</time>
      </trkpt>
      <trkpt lat="45.96238" lon="4.71578">
        <ele>182</ele>
        <time>2018-06-05T08:31:37Z</time>
      </trkpt>
      <trkpt lat="45.96244" lon="4.7158">
        <ele>182</ele>
        <time>2018-06-05T08:31:38Z</time>
      </trkpt>
      <trkpt lat="45.9625" lon="4.71581">
        <ele>181</ele>
        <time>2018-06-05T08:31:39Z</time>
      </trkpt>
      <trkpt lat="45.96257" lon="4.71583">
        <ele>182</ele>
        <time>2018-06-05T08:31:40Z</time>
      </trkpt>
      <trkpt lat="45.96263" lon="4.71582">
        <ele>183</ele>
        <time>2018-06-05T08:31:41Z</time>
      </trkpt>
      <trkpt lat="45.96268" lon="4.71584">
        <ele>181</ele>
        <time>2018-06-05T08:31:42Z</time>
      </trkpt>
      <trkpt lat="45.96274" lon="4.71585">
        <ele>180</ele>
        <time>2018-06-05T08:31:43Z</time>
      </trkpt>
      <trkpt lat="45.9628" lon="4.71586">
        <ele>180</ele>
        <time>2018-06-05T08:31:44Z</time>
      </trkpt>
      <trkpt lat="45.96286" lon="4.71587">
        <ele>180</ele>
        <time>2018-06-05T08:31:45Z</time>
      </trkpt>
      <trkpt lat="45.96292" lon="4.71588">
        <ele>181</ele>
        <time>2018-06-05T08:31:46Z</time>
      </trkpt>
      <trkpt lat="45.96298" lon="4.7159">
        <ele>181</ele>
        <time>2018-06-05T08:31:47Z</time>
      </trkpt>
      <trkpt lat="45.96304" lon="4.71591">
        <ele>181</ele>
        <time>2018-06-05T08:31:48Z</time>
      </trkpt>
      <trkpt lat="45.96309" lon="4.71592">
        <ele>181</ele>
        <time>2018-06-05T08:31:49Z</time>
      </trkpt>
      <trkpt lat="45.96315" lon="4.71593">
        <ele>181</ele>
        <time>2018-06-05T08:31:50Z</time>
      </trkpt>
      <trkpt lat="45.9632" lon="4.71595">
        <ele>181</ele>
        <time>2018-06-05T08:31:51Z</time>
      </trkpt>
      <trkpt lat="45.96326" lon="4.71595">
        <ele>182</ele>
        <time>2018-06-05T08:31:52Z</time>
      </trkpt>
      <trkpt lat="45.96332" lon="4.71596">
        <ele>182</ele>
        <time>2018-06-05T08:31:53Z</time>
      </trkpt>
      <trkpt lat="45.96338" lon="4.71596">
        <ele>182</ele>
        <time>2018-06-05T08:31:54Z</time>
      </trkpt>
      <trkpt lat="45.96344" lon="4.71597">
        <ele>182</ele>
        <time>2018-06-05T08:31:55Z</time>
      </trkpt>
      <trkpt lat="45.96349" lon="4.71598">
        <ele>182</ele>
        <time>2018-06-05T08:31:56Z</time>
      </trkpt>
      <trkpt lat="45.96355" lon="4.716">
        <ele>182</ele>
        <time>2018-06-05T08:31:57Z</time>
      </trkpt>
      <trkpt lat="45.96361" lon="4.71601">
        <ele>182</ele>
        <time>2018-06-05T08:31:58Z</time>
      </trkpt>
      <trkpt lat="45.96367" lon="4.71602">
        <ele>182</ele>
        <time>2018-06-05T08:31:59Z</time>
      </trkpt>
      <trkpt lat="45.96374" lon="4.71601">
        <ele>182</ele>
        <time>2018-06-05T08:32:00Z</time>
      </trkpt>
      <trkpt lat="45.96379" lon="4.716">
        <ele>182</ele>
        <time>2018-06-05T08:32:01Z</time>
      </trkpt>
      <trkpt lat="45.96385" lon="4.71601">
        <ele>182</ele>
        <time>2018-06-05T08:32:02Z</time>
      </trkpt>
      <trkpt lat="45.96392" lon="4.71602">
        <ele>183</ele>
        <time>2018-06-05T08:32:03Z</time>
      </trkpt>
      <trkpt lat="45.96397" lon="4.71603">
        <ele>183</ele>
        <time>2018-06-05T08:32:04Z</time>
      </trkpt>
      <trkpt lat="45.96403" lon="4.71603">
        <ele>183</ele>
        <time>2018-06-05T08:32:05Z</time>
      </trkpt>
      <trkpt lat="45.96411" lon="4.71604">
        <ele>183</ele>
        <time>2018-06-05T08:32:06Z</time>
      </trkpt>
      <trkpt lat="45.96417" lon="4.71605">
        <ele>183</ele>
        <time>2018-06-05T08:32:07Z</time>
      </trkpt>
      <trkpt lat="45.96423" lon="4.71606">
        <ele>183</ele>
        <time>2018-06-05T08:32:08Z</time>
      </trkpt>
      <trkpt lat="45.96429" lon="4.71607">
        <ele>183</ele>
        <time>2018-06-05T08:32:09Z</time>
      </trkpt>
      <trkpt lat="45.96434" lon="4.71608">
        <ele>183</ele>
        <time>2018-06-05T08:32:10Z</time>
      </trkpt>
      <trkpt lat="45.9644" lon="4.7161">
        <ele>183</ele>
        <time>2018-06-05T08:32:11Z</time>
      </trkpt>
      <trkpt lat="45.96446" lon="4.71611">
        <ele>183</ele>
        <time>2018-06-05T08:32:12Z</time>
      </trkpt>
      <trkpt lat="45.96452" lon="4.7161">
        <ele>183</ele>
        <time>2018-06-05T08:32:13Z</time>
      </trkpt>
      <trkpt lat="45.96457" lon="4.7161">
        <ele>183</ele>
        <time>2018-06-05T08:32:14Z</time>
      </trkpt>
      <trkpt lat="45.96462" lon="4.71611">
        <ele>183</ele>
        <time>2018-06-05T08:32:15Z</time>
      </trkpt>
      <trkpt lat="45.96467" lon="4.71611">
        <ele>183</ele>
        <time>2018-06-05T08:32:16Z</time>
      </trkpt>
      <trkpt lat="45.96471" lon="4.71612">
        <ele>183</ele>
        <time>2018-06-05T08:32:17Z</time>
      </trkpt>
      <trkpt lat="45.96477" lon="4.71611">
        <ele>183</ele>
        <time>2018-06-05T08:32:18Z</time>
      </trkpt>
      <trkpt lat="45.96482" lon="4.71612">
        <ele>183</ele>
        <time>2018-06-05T08:32:19Z</time>
      </trkpt>
      <trkpt lat="45.96488" lon="4.71613">
        <ele>183</ele>
        <time>2018-06-05T08:32:20Z</time>
      </trkpt>
      <trkpt lat="45.96493" lon="4.71615">
        <ele>183</ele>
        <time>2018-06-05T08:32:21Z</time>
      </trkpt>
      <trkpt lat="45.96499" lon="4.71614">
        <ele>183</ele>
        <time>2018-06-05T08:32:22Z</time>
      </trkpt>
      <trkpt lat="45.96504" lon="4.71616">
        <ele>184</ele>
        <time>2018-06-05T08:32:23Z</time>
      </trkpt>
      <trkpt lat="45.96509" lon="4.71617">
        <ele>184</ele>
        <time>2018-06-05T08:32:24Z</time>
      </trkpt>
      <trkpt lat="45.96513" lon="4.71621">
        <ele>184</ele>
        <time>2018-06-05T08:32:25Z</time>
      </trkpt>
      <trkpt lat="45.96518" lon="4.71626">
        <ele>184</ele>
        <time>2018-06-05T08:32:26Z</time>
      </trkpt>
      <trkpt lat="45.96522" lon="4.71631">
        <ele>184</ele>
        <time>2018-06-05T08:32:27Z</time>
      </trkpt>
      <trkpt lat="45.96527" lon="4.71633">
        <ele>184</ele>
        <time>2018-06-05T08:32:28Z</time>
      </trkpt>
      <trkpt lat="45.96532" lon="4.71634">
        <ele>184</ele>
        <time>2018-06-05T08:32:29Z</time>
      </trkpt>
      <trkpt lat="45.96539" lon="4.71629">
        <ele>184</ele>
        <time>2018-06-05T08:32:30Z</time>
      </trkpt>
      <trkpt lat="45.96544" lon="4.71627">
        <ele>184</ele>
        <time>2018-06-05T08:32:31Z</time>
      </trkpt>
      <trkpt lat="45.96548" lon="4.71625">
        <ele>184</ele>
        <time>2018-06-05T08:32:32Z</time>
      </trkpt>
      <trkpt lat="45.96553" lon="4.71622">
        <ele>185</ele>
        <time>2018-06-05T08:32:33Z</time>
      </trkpt>
      <trkpt lat="45.9656" lon="4.7162">
        <ele>185</ele>
        <time>2018-06-05T08:32:34Z</time>
      </trkpt>
      <trkpt lat="45.96566" lon="4.71619">
        <ele>185</ele>
        <time>2018-06-05T08:32:35Z</time>
      </trkpt>
      <trkpt lat="45.96571" lon="4.7162">
        <ele>185</ele>
        <time>2018-06-05T08:32:36Z</time>
      </trkpt>
      <trkpt lat="45.96576" lon="4.71621">
        <ele>185</ele>
        <time>2018-06-05T08:32:37Z</time>
      </trkpt>
      <trkpt lat="45.96581" lon="4.71622">
        <ele>185</ele>
        <time>2018-06-05T08:32:38Z</time>
      </trkpt>
      <trkpt lat="45.96586" lon="4.71623">
        <ele>187</ele>
        <time>2018-06-05T08:32:39Z</time>
      </trkpt>
      <trkpt lat="45.96593" lon="4.71624">
        <ele>187</ele>
        <time>2018-06-05T08:32:40Z</time>
      </trkpt>
      <trkpt lat="45.96598" lon="4.71625">
        <ele>187</ele>
        <time>2018-06-05T08:32:41Z</time>
      </trkpt>
      <trkpt lat="45.96602" lon="4.71627">
        <ele>187</ele>
        <time>2018-06-05T08:32:42Z</time>
      </trkpt>
      <trkpt lat="45.96611" lon="4.7163">
        <ele>187</ele>
        <time>2018-06-05T08:32:44Z</time>
      </trkpt>
      <trkpt lat="45.96616" lon="4.71632">
        <ele>187</ele>
        <time>2018-06-05T08:32:45Z</time>
      </trkpt>
      <trkpt lat="45.9662" lon="4.71633">
        <ele>187</ele>
        <time>2018-06-05T08:32:46Z</time>
      </trkpt>
      <trkpt lat="45.96626" lon="4.71635">
        <ele>187</ele>
        <time>2018-06-05T08:32:47Z</time>
      </trkpt>
      <trkpt lat="45.96631" lon="4.71636">
        <ele>188</ele>
        <time>2018-06-05T08:32:48Z</time>
      </trkpt>
      <trkpt lat="45.96635" lon="4.71638">
        <ele>188</ele>
        <time>2018-06-05T08:32:49Z</time>
      </trkpt>
      <trkpt lat="45.96641" lon="4.71637">
        <ele>188</ele>
        <time>2018-06-05T08:32:50Z</time>
      </trkpt>
      <trkpt lat="45.96646" lon="4.71636">
        <ele>188</ele>
        <time>2018-06-05T08:32:51Z</time>
      </trkpt>
      <trkpt lat="45.9665" lon="4.71637">
        <ele>188</ele>
        <time>2018-06-05T08:32:52Z</time>
      </trkpt>
      <trkpt lat="45.96655" lon="4.71637">
        <ele>188</ele>
        <time>2018-06-05T08:32:53Z</time>
      </trkpt>
      <trkpt lat="45.9666" lon="4.71639">
        <ele>188</ele>
        <time>2018-06-05T08:32:54Z</time>
      </trkpt>
      <trkpt lat="45.96664" lon="4.7164">
        <ele>188</ele>
        <time>2018-06-05T08:32:55Z</time>
      </trkpt>
      <trkpt lat="45.96673" lon="4.71637">
        <ele>190</ele>
        <time>2018-06-05T08:32:57Z</time>
      </trkpt>
      <trkpt lat="45.96677" lon="4.71638">
        <ele>190</ele>
        <time>2018-06-05T08:32:58Z</time>
      </trkpt>
      <trkpt lat="45.96683" lon="4.71639">
        <ele>190</ele>
        <time>2018-06-05T08:32:59Z</time>
      </trkpt>
      <trkpt lat="45.96688" lon="4.7164">
        <ele>190</ele>
        <time>2018-06-05T08:33:00Z</time>
      </trkpt>
      <trkpt lat="45.96693" lon="4.71642">
        <ele>190</ele>
        <time>2018-06-05T08:33:01Z</time>
      </trkpt>
      <trkpt lat="45.96697" lon="4.71642">
        <ele>190</ele>
        <time>2018-06-05T08:33:02Z</time>
      </trkpt>
      <trkpt lat="45.96702" lon="4.71643">
        <ele>190</ele>
        <time>2018-06-05T08:33:03Z</time>
      </trkpt>
      <trkpt lat="45.96707" lon="4.71643">
        <ele>190</ele>
        <time>2018-06-05T08:33:04Z</time>
      </trkpt>
      <trkpt lat="45.96711" lon="4.71644">
        <ele>190</ele>
        <time>2018-06-05T08:33:05Z</time>
      </trkpt>
      <trkpt lat="45.96716" lon="4.71645">
        <ele>190</ele>
        <time>2018-06-05T08:33:06Z</time>
      </trkpt>
      <trkpt lat="45.96721" lon="4.71647">
        <ele>190</ele>
        <time>2018-06-05T08:33:07Z</time>
      </trkpt>
      <trkpt lat="45.96725" lon="4.71649">
        <ele>190</ele>
        <time>2018-06-05T08:33:08Z</time>
      </trkpt>
      <trkpt lat="45.96729" lon="4.71652">
        <ele>190</ele>
        <time>2018-06-05T08:33:09Z</time>
      </trkpt>
      <trkpt lat="45.96735" lon="4.71648">
        <ele>190</ele>
        <time>2018-06-05T08:33:10Z</time>
      </trkpt>
      <trkpt lat="45.96741" lon="4.71649">
        <ele>190</ele>
        <time>2018-06-05T08:33:11Z</time>
      </trkpt>
      <trkpt lat="45.96745" lon="4.71651">
        <ele>190</ele>
        <time>2018-06-05T08:33:12Z</time>
      </trkpt>
      <trkpt lat="45.9675" lon="4.71653">
        <ele>191</ele>
        <time>2018-06-05T08:33:13Z</time>
      </trkpt>
      <trkpt lat="45.96756" lon="4.71654">
        <ele>191</ele>
        <time>2018-06-05T08:33:14Z</time>
      </trkpt>
      <trkpt lat="45.96761" lon="4.71654">
        <ele>191</ele>
        <time>2018-06-05T08:33:15Z</time>
      </trkpt>
      <trkpt lat="45.96766" lon="4.71656">
        <ele>191</ele>
        <time>2018-06-05T08:33:16Z</time>
      </trkpt>
      <trkpt lat="45.96771" lon="4.71657">
        <ele>191</ele>
        <time>2018-06-05T08:33:17Z</time>
      </trkpt>
      <trkpt lat="45.96775" lon="4.7166">
        <ele>192</ele>
        <time>2018-06-05T08:33:18Z</time>
      </trkpt>
      <trkpt lat="45.96781" lon="4.71661">
        <ele>192</ele>
        <time>2018-06-05T08:33:19Z</time>
      </trkpt>
      <trkpt lat="45.96787" lon="4.7166">
        <ele>192</ele>
        <time>2018-06-05T08:33:20Z</time>
      </trkpt>
      <trkpt lat="45.9679" lon="4.71662">
        <ele>192</ele>
        <time>2018-06-05T08:33:21Z</time>
      </trkpt>
      <trkpt lat="45.96796" lon="4.71663">
        <ele>192</ele>
        <time>2018-06-05T08:33:22Z</time>
      </trkpt>
      <trkpt lat="45.96802" lon="4.71663">
        <ele>192</ele>
        <time>2018-06-05T08:33:23Z</time>
      </trkpt>
      <trkpt lat="45.96807" lon="4.71665">
        <ele>192</ele>
        <time>2018-06-05T08:33:24Z</time>
      </trkpt>
      <trkpt lat="45.96811" lon="4.71667">
        <ele>192</ele>
        <time>2018-06-05T08:33:25Z</time>
      </trkpt>
      <trkpt lat="45.96817" lon="4.71667">
        <ele>190</ele>
        <time>2018-06-05T08:33:26Z</time>
      </trkpt>
      <trkpt lat="45.96822" lon="4.71668">
        <ele>190</ele>
        <time>2018-06-05T08:33:27Z</time>
      </trkpt>
      <trkpt lat="45.96827" lon="4.71669">
        <ele>191</ele>
        <time>2018-06-05T08:33:28Z</time>
      </trkpt>
      <trkpt lat="45.96833" lon="4.7167">
        <ele>191</ele>
        <time>2018-06-05T08:33:29Z</time>
      </trkpt>
      <trkpt lat="45.96839" lon="4.7167">
        <ele>191</ele>
        <time>2018-06-05T08:33:30Z</time>
      </trkpt>
      <trkpt lat="45.96842" lon="4.71671">
        <ele>191</ele>
        <time>2018-06-05T08:33:31Z</time>
      </trkpt>
      <trkpt lat="45.96848" lon="4.71671">
        <ele>191</ele>
        <time>2018-06-05T08:33:32Z</time>
      </trkpt>
      <trkpt lat="45.96854" lon="4.71672">
        <ele>190</ele>
        <time>2018-06-05T08:33:33Z</time>
      </trkpt>
      <trkpt lat="45.96859" lon="4.71672">
        <ele>190</ele>
        <time>2018-06-05T08:33:34Z</time>
      </trkpt>
      <trkpt lat="45.96865" lon="4.71676">
        <ele>190</ele>
        <time>2018-06-05T08:33:35Z</time>
      </trkpt>
      <trkpt lat="45.9687" lon="4.71673">
        <ele>190</ele>
        <time>2018-06-05T08:33:36Z</time>
      </trkpt>
      <trkpt lat="45.96879" lon="4.71674">
        <ele>190</ele>
        <time>2018-06-05T08:33:38Z</time>
      </trkpt>
      <trkpt lat="45.96884" lon="4.71673">
        <ele>191</ele>
        <time>2018-06-05T08:33:39Z</time>
      </trkpt>
      <trkpt lat="45.96889" lon="4.71673">
        <ele>191</ele>
        <time>2018-06-05T08:33:40Z</time>
      </trkpt>
      <trkpt lat="45.96894" lon="4.71672">
        <ele>191</ele>
        <time>2018-06-05T08:33:41Z</time>
      </trkpt>
      <trkpt lat="45.96898" lon="4.71675">
        <ele>192</ele>
        <time>2018-06-05T08:33:42Z</time>
      </trkpt>
      <trkpt lat="45.96903" lon="4.71677">
        <ele>192</ele>
        <time>2018-06-05T08:33:43Z</time>
      </trkpt>
      <trkpt lat="45.96908" lon="4.71678">
        <ele>192</ele>
        <time>2018-06-05T08:33:44Z</time>
      </trkpt>
      <trkpt lat="45.96915" lon="4.71678">
        <ele>193</ele>
        <time>2018-06-05T08:33:45Z</time>
      </trkpt>
      <trkpt lat="45.96921" lon="4.7168">
        <ele>193</ele>
        <time>2018-06-05T08:33:47Z</time>
      </trkpt>
      <trkpt lat="45.96927" lon="4.71682">
        <ele>193</ele>
        <time>2018-06-05T08:33:48Z</time>
      </trkpt>
      <trkpt lat="45.96933" lon="4.71682">
        <ele>192</ele>
        <time>2018-06-05T08:33:49Z</time>
      </trkpt>
      <trkpt lat="45.96938" lon="4.71681">
        <ele>192</ele>
        <time>2018-06-05T08:33:50Z</time>
      </trkpt>
      <trkpt lat="45.96943" lon="4.71682">
        <ele>192</ele>
        <time>2018-06-05T08:33:51Z</time>
      </trkpt>
      <trkpt lat="45.96948" lon="4.71683">
        <ele>192</ele>
        <time>2018-06-05T08:33:52Z</time>
      </trkpt>
      <trkpt lat="45.96952" lon="4.71684">
        <ele>192</ele>
        <time>2018-06-05T08:33:53Z</time>
      </trkpt>
      <trkpt lat="45.96957" lon="4.71685">
        <ele>192</ele>
        <time>2018-06-05T08:33:54Z</time>
      </trkpt>
      <trkpt lat="45.96963" lon="4.71684">
        <ele>192</ele>
        <time>2018-06-05T08:33:56Z</time>
      </trkpt>
      <trkpt lat="45.9697" lon="4.71682">
        <ele>192</ele>
        <time>2018-06-05T08:33:57Z</time>
      </trkpt>
      <trkpt lat="45.96977" lon="4.71686">
        <ele>192</ele>
        <time>2018-06-05T08:33:59Z</time>
      </trkpt>
      <trkpt lat="45.96982" lon="4.71686">
        <ele>192</ele>
        <time>2018-06-05T08:34:00Z</time>
      </trkpt>
      <trkpt lat="45.96987" lon="4.71687">
        <ele>192</ele>
        <time>2018-06-05T08:34:01Z</time>
      </trkpt>
      <trkpt lat="45.96991" lon="4.71688">
        <ele>192</ele>
        <time>2018-06-05T08:34:02Z</time>
      </trkpt>
      <trkpt lat="45.96998" lon="4.7169">
        <ele>192</ele>
        <time>2018-06-05T08:34:04Z</time>
      </trkpt>
      <trkpt lat="45.97003" lon="4.71693">
        <ele>192</ele>
        <time>2018-06-05T08:34:05Z</time>
      </trkpt>
      <trkpt lat="45.9701" lon="4.71694">
        <ele>192</ele>
        <time>2018-06-05T08:34:07Z</time>
      </trkpt>
      <trkpt lat="45.97015" lon="4.71692">
        <ele>193</ele>
        <time>2018-06-05T08:34:08Z</time>
      </trkpt>
      <trkpt lat="45.97021" lon="4.71692">
        <ele>192</ele>
        <time>2018-06-05T08:34:09Z</time>
      </trkpt>
      <trkpt lat="45.97027" lon="4.71691">
        <ele>192</ele>
        <time>2018-06-05T08:34:10Z</time>
      </trkpt>
      <trkpt lat="45.97032" lon="4.71692">
        <ele>192</ele>
        <time>2018-06-05T08:34:11Z</time>
      </trkpt>
      <trkpt lat="45.97037" lon="4.71693">
        <ele>192</ele>
        <time>2018-06-05T08:34:12Z</time>
      </trkpt>
      <trkpt lat="45.97042" lon="4.71693">
        <ele>192</ele>
        <time>2018-06-05T08:34:13Z</time>
      </trkpt>
      <trkpt lat="45.97047" lon="4.71693">
        <ele>192</ele>
        <time>2018-06-05T08:34:14Z</time>
      </trkpt>
      <trkpt lat="45.97052" lon="4.71695">
        <ele>192</ele>
        <time>2018-06-05T08:34:15Z</time>
      </trkpt>
      <trkpt lat="45.97058" lon="4.71696">
        <ele>193</ele>
        <time>2018-06-05T08:34:16Z</time>
      </trkpt>
      <trkpt lat="45.97062" lon="4.71697">
        <ele>193</ele>
        <time>2018-06-05T08:34:17Z</time>
      </trkpt>
      <trkpt lat="45.97067" lon="4.71696">
        <ele>193</ele>
        <time>2018-06-05T08:34:18Z</time>
      </trkpt>
      <trkpt lat="45.97072" lon="4.71697">
        <ele>193</ele>
        <time>2018-06-05T08:34:19Z</time>
      </trkpt>
      <trkpt lat="45.97077" lon="4.71697">
        <ele>193</ele>
        <time>2018-06-05T08:34:20Z</time>
      </trkpt>
      <trkpt lat="45.97086" lon="4.71697">
        <ele>194</ele>
        <time>2018-06-05T08:34:22Z</time>
      </trkpt>
      <trkpt lat="45.97092" lon="4.71697">
        <ele>194</ele>
        <time>2018-06-05T08:34:23Z</time>
      </trkpt>
      <trkpt lat="45.97099" lon="4.717">
        <ele>194</ele>
        <time>2018-06-05T08:34:26Z</time>
      </trkpt>
      <trkpt lat="45.97111" lon="4.71702">
        <ele>194</ele>
        <time>2018-06-05T08:34:27Z</time>
      </trkpt>
      <trkpt lat="45.97117" lon="4.71701">
        <ele>194</ele>
        <time>2018-06-05T08:34:28Z</time>
      </trkpt>
      <trkpt lat="45.97122" lon="4.71702">
        <ele>194</ele>
        <time>2018-06-05T08:34:29Z</time>
      </trkpt>
      <trkpt lat="45.97127" lon="4.71704">
        <ele>194</ele>
        <time>2018-06-05T08:34:30Z</time>
      </trkpt>
      <trkpt lat="45.97132" lon="4.71704">
        <ele>194</ele>
        <time>2018-06-05T08:34:31Z</time>
      </trkpt>
      <trkpt lat="45.97138" lon="4.71703">
        <ele>194</ele>
        <time>2018-06-05T08:34:32Z</time>
      </trkpt>
      <trkpt lat="45.97146" lon="4.71702">
        <ele>195</ele>
        <time>2018-06-05T08:34:33Z</time>
      </trkpt>
      <trkpt lat="45.97151" lon="4.71702">
        <ele>195</ele>
        <time>2018-06-05T08:34:34Z</time>
      </trkpt>
      <trkpt lat="45.97156" lon="4.71702">
        <ele>195</ele>
        <time>2018-06-05T08:34:35Z</time>
      </trkpt>
      <trkpt lat="45.97161" lon="4.71704">
        <ele>195</ele>
        <time>2018-06-05T08:34:36Z</time>
      </trkpt>
      <trkpt lat="45.97166" lon="4.71705">
        <ele>195</ele>
        <time>2018-06-05T08:34:37Z</time>
      </trkpt>
      <trkpt lat="45.97171" lon="4.71706">
        <ele>196</ele>
        <time>2018-06-05T08:34:38Z</time>
      </trkpt>
      <trkpt lat="45.97175" lon="4.71704">
        <ele>196</ele>
        <time>2018-06-05T08:34:39Z</time>
      </trkpt>
      <trkpt lat="45.9718" lon="4.71704">
        <ele>196</ele>
        <time>2018-06-05T08:34:40Z</time>
      </trkpt>
      <trkpt lat="45.97185" lon="4.71705">
        <ele>196</ele>
        <time>2018-06-05T08:34:41Z</time>
      </trkpt>
      <trkpt lat="45.9719" lon="4.71705">
        <ele>196</ele>
        <time>2018-06-05T08:34:42Z</time>
      </trkpt>
      <trkpt lat="45.97196" lon="4.71706">
        <ele>196</ele>
        <time>2018-06-05T08:34:43Z</time>
      </trkpt>
      <trkpt lat="45.97202" lon="4.71706">
        <ele>196</ele>
        <time>2018-06-05T08:34:44Z</time>
      </trkpt>
      <trkpt lat="45.97207" lon="4.71706">
        <ele>196</ele>
        <time>2018-06-05T08:34:45Z</time>
      </trkpt>
      <trkpt lat="45.97213" lon="4.7171">
        <ele>196</ele>
        <time>2018-06-05T08:34:46Z</time>
      </trkpt>
      <trkpt lat="45.97218" lon="4.7171">
        <ele>196</ele>
        <time>2018-06-05T08:34:47Z</time>
      </trkpt>
      <trkpt lat="45.97223" lon="4.7171">
        <ele>196</ele>
        <time>2018-06-05T08:34:48Z</time>
      </trkpt>
      <trkpt lat="45.97228" lon="4.71712">
        <ele>196</ele>
        <time>2018-06-05T08:34:49Z</time>
      </trkpt>
      <trkpt lat="45.97235" lon="4.71713">
        <ele>196</ele>
        <time>2018-06-05T08:34:50Z</time>
      </trkpt>
      <trkpt lat="45.97238" lon="4.71713">
        <ele>196</ele>
        <time>2018-06-05T08:34:51Z</time>
      </trkpt>
      <trkpt lat="45.97244" lon="4.71714">
        <ele>196</ele>
        <time>2018-06-05T08:34:52Z</time>
      </trkpt>
      <trkpt lat="45.9725" lon="4.71715">
        <ele>196</ele>
        <time>2018-06-05T08:34:53Z</time>
      </trkpt>
      <trkpt lat="45.97256" lon="4.71716">
        <ele>196</ele>
        <time>2018-06-05T08:34:54Z</time>
      </trkpt>
      <trkpt lat="45.97261" lon="4.71716">
        <ele>196</ele>
        <time>2018-06-05T08:34:55Z</time>
      </trkpt>
      <trkpt lat="45.9727" lon="4.71716">
        <ele>196</ele>
        <time>2018-06-05T08:34:57Z</time>
      </trkpt>
      <trkpt lat="45.97276" lon="4.71718">
        <ele>196</ele>
        <time>2018-06-05T08:34:58Z</time>
      </trkpt>
      <trkpt lat="45.97283" lon="4.71717">
        <ele>196</ele>
        <time>2018-06-05T08:34:59Z</time>
      </trkpt>
      <trkpt lat="45.97286" lon="4.71722">
        <ele>196</ele>
        <time>2018-06-05T08:35:00Z</time>
      </trkpt>
      <trkpt lat="45.97293" lon="4.71729">
        <ele>196</ele>
        <time>2018-06-05T08:35:02Z</time>
      </trkpt>
      <trkpt lat="45.97298" lon="4.71731">
        <ele>196</ele>
        <time>2018-06-05T08:35:03Z</time>
      </trkpt>
      <trkpt lat="45.97305" lon="4.7173">
        <ele>196</ele>
        <time>2018-06-05T08:35:04Z</time>
      </trkpt>
      <trkpt lat="45.97308" lon="4.7173">
        <ele>196</ele>
        <time>2018-06-05T08:35:05Z</time>
      </trkpt>
      <trkpt lat="45.97313" lon="4.71727">
        <ele>196</ele>
        <time>2018-06-05T08:35:06Z</time>
      </trkpt>
      <trkpt lat="45.97319" lon="4.71722">
        <ele>196</ele>
        <time>2018-06-05T08:35:07Z</time>
      </trkpt>
      <trkpt lat="45.97324" lon="4.71717">
        <ele>196</ele>
        <time>2018-06-05T08:35:08Z</time>
      </trkpt>
      <trkpt lat="45.97329" lon="4.71715">
        <ele>196</ele>
        <time>2018-06-05T08:35:09Z</time>
      </trkpt>
      <trkpt lat="45.97334" lon="4.71714">
        <ele>195</ele>
        <time>2018-06-05T08:35:10Z</time>
      </trkpt>
      <trkpt lat="45.97341" lon="4.71712">
        <ele>195</ele>
        <time>2018-06-05T08:35:11Z</time>
      </trkpt>
      <trkpt lat="45.97345" lon="4.71712">
        <ele>195</ele>
        <time>2018-06-05T08:35:12Z</time>
      </trkpt>
      <trkpt lat="45.9735" lon="4.71712">
        <ele>195</ele>
        <time>2018-06-05T08:35:13Z</time>
      </trkpt>
      <trkpt lat="45.97356" lon="4.71713">
        <ele>195</ele>
        <time>2018-06-05T08:35:14Z</time>
      </trkpt>
      <trkpt lat="45.97361" lon="4.71714">
        <ele>195</ele>
        <time>2018-06-05T08:35:15Z</time>
      </trkpt>
      <trkpt lat="45.97366" lon="4.71715">
        <ele>195</ele>
        <time>2018-06-05T08:35:16Z</time>
      </trkpt>
      <trkpt lat="45.97371" lon="4.71717">
        <ele>195</ele>
        <time>2018-06-05T08:35:17Z</time>
      </trkpt>
      <trkpt lat="45.97377" lon="4.71718">
        <ele>195</ele>
        <time>2018-06-05T08:35:18Z</time>
      </trkpt>
      <trkpt lat="45.97383" lon="4.71718">
        <ele>195</ele>
        <time>2018-06-05T08:35:19Z</time>
      </trkpt>
      <trkpt lat="45.97387" lon="4.71718">
        <ele>195</ele>
        <time>2018-06-05T08:35:20Z</time>
      </trkpt>
      <trkpt lat="45.97392" lon="4.71719">
        <ele>195</ele>
        <time>2018-06-05T08:35:21Z</time>
      </trkpt>
      <trkpt lat="45.974" lon="4.7172">
        <ele>195</ele>
        <time>2018-06-05T08:35:23Z</time>
      </trkpt>
      <trkpt lat="45.97405" lon="4.7172">
        <ele>195</ele>
        <time>2018-06-05T08:35:24Z</time>
      </trkpt>
      <trkpt lat="45.97409" lon="4.71718">
        <ele>195</ele>
        <time>2018-06-05T08:35:25Z</time>
      </trkpt>
      <trkpt lat="45.97414" lon="4.71719">
        <ele>195</ele>
        <time>2018-06-05T08:35:26Z</time>
      </trkpt>
      <trkpt lat="45.97418" lon="4.71721">
        <ele>196</ele>
        <time>2018-06-05T08:35:27Z</time>
      </trkpt>
      <trkpt lat="45.97423" lon="4.71721">
        <ele>196</ele>
        <time>2018-06-05T08:35:28Z</time>
      </trkpt>
      <trkpt lat="45.97429" lon="4.71719">
        <ele>196</ele>
        <time>2018-06-05T08:35:29Z</time>
      </trkpt>
      <trkpt lat="45.97434" lon="4.7172">
        <ele>196</ele>
        <time>2018-06-05T08:35:30Z</time>
      </trkpt>
      <trkpt lat="45.9744" lon="4.71721">
        <ele>196</ele>
        <time>2018-06-05T08:35:31Z</time>
      </trkpt>
      <trkpt lat="45.97446" lon="4.71722">
        <ele>196</ele>
        <time>2018-06-05T08:35:32Z</time>
      </trkpt>
      <trkpt lat="45.97451" lon="4.71722">
        <ele>197</ele>
        <time>2018-06-05T08:35:33Z</time>
      </trkpt>
      <trkpt lat="45.97459" lon="4.71723">
        <ele>197</ele>
        <time>2018-06-05T08:35:34Z</time>
      </trkpt>
      <trkpt lat="45.97464" lon="4.71723">
        <ele>197</ele>
        <time>2018-06-05T08:35:35Z</time>
      </trkpt>
      <trkpt lat="45.9747" lon="4.71724">
        <ele>197</ele>
        <time>2018-06-05T08:35:36Z</time>
      </trkpt>
      <trkpt lat="45.97476" lon="4.71724">
        <ele>197</ele>
        <time>2018-06-05T08:35:37Z</time>
      </trkpt>
      <trkpt lat="45.97482" lon="4.71725">
        <ele>197</ele>
        <time>2018-06-05T08:35:38Z</time>
      </trkpt>
      <trkpt lat="45.97491" lon="4.71727">
        <ele>197</ele>
        <time>2018-06-05T08:35:40Z</time>
      </trkpt>
      <trkpt lat="45.97495" lon="4.71728">
        <ele>197</ele>
        <time>2018-06-05T08:35:41Z</time>
      </trkpt>
      <trkpt lat="45.975" lon="4.71729">
        <ele>198</ele>
        <time>2018-06-05T08:35:42Z</time>
      </trkpt>
      <trkpt lat="45.97506" lon="4.7173">
        <ele>198</ele>
        <time>2018-06-05T08:35:43Z</time>
      </trkpt>
      <trkpt lat="45.97511" lon="4.71731">
        <ele>198</ele>
        <time>2018-06-05T08:35:44Z</time>
      </trkpt>
      <trkpt lat="45.97517" lon="4.71732">
        <ele>198</ele>
        <time>2018-06-05T08:35:45Z</time>
      </trkpt>
      <trkpt lat="45.97523" lon="4.71733">
        <ele>198</ele>
        <time>2018-06-05T08:35:46Z</time>
      </trkpt>
      <trkpt lat="45.97529" lon="4.71733">
        <ele>198</ele>
        <time>2018-06-05T08:35:47Z</time>
      </trkpt>
      <trkpt lat="45.97534" lon="4.71734">
        <ele>198</ele>
        <time>2018-06-05T08:35:48Z</time>
      </trkpt>
      <trkpt lat="45.97539" lon="4.71735">
        <ele>198</ele>
        <time>2018-06-05T08:35:49Z</time>
      </trkpt>
      <trkpt lat="45.97544" lon="4.71736">
        <ele>198</ele>
        <time>2018-06-05T08:35:50Z</time>
      </trkpt>
      <trkpt lat="45.9755" lon="4.71737">
        <ele>197</ele>
        <time>2018-06-05T08:35:51Z</time>
      </trkpt>
      <trkpt lat="45.97556" lon="4.71738">
        <ele>197</ele>
        <time>2018-06-05T08:35:52Z</time>
      </trkpt>
      <trkpt lat="45.97561" lon="4.71738">
        <ele>197</ele>
        <time>2018-06-05T08:35:53Z</time>
      </trkpt>
      <trkpt lat="45.97566" lon="4.71741">
        <ele>197</ele>
        <time>2018-06-05T08:35:54Z</time>
      </trkpt>
      <trkpt lat="45.97572" lon="4.71741">
        <ele>196</ele>
        <time>2018-06-05T08:35:55Z</time>
      </trkpt>
      <trkpt lat="45.97576" lon="4.71742">
        <ele>196</ele>
        <time>2018-06-05T08:35:56Z</time>
      </trkpt>
      <trkpt lat="45.97582" lon="4.71743">
        <ele>196</ele>
        <time>2018-06-05T08:35:57Z</time>
      </trkpt>
      <trkpt lat="45.97587" lon="4.71744">
        <ele>196</ele>
        <time>2018-06-05T08:35:58Z</time>
      </trkpt>
      <trkpt lat="45.97592" lon="4.71746">
        <ele>196</ele>
        <time>2018-06-05T08:35:59Z</time>
      </trkpt>
      <trkpt lat="45.97598" lon="4.7175">
        <ele>196</ele>
        <time>2018-06-05T08:36:00Z</time>
      </trkpt>
      <trkpt lat="45.97601" lon="4.71753">
        <ele>194</ele>
        <time>2018-06-05T08:36:01Z</time>
      </trkpt>
      <trkpt lat="45.97604" lon="4.7176">
        <ele>194</ele>
        <time>2018-06-05T08:36:02Z</time>
      </trkpt>
      <trkpt lat="45.97611" lon="4.71759">
        <ele>194</ele>
        <time>2018-06-05T08:36:03Z</time>
      </trkpt>
      <trkpt lat="45.97617" lon="4.71758">
        <ele>194</ele>
        <time>2018-06-05T08:36:04Z</time>
      </trkpt>
      <trkpt lat="45.97623" lon="4.71758">
        <ele>194</ele>
        <time>2018-06-05T08:36:05Z</time>
      </trkpt>
      <trkpt lat="45.97628" lon="4.71755">
        <ele>194</ele>
        <time>2018-06-05T08:36:06Z</time>
      </trkpt>
      <trkpt lat="45.97633" lon="4.71752">
        <ele>194</ele>
        <time>2018-06-05T08:36:07Z</time>
      </trkpt>
      <trkpt lat="45.97639" lon="4.71748">
        <ele>196</ele>
        <time>2018-06-05T08:36:08Z</time>
      </trkpt>
      <trkpt lat="45.97645" lon="4.71746">
        <ele>196</ele>
        <time>2018-06-05T08:36:09Z</time>
      </trkpt>
      <trkpt lat="45.97653" lon="4.71748">
        <ele>195</ele>
        <time>2018-06-05T08:36:11Z</time>
      </trkpt>
      <trkpt lat="45.97658" lon="4.71746">
        <ele>195</ele>
        <time>2018-06-05T08:36:12Z</time>
      </trkpt>
      <trkpt lat="45.97665" lon="4.71747">
        <ele>194</ele>
        <time>2018-06-05T08:36:13Z</time>
      </trkpt>
      <trkpt lat="45.97671" lon="4.71751">
        <ele>194</ele>
        <time>2018-06-05T08:36:14Z</time>
      </trkpt>
      <trkpt lat="45.97677" lon="4.71752">
        <ele>194</ele>
        <time>2018-06-05T08:36:15Z</time>
      </trkpt>
      <trkpt lat="45.97684" lon="4.71754">
        <ele>194</ele>
        <time>2018-06-05T08:36:16Z</time>
      </trkpt>
      <trkpt lat="45.97691" lon="4.71753">
        <ele>195</ele>
        <time>2018-06-05T08:36:17Z</time>
      </trkpt>
      <trkpt lat="45.97696" lon="4.71754">
        <ele>195</ele>
        <time>2018-06-05T08:36:18Z</time>
      </trkpt>
      <trkpt lat="45.97701" lon="4.71756">
        <ele>195</ele>
        <time>2018-06-05T08:36:19Z</time>
      </trkpt>
      <trkpt lat="45.97707" lon="4.71756">
        <ele>195</ele>
        <time>2018-06-05T08:36:20Z</time>
      </trkpt>
      <trkpt lat="45.97715" lon="4.71754">
        <ele>195</ele>
        <time>2018-06-05T08:36:21Z</time>
      </trkpt>
      <trkpt lat="45.9772" lon="4.71755">
        <ele>195</ele>
        <time>2018-06-05T08:36:22Z</time>
      </trkpt>
      <trkpt lat="45.97724" lon="4.71752">
        <ele>195</ele>
        <time>2018-06-05T08:36:23Z</time>
      </trkpt>
      <trkpt lat="45.9773" lon="4.71752">
        <ele>195</ele>
        <time>2018-06-05T08:36:24Z</time>
      </trkpt>
      <trkpt lat="45.97734" lon="4.71755">
        <ele>195</ele>
        <time>2018-06-05T08:36:25Z</time>
      </trkpt>
      <trkpt lat="45.97739" lon="4.71757">
        <ele>195</ele>
        <time>2018-06-05T08:36:26Z</time>
      </trkpt>
      <trkpt lat="45.97744" lon="4.71757">
        <ele>196</ele>
        <time>2018-06-05T08:36:27Z</time>
      </trkpt>
      <trkpt lat="45.97752" lon="4.71758">
        <ele>196</ele>
        <time>2018-06-05T08:36:28Z</time>
      </trkpt>
      <trkpt lat="45.97757" lon="4.71759">
        <ele>196</ele>
        <time>2018-06-05T08:36:29Z</time>
      </trkpt>
      <trkpt lat="45.97762" lon="4.71761">
        <ele>196</ele>
        <time>2018-06-05T08:36:30Z</time>
      </trkpt>
      <trkpt lat="45.97767" lon="4.71762">
        <ele>195</ele>
        <time>2018-06-05T08:36:31Z</time>
      </trkpt>
      <trkpt lat="45.97772" lon="4.71763">
        <ele>195</ele>
        <time>2018-06-05T08:36:32Z</time>
      </trkpt>
      <trkpt lat="45.9778" lon="4.71764">
        <ele>195</ele>
        <time>2018-06-05T08:36:34Z</time>
      </trkpt>
      <trkpt lat="45.97782" lon="4.71764">
        <ele>195</ele>
        <time>2018-06-05T08:36:35Z</time>
      </trkpt>
      <trkpt lat="45.97789" lon="4.71763">
        <ele>195</ele>
        <time>2018-06-05T08:36:36Z</time>
      </trkpt>
      <trkpt lat="45.97794" lon="4.71764">
        <ele>195</ele>
        <time>2018-06-05T08:36:37Z</time>
      </trkpt>
      <trkpt lat="45.97799" lon="4.71764">
        <ele>195</ele>
        <time>2018-06-05T08:36:38Z</time>
      </trkpt>
      <trkpt lat="45.97804" lon="4.71764">
        <ele>195</ele>
        <time>2018-06-05T08:36:39Z</time>
      </trkpt>
      <trkpt lat="45.97813" lon="4.71767">
        <ele>195</ele>
        <time>2018-06-05T08:36:41Z</time>
      </trkpt>
      <trkpt lat="45.97818" lon="4.71768">
        <ele>195</ele>
        <time>2018-06-05T08:36:42Z</time>
      </trkpt>
      <trkpt lat="45.97827" lon="4.71769">
        <ele>195</ele>
        <time>2018-06-05T08:36:44Z</time>
      </trkpt>
      <trkpt lat="45.97831" lon="4.71769">
        <ele>195</ele>
        <time>2018-06-05T08:36:45Z</time>
      </trkpt>
      <trkpt lat="45.97837" lon="4.71771">
        <ele>195</ele>
        <time>2018-06-05T08:36:46Z</time>
      </trkpt>
      <trkpt lat="45.97842" lon="4.71771">
        <ele>195</ele>
        <time>2018-06-05T08:36:47Z</time>
      </trkpt>
      <trkpt lat="45.97848" lon="4.71772">
        <ele>195</ele>
        <time>2018-06-05T08:36:48Z</time>
      </trkpt>
      <trkpt lat="45.97852" lon="4.71775">
        <ele>194</ele>
        <time>2018-06-05T08:36:49Z</time>
      </trkpt>
      <trkpt lat="45.97857" lon="4.71778">
        <ele>194</ele>
        <time>2018-06-05T08:36:50Z</time>
      </trkpt>
      <trkpt lat="45.97861" lon="4.71783">
        <ele>194</ele>
        <time>2018-06-05T08:36:51Z</time>
      </trkpt>
      <trkpt lat="45.97865" lon="4.71786">
        <ele>194</ele>
        <time>2018-06-05T08:36:52Z</time>
      </trkpt>
      <trkpt lat="45.9787" lon="4.71788">
        <ele>194</ele>
        <time>2018-06-05T08:36:53Z</time>
      </trkpt>
      <trkpt lat="45.97876" lon="4.71786">
        <ele>194</ele>
        <time>2018-06-05T08:36:54Z</time>
      </trkpt>
      <trkpt lat="45.9788" lon="4.71783">
        <ele>194</ele>
        <time>2018-06-05T08:36:55Z</time>
      </trkpt>
      <trkpt lat="45.97885" lon="4.7178">
        <ele>194</ele>
        <time>2018-06-05T08:36:56Z</time>
      </trkpt>
      <trkpt lat="45.97889" lon="4.71775">
        <ele>194</ele>
        <time>2018-06-05T08:36:57Z</time>
      </trkpt>
      <trkpt lat="45.97893" lon="4.71764">
        <ele>195</ele>
        <time>2018-06-05T08:36:59Z</time>
      </trkpt>
      <trkpt lat="45.97894" lon="4.71754">
        <ele>195</ele>
        <time>2018-06-05T08:37:00Z</time>
      </trkpt>
      <trkpt lat="45.97894" lon="4.71746">
        <ele>196</ele>
        <time>2018-06-05T08:37:01Z</time>
      </trkpt>
      <trkpt lat="45.97895" lon="4.71738">
        <ele>196</ele>
        <time>2018-06-05T08:37:02Z</time>
      </trkpt>
      <trkpt lat="45.97893" lon="4.71729">
        <ele>196</ele>
        <time>2018-06-05T08:37:03Z</time>
      </trkpt>
      <trkpt lat="45.97897" lon="4.71719">
        <ele>196</ele>
        <time>2018-06-05T08:37:04Z</time>
      </trkpt>
      <trkpt lat="45.97898" lon="4.71711">
        <ele>196</ele>
        <time>2018-06-05T08:37:05Z</time>
      </trkpt>
      <trkpt lat="45.97902" lon="4.71704">
        <ele>196</ele>
        <time>2018-06-05T08:37:06Z</time>
      </trkpt>
      <trkpt lat="45.97905" lon="4.71699">
        <ele>196</ele>
        <time>2018-06-05T08:37:07Z</time>
      </trkpt>
      <trkpt lat="45.97909" lon="4.71694">
        <ele>196</ele>
        <time>2018-06-05T08:37:08Z</time>
      </trkpt>
      <trkpt lat="45.97914" lon="4.71691">
        <ele>196</ele>
        <time>2018-06-05T08:37:09Z</time>
      </trkpt>
      <trkpt lat="45.97918" lon="4.71687">
        <ele>196</ele>
        <time>2018-06-05T08:37:10Z</time>
      </trkpt>
      <trkpt lat="45.97924" lon="4.71683">
        <ele>196</ele>
        <time>2018-06-05T08:37:11Z</time>
      </trkpt>
      <trkpt lat="45.97931" lon="4.71682">
        <ele>196</ele>
        <time>2018-06-05T08:37:12Z</time>
      </trkpt>
      <trkpt lat="45.97936" lon="4.71678">
        <ele>196</ele>
        <time>2018-06-05T08:37:13Z</time>
      </trkpt>
      <trkpt lat="45.97942" lon="4.71672">
        <ele>197</ele>
        <time>2018-06-05T08:37:14Z</time>
      </trkpt>
      <trkpt lat="45.97946" lon="4.71668">
        <ele>197</ele>
        <time>2018-06-05T08:37:15Z</time>
      </trkpt>
      <trkpt lat="45.9795" lon="4.71663">
        <ele>197</ele>
        <time>2018-06-05T08:37:16Z</time>
      </trkpt>
      <trkpt lat="45.97955" lon="4.71659">
        <ele>197</ele>
        <time>2018-06-05T08:37:17Z</time>
      </trkpt>
      <trkpt lat="45.9796" lon="4.71655">
        <ele>197</ele>
        <time>2018-06-05T08:37:18Z</time>
      </trkpt>
      <trkpt lat="45.97966" lon="4.71651">
        <ele>197</ele>
        <time>2018-06-05T08:37:19Z</time>
      </trkpt>
      <trkpt lat="45.97971" lon="4.71647">
        <ele>197</ele>
        <time>2018-06-05T08:37:20Z</time>
      </trkpt>
      <trkpt lat="45.97975" lon="4.71643">
        <ele>197</ele>
        <time>2018-06-05T08:37:21Z</time>
      </trkpt>
      <trkpt lat="45.97981" lon="4.71639">
        <ele>197</ele>
        <time>2018-06-05T08:37:22Z</time>
      </trkpt>
      <trkpt lat="45.97986" lon="4.71635">
        <ele>197</ele>
        <time>2018-06-05T08:37:23Z</time>
      </trkpt>
      <trkpt lat="45.97993" lon="4.71629">
        <ele>198</ele>
        <time>2018-06-05T08:37:24Z</time>
      </trkpt>
      <trkpt lat="45.97999" lon="4.71624">
        <ele>198</ele>
        <time>2018-06-05T08:37:25Z</time>
      </trkpt>
      <trkpt lat="45.98005" lon="4.71619">
        <ele>198</ele>
        <time>2018-06-05T08:37:26Z</time>
      </trkpt>
      <trkpt lat="45.98012" lon="4.71612">
        <ele>198</ele>
        <time>2018-06-05T08:37:28Z</time>
      </trkpt>
      <trkpt lat="45.98016" lon="4.71609">
        <ele>198</ele>
        <time>2018-06-05T08:37:29Z</time>
      </trkpt>
      <trkpt lat="45.98022" lon="4.71606">
        <ele>198</ele>
        <time>2018-06-05T08:37:30Z</time>
      </trkpt>
      <trkpt lat="45.98025" lon="4.71602">
        <ele>198</ele>
        <time>2018-06-05T08:37:31Z</time>
      </trkpt>
      <trkpt lat="45.9803" lon="4.71599">
        <ele>198</ele>
        <time>2018-06-05T08:37:32Z</time>
      </trkpt>
      <trkpt lat="45.98034" lon="4.71597">
        <ele>198</ele>
        <time>2018-06-05T08:37:33Z</time>
      </trkpt>
      <trkpt lat="45.98041" lon="4.71591">
        <ele>198</ele>
        <time>2018-06-05T08:37:34Z</time>
      </trkpt>
      <trkpt lat="45.98045" lon="4.71587">
        <ele>198</ele>
        <time>2018-06-05T08:37:35Z</time>
      </trkpt>
      <trkpt lat="45.98049" lon="4.71585">
        <ele>198</ele>
        <time>2018-06-05T08:37:36Z</time>
      </trkpt>
      <trkpt lat="45.98054" lon="4.71582">
        <ele>198</ele>
        <time>2018-06-05T08:37:37Z</time>
      </trkpt>
      <trkpt lat="45.9806" lon="4.71577">
        <ele>198</ele>
        <time>2018-06-05T08:37:38Z</time>
      </trkpt>
      <trkpt lat="45.98065" lon="4.71573">
        <ele>198</ele>
        <time>2018-06-05T08:37:39Z</time>
      </trkpt>
      <trkpt lat="45.9807" lon="4.71571">
        <ele>198</ele>
        <time>2018-06-05T08:37:40Z</time>
      </trkpt>
      <trkpt lat="45.98074" lon="4.71567">
        <ele>198</ele>
        <time>2018-06-05T08:37:41Z</time>
      </trkpt>
      <trkpt lat="45.98079" lon="4.71564">
        <ele>198</ele>
        <time>2018-06-05T08:37:42Z</time>
      </trkpt>
      <trkpt lat="45.98085" lon="4.7156">
        <ele>198</ele>
        <time>2018-06-05T08:37:43Z</time>
      </trkpt>
      <trkpt lat="45.98089" lon="4.71557">
        <ele>198</ele>
        <time>2018-06-05T08:37:44Z</time>
      </trkpt>
      <trkpt lat="45.98095" lon="4.71555">
        <ele>198</ele>
        <time>2018-06-05T08:37:45Z</time>
      </trkpt>
      <trkpt lat="45.981" lon="4.71552">
        <ele>197</ele>
        <time>2018-06-05T08:37:46Z</time>
      </trkpt>
      <trkpt lat="45.98105" lon="4.71548">
        <ele>197</ele>
        <time>2018-06-05T08:37:47Z</time>
      </trkpt>
      <trkpt lat="45.98112" lon="4.71547">
        <ele>197</ele>
        <time>2018-06-05T08:37:48Z</time>
      </trkpt>
      <trkpt lat="45.98117" lon="4.71544">
        <ele>197</ele>
        <time>2018-06-05T08:37:49Z</time>
      </trkpt>
      <trkpt lat="45.9812" lon="4.71538">
        <ele>197</ele>
        <time>2018-06-05T08:37:50Z</time>
      </trkpt>
      <trkpt lat="45.98127" lon="4.71532">
        <ele>197</ele>
        <time>2018-06-05T08:37:51Z</time>
      </trkpt>
      <trkpt lat="45.98133" lon="4.71529">
        <ele>197</ele>
        <time>2018-06-05T08:37:52Z</time>
      </trkpt>
      <trkpt lat="45.98139" lon="4.71527">
        <ele>197</ele>
        <time>2018-06-05T08:37:53Z</time>
      </trkpt>
      <trkpt lat="45.98145" lon="4.71523">
        <ele>197</ele>
        <time>2018-06-05T08:37:54Z</time>
      </trkpt>
      <trkpt lat="45.9815" lon="4.71521">
        <ele>197</ele>
        <time>2018-06-05T08:37:55Z</time>
      </trkpt>
      <trkpt lat="45.98156" lon="4.71518">
        <ele>197</ele>
        <time>2018-06-05T08:37:56Z</time>
      </trkpt>
      <trkpt lat="45.98161" lon="4.71515">
        <ele>197</ele>
        <time>2018-06-05T08:37:57Z</time>
      </trkpt>
      <trkpt lat="45.98166" lon="4.71512">
        <ele>197</ele>
        <time>2018-06-05T08:37:58Z</time>
      </trkpt>
      <trkpt lat="45.98171" lon="4.71509">
        <ele>197</ele>
        <time>2018-06-05T08:37:59Z</time>
      </trkpt>
      <trkpt lat="45.98175" lon="4.71506">
        <ele>197</ele>
        <time>2018-06-05T08:38:00Z</time>
      </trkpt>
      <trkpt lat="45.98182" lon="4.71502">
        <ele>197</ele>
        <time>2018-06-05T08:38:01Z</time>
      </trkpt>
      <trkpt lat="45.98186" lon="4.71503">
        <ele>197</ele>
        <time>2018-06-05T08:38:02Z</time>
      </trkpt>
      <trkpt lat="45.98191" lon="4.71504">
        <ele>197</ele>
        <time>2018-06-05T08:38:03Z</time>
      </trkpt>
      <trkpt lat="45.98197" lon="4.71501">
        <ele>197</ele>
        <time>2018-06-05T08:38:04Z</time>
      </trkpt>
      <trkpt lat="45.98201" lon="4.71503">
        <ele>197</ele>
        <time>2018-06-05T08:38:05Z</time>
      </trkpt>
      <trkpt lat="45.98206" lon="4.71503">
        <ele>197</ele>
        <time>2018-06-05T08:38:06Z</time>
      </trkpt>
      <trkpt lat="45.98212" lon="4.71504">
        <ele>196</ele>
        <time>2018-06-05T08:38:07Z</time>
      </trkpt>
      <trkpt lat="45.98217" lon="4.71506">
        <ele>196</ele>
        <time>2018-06-05T08:38:08Z</time>
      </trkpt>
      <trkpt lat="45.98222" lon="4.7151">
        <ele>196</ele>
        <time>2018-06-05T08:38:09Z</time>
      </trkpt>
      <trkpt lat="45.98229" lon="4.71513">
        <ele>196</ele>
        <time>2018-06-05T08:38:10Z</time>
      </trkpt>
      <trkpt lat="45.98233" lon="4.71515">
        <ele>196</ele>
        <time>2018-06-05T08:38:11Z</time>
      </trkpt>
      <trkpt lat="45.98238" lon="4.71518">
        <ele>196</ele>
        <time>2018-06-05T08:38:12Z</time>
      </trkpt>
      <trkpt lat="45.98244" lon="4.71521">
        <ele>196</ele>
        <time>2018-06-05T08:38:13Z</time>
      </trkpt>
      <trkpt lat="45.98249" lon="4.71524">
        <ele>196</ele>
        <time>2018-06-05T08:38:14Z</time>
      </trkpt>
      <trkpt lat="45.98253" lon="4.71527">
        <ele>197</ele>
        <time>2018-06-05T08:38:15Z</time>
      </trkpt>
      <trkpt lat="45.98257" lon="4.71531">
        <ele>197</ele>
        <time>2018-06-05T08:38:16Z</time>
      </trkpt>
      <trkpt lat="45.98262" lon="4.71536">
        <ele>197</ele>
        <time>2018-06-05T08:38:17Z</time>
      </trkpt>
      <trkpt lat="45.98267" lon="4.7154">
        <ele>197</ele>
        <time>2018-06-05T08:38:18Z</time>
      </trkpt>
      <trkpt lat="45.98271" lon="4.71543">
        <ele>197</ele>
        <time>2018-06-05T08:38:19Z</time>
      </trkpt>
      <trkpt lat="45.98276" lon="4.71546">
        <ele>198</ele>
        <time>2018-06-05T08:38:20Z</time>
      </trkpt>
      <trkpt lat="45.98281" lon="4.71549">
        <ele>198</ele>
        <time>2018-06-05T08:38:21Z</time>
      </trkpt>
      <trkpt lat="45.98285" lon="4.71554">
        <ele>198</ele>
        <time>2018-06-05T08:38:22Z</time>
      </trkpt>
      <trkpt lat="45.9829" lon="4.71556">
        <ele>198</ele>
        <time>2018-06-05T08:38:23Z</time>
      </trkpt>
      <trkpt lat="45.98295" lon="4.7156">
        <ele>198</ele>
        <time>2018-06-05T08:38:24Z</time>
      </trkpt>
      <trkpt lat="45.98299" lon="4.71563">
        <ele>198</ele>
        <time>2018-06-05T08:38:25Z</time>
      </trkpt>
      <trkpt lat="45.98304" lon="4.71566">
        <ele>198</ele>
        <time>2018-06-05T08:38:26Z</time>
      </trkpt>
      <trkpt lat="45.98309" lon="4.7157">
        <ele>198</ele>
        <time>2018-06-05T08:38:27Z</time>
      </trkpt>
      <trkpt lat="45.98314" lon="4.71573">
        <ele>198</ele>
        <time>2018-06-05T08:38:28Z</time>
      </trkpt>
      <trkpt lat="45.9832" lon="4.71576">
        <ele>198</ele>
        <time>2018-06-05T08:38:29Z</time>
      </trkpt>
      <trkpt lat="45.98328" lon="4.7158">
        <ele>199</ele>
        <time>2018-06-05T08:38:31Z</time>
      </trkpt>
      <trkpt lat="45.98334" lon="4.71584">
        <ele>199</ele>
        <time>2018-06-05T08:38:32Z</time>
      </trkpt>
      <trkpt lat="45.98339" lon="4.71588">
        <ele>199</ele>
        <time>2018-06-05T08:38:33Z</time>
      </trkpt>
      <trkpt lat="45.98345" lon="4.71593">
        <ele>198</ele>
        <time>2018-06-05T08:38:34Z</time>
      </trkpt>
      <trkpt lat="45.9835" lon="4.71597">
        <ele>198</ele>
        <time>2018-06-05T08:38:35Z</time>
      </trkpt>
      <trkpt lat="45.98355" lon="4.71601">
        <ele>198</ele>
        <time>2018-06-05T08:38:36Z</time>
      </trkpt>
      <trkpt lat="45.98361" lon="4.71604">
        <ele>198</ele>
        <time>2018-06-05T08:38:37Z</time>
      </trkpt>
      <trkpt lat="45.98366" lon="4.71607">
        <ele>198</ele>
        <time>2018-06-05T08:38:38Z</time>
      </trkpt>
      <trkpt lat="45.98374" lon="4.71609">
        <ele>198</ele>
        <time>2018-06-05T08:38:40Z</time>
      </trkpt>
      <trkpt lat="45.9838" lon="4.71608">
        <ele>198</ele>
        <time>2018-06-05T08:38:41Z</time>
      </trkpt>
      <trkpt lat="45.98384" lon="4.71607">
        <ele>198</ele>
        <time>2018-06-05T08:38:42Z</time>
      </trkpt>
      <trkpt lat="45.98389" lon="4.71603">
        <ele>198</ele>
        <time>2018-06-05T08:38:43Z</time>
      </trkpt>
      <trkpt lat="45.98394" lon="4.71598">
        <ele>198</ele>
        <time>2018-06-05T08:38:44Z</time>
      </trkpt>
      <trkpt lat="45.98399" lon="4.71595">
        <ele>197</ele>
        <time>2018-06-05T08:38:45Z</time>
      </trkpt>
      <trkpt lat="45.98404" lon="4.7159">
        <ele>197</ele>
        <time>2018-06-05T08:38:46Z</time>
      </trkpt>
      <trkpt lat="45.98408" lon="4.71587">
        <ele>197</ele>
        <time>2018-06-05T08:38:47Z</time>
      </trkpt>
      <trkpt lat="45.98414" lon="4.7158">
        <ele>197</ele>
        <time>2018-06-05T08:38:48Z</time>
      </trkpt>
      <trkpt lat="45.98418" lon="4.71575">
        <ele>197</ele>
        <time>2018-06-05T08:38:49Z</time>
      </trkpt>
      <trkpt lat="45.98423" lon="4.7157">
        <ele>197</ele>
        <time>2018-06-05T08:38:50Z</time>
      </trkpt>
      <trkpt lat="45.98427" lon="4.71564">
        <ele>197</ele>
        <time>2018-06-05T08:38:51Z</time>
      </trkpt>
      <trkpt lat="45.98433" lon="4.71559">
        <ele>197</ele>
        <time>2018-06-05T08:38:52Z</time>
      </trkpt>
      <trkpt lat="45.98437" lon="4.71554">
        <ele>197</ele>
        <time>2018-06-05T08:38:53Z</time>
      </trkpt>
      <trkpt lat="45.98443" lon="4.71551">
        <ele>197</ele>
        <time>2018-06-05T08:38:54Z</time>
      </trkpt>
      <trkpt lat="45.98448" lon="4.71548">
        <ele>197</ele>
        <time>2018-06-05T08:38:55Z</time>
      </trkpt>
      <trkpt lat="45.98454" lon="4.71543">
        <ele>197</ele>
        <time>2018-06-05T08:38:56Z</time>
      </trkpt>
      <trkpt lat="45.98459" lon="4.71538">
        <ele>197</ele>
        <time>2018-06-05T08:38:57Z</time>
      </trkpt>
      <trkpt lat="45.98464" lon="4.71534">
        <ele>197</ele>
        <time>2018-06-05T08:38:58Z</time>
      </trkpt>
      <trkpt lat="45.98468" lon="4.71538">
        <ele>197</ele>
        <time>2018-06-05T08:38:59Z</time>
      </trkpt>
      <trkpt lat="45.98476" lon="4.7154">
        <ele>196</ele>
        <time>2018-06-05T08:39:02Z</time>
      </trkpt>
      <trkpt lat="45.98478" lon="4.71541">
        <ele>196</ele>
        <time>2018-06-05T08:39:03Z</time>
      </trkpt>
      <trkpt lat="45.98486" lon="4.71539">
        <ele>196</ele>
        <time>2018-06-05T08:39:07Z</time>
      </trkpt>
      <trkpt lat="45.98487" lon="4.71537">
        <ele>196</ele>
        <time>2018-06-05T08:39:08Z</time>
      </trkpt>
      <trkpt lat="45.98492" lon="4.71527">
        <ele>196</ele>
        <time>2018-06-05T08:39:27Z</time>
      </trkpt>
      <trkpt lat="45.98494" lon="4.71526">
        <ele>196</ele>
        <time>2018-06-05T08:39:28Z</time>
      </trkpt>
      <trkpt lat="45.98497" lon="4.71526">
        <ele>196</ele>
        <time>2018-06-05T08:39:29Z</time>
      </trkpt>
      <trkpt lat="45.98505" lon="4.71525">
        <ele>195</ele>
        <time>2018-06-05T08:39:30Z</time>
      </trkpt>
      <trkpt lat="45.98513" lon="4.71525">
        <ele>195</ele>
        <time>2018-06-05T08:39:32Z</time>
      </trkpt>
      <trkpt lat="45.98519" lon="4.71523">
        <ele>194</ele>
        <time>2018-06-05T08:39:33Z</time>
      </trkpt>
      <trkpt lat="45.98524" lon="4.71521">
        <ele>194</ele>
        <time>2018-06-05T08:39:34Z</time>
      </trkpt>
      <trkpt lat="45.9853" lon="4.71517">
        <ele>194</ele>
        <time>2018-06-05T08:39:35Z</time>
      </trkpt>
      <trkpt lat="45.98535" lon="4.71517">
        <ele>194</ele>
        <time>2018-06-05T08:39:36Z</time>
      </trkpt>
      <trkpt lat="45.98541" lon="4.71516">
        <ele>194</ele>
        <time>2018-06-05T08:39:37Z</time>
      </trkpt>
      <trkpt lat="45.98548" lon="4.71515">
        <ele>194</ele>
        <time>2018-06-05T08:39:38Z</time>
      </trkpt>
      <trkpt lat="45.98553" lon="4.71514">
        <ele>194</ele>
        <time>2018-06-05T08:39:39Z</time>
      </trkpt>
      <trkpt lat="45.9856" lon="4.71513">
        <ele>194</ele>
        <time>2018-06-05T08:39:40Z</time>
      </trkpt>
      <trkpt lat="45.98566" lon="4.71512">
        <ele>193</ele>
        <time>2018-06-05T08:39:41Z</time>
      </trkpt>
      <trkpt lat="45.98574" lon="4.71512">
        <ele>193</ele>
        <time>2018-06-05T08:39:42Z</time>
      </trkpt>
      <trkpt lat="45.9858" lon="4.71511">
        <ele>193</ele>
        <time>2018-06-05T08:39:43Z</time>
      </trkpt>
      <trkpt lat="45.98588" lon="4.71514">
        <ele>192</ele>
        <time>2018-06-05T08:39:44Z</time>
      </trkpt>
      <trkpt lat="45.98593" lon="4.71514">
        <ele>192</ele>
        <time>2018-06-05T08:39:45Z</time>
      </trkpt>
      <trkpt lat="45.98599" lon="4.71515">
        <ele>192</ele>
        <time>2018-06-05T08:39:46Z</time>
      </trkpt>
      <trkpt lat="45.98607" lon="4.71511">
        <ele>191</ele>
        <time>2018-06-05T08:39:47Z</time>
      </trkpt>
      <trkpt lat="45.98614" lon="4.7151">
        <ele>191</ele>
        <time>2018-06-05T08:39:48Z</time>
      </trkpt>
      <trkpt lat="45.98622" lon="4.71508">
        <ele>191</ele>
        <time>2018-06-05T08:39:49Z</time>
      </trkpt>
      <trkpt lat="45.98628" lon="4.71507">
        <ele>191</ele>
        <time>2018-06-05T08:39:50Z</time>
      </trkpt>
      <trkpt lat="45.98636" lon="4.71505">
        <ele>191</ele>
        <time>2018-06-05T08:39:51Z</time>
      </trkpt>
      <trkpt lat="45.98645" lon="4.71511">
        <ele>190</ele>
        <time>2018-06-05T08:39:52Z</time>
      </trkpt>
      <trkpt lat="45.98652" lon="4.71503">
        <ele>190</ele>
        <time>2018-06-05T08:39:53Z</time>
      </trkpt>
      <trkpt lat="45.98659" lon="4.71501">
        <ele>190</ele>
        <time>2018-06-05T08:39:54Z</time>
      </trkpt>
      <trkpt lat="45.98665" lon="4.71499">
        <ele>189</ele>
        <time>2018-06-05T08:39:56Z</time>
      </trkpt>
      <trkpt lat="45.98667" lon="4.71497">
        <ele>189</ele>
        <time>2018-06-05T08:39:57Z</time>
      </trkpt>
      <trkpt lat="45.98663" lon="4.71487">
        <ele>190</ele>
        <time>2018-06-05T08:40:09Z</time>
      </trkpt>
      <trkpt lat="45.98662" lon="4.71486">
        <ele>190</ele>
        <time>2018-06-05T08:40:10Z</time>
      </trkpt>
      <trkpt lat="45.98669" lon="4.71492">
        <ele>188</ele>
        <time>2018-06-05T08:40:35Z</time>
      </trkpt>
      <trkpt lat="45.98671" lon="4.71493">
        <ele>188</ele>
        <time>2018-06-05T08:40:36Z</time>
      </trkpt>
      <trkpt lat="45.98679" lon="4.71496">
        <ele>188</ele>
        <time>2018-06-05T08:40:37Z</time>
      </trkpt>
      <trkpt lat="45.9868" lon="4.71496">
        <ele>188</ele>
        <time>2018-06-05T08:40:38Z</time>
      </trkpt>
      <trkpt lat="45.98691" lon="4.71498">
        <ele>187</ele>
        <time>2018-06-05T08:40:39Z</time>
      </trkpt>
      <trkpt lat="45.98697" lon="4.71498">
        <ele>187</ele>
        <time>2018-06-05T08:40:40Z</time>
      </trkpt>
      <trkpt lat="45.98703" lon="4.715">
        <ele>187</ele>
        <time>2018-06-05T08:40:41Z</time>
      </trkpt>
      <trkpt lat="45.98708" lon="4.71501">
        <ele>187</ele>
        <time>2018-06-05T08:40:42Z</time>
      </trkpt>
      <trkpt lat="45.98715" lon="4.71501">
        <ele>187</ele>
        <time>2018-06-05T08:40:43Z</time>
      </trkpt>
      <trkpt lat="45.98721" lon="4.71501">
        <ele>186</ele>
        <time>2018-06-05T08:40:44Z</time>
      </trkpt>
      <trkpt lat="45.98729" lon="4.71501">
        <ele>186</ele>
        <time>2018-06-05T08:40:45Z</time>
      </trkpt>
      <trkpt lat="45.98735" lon="4.71501">
        <ele>186</ele>
        <time>2018-06-05T08:40:46Z</time>
      </trkpt>
      <trkpt lat="45.98741" lon="4.71501">
        <ele>185</ele>
        <time>2018-06-05T08:40:47Z</time>
      </trkpt>
      <trkpt lat="45.98747" lon="4.71501">
        <ele>184</ele>
        <time>2018-06-05T08:40:48Z</time>
      </trkpt>
      <trkpt lat="45.98754" lon="4.71502">
        <ele>184</ele>
        <time>2018-06-05T08:40:49Z</time>
      </trkpt>
      <trkpt lat="45.98761" lon="4.715">
        <ele>184</ele>
        <time>2018-06-05T08:40:50Z</time>
      </trkpt>
      <trkpt lat="45.98766" lon="4.71499">
        <ele>184</ele>
        <time>2018-06-05T08:40:51Z</time>
      </trkpt>
      <trkpt lat="45.98774" lon="4.715">
        <ele>184</ele>
        <time>2018-06-05T08:40:52Z</time>
      </trkpt>
      <trkpt lat="45.98781" lon="4.71505">
        <ele>184</ele>
        <time>2018-06-05T08:40:53Z</time>
      </trkpt>
      <trkpt lat="45.98787" lon="4.71506">
        <ele>184</ele>
        <time>2018-06-05T08:40:54Z</time>
      </trkpt>
      <trkpt lat="45.98793" lon="4.71509">
        <ele>184</ele>
        <time>2018-06-05T08:40:55Z</time>
      </trkpt>
      <trkpt lat="45.988" lon="4.71512">
        <ele>184</ele>
        <time>2018-06-05T08:40:56Z</time>
      </trkpt>
      <trkpt lat="45.98806" lon="4.71513">
        <ele>184</ele>
        <time>2018-06-05T08:40:57Z</time>
      </trkpt>
      <trkpt lat="45.98812" lon="4.71514">
        <ele>184</ele>
        <time>2018-06-05T08:40:59Z</time>
      </trkpt>
      <trkpt lat="45.98815" lon="4.71514">
        <ele>184</ele>
        <time>2018-06-05T08:41:00Z</time>
      </trkpt>
      <trkpt lat="45.98821" lon="4.71514">
        <ele>184</ele>
        <time>2018-06-05T08:41:03Z</time>
      </trkpt>
      <trkpt lat="45.9883" lon="4.71512">
        <ele>184</ele>
        <time>2018-06-05T08:41:04Z</time>
      </trkpt>
      <trkpt lat="45.98834" lon="4.71512">
        <ele>184</ele>
        <time>2018-06-05T08:41:05Z</time>
      </trkpt>
      <trkpt lat="45.9884" lon="4.71511">
        <ele>184</ele>
        <time>2018-06-05T08:41:06Z</time>
      </trkpt>
      <trkpt lat="45.98845" lon="4.71511">
        <ele>184</ele>
        <time>2018-06-05T08:41:07Z</time>
      </trkpt>
      <trkpt lat="45.9885" lon="4.71512">
        <ele>185</ele>
        <time>2018-06-05T08:41:08Z</time>
      </trkpt>
      <trkpt lat="45.98856" lon="4.71513">
        <ele>185</ele>
        <time>2018-06-05T08:41:09Z</time>
      </trkpt>
      <trkpt lat="45.98863" lon="4.71514">
        <ele>185</ele>
        <time>2018-06-05T08:41:10Z</time>
      </trkpt>
      <trkpt lat="45.98868" lon="4.71514">
        <ele>185</ele>
        <time>2018-06-05T08:41:11Z</time>
      </trkpt>
      <trkpt lat="45.98873" lon="4.71516">
        <ele>185</ele>
        <time>2018-06-05T08:41:12Z</time>
      </trkpt>
      <trkpt lat="45.98879" lon="4.71516">
        <ele>185</ele>
        <time>2018-06-05T08:41:13Z</time>
      </trkpt>
      <trkpt lat="45.98886" lon="4.71517">
        <ele>185</ele>
        <time>2018-06-05T08:41:14Z</time>
      </trkpt>
      <trkpt lat="45.98891" lon="4.71517">
        <ele>185</ele>
        <time>2018-06-05T08:41:15Z</time>
      </trkpt>
      <trkpt lat="45.98896" lon="4.71518">
        <ele>185</ele>
        <time>2018-06-05T08:41:16Z</time>
      </trkpt>
      <trkpt lat="45.98904" lon="4.7152">
        <ele>185</ele>
        <time>2018-06-05T08:41:18Z</time>
      </trkpt>
      <trkpt lat="45.98909" lon="4.71522">
        <ele>185</ele>
        <time>2018-06-05T08:41:19Z</time>
      </trkpt>
      <trkpt lat="45.98914" lon="4.71525">
        <ele>185</ele>
        <time>2018-06-05T08:41:20Z</time>
      </trkpt>
      <trkpt lat="45.9892" lon="4.71526">
        <ele>186</ele>
        <time>2018-06-05T08:41:21Z</time>
      </trkpt>
      <trkpt lat="45.98925" lon="4.71526">
        <ele>186</ele>
        <time>2018-06-05T08:41:22Z</time>
      </trkpt>
      <trkpt lat="45.98932" lon="4.71524">
        <ele>186</ele>
        <time>2018-06-05T08:41:23Z</time>
      </trkpt>
      <trkpt lat="45.98938" lon="4.71524">
        <ele>186</ele>
        <time>2018-06-05T08:41:24Z</time>
      </trkpt>
      <trkpt lat="45.98944" lon="4.71525">
        <ele>186</ele>
        <time>2018-06-05T08:41:25Z</time>
      </trkpt>
      <trkpt lat="45.98948" lon="4.71526">
        <ele>186</ele>
        <time>2018-06-05T08:41:26Z</time>
      </trkpt>
      <trkpt lat="45.98953" lon="4.71529">
        <ele>186</ele>
        <time>2018-06-05T08:41:27Z</time>
      </trkpt>
      <trkpt lat="45.98959" lon="4.71529">
        <ele>186</ele>
        <time>2018-06-05T08:41:28Z</time>
      </trkpt>
      <trkpt lat="45.98964" lon="4.71528">
        <ele>186</ele>
        <time>2018-06-05T08:41:29Z</time>
      </trkpt>
      <trkpt lat="45.98969" lon="4.71528">
        <ele>186</ele>
        <time>2018-06-05T08:41:30Z</time>
      </trkpt>
      <trkpt lat="45.98974" lon="4.71527">
        <ele>186</ele>
        <time>2018-06-05T08:41:31Z</time>
      </trkpt>
      <trkpt lat="45.98979" lon="4.71527">
        <ele>186</ele>
        <time>2018-06-05T08:41:32Z</time>
      </trkpt>
      <trkpt lat="45.98985" lon="4.71525">
        <ele>186</ele>
        <time>2018-06-05T08:41:33Z</time>
      </trkpt>
      <trkpt lat="45.98994" lon="4.71525">
        <ele>186</ele>
        <time>2018-06-05T08:41:35Z</time>
      </trkpt>
      <trkpt lat="45.98999" lon="4.71524">
        <ele>186</ele>
        <time>2018-06-05T08:41:36Z</time>
      </trkpt>
      <trkpt lat="45.99008" lon="4.71522">
        <ele>188</ele>
        <time>2018-06-05T08:41:38Z</time>
      </trkpt>
      <trkpt lat="45.99012" lon="4.71522">
        <ele>188</ele>
        <time>2018-06-05T08:41:39Z</time>
      </trkpt>
      <trkpt lat="45.99018" lon="4.7152">
        <ele>188</ele>
        <time>2018-06-05T08:41:40Z</time>
      </trkpt>
      <trkpt lat="45.99023" lon="4.71519">
        <ele>188</ele>
        <time>2018-06-05T08:41:41Z</time>
      </trkpt>
      <trkpt lat="45.99029" lon="4.71519">
        <ele>188</ele>
        <time>2018-06-05T08:41:42Z</time>
      </trkpt>
      <trkpt lat="45.99033" lon="4.71519">
        <ele>188</ele>
        <time>2018-06-05T08:41:43Z</time>
      </trkpt>
      <trkpt lat="45.99041" lon="4.71521">
        <ele>188</ele>
        <time>2018-06-05T08:41:45Z</time>
      </trkpt>
      <trkpt lat="45.99043" lon="4.71521">
        <ele>189</ele>
        <time>2018-06-05T08:41:46Z</time>
      </trkpt>
      <trkpt lat="45.99051" lon="4.71519">
        <ele>189</ele>
        <time>2018-06-05T08:41:49Z</time>
      </trkpt>
      <trkpt lat="45.9906" lon="4.71519">
        <ele>189</ele>
        <time>2018-06-05T08:41:50Z</time>
      </trkpt>
      <trkpt lat="45.99068" lon="4.71519">
        <ele>189</ele>
        <time>2018-06-05T08:41:52Z</time>
      </trkpt>
      <trkpt lat="45.99072" lon="4.71519">
        <ele>189</ele>
        <time>2018-06-05T08:41:53Z</time>
      </trkpt>
      <trkpt lat="45.99078" lon="4.71518">
        <ele>189</ele>
        <time>2018-06-05T08:41:56Z</time>
      </trkpt>
      <trkpt lat="45.99084" lon="4.71518">
        <ele>191</ele>
        <time>2018-06-05T08:41:57Z</time>
      </trkpt>
      <trkpt lat="45.99091" lon="4.71519">
        <ele>191</ele>
        <time>2018-06-05T08:42:00Z</time>
      </trkpt>
      <trkpt lat="45.99094" lon="4.71519">
        <ele>191</ele>
        <time>2018-06-05T08:42:01Z</time>
      </trkpt>
      <trkpt lat="45.99102" lon="4.71518">
        <ele>191</ele>
        <time>2018-06-05T08:42:04Z</time>
      </trkpt>
      <trkpt lat="45.99105" lon="4.71518">
        <ele>191</ele>
        <time>2018-06-05T08:42:05Z</time>
      </trkpt>
      <trkpt lat="45.99113" lon="4.71518">
        <ele>191</ele>
        <time>2018-06-05T08:42:08Z</time>
      </trkpt>
      <trkpt lat="45.99115" lon="4.71518">
        <ele>191</ele>
        <time>2018-06-05T08:42:09Z</time>
      </trkpt>
      <trkpt lat="45.99123" lon="4.71518">
        <ele>192</ele>
        <time>2018-06-05T08:42:13Z</time>
      </trkpt>
      <trkpt lat="45.99125" lon="4.71518">
        <ele>192</ele>
        <time>2018-06-05T08:42:14Z</time>
      </trkpt>
      <trkpt lat="45.9913" lon="4.71519">
        <ele>192</ele>
        <time>2018-06-05T08:42:17Z</time>
      </trkpt>
      <trkpt lat="45.99131" lon="4.71519">
        <ele>192</ele>
        <time>2018-06-05T08:42:18Z</time>
      </trkpt>
      <trkpt lat="45.99133" lon="4.71519">
        <ele>192</ele>
        <time>2018-06-05T08:42:33Z</time>
      </trkpt>
      <trkpt lat="45.99133" lon="4.71519">
        <ele>192</ele>
        <time>2018-06-05T08:42:34Z</time>
      </trkpt>
      <trkpt lat="45.9914" lon="4.71518">
        <ele>192</ele>
        <time>2018-06-05T08:42:41Z</time>
      </trkpt>
      <trkpt lat="45.99142" lon="4.71518">
        <ele>192</ele>
        <time>2018-06-05T08:42:42Z</time>
      </trkpt>
      <trkpt lat="45.9915" lon="4.71517">
        <ele>192</ele>
        <time>2018-06-05T08:42:45Z</time>
      </trkpt>
      <trkpt lat="45.99152" lon="4.71518">
        <ele>192</ele>
        <time>2018-06-05T08:42:46Z</time>
      </trkpt>
      <trkpt lat="45.99161" lon="4.71519">
        <ele>192</ele>
        <time>2018-06-05T08:42:49Z</time>
      </trkpt>
      <trkpt lat="45.99164" lon="4.7152">
        <ele>192</ele>
        <time>2018-06-05T08:42:50Z</time>
      </trkpt>
      <trkpt lat="45.99172" lon="4.71521">
        <ele>194</ele>
        <time>2018-06-05T08:42:53Z</time>
      </trkpt>
      <trkpt lat="45.99176" lon="4.71521">
        <ele>194</ele>
        <time>2018-06-05T08:42:54Z</time>
      </trkpt>
      <trkpt lat="45.99183" lon="4.7152">
        <ele>194</ele>
        <time>2018-06-05T08:42:57Z</time>
      </trkpt>
      <trkpt lat="45.99185" lon="4.71519">
        <ele>194</ele>
        <time>2018-06-05T08:42:58Z</time>
      </trkpt>
      <trkpt lat="45.99192" lon="4.71516">
        <ele>195</ele>
        <time>2018-06-05T08:43:02Z</time>
      </trkpt>
      <trkpt lat="45.99194" lon="4.71516">
        <ele>195</ele>
        <time>2018-06-05T08:43:03Z</time>
      </trkpt>
      <trkpt lat="45.99202" lon="4.71516">
        <ele>195</ele>
        <time>2018-06-05T08:43:06Z</time>
      </trkpt>
      <trkpt lat="45.99205" lon="4.71517">
        <ele>195</ele>
        <time>2018-06-05T08:43:07Z</time>
      </trkpt>
      <trkpt lat="45.99217" lon="4.71516">
        <ele>195</ele>
        <time>2018-06-05T08:43:08Z</time>
      </trkpt>
      <trkpt lat="45.99223" lon="4.71517">
        <ele>195</ele>
        <time>2018-06-05T08:43:09Z</time>
      </trkpt>
      <trkpt lat="45.99227" lon="4.71518">
        <ele>196</ele>
        <time>2018-06-05T08:43:10Z</time>
      </trkpt>
      <trkpt lat="45.99234" lon="4.71516">
        <ele>196</ele>
        <time>2018-06-05T08:43:13Z</time>
      </trkpt>
      <trkpt lat="45.99244" lon="4.71517">
        <ele>196</ele>
        <time>2018-06-05T08:43:14Z</time>
      </trkpt>
      <trkpt lat="45.99249" lon="4.71518">
        <ele>196</ele>
        <time>2018-06-05T08:43:15Z</time>
      </trkpt>
      <trkpt lat="45.99255" lon="4.71518">
        <ele>198</ele>
        <time>2018-06-05T08:43:16Z</time>
      </trkpt>
      <trkpt lat="45.9926" lon="4.71517">
        <ele>198</ele>
        <time>2018-06-05T08:43:17Z</time>
      </trkpt>
      <trkpt lat="45.99266" lon="4.71519">
        <ele>198</ele>
        <time>2018-06-05T08:43:18Z</time>
      </trkpt>
      <trkpt lat="45.99273" lon="4.7152">
        <ele>198</ele>
        <time>2018-06-05T08:43:19Z</time>
      </trkpt>
      <trkpt lat="45.9928" lon="4.71519">
        <ele>199</ele>
        <time>2018-06-05T08:43:20Z</time>
      </trkpt>
      <trkpt lat="45.99288" lon="4.71519">
        <ele>199</ele>
        <time>2018-06-05T08:43:22Z</time>
      </trkpt>
      <trkpt lat="45.99292" lon="4.71519">
        <ele>199</ele>
        <time>2018-06-05T08:43:23Z</time>
      </trkpt>
      <trkpt lat="45.993" lon="4.71518">
        <ele>199</ele>
        <time>2018-06-05T08:43:25Z</time>
      </trkpt>
      <trkpt lat="45.99304" lon="4.71518">
        <ele>199</ele>
        <time>2018-06-05T08:43:26Z</time>
      </trkpt>
      <trkpt lat="45.99309" lon="4.71519">
        <ele>199</ele>
        <time>2018-06-05T08:43:27Z</time>
      </trkpt>
      <trkpt lat="45.99313" lon="4.71516">
        <ele>199</ele>
        <time>2018-06-05T08:43:28Z</time>
      </trkpt>
      <trkpt lat="45.99321" lon="4.71518">
        <ele>200</ele>
        <time>2018-06-05T08:43:31Z</time>
      </trkpt>
      <trkpt lat="45.99326" lon="4.71518">
        <ele>200</ele>
        <time>2018-06-05T08:43:32Z</time>
      </trkpt>
      <trkpt lat="45.9933" lon="4.71517">
        <ele>200</ele>
        <time>2018-06-05T08:43:34Z</time>
      </trkpt>
      <trkpt lat="45.99338" lon="4.71518">
        <ele>200</ele>
        <time>2018-06-05T08:43:35Z</time>
      </trkpt>
      <trkpt lat="45.99346" lon="4.71518">
        <ele>200</ele>
        <time>2018-06-05T08:43:37Z</time>
      </trkpt>
      <trkpt lat="45.99348" lon="4.71518">
        <ele>200</ele>
        <time>2018-06-05T08:43:38Z</time>
      </trkpt>
      <trkpt lat="45.99354" lon="4.71517">
        <ele>200</ele>
        <time>2018-06-05T08:43:39Z</time>
      </trkpt>
      <trkpt lat="45.99358" lon="4.71517">
        <ele>200</ele>
        <time>2018-06-05T08:43:40Z</time>
      </trkpt>
      <trkpt lat="45.99364" lon="4.71516">
        <ele>200</ele>
        <time>2018-06-05T08:43:41Z</time>
      </trkpt>
      <trkpt lat="45.99368" lon="4.71516">
        <ele>200</ele>
        <time>2018-06-05T08:43:42Z</time>
      </trkpt>
      <trkpt lat="45.99376" lon="4.71516">
        <ele>200</ele>
        <time>2018-06-05T08:43:44Z</time>
      </trkpt>
      <trkpt lat="45.99381" lon="4.71517">
        <ele>200</ele>
        <time>2018-06-05T08:43:45Z</time>
      </trkpt>
      <trkpt lat="45.99386" lon="4.71517">
        <ele>200</ele>
        <time>2018-06-05T08:43:46Z</time>
      </trkpt>
      <trkpt lat="45.9939" lon="4.71518">
        <ele>200</ele>
        <time>2018-06-05T08:43:47Z</time>
      </trkpt>
      <trkpt lat="45.99395" lon="4.71518">
        <ele>200</ele>
        <time>2018-06-05T08:43:48Z</time>
      </trkpt>
      <trkpt lat="45.994" lon="4.71516">
        <ele>200</ele>
        <time>2018-06-05T08:43:49Z</time>
      </trkpt>
      <trkpt lat="45.99408" lon="4.71517">
        <ele>200</ele>
        <time>2018-06-05T08:43:51Z</time>
      </trkpt>
      <trkpt lat="45.99412" lon="4.71518">
        <ele>200</ele>
        <time>2018-06-05T08:43:52Z</time>
      </trkpt>
      <trkpt lat="45.99417" lon="4.71518">
        <ele>199</ele>
        <time>2018-06-05T08:43:53Z</time>
      </trkpt>
      <trkpt lat="45.99422" lon="4.71519">
        <ele>199</ele>
        <time>2018-06-05T08:43:54Z</time>
      </trkpt>
      <trkpt lat="45.99427" lon="4.71523">
        <ele>199</ele>
        <time>2018-06-05T08:43:55Z</time>
      </trkpt>
      <trkpt lat="45.99436" lon="4.71521">
        <ele>199</ele>
        <time>2018-06-05T08:43:56Z</time>
      </trkpt>
      <trkpt lat="45.99444" lon="4.7152">
        <ele>199</ele>
        <time>2018-06-05T08:43:58Z</time>
      </trkpt>
      <trkpt lat="45.99446" lon="4.71517">
        <ele>199</ele>
        <time>2018-06-05T08:43:59Z</time>
      </trkpt>
      <trkpt lat="45.99454" lon="4.71514">
        <ele>199</ele>
        <time>2018-06-05T08:44:01Z</time>
      </trkpt>
      <trkpt lat="45.99457" lon="4.71513">
        <ele>199</ele>
        <time>2018-06-05T08:44:02Z</time>
      </trkpt>
      <trkpt lat="45.99462" lon="4.71513">
        <ele>199</ele>
        <time>2018-06-05T08:44:03Z</time>
      </trkpt>
      <trkpt lat="45.99467" lon="4.71511">
        <ele>199</ele>
        <time>2018-06-05T08:44:04Z</time>
      </trkpt>
      <trkpt lat="45.99472" lon="4.71512">
        <ele>199</ele>
        <time>2018-06-05T08:44:05Z</time>
      </trkpt>
      <trkpt lat="45.99476" lon="4.71512">
        <ele>199</ele>
        <time>2018-06-05T08:44:06Z</time>
      </trkpt>
      <trkpt lat="45.99481" lon="4.71512">
        <ele>199</ele>
        <time>2018-06-05T08:44:07Z</time>
      </trkpt>
      <trkpt lat="45.99486" lon="4.71514">
        <ele>199</ele>
        <time>2018-06-05T08:44:08Z</time>
      </trkpt>
      <trkpt lat="45.99492" lon="4.71514">
        <ele>199</ele>
        <time>2018-06-05T08:44:09Z</time>
      </trkpt>
      <trkpt lat="45.99498" lon="4.71514">
        <ele>199</ele>
        <time>2018-06-05T08:44:10Z</time>
      </trkpt>
      <trkpt lat="45.99504" lon="4.71514">
        <ele>199</ele>
        <time>2018-06-05T08:44:11Z</time>
      </trkpt>
      <trkpt lat="45.9951" lon="4.71512">
        <ele>199</ele>
        <time>2018-06-05T08:44:12Z</time>
      </trkpt>
      <trkpt lat="45.99519" lon="4.71511">
        <ele>198</ele>
        <time>2018-06-05T08:44:14Z</time>
      </trkpt>
      <trkpt lat="45.99523" lon="4.7151">
        <ele>198</ele>
        <time>2018-06-05T08:44:15Z</time>
      </trkpt>
      <trkpt lat="45.99529" lon="4.71511">
        <ele>198</ele>
        <time>2018-06-05T08:44:16Z</time>
      </trkpt>
      <trkpt lat="45.99534" lon="4.7151">
        <ele>198</ele>
        <time>2018-06-05T08:44:17Z</time>
      </trkpt>
      <trkpt lat="45.99539" lon="4.71509">
        <ele>198</ele>
        <time>2018-06-05T08:44:18Z</time>
      </trkpt>
      <trkpt lat="45.99545" lon="4.71509">
        <ele>198</ele>
        <time>2018-06-05T08:44:19Z</time>
      </trkpt>
      <trkpt lat="45.99551" lon="4.71509">
        <ele>198</ele>
        <time>2018-06-05T08:44:20Z</time>
      </trkpt>
      <trkpt lat="45.99555" lon="4.71509">
        <ele>198</ele>
        <time>2018-06-05T08:44:21Z</time>
      </trkpt>
      <trkpt lat="45.99564" lon="4.71508">
        <ele>197</ele>
        <time>2018-06-05T08:44:22Z</time>
      </trkpt>
      <trkpt lat="45.9957" lon="4.71509">
        <ele>197</ele>
        <time>2018-06-05T08:44:23Z</time>
      </trkpt>
      <trkpt lat="45.99578" lon="4.71507">
        <ele>197</ele>
        <time>2018-06-05T08:44:25Z</time>
      </trkpt>
      <trkpt lat="45.99579" lon="4.71509">
        <ele>197</ele>
        <time>2018-06-05T08:44:26Z</time>
      </trkpt>
      <trkpt lat="45.99582" lon="4.71519">
        <ele>197</ele>
        <time>2018-06-05T08:44:30Z</time>
      </trkpt>
      <trkpt lat="45.99583" lon="4.71522">
        <ele>197</ele>
        <time>2018-06-05T08:44:31Z</time>
      </trkpt>
      <trkpt lat="45.99584" lon="4.71525">
        <ele>197</ele>
        <time>2018-06-05T08:44:32Z</time>
      </trkpt>
      <trkpt lat="45.9959" lon="4.71538">
        <ele>198</ele>
        <time>2018-06-05T08:44:33Z</time>
      </trkpt>
      <trkpt lat="45.99597" lon="4.71541">
        <ele>198</ele>
        <time>2018-06-05T08:44:35Z</time>
      </trkpt>
      <trkpt lat="45.99601" lon="4.71541">
        <ele>198</ele>
        <time>2018-06-05T08:44:36Z</time>
      </trkpt>
      <trkpt lat="45.99608" lon="4.71539">
        <ele>198</ele>
        <time>2018-06-05T08:44:38Z</time>
      </trkpt>
      <trkpt lat="45.99612" lon="4.71536">
        <ele>198</ele>
        <time>2018-06-05T08:44:39Z</time>
      </trkpt>
      <trkpt lat="45.99613" lon="4.71526">
        <ele>197</ele>
        <time>2018-06-05T08:44:40Z</time>
      </trkpt>
      <trkpt lat="45.99613" lon="4.71517">
        <ele>197</ele>
        <time>2018-06-05T08:44:41Z</time>
      </trkpt>
      <trkpt lat="45.99615" lon="4.7151">
        <ele>197</ele>
        <time>2018-06-05T08:44:42Z</time>
      </trkpt>
      <trkpt lat="45.99614" lon="4.71503">
        <ele>197</ele>
        <time>2018-06-05T08:44:43Z</time>
      </trkpt>
      <trkpt lat="45.99612" lon="4.71495">
        <ele>197</ele>
        <time>2018-06-05T08:44:44Z</time>
      </trkpt>
      <trkpt lat="45.99612" lon="4.71488">
        <ele>197</ele>
        <time>2018-06-05T08:44:45Z</time>
      </trkpt>
      <trkpt lat="45.99614" lon="4.7148">
        <ele>197</ele>
        <time>2018-06-05T08:44:46Z</time>
      </trkpt>
      <trkpt lat="45.99616" lon="4.71471">
        <ele>197</ele>
        <time>2018-06-05T08:44:47Z</time>
      </trkpt>
      <trkpt lat="45.9962" lon="4.71466">
        <ele>197</ele>
        <time>2018-06-05T08:44:48Z</time>
      </trkpt>
      <trkpt lat="45.99623" lon="4.7146">
        <ele>197</ele>
        <time>2018-06-05T08:44:49Z</time>
      </trkpt>
      <trkpt lat="45.99626" lon="4.71454">
        <ele>197</ele>
        <time>2018-06-05T08:44:50Z</time>
      </trkpt>
      <trkpt lat="45.99631" lon="4.71447">
        <ele>197</ele>
        <time>2018-06-05T08:44:51Z</time>
      </trkpt>
      <trkpt lat="45.99635" lon="4.71441">
        <ele>197</ele>
        <time>2018-06-05T08:44:52Z</time>
      </trkpt>
      <trkpt lat="45.99637" lon="4.71434">
        <ele>197</ele>
        <time>2018-06-05T08:44:53Z</time>
      </trkpt>
      <trkpt lat="45.99641" lon="4.71429">
        <ele>197</ele>
        <time>2018-06-05T08:44:54Z</time>
      </trkpt>
      <trkpt lat="45.99645" lon="4.71424">
        <ele>197</ele>
        <time>2018-06-05T08:44:55Z</time>
      </trkpt>
      <trkpt lat="45.99648" lon="4.71418">
        <ele>197</ele>
        <time>2018-06-05T08:44:56Z</time>
      </trkpt>
      <trkpt lat="45.99651" lon="4.7141">
        <ele>198</ele>
        <time>2018-06-05T08:44:57Z</time>
      </trkpt>
      <trkpt lat="45.99653" lon="4.71406">
        <ele>198</ele>
        <time>2018-06-05T08:44:58Z</time>
      </trkpt>
      <trkpt lat="45.99657" lon="4.714">
        <ele>198</ele>
        <time>2018-06-05T08:44:59Z</time>
      </trkpt>
      <trkpt lat="45.99661" lon="4.71393">
        <ele>198</ele>
        <time>2018-06-05T08:45:00Z</time>
      </trkpt>
      <trkpt lat="45.99665" lon="4.71385">
        <ele>198</ele>
        <time>2018-06-05T08:45:01Z</time>
      </trkpt>
      <trkpt lat="45.99668" lon="4.71379">
        <ele>198</ele>
        <time>2018-06-05T08:45:02Z</time>
      </trkpt>
      <trkpt lat="45.99672" lon="4.71373">
        <ele>197</ele>
        <time>2018-06-05T08:45:03Z</time>
      </trkpt>
      <trkpt lat="45.99673" lon="4.71368">
        <ele>197</ele>
        <time>2018-06-05T08:45:04Z</time>
      </trkpt>
      <trkpt lat="45.99676" lon="4.71361">
        <ele>197</ele>
        <time>2018-06-05T08:45:05Z</time>
      </trkpt>
      <trkpt lat="45.9968" lon="4.71354">
        <ele>197</ele>
        <time>2018-06-05T08:45:06Z</time>
      </trkpt>
      <trkpt lat="45.99684" lon="4.7135">
        <ele>197</ele>
        <time>2018-06-05T08:45:07Z</time>
      </trkpt>
      <trkpt lat="45.99687" lon="4.71345">
        <ele>197</ele>
        <time>2018-06-05T08:45:08Z</time>
      </trkpt>
      <trkpt lat="45.99691" lon="4.71339">
        <ele>197</ele>
        <time>2018-06-05T08:45:09Z</time>
      </trkpt>
      <trkpt lat="45.99693" lon="4.71331">
        <ele>197</ele>
        <time>2018-06-05T08:45:10Z</time>
      </trkpt>
      <trkpt lat="45.99696" lon="4.71324">
        <ele>198</ele>
        <time>2018-06-05T08:45:11Z</time>
      </trkpt>
      <trkpt lat="45.99699" lon="4.71317">
        <ele>198</ele>
        <time>2018-06-05T08:45:12Z</time>
      </trkpt>
      <trkpt lat="45.99701" lon="4.7131">
        <ele>198</ele>
        <time>2018-06-05T08:45:13Z</time>
      </trkpt>
      <trkpt lat="45.99703" lon="4.71304">
        <ele>198</ele>
        <time>2018-06-05T08:45:14Z</time>
      </trkpt>
      <trkpt lat="45.9971" lon="4.7129">
        <ele>198</ele>
        <time>2018-06-05T08:45:15Z</time>
      </trkpt>
      <trkpt lat="45.99713" lon="4.71285">
        <ele>198</ele>
        <time>2018-06-05T08:45:16Z</time>
      </trkpt>
      <trkpt lat="45.99716" lon="4.71277">
        <ele>198</ele>
        <time>2018-06-05T08:45:17Z</time>
      </trkpt>
      <trkpt lat="45.99719" lon="4.71271">
        <ele>198</ele>
        <time>2018-06-05T08:45:18Z</time>
      </trkpt>
      <trkpt lat="45.99722" lon="4.71265">
        <ele>198</ele>
        <time>2018-06-05T08:45:19Z</time>
      </trkpt>
      <trkpt lat="45.99729" lon="4.71258">
        <ele>198</ele>
        <time>2018-06-05T08:45:20Z</time>
      </trkpt>
      <trkpt lat="45.9973" lon="4.71254">
        <ele>198</ele>
        <time>2018-06-05T08:45:21Z</time>
      </trkpt>
      <trkpt lat="45.99733" lon="4.71248">
        <ele>198</ele>
        <time>2018-06-05T08:45:22Z</time>
      </trkpt>
      <trkpt lat="45.99736" lon="4.71239">
        <ele>198</ele>
        <time>2018-06-05T08:45:23Z</time>
      </trkpt>
      <trkpt lat="45.9974" lon="4.71233">
        <ele>198</ele>
        <time>2018-06-05T08:45:24Z</time>
      </trkpt>
      <trkpt lat="45.99742" lon="4.71227">
        <ele>198</ele>
        <time>2018-06-05T08:45:25Z</time>
      </trkpt>
      <trkpt lat="45.99746" lon="4.71222">
        <ele>198</ele>
        <time>2018-06-05T08:45:26Z</time>
      </trkpt>
      <trkpt lat="45.99748" lon="4.71215">
        <ele>198</ele>
        <time>2018-06-05T08:45:27Z</time>
      </trkpt>
      <trkpt lat="45.99751" lon="4.71209">
        <ele>199</ele>
        <time>2018-06-05T08:45:28Z</time>
      </trkpt>
      <trkpt lat="45.99753" lon="4.71202">
        <ele>198</ele>
        <time>2018-06-05T08:45:29Z</time>
      </trkpt>
      <trkpt lat="45.99757" lon="4.71197">
        <ele>198</ele>
        <time>2018-06-05T08:45:30Z</time>
      </trkpt>
      <trkpt lat="45.9976" lon="4.7119">
        <ele>198</ele>
        <time>2018-06-05T08:45:31Z</time>
      </trkpt>
      <trkpt lat="45.99762" lon="4.71186">
        <ele>198</ele>
        <time>2018-06-05T08:45:32Z</time>
      </trkpt>
      <trkpt lat="45.99765" lon="4.7118">
        <ele>198</ele>
        <time>2018-06-05T08:45:33Z</time>
      </trkpt>
      <trkpt lat="45.99771" lon="4.71171">
        <ele>198</ele>
        <time>2018-06-05T08:45:36Z</time>
      </trkpt>
      <trkpt lat="45.99776" lon="4.71163">
        <ele>198</ele>
        <time>2018-06-05T08:45:37Z</time>
      </trkpt>
      <trkpt lat="45.99782" lon="4.71156">
        <ele>198</ele>
        <time>2018-06-05T08:45:41Z</time>
      </trkpt>
      <trkpt lat="45.99783" lon="4.71154">
        <ele>198</ele>
        <time>2018-06-05T08:45:42Z</time>
      </trkpt>
      <trkpt lat="45.99787" lon="4.71145">
        <ele>198</ele>
        <time>2018-06-05T08:45:56Z</time>
      </trkpt>
      <trkpt lat="45.99788" lon="4.71143">
        <ele>198</ele>
        <time>2018-06-05T08:45:57Z</time>
      </trkpt>
      <trkpt lat="45.99793" lon="4.71135">
        <ele>198</ele>
        <time>2018-06-05T08:46:00Z</time>
      </trkpt>
      <trkpt lat="45.99794" lon="4.71131">
        <ele>198</ele>
        <time>2018-06-05T08:46:01Z</time>
      </trkpt>
      <trkpt lat="45.99796" lon="4.71128">
        <ele>198</ele>
        <time>2018-06-05T08:46:02Z</time>
      </trkpt>
      <trkpt lat="45.998" lon="4.71116">
        <ele>198</ele>
        <time>2018-06-05T08:46:03Z</time>
      </trkpt>
      <trkpt lat="45.99802" lon="4.7111">
        <ele>198</ele>
        <time>2018-06-05T08:46:04Z</time>
      </trkpt>
      <trkpt lat="45.99804" lon="4.71103">
        <ele>198</ele>
        <time>2018-06-05T08:46:05Z</time>
      </trkpt>
      <trkpt lat="45.99804" lon="4.71092">
        <ele>198</ele>
        <time>2018-06-05T08:46:07Z</time>
      </trkpt>
      <trkpt lat="45.99805" lon="4.71085">
        <ele>198</ele>
        <time>2018-06-05T08:46:08Z</time>
      </trkpt>
      <trkpt lat="45.99806" lon="4.71078">
        <ele>199</ele>
        <time>2018-06-05T08:46:09Z</time>
      </trkpt>
      <trkpt lat="45.99806" lon="4.71072">
        <ele>199</ele>
        <time>2018-06-05T08:46:10Z</time>
      </trkpt>
      <trkpt lat="45.99808" lon="4.71064">
        <ele>199</ele>
        <time>2018-06-05T08:46:11Z</time>
      </trkpt>
      <trkpt lat="45.99808" lon="4.71057">
        <ele>199</ele>
        <time>2018-06-05T08:46:12Z</time>
      </trkpt>
      <trkpt lat="45.99809" lon="4.7105">
        <ele>199</ele>
        <time>2018-06-05T08:46:13Z</time>
      </trkpt>
      <trkpt lat="45.99811" lon="4.71043">
        <ele>199</ele>
        <time>2018-06-05T08:46:14Z</time>
      </trkpt>
      <trkpt lat="45.99812" lon="4.71036">
        <ele>199</ele>
        <time>2018-06-05T08:46:15Z</time>
      </trkpt>
      <trkpt lat="45.99814" lon="4.71029">
        <ele>199</ele>
        <time>2018-06-05T08:46:16Z</time>
      </trkpt>
      <trkpt lat="45.99816" lon="4.71018">
        <ele>199</ele>
        <time>2018-06-05T08:46:17Z</time>
      </trkpt>
      <trkpt lat="45.99817" lon="4.71011">
        <ele>200</ele>
        <time>2018-06-05T08:46:18Z</time>
      </trkpt>
      <trkpt lat="45.99817" lon="4.71004">
        <ele>200</ele>
        <time>2018-06-05T08:46:19Z</time>
      </trkpt>
      <trkpt lat="45.99817" lon="4.70997">
        <ele>200</ele>
        <time>2018-06-05T08:46:20Z</time>
      </trkpt>
      <trkpt lat="45.9982" lon="4.7099">
        <ele>200</ele>
        <time>2018-06-05T08:46:21Z</time>
      </trkpt>
      <trkpt lat="45.99822" lon="4.70984">
        <ele>200</ele>
        <time>2018-06-05T08:46:22Z</time>
      </trkpt>
      <trkpt lat="45.99823" lon="4.70971">
        <ele>200</ele>
        <time>2018-06-05T08:46:24Z</time>
      </trkpt>
      <trkpt lat="45.99824" lon="4.70965">
        <ele>200</ele>
        <time>2018-06-05T08:46:25Z</time>
      </trkpt>
      <trkpt lat="45.99828" lon="4.70955">
        <ele>199</ele>
        <time>2018-06-05T08:46:27Z</time>
      </trkpt>
      <trkpt lat="45.99829" lon="4.70944">
        <ele>199</ele>
        <time>2018-06-05T08:46:28Z</time>
      </trkpt>
      <trkpt lat="45.99829" lon="4.70937">
        <ele>199</ele>
        <time>2018-06-05T08:46:29Z</time>
      </trkpt>
      <trkpt lat="45.99831" lon="4.70929">
        <ele>199</ele>
        <time>2018-06-05T08:46:30Z</time>
      </trkpt>
      <trkpt lat="45.99833" lon="4.7092">
        <ele>199</ele>
        <time>2018-06-05T08:46:31Z</time>
      </trkpt>
      <trkpt lat="45.99835" lon="4.70911">
        <ele>199</ele>
        <time>2018-06-05T08:46:32Z</time>
      </trkpt>
      <trkpt lat="45.99836" lon="4.70904">
        <ele>199</ele>
        <time>2018-06-05T08:46:33Z</time>
      </trkpt>
      <trkpt lat="45.99838" lon="4.70897">
        <ele>199</ele>
        <time>2018-06-05T08:46:34Z</time>
      </trkpt>
      <trkpt lat="45.99839" lon="4.70888">
        <ele>199</ele>
        <time>2018-06-05T08:46:35Z</time>
      </trkpt>
      <trkpt lat="45.99843" lon="4.70878">
        <ele>200</ele>
        <time>2018-06-05T08:46:36Z</time>
      </trkpt>
      <trkpt lat="45.99845" lon="4.70869">
        <ele>200</ele>
        <time>2018-06-05T08:46:37Z</time>
      </trkpt>
      <trkpt lat="45.99847" lon="4.70862">
        <ele>200</ele>
        <time>2018-06-05T08:46:38Z</time>
      </trkpt>
      <trkpt lat="45.99848" lon="4.70853">
        <ele>200</ele>
        <time>2018-06-05T08:46:39Z</time>
      </trkpt>
      <trkpt lat="45.99849" lon="4.70845">
        <ele>201</ele>
        <time>2018-06-05T08:46:40Z</time>
      </trkpt>
      <trkpt lat="45.99852" lon="4.70834">
        <ele>201</ele>
        <time>2018-06-05T08:46:42Z</time>
      </trkpt>
      <trkpt lat="45.99853" lon="4.70825">
        <ele>201</ele>
        <time>2018-06-05T08:46:43Z</time>
      </trkpt>
      <trkpt lat="45.99856" lon="4.70817">
        <ele>201</ele>
        <time>2018-06-05T08:46:44Z</time>
      </trkpt>
      <trkpt lat="45.99858" lon="4.70805">
        <ele>201</ele>
        <time>2018-06-05T08:46:45Z</time>
      </trkpt>
      <trkpt lat="45.9986" lon="4.70793">
        <ele>200</ele>
        <time>2018-06-05T08:46:47Z</time>
      </trkpt>
      <trkpt lat="45.99862" lon="4.70784">
        <ele>200</ele>
        <time>2018-06-05T08:46:48Z</time>
      </trkpt>
      <trkpt lat="45.99862" lon="4.70776">
        <ele>200</ele>
        <time>2018-06-05T08:46:49Z</time>
      </trkpt>
      <trkpt lat="45.99864" lon="4.70769">
        <ele>200</ele>
        <time>2018-06-05T08:46:50Z</time>
      </trkpt>
      <trkpt lat="45.99864" lon="4.70762">
        <ele>200</ele>
        <time>2018-06-05T08:46:51Z</time>
      </trkpt>
      <trkpt lat="45.99865" lon="4.70752">
        <ele>200</ele>
        <time>2018-06-05T08:46:52Z</time>
      </trkpt>
      <trkpt lat="45.99866" lon="4.70744">
        <ele>200</ele>
        <time>2018-06-05T08:46:53Z</time>
      </trkpt>
      <trkpt lat="45.99868" lon="4.70737">
        <ele>200</ele>
        <time>2018-06-05T08:46:54Z</time>
      </trkpt>
      <trkpt lat="45.99869" lon="4.7073">
        <ele>200</ele>
        <time>2018-06-05T08:46:55Z</time>
      </trkpt>
      <trkpt lat="45.99869" lon="4.70721">
        <ele>200</ele>
        <time>2018-06-05T08:46:56Z</time>
      </trkpt>
      <trkpt lat="45.99871" lon="4.70711">
        <ele>200</ele>
        <time>2018-06-05T08:46:57Z</time>
      </trkpt>
      <trkpt lat="45.99873" lon="4.70701">
        <ele>200</ele>
        <time>2018-06-05T08:46:58Z</time>
      </trkpt>
      <trkpt lat="45.99875" lon="4.70692">
        <ele>200</ele>
        <time>2018-06-05T08:46:59Z</time>
      </trkpt>
      <trkpt lat="45.99877" lon="4.70684">
        <ele>200</ele>
        <time>2018-06-05T08:47:00Z</time>
      </trkpt>
      <trkpt lat="45.99879" lon="4.70676">
        <ele>200</ele>
        <time>2018-06-05T08:47:01Z</time>
      </trkpt>
      <trkpt lat="45.9988" lon="4.70668">
        <ele>200</ele>
        <time>2018-06-05T08:47:02Z</time>
      </trkpt>
      <trkpt lat="45.99883" lon="4.70658">
        <ele>200</ele>
        <time>2018-06-05T08:47:03Z</time>
      </trkpt>
      <trkpt lat="45.99886" lon="4.70653">
        <ele>200</ele>
        <time>2018-06-05T08:47:04Z</time>
      </trkpt>
      <trkpt lat="45.99891" lon="4.70646">
        <ele>200</ele>
        <time>2018-06-05T08:47:05Z</time>
      </trkpt>
      <trkpt lat="45.99897" lon="4.70643">
        <ele>200</ele>
        <time>2018-06-05T08:47:06Z</time>
      </trkpt>
      <trkpt lat="45.99903" lon="4.70644">
        <ele>200</ele>
        <time>2018-06-05T08:47:07Z</time>
      </trkpt>
      <trkpt lat="45.99908" lon="4.70644">
        <ele>200</ele>
        <time>2018-06-05T08:47:08Z</time>
      </trkpt>
      <trkpt lat="45.99913" lon="4.70644">
        <ele>200</ele>
        <time>2018-06-05T08:47:09Z</time>
      </trkpt>
      <trkpt lat="45.99919" lon="4.70641">
        <ele>199</ele>
        <time>2018-06-05T08:47:10Z</time>
      </trkpt>
      <trkpt lat="45.99925" lon="4.70638">
        <ele>199</ele>
        <time>2018-06-05T08:47:11Z</time>
      </trkpt>
      <trkpt lat="45.99931" lon="4.70636">
        <ele>199</ele>
        <time>2018-06-05T08:47:12Z</time>
      </trkpt>
      <trkpt lat="45.99936" lon="4.70639">
        <ele>199</ele>
        <time>2018-06-05T08:47:13Z</time>
      </trkpt>
      <trkpt lat="45.99941" lon="4.70638">
        <ele>199</ele>
        <time>2018-06-05T08:47:14Z</time>
      </trkpt>
      <trkpt lat="45.9995" lon="4.7064">
        <ele>199</ele>
        <time>2018-06-05T08:47:16Z</time>
      </trkpt>
      <trkpt lat="45.99954" lon="4.70639">
        <ele>199</ele>
        <time>2018-06-05T08:47:17Z</time>
      </trkpt>
      <trkpt lat="45.99957" lon="4.7064">
        <ele>199</ele>
        <time>2018-06-05T08:47:19Z</time>
      </trkpt>
      <trkpt lat="45.99966" lon="4.70637">
        <ele>199</ele>
        <time>2018-06-05T08:47:20Z</time>
      </trkpt>
      <trkpt lat="45.99969" lon="4.70635">
        <ele>199</ele>
        <time>2018-06-05T08:47:21Z</time>
      </trkpt>
      <trkpt lat="45.99975" lon="4.70633">
        <ele>199</ele>
        <time>2018-06-05T08:47:22Z</time>
      </trkpt>
      <trkpt lat="45.99981" lon="4.70633">
        <ele>199</ele>
        <time>2018-06-05T08:47:23Z</time>
      </trkpt>
      <trkpt lat="45.99984" lon="4.70631">
        <ele>199</ele>
        <time>2018-06-05T08:47:24Z</time>
      </trkpt>
      <trkpt lat="45.9999" lon="4.70629">
        <ele>199</ele>
        <time>2018-06-05T08:47:25Z</time>
      </trkpt>
      <trkpt lat="45.99998" lon="4.70627">
        <ele>199</ele>
        <time>2018-06-05T08:47:26Z</time>
      </trkpt>
      <trkpt lat="46.00006" lon="4.70626">
        <ele>198</ele>
        <time>2018-06-05T08:47:28Z</time>
      </trkpt>
      <trkpt lat="46.0001" lon="4.70627">
        <ele>198</ele>
        <time>2018-06-05T08:47:29Z</time>
      </trkpt>
      <trkpt lat="46.00017" lon="4.70625">
        <ele>198</ele>
        <time>2018-06-05T08:47:30Z</time>
      </trkpt>
      <trkpt lat="46.00021" lon="4.70623">
        <ele>199</ele>
        <time>2018-06-05T08:47:31Z</time>
      </trkpt>
      <trkpt lat="46.0003" lon="4.70618">
        <ele>199</ele>
        <time>2018-06-05T08:47:32Z</time>
      </trkpt>
      <trkpt lat="46.00034" lon="4.70617">
        <ele>199</ele>
        <time>2018-06-05T08:47:33Z</time>
      </trkpt>
      <trkpt lat="46.0004" lon="4.70616">
        <ele>199</ele>
        <time>2018-06-05T08:47:34Z</time>
      </trkpt>
      <trkpt lat="46.00046" lon="4.70612">
        <ele>198</ele>
        <time>2018-06-05T08:47:35Z</time>
      </trkpt>
      <trkpt lat="46.00051" lon="4.70612">
        <ele>198</ele>
        <time>2018-06-05T08:47:36Z</time>
      </trkpt>
      <trkpt lat="46.00056" lon="4.70613">
        <ele>198</ele>
        <time>2018-06-05T08:47:37Z</time>
      </trkpt>
      <trkpt lat="46.00061" lon="4.70612">
        <ele>198</ele>
        <time>2018-06-05T08:47:38Z</time>
      </trkpt>
      <trkpt lat="46.00067" lon="4.70608">
        <ele>198</ele>
        <time>2018-06-05T08:47:39Z</time>
      </trkpt>
      <trkpt lat="46.00073" lon="4.70605">
        <ele>198</ele>
        <time>2018-06-05T08:47:40Z</time>
      </trkpt>
      <trkpt lat="46.00078" lon="4.70605">
        <ele>198</ele>
        <time>2018-06-05T08:47:41Z</time>
      </trkpt>
      <trkpt lat="46.00083" lon="4.70603">
        <ele>198</ele>
        <time>2018-06-05T08:47:42Z</time>
      </trkpt>
      <trkpt lat="46.00087" lon="4.70602">
        <ele>198</ele>
        <time>2018-06-05T08:47:43Z</time>
      </trkpt>
      <trkpt lat="46.00093" lon="4.706">
        <ele>198</ele>
        <time>2018-06-05T08:47:44Z</time>
      </trkpt>
      <trkpt lat="46.001" lon="4.70596">
        <ele>198</ele>
        <time>2018-06-05T08:47:45Z</time>
      </trkpt>
      <trkpt lat="46.00106" lon="4.7059">
        <ele>198</ele>
        <time>2018-06-05T08:47:46Z</time>
      </trkpt>
      <trkpt lat="46.00112" lon="4.70586">
        <ele>198</ele>
        <time>2018-06-05T08:47:47Z</time>
      </trkpt>
      <trkpt lat="46.00117" lon="4.70583">
        <ele>198</ele>
        <time>2018-06-05T08:47:48Z</time>
      </trkpt>
      <trkpt lat="46.00122" lon="4.70579">
        <ele>198</ele>
        <time>2018-06-05T08:47:49Z</time>
      </trkpt>
      <trkpt lat="46.0013" lon="4.70576">
        <ele>198</ele>
        <time>2018-06-05T08:47:50Z</time>
      </trkpt>
      <trkpt lat="46.00135" lon="4.70575">
        <ele>198</ele>
        <time>2018-06-05T08:47:51Z</time>
      </trkpt>
      <trkpt lat="46.0014" lon="4.70571">
        <ele>198</ele>
        <time>2018-06-05T08:47:52Z</time>
      </trkpt>
      <trkpt lat="46.00147" lon="4.70568">
        <ele>198</ele>
        <time>2018-06-05T08:47:53Z</time>
      </trkpt>
      <trkpt lat="46.0015" lon="4.70567">
        <ele>198</ele>
        <time>2018-06-05T08:47:54Z</time>
      </trkpt>
      <trkpt lat="46.00158" lon="4.70562">
        <ele>198</ele>
        <time>2018-06-05T08:47:56Z</time>
      </trkpt>
      <trkpt lat="46.00163" lon="4.70558">
        <ele>198</ele>
        <time>2018-06-05T08:47:57Z</time>
      </trkpt>
      <trkpt lat="46.00166" lon="4.70554">
        <ele>198</ele>
        <time>2018-06-05T08:47:58Z</time>
      </trkpt>
      <trkpt lat="46.00172" lon="4.70548">
        <ele>198</ele>
        <time>2018-06-05T08:47:59Z</time>
      </trkpt>
      <trkpt lat="46.00178" lon="4.70544">
        <ele>198</ele>
        <time>2018-06-05T08:48:00Z</time>
      </trkpt>
      <trkpt lat="46.00183" lon="4.70542">
        <ele>198</ele>
        <time>2018-06-05T08:48:01Z</time>
      </trkpt>
      <trkpt lat="46.00189" lon="4.70541">
        <ele>198</ele>
        <time>2018-06-05T08:48:02Z</time>
      </trkpt>
      <trkpt lat="46.00194" lon="4.7054">
        <ele>198</ele>
        <time>2018-06-05T08:48:03Z</time>
      </trkpt>
      <trkpt lat="46.002" lon="4.7054">
        <ele>198</ele>
        <time>2018-06-05T08:48:04Z</time>
      </trkpt>
      <trkpt lat="46.00206" lon="4.70539">
        <ele>198</ele>
        <time>2018-06-05T08:48:05Z</time>
      </trkpt>
      <trkpt lat="46.00211" lon="4.70539">
        <ele>198</ele>
        <time>2018-06-05T08:48:06Z</time>
      </trkpt>
      <trkpt lat="46.00217" lon="4.70536">
        <ele>198</ele>
        <time>2018-06-05T08:48:07Z</time>
      </trkpt>
      <trkpt lat="46.00222" lon="4.70535">
        <ele>198</ele>
        <time>2018-06-05T08:48:08Z</time>
      </trkpt>
      <trkpt lat="46.00228" lon="4.70533">
        <ele>198</ele>
        <time>2018-06-05T08:48:09Z</time>
      </trkpt>
      <trkpt lat="46.00233" lon="4.70531">
        <ele>198</ele>
        <time>2018-06-05T08:48:10Z</time>
      </trkpt>
      <trkpt lat="46.00238" lon="4.70527">
        <ele>198</ele>
        <time>2018-06-05T08:48:11Z</time>
      </trkpt>
      <trkpt lat="46.00242" lon="4.70526">
        <ele>198</ele>
        <time>2018-06-05T08:48:12Z</time>
      </trkpt>
      <trkpt lat="46.00249" lon="4.70524">
        <ele>198</ele>
        <time>2018-06-05T08:48:13Z</time>
      </trkpt>
      <trkpt lat="46.00253" lon="4.70522">
        <ele>197</ele>
        <time>2018-06-05T08:48:14Z</time>
      </trkpt>
      <trkpt lat="46.00259" lon="4.70521">
        <ele>197</ele>
        <time>2018-06-05T08:48:15Z</time>
      </trkpt>
      <trkpt lat="46.00265" lon="4.70519">
        <ele>197</ele>
        <time>2018-06-05T08:48:16Z</time>
      </trkpt>
      <trkpt lat="46.0027" lon="4.70518">
        <ele>197</ele>
        <time>2018-06-05T08:48:17Z</time>
      </trkpt>
      <trkpt lat="46.00276" lon="4.70517">
        <ele>197</ele>
        <time>2018-06-05T08:48:18Z</time>
      </trkpt>
      <trkpt lat="46.00282" lon="4.70516">
        <ele>197</ele>
        <time>2018-06-05T08:48:19Z</time>
      </trkpt>
      <trkpt lat="46.00287" lon="4.70515">
        <ele>197</ele>
        <time>2018-06-05T08:48:20Z</time>
      </trkpt>
      <trkpt lat="46.00293" lon="4.70515">
        <ele>197</ele>
        <time>2018-06-05T08:48:21Z</time>
      </trkpt>
      <trkpt lat="46.00298" lon="4.70514">
        <ele>197</ele>
        <time>2018-06-05T08:48:22Z</time>
      </trkpt>
      <trkpt lat="46.00304" lon="4.70511">
        <ele>197</ele>
        <time>2018-06-05T08:48:23Z</time>
      </trkpt>
      <trkpt lat="46.00311" lon="4.7051">
        <ele>197</ele>
        <time>2018-06-05T08:48:24Z</time>
      </trkpt>
      <trkpt lat="46.00315" lon="4.70506">
        <ele>197</ele>
        <time>2018-06-05T08:48:25Z</time>
      </trkpt>
      <trkpt lat="46.00321" lon="4.70507">
        <ele>198</ele>
        <time>2018-06-05T08:48:26Z</time>
      </trkpt>
      <trkpt lat="46.00327" lon="4.70505">
        <ele>198</ele>
        <time>2018-06-05T08:48:27Z</time>
      </trkpt>
      <trkpt lat="46.00333" lon="4.70504">
        <ele>198</ele>
        <time>2018-06-05T08:48:28Z</time>
      </trkpt>
      <trkpt lat="46.00339" lon="4.70502">
        <ele>198</ele>
        <time>2018-06-05T08:48:29Z</time>
      </trkpt>
      <trkpt lat="46.00344" lon="4.70501">
        <ele>198</ele>
        <time>2018-06-05T08:48:30Z</time>
      </trkpt>
      <trkpt lat="46.0035" lon="4.705">
        <ele>199</ele>
        <time>2018-06-05T08:48:31Z</time>
      </trkpt>
      <trkpt lat="46.00356" lon="4.70498">
        <ele>200</ele>
        <time>2018-06-05T08:48:32Z</time>
      </trkpt>
      <trkpt lat="46.00361" lon="4.70495">
        <ele>200</ele>
        <time>2018-06-05T08:48:33Z</time>
      </trkpt>
      <trkpt lat="46.00366" lon="4.70494">
        <ele>200</ele>
        <time>2018-06-05T08:48:34Z</time>
      </trkpt>
      <trkpt lat="46.00371" lon="4.70491">
        <ele>200</ele>
        <time>2018-06-05T08:48:35Z</time>
      </trkpt>
      <trkpt lat="46.00377" lon="4.7049">
        <ele>200</ele>
        <time>2018-06-05T08:48:36Z</time>
      </trkpt>
      <trkpt lat="46.00383" lon="4.7049">
        <ele>200</ele>
        <time>2018-06-05T08:48:37Z</time>
      </trkpt>
      <trkpt lat="46.00388" lon="4.7049">
        <ele>200</ele>
        <time>2018-06-05T08:48:38Z</time>
      </trkpt>
      <trkpt lat="46.00393" lon="4.70491">
        <ele>200</ele>
        <time>2018-06-05T08:48:39Z</time>
      </trkpt>
      <trkpt lat="46.00399" lon="4.7049">
        <ele>200</ele>
        <time>2018-06-05T08:48:40Z</time>
      </trkpt>
      <trkpt lat="46.00404" lon="4.7049">
        <ele>200</ele>
        <time>2018-06-05T08:48:41Z</time>
      </trkpt>
      <trkpt lat="46.0041" lon="4.7049">
        <ele>200</ele>
        <time>2018-06-05T08:48:42Z</time>
      </trkpt>
      <trkpt lat="46.00416" lon="4.7049">
        <ele>200</ele>
        <time>2018-06-05T08:48:43Z</time>
      </trkpt>
      <trkpt lat="46.00421" lon="4.70489">
        <ele>201</ele>
        <time>2018-06-05T08:48:44Z</time>
      </trkpt>
      <trkpt lat="46.00425" lon="4.70491">
        <ele>201</ele>
        <time>2018-06-05T08:48:45Z</time>
      </trkpt>
      <trkpt lat="46.00431" lon="4.70493">
        <ele>202</ele>
        <time>2018-06-05T08:48:46Z</time>
      </trkpt>
      <trkpt lat="46.00435" lon="4.70494">
        <ele>202</ele>
        <time>2018-06-05T08:48:47Z</time>
      </trkpt>
      <trkpt lat="46.0044" lon="4.70494">
        <ele>202</ele>
        <time>2018-06-05T08:48:48Z</time>
      </trkpt>
      <trkpt lat="46.00445" lon="4.70495">
        <ele>202</ele>
        <time>2018-06-05T08:48:49Z</time>
      </trkpt>
      <trkpt lat="46.00449" lon="4.70497">
        <ele>202</ele>
        <time>2018-06-05T08:48:50Z</time>
      </trkpt>
      <trkpt lat="46.00454" lon="4.705">
        <ele>201</ele>
        <time>2018-06-05T08:48:51Z</time>
      </trkpt>
      <trkpt lat="46.00458" lon="4.70504">
        <ele>201</ele>
        <time>2018-06-05T08:48:52Z</time>
      </trkpt>
      <trkpt lat="46.00462" lon="4.70507">
        <ele>201</ele>
        <time>2018-06-05T08:48:53Z</time>
      </trkpt>
      <trkpt lat="46.00466" lon="4.70515">
        <ele>201</ele>
        <time>2018-06-05T08:48:54Z</time>
      </trkpt>
      <trkpt lat="46.00469" lon="4.7052">
        <ele>201</ele>
        <time>2018-06-05T08:48:55Z</time>
      </trkpt>
      <trkpt lat="46.00471" lon="4.70528">
        <ele>201</ele>
        <time>2018-06-05T08:48:56Z</time>
      </trkpt>
      <trkpt lat="46.00472" lon="4.70532">
        <ele>201</ele>
        <time>2018-06-05T08:48:57Z</time>
      </trkpt>
      <trkpt lat="46.00476" lon="4.70537">
        <ele>201</ele>
        <time>2018-06-05T08:48:58Z</time>
      </trkpt>
      <trkpt lat="46.00481" lon="4.70542">
        <ele>201</ele>
        <time>2018-06-05T08:48:59Z</time>
      </trkpt>
      <trkpt lat="46.00485" lon="4.70545">
        <ele>201</ele>
        <time>2018-06-05T08:49:00Z</time>
      </trkpt>
      <trkpt lat="46.00491" lon="4.70544">
        <ele>201</ele>
        <time>2018-06-05T08:49:01Z</time>
      </trkpt>
      <trkpt lat="46.00495" lon="4.70539">
        <ele>201</ele>
        <time>2018-06-05T08:49:02Z</time>
      </trkpt>
      <trkpt lat="46.00499" lon="4.70534">
        <ele>201</ele>
        <time>2018-06-05T08:49:03Z</time>
      </trkpt>
      <trkpt lat="46.00501" lon="4.70529">
        <ele>203</ele>
        <time>2018-06-05T08:49:04Z</time>
      </trkpt>
      <trkpt lat="46.00505" lon="4.70523">
        <ele>203</ele>
        <time>2018-06-05T08:49:05Z</time>
      </trkpt>
      <trkpt lat="46.00512" lon="4.70516">
        <ele>204</ele>
        <time>2018-06-05T08:49:08Z</time>
      </trkpt>
      <trkpt lat="46.00518" lon="4.70514">
        <ele>204</ele>
        <time>2018-06-05T08:49:09Z</time>
      </trkpt>
      <trkpt lat="46.00526" lon="4.70515">
        <ele>204</ele>
        <time>2018-06-05T08:49:11Z</time>
      </trkpt>
      <trkpt lat="46.00531" lon="4.70516">
        <ele>204</ele>
        <time>2018-06-05T08:49:12Z</time>
      </trkpt>
      <trkpt lat="46.00539" lon="4.70517">
        <ele>204</ele>
        <time>2018-06-05T08:49:14Z</time>
      </trkpt>
      <trkpt lat="46.00543" lon="4.70517">
        <ele>204</ele>
        <time>2018-06-05T08:49:15Z</time>
      </trkpt>
      <trkpt lat="46.00552" lon="4.70519">
        <ele>204</ele>
        <time>2018-06-05T08:49:17Z</time>
      </trkpt>
      <trkpt lat="46.00556" lon="4.70517">
        <ele>204</ele>
        <time>2018-06-05T08:49:18Z</time>
      </trkpt>
      <trkpt lat="46.0056" lon="4.70516">
        <ele>204</ele>
        <time>2018-06-05T08:49:20Z</time>
      </trkpt>
      <trkpt lat="46.00568" lon="4.70515">
        <ele>205</ele>
        <time>2018-06-05T08:49:21Z</time>
      </trkpt>
      <trkpt lat="46.00574" lon="4.70512">
        <ele>205</ele>
        <time>2018-06-05T08:49:22Z</time>
      </trkpt>
      <trkpt lat="46.00578" lon="4.70509">
        <ele>206</ele>
        <time>2018-06-05T08:49:23Z</time>
      </trkpt>
      <trkpt lat="46.00586" lon="4.70509">
        <ele>207</ele>
        <time>2018-06-05T08:49:25Z</time>
      </trkpt>
      <trkpt lat="46.0059" lon="4.70508">
        <ele>207</ele>
        <time>2018-06-05T08:49:26Z</time>
      </trkpt>
      <trkpt lat="46.00598" lon="4.7051">
        <ele>207</ele>
        <time>2018-06-05T08:49:28Z</time>
      </trkpt>
      <trkpt lat="46.00604" lon="4.70508">
        <ele>207</ele>
        <time>2018-06-05T08:49:29Z</time>
      </trkpt>
      <trkpt lat="46.00609" lon="4.70507">
        <ele>207</ele>
        <time>2018-06-05T08:49:30Z</time>
      </trkpt>
      <trkpt lat="46.00614" lon="4.70507">
        <ele>207</ele>
        <time>2018-06-05T08:49:31Z</time>
      </trkpt>
      <trkpt lat="46.00619" lon="4.70505">
        <ele>207</ele>
        <time>2018-06-05T08:49:32Z</time>
      </trkpt>
      <trkpt lat="46.00626" lon="4.70504">
        <ele>207</ele>
        <time>2018-06-05T08:49:33Z</time>
      </trkpt>
      <trkpt lat="46.00632" lon="4.70503">
        <ele>208</ele>
        <time>2018-06-05T08:49:34Z</time>
      </trkpt>
      <trkpt lat="46.00639" lon="4.70503">
        <ele>208</ele>
        <time>2018-06-05T08:49:35Z</time>
      </trkpt>
      <trkpt lat="46.00646" lon="4.705">
        <ele>211</ele>
        <time>2018-06-05T08:49:37Z</time>
      </trkpt>
      <trkpt lat="46.00651" lon="4.70498">
        <ele>212</ele>
        <time>2018-06-05T08:49:38Z</time>
      </trkpt>
      <trkpt lat="46.00656" lon="4.70497">
        <ele>212</ele>
        <time>2018-06-05T08:49:39Z</time>
      </trkpt>
      <trkpt lat="46.00661" lon="4.70499">
        <ele>212</ele>
        <time>2018-06-05T08:49:40Z</time>
      </trkpt>
      <trkpt lat="46.00666" lon="4.705">
        <ele>212</ele>
        <time>2018-06-05T08:49:41Z</time>
      </trkpt>
      <trkpt lat="46.00669" lon="4.70501">
        <ele>211</ele>
        <time>2018-06-05T08:49:42Z</time>
      </trkpt>
      <trkpt lat="46.00674" lon="4.70501">
        <ele>211</ele>
        <time>2018-06-05T08:49:43Z</time>
      </trkpt>
      <trkpt lat="46.0068" lon="4.705">
        <ele>210</ele>
        <time>2018-06-05T08:49:44Z</time>
      </trkpt>
      <trkpt lat="46.00687" lon="4.705">
        <ele>209</ele>
        <time>2018-06-05T08:49:45Z</time>
      </trkpt>
      <trkpt lat="46.00692" lon="4.70501">
        <ele>208</ele>
        <time>2018-06-05T08:49:46Z</time>
      </trkpt>
      <trkpt lat="46.00698" lon="4.70501">
        <ele>208</ele>
        <time>2018-06-05T08:49:47Z</time>
      </trkpt>
      <trkpt lat="46.00704" lon="4.70502">
        <ele>208</ele>
        <time>2018-06-05T08:49:48Z</time>
      </trkpt>
      <trkpt lat="46.00709" lon="4.70502">
        <ele>207</ele>
        <time>2018-06-05T08:49:49Z</time>
      </trkpt>
      <trkpt lat="46.00715" lon="4.70502">
        <ele>207</ele>
        <time>2018-06-05T08:49:50Z</time>
      </trkpt>
      <trkpt lat="46.00721" lon="4.70503">
        <ele>207</ele>
        <time>2018-06-05T08:49:51Z</time>
      </trkpt>
      <trkpt lat="46.00727" lon="4.70504">
        <ele>207</ele>
        <time>2018-06-05T08:49:52Z</time>
      </trkpt>
      <trkpt lat="46.00732" lon="4.70506">
        <ele>207</ele>
        <time>2018-06-05T08:49:53Z</time>
      </trkpt>
      <trkpt lat="46.00738" lon="4.70507">
        <ele>207</ele>
        <time>2018-06-05T08:49:54Z</time>
      </trkpt>
      <trkpt lat="46.00744" lon="4.70509">
        <ele>207</ele>
        <time>2018-06-05T08:49:55Z</time>
      </trkpt>
      <trkpt lat="46.00749" lon="4.70514">
        <ele>207</ele>
        <time>2018-06-05T08:49:56Z</time>
      </trkpt>
      <trkpt lat="46.00756" lon="4.70516">
        <ele>206</ele>
        <time>2018-06-05T08:49:57Z</time>
      </trkpt>
      <trkpt lat="46.00762" lon="4.7052">
        <ele>205</ele>
        <time>2018-06-05T08:49:58Z</time>
      </trkpt>
      <trkpt lat="46.00768" lon="4.70521">
        <ele>205</ele>
        <time>2018-06-05T08:49:59Z</time>
      </trkpt>
      <trkpt lat="46.00774" lon="4.70524">
        <ele>205</ele>
        <time>2018-06-05T08:50:00Z</time>
      </trkpt>
      <trkpt lat="46.00781" lon="4.70527">
        <ele>204</ele>
        <time>2018-06-05T08:50:01Z</time>
      </trkpt>
      <trkpt lat="46.00787" lon="4.7053">
        <ele>204</ele>
        <time>2018-06-05T08:50:02Z</time>
      </trkpt>
      <trkpt lat="46.00794" lon="4.70533">
        <ele>204</ele>
        <time>2018-06-05T08:50:03Z</time>
      </trkpt>
      <trkpt lat="46.008" lon="4.70535">
        <ele>204</ele>
        <time>2018-06-05T08:50:04Z</time>
      </trkpt>
      <trkpt lat="46.00806" lon="4.70538">
        <ele>203</ele>
        <time>2018-06-05T08:50:05Z</time>
      </trkpt>
      <trkpt lat="46.00812" lon="4.7054">
        <ele>203</ele>
        <time>2018-06-05T08:50:06Z</time>
      </trkpt>
      <trkpt lat="46.0082" lon="4.70543">
        <ele>203</ele>
        <time>2018-06-05T08:50:07Z</time>
      </trkpt>
      <trkpt lat="46.00826" lon="4.70545">
        <ele>203</ele>
        <time>2018-06-05T08:50:08Z</time>
      </trkpt>
      <trkpt lat="46.00833" lon="4.7055">
        <ele>203</ele>
        <time>2018-06-05T08:50:09Z</time>
      </trkpt>
      <trkpt lat="46.00839" lon="4.70549">
        <ele>201</ele>
        <time>2018-06-05T08:50:10Z</time>
      </trkpt>
      <trkpt lat="46.00846" lon="4.70552">
        <ele>201</ele>
        <time>2018-06-05T08:50:11Z</time>
      </trkpt>
      <trkpt lat="46.00853" lon="4.70555">
        <ele>201</ele>
        <time>2018-06-05T08:50:12Z</time>
      </trkpt>
      <trkpt lat="46.00859" lon="4.70558">
        <ele>201</ele>
        <time>2018-06-05T08:50:13Z</time>
      </trkpt>
      <trkpt lat="46.00866" lon="4.70562">
        <ele>201</ele>
        <time>2018-06-05T08:50:14Z</time>
      </trkpt>
      <trkpt lat="46.00871" lon="4.70565">
        <ele>201</ele>
        <time>2018-06-05T08:50:15Z</time>
      </trkpt>
      <trkpt lat="46.00877" lon="4.70566">
        <ele>200</ele>
        <time>2018-06-05T08:50:16Z</time>
      </trkpt>
      <trkpt lat="46.00884" lon="4.7057">
        <ele>200</ele>
        <time>2018-06-05T08:50:17Z</time>
      </trkpt>
      <trkpt lat="46.00891" lon="4.70573">
        <ele>200</ele>
        <time>2018-06-05T08:50:18Z</time>
      </trkpt>
      <trkpt lat="46.00898" lon="4.70576">
        <ele>200</ele>
        <time>2018-06-05T08:50:19Z</time>
      </trkpt>
      <trkpt lat="46.00905" lon="4.70578">
        <ele>199</ele>
        <time>2018-06-05T08:50:20Z</time>
      </trkpt>
      <trkpt lat="46.00912" lon="4.70582">
        <ele>199</ele>
        <time>2018-06-05T08:50:21Z</time>
      </trkpt>
      <trkpt lat="46.00919" lon="4.70585">
        <ele>198</ele>
        <time>2018-06-05T08:50:22Z</time>
      </trkpt>
      <trkpt lat="46.00926" lon="4.70589">
        <ele>198</ele>
        <time>2018-06-05T08:50:23Z</time>
      </trkpt>
      <trkpt lat="46.00932" lon="4.70591">
        <ele>198</ele>
        <time>2018-06-05T08:50:24Z</time>
      </trkpt>
      <trkpt lat="46.00939" lon="4.70593">
        <ele>198</ele>
        <time>2018-06-05T08:50:25Z</time>
      </trkpt>
      <trkpt lat="46.00947" lon="4.70598">
        <ele>197</ele>
        <time>2018-06-05T08:50:26Z</time>
      </trkpt>
      <trkpt lat="46.00954" lon="4.70602">
        <ele>197</ele>
        <time>2018-06-05T08:50:27Z</time>
      </trkpt>
      <trkpt lat="46.00962" lon="4.70605">
        <ele>197</ele>
        <time>2018-06-05T08:50:28Z</time>
      </trkpt>
      <trkpt lat="46.0097" lon="4.70608">
        <ele>197</ele>
        <time>2018-06-05T08:50:29Z</time>
      </trkpt>
      <trkpt lat="46.00977" lon="4.70612">
        <ele>197</ele>
        <time>2018-06-05T08:50:30Z</time>
      </trkpt>
      <trkpt lat="46.00984" lon="4.70615">
        <ele>197</ele>
        <time>2018-06-05T08:50:31Z</time>
      </trkpt>
      <trkpt lat="46.00991" lon="4.70619">
        <ele>197</ele>
        <time>2018-06-05T08:50:32Z</time>
      </trkpt>
      <trkpt lat="46.00998" lon="4.70623">
        <ele>197</ele>
        <time>2018-06-05T08:50:33Z</time>
      </trkpt>
      <trkpt lat="46.01005" lon="4.70625">
        <ele>196</ele>
        <time>2018-06-05T08:50:34Z</time>
      </trkpt>
      <trkpt lat="46.01011" lon="4.70626">
        <ele>196</ele>
        <time>2018-06-05T08:50:35Z</time>
      </trkpt>
      <trkpt lat="46.01018" lon="4.70628">
        <ele>196</ele>
        <time>2018-06-05T08:50:36Z</time>
      </trkpt>
      <trkpt lat="46.01025" lon="4.70632">
        <ele>196</ele>
        <time>2018-06-05T08:50:37Z</time>
      </trkpt>
      <trkpt lat="46.01032" lon="4.70635">
        <ele>196</ele>
        <time>2018-06-05T08:50:38Z</time>
      </trkpt>
      <trkpt lat="46.0104" lon="4.70638">
        <ele>196</ele>
        <time>2018-06-05T08:50:39Z</time>
      </trkpt>
      <trkpt lat="46.01047" lon="4.7064">
        <ele>195</ele>
        <time>2018-06-05T08:50:40Z</time>
      </trkpt>
      <trkpt lat="46.01053" lon="4.70644">
        <ele>195</ele>
        <time>2018-06-05T08:50:41Z</time>
      </trkpt>
      <trkpt lat="46.01059" lon="4.70647">
        <ele>195</ele>
        <time>2018-06-05T08:50:42Z</time>
      </trkpt>
      <trkpt lat="46.01066" lon="4.70648">
        <ele>195</ele>
        <time>2018-06-05T08:50:43Z</time>
      </trkpt>
      <trkpt lat="46.01073" lon="4.7065">
        <ele>195</ele>
        <time>2018-06-05T08:50:44Z</time>
      </trkpt>
      <trkpt lat="46.0108" lon="4.70652">
        <ele>195</ele>
        <time>2018-06-05T08:50:45Z</time>
      </trkpt>
      <trkpt lat="46.01086" lon="4.70656">
        <ele>195</ele>
        <time>2018-06-05T08:50:46Z</time>
      </trkpt>
      <trkpt lat="46.01093" lon="4.70658">
        <ele>195</ele>
        <time>2018-06-05T08:50:47Z</time>
      </trkpt>
      <trkpt lat="46.01101" lon="4.70662">
        <ele>195</ele>
        <time>2018-06-05T08:50:48Z</time>
      </trkpt>
      <trkpt lat="46.01108" lon="4.70666">
        <ele>195</ele>
        <time>2018-06-05T08:50:49Z</time>
      </trkpt>
      <trkpt lat="46.01115" lon="4.70669">
        <ele>195</ele>
        <time>2018-06-05T08:50:50Z</time>
      </trkpt>
      <trkpt lat="46.01121" lon="4.70672">
        <ele>195</ele>
        <time>2018-06-05T08:50:51Z</time>
      </trkpt>
      <trkpt lat="46.0113" lon="4.70675">
        <ele>194</ele>
        <time>2018-06-05T08:50:52Z</time>
      </trkpt>
      <trkpt lat="46.01137" lon="4.70677">
        <ele>194</ele>
        <time>2018-06-05T08:50:53Z</time>
      </trkpt>
      <trkpt lat="46.01144" lon="4.7068">
        <ele>194</ele>
        <time>2018-06-05T08:50:54Z</time>
      </trkpt>
      <trkpt lat="46.01149" lon="4.70684">
        <ele>194</ele>
        <time>2018-06-05T08:50:55Z</time>
      </trkpt>
      <trkpt lat="46.01155" lon="4.70687">
        <ele>194</ele>
        <time>2018-06-05T08:50:56Z</time>
      </trkpt>
      <trkpt lat="46.01161" lon="4.7069">
        <ele>194</ele>
        <time>2018-06-05T08:50:57Z</time>
      </trkpt>
      <trkpt lat="46.01167" lon="4.70692">
        <ele>194</ele>
        <time>2018-06-05T08:50:58Z</time>
      </trkpt>
      <trkpt lat="46.01173" lon="4.70694">
        <ele>194</ele>
        <time>2018-06-05T08:50:59Z</time>
      </trkpt>
      <trkpt lat="46.01178" lon="4.70697">
        <ele>194</ele>
        <time>2018-06-05T08:51:00Z</time>
      </trkpt>
      <trkpt lat="46.01185" lon="4.707">
        <ele>194</ele>
        <time>2018-06-05T08:51:01Z</time>
      </trkpt>
      <trkpt lat="46.01191" lon="4.70703">
        <ele>194</ele>
        <time>2018-06-05T08:51:02Z</time>
      </trkpt>
      <trkpt lat="46.01198" lon="4.70706">
        <ele>194</ele>
        <time>2018-06-05T08:51:03Z</time>
      </trkpt>
      <trkpt lat="46.01204" lon="4.70709">
        <ele>194</ele>
        <time>2018-06-05T08:51:04Z</time>
      </trkpt>
      <trkpt lat="46.0121" lon="4.70711">
        <ele>194</ele>
        <time>2018-06-05T08:51:05Z</time>
      </trkpt>
      <trkpt lat="46.01217" lon="4.70715">
        <ele>194</ele>
        <time>2018-06-05T08:51:06Z</time>
      </trkpt>
      <trkpt lat="46.01224" lon="4.70718">
        <ele>194</ele>
        <time>2018-06-05T08:51:07Z</time>
      </trkpt>
      <trkpt lat="46.01231" lon="4.70722">
        <ele>194</ele>
        <time>2018-06-05T08:51:08Z</time>
      </trkpt>
      <trkpt lat="46.01239" lon="4.70725">
        <ele>193</ele>
        <time>2018-06-05T08:51:09Z</time>
      </trkpt>
      <trkpt lat="46.01247" lon="4.70728">
        <ele>193</ele>
        <time>2018-06-05T08:51:10Z</time>
      </trkpt>
      <trkpt lat="46.01253" lon="4.70731">
        <ele>192</ele>
        <time>2018-06-05T08:51:11Z</time>
      </trkpt>
      <trkpt lat="46.0126" lon="4.70734">
        <ele>192</ele>
        <time>2018-06-05T08:51:12Z</time>
      </trkpt>
      <trkpt lat="46.01268" lon="4.70736">
        <ele>192</ele>
        <time>2018-06-05T08:51:13Z</time>
      </trkpt>
      <trkpt lat="46.01274" lon="4.70738">
        <ele>192</ele>
        <time>2018-06-05T08:51:14Z</time>
      </trkpt>
      <trkpt lat="46.01281" lon="4.70739">
        <ele>192</ele>
        <time>2018-06-05T08:51:15Z</time>
      </trkpt>
      <trkpt lat="46.01287" lon="4.70742">
        <ele>191</ele>
        <time>2018-06-05T08:51:16Z</time>
      </trkpt>
      <trkpt lat="46.01294" lon="4.70743">
        <ele>191</ele>
        <time>2018-06-05T08:51:17Z</time>
      </trkpt>
      <trkpt lat="46.013" lon="4.70745">
        <ele>191</ele>
        <time>2018-06-05T08:51:18Z</time>
      </trkpt>
      <trkpt lat="46.01307" lon="4.70745">
        <ele>191</ele>
        <time>2018-06-05T08:51:19Z</time>
      </trkpt>
      <trkpt lat="46.01314" lon="4.70745">
        <ele>190</ele>
        <time>2018-06-05T08:51:20Z</time>
      </trkpt>
      <trkpt lat="46.0132" lon="4.70746">
        <ele>190</ele>
        <time>2018-06-05T08:51:21Z</time>
      </trkpt>
      <trkpt lat="46.01327" lon="4.70747">
        <ele>190</ele>
        <time>2018-06-05T08:51:22Z</time>
      </trkpt>
      <trkpt lat="46.01333" lon="4.70749">
        <ele>189</ele>
        <time>2018-06-05T08:51:23Z</time>
      </trkpt>
      <trkpt lat="46.0134" lon="4.7075">
        <ele>189</ele>
        <time>2018-06-05T08:51:24Z</time>
      </trkpt>
      <trkpt lat="46.01347" lon="4.7075">
        <ele>189</ele>
        <time>2018-06-05T08:51:25Z</time>
      </trkpt>
      <trkpt lat="46.01353" lon="4.7075">
        <ele>189</ele>
        <time>2018-06-05T08:51:26Z</time>
      </trkpt>
      <trkpt lat="46.01359" lon="4.70751">
        <ele>189</ele>
        <time>2018-06-05T08:51:27Z</time>
      </trkpt>
      <trkpt lat="46.01365" lon="4.70751">
        <ele>189</ele>
        <time>2018-06-05T08:51:28Z</time>
      </trkpt>
      <trkpt lat="46.01373" lon="4.70751">
        <ele>189</ele>
        <time>2018-06-05T08:51:29Z</time>
      </trkpt>
      <trkpt lat="46.0138" lon="4.7075">
        <ele>189</ele>
        <time>2018-06-05T08:51:30Z</time>
      </trkpt>
      <trkpt lat="46.01388" lon="4.70749">
        <ele>189</ele>
        <time>2018-06-05T08:51:31Z</time>
      </trkpt>
      <trkpt lat="46.01395" lon="4.70749">
        <ele>189</ele>
        <time>2018-06-05T08:51:32Z</time>
      </trkpt>
      <trkpt lat="46.01401" lon="4.70749">
        <ele>189</ele>
        <time>2018-06-05T08:51:33Z</time>
      </trkpt>
      <trkpt lat="46.01407" lon="4.70748">
        <ele>189</ele>
        <time>2018-06-05T08:51:34Z</time>
      </trkpt>
      <trkpt lat="46.01414" lon="4.70748">
        <ele>189</ele>
        <time>2018-06-05T08:51:35Z</time>
      </trkpt>
      <trkpt lat="46.01421" lon="4.70747">
        <ele>189</ele>
        <time>2018-06-05T08:51:36Z</time>
      </trkpt>
      <trkpt lat="46.01427" lon="4.70745">
        <ele>189</ele>
        <time>2018-06-05T08:51:37Z</time>
      </trkpt>
      <trkpt lat="46.01434" lon="4.70745">
        <ele>189</ele>
        <time>2018-06-05T08:51:38Z</time>
      </trkpt>
      <trkpt lat="46.0144" lon="4.70743">
        <ele>189</ele>
        <time>2018-06-05T08:51:39Z</time>
      </trkpt>
      <trkpt lat="46.01447" lon="4.70742">
        <ele>189</ele>
        <time>2018-06-05T08:51:40Z</time>
      </trkpt>
      <trkpt lat="46.01455" lon="4.70743">
        <ele>189</ele>
        <time>2018-06-05T08:51:41Z</time>
      </trkpt>
      <trkpt lat="46.01462" lon="4.70742">
        <ele>190</ele>
        <time>2018-06-05T08:51:42Z</time>
      </trkpt>
      <trkpt lat="46.01469" lon="4.70742">
        <ele>190</ele>
        <time>2018-06-05T08:51:43Z</time>
      </trkpt>
      <trkpt lat="46.01475" lon="4.70739">
        <ele>190</ele>
        <time>2018-06-05T08:51:44Z</time>
      </trkpt>
      <trkpt lat="46.01482" lon="4.70738">
        <ele>190</ele>
        <time>2018-06-05T08:51:45Z</time>
      </trkpt>
      <trkpt lat="46.0149" lon="4.70737">
        <ele>190</ele>
        <time>2018-06-05T08:51:46Z</time>
      </trkpt>
      <trkpt lat="46.01498" lon="4.70736">
        <ele>190</ele>
        <time>2018-06-05T08:51:47Z</time>
      </trkpt>
      <trkpt lat="46.01505" lon="4.70737">
        <ele>190</ele>
        <time>2018-06-05T08:51:48Z</time>
      </trkpt>
      <trkpt lat="46.01512" lon="4.70738">
        <ele>190</ele>
        <time>2018-06-05T08:51:49Z</time>
      </trkpt>
      <trkpt lat="46.01518" lon="4.70736">
        <ele>190</ele>
        <time>2018-06-05T08:51:50Z</time>
      </trkpt>
      <trkpt lat="46.01524" lon="4.70737">
        <ele>190</ele>
        <time>2018-06-05T08:51:51Z</time>
      </trkpt>
      <trkpt lat="46.01532" lon="4.70736">
        <ele>190</ele>
        <time>2018-06-05T08:51:52Z</time>
      </trkpt>
      <trkpt lat="46.01539" lon="4.70736">
        <ele>190</ele>
        <time>2018-06-05T08:51:53Z</time>
      </trkpt>
      <trkpt lat="46.01545" lon="4.70737">
        <ele>190</ele>
        <time>2018-06-05T08:51:54Z</time>
      </trkpt>
      <trkpt lat="46.01553" lon="4.70734">
        <ele>190</ele>
        <time>2018-06-05T08:51:55Z</time>
      </trkpt>
      <trkpt lat="46.01561" lon="4.70734">
        <ele>190</ele>
        <time>2018-06-05T08:51:56Z</time>
      </trkpt>
      <trkpt lat="46.01567" lon="4.70733">
        <ele>190</ele>
        <time>2018-06-05T08:51:57Z</time>
      </trkpt>
      <trkpt lat="46.01575" lon="4.70731">
        <ele>190</ele>
        <time>2018-06-05T08:51:58Z</time>
      </trkpt>
      <trkpt lat="46.01582" lon="4.70731">
        <ele>190</ele>
        <time>2018-06-05T08:51:59Z</time>
      </trkpt>
      <trkpt lat="46.01589" lon="4.70729">
        <ele>190</ele>
        <time>2018-06-05T08:52:00Z</time>
      </trkpt>
      <trkpt lat="46.01597" lon="4.70728">
        <ele>190</ele>
        <time>2018-06-05T08:52:01Z</time>
      </trkpt>
      <trkpt lat="46.01603" lon="4.70729">
        <ele>190</ele>
        <time>2018-06-05T08:52:02Z</time>
      </trkpt>
      <trkpt lat="46.0161" lon="4.70728">
        <ele>190</ele>
        <time>2018-06-05T08:52:03Z</time>
      </trkpt>
      <trkpt lat="46.0162" lon="4.70724">
        <ele>190</ele>
        <time>2018-06-05T08:52:04Z</time>
      </trkpt>
      <trkpt lat="46.01627" lon="4.70723">
        <ele>190</ele>
        <time>2018-06-05T08:52:05Z</time>
      </trkpt>
      <trkpt lat="46.01632" lon="4.70722">
        <ele>190</ele>
        <time>2018-06-05T08:52:06Z</time>
      </trkpt>
      <trkpt lat="46.0164" lon="4.70716">
        <ele>190</ele>
        <time>2018-06-05T08:52:07Z</time>
      </trkpt>
      <trkpt lat="46.01647" lon="4.70716">
        <ele>190</ele>
        <time>2018-06-05T08:52:08Z</time>
      </trkpt>
      <trkpt lat="46.01654" lon="4.70717">
        <ele>190</ele>
        <time>2018-06-05T08:52:09Z</time>
      </trkpt>
      <trkpt lat="46.01662" lon="4.70718">
        <ele>190</ele>
        <time>2018-06-05T08:52:10Z</time>
      </trkpt>
      <trkpt lat="46.01669" lon="4.70717">
        <ele>189</ele>
        <time>2018-06-05T08:52:11Z</time>
      </trkpt>
      <trkpt lat="46.01676" lon="4.70716">
        <ele>189</ele>
        <time>2018-06-05T08:52:12Z</time>
      </trkpt>
      <trkpt lat="46.01682" lon="4.70717">
        <ele>189</ele>
        <time>2018-06-05T08:52:13Z</time>
      </trkpt>
      <trkpt lat="46.01691" lon="4.70718">
        <ele>189</ele>
        <time>2018-06-05T08:52:14Z</time>
      </trkpt>
      <trkpt lat="46.01699" lon="4.70718">
        <ele>189</ele>
        <time>2018-06-05T08:52:15Z</time>
      </trkpt>
      <trkpt lat="46.01706" lon="4.70715">
        <ele>189</ele>
        <time>2018-06-05T08:52:16Z</time>
      </trkpt>
      <trkpt lat="46.01713" lon="4.70715">
        <ele>188</ele>
        <time>2018-06-05T08:52:17Z</time>
      </trkpt>
      <trkpt lat="46.01721" lon="4.70713">
        <ele>188</ele>
        <time>2018-06-05T08:52:18Z</time>
      </trkpt>
      <trkpt lat="46.01728" lon="4.70705">
        <ele>188</ele>
        <time>2018-06-05T08:52:19Z</time>
      </trkpt>
      <trkpt lat="46.01736" lon="4.70706">
        <ele>188</ele>
        <time>2018-06-05T08:52:20Z</time>
      </trkpt>
      <trkpt lat="46.01743" lon="4.70706">
        <ele>188</ele>
        <time>2018-06-05T08:52:21Z</time>
      </trkpt>
      <trkpt lat="46.01748" lon="4.70707">
        <ele>188</ele>
        <time>2018-06-05T08:52:22Z</time>
      </trkpt>
      <trkpt lat="46.01754" lon="4.70706">
        <ele>187</ele>
        <time>2018-06-05T08:52:23Z</time>
      </trkpt>
      <trkpt lat="46.01762" lon="4.70709">
        <ele>187</ele>
        <time>2018-06-05T08:52:24Z</time>
      </trkpt>
      <trkpt lat="46.01773" lon="4.70703">
        <ele>187</ele>
        <time>2018-06-05T08:52:25Z</time>
      </trkpt>
      <trkpt lat="46.01782" lon="4.70699">
        <ele>187</ele>
        <time>2018-06-05T08:52:26Z</time>
      </trkpt>
      <trkpt lat="46.01788" lon="4.70699">
        <ele>187</ele>
        <time>2018-06-05T08:52:27Z</time>
      </trkpt>
      <trkpt lat="46.01796" lon="4.70697">
        <ele>187</ele>
        <time>2018-06-05T08:52:28Z</time>
      </trkpt>
      <trkpt lat="46.01802" lon="4.70696">
        <ele>187</ele>
        <time>2018-06-05T08:52:29Z</time>
      </trkpt>
      <trkpt lat="46.01808" lon="4.70696">
        <ele>187</ele>
        <time>2018-06-05T08:52:30Z</time>
      </trkpt>
      <trkpt lat="46.01817" lon="4.70695">
        <ele>187</ele>
        <time>2018-06-05T08:52:31Z</time>
      </trkpt>
      <trkpt lat="46.01824" lon="4.70693">
        <ele>187</ele>
        <time>2018-06-05T08:52:32Z</time>
      </trkpt>
      <trkpt lat="46.01829" lon="4.70698">
        <ele>187</ele>
        <time>2018-06-05T08:52:33Z</time>
      </trkpt>
      <trkpt lat="46.01837" lon="4.70697">
        <ele>185</ele>
        <time>2018-06-05T08:52:34Z</time>
      </trkpt>
      <trkpt lat="46.01845" lon="4.70691">
        <ele>185</ele>
        <time>2018-06-05T08:52:35Z</time>
      </trkpt>
      <trkpt lat="46.01851" lon="4.70691">
        <ele>185</ele>
        <time>2018-06-05T08:52:36Z</time>
      </trkpt>
      <trkpt lat="46.01856" lon="4.70693">
        <ele>185</ele>
        <time>2018-06-05T08:52:37Z</time>
      </trkpt>
      <trkpt lat="46.01863" lon="4.70692">
        <ele>185</ele>
        <time>2018-06-05T08:52:38Z</time>
      </trkpt>
      <trkpt lat="46.01871" lon="4.70688">
        <ele>185</ele>
        <time>2018-06-05T08:52:39Z</time>
      </trkpt>
      <trkpt lat="46.01878" lon="4.70688">
        <ele>185</ele>
        <time>2018-06-05T08:52:40Z</time>
      </trkpt>
      <trkpt lat="46.01884" lon="4.7069">
        <ele>185</ele>
        <time>2018-06-05T08:52:41Z</time>
      </trkpt>
      <trkpt lat="46.0189" lon="4.7069">
        <ele>184</ele>
        <time>2018-06-05T08:52:42Z</time>
      </trkpt>
      <trkpt lat="46.01896" lon="4.7069">
        <ele>184</ele>
        <time>2018-06-05T08:52:43Z</time>
      </trkpt>
      <trkpt lat="46.01903" lon="4.70691">
        <ele>184</ele>
        <time>2018-06-05T08:52:44Z</time>
      </trkpt>
      <trkpt lat="46.0191" lon="4.70692">
        <ele>184</ele>
        <time>2018-06-05T08:52:45Z</time>
      </trkpt>
      <trkpt lat="46.01916" lon="4.70693">
        <ele>184</ele>
        <time>2018-06-05T08:52:46Z</time>
      </trkpt>
      <trkpt lat="46.01923" lon="4.70696">
        <ele>182</ele>
        <time>2018-06-05T08:52:47Z</time>
      </trkpt>
      <trkpt lat="46.0193" lon="4.70697">
        <ele>182</ele>
        <time>2018-06-05T08:52:48Z</time>
      </trkpt>
      <trkpt lat="46.01938" lon="4.70698">
        <ele>182</ele>
        <time>2018-06-05T08:52:49Z</time>
      </trkpt>
      <trkpt lat="46.01946" lon="4.70699">
        <ele>182</ele>
        <time>2018-06-05T08:52:50Z</time>
      </trkpt>
      <trkpt lat="46.01954" lon="4.70701">
        <ele>181</ele>
        <time>2018-06-05T08:52:51Z</time>
      </trkpt>
      <trkpt lat="46.01961" lon="4.70703">
        <ele>181</ele>
        <time>2018-06-05T08:52:52Z</time>
      </trkpt>
      <trkpt lat="46.01968" lon="4.70704">
        <ele>181</ele>
        <time>2018-06-05T08:52:53Z</time>
      </trkpt>
      <trkpt lat="46.01975" lon="4.70705">
        <ele>181</ele>
        <time>2018-06-05T08:52:54Z</time>
      </trkpt>
      <trkpt lat="46.01982" lon="4.70707">
        <ele>181</ele>
        <time>2018-06-05T08:52:55Z</time>
      </trkpt>
      <trkpt lat="46.01988" lon="4.70709">
        <ele>181</ele>
        <time>2018-06-05T08:52:56Z</time>
      </trkpt>
      <trkpt lat="46.01995" lon="4.7071">
        <ele>181</ele>
        <time>2018-06-05T08:52:57Z</time>
      </trkpt>
      <trkpt lat="46.02002" lon="4.70712">
        <ele>179</ele>
        <time>2018-06-05T08:52:58Z</time>
      </trkpt>
      <trkpt lat="46.02009" lon="4.70714">
        <ele>179</ele>
        <time>2018-06-05T08:52:59Z</time>
      </trkpt>
      <trkpt lat="46.02016" lon="4.70714">
        <ele>179</ele>
        <time>2018-06-05T08:53:00Z</time>
      </trkpt>
      <trkpt lat="46.02022" lon="4.70716">
        <ele>179</ele>
        <time>2018-06-05T08:53:01Z</time>
      </trkpt>
      <trkpt lat="46.02029" lon="4.70717">
        <ele>179</ele>
        <time>2018-06-05T08:53:02Z</time>
      </trkpt>
      <trkpt lat="46.02036" lon="4.70718">
        <ele>179</ele>
        <time>2018-06-05T08:53:03Z</time>
      </trkpt>
      <trkpt lat="46.02042" lon="4.70719">
        <ele>179</ele>
        <time>2018-06-05T08:53:04Z</time>
      </trkpt>
      <trkpt lat="46.02048" lon="4.70721">
        <ele>179</ele>
        <time>2018-06-05T08:53:05Z</time>
      </trkpt>
      <trkpt lat="46.02055" lon="4.70723">
        <ele>179</ele>
        <time>2018-06-05T08:53:06Z</time>
      </trkpt>
      <trkpt lat="46.02062" lon="4.70724">
        <ele>179</ele>
        <time>2018-06-05T08:53:07Z</time>
      </trkpt>
      <trkpt lat="46.02068" lon="4.70725">
        <ele>178</ele>
        <time>2018-06-05T08:53:08Z</time>
      </trkpt>
      <trkpt lat="46.02074" lon="4.70727">
        <ele>178</ele>
        <time>2018-06-05T08:53:09Z</time>
      </trkpt>
      <trkpt lat="46.0208" lon="4.70729">
        <ele>178</ele>
        <time>2018-06-05T08:53:10Z</time>
      </trkpt>
      <trkpt lat="46.02087" lon="4.70729">
        <ele>178</ele>
        <time>2018-06-05T08:53:11Z</time>
      </trkpt>
      <trkpt lat="46.02093" lon="4.70729">
        <ele>178</ele>
        <time>2018-06-05T08:53:12Z</time>
      </trkpt>
      <trkpt lat="46.021" lon="4.70729">
        <ele>178</ele>
        <time>2018-06-05T08:53:13Z</time>
      </trkpt>
      <trkpt lat="46.02108" lon="4.70732">
        <ele>178</ele>
        <time>2018-06-05T08:53:14Z</time>
      </trkpt>
      <trkpt lat="46.02113" lon="4.70733">
        <ele>179</ele>
        <time>2018-06-05T08:53:15Z</time>
      </trkpt>
      <trkpt lat="46.0212" lon="4.70734">
        <ele>179</ele>
        <time>2018-06-05T08:53:16Z</time>
      </trkpt>
      <trkpt lat="46.02128" lon="4.70733">
        <ele>179</ele>
        <time>2018-06-05T08:53:17Z</time>
      </trkpt>
      <trkpt lat="46.02133" lon="4.70732">
        <ele>179</ele>
        <time>2018-06-05T08:53:18Z</time>
      </trkpt>
      <trkpt lat="46.02139" lon="4.70733">
        <ele>179</ele>
        <time>2018-06-05T08:53:19Z</time>
      </trkpt>
      <trkpt lat="46.02146" lon="4.70734">
        <ele>179</ele>
        <time>2018-06-05T08:53:20Z</time>
      </trkpt>
      <trkpt lat="46.02152" lon="4.70736">
        <ele>179</ele>
        <time>2018-06-05T08:53:21Z</time>
      </trkpt>
      <trkpt lat="46.02159" lon="4.70736">
        <ele>179</ele>
        <time>2018-06-05T08:53:22Z</time>
      </trkpt>
      <trkpt lat="46.02166" lon="4.70739">
        <ele>179</ele>
        <time>2018-06-05T08:53:23Z</time>
      </trkpt>
      <trkpt lat="46.02173" lon="4.70741">
        <ele>180</ele>
        <time>2018-06-05T08:53:24Z</time>
      </trkpt>
      <trkpt lat="46.0218" lon="4.70742">
        <ele>180</ele>
        <time>2018-06-05T08:53:25Z</time>
      </trkpt>
      <trkpt lat="46.02186" lon="4.70743">
        <ele>180</ele>
        <time>2018-06-05T08:53:26Z</time>
      </trkpt>
      <trkpt lat="46.02192" lon="4.70744">
        <ele>180</ele>
        <time>2018-06-05T08:53:27Z</time>
      </trkpt>
      <trkpt lat="46.022" lon="4.70744">
        <ele>180</ele>
        <time>2018-06-05T08:53:28Z</time>
      </trkpt>
      <trkpt lat="46.02208" lon="4.70744">
        <ele>180</ele>
        <time>2018-06-05T08:53:29Z</time>
      </trkpt>
      <trkpt lat="46.02214" lon="4.70746">
        <ele>180</ele>
        <time>2018-06-05T08:53:30Z</time>
      </trkpt>
      <trkpt lat="46.0222" lon="4.70747">
        <ele>181</ele>
        <time>2018-06-05T08:53:31Z</time>
      </trkpt>
      <trkpt lat="46.02226" lon="4.70749">
        <ele>181</ele>
        <time>2018-06-05T08:53:32Z</time>
      </trkpt>
      <trkpt lat="46.02232" lon="4.70751">
        <ele>180</ele>
        <time>2018-06-05T08:53:33Z</time>
      </trkpt>
      <trkpt lat="46.02239" lon="4.70752">
        <ele>180</ele>
        <time>2018-06-05T08:53:34Z</time>
      </trkpt>
      <trkpt lat="46.02246" lon="4.70753">
        <ele>181</ele>
        <time>2018-06-05T08:53:35Z</time>
      </trkpt>
      <trkpt lat="46.02252" lon="4.70755">
        <ele>181</ele>
        <time>2018-06-05T08:53:36Z</time>
      </trkpt>
      <trkpt lat="46.0226" lon="4.70756">
        <ele>181</ele>
        <time>2018-06-05T08:53:37Z</time>
      </trkpt>
      <trkpt lat="46.02266" lon="4.70757">
        <ele>181</ele>
        <time>2018-06-05T08:53:38Z</time>
      </trkpt>
      <trkpt lat="46.02272" lon="4.70756">
        <ele>181</ele>
        <time>2018-06-05T08:53:39Z</time>
      </trkpt>
      <trkpt lat="46.02277" lon="4.70757">
        <ele>181</ele>
        <time>2018-06-05T08:53:40Z</time>
      </trkpt>
      <trkpt lat="46.02283" lon="4.70758">
        <ele>181</ele>
        <time>2018-06-05T08:53:41Z</time>
      </trkpt>
      <trkpt lat="46.02289" lon="4.70759">
        <ele>181</ele>
        <time>2018-06-05T08:53:42Z</time>
      </trkpt>
      <trkpt lat="46.02295" lon="4.70762">
        <ele>180</ele>
        <time>2018-06-05T08:53:43Z</time>
      </trkpt>
      <trkpt lat="46.023" lon="4.70763">
        <ele>180</ele>
        <time>2018-06-05T08:53:44Z</time>
      </trkpt>
      <trkpt lat="46.02305" lon="4.70764">
        <ele>180</ele>
        <time>2018-06-05T08:53:45Z</time>
      </trkpt>
      <trkpt lat="46.0231" lon="4.70765">
        <ele>180</ele>
        <time>2018-06-05T08:53:46Z</time>
      </trkpt>
      <trkpt lat="46.02315" lon="4.70766">
        <ele>180</ele>
        <time>2018-06-05T08:53:47Z</time>
      </trkpt>
      <trkpt lat="46.0232" lon="4.70769">
        <ele>180</ele>
        <time>2018-06-05T08:53:48Z</time>
      </trkpt>
      <trkpt lat="46.02325" lon="4.7077">
        <ele>180</ele>
        <time>2018-06-05T08:53:49Z</time>
      </trkpt>
      <trkpt lat="46.02329" lon="4.7077">
        <ele>180</ele>
        <time>2018-06-05T08:53:50Z</time>
      </trkpt>
      <trkpt lat="46.02334" lon="4.70772">
        <ele>182</ele>
        <time>2018-06-05T08:53:51Z</time>
      </trkpt>
      <trkpt lat="46.02338" lon="4.70772">
        <ele>182</ele>
        <time>2018-06-05T08:53:52Z</time>
      </trkpt>
      <trkpt lat="46.02343" lon="4.70771">
        <ele>182</ele>
        <time>2018-06-05T08:53:53Z</time>
      </trkpt>
      <trkpt lat="46.02347" lon="4.70772">
        <ele>182</ele>
        <time>2018-06-05T08:53:54Z</time>
      </trkpt>
      <trkpt lat="46.02355" lon="4.70776">
        <ele>183</ele>
        <time>2018-06-05T08:53:56Z</time>
      </trkpt>
      <trkpt lat="46.02359" lon="4.70777">
        <ele>183</ele>
        <time>2018-06-05T08:53:57Z</time>
      </trkpt>
      <trkpt lat="46.02367" lon="4.70778">
        <ele>183</ele>
        <time>2018-06-05T08:53:59Z</time>
      </trkpt>
      <trkpt lat="46.02372" lon="4.70777">
        <ele>184</ele>
        <time>2018-06-05T08:54:00Z</time>
      </trkpt>
      <trkpt lat="46.02379" lon="4.7078">
        <ele>184</ele>
        <time>2018-06-05T08:54:02Z</time>
      </trkpt>
      <trkpt lat="46.02383" lon="4.70782">
        <ele>184</ele>
        <time>2018-06-05T08:54:03Z</time>
      </trkpt>
      <trkpt lat="46.0239" lon="4.70784">
        <ele>184</ele>
        <time>2018-06-05T08:54:05Z</time>
      </trkpt>
      <trkpt lat="46.02392" lon="4.70784">
        <ele>184</ele>
        <time>2018-06-05T08:54:06Z</time>
      </trkpt>
      <trkpt lat="46.024" lon="4.70784">
        <ele>185</ele>
        <time>2018-06-05T08:54:09Z</time>
      </trkpt>
      <trkpt lat="46.02408" lon="4.70783">
        <ele>185</ele>
        <time>2018-06-05T08:54:10Z</time>
      </trkpt>
      <trkpt lat="46.02415" lon="4.70781">
        <ele>185</ele>
        <time>2018-06-05T08:54:12Z</time>
      </trkpt>
      <trkpt lat="46.02417" lon="4.7078">
        <ele>185</ele>
        <time>2018-06-05T08:54:13Z</time>
      </trkpt>
      <trkpt lat="46.02424" lon="4.70779">
        <ele>189</ele>
        <time>2018-06-05T08:54:16Z</time>
      </trkpt>
      <trkpt lat="46.02426" lon="4.70779">
        <ele>189</ele>
        <time>2018-06-05T08:54:17Z</time>
      </trkpt>
      <trkpt lat="46.02432" lon="4.70776">
        <ele>189</ele>
        <time>2018-06-05T08:54:19Z</time>
      </trkpt>
      <trkpt lat="46.02435" lon="4.70773">
        <ele>189</ele>
        <time>2018-06-05T08:54:20Z</time>
      </trkpt>
      <trkpt lat="46.02441" lon="4.70764">
        <ele>189</ele>
        <time>2018-06-05T08:54:21Z</time>
      </trkpt>
      <trkpt lat="46.02445" lon="4.70754">
        <ele>190</ele>
        <time>2018-06-05T08:54:23Z</time>
      </trkpt>
      <trkpt lat="46.02446" lon="4.70747">
        <ele>190</ele>
        <time>2018-06-05T08:54:24Z</time>
      </trkpt>
      <trkpt lat="46.02451" lon="4.70737">
        <ele>190</ele>
        <time>2018-06-05T08:54:26Z</time>
      </trkpt>
      <trkpt lat="46.02452" lon="4.70732">
        <ele>190</ele>
        <time>2018-06-05T08:54:27Z</time>
      </trkpt>
      <trkpt lat="46.02456" lon="4.70721">
        <ele>190</ele>
        <time>2018-06-05T08:54:30Z</time>
      </trkpt>
      <trkpt lat="46.02459" lon="4.70715">
        <ele>190</ele>
        <time>2018-06-05T08:54:31Z</time>
      </trkpt>
      <trkpt lat="46.02462" lon="4.70704">
        <ele>190</ele>
        <time>2018-06-05T08:54:33Z</time>
      </trkpt>
      <trkpt lat="46.02464" lon="4.70699">
        <ele>190</ele>
        <time>2018-06-05T08:54:34Z</time>
      </trkpt>
      <trkpt lat="46.02465" lon="4.70693">
        <ele>190</ele>
        <time>2018-06-05T08:54:35Z</time>
      </trkpt>
      <trkpt lat="46.02466" lon="4.70687">
        <ele>190</ele>
        <time>2018-06-05T08:54:36Z</time>
      </trkpt>
      <trkpt lat="46.02467" lon="4.70675">
        <ele>190</ele>
        <time>2018-06-05T08:54:38Z</time>
      </trkpt>
      <trkpt lat="46.02469" lon="4.70668">
        <ele>190</ele>
        <time>2018-06-05T08:54:39Z</time>
      </trkpt>
      <trkpt lat="46.02469" lon="4.70657">
        <ele>189</ele>
        <time>2018-06-05T08:54:41Z</time>
      </trkpt>
      <trkpt lat="46.02468" lon="4.70655">
        <ele>189</ele>
        <time>2018-06-05T08:54:42Z</time>
      </trkpt>
      <trkpt lat="46.0247" lon="4.70644">
        <ele>188</ele>
        <time>2018-06-05T08:56:04Z</time>
      </trkpt>
      <trkpt lat="46.02471" lon="4.70642">
        <ele>188</ele>
        <time>2018-06-05T08:56:05Z</time>
      </trkpt>
      <trkpt lat="46.02475" lon="4.70635">
        <ele>188</ele>
        <time>2018-06-05T08:56:08Z</time>
      </trkpt>
      <trkpt lat="46.02478" lon="4.70633">
        <ele>188</ele>
        <time>2018-06-05T08:56:09Z</time>
      </trkpt>
      <trkpt lat="46.02484" lon="4.70633">
        <ele>188</ele>
        <time>2018-06-05T08:56:11Z</time>
      </trkpt>
      <trkpt lat="46.02487" lon="4.70633">
        <ele>188</ele>
        <time>2018-06-05T08:56:12Z</time>
      </trkpt>
      <trkpt lat="46.02494" lon="4.70633">
        <ele>189</ele>
        <time>2018-06-05T08:56:14Z</time>
      </trkpt>
      <trkpt lat="46.02506" lon="4.70634">
        <ele>189</ele>
        <time>2018-06-05T08:56:15Z</time>
      </trkpt>
      <trkpt lat="46.02514" lon="4.70636">
        <ele>189</ele>
        <time>2018-06-05T08:56:17Z</time>
      </trkpt>
      <trkpt lat="46.02519" lon="4.70637">
        <ele>189</ele>
        <time>2018-06-05T08:56:18Z</time>
      </trkpt>
      <trkpt lat="46.02527" lon="4.70637">
        <ele>189</ele>
        <time>2018-06-05T08:56:20Z</time>
      </trkpt>
      <trkpt lat="46.02531" lon="4.70637">
        <ele>189</ele>
        <time>2018-06-05T08:56:21Z</time>
      </trkpt>
      <trkpt lat="46.02537" lon="4.70636">
        <ele>189</ele>
        <time>2018-06-05T08:56:22Z</time>
      </trkpt>
      <trkpt lat="46.02542" lon="4.70638">
        <ele>189</ele>
        <time>2018-06-05T08:56:23Z</time>
      </trkpt>
      <trkpt lat="46.02549" lon="4.70639">
        <ele>189</ele>
        <time>2018-06-05T08:56:24Z</time>
      </trkpt>
      <trkpt lat="46.02554" lon="4.70641">
        <ele>189</ele>
        <time>2018-06-05T08:56:25Z</time>
      </trkpt>
      <trkpt lat="46.02561" lon="4.70643">
        <ele>189</ele>
        <time>2018-06-05T08:56:26Z</time>
      </trkpt>
      <trkpt lat="46.02567" lon="4.70645">
        <ele>190</ele>
        <time>2018-06-05T08:56:27Z</time>
      </trkpt>
      <trkpt lat="46.02572" lon="4.70646">
        <ele>190</ele>
        <time>2018-06-05T08:56:28Z</time>
      </trkpt>
      <trkpt lat="46.02579" lon="4.70646">
        <ele>190</ele>
        <time>2018-06-05T08:56:29Z</time>
      </trkpt>
      <trkpt lat="46.02584" lon="4.70647">
        <ele>190</ele>
        <time>2018-06-05T08:56:30Z</time>
      </trkpt>
      <trkpt lat="46.0259" lon="4.70647">
        <ele>190</ele>
        <time>2018-06-05T08:56:31Z</time>
      </trkpt>
      <trkpt lat="46.02596" lon="4.70647">
        <ele>190</ele>
        <time>2018-06-05T08:56:32Z</time>
      </trkpt>
      <trkpt lat="46.02601" lon="4.70648">
        <ele>190</ele>
        <time>2018-06-05T08:56:33Z</time>
      </trkpt>
      <trkpt lat="46.02606" lon="4.7065">
        <ele>190</ele>
        <time>2018-06-05T08:56:34Z</time>
      </trkpt>
      <trkpt lat="46.02611" lon="4.70648">
        <ele>190</ele>
        <time>2018-06-05T08:56:35Z</time>
      </trkpt>
      <trkpt lat="46.02616" lon="4.70649">
        <ele>190</ele>
        <time>2018-06-05T08:56:36Z</time>
      </trkpt>
      <trkpt lat="46.02621" lon="4.70649">
        <ele>190</ele>
        <time>2018-06-05T08:56:37Z</time>
      </trkpt>
      <trkpt lat="46.02626" lon="4.7065">
        <ele>190</ele>
        <time>2018-06-05T08:56:38Z</time>
      </trkpt>
      <trkpt lat="46.02631" lon="4.70652">
        <ele>190</ele>
        <time>2018-06-05T08:56:39Z</time>
      </trkpt>
      <trkpt lat="46.02636" lon="4.70652">
        <ele>190</ele>
        <time>2018-06-05T08:56:40Z</time>
      </trkpt>
      <trkpt lat="46.02641" lon="4.70654">
        <ele>190</ele>
        <time>2018-06-05T08:56:41Z</time>
      </trkpt>
      <trkpt lat="46.02649" lon="4.70655">
        <ele>190</ele>
        <time>2018-06-05T08:56:43Z</time>
      </trkpt>
      <trkpt lat="46.02655" lon="4.70656">
        <ele>190</ele>
        <time>2018-06-05T08:56:44Z</time>
      </trkpt>
      <trkpt lat="46.0266" lon="4.70655">
        <ele>190</ele>
        <time>2018-06-05T08:56:45Z</time>
      </trkpt>
      <trkpt lat="46.02665" lon="4.70655">
        <ele>190</ele>
        <time>2018-06-05T08:56:46Z</time>
      </trkpt>
      <trkpt lat="46.0267" lon="4.70656">
        <ele>190</ele>
        <time>2018-06-05T08:56:47Z</time>
      </trkpt>
      <trkpt lat="46.02675" lon="4.70656">
        <ele>190</ele>
        <time>2018-06-05T08:56:48Z</time>
      </trkpt>
      <trkpt lat="46.02681" lon="4.70656">
        <ele>190</ele>
        <time>2018-06-05T08:56:49Z</time>
      </trkpt>
      <trkpt lat="46.02686" lon="4.70657">
        <ele>190</ele>
        <time>2018-06-05T08:56:50Z</time>
      </trkpt>
      <trkpt lat="46.0269" lon="4.70659">
        <ele>190</ele>
        <time>2018-06-05T08:56:51Z</time>
      </trkpt>
      <trkpt lat="46.02696" lon="4.70661">
        <ele>189</ele>
        <time>2018-06-05T08:56:52Z</time>
      </trkpt>
      <trkpt lat="46.02701" lon="4.70661">
        <ele>189</ele>
        <time>2018-06-05T08:56:53Z</time>
      </trkpt>
      <trkpt lat="46.02707" lon="4.70661">
        <ele>189</ele>
        <time>2018-06-05T08:56:54Z</time>
      </trkpt>
      <trkpt lat="46.02712" lon="4.70662">
        <ele>189</ele>
        <time>2018-06-05T08:56:55Z</time>
      </trkpt>
      <trkpt lat="46.02718" lon="4.70664">
        <ele>189</ele>
        <time>2018-06-05T08:56:56Z</time>
      </trkpt>
      <trkpt lat="46.02723" lon="4.70665">
        <ele>189</ele>
        <time>2018-06-05T08:56:57Z</time>
      </trkpt>
      <trkpt lat="46.02728" lon="4.70666">
        <ele>189</ele>
        <time>2018-06-05T08:56:58Z</time>
      </trkpt>
      <trkpt lat="46.02733" lon="4.70666">
        <ele>189</ele>
        <time>2018-06-05T08:56:59Z</time>
      </trkpt>
      <trkpt lat="46.02738" lon="4.70666">
        <ele>189</ele>
        <time>2018-06-05T08:57:00Z</time>
      </trkpt>
      <trkpt lat="46.02744" lon="4.70667">
        <ele>189</ele>
        <time>2018-06-05T08:57:01Z</time>
      </trkpt>
      <trkpt lat="46.0275" lon="4.70668">
        <ele>189</ele>
        <time>2018-06-05T08:57:02Z</time>
      </trkpt>
      <trkpt lat="46.02754" lon="4.70669">
        <ele>189</ele>
        <time>2018-06-05T08:57:03Z</time>
      </trkpt>
      <trkpt lat="46.0276" lon="4.70669">
        <ele>189</ele>
        <time>2018-06-05T08:57:04Z</time>
      </trkpt>
      <trkpt lat="46.02765" lon="4.70669">
        <ele>189</ele>
        <time>2018-06-05T08:57:05Z</time>
      </trkpt>
      <trkpt lat="46.0277" lon="4.70669">
        <ele>189</ele>
        <time>2018-06-05T08:57:06Z</time>
      </trkpt>
      <trkpt lat="46.02776" lon="4.70671">
        <ele>189</ele>
        <time>2018-06-05T08:57:07Z</time>
      </trkpt>
      <trkpt lat="46.02781" lon="4.70672">
        <ele>189</ele>
        <time>2018-06-05T08:57:08Z</time>
      </trkpt>
      <trkpt lat="46.02786" lon="4.70672">
        <ele>189</ele>
        <time>2018-06-05T08:57:09Z</time>
      </trkpt>
      <trkpt lat="46.02793" lon="4.70672">
        <ele>189</ele>
        <time>2018-06-05T08:57:10Z</time>
      </trkpt>
      <trkpt lat="46.02798" lon="4.70672">
        <ele>189</ele>
        <time>2018-06-05T08:57:11Z</time>
      </trkpt>
      <trkpt lat="46.02804" lon="4.70671">
        <ele>189</ele>
        <time>2018-06-05T08:57:12Z</time>
      </trkpt>
      <trkpt lat="46.02812" lon="4.7067">
        <ele>189</ele>
        <time>2018-06-05T08:57:14Z</time>
      </trkpt>
      <trkpt lat="46.02816" lon="4.70669">
        <ele>189</ele>
        <time>2018-06-05T08:57:15Z</time>
      </trkpt>
      <trkpt lat="46.02821" lon="4.70668">
        <ele>189</ele>
        <time>2018-06-05T08:57:16Z</time>
      </trkpt>
      <trkpt lat="46.02826" lon="4.70668">
        <ele>189</ele>
        <time>2018-06-05T08:57:17Z</time>
      </trkpt>
      <trkpt lat="46.02831" lon="4.70667">
        <ele>189</ele>
        <time>2018-06-05T08:57:18Z</time>
      </trkpt>
      <trkpt lat="46.02836" lon="4.70667">
        <ele>189</ele>
        <time>2018-06-05T08:57:19Z</time>
      </trkpt>
      <trkpt lat="46.02842" lon="4.70666">
        <ele>189</ele>
        <time>2018-06-05T08:57:20Z</time>
      </trkpt>
      <trkpt lat="46.02847" lon="4.70663">
        <ele>190</ele>
        <time>2018-06-05T08:57:21Z</time>
      </trkpt>
      <trkpt lat="46.02852" lon="4.70663">
        <ele>190</ele>
        <time>2018-06-05T08:57:22Z</time>
      </trkpt>
      <trkpt lat="46.02857" lon="4.70662">
        <ele>190</ele>
        <time>2018-06-05T08:57:23Z</time>
      </trkpt>
      <trkpt lat="46.02862" lon="4.70661">
        <ele>190</ele>
        <time>2018-06-05T08:57:24Z</time>
      </trkpt>
      <trkpt lat="46.02867" lon="4.70661">
        <ele>190</ele>
        <time>2018-06-05T08:57:25Z</time>
      </trkpt>
      <trkpt lat="46.02872" lon="4.7066">
        <ele>190</ele>
        <time>2018-06-05T08:57:26Z</time>
      </trkpt>
      <trkpt lat="46.02877" lon="4.70661">
        <ele>190</ele>
        <time>2018-06-05T08:57:27Z</time>
      </trkpt>
      <trkpt lat="46.02882" lon="4.70662">
        <ele>190</ele>
        <time>2018-06-05T08:57:28Z</time>
      </trkpt>
      <trkpt lat="46.02887" lon="4.70662">
        <ele>190</ele>
        <time>2018-06-05T08:57:29Z</time>
      </trkpt>
      <trkpt lat="46.02892" lon="4.70664">
        <ele>190</ele>
        <time>2018-06-05T08:57:30Z</time>
      </trkpt>
      <trkpt lat="46.02897" lon="4.70664">
        <ele>191</ele>
        <time>2018-06-05T08:57:31Z</time>
      </trkpt>
      <trkpt lat="46.02902" lon="4.70663">
        <ele>191</ele>
        <time>2018-06-05T08:57:32Z</time>
      </trkpt>
      <trkpt lat="46.02907" lon="4.70663">
        <ele>191</ele>
        <time>2018-06-05T08:57:33Z</time>
      </trkpt>
      <trkpt lat="46.02913" lon="4.70659">
        <ele>191</ele>
        <time>2018-06-05T08:57:34Z</time>
      </trkpt>
      <trkpt lat="46.02918" lon="4.70655">
        <ele>191</ele>
        <time>2018-06-05T08:57:35Z</time>
      </trkpt>
      <trkpt lat="46.02921" lon="4.70649">
        <ele>191</ele>
        <time>2018-06-05T08:57:36Z</time>
      </trkpt>
      <trkpt lat="46.02924" lon="4.70642">
        <ele>192</ele>
        <time>2018-06-05T08:57:37Z</time>
      </trkpt>
      <trkpt lat="46.02925" lon="4.70635">
        <ele>192</ele>
        <time>2018-06-05T08:57:38Z</time>
      </trkpt>
      <trkpt lat="46.02927" lon="4.70629">
        <ele>192</ele>
        <time>2018-06-05T08:57:39Z</time>
      </trkpt>
      <trkpt lat="46.02928" lon="4.70621">
        <ele>192</ele>
        <time>2018-06-05T08:57:40Z</time>
      </trkpt>
      <trkpt lat="46.0293" lon="4.70613">
        <ele>192</ele>
        <time>2018-06-05T08:57:41Z</time>
      </trkpt>
      <trkpt lat="46.02935" lon="4.70604">
        <ele>192</ele>
        <time>2018-06-05T08:57:42Z</time>
      </trkpt>
      <trkpt lat="46.02937" lon="4.70597">
        <ele>192</ele>
        <time>2018-06-05T08:57:43Z</time>
      </trkpt>
      <trkpt lat="46.0294" lon="4.7059">
        <ele>192</ele>
        <time>2018-06-05T08:57:44Z</time>
      </trkpt>
      <trkpt lat="46.02942" lon="4.70582">
        <ele>191</ele>
        <time>2018-06-05T08:57:45Z</time>
      </trkpt>
      <trkpt lat="46.02944" lon="4.70577">
        <ele>191</ele>
        <time>2018-06-05T08:57:46Z</time>
      </trkpt>
      <trkpt lat="46.02947" lon="4.7057">
        <ele>191</ele>
        <time>2018-06-05T08:57:47Z</time>
      </trkpt>
      <trkpt lat="46.02952" lon="4.70566">
        <ele>191</ele>
        <time>2018-06-05T08:57:48Z</time>
      </trkpt>
      <trkpt lat="46.02957" lon="4.70561">
        <ele>191</ele>
        <time>2018-06-05T08:57:49Z</time>
      </trkpt>
      <trkpt lat="46.02962" lon="4.70557">
        <ele>191</ele>
        <time>2018-06-05T08:57:50Z</time>
      </trkpt>
      <trkpt lat="46.02967" lon="4.70551">
        <ele>191</ele>
        <time>2018-06-05T08:57:51Z</time>
      </trkpt>
      <trkpt lat="46.02972" lon="4.70549">
        <ele>191</ele>
        <time>2018-06-05T08:57:52Z</time>
      </trkpt>
      <trkpt lat="46.02976" lon="4.70541">
        <ele>191</ele>
        <time>2018-06-05T08:57:53Z</time>
      </trkpt>
      <trkpt lat="46.02983" lon="4.70534">
        <ele>191</ele>
        <time>2018-06-05T08:57:55Z</time>
      </trkpt>
      <trkpt lat="46.02987" lon="4.70531">
        <ele>191</ele>
        <time>2018-06-05T08:57:56Z</time>
      </trkpt>
      <trkpt lat="46.0299" lon="4.70528">
        <ele>191</ele>
        <time>2018-06-05T08:57:57Z</time>
      </trkpt>
      <trkpt lat="46.02995" lon="4.70524">
        <ele>191</ele>
        <time>2018-06-05T08:57:58Z</time>
      </trkpt>
      <trkpt lat="46.02999" lon="4.70519">
        <ele>191</ele>
        <time>2018-06-05T08:57:59Z</time>
      </trkpt>
      <trkpt lat="46.03004" lon="4.70514">
        <ele>191</ele>
        <time>2018-06-05T08:58:00Z</time>
      </trkpt>
      <trkpt lat="46.03008" lon="4.70509">
        <ele>191</ele>
        <time>2018-06-05T08:58:01Z</time>
      </trkpt>
      <trkpt lat="46.03012" lon="4.70505">
        <ele>191</ele>
        <time>2018-06-05T08:58:02Z</time>
      </trkpt>
      <trkpt lat="46.03017" lon="4.70501">
        <ele>191</ele>
        <time>2018-06-05T08:58:03Z</time>
      </trkpt>
      <trkpt lat="46.0302" lon="4.70498">
        <ele>191</ele>
        <time>2018-06-05T08:58:04Z</time>
      </trkpt>
      <trkpt lat="46.03024" lon="4.70493">
        <ele>191</ele>
        <time>2018-06-05T08:58:05Z</time>
      </trkpt>
      <trkpt lat="46.03027" lon="4.70489">
        <ele>191</ele>
        <time>2018-06-05T08:58:06Z</time>
      </trkpt>
      <trkpt lat="46.03035" lon="4.70482">
        <ele>191</ele>
        <time>2018-06-05T08:58:08Z</time>
      </trkpt>
      <trkpt lat="46.0304" lon="4.70476">
        <ele>191</ele>
        <time>2018-06-05T08:58:09Z</time>
      </trkpt>
      <trkpt lat="46.03044" lon="4.70472">
        <ele>191</ele>
        <time>2018-06-05T08:58:10Z</time>
      </trkpt>
      <trkpt lat="46.03049" lon="4.70469">
        <ele>191</ele>
        <time>2018-06-05T08:58:11Z</time>
      </trkpt>
      <trkpt lat="46.03053" lon="4.70464">
        <ele>191</ele>
        <time>2018-06-05T08:58:12Z</time>
      </trkpt>
      <trkpt lat="46.03058" lon="4.70461">
        <ele>191</ele>
        <time>2018-06-05T08:58:13Z</time>
      </trkpt>
      <trkpt lat="46.03063" lon="4.70455">
        <ele>191</ele>
        <time>2018-06-05T08:58:14Z</time>
      </trkpt>
      <trkpt lat="46.03068" lon="4.70452">
        <ele>191</ele>
        <time>2018-06-05T08:58:15Z</time>
      </trkpt>
      <trkpt lat="46.03073" lon="4.70449">
        <ele>191</ele>
        <time>2018-06-05T08:58:16Z</time>
      </trkpt>
      <trkpt lat="46.03078" lon="4.70445">
        <ele>191</ele>
        <time>2018-06-05T08:58:17Z</time>
      </trkpt>
      <trkpt lat="46.03083" lon="4.70442">
        <ele>191</ele>
        <time>2018-06-05T08:58:18Z</time>
      </trkpt>
      <trkpt lat="46.03088" lon="4.70439">
        <ele>192</ele>
        <time>2018-06-05T08:58:19Z</time>
      </trkpt>
      <trkpt lat="46.03091" lon="4.70435">
        <ele>192</ele>
        <time>2018-06-05T08:58:20Z</time>
      </trkpt>
      <trkpt lat="46.03096" lon="4.70433">
        <ele>192</ele>
        <time>2018-06-05T08:58:21Z</time>
      </trkpt>
      <trkpt lat="46.03101" lon="4.7043">
        <ele>192</ele>
        <time>2018-06-05T08:58:22Z</time>
      </trkpt>
      <trkpt lat="46.03107" lon="4.70429">
        <ele>192</ele>
        <time>2018-06-05T08:58:23Z</time>
      </trkpt>
      <trkpt lat="46.03112" lon="4.70427">
        <ele>192</ele>
        <time>2018-06-05T08:58:24Z</time>
      </trkpt>
      <trkpt lat="46.03117" lon="4.70426">
        <ele>192</ele>
        <time>2018-06-05T08:58:25Z</time>
      </trkpt>
      <trkpt lat="46.03122" lon="4.70422">
        <ele>192</ele>
        <time>2018-06-05T08:58:26Z</time>
      </trkpt>
      <trkpt lat="46.03126" lon="4.7042">
        <ele>192</ele>
        <time>2018-06-05T08:58:27Z</time>
      </trkpt>
      <trkpt lat="46.03131" lon="4.70416">
        <ele>192</ele>
        <time>2018-06-05T08:58:28Z</time>
      </trkpt>
      <trkpt lat="46.03136" lon="4.70414">
        <ele>192</ele>
        <time>2018-06-05T08:58:29Z</time>
      </trkpt>
      <trkpt lat="46.03142" lon="4.70412">
        <ele>192</ele>
        <time>2018-06-05T08:58:30Z</time>
      </trkpt>
      <trkpt lat="46.03147" lon="4.70409">
        <ele>192</ele>
        <time>2018-06-05T08:58:31Z</time>
      </trkpt>
      <trkpt lat="46.03152" lon="4.70408">
        <ele>192</ele>
        <time>2018-06-05T08:58:32Z</time>
      </trkpt>
      <trkpt lat="46.03158" lon="4.70406">
        <ele>192</ele>
        <time>2018-06-05T08:58:33Z</time>
      </trkpt>
      <trkpt lat="46.03164" lon="4.70403">
        <ele>192</ele>
        <time>2018-06-05T08:58:34Z</time>
      </trkpt>
      <trkpt lat="46.0317" lon="4.704">
        <ele>192</ele>
        <time>2018-06-05T08:58:35Z</time>
      </trkpt>
      <trkpt lat="46.03175" lon="4.70397">
        <ele>192</ele>
        <time>2018-06-05T08:58:36Z</time>
      </trkpt>
      <trkpt lat="46.0318" lon="4.70396">
        <ele>192</ele>
        <time>2018-06-05T08:58:37Z</time>
      </trkpt>
      <trkpt lat="46.03185" lon="4.70393">
        <ele>192</ele>
        <time>2018-06-05T08:58:38Z</time>
      </trkpt>
      <trkpt lat="46.0319" lon="4.7039">
        <ele>192</ele>
        <time>2018-06-05T08:58:39Z</time>
      </trkpt>
      <trkpt lat="46.03196" lon="4.70388">
        <ele>192</ele>
        <time>2018-06-05T08:58:40Z</time>
      </trkpt>
      <trkpt lat="46.03201" lon="4.70386">
        <ele>192</ele>
        <time>2018-06-05T08:58:41Z</time>
      </trkpt>
      <trkpt lat="46.03206" lon="4.70384">
        <ele>192</ele>
        <time>2018-06-05T08:58:42Z</time>
      </trkpt>
      <trkpt lat="46.0321" lon="4.70382">
        <ele>192</ele>
        <time>2018-06-05T08:58:43Z</time>
      </trkpt>
      <trkpt lat="46.03216" lon="4.7038">
        <ele>192</ele>
        <time>2018-06-05T08:58:44Z</time>
      </trkpt>
      <trkpt lat="46.03221" lon="4.70377">
        <ele>192</ele>
        <time>2018-06-05T08:58:45Z</time>
      </trkpt>
      <trkpt lat="46.03226" lon="4.70375">
        <ele>192</ele>
        <time>2018-06-05T08:58:46Z</time>
      </trkpt>
      <trkpt lat="46.03231" lon="4.70374">
        <ele>192</ele>
        <time>2018-06-05T08:58:47Z</time>
      </trkpt>
      <trkpt lat="46.03236" lon="4.70372">
        <ele>192</ele>
        <time>2018-06-05T08:58:48Z</time>
      </trkpt>
      <trkpt lat="46.03242" lon="4.70369">
        <ele>192</ele>
        <time>2018-06-05T08:58:49Z</time>
      </trkpt>
      <trkpt lat="46.03247" lon="4.70366">
        <ele>192</ele>
        <time>2018-06-05T08:58:50Z</time>
      </trkpt>
      <trkpt lat="46.03253" lon="4.70363">
        <ele>191</ele>
        <time>2018-06-05T08:58:51Z</time>
      </trkpt>
      <trkpt lat="46.03258" lon="4.70361">
        <ele>191</ele>
        <time>2018-06-05T08:58:52Z</time>
      </trkpt>
      <trkpt lat="46.03263" lon="4.70359">
        <ele>191</ele>
        <time>2018-06-05T08:58:53Z</time>
      </trkpt>
      <trkpt lat="46.03268" lon="4.70357">
        <ele>191</ele>
        <time>2018-06-05T08:58:54Z</time>
      </trkpt>
      <trkpt lat="46.03275" lon="4.70355">
        <ele>191</ele>
        <time>2018-06-05T08:58:55Z</time>
      </trkpt>
      <trkpt lat="46.0328" lon="4.70353">
        <ele>191</ele>
        <time>2018-06-05T08:58:56Z</time>
      </trkpt>
      <trkpt lat="46.03285" lon="4.70352">
        <ele>191</ele>
        <time>2018-06-05T08:58:57Z</time>
      </trkpt>
      <trkpt lat="46.03291" lon="4.7035">
        <ele>191</ele>
        <time>2018-06-05T08:58:58Z</time>
      </trkpt>
      <trkpt lat="46.03298" lon="4.70349">
        <ele>191</ele>
        <time>2018-06-05T08:58:59Z</time>
      </trkpt>
      <trkpt lat="46.03303" lon="4.70347">
        <ele>191</ele>
        <time>2018-06-05T08:59:00Z</time>
      </trkpt>
      <trkpt lat="46.0331" lon="4.70345">
        <ele>191</ele>
        <time>2018-06-05T08:59:01Z</time>
      </trkpt>
      <trkpt lat="46.03318" lon="4.70343">
        <ele>191</ele>
        <time>2018-06-05T08:59:02Z</time>
      </trkpt>
      <trkpt lat="46.03325" lon="4.70342">
        <ele>191</ele>
        <time>2018-06-05T08:59:03Z</time>
      </trkpt>
      <trkpt lat="46.03332" lon="4.7034">
        <ele>191</ele>
        <time>2018-06-05T08:59:04Z</time>
      </trkpt>
      <trkpt lat="46.03339" lon="4.70337">
        <ele>190</ele>
        <time>2018-06-05T08:59:05Z</time>
      </trkpt>
      <trkpt lat="46.03346" lon="4.70335">
        <ele>190</ele>
        <time>2018-06-05T08:59:06Z</time>
      </trkpt>
      <trkpt lat="46.03354" lon="4.70331">
        <ele>191</ele>
        <time>2018-06-05T08:59:07Z</time>
      </trkpt>
      <trkpt lat="46.03362" lon="4.70328">
        <ele>191</ele>
        <time>2018-06-05T08:59:08Z</time>
      </trkpt>
      <trkpt lat="46.03369" lon="4.70326">
        <ele>191</ele>
        <time>2018-06-05T08:59:09Z</time>
      </trkpt>
      <trkpt lat="46.03375" lon="4.70323">
        <ele>191</ele>
        <time>2018-06-05T08:59:10Z</time>
      </trkpt>
      <trkpt lat="46.03382" lon="4.7032">
        <ele>191</ele>
        <time>2018-06-05T08:59:11Z</time>
      </trkpt>
      <trkpt lat="46.03388" lon="4.70316">
        <ele>190</ele>
        <time>2018-06-05T08:59:12Z</time>
      </trkpt>
      <trkpt lat="46.03396" lon="4.70314">
        <ele>190</ele>
        <time>2018-06-05T08:59:13Z</time>
      </trkpt>
      <trkpt lat="46.03402" lon="4.70311">
        <ele>190</ele>
        <time>2018-06-05T08:59:14Z</time>
      </trkpt>
      <trkpt lat="46.0341" lon="4.70308">
        <ele>190</ele>
        <time>2018-06-05T08:59:15Z</time>
      </trkpt>
      <trkpt lat="46.03417" lon="4.70304">
        <ele>188</ele>
        <time>2018-06-05T08:59:16Z</time>
      </trkpt>
      <trkpt lat="46.03424" lon="4.70302">
        <ele>188</ele>
        <time>2018-06-05T08:59:17Z</time>
      </trkpt>
      <trkpt lat="46.03432" lon="4.70302">
        <ele>188</ele>
        <time>2018-06-05T08:59:18Z</time>
      </trkpt>
      <trkpt lat="46.0344" lon="4.70299">
        <ele>188</ele>
        <time>2018-06-05T08:59:19Z</time>
      </trkpt>
      <trkpt lat="46.03449" lon="4.70296">
        <ele>188</ele>
        <time>2018-06-05T08:59:20Z</time>
      </trkpt>
      <trkpt lat="46.03456" lon="4.70294">
        <ele>188</ele>
        <time>2018-06-05T08:59:21Z</time>
      </trkpt>
      <trkpt lat="46.03464" lon="4.70294">
        <ele>188</ele>
        <time>2018-06-05T08:59:22Z</time>
      </trkpt>
      <trkpt lat="46.0347" lon="4.70292">
        <ele>188</ele>
        <time>2018-06-05T08:59:23Z</time>
      </trkpt>
      <trkpt lat="46.03477" lon="4.70289">
        <ele>188</ele>
        <time>2018-06-05T08:59:24Z</time>
      </trkpt>
      <trkpt lat="46.03487" lon="4.7029">
        <ele>188</ele>
        <time>2018-06-05T08:59:25Z</time>
      </trkpt>
      <trkpt lat="46.03495" lon="4.70288">
        <ele>188</ele>
        <time>2018-06-05T08:59:26Z</time>
      </trkpt>
      <trkpt lat="46.03503" lon="4.70284">
        <ele>187</ele>
        <time>2018-06-05T08:59:27Z</time>
      </trkpt>
      <trkpt lat="46.0351" lon="4.70278">
        <ele>187</ele>
        <time>2018-06-05T08:59:28Z</time>
      </trkpt>
      <trkpt lat="46.03517" lon="4.70275">
        <ele>187</ele>
        <time>2018-06-05T08:59:29Z</time>
      </trkpt>
      <trkpt lat="46.03525" lon="4.70273">
        <ele>187</ele>
        <time>2018-06-05T08:59:31Z</time>
      </trkpt>
      <trkpt lat="46.03531" lon="4.70271">
        <ele>187</ele>
        <time>2018-06-05T08:59:32Z</time>
      </trkpt>
      <trkpt lat="46.03535" lon="4.70268">
        <ele>187</ele>
        <time>2018-06-05T08:59:33Z</time>
      </trkpt>
      <trkpt lat="46.03539" lon="4.70267">
        <ele>188</ele>
        <time>2018-06-05T08:59:34Z</time>
      </trkpt>
      <trkpt lat="46.03543" lon="4.70263">
        <ele>188</ele>
        <time>2018-06-05T08:59:35Z</time>
      </trkpt>
      <trkpt lat="46.03549" lon="4.7026">
        <ele>188</ele>
        <time>2018-06-05T08:59:36Z</time>
      </trkpt>
      <trkpt lat="46.03554" lon="4.70258">
        <ele>188</ele>
        <time>2018-06-05T08:59:37Z</time>
      </trkpt>
      <trkpt lat="46.0356" lon="4.70257">
        <ele>188</ele>
        <time>2018-06-05T08:59:38Z</time>
      </trkpt>
      <trkpt lat="46.03566" lon="4.70253">
        <ele>189</ele>
        <time>2018-06-05T08:59:39Z</time>
      </trkpt>
      <trkpt lat="46.03572" lon="4.7025">
        <ele>189</ele>
        <time>2018-06-05T08:59:40Z</time>
      </trkpt>
      <trkpt lat="46.03578" lon="4.70249">
        <ele>190</ele>
        <time>2018-06-05T08:59:41Z</time>
      </trkpt>
      <trkpt lat="46.03583" lon="4.70246">
        <ele>190</ele>
        <time>2018-06-05T08:59:42Z</time>
      </trkpt>
      <trkpt lat="46.03589" lon="4.70245">
        <ele>190</ele>
        <time>2018-06-05T08:59:43Z</time>
      </trkpt>
      <trkpt lat="46.03593" lon="4.70238">
        <ele>190</ele>
        <time>2018-06-05T08:59:44Z</time>
      </trkpt>
      <trkpt lat="46.03598" lon="4.70235">
        <ele>190</ele>
        <time>2018-06-05T08:59:45Z</time>
      </trkpt>
      <trkpt lat="46.03603" lon="4.70233">
        <ele>190</ele>
        <time>2018-06-05T08:59:46Z</time>
      </trkpt>
      <trkpt lat="46.03609" lon="4.70232">
        <ele>190</ele>
        <time>2018-06-05T08:59:47Z</time>
      </trkpt>
      <trkpt lat="46.03613" lon="4.70228">
        <ele>190</ele>
        <time>2018-06-05T08:59:48Z</time>
      </trkpt>
      <trkpt lat="46.03619" lon="4.70225">
        <ele>190</ele>
        <time>2018-06-05T08:59:49Z</time>
      </trkpt>
      <trkpt lat="46.03625" lon="4.70223">
        <ele>190</ele>
        <time>2018-06-05T08:59:50Z</time>
      </trkpt>
      <trkpt lat="46.0363" lon="4.70222">
        <ele>190</ele>
        <time>2018-06-05T08:59:51Z</time>
      </trkpt>
      <trkpt lat="46.03634" lon="4.70219">
        <ele>190</ele>
        <time>2018-06-05T08:59:52Z</time>
      </trkpt>
      <trkpt lat="46.0364" lon="4.70218">
        <ele>190</ele>
        <time>2018-06-05T08:59:53Z</time>
      </trkpt>
      <trkpt lat="46.03645" lon="4.70215">
        <ele>190</ele>
        <time>2018-06-05T08:59:54Z</time>
      </trkpt>
      <trkpt lat="46.03651" lon="4.70212">
        <ele>190</ele>
        <time>2018-06-05T08:59:55Z</time>
      </trkpt>
      <trkpt lat="46.03657" lon="4.70209">
        <ele>190</ele>
        <time>2018-06-05T08:59:56Z</time>
      </trkpt>
      <trkpt lat="46.03663" lon="4.70206">
        <ele>190</ele>
        <time>2018-06-05T08:59:57Z</time>
      </trkpt>
      <trkpt lat="46.03669" lon="4.70208">
        <ele>189</ele>
        <time>2018-06-05T08:59:58Z</time>
      </trkpt>
      <trkpt lat="46.03675" lon="4.70208">
        <ele>189</ele>
        <time>2018-06-05T08:59:59Z</time>
      </trkpt>
      <trkpt lat="46.03682" lon="4.70207">
        <ele>189</ele>
        <time>2018-06-05T09:00:00Z</time>
      </trkpt>
      <trkpt lat="46.03687" lon="4.70204">
        <ele>189</ele>
        <time>2018-06-05T09:00:01Z</time>
      </trkpt>
      <trkpt lat="46.03694" lon="4.70203">
        <ele>188</ele>
        <time>2018-06-05T09:00:02Z</time>
      </trkpt>
      <trkpt lat="46.037" lon="4.702">
        <ele>188</ele>
        <time>2018-06-05T09:00:03Z</time>
      </trkpt>
      <trkpt lat="46.03707" lon="4.70199">
        <ele>188</ele>
        <time>2018-06-05T09:00:04Z</time>
      </trkpt>
      <trkpt lat="46.03714" lon="4.70195">
        <ele>188</ele>
        <time>2018-06-05T09:00:05Z</time>
      </trkpt>
      <trkpt lat="46.03721" lon="4.70192">
        <ele>188</ele>
        <time>2018-06-05T09:00:06Z</time>
      </trkpt>
      <trkpt lat="46.03728" lon="4.70189">
        <ele>188</ele>
        <time>2018-06-05T09:00:07Z</time>
      </trkpt>
      <trkpt lat="46.03735" lon="4.70187">
        <ele>188</ele>
        <time>2018-06-05T09:00:08Z</time>
      </trkpt>
      <trkpt lat="46.03741" lon="4.70184">
        <ele>188</ele>
        <time>2018-06-05T09:00:09Z</time>
      </trkpt>
      <trkpt lat="46.03748" lon="4.70182">
        <ele>187</ele>
        <time>2018-06-05T09:00:10Z</time>
      </trkpt>
      <trkpt lat="46.03755" lon="4.70178">
        <ele>188</ele>
        <time>2018-06-05T09:00:11Z</time>
      </trkpt>
      <trkpt lat="46.03759" lon="4.70176">
        <ele>188</ele>
        <time>2018-06-05T09:00:12Z</time>
      </trkpt>
      <trkpt lat="46.03766" lon="4.70173">
        <ele>188</ele>
        <time>2018-06-05T09:00:13Z</time>
      </trkpt>
      <trkpt lat="46.03773" lon="4.70171">
        <ele>189</ele>
        <time>2018-06-05T09:00:14Z</time>
      </trkpt>
      <trkpt lat="46.03779" lon="4.70171">
        <ele>189</ele>
        <time>2018-06-05T09:00:15Z</time>
      </trkpt>
      <trkpt lat="46.03783" lon="4.70169">
        <ele>189</ele>
        <time>2018-06-05T09:00:16Z</time>
      </trkpt>
      <trkpt lat="46.0379" lon="4.70169">
        <ele>189</ele>
        <time>2018-06-05T09:00:18Z</time>
      </trkpt>
      <trkpt lat="46.03796" lon="4.70167">
        <ele>190</ele>
        <time>2018-06-05T09:00:19Z</time>
      </trkpt>
      <trkpt lat="46.03802" lon="4.70164">
        <ele>190</ele>
        <time>2018-06-05T09:00:20Z</time>
      </trkpt>
      <trkpt lat="46.03808" lon="4.70161">
        <ele>190</ele>
        <time>2018-06-05T09:00:21Z</time>
      </trkpt>
      <trkpt lat="46.03814" lon="4.70159">
        <ele>190</ele>
        <time>2018-06-05T09:00:23Z</time>
      </trkpt>
      <trkpt lat="46.03819" lon="4.70159">
        <ele>190</ele>
        <time>2018-06-05T09:00:24Z</time>
      </trkpt>
      <trkpt lat="46.03822" lon="4.70158">
        <ele>191</ele>
        <time>2018-06-05T09:00:25Z</time>
      </trkpt>
      <trkpt lat="46.03829" lon="4.70155">
        <ele>191</ele>
        <time>2018-06-05T09:00:26Z</time>
      </trkpt>
      <trkpt lat="46.03835" lon="4.70154">
        <ele>192</ele>
        <time>2018-06-05T09:00:27Z</time>
      </trkpt>
      <trkpt lat="46.03842" lon="4.70153">
        <ele>192</ele>
        <time>2018-06-05T09:00:28Z</time>
      </trkpt>
      <trkpt lat="46.03848" lon="4.70146">
        <ele>193</ele>
        <time>2018-06-05T09:00:29Z</time>
      </trkpt>
      <trkpt lat="46.03856" lon="4.70145">
        <ele>193</ele>
        <time>2018-06-05T09:00:30Z</time>
      </trkpt>
      <trkpt lat="46.03864" lon="4.70144">
        <ele>193</ele>
        <time>2018-06-05T09:00:31Z</time>
      </trkpt>
      <trkpt lat="46.03869" lon="4.70143">
        <ele>193</ele>
        <time>2018-06-05T09:00:32Z</time>
      </trkpt>
      <trkpt lat="46.03874" lon="4.70143">
        <ele>193</ele>
        <time>2018-06-05T09:00:33Z</time>
      </trkpt>
      <trkpt lat="46.03879" lon="4.70143">
        <ele>193</ele>
        <time>2018-06-05T09:00:34Z</time>
      </trkpt>
      <trkpt lat="46.03885" lon="4.70142">
        <ele>194</ele>
        <time>2018-06-05T09:00:35Z</time>
      </trkpt>
      <trkpt lat="46.03891" lon="4.7014">
        <ele>194</ele>
        <time>2018-06-05T09:00:36Z</time>
      </trkpt>
      <trkpt lat="46.03898" lon="4.70133">
        <ele>194</ele>
        <time>2018-06-05T09:00:37Z</time>
      </trkpt>
      <trkpt lat="46.03903" lon="4.70131">
        <ele>194</ele>
        <time>2018-06-05T09:00:38Z</time>
      </trkpt>
      <trkpt lat="46.03909" lon="4.70126">
        <ele>194</ele>
        <time>2018-06-05T09:00:45Z</time>
      </trkpt>
      <trkpt lat="46.03909" lon="4.70127">
        <ele>194</ele>
        <time>2018-06-05T09:00:46Z</time>
      </trkpt>
      <trkpt lat="46.03909" lon="4.70126">
        <ele>194</ele>
        <time>2018-06-05T09:00:47Z</time>
      </trkpt>
      <trkpt lat="46.03916" lon="4.70118">
        <ele>194</ele>
        <time>2018-06-05T09:01:48Z</time>
      </trkpt>
      <trkpt lat="46.03917" lon="4.70118">
        <ele>196</ele>
        <time>2018-06-05T09:01:49Z</time>
      </trkpt>
      <trkpt lat="46.03925" lon="4.7012">
        <ele>196</ele>
        <time>2018-06-05T09:01:57Z</time>
      </trkpt>
      <trkpt lat="46.03927" lon="4.7012">
        <ele>196</ele>
        <time>2018-06-05T09:01:58Z</time>
      </trkpt>
      <trkpt lat="46.03935" lon="4.70117">
        <ele>196</ele>
        <time>2018-06-05T09:02:02Z</time>
      </trkpt>
      <trkpt lat="46.03938" lon="4.70116">
        <ele>196</ele>
        <time>2018-06-05T09:02:03Z</time>
      </trkpt>
      <trkpt lat="46.03945" lon="4.70113">
        <ele>196</ele>
        <time>2018-06-05T09:02:06Z</time>
      </trkpt>
      <trkpt lat="46.03947" lon="4.70113">
        <ele>196</ele>
        <time>2018-06-05T09:02:07Z</time>
      </trkpt>
      <trkpt lat="46.03955" lon="4.70111">
        <ele>196</ele>
        <time>2018-06-05T09:02:10Z</time>
      </trkpt>
      <trkpt lat="46.03957" lon="4.7011">
        <ele>196</ele>
        <time>2018-06-05T09:02:11Z</time>
      </trkpt>
      <trkpt lat="46.03963" lon="4.70108">
        <ele>196</ele>
        <time>2018-06-05T09:02:13Z</time>
      </trkpt>
      <trkpt lat="46.03977" lon="4.70099">
        <ele>196</ele>
        <time>2018-06-05T09:02:14Z</time>
      </trkpt>
      <trkpt lat="46.03982" lon="4.70097">
        <ele>196</ele>
        <time>2018-06-05T09:02:15Z</time>
      </trkpt>
      <trkpt lat="46.03987" lon="4.70097">
        <ele>196</ele>
        <time>2018-06-05T09:02:16Z</time>
      </trkpt>
      <trkpt lat="46.03992" lon="4.70097">
        <ele>196</ele>
        <time>2018-06-05T09:02:17Z</time>
      </trkpt>
      <trkpt lat="46.03998" lon="4.70097">
        <ele>196</ele>
        <time>2018-06-05T09:02:18Z</time>
      </trkpt>
      <trkpt lat="46.04004" lon="4.70095">
        <ele>196</ele>
        <time>2018-06-05T09:02:20Z</time>
      </trkpt>
      <trkpt lat="46.0401" lon="4.70095">
        <ele>196</ele>
        <time>2018-06-05T09:02:21Z</time>
      </trkpt>
      <trkpt lat="46.04015" lon="4.70093">
        <ele>195</ele>
        <time>2018-06-05T09:02:22Z</time>
      </trkpt>
      <trkpt lat="46.0402" lon="4.70092">
        <ele>195</ele>
        <time>2018-06-05T09:02:23Z</time>
      </trkpt>
      <trkpt lat="46.04027" lon="4.70091">
        <ele>195</ele>
        <time>2018-06-05T09:02:24Z</time>
      </trkpt>
      <trkpt lat="46.04032" lon="4.70094">
        <ele>195</ele>
        <time>2018-06-05T09:02:25Z</time>
      </trkpt>
      <trkpt lat="46.04039" lon="4.70093">
        <ele>195</ele>
        <time>2018-06-05T09:02:26Z</time>
      </trkpt>
      <trkpt lat="46.04044" lon="4.70092">
        <ele>195</ele>
        <time>2018-06-05T09:02:27Z</time>
      </trkpt>
      <trkpt lat="46.04049" lon="4.70094">
        <ele>195</ele>
        <time>2018-06-05T09:02:28Z</time>
      </trkpt>
      <trkpt lat="46.04053" lon="4.70097">
        <ele>195</ele>
        <time>2018-06-05T09:02:29Z</time>
      </trkpt>
      <trkpt lat="46.04059" lon="4.70097">
        <ele>195</ele>
        <time>2018-06-05T09:02:30Z</time>
      </trkpt>
      <trkpt lat="46.04065" lon="4.70096">
        <ele>195</ele>
        <time>2018-06-05T09:02:31Z</time>
      </trkpt>
      <trkpt lat="46.04069" lon="4.70096">
        <ele>195</ele>
        <time>2018-06-05T09:02:32Z</time>
      </trkpt>
      <trkpt lat="46.04076" lon="4.70096">
        <ele>194</ele>
        <time>2018-06-05T09:02:33Z</time>
      </trkpt>
      <trkpt lat="46.0408" lon="4.70097">
        <ele>194</ele>
        <time>2018-06-05T09:02:34Z</time>
      </trkpt>
      <trkpt lat="46.04086" lon="4.70095">
        <ele>193</ele>
        <time>2018-06-05T09:02:35Z</time>
      </trkpt>
      <trkpt lat="46.04091" lon="4.70092">
        <ele>193</ele>
        <time>2018-06-05T09:02:36Z</time>
      </trkpt>
      <trkpt lat="46.04096" lon="4.70089">
        <ele>193</ele>
        <time>2018-06-05T09:02:37Z</time>
      </trkpt>
      <trkpt lat="46.04102" lon="4.70091">
        <ele>193</ele>
        <time>2018-06-05T09:02:38Z</time>
      </trkpt>
      <trkpt lat="46.04106" lon="4.70087">
        <ele>192</ele>
        <time>2018-06-05T09:02:39Z</time>
      </trkpt>
      <trkpt lat="46.04108" lon="4.70081">
        <ele>193</ele>
        <time>2018-06-05T09:02:40Z</time>
      </trkpt>
      <trkpt lat="46.04113" lon="4.70076">
        <ele>192</ele>
        <time>2018-06-05T09:02:41Z</time>
      </trkpt>
      <trkpt lat="46.04117" lon="4.70072">
        <ele>192</ele>
        <time>2018-06-05T09:02:42Z</time>
      </trkpt>
      <trkpt lat="46.04123" lon="4.7007">
        <ele>192</ele>
        <time>2018-06-05T09:02:43Z</time>
      </trkpt>
      <trkpt lat="46.04127" lon="4.70066">
        <ele>192</ele>
        <time>2018-06-05T09:02:44Z</time>
      </trkpt>
      <trkpt lat="46.04134" lon="4.70062">
        <ele>192</ele>
        <time>2018-06-05T09:02:45Z</time>
      </trkpt>
      <trkpt lat="46.0414" lon="4.70062">
        <ele>192</ele>
        <time>2018-06-05T09:02:46Z</time>
      </trkpt>
      <trkpt lat="46.04144" lon="4.70057">
        <ele>191</ele>
        <time>2018-06-05T09:02:47Z</time>
      </trkpt>
      <trkpt lat="46.04149" lon="4.70052">
        <ele>191</ele>
        <time>2018-06-05T09:02:48Z</time>
      </trkpt>
      <trkpt lat="46.04157" lon="4.70048">
        <ele>191</ele>
        <time>2018-06-05T09:02:49Z</time>
      </trkpt>
      <trkpt lat="46.04162" lon="4.70043">
        <ele>191</ele>
        <time>2018-06-05T09:02:50Z</time>
      </trkpt>
      <trkpt lat="46.04168" lon="4.70043">
        <ele>189</ele>
        <time>2018-06-05T09:02:51Z</time>
      </trkpt>
      <trkpt lat="46.04174" lon="4.7004">
        <ele>189</ele>
        <time>2018-06-05T09:02:52Z</time>
      </trkpt>
      <trkpt lat="46.0418" lon="4.70035">
        <ele>189</ele>
        <time>2018-06-05T09:02:53Z</time>
      </trkpt>
      <trkpt lat="46.04186" lon="4.7003">
        <ele>189</ele>
        <time>2018-06-05T09:02:55Z</time>
      </trkpt>
      <trkpt lat="46.04191" lon="4.70025">
        <ele>188</ele>
        <time>2018-06-05T09:02:56Z</time>
      </trkpt>
      <trkpt lat="46.04196" lon="4.70021">
        <ele>188</ele>
        <time>2018-06-05T09:02:57Z</time>
      </trkpt>
      <trkpt lat="46.04201" lon="4.70018">
        <ele>188</ele>
        <time>2018-06-05T09:02:58Z</time>
      </trkpt>
      <trkpt lat="46.04205" lon="4.70014">
        <ele>188</ele>
        <time>2018-06-05T09:02:59Z</time>
      </trkpt>
      <trkpt lat="46.0421" lon="4.70008">
        <ele>188</ele>
        <time>2018-06-05T09:03:00Z</time>
      </trkpt>
      <trkpt lat="46.04215" lon="4.70002">
        <ele>188</ele>
        <time>2018-06-05T09:03:01Z</time>
      </trkpt>
      <trkpt lat="46.04221" lon="4.69994">
        <ele>188</ele>
        <time>2018-06-05T09:03:02Z</time>
      </trkpt>
      <trkpt lat="46.04225" lon="4.69989">
        <ele>188</ele>
        <time>2018-06-05T09:03:03Z</time>
      </trkpt>
      <trkpt lat="46.04229" lon="4.69987">
        <ele>188</ele>
        <time>2018-06-05T09:03:04Z</time>
      </trkpt>
      <trkpt lat="46.04233" lon="4.69982">
        <ele>188</ele>
        <time>2018-06-05T09:03:05Z</time>
      </trkpt>
      <trkpt lat="46.04238" lon="4.69979">
        <ele>188</ele>
        <time>2018-06-05T09:03:06Z</time>
      </trkpt>
      <trkpt lat="46.04242" lon="4.69974">
        <ele>188</ele>
        <time>2018-06-05T09:03:07Z</time>
      </trkpt>
      <trkpt lat="46.04246" lon="4.69969">
        <ele>188</ele>
        <time>2018-06-05T09:03:08Z</time>
      </trkpt>
      <trkpt lat="46.04251" lon="4.69965">
        <ele>188</ele>
        <time>2018-06-05T09:03:09Z</time>
      </trkpt>
      <trkpt lat="46.04255" lon="4.69959">
        <ele>188</ele>
        <time>2018-06-05T09:03:10Z</time>
      </trkpt>
      <trkpt lat="46.04259" lon="4.69955">
        <ele>188</ele>
        <time>2018-06-05T09:03:11Z</time>
      </trkpt>
      <trkpt lat="46.04265" lon="4.69951">
        <ele>188</ele>
        <time>2018-06-05T09:03:12Z</time>
      </trkpt>
      <trkpt lat="46.04269" lon="4.69947">
        <ele>189</ele>
        <time>2018-06-05T09:03:13Z</time>
      </trkpt>
      <trkpt lat="46.04273" lon="4.69942">
        <ele>189</ele>
        <time>2018-06-05T09:03:14Z</time>
      </trkpt>
      <trkpt lat="46.04277" lon="4.69937">
        <ele>189</ele>
        <time>2018-06-05T09:03:15Z</time>
      </trkpt>
      <trkpt lat="46.04281" lon="4.69933">
        <ele>189</ele>
        <time>2018-06-05T09:03:16Z</time>
      </trkpt>
      <trkpt lat="46.04285" lon="4.69929">
        <ele>189</ele>
        <time>2018-06-05T09:03:17Z</time>
      </trkpt>
      <trkpt lat="46.0429" lon="4.69924">
        <ele>189</ele>
        <time>2018-06-05T09:03:18Z</time>
      </trkpt>
      <trkpt lat="46.04294" lon="4.69919">
        <ele>189</ele>
        <time>2018-06-05T09:03:19Z</time>
      </trkpt>
      <trkpt lat="46.04297" lon="4.69915">
        <ele>190</ele>
        <time>2018-06-05T09:03:20Z</time>
      </trkpt>
      <trkpt lat="46.04301" lon="4.6991">
        <ele>190</ele>
        <time>2018-06-05T09:03:21Z</time>
      </trkpt>
      <trkpt lat="46.04304" lon="4.69905">
        <ele>190</ele>
        <time>2018-06-05T09:03:22Z</time>
      </trkpt>
      <trkpt lat="46.04307" lon="4.69901">
        <ele>190</ele>
        <time>2018-06-05T09:03:23Z</time>
      </trkpt>
      <trkpt lat="46.0431" lon="4.69895">
        <ele>190</ele>
        <time>2018-06-05T09:03:24Z</time>
      </trkpt>
      <trkpt lat="46.04312" lon="4.6989">
        <ele>190</ele>
        <time>2018-06-05T09:03:25Z</time>
      </trkpt>
      <trkpt lat="46.04315" lon="4.69884">
        <ele>190</ele>
        <time>2018-06-05T09:03:26Z</time>
      </trkpt>
      <trkpt lat="46.04318" lon="4.69876">
        <ele>190</ele>
        <time>2018-06-05T09:03:27Z</time>
      </trkpt>
      <trkpt lat="46.04321" lon="4.69871">
        <ele>191</ele>
        <time>2018-06-05T09:03:28Z</time>
      </trkpt>
      <trkpt lat="46.04324" lon="4.69864">
        <ele>191</ele>
        <time>2018-06-05T09:03:29Z</time>
      </trkpt>
      <trkpt lat="46.04327" lon="4.69861">
        <ele>191</ele>
        <time>2018-06-05T09:03:30Z</time>
      </trkpt>
      <trkpt lat="46.04333" lon="4.69851">
        <ele>191</ele>
        <time>2018-06-05T09:03:32Z</time>
      </trkpt>
      <trkpt lat="46.04337" lon="4.69847">
        <ele>192</ele>
        <time>2018-06-05T09:03:33Z</time>
      </trkpt>
      <trkpt lat="46.04343" lon="4.69843">
        <ele>192</ele>
        <time>2018-06-05T09:03:35Z</time>
      </trkpt>
      <trkpt lat="46.04348" lon="4.6984">
        <ele>192</ele>
        <time>2018-06-05T09:03:36Z</time>
      </trkpt>
      <trkpt lat="46.04354" lon="4.69835">
        <ele>193</ele>
        <time>2018-06-05T09:03:38Z</time>
      </trkpt>
      <trkpt lat="46.04357" lon="4.69832">
        <ele>193</ele>
        <time>2018-06-05T09:03:39Z</time>
      </trkpt>
      <trkpt lat="46.04364" lon="4.69828">
        <ele>193</ele>
        <time>2018-06-05T09:03:41Z</time>
      </trkpt>
      <trkpt lat="46.04368" lon="4.69826">
        <ele>193</ele>
        <time>2018-06-05T09:03:42Z</time>
      </trkpt>
      <trkpt lat="46.04375" lon="4.69824">
        <ele>194</ele>
        <time>2018-06-05T09:03:44Z</time>
      </trkpt>
      <trkpt lat="46.04377" lon="4.69823">
        <ele>194</ele>
        <time>2018-06-05T09:03:45Z</time>
      </trkpt>
      <trkpt lat="46.04385" lon="4.69819">
        <ele>194</ele>
        <time>2018-06-05T09:03:48Z</time>
      </trkpt>
      <trkpt lat="46.04388" lon="4.69818">
        <ele>194</ele>
        <time>2018-06-05T09:03:49Z</time>
      </trkpt>
      <trkpt lat="46.04393" lon="4.69815">
        <ele>194</ele>
        <time>2018-06-05T09:03:51Z</time>
      </trkpt>
      <trkpt lat="46.04397" lon="4.69814">
        <ele>194</ele>
        <time>2018-06-05T09:03:52Z</time>
      </trkpt>
      <trkpt lat="46.04403" lon="4.69812">
        <ele>194</ele>
        <time>2018-06-05T09:03:54Z</time>
      </trkpt>
      <trkpt lat="46.04406" lon="4.69812">
        <ele>194</ele>
        <time>2018-06-05T09:03:55Z</time>
      </trkpt>
      <trkpt lat="46.04416" lon="4.69809">
        <ele>194</ele>
        <time>2018-06-05T09:03:56Z</time>
      </trkpt>
      <trkpt lat="46.04423" lon="4.69807">
        <ele>196</ele>
        <time>2018-06-05T09:03:58Z</time>
      </trkpt>
      <trkpt lat="46.04427" lon="4.69806">
        <ele>196</ele>
        <time>2018-06-05T09:03:59Z</time>
      </trkpt>
      <trkpt lat="46.04434" lon="4.69804">
        <ele>196</ele>
        <time>2018-06-05T09:04:01Z</time>
      </trkpt>
      <trkpt lat="46.04438" lon="4.69803">
        <ele>196</ele>
        <time>2018-06-05T09:04:02Z</time>
      </trkpt>
      <trkpt lat="46.04445" lon="4.69801">
        <ele>196</ele>
        <time>2018-06-05T09:04:04Z</time>
      </trkpt>
      <trkpt lat="46.04449" lon="4.698">
        <ele>196</ele>
        <time>2018-06-05T09:04:05Z</time>
      </trkpt>
      <trkpt lat="46.04457" lon="4.69798">
        <ele>196</ele>
        <time>2018-06-05T09:04:07Z</time>
      </trkpt>
      <trkpt lat="46.04461" lon="4.69797">
        <ele>197</ele>
        <time>2018-06-05T09:04:08Z</time>
      </trkpt>
      <trkpt lat="46.04469" lon="4.69795">
        <ele>197</ele>
        <time>2018-06-05T09:04:10Z</time>
      </trkpt>
      <trkpt lat="46.04472" lon="4.69795">
        <ele>197</ele>
        <time>2018-06-05T09:04:11Z</time>
      </trkpt>
      <trkpt lat="46.0448" lon="4.69793">
        <ele>197</ele>
        <time>2018-06-05T09:04:13Z</time>
      </trkpt>
      <trkpt lat="46.04484" lon="4.69792">
        <ele>197</ele>
        <time>2018-06-05T09:04:14Z</time>
      </trkpt>
      <trkpt lat="46.04492" lon="4.69791">
        <ele>197</ele>
        <time>2018-06-05T09:04:16Z</time>
      </trkpt>
      <trkpt lat="46.04495" lon="4.6979">
        <ele>197</ele>
        <time>2018-06-05T09:04:17Z</time>
      </trkpt>
      <trkpt lat="46.045" lon="4.6979">
        <ele>197</ele>
        <time>2018-06-05T09:04:19Z</time>
      </trkpt>
      <trkpt lat="46.04506" lon="4.69791">
        <ele>199</ele>
        <time>2018-06-05T09:04:20Z</time>
      </trkpt>
      <trkpt lat="46.04511" lon="4.69791">
        <ele>199</ele>
        <time>2018-06-05T09:04:22Z</time>
      </trkpt>
      <trkpt lat="46.04517" lon="4.69793">
        <ele>199</ele>
        <time>2018-06-05T09:04:23Z</time>
      </trkpt>
      <trkpt lat="46.04524" lon="4.69794">
        <ele>199</ele>
        <time>2018-06-05T09:04:25Z</time>
      </trkpt>
      <trkpt lat="46.04528" lon="4.69795">
        <ele>199</ele>
        <time>2018-06-05T09:04:26Z</time>
      </trkpt>
      <trkpt lat="46.04536" lon="4.69796">
        <ele>199</ele>
        <time>2018-06-05T09:04:28Z</time>
      </trkpt>
      <trkpt lat="46.0454" lon="4.69797">
        <ele>199</ele>
        <time>2018-06-05T09:04:29Z</time>
      </trkpt>
      <trkpt lat="46.04548" lon="4.69798">
        <ele>199</ele>
        <time>2018-06-05T09:04:31Z</time>
      </trkpt>
      <trkpt lat="46.04552" lon="4.69799">
        <ele>199</ele>
        <time>2018-06-05T09:04:32Z</time>
      </trkpt>
      <trkpt lat="46.04556" lon="4.698">
        <ele>199</ele>
        <time>2018-06-05T09:04:33Z</time>
      </trkpt>
      <trkpt lat="46.04561" lon="4.69801">
        <ele>199</ele>
        <time>2018-06-05T09:04:34Z</time>
      </trkpt>
      <trkpt lat="46.04566" lon="4.69802">
        <ele>200</ele>
        <time>2018-06-05T09:04:35Z</time>
      </trkpt>
      <trkpt lat="46.04571" lon="4.69803">
        <ele>200</ele>
        <time>2018-06-05T09:04:36Z</time>
      </trkpt>
      <trkpt lat="46.04579" lon="4.69806">
        <ele>200</ele>
        <time>2018-06-05T09:04:38Z</time>
      </trkpt>
      <trkpt lat="46.04583" lon="4.69808">
        <ele>200</ele>
        <time>2018-06-05T09:04:39Z</time>
      </trkpt>
      <trkpt lat="46.04591" lon="4.69812">
        <ele>201</ele>
        <time>2018-06-05T09:04:41Z</time>
      </trkpt>
      <trkpt lat="46.04596" lon="4.69813">
        <ele>201</ele>
        <time>2018-06-05T09:04:42Z</time>
      </trkpt>
      <trkpt lat="46.04601" lon="4.69813">
        <ele>201</ele>
        <time>2018-06-05T09:04:43Z</time>
      </trkpt>
      <trkpt lat="46.04605" lon="4.69815">
        <ele>201</ele>
        <time>2018-06-05T09:04:44Z</time>
      </trkpt>
      <trkpt lat="46.04609" lon="4.69817">
        <ele>201</ele>
        <time>2018-06-05T09:04:45Z</time>
      </trkpt>
      <trkpt lat="46.04613" lon="4.69819">
        <ele>201</ele>
        <time>2018-06-05T09:04:46Z</time>
      </trkpt>
      <trkpt lat="46.04619" lon="4.69821">
        <ele>202</ele>
        <time>2018-06-05T09:04:47Z</time>
      </trkpt>
      <trkpt lat="46.04623" lon="4.69822">
        <ele>202</ele>
        <time>2018-06-05T09:04:48Z</time>
      </trkpt>
      <trkpt lat="46.04628" lon="4.69822">
        <ele>202</ele>
        <time>2018-06-05T09:04:49Z</time>
      </trkpt>
      <trkpt lat="46.04632" lon="4.69824">
        <ele>202</ele>
        <time>2018-06-05T09:04:50Z</time>
      </trkpt>
      <trkpt lat="46.0464" lon="4.69827">
        <ele>202</ele>
        <time>2018-06-05T09:04:52Z</time>
      </trkpt>
      <trkpt lat="46.04645" lon="4.69828">
        <ele>202</ele>
        <time>2018-06-05T09:04:53Z</time>
      </trkpt>
      <trkpt lat="46.04649" lon="4.6983">
        <ele>202</ele>
        <time>2018-06-05T09:04:54Z</time>
      </trkpt>
      <trkpt lat="46.04654" lon="4.69829">
        <ele>202</ele>
        <time>2018-06-05T09:04:55Z</time>
      </trkpt>
      <trkpt lat="46.04662" lon="4.69833">
        <ele>203</ele>
        <time>2018-06-05T09:04:57Z</time>
      </trkpt>
      <trkpt lat="46.04666" lon="4.69834">
        <ele>203</ele>
        <time>2018-06-05T09:04:58Z</time>
      </trkpt>
      <trkpt lat="46.04671" lon="4.69835">
        <ele>203</ele>
        <time>2018-06-05T09:04:59Z</time>
      </trkpt>
      <trkpt lat="46.04675" lon="4.69834">
        <ele>203</ele>
        <time>2018-06-05T09:05:00Z</time>
      </trkpt>
      <trkpt lat="46.04679" lon="4.69835">
        <ele>203</ele>
        <time>2018-06-05T09:05:01Z</time>
      </trkpt>
      <trkpt lat="46.04684" lon="4.69837">
        <ele>202</ele>
        <time>2018-06-05T09:05:02Z</time>
      </trkpt>
      <trkpt lat="46.0469" lon="4.69838">
        <ele>202</ele>
        <time>2018-06-05T09:05:03Z</time>
      </trkpt>
      <trkpt lat="46.04695" lon="4.69839">
        <ele>202</ele>
        <time>2018-06-05T09:05:04Z</time>
      </trkpt>
      <trkpt lat="46.047" lon="4.6984">
        <ele>202</ele>
        <time>2018-06-05T09:05:05Z</time>
      </trkpt>
      <trkpt lat="46.04705" lon="4.69842">
        <ele>202</ele>
        <time>2018-06-05T09:05:06Z</time>
      </trkpt>
      <trkpt lat="46.04709" lon="4.69843">
        <ele>203</ele>
        <time>2018-06-05T09:05:07Z</time>
      </trkpt>
      <trkpt lat="46.04714" lon="4.69844">
        <ele>203</ele>
        <time>2018-06-05T09:05:08Z</time>
      </trkpt>
      <trkpt lat="46.04718" lon="4.69845">
        <ele>203</ele>
        <time>2018-06-05T09:05:09Z</time>
      </trkpt>
      <trkpt lat="46.04723" lon="4.69844">
        <ele>203</ele>
        <time>2018-06-05T09:05:10Z</time>
      </trkpt>
      <trkpt lat="46.04728" lon="4.69844">
        <ele>203</ele>
        <time>2018-06-05T09:05:11Z</time>
      </trkpt>
      <trkpt lat="46.04732" lon="4.69844">
        <ele>203</ele>
        <time>2018-06-05T09:05:12Z</time>
      </trkpt>
      <trkpt lat="46.04738" lon="4.69843">
        <ele>204</ele>
        <time>2018-06-05T09:05:13Z</time>
      </trkpt>
      <trkpt lat="46.04743" lon="4.69845">
        <ele>204</ele>
        <time>2018-06-05T09:05:14Z</time>
      </trkpt>
      <trkpt lat="46.04747" lon="4.69845">
        <ele>204</ele>
        <time>2018-06-05T09:05:15Z</time>
      </trkpt>
      <trkpt lat="46.04752" lon="4.69844">
        <ele>205</ele>
        <time>2018-06-05T09:05:16Z</time>
      </trkpt>
      <trkpt lat="46.04757" lon="4.69843">
        <ele>205</ele>
        <time>2018-06-05T09:05:17Z</time>
      </trkpt>
      <trkpt lat="46.04762" lon="4.69844">
        <ele>205</ele>
        <time>2018-06-05T09:05:18Z</time>
      </trkpt>
      <trkpt lat="46.04768" lon="4.69845">
        <ele>204</ele>
        <time>2018-06-05T09:05:20Z</time>
      </trkpt>
      <trkpt lat="46.04774" lon="4.69845">
        <ele>204</ele>
        <time>2018-06-05T09:05:21Z</time>
      </trkpt>
      <trkpt lat="46.04779" lon="4.69846">
        <ele>204</ele>
        <time>2018-06-05T09:05:22Z</time>
      </trkpt>
      <trkpt lat="46.04784" lon="4.69845">
        <ele>205</ele>
        <time>2018-06-05T09:05:23Z</time>
      </trkpt>
      <trkpt lat="46.04789" lon="4.69843">
        <ele>205</ele>
        <time>2018-06-05T09:05:24Z</time>
      </trkpt>
      <trkpt lat="46.04794" lon="4.69844">
        <ele>205</ele>
        <time>2018-06-05T09:05:25Z</time>
      </trkpt>
      <trkpt lat="46.04798" lon="4.69838">
        <ele>205</ele>
        <time>2018-06-05T09:05:27Z</time>
      </trkpt>
      <trkpt lat="46.048" lon="4.69831">
        <ele>206</ele>
        <time>2018-06-05T09:05:28Z</time>
      </trkpt>
      <trkpt lat="46.04801" lon="4.69821">
        <ele>206</ele>
        <time>2018-06-05T09:05:30Z</time>
      </trkpt>
      <trkpt lat="46.04802" lon="4.69819">
        <ele>206</ele>
        <time>2018-06-05T09:05:31Z</time>
      </trkpt>
      <trkpt lat="46.04809" lon="4.69813">
        <ele>206</ele>
        <time>2018-06-05T09:05:34Z</time>
      </trkpt>
      <trkpt lat="46.04811" lon="4.69813">
        <ele>206</ele>
        <time>2018-06-05T09:05:35Z</time>
      </trkpt>
      <trkpt lat="46.04816" lon="4.69815">
        <ele>207</ele>
        <time>2018-06-05T09:05:37Z</time>
      </trkpt>
      <trkpt lat="46.04823" lon="4.6982">
        <ele>207</ele>
        <time>2018-06-05T09:05:38Z</time>
      </trkpt>
      <trkpt lat="46.0483" lon="4.69823">
        <ele>207</ele>
        <time>2018-06-05T09:05:40Z</time>
      </trkpt>
      <trkpt lat="46.04833" lon="4.69824">
        <ele>207</ele>
        <time>2018-06-05T09:05:41Z</time>
      </trkpt>
      <trkpt lat="46.04841" lon="4.69826">
        <ele>207</ele>
        <time>2018-06-05T09:05:43Z</time>
      </trkpt>
      <trkpt lat="46.04845" lon="4.69828">
        <ele>207</ele>
        <time>2018-06-05T09:05:44Z</time>
      </trkpt>
      <trkpt lat="46.04851" lon="4.69832">
        <ele>207</ele>
        <time>2018-06-05T09:05:46Z</time>
      </trkpt>
      <trkpt lat="46.04854" lon="4.69834">
        <ele>206</ele>
        <time>2018-06-05T09:05:47Z</time>
      </trkpt>
      <trkpt lat="46.04862" lon="4.69839">
        <ele>206</ele>
        <time>2018-06-05T09:05:49Z</time>
      </trkpt>
      <trkpt lat="46.04866" lon="4.69841">
        <ele>206</ele>
        <time>2018-06-05T09:05:50Z</time>
      </trkpt>
      <trkpt lat="46.04874" lon="4.69845">
        <ele>206</ele>
        <time>2018-06-05T09:05:52Z</time>
      </trkpt>
      <trkpt lat="46.04878" lon="4.69848">
        <ele>206</ele>
        <time>2018-06-05T09:05:53Z</time>
      </trkpt>
      <trkpt lat="46.04883" lon="4.69852">
        <ele>206</ele>
        <time>2018-06-05T09:05:54Z</time>
      </trkpt>
      <trkpt lat="46.0489" lon="4.69855">
        <ele>206</ele>
        <time>2018-06-05T09:05:55Z</time>
      </trkpt>
      <trkpt lat="46.04896" lon="4.69859">
        <ele>206</ele>
        <time>2018-06-05T09:05:56Z</time>
      </trkpt>
      <trkpt lat="46.049" lon="4.69863">
        <ele>206</ele>
        <time>2018-06-05T09:05:57Z</time>
      </trkpt>
      <trkpt lat="46.04907" lon="4.69868">
        <ele>206</ele>
        <time>2018-06-05T09:05:59Z</time>
      </trkpt>
      <trkpt lat="46.04911" lon="4.6987">
        <ele>206</ele>
        <time>2018-06-05T09:06:00Z</time>
      </trkpt>
      <trkpt lat="46.04916" lon="4.69872">
        <ele>206</ele>
        <time>2018-06-05T09:06:01Z</time>
      </trkpt>
      <trkpt lat="46.0492" lon="4.69875">
        <ele>207</ele>
        <time>2018-06-05T09:06:02Z</time>
      </trkpt>
      <trkpt lat="46.04928" lon="4.69879">
        <ele>207</ele>
        <time>2018-06-05T09:06:04Z</time>
      </trkpt>
      <trkpt lat="46.04933" lon="4.6988">
        <ele>207</ele>
        <time>2018-06-05T09:06:05Z</time>
      </trkpt>
      <trkpt lat="46.04937" lon="4.69883">
        <ele>207</ele>
        <time>2018-06-05T09:06:06Z</time>
      </trkpt>
      <trkpt lat="46.04941" lon="4.69887">
        <ele>207</ele>
        <time>2018-06-05T09:06:07Z</time>
      </trkpt>
      <trkpt lat="46.04948" lon="4.69894">
        <ele>207</ele>
        <time>2018-06-05T09:06:09Z</time>
      </trkpt>
      <trkpt lat="46.04952" lon="4.69899">
        <ele>207</ele>
        <time>2018-06-05T09:06:10Z</time>
      </trkpt>
      <trkpt lat="46.04958" lon="4.69907">
        <ele>207</ele>
        <time>2018-06-05T09:06:12Z</time>
      </trkpt>
      <trkpt lat="46.04962" lon="4.69911">
        <ele>206</ele>
        <time>2018-06-05T09:06:13Z</time>
      </trkpt>
      <trkpt lat="46.04965" lon="4.69916">
        <ele>206</ele>
        <time>2018-06-05T09:06:14Z</time>
      </trkpt>
      <trkpt lat="46.04969" lon="4.69921">
        <ele>206</ele>
        <time>2018-06-05T09:06:15Z</time>
      </trkpt>
      <trkpt lat="46.04973" lon="4.69928">
        <ele>206</ele>
        <time>2018-06-05T09:06:16Z</time>
      </trkpt>
      <trkpt lat="46.04979" lon="4.69934">
        <ele>206</ele>
        <time>2018-06-05T09:06:17Z</time>
      </trkpt>
      <trkpt lat="46.04982" lon="4.6994">
        <ele>206</ele>
        <time>2018-06-05T09:06:18Z</time>
      </trkpt>
      <trkpt lat="46.04985" lon="4.69947">
        <ele>206</ele>
        <time>2018-06-05T09:06:19Z</time>
      </trkpt>
      <trkpt lat="46.04989" lon="4.69952">
        <ele>206</ele>
        <time>2018-06-05T09:06:20Z</time>
      </trkpt>
      <trkpt lat="46.04991" lon="4.69957">
        <ele>206</ele>
        <time>2018-06-05T09:06:21Z</time>
      </trkpt>
      <trkpt lat="46.04994" lon="4.69963">
        <ele>205</ele>
        <time>2018-06-05T09:06:22Z</time>
      </trkpt>
      <trkpt lat="46.04998" lon="4.69969">
        <ele>205</ele>
        <time>2018-06-05T09:06:23Z</time>
      </trkpt>
      <trkpt lat="46.05002" lon="4.69974">
        <ele>205</ele>
        <time>2018-06-05T09:06:24Z</time>
      </trkpt>
      <trkpt lat="46.05006" lon="4.69981">
        <ele>205</ele>
        <time>2018-06-05T09:06:25Z</time>
      </trkpt>
      <trkpt lat="46.0501" lon="4.69986">
        <ele>205</ele>
        <time>2018-06-05T09:06:26Z</time>
      </trkpt>
      <trkpt lat="46.05012" lon="4.69995">
        <ele>205</ele>
        <time>2018-06-05T09:06:27Z</time>
      </trkpt>
      <trkpt lat="46.05017" lon="4.7">
        <ele>205</ele>
        <time>2018-06-05T09:06:28Z</time>
      </trkpt>
      <trkpt lat="46.05022" lon="4.70005">
        <ele>204</ele>
        <time>2018-06-05T09:06:29Z</time>
      </trkpt>
      <trkpt lat="46.05026" lon="4.7001">
        <ele>204</ele>
        <time>2018-06-05T09:06:30Z</time>
      </trkpt>
      <trkpt lat="46.05032" lon="4.70014">
        <ele>204</ele>
        <time>2018-06-05T09:06:31Z</time>
      </trkpt>
      <trkpt lat="46.05036" lon="4.70017">
        <ele>204</ele>
        <time>2018-06-05T09:06:32Z</time>
      </trkpt>
      <trkpt lat="46.05041" lon="4.70021">
        <ele>204</ele>
        <time>2018-06-05T09:06:33Z</time>
      </trkpt>
      <trkpt lat="46.05045" lon="4.70025">
        <ele>204</ele>
        <time>2018-06-05T09:06:34Z</time>
      </trkpt>
      <trkpt lat="46.05051" lon="4.70028">
        <ele>204</ele>
        <time>2018-06-05T09:06:35Z</time>
      </trkpt>
      <trkpt lat="46.05056" lon="4.70032">
        <ele>204</ele>
        <time>2018-06-05T09:06:36Z</time>
      </trkpt>
      <trkpt lat="46.05061" lon="4.70035">
        <ele>204</ele>
        <time>2018-06-05T09:06:37Z</time>
      </trkpt>
      <trkpt lat="46.05066" lon="4.70039">
        <ele>204</ele>
        <time>2018-06-05T09:06:38Z</time>
      </trkpt>
      <trkpt lat="46.05071" lon="4.70039">
        <ele>204</ele>
        <time>2018-06-05T09:06:39Z</time>
      </trkpt>
      <trkpt lat="46.05076" lon="4.70038">
        <ele>204</ele>
        <time>2018-06-05T09:06:40Z</time>
      </trkpt>
      <trkpt lat="46.05081" lon="4.70036">
        <ele>204</ele>
        <time>2018-06-05T09:06:41Z</time>
      </trkpt>
      <trkpt lat="46.05085" lon="4.70031">
        <ele>203</ele>
        <time>2018-06-05T09:06:42Z</time>
      </trkpt>
      <trkpt lat="46.05088" lon="4.70028">
        <ele>203</ele>
        <time>2018-06-05T09:06:43Z</time>
      </trkpt>
      <trkpt lat="46.05092" lon="4.70019">
        <ele>203</ele>
        <time>2018-06-05T09:06:44Z</time>
      </trkpt>
      <trkpt lat="46.05096" lon="4.70011">
        <ele>204</ele>
        <time>2018-06-05T09:06:45Z</time>
      </trkpt>
      <trkpt lat="46.05098" lon="4.70003">
        <ele>204</ele>
        <time>2018-06-05T09:06:46Z</time>
      </trkpt>
      <trkpt lat="46.05101" lon="4.69995">
        <ele>204</ele>
        <time>2018-06-05T09:06:47Z</time>
      </trkpt>
      <trkpt lat="46.05102" lon="4.69986">
        <ele>204</ele>
        <time>2018-06-05T09:06:48Z</time>
      </trkpt>
      <trkpt lat="46.05104" lon="4.69979">
        <ele>203</ele>
        <time>2018-06-05T09:06:49Z</time>
      </trkpt>
      <trkpt lat="46.05105" lon="4.6997">
        <ele>203</ele>
        <time>2018-06-05T09:06:50Z</time>
      </trkpt>
      <trkpt lat="46.05106" lon="4.69963">
        <ele>203</ele>
        <time>2018-06-05T09:06:51Z</time>
      </trkpt>
      <trkpt lat="46.05108" lon="4.69955">
        <ele>203</ele>
        <time>2018-06-05T09:06:52Z</time>
      </trkpt>
      <trkpt lat="46.05108" lon="4.69947">
        <ele>203</ele>
        <time>2018-06-05T09:06:53Z</time>
      </trkpt>
      <trkpt lat="46.05109" lon="4.69941">
        <ele>203</ele>
        <time>2018-06-05T09:06:54Z</time>
      </trkpt>
      <trkpt lat="46.05109" lon="4.69932">
        <ele>203</ele>
        <time>2018-06-05T09:06:55Z</time>
      </trkpt>
      <trkpt lat="46.0511" lon="4.69925">
        <ele>203</ele>
        <time>2018-06-05T09:06:56Z</time>
      </trkpt>
      <trkpt lat="46.0511" lon="4.69918">
        <ele>203</ele>
        <time>2018-06-05T09:06:57Z</time>
      </trkpt>
      <trkpt lat="46.05112" lon="4.69908">
        <ele>204</ele>
        <time>2018-06-05T09:06:58Z</time>
      </trkpt>
      <trkpt lat="46.05113" lon="4.699">
        <ele>204</ele>
        <time>2018-06-05T09:06:59Z</time>
      </trkpt>
      <trkpt lat="46.05114" lon="4.69892">
        <ele>204</ele>
        <time>2018-06-05T09:07:00Z</time>
      </trkpt>
      <trkpt lat="46.05115" lon="4.69882">
        <ele>204</ele>
        <time>2018-06-05T09:07:01Z</time>
      </trkpt>
      <trkpt lat="46.05116" lon="4.69873">
        <ele>204</ele>
        <time>2018-06-05T09:07:02Z</time>
      </trkpt>
      <trkpt lat="46.05117" lon="4.69865">
        <ele>204</ele>
        <time>2018-06-05T09:07:03Z</time>
      </trkpt>
      <trkpt lat="46.05117" lon="4.69858">
        <ele>204</ele>
        <time>2018-06-05T09:07:04Z</time>
      </trkpt>
      <trkpt lat="46.05117" lon="4.69852">
        <ele>204</ele>
        <time>2018-06-05T09:07:05Z</time>
      </trkpt>
      <trkpt lat="46.05118" lon="4.69845">
        <ele>204</ele>
        <time>2018-06-05T09:07:06Z</time>
      </trkpt>
      <trkpt lat="46.05119" lon="4.69839">
        <ele>204</ele>
        <time>2018-06-05T09:07:07Z</time>
      </trkpt>
      <trkpt lat="46.05122" lon="4.69834">
        <ele>204</ele>
        <time>2018-06-05T09:07:08Z</time>
      </trkpt>
      <trkpt lat="46.05126" lon="4.69829">
        <ele>204</ele>
        <time>2018-06-05T09:07:09Z</time>
      </trkpt>
      <trkpt lat="46.05131" lon="4.69825">
        <ele>204</ele>
        <time>2018-06-05T09:07:10Z</time>
      </trkpt>
      <trkpt lat="46.05135" lon="4.69824">
        <ele>204</ele>
        <time>2018-06-05T09:07:11Z</time>
      </trkpt>
      <trkpt lat="46.05141" lon="4.69824">
        <ele>204</ele>
        <time>2018-06-05T09:07:12Z</time>
      </trkpt>
      <trkpt lat="46.05147" lon="4.69826">
        <ele>204</ele>
        <time>2018-06-05T09:07:13Z</time>
      </trkpt>
      <trkpt lat="46.05152" lon="4.69829">
        <ele>204</ele>
        <time>2018-06-05T09:07:14Z</time>
      </trkpt>
      <trkpt lat="46.05157" lon="4.69832">
        <ele>203</ele>
        <time>2018-06-05T09:07:15Z</time>
      </trkpt>
      <trkpt lat="46.05166" lon="4.69837">
        <ele>203</ele>
        <time>2018-06-05T09:07:16Z</time>
      </trkpt>
      <trkpt lat="46.0517" lon="4.69839">
        <ele>203</ele>
        <time>2018-06-05T09:07:17Z</time>
      </trkpt>
      <trkpt lat="46.05175" lon="4.69841">
        <ele>202</ele>
        <time>2018-06-05T09:07:18Z</time>
      </trkpt>
      <trkpt lat="46.05181" lon="4.69844">
        <ele>202</ele>
        <time>2018-06-05T09:07:19Z</time>
      </trkpt>
      <trkpt lat="46.05186" lon="4.69846">
        <ele>202</ele>
        <time>2018-06-05T09:07:20Z</time>
      </trkpt>
      <trkpt lat="46.05193" lon="4.69848">
        <ele>202</ele>
        <time>2018-06-05T09:07:21Z</time>
      </trkpt>
      <trkpt lat="46.05199" lon="4.6985">
        <ele>201</ele>
        <time>2018-06-05T09:07:22Z</time>
      </trkpt>
      <trkpt lat="46.05205" lon="4.69852">
        <ele>201</ele>
        <time>2018-06-05T09:07:23Z</time>
      </trkpt>
      <trkpt lat="46.05211" lon="4.69855">
        <ele>201</ele>
        <time>2018-06-05T09:07:24Z</time>
      </trkpt>
      <trkpt lat="46.05217" lon="4.69858">
        <ele>201</ele>
        <time>2018-06-05T09:07:25Z</time>
      </trkpt>
      <trkpt lat="46.05224" lon="4.6986">
        <ele>201</ele>
        <time>2018-06-05T09:07:26Z</time>
      </trkpt>
      <trkpt lat="46.05231" lon="4.69863">
        <ele>201</ele>
        <time>2018-06-05T09:07:27Z</time>
      </trkpt>
      <trkpt lat="46.05237" lon="4.69865">
        <ele>201</ele>
        <time>2018-06-05T09:07:28Z</time>
      </trkpt>
      <trkpt lat="46.05245" lon="4.69867">
        <ele>201</ele>
        <time>2018-06-05T09:07:29Z</time>
      </trkpt>
      <trkpt lat="46.05252" lon="4.69867">
        <ele>199</ele>
        <time>2018-06-05T09:07:30Z</time>
      </trkpt>
      <trkpt lat="46.05257" lon="4.69867">
        <ele>199</ele>
        <time>2018-06-05T09:07:31Z</time>
      </trkpt>
      <trkpt lat="46.05264" lon="4.6987">
        <ele>199</ele>
        <time>2018-06-05T09:07:32Z</time>
      </trkpt>
      <trkpt lat="46.0527" lon="4.69872">
        <ele>199</ele>
        <time>2018-06-05T09:07:33Z</time>
      </trkpt>
      <trkpt lat="46.05278" lon="4.69871">
        <ele>199</ele>
        <time>2018-06-05T09:07:34Z</time>
      </trkpt>
      <trkpt lat="46.05284" lon="4.69874">
        <ele>199</ele>
        <time>2018-06-05T09:07:35Z</time>
      </trkpt>
      <trkpt lat="46.0529" lon="4.69875">
        <ele>199</ele>
        <time>2018-06-05T09:07:36Z</time>
      </trkpt>
      <trkpt lat="46.05296" lon="4.69876">
        <ele>199</ele>
        <time>2018-06-05T09:07:37Z</time>
      </trkpt>
      <trkpt lat="46.05301" lon="4.69877">
        <ele>199</ele>
        <time>2018-06-05T09:07:38Z</time>
      </trkpt>
      <trkpt lat="46.05306" lon="4.69877">
        <ele>199</ele>
        <time>2018-06-05T09:07:39Z</time>
      </trkpt>
      <trkpt lat="46.05312" lon="4.69878">
        <ele>199</ele>
        <time>2018-06-05T09:07:40Z</time>
      </trkpt>
      <trkpt lat="46.05317" lon="4.6988">
        <ele>199</ele>
        <time>2018-06-05T09:07:41Z</time>
      </trkpt>
      <trkpt lat="46.05323" lon="4.69882">
        <ele>199</ele>
        <time>2018-06-05T09:07:42Z</time>
      </trkpt>
      <trkpt lat="46.05329" lon="4.69882">
        <ele>199</ele>
        <time>2018-06-05T09:07:43Z</time>
      </trkpt>
      <trkpt lat="46.05335" lon="4.69883">
        <ele>199</ele>
        <time>2018-06-05T09:07:44Z</time>
      </trkpt>
      <trkpt lat="46.05342" lon="4.69886">
        <ele>199</ele>
        <time>2018-06-05T09:07:45Z</time>
      </trkpt>
      <trkpt lat="46.05347" lon="4.69885">
        <ele>199</ele>
        <time>2018-06-05T09:07:46Z</time>
      </trkpt>
      <trkpt lat="46.05353" lon="4.69887">
        <ele>199</ele>
        <time>2018-06-05T09:07:47Z</time>
      </trkpt>
      <trkpt lat="46.0536" lon="4.69889">
        <ele>199</ele>
        <time>2018-06-05T09:07:48Z</time>
      </trkpt>
      <trkpt lat="46.05366" lon="4.69892">
        <ele>199</ele>
        <time>2018-06-05T09:07:49Z</time>
      </trkpt>
      <trkpt lat="46.05372" lon="4.69894">
        <ele>199</ele>
        <time>2018-06-05T09:07:50Z</time>
      </trkpt>
      <trkpt lat="46.05378" lon="4.69895">
        <ele>199</ele>
        <time>2018-06-05T09:07:51Z</time>
      </trkpt>
      <trkpt lat="46.05383" lon="4.69898">
        <ele>199</ele>
        <time>2018-06-05T09:07:52Z</time>
      </trkpt>
      <trkpt lat="46.05389" lon="4.69899">
        <ele>199</ele>
        <time>2018-06-05T09:07:53Z</time>
      </trkpt>
      <trkpt lat="46.05395" lon="4.69903">
        <ele>199</ele>
        <time>2018-06-05T09:07:54Z</time>
      </trkpt>
      <trkpt lat="46.054" lon="4.69904">
        <ele>199</ele>
        <time>2018-06-05T09:07:55Z</time>
      </trkpt>
      <trkpt lat="46.05405" lon="4.69903">
        <ele>199</ele>
        <time>2018-06-05T09:07:56Z</time>
      </trkpt>
      <trkpt lat="46.0541" lon="4.69907">
        <ele>199</ele>
        <time>2018-06-05T09:07:57Z</time>
      </trkpt>
      <trkpt lat="46.05415" lon="4.699">
        <ele>199</ele>
        <time>2018-06-05T09:07:58Z</time>
      </trkpt>
      <trkpt lat="46.05422" lon="4.69899">
        <ele>199</ele>
        <time>2018-06-05T09:07:59Z</time>
      </trkpt>
      <trkpt lat="46.05427" lon="4.69898">
        <ele>199</ele>
        <time>2018-06-05T09:08:00Z</time>
      </trkpt>
      <trkpt lat="46.05433" lon="4.69899">
        <ele>199</ele>
        <time>2018-06-05T09:08:01Z</time>
      </trkpt>
      <trkpt lat="46.05438" lon="4.69897">
        <ele>199</ele>
        <time>2018-06-05T09:08:02Z</time>
      </trkpt>
      <trkpt lat="46.05444" lon="4.69897">
        <ele>199</ele>
        <time>2018-06-05T09:08:03Z</time>
      </trkpt>
      <trkpt lat="46.05449" lon="4.69896">
        <ele>199</ele>
        <time>2018-06-05T09:08:04Z</time>
      </trkpt>
      <trkpt lat="46.05457" lon="4.69892">
        <ele>199</ele>
        <time>2018-06-05T09:08:06Z</time>
      </trkpt>
      <trkpt lat="46.05462" lon="4.69891">
        <ele>199</ele>
        <time>2018-06-05T09:08:07Z</time>
      </trkpt>
      <trkpt lat="46.05468" lon="4.6989">
        <ele>199</ele>
        <time>2018-06-05T09:08:08Z</time>
      </trkpt>
      <trkpt lat="46.05473" lon="4.69889">
        <ele>199</ele>
        <time>2018-06-05T09:08:09Z</time>
      </trkpt>
      <trkpt lat="46.05478" lon="4.69886">
        <ele>199</ele>
        <time>2018-06-05T09:08:10Z</time>
      </trkpt>
      <trkpt lat="46.05485" lon="4.69883">
        <ele>199</ele>
        <time>2018-06-05T09:08:11Z</time>
      </trkpt>
      <trkpt lat="46.0549" lon="4.69881">
        <ele>199</ele>
        <time>2018-06-05T09:08:12Z</time>
      </trkpt>
      <trkpt lat="46.05496" lon="4.69879">
        <ele>199</ele>
        <time>2018-06-05T09:08:13Z</time>
      </trkpt>
      <trkpt lat="46.05502" lon="4.69877">
        <ele>199</ele>
        <time>2018-06-05T09:08:14Z</time>
      </trkpt>
      <trkpt lat="46.05507" lon="4.69876">
        <ele>199</ele>
        <time>2018-06-05T09:08:15Z</time>
      </trkpt>
      <trkpt lat="46.05512" lon="4.69874">
        <ele>199</ele>
        <time>2018-06-05T09:08:16Z</time>
      </trkpt>
      <trkpt lat="46.05516" lon="4.69873">
        <ele>199</ele>
        <time>2018-06-05T09:08:17Z</time>
      </trkpt>
      <trkpt lat="46.05521" lon="4.69872">
        <ele>199</ele>
        <time>2018-06-05T09:08:18Z</time>
      </trkpt>
      <trkpt lat="46.05526" lon="4.69872">
        <ele>200</ele>
        <time>2018-06-05T09:08:19Z</time>
      </trkpt>
      <trkpt lat="46.05532" lon="4.6987">
        <ele>200</ele>
        <time>2018-06-05T09:08:20Z</time>
      </trkpt>
      <trkpt lat="46.05536" lon="4.69867">
        <ele>200</ele>
        <time>2018-06-05T09:08:21Z</time>
      </trkpt>
      <trkpt lat="46.05541" lon="4.69865">
        <ele>200</ele>
        <time>2018-06-05T09:08:22Z</time>
      </trkpt>
      <trkpt lat="46.05546" lon="4.69862">
        <ele>200</ele>
        <time>2018-06-05T09:08:23Z</time>
      </trkpt>
      <trkpt lat="46.0555" lon="4.69861">
        <ele>200</ele>
        <time>2018-06-05T09:08:24Z</time>
      </trkpt>
      <trkpt lat="46.05555" lon="4.69859">
        <ele>200</ele>
        <time>2018-06-05T09:08:25Z</time>
      </trkpt>
      <trkpt lat="46.05563" lon="4.69857">
        <ele>200</ele>
        <time>2018-06-05T09:08:27Z</time>
      </trkpt>
      <trkpt lat="46.05566" lon="4.69858">
        <ele>200</ele>
        <time>2018-06-05T09:08:28Z</time>
      </trkpt>
      <trkpt lat="46.05573" lon="4.6986">
        <ele>200</ele>
        <time>2018-06-05T09:08:30Z</time>
      </trkpt>
      <trkpt lat="46.05575" lon="4.69866">
        <ele>200</ele>
        <time>2018-06-05T09:08:31Z</time>
      </trkpt>
      <trkpt lat="46.05578" lon="4.69871">
        <ele>200</ele>
        <time>2018-06-05T09:08:32Z</time>
      </trkpt>
      <trkpt lat="46.05581" lon="4.69878">
        <ele>200</ele>
        <time>2018-06-05T09:08:33Z</time>
      </trkpt>
      <trkpt lat="46.05584" lon="4.69883">
        <ele>201</ele>
        <time>2018-06-05T09:08:34Z</time>
      </trkpt>
      <trkpt lat="46.05588" lon="4.69889">
        <ele>201</ele>
        <time>2018-06-05T09:08:35Z</time>
      </trkpt>
      <trkpt lat="46.05592" lon="4.69893">
        <ele>201</ele>
        <time>2018-06-05T09:08:36Z</time>
      </trkpt>
      <trkpt lat="46.05594" lon="4.69899">
        <ele>201</ele>
        <time>2018-06-05T09:08:37Z</time>
      </trkpt>
      <trkpt lat="46.05596" lon="4.69906">
        <ele>201</ele>
        <time>2018-06-05T09:08:38Z</time>
      </trkpt>
      <trkpt lat="46.056" lon="4.69912">
        <ele>201</ele>
        <time>2018-06-05T09:08:39Z</time>
      </trkpt>
      <trkpt lat="46.05604" lon="4.69918">
        <ele>201</ele>
        <time>2018-06-05T09:08:40Z</time>
      </trkpt>
      <trkpt lat="46.05607" lon="4.69926">
        <ele>201</ele>
        <time>2018-06-05T09:08:41Z</time>
      </trkpt>
      <trkpt lat="46.0561" lon="4.69932">
        <ele>201</ele>
        <time>2018-06-05T09:08:42Z</time>
      </trkpt>
      <trkpt lat="46.05614" lon="4.69938">
        <ele>201</ele>
        <time>2018-06-05T09:08:43Z</time>
      </trkpt>
      <trkpt lat="46.05618" lon="4.69945">
        <ele>201</ele>
        <time>2018-06-05T09:08:44Z</time>
      </trkpt>
      <trkpt lat="46.05621" lon="4.69951">
        <ele>201</ele>
        <time>2018-06-05T09:08:45Z</time>
      </trkpt>
      <trkpt lat="46.05624" lon="4.69957">
        <ele>201</ele>
        <time>2018-06-05T09:08:46Z</time>
      </trkpt>
      <trkpt lat="46.05628" lon="4.69965">
        <ele>201</ele>
        <time>2018-06-05T09:08:47Z</time>
      </trkpt>
      <trkpt lat="46.05632" lon="4.69973">
        <ele>200</ele>
        <time>2018-06-05T09:08:48Z</time>
      </trkpt>
      <trkpt lat="46.05636" lon="4.69979">
        <ele>200</ele>
        <time>2018-06-05T09:08:49Z</time>
      </trkpt>
      <trkpt lat="46.05642" lon="4.69988">
        <ele>200</ele>
        <time>2018-06-05T09:08:50Z</time>
      </trkpt>
      <trkpt lat="46.05646" lon="4.69995">
        <ele>200</ele>
        <time>2018-06-05T09:08:51Z</time>
      </trkpt>
      <trkpt lat="46.0565" lon="4.70003">
        <ele>200</ele>
        <time>2018-06-05T09:08:52Z</time>
      </trkpt>
      <trkpt lat="46.05653" lon="4.70009">
        <ele>200</ele>
        <time>2018-06-05T09:08:53Z</time>
      </trkpt>
      <trkpt lat="46.05656" lon="4.70014">
        <ele>200</ele>
        <time>2018-06-05T09:08:54Z</time>
      </trkpt>
      <trkpt lat="46.0566" lon="4.7002">
        <ele>200</ele>
        <time>2018-06-05T09:08:55Z</time>
      </trkpt>
      <trkpt lat="46.05665" lon="4.70032">
        <ele>200</ele>
        <time>2018-06-05T09:08:56Z</time>
      </trkpt>
      <trkpt lat="46.0567" lon="4.70041">
        <ele>199</ele>
        <time>2018-06-05T09:08:57Z</time>
      </trkpt>
      <trkpt lat="46.05675" lon="4.7005">
        <ele>199</ele>
        <time>2018-06-05T09:08:58Z</time>
      </trkpt>
      <trkpt lat="46.05679" lon="4.7006">
        <ele>199</ele>
        <time>2018-06-05T09:08:59Z</time>
      </trkpt>
      <trkpt lat="46.05683" lon="4.70068">
        <ele>199</ele>
        <time>2018-06-05T09:09:00Z</time>
      </trkpt>
      <trkpt lat="46.05687" lon="4.70075">
        <ele>199</ele>
        <time>2018-06-05T09:09:01Z</time>
      </trkpt>
      <trkpt lat="46.05689" lon="4.70081">
        <ele>199</ele>
        <time>2018-06-05T09:09:02Z</time>
      </trkpt>
      <trkpt lat="46.05693" lon="4.70087">
        <ele>198</ele>
        <time>2018-06-05T09:09:03Z</time>
      </trkpt>
      <trkpt lat="46.05698" lon="4.70094">
        <ele>198</ele>
        <time>2018-06-05T09:09:04Z</time>
      </trkpt>
      <trkpt lat="46.057" lon="4.70098">
        <ele>198</ele>
        <time>2018-06-05T09:09:05Z</time>
      </trkpt>
      <trkpt lat="46.05703" lon="4.70105">
        <ele>198</ele>
        <time>2018-06-05T09:09:06Z</time>
      </trkpt>
      <trkpt lat="46.05706" lon="4.70111">
        <ele>198</ele>
        <time>2018-06-05T09:09:07Z</time>
      </trkpt>
      <trkpt lat="46.05708" lon="4.70118">
        <ele>198</ele>
        <time>2018-06-05T09:09:08Z</time>
      </trkpt>
      <trkpt lat="46.05712" lon="4.70125">
        <ele>198</ele>
        <time>2018-06-05T09:09:09Z</time>
      </trkpt>
      <trkpt lat="46.05716" lon="4.70132">
        <ele>198</ele>
        <time>2018-06-05T09:09:10Z</time>
      </trkpt>
      <trkpt lat="46.05719" lon="4.70138">
        <ele>198</ele>
        <time>2018-06-05T09:09:11Z</time>
      </trkpt>
      <trkpt lat="46.05723" lon="4.70145">
        <ele>198</ele>
        <time>2018-06-05T09:09:12Z</time>
      </trkpt>
      <trkpt lat="46.05727" lon="4.70154">
        <ele>198</ele>
        <time>2018-06-05T09:09:13Z</time>
      </trkpt>
      <trkpt lat="46.05728" lon="4.70163">
        <ele>198</ele>
        <time>2018-06-05T09:09:14Z</time>
      </trkpt>
      <trkpt lat="46.05732" lon="4.70166">
        <ele>199</ele>
        <time>2018-06-05T09:09:15Z</time>
      </trkpt>
      <trkpt lat="46.05737" lon="4.70175">
        <ele>198</ele>
        <time>2018-06-05T09:09:16Z</time>
      </trkpt>
      <trkpt lat="46.05741" lon="4.70183">
        <ele>198</ele>
        <time>2018-06-05T09:09:17Z</time>
      </trkpt>
      <trkpt lat="46.05746" lon="4.7019">
        <ele>198</ele>
        <time>2018-06-05T09:09:18Z</time>
      </trkpt>
      <trkpt lat="46.0575" lon="4.70197">
        <ele>198</ele>
        <time>2018-06-05T09:09:19Z</time>
      </trkpt>
      <trkpt lat="46.05751" lon="4.70202">
        <ele>198</ele>
        <time>2018-06-05T09:09:20Z</time>
      </trkpt>
      <trkpt lat="46.05754" lon="4.70207">
        <ele>198</ele>
        <time>2018-06-05T09:09:21Z</time>
      </trkpt>
      <trkpt lat="46.05759" lon="4.70213">
        <ele>198</ele>
        <time>2018-06-05T09:09:22Z</time>
      </trkpt>
      <trkpt lat="46.0576" lon="4.7022">
        <ele>198</ele>
        <time>2018-06-05T09:09:23Z</time>
      </trkpt>
      <trkpt lat="46.05765" lon="4.70229">
        <ele>198</ele>
        <time>2018-06-05T09:09:24Z</time>
      </trkpt>
      <trkpt lat="46.05769" lon="4.70235">
        <ele>198</ele>
        <time>2018-06-05T09:09:25Z</time>
      </trkpt>
      <trkpt lat="46.05773" lon="4.70243">
        <ele>198</ele>
        <time>2018-06-05T09:09:26Z</time>
      </trkpt>
      <trkpt lat="46.05779" lon="4.70251">
        <ele>198</ele>
        <time>2018-06-05T09:09:27Z</time>
      </trkpt>
      <trkpt lat="46.05783" lon="4.70261">
        <ele>198</ele>
        <time>2018-06-05T09:09:28Z</time>
      </trkpt>
      <trkpt lat="46.05789" lon="4.70269">
        <ele>198</ele>
        <time>2018-06-05T09:09:29Z</time>
      </trkpt>
      <trkpt lat="46.05794" lon="4.70276">
        <ele>197</ele>
        <time>2018-06-05T09:09:30Z</time>
      </trkpt>
      <trkpt lat="46.05798" lon="4.70283">
        <ele>197</ele>
        <time>2018-06-05T09:09:31Z</time>
      </trkpt>
      <trkpt lat="46.05803" lon="4.7029">
        <ele>197</ele>
        <time>2018-06-05T09:09:32Z</time>
      </trkpt>
      <trkpt lat="46.05808" lon="4.70295">
        <ele>197</ele>
        <time>2018-06-05T09:09:33Z</time>
      </trkpt>
      <trkpt lat="46.05811" lon="4.703">
        <ele>197</ele>
        <time>2018-06-05T09:09:34Z</time>
      </trkpt>
      <trkpt lat="46.05818" lon="4.7031">
        <ele>197</ele>
        <time>2018-06-05T09:09:35Z</time>
      </trkpt>
      <trkpt lat="46.05822" lon="4.70316">
        <ele>197</ele>
        <time>2018-06-05T09:09:36Z</time>
      </trkpt>
      <trkpt lat="46.05826" lon="4.70322">
        <ele>197</ele>
        <time>2018-06-05T09:09:37Z</time>
      </trkpt>
      <trkpt lat="46.05832" lon="4.70329">
        <ele>197</ele>
        <time>2018-06-05T09:09:38Z</time>
      </trkpt>
      <trkpt lat="46.05837" lon="4.70336">
        <ele>197</ele>
        <time>2018-06-05T09:09:39Z</time>
      </trkpt>
      <trkpt lat="46.05842" lon="4.70342">
        <ele>197</ele>
        <time>2018-06-05T09:09:40Z</time>
      </trkpt>
      <trkpt lat="46.05848" lon="4.70347">
        <ele>196</ele>
        <time>2018-06-05T09:09:41Z</time>
      </trkpt>
      <trkpt lat="46.05854" lon="4.70356">
        <ele>196</ele>
        <time>2018-06-05T09:09:42Z</time>
      </trkpt>
      <trkpt lat="46.05859" lon="4.70362">
        <ele>196</ele>
        <time>2018-06-05T09:09:43Z</time>
      </trkpt>
      <trkpt lat="46.05865" lon="4.70373">
        <ele>196</ele>
        <time>2018-06-05T09:09:44Z</time>
      </trkpt>
      <trkpt lat="46.0587" lon="4.70381">
        <ele>196</ele>
        <time>2018-06-05T09:09:45Z</time>
      </trkpt>
      <trkpt lat="46.05875" lon="4.70388">
        <ele>196</ele>
        <time>2018-06-05T09:09:46Z</time>
      </trkpt>
      <trkpt lat="46.05879" lon="4.70394">
        <ele>196</ele>
        <time>2018-06-05T09:09:47Z</time>
      </trkpt>
      <trkpt lat="46.05883" lon="4.70401">
        <ele>196</ele>
        <time>2018-06-05T09:09:48Z</time>
      </trkpt>
      <trkpt lat="46.05886" lon="4.7041">
        <ele>196</ele>
        <time>2018-06-05T09:09:49Z</time>
      </trkpt>
      <trkpt lat="46.05889" lon="4.70418">
        <ele>195</ele>
        <time>2018-06-05T09:09:50Z</time>
      </trkpt>
      <trkpt lat="46.05894" lon="4.70423">
        <ele>195</ele>
        <time>2018-06-05T09:09:51Z</time>
      </trkpt>
      <trkpt lat="46.05897" lon="4.70429">
        <ele>195</ele>
        <time>2018-06-05T09:09:52Z</time>
      </trkpt>
      <trkpt lat="46.05902" lon="4.70436">
        <ele>195</ele>
        <time>2018-06-05T09:09:53Z</time>
      </trkpt>
      <trkpt lat="46.05907" lon="4.70442">
        <ele>195</ele>
        <time>2018-06-05T09:09:54Z</time>
      </trkpt>
      <trkpt lat="46.05911" lon="4.70449">
        <ele>195</ele>
        <time>2018-06-05T09:09:55Z</time>
      </trkpt>
      <trkpt lat="46.05915" lon="4.70456">
        <ele>195</ele>
        <time>2018-06-05T09:09:56Z</time>
      </trkpt>
      <trkpt lat="46.05919" lon="4.70464">
        <ele>195</ele>
        <time>2018-06-05T09:09:57Z</time>
      </trkpt>
      <trkpt lat="46.05923" lon="4.7047">
        <ele>195</ele>
        <time>2018-06-05T09:09:58Z</time>
      </trkpt>
      <trkpt lat="46.05926" lon="4.70478">
        <ele>195</ele>
        <time>2018-06-05T09:09:59Z</time>
      </trkpt>
      <trkpt lat="46.0593" lon="4.70487">
        <ele>195</ele>
        <time>2018-06-05T09:10:00Z</time>
      </trkpt>
      <trkpt lat="46.05932" lon="4.70497">
        <ele>195</ele>
        <time>2018-06-05T09:10:01Z</time>
      </trkpt>
      <trkpt lat="46.05932" lon="4.70506">
        <ele>195</ele>
        <time>2018-06-05T09:10:02Z</time>
      </trkpt>
      <trkpt lat="46.05932" lon="4.70514">
        <ele>195</ele>
        <time>2018-06-05T09:10:03Z</time>
      </trkpt>
      <trkpt lat="46.0593" lon="4.70523">
        <ele>195</ele>
        <time>2018-06-05T09:10:04Z</time>
      </trkpt>
      <trkpt lat="46.05928" lon="4.70531">
        <ele>195</ele>
        <time>2018-06-05T09:10:05Z</time>
      </trkpt>
      <trkpt lat="46.05925" lon="4.70541">
        <ele>195</ele>
        <time>2018-06-05T09:10:06Z</time>
      </trkpt>
      <trkpt lat="46.05922" lon="4.7055">
        <ele>195</ele>
        <time>2018-06-05T09:10:07Z</time>
      </trkpt>
      <trkpt lat="46.0592" lon="4.70558">
        <ele>195</ele>
        <time>2018-06-05T09:10:08Z</time>
      </trkpt>
      <trkpt lat="46.05918" lon="4.70566">
        <ele>195</ele>
        <time>2018-06-05T09:10:09Z</time>
      </trkpt>
      <trkpt lat="46.05915" lon="4.70575">
        <ele>195</ele>
        <time>2018-06-05T09:10:10Z</time>
      </trkpt>
      <trkpt lat="46.05913" lon="4.70583">
        <ele>195</ele>
        <time>2018-06-05T09:10:11Z</time>
      </trkpt>
      <trkpt lat="46.05912" lon="4.70594">
        <ele>195</ele>
        <time>2018-06-05T09:10:12Z</time>
      </trkpt>
      <trkpt lat="46.05912" lon="4.70605">
        <ele>194</ele>
        <time>2018-06-05T09:10:13Z</time>
      </trkpt>
      <trkpt lat="46.05911" lon="4.70614">
        <ele>194</ele>
        <time>2018-06-05T09:10:14Z</time>
      </trkpt>
      <trkpt lat="46.05909" lon="4.70622">
        <ele>194</ele>
        <time>2018-06-05T09:10:15Z</time>
      </trkpt>
      <trkpt lat="46.05908" lon="4.70631">
        <ele>194</ele>
        <time>2018-06-05T09:10:16Z</time>
      </trkpt>
      <trkpt lat="46.05906" lon="4.70637">
        <ele>194</ele>
        <time>2018-06-05T09:10:17Z</time>
      </trkpt>
      <trkpt lat="46.05906" lon="4.70644">
        <ele>194</ele>
        <time>2018-06-05T09:10:18Z</time>
      </trkpt>
      <trkpt lat="46.05904" lon="4.70657">
        <ele>194</ele>
        <time>2018-06-05T09:10:20Z</time>
      </trkpt>
      <trkpt lat="46.05904" lon="4.70665">
        <ele>194</ele>
        <time>2018-06-05T09:10:21Z</time>
      </trkpt>
      <trkpt lat="46.05904" lon="4.70674">
        <ele>194</ele>
        <time>2018-06-05T09:10:22Z</time>
      </trkpt>
      <trkpt lat="46.05905" lon="4.70685">
        <ele>194</ele>
        <time>2018-06-05T09:10:23Z</time>
      </trkpt>
      <trkpt lat="46.05907" lon="4.70695">
        <ele>194</ele>
        <time>2018-06-05T09:10:24Z</time>
      </trkpt>
      <trkpt lat="46.05909" lon="4.70701">
        <ele>194</ele>
        <time>2018-06-05T09:10:25Z</time>
      </trkpt>
      <trkpt lat="46.0591" lon="4.7071">
        <ele>194</ele>
        <time>2018-06-05T09:10:26Z</time>
      </trkpt>
      <trkpt lat="46.05912" lon="4.70719">
        <ele>194</ele>
        <time>2018-06-05T09:10:27Z</time>
      </trkpt>
      <trkpt lat="46.05913" lon="4.70726">
        <ele>194</ele>
        <time>2018-06-05T09:10:28Z</time>
      </trkpt>
      <trkpt lat="46.05913" lon="4.70732">
        <ele>194</ele>
        <time>2018-06-05T09:10:29Z</time>
      </trkpt>
      <trkpt lat="46.05915" lon="4.7074">
        <ele>194</ele>
        <time>2018-06-05T09:10:30Z</time>
      </trkpt>
      <trkpt lat="46.05916" lon="4.70749">
        <ele>194</ele>
        <time>2018-06-05T09:10:31Z</time>
      </trkpt>
      <trkpt lat="46.05918" lon="4.70757">
        <ele>194</ele>
        <time>2018-06-05T09:10:32Z</time>
      </trkpt>
      <trkpt lat="46.05919" lon="4.70764">
        <ele>194</ele>
        <time>2018-06-05T09:10:33Z</time>
      </trkpt>
      <trkpt lat="46.0592" lon="4.70772">
        <ele>194</ele>
        <time>2018-06-05T09:10:34Z</time>
      </trkpt>
      <trkpt lat="46.05922" lon="4.70781">
        <ele>194</ele>
        <time>2018-06-05T09:10:35Z</time>
      </trkpt>
      <trkpt lat="46.05923" lon="4.7079">
        <ele>194</ele>
        <time>2018-06-05T09:10:36Z</time>
      </trkpt>
      <trkpt lat="46.05925" lon="4.708">
        <ele>194</ele>
        <time>2018-06-05T09:10:37Z</time>
      </trkpt>
      <trkpt lat="46.05926" lon="4.70806">
        <ele>194</ele>
        <time>2018-06-05T09:10:38Z</time>
      </trkpt>
      <trkpt lat="46.05928" lon="4.70814">
        <ele>194</ele>
        <time>2018-06-05T09:10:39Z</time>
      </trkpt>
      <trkpt lat="46.05929" lon="4.70823">
        <ele>194</ele>
        <time>2018-06-05T09:10:40Z</time>
      </trkpt>
      <trkpt lat="46.0593" lon="4.70831">
        <ele>195</ele>
        <time>2018-06-05T09:10:41Z</time>
      </trkpt>
      <trkpt lat="46.0593" lon="4.70839">
        <ele>194</ele>
        <time>2018-06-05T09:10:42Z</time>
      </trkpt>
      <trkpt lat="46.05931" lon="4.70847">
        <ele>194</ele>
        <time>2018-06-05T09:10:43Z</time>
      </trkpt>
      <trkpt lat="46.05933" lon="4.70856">
        <ele>194</ele>
        <time>2018-06-05T09:10:44Z</time>
      </trkpt>
      <trkpt lat="46.05934" lon="4.70864">
        <ele>194</ele>
        <time>2018-06-05T09:10:45Z</time>
      </trkpt>
      <trkpt lat="46.05933" lon="4.70871">
        <ele>194</ele>
        <time>2018-06-05T09:10:46Z</time>
      </trkpt>
      <trkpt lat="46.05934" lon="4.70881">
        <ele>194</ele>
        <time>2018-06-05T09:10:47Z</time>
      </trkpt>
      <trkpt lat="46.05934" lon="4.70891">
        <ele>194</ele>
        <time>2018-06-05T09:10:48Z</time>
      </trkpt>
      <trkpt lat="46.05935" lon="4.709">
        <ele>194</ele>
        <time>2018-06-05T09:10:49Z</time>
      </trkpt>
      <trkpt lat="46.05937" lon="4.7091">
        <ele>194</ele>
        <time>2018-06-05T09:10:50Z</time>
      </trkpt>
      <trkpt lat="46.05939" lon="4.70921">
        <ele>194</ele>
        <time>2018-06-05T09:10:51Z</time>
      </trkpt>
      <trkpt lat="46.0594" lon="4.7093">
        <ele>194</ele>
        <time>2018-06-05T09:10:52Z</time>
      </trkpt>
      <trkpt lat="46.05942" lon="4.70939">
        <ele>193</ele>
        <time>2018-06-05T09:10:53Z</time>
      </trkpt>
      <trkpt lat="46.05945" lon="4.7095">
        <ele>193</ele>
        <time>2018-06-05T09:10:54Z</time>
      </trkpt>
      <trkpt lat="46.05946" lon="4.70959">
        <ele>193</ele>
        <time>2018-06-05T09:10:55Z</time>
      </trkpt>
      <trkpt lat="46.05949" lon="4.70969">
        <ele>193</ele>
        <time>2018-06-05T09:10:56Z</time>
      </trkpt>
      <trkpt lat="46.05952" lon="4.70977">
        <ele>193</ele>
        <time>2018-06-05T09:10:57Z</time>
      </trkpt>
      <trkpt lat="46.05955" lon="4.70986">
        <ele>193</ele>
        <time>2018-06-05T09:10:58Z</time>
      </trkpt>
      <trkpt lat="46.05957" lon="4.70995">
        <ele>193</ele>
        <time>2018-06-05T09:10:59Z</time>
      </trkpt>
      <trkpt lat="46.05961" lon="4.71004">
        <ele>193</ele>
        <time>2018-06-05T09:11:00Z</time>
      </trkpt>
      <trkpt lat="46.05964" lon="4.71011">
        <ele>193</ele>
        <time>2018-06-05T09:11:01Z</time>
      </trkpt>
      <trkpt lat="46.05968" lon="4.7102">
        <ele>193</ele>
        <time>2018-06-05T09:11:02Z</time>
      </trkpt>
      <trkpt lat="46.05971" lon="4.71028">
        <ele>193</ele>
        <time>2018-06-05T09:11:03Z</time>
      </trkpt>
      <trkpt lat="46.05974" lon="4.71035">
        <ele>193</ele>
        <time>2018-06-05T09:11:04Z</time>
      </trkpt>
      <trkpt lat="46.05976" lon="4.71043">
        <ele>193</ele>
        <time>2018-06-05T09:11:05Z</time>
      </trkpt>
      <trkpt lat="46.05979" lon="4.71053">
        <ele>193</ele>
        <time>2018-06-05T09:11:06Z</time>
      </trkpt>
      <trkpt lat="46.05982" lon="4.7106">
        <ele>193</ele>
        <time>2018-06-05T09:11:07Z</time>
      </trkpt>
      <trkpt lat="46.05983" lon="4.71067">
        <ele>193</ele>
        <time>2018-06-05T09:11:08Z</time>
      </trkpt>
      <trkpt lat="46.05987" lon="4.71072">
        <ele>193</ele>
        <time>2018-06-05T09:11:09Z</time>
      </trkpt>
      <trkpt lat="46.05991" lon="4.71076">
        <ele>193</ele>
        <time>2018-06-05T09:11:10Z</time>
      </trkpt>
      <trkpt lat="46.05994" lon="4.71084">
        <ele>193</ele>
        <time>2018-06-05T09:11:11Z</time>
      </trkpt>
      <trkpt lat="46.05997" lon="4.71091">
        <ele>193</ele>
        <time>2018-06-05T09:11:12Z</time>
      </trkpt>
      <trkpt lat="46.06" lon="4.71097">
        <ele>193</ele>
        <time>2018-06-05T09:11:13Z</time>
      </trkpt>
      <trkpt lat="46.06002" lon="4.71104">
        <ele>193</ele>
        <time>2018-06-05T09:11:14Z</time>
      </trkpt>
      <trkpt lat="46.06007" lon="4.71109">
        <ele>193</ele>
        <time>2018-06-05T09:11:15Z</time>
      </trkpt>
      <trkpt lat="46.06011" lon="4.71117">
        <ele>193</ele>
        <time>2018-06-05T09:11:16Z</time>
      </trkpt>
      <trkpt lat="46.06014" lon="4.71125">
        <ele>193</ele>
        <time>2018-06-05T09:11:17Z</time>
      </trkpt>
      <trkpt lat="46.06015" lon="4.71134">
        <ele>193</ele>
        <time>2018-06-05T09:11:18Z</time>
      </trkpt>
      <trkpt lat="46.06017" lon="4.71142">
        <ele>193</ele>
        <time>2018-06-05T09:11:19Z</time>
      </trkpt>
      <trkpt lat="46.0602" lon="4.71151">
        <ele>193</ele>
        <time>2018-06-05T09:11:20Z</time>
      </trkpt>
      <trkpt lat="46.06023" lon="4.71158">
        <ele>194</ele>
        <time>2018-06-05T09:11:21Z</time>
      </trkpt>
      <trkpt lat="46.06025" lon="4.71167">
        <ele>194</ele>
        <time>2018-06-05T09:11:22Z</time>
      </trkpt>
      <trkpt lat="46.06028" lon="4.71175">
        <ele>193</ele>
        <time>2018-06-05T09:11:23Z</time>
      </trkpt>
      <trkpt lat="46.06031" lon="4.71183">
        <ele>193</ele>
        <time>2018-06-05T09:11:24Z</time>
      </trkpt>
      <trkpt lat="46.06035" lon="4.71192">
        <ele>193</ele>
        <time>2018-06-05T09:11:25Z</time>
      </trkpt>
      <trkpt lat="46.06038" lon="4.71199">
        <ele>193</ele>
        <time>2018-06-05T09:11:26Z</time>
      </trkpt>
      <trkpt lat="46.0604" lon="4.71206">
        <ele>193</ele>
        <time>2018-06-05T09:11:27Z</time>
      </trkpt>
      <trkpt lat="46.06043" lon="4.71215">
        <ele>193</ele>
        <time>2018-06-05T09:11:28Z</time>
      </trkpt>
      <trkpt lat="46.06047" lon="4.71218">
        <ele>193</ele>
        <time>2018-06-05T09:11:29Z</time>
      </trkpt>
      <trkpt lat="46.06049" lon="4.71226">
        <ele>193</ele>
        <time>2018-06-05T09:11:30Z</time>
      </trkpt>
      <trkpt lat="46.06051" lon="4.71233">
        <ele>193</ele>
        <time>2018-06-05T09:11:31Z</time>
      </trkpt>
      <trkpt lat="46.06055" lon="4.71242">
        <ele>193</ele>
        <time>2018-06-05T09:11:32Z</time>
      </trkpt>
      <trkpt lat="46.06056" lon="4.7125">
        <ele>193</ele>
        <time>2018-06-05T09:11:33Z</time>
      </trkpt>
      <trkpt lat="46.06058" lon="4.71258">
        <ele>193</ele>
        <time>2018-06-05T09:11:34Z</time>
      </trkpt>
      <trkpt lat="46.06061" lon="4.71265">
        <ele>193</ele>
        <time>2018-06-05T09:11:35Z</time>
      </trkpt>
      <trkpt lat="46.06063" lon="4.71272">
        <ele>193</ele>
        <time>2018-06-05T09:11:36Z</time>
      </trkpt>
      <trkpt lat="46.06065" lon="4.71278">
        <ele>193</ele>
        <time>2018-06-05T09:11:37Z</time>
      </trkpt>
      <trkpt lat="46.06066" lon="4.71285">
        <ele>193</ele>
        <time>2018-06-05T09:11:38Z</time>
      </trkpt>
      <trkpt lat="46.06068" lon="4.71291">
        <ele>193</ele>
        <time>2018-06-05T09:11:39Z</time>
      </trkpt>
      <trkpt lat="46.06071" lon="4.71298">
        <ele>193</ele>
        <time>2018-06-05T09:11:40Z</time>
      </trkpt>
      <trkpt lat="46.06072" lon="4.71306">
        <ele>193</ele>
        <time>2018-06-05T09:11:41Z</time>
      </trkpt>
      <trkpt lat="46.06075" lon="4.71312">
        <ele>193</ele>
        <time>2018-06-05T09:11:42Z</time>
      </trkpt>
      <trkpt lat="46.06077" lon="4.7132">
        <ele>193</ele>
        <time>2018-06-05T09:11:43Z</time>
      </trkpt>
      <trkpt lat="46.0608" lon="4.71327">
        <ele>193</ele>
        <time>2018-06-05T09:11:44Z</time>
      </trkpt>
      <trkpt lat="46.06082" lon="4.71333">
        <ele>193</ele>
        <time>2018-06-05T09:11:45Z</time>
      </trkpt>
      <trkpt lat="46.06084" lon="4.71341">
        <ele>193</ele>
        <time>2018-06-05T09:11:46Z</time>
      </trkpt>
      <trkpt lat="46.06087" lon="4.71349">
        <ele>193</ele>
        <time>2018-06-05T09:11:47Z</time>
      </trkpt>
      <trkpt lat="46.0609" lon="4.71357">
        <ele>193</ele>
        <time>2018-06-05T09:11:48Z</time>
      </trkpt>
      <trkpt lat="46.06093" lon="4.71365">
        <ele>193</ele>
        <time>2018-06-05T09:11:49Z</time>
      </trkpt>
      <trkpt lat="46.06096" lon="4.71374">
        <ele>193</ele>
        <time>2018-06-05T09:11:50Z</time>
      </trkpt>
      <trkpt lat="46.06098" lon="4.7138">
        <ele>193</ele>
        <time>2018-06-05T09:11:51Z</time>
      </trkpt>
      <trkpt lat="46.06101" lon="4.71389">
        <ele>193</ele>
        <time>2018-06-05T09:11:52Z</time>
      </trkpt>
      <trkpt lat="46.06103" lon="4.71397">
        <ele>193</ele>
        <time>2018-06-05T09:11:53Z</time>
      </trkpt>
      <trkpt lat="46.06106" lon="4.71404">
        <ele>193</ele>
        <time>2018-06-05T09:11:54Z</time>
      </trkpt>
      <trkpt lat="46.0611" lon="4.71411">
        <ele>193</ele>
        <time>2018-06-05T09:11:55Z</time>
      </trkpt>
      <trkpt lat="46.06112" lon="4.71418">
        <ele>193</ele>
        <time>2018-06-05T09:11:56Z</time>
      </trkpt>
      <trkpt lat="46.06115" lon="4.71426">
        <ele>193</ele>
        <time>2018-06-05T09:11:57Z</time>
      </trkpt>
      <trkpt lat="46.06117" lon="4.71435">
        <ele>193</ele>
        <time>2018-06-05T09:11:58Z</time>
      </trkpt>
      <trkpt lat="46.06119" lon="4.71443">
        <ele>193</ele>
        <time>2018-06-05T09:11:59Z</time>
      </trkpt>
      <trkpt lat="46.06121" lon="4.71451">
        <ele>193</ele>
        <time>2018-06-05T09:12:00Z</time>
      </trkpt>
      <trkpt lat="46.06124" lon="4.71462">
        <ele>193</ele>
        <time>2018-06-05T09:12:01Z</time>
      </trkpt>
      <trkpt lat="46.06127" lon="4.71474">
        <ele>192</ele>
        <time>2018-06-05T09:12:02Z</time>
      </trkpt>
      <trkpt lat="46.0613" lon="4.71483">
        <ele>192</ele>
        <time>2018-06-05T09:12:03Z</time>
      </trkpt>
      <trkpt lat="46.06133" lon="4.71492">
        <ele>192</ele>
        <time>2018-06-05T09:12:04Z</time>
      </trkpt>
      <trkpt lat="46.06135" lon="4.71499">
        <ele>192</ele>
        <time>2018-06-05T09:12:05Z</time>
      </trkpt>
      <trkpt lat="46.06137" lon="4.71507">
        <ele>192</ele>
        <time>2018-06-05T09:12:06Z</time>
      </trkpt>
      <trkpt lat="46.06141" lon="4.71516">
        <ele>192</ele>
        <time>2018-06-05T09:12:07Z</time>
      </trkpt>
      <trkpt lat="46.06145" lon="4.71525">
        <ele>192</ele>
        <time>2018-06-05T09:12:08Z</time>
      </trkpt>
      <trkpt lat="46.06149" lon="4.71533">
        <ele>192</ele>
        <time>2018-06-05T09:12:09Z</time>
      </trkpt>
      <trkpt lat="46.06154" lon="4.71542">
        <ele>192</ele>
        <time>2018-06-05T09:12:10Z</time>
      </trkpt>
      <trkpt lat="46.06159" lon="4.71549">
        <ele>192</ele>
        <time>2018-06-05T09:12:11Z</time>
      </trkpt>
      <trkpt lat="46.06164" lon="4.71555">
        <ele>192</ele>
        <time>2018-06-05T09:12:12Z</time>
      </trkpt>
      <trkpt lat="46.06166" lon="4.7156">
        <ele>192</ele>
        <time>2018-06-05T09:12:13Z</time>
      </trkpt>
      <trkpt lat="46.06169" lon="4.71566">
        <ele>191</ele>
        <time>2018-06-05T09:12:14Z</time>
      </trkpt>
      <trkpt lat="46.06174" lon="4.71572">
        <ele>191</ele>
        <time>2018-06-05T09:12:15Z</time>
      </trkpt>
      <trkpt lat="46.06179" lon="4.71579">
        <ele>191</ele>
        <time>2018-06-05T09:12:16Z</time>
      </trkpt>
      <trkpt lat="46.06184" lon="4.71586">
        <ele>191</ele>
        <time>2018-06-05T09:12:17Z</time>
      </trkpt>
      <trkpt lat="46.06189" lon="4.71592">
        <ele>191</ele>
        <time>2018-06-05T09:12:18Z</time>
      </trkpt>
      <trkpt lat="46.06194" lon="4.71598">
        <ele>191</ele>
        <time>2018-06-05T09:12:19Z</time>
      </trkpt>
      <trkpt lat="46.06198" lon="4.71604">
        <ele>191</ele>
        <time>2018-06-05T09:12:20Z</time>
      </trkpt>
      <trkpt lat="46.06203" lon="4.71612">
        <ele>191</ele>
        <time>2018-06-05T09:12:21Z</time>
      </trkpt>
      <trkpt lat="46.06207" lon="4.71619">
        <ele>191</ele>
        <time>2018-06-05T09:12:22Z</time>
      </trkpt>
      <trkpt lat="46.06211" lon="4.71625">
        <ele>191</ele>
        <time>2018-06-05T09:12:23Z</time>
      </trkpt>
      <trkpt lat="46.06216" lon="4.71633">
        <ele>191</ele>
        <time>2018-06-05T09:12:24Z</time>
      </trkpt>
      <trkpt lat="46.06221" lon="4.71639">
        <ele>191</ele>
        <time>2018-06-05T09:12:25Z</time>
      </trkpt>
      <trkpt lat="46.06225" lon="4.71647">
        <ele>191</ele>
        <time>2018-06-05T09:12:26Z</time>
      </trkpt>
      <trkpt lat="46.0623" lon="4.71654">
        <ele>191</ele>
        <time>2018-06-05T09:12:27Z</time>
      </trkpt>
      <trkpt lat="46.06234" lon="4.71659">
        <ele>191</ele>
        <time>2018-06-05T09:12:28Z</time>
      </trkpt>
      <trkpt lat="46.06237" lon="4.71669">
        <ele>191</ele>
        <time>2018-06-05T09:12:29Z</time>
      </trkpt>
      <trkpt lat="46.0624" lon="4.71676">
        <ele>191</ele>
        <time>2018-06-05T09:12:30Z</time>
      </trkpt>
      <trkpt lat="46.06243" lon="4.71685">
        <ele>191</ele>
        <time>2018-06-05T09:12:31Z</time>
      </trkpt>
      <trkpt lat="46.06246" lon="4.71691">
        <ele>191</ele>
        <time>2018-06-05T09:12:32Z</time>
      </trkpt>
      <trkpt lat="46.06249" lon="4.717">
        <ele>191</ele>
        <time>2018-06-05T09:12:33Z</time>
      </trkpt>
      <trkpt lat="46.06252" lon="4.71708">
        <ele>190</ele>
        <time>2018-06-05T09:12:34Z</time>
      </trkpt>
      <trkpt lat="46.06258" lon="4.71719">
        <ele>190</ele>
        <time>2018-06-05T09:12:35Z</time>
      </trkpt>
      <trkpt lat="46.06261" lon="4.71726">
        <ele>190</ele>
        <time>2018-06-05T09:12:36Z</time>
      </trkpt>
      <trkpt lat="46.06265" lon="4.71735">
        <ele>190</ele>
        <time>2018-06-05T09:12:37Z</time>
      </trkpt>
      <trkpt lat="46.06268" lon="4.71743">
        <ele>190</ele>
        <time>2018-06-05T09:12:38Z</time>
      </trkpt>
      <trkpt lat="46.06271" lon="4.71752">
        <ele>190</ele>
        <time>2018-06-05T09:12:39Z</time>
      </trkpt>
      <trkpt lat="46.06273" lon="4.71759">
        <ele>190</ele>
        <time>2018-06-05T09:12:40Z</time>
      </trkpt>
      <trkpt lat="46.06275" lon="4.71767">
        <ele>190</ele>
        <time>2018-06-05T09:12:41Z</time>
      </trkpt>
      <trkpt lat="46.06278" lon="4.71775">
        <ele>190</ele>
        <time>2018-06-05T09:12:42Z</time>
      </trkpt>
      <trkpt lat="46.06281" lon="4.71783">
        <ele>190</ele>
        <time>2018-06-05T09:12:43Z</time>
      </trkpt>
      <trkpt lat="46.06281" lon="4.7179">
        <ele>190</ele>
        <time>2018-06-05T09:12:44Z</time>
      </trkpt>
      <trkpt lat="46.06284" lon="4.71798">
        <ele>190</ele>
        <time>2018-06-05T09:12:45Z</time>
      </trkpt>
      <trkpt lat="46.06286" lon="4.71805">
        <ele>190</ele>
        <time>2018-06-05T09:12:46Z</time>
      </trkpt>
      <trkpt lat="46.06286" lon="4.71813">
        <ele>189</ele>
        <time>2018-06-05T09:12:47Z</time>
      </trkpt>
      <trkpt lat="46.06288" lon="4.71821">
        <ele>189</ele>
        <time>2018-06-05T09:12:48Z</time>
      </trkpt>
      <trkpt lat="46.06289" lon="4.71829">
        <ele>189</ele>
        <time>2018-06-05T09:12:49Z</time>
      </trkpt>
      <trkpt lat="46.06292" lon="4.71837">
        <ele>189</ele>
        <time>2018-06-05T09:12:50Z</time>
      </trkpt>
      <trkpt lat="46.06294" lon="4.71845">
        <ele>189</ele>
        <time>2018-06-05T09:12:51Z</time>
      </trkpt>
      <trkpt lat="46.06296" lon="4.71854">
        <ele>189</ele>
        <time>2018-06-05T09:12:52Z</time>
      </trkpt>
      <trkpt lat="46.063" lon="4.71866">
        <ele>189</ele>
        <time>2018-06-05T09:12:53Z</time>
      </trkpt>
      <trkpt lat="46.06303" lon="4.71877">
        <ele>189</ele>
        <time>2018-06-05T09:12:54Z</time>
      </trkpt>
      <trkpt lat="46.06305" lon="4.71887">
        <ele>189</ele>
        <time>2018-06-05T09:12:55Z</time>
      </trkpt>
      <trkpt lat="46.06307" lon="4.71894">
        <ele>189</ele>
        <time>2018-06-05T09:12:56Z</time>
      </trkpt>
      <trkpt lat="46.06309" lon="4.71905">
        <ele>189</ele>
        <time>2018-06-05T09:12:57Z</time>
      </trkpt>
      <trkpt lat="46.06311" lon="4.71914">
        <ele>189</ele>
        <time>2018-06-05T09:12:58Z</time>
      </trkpt>
      <trkpt lat="46.06312" lon="4.71923">
        <ele>190</ele>
        <time>2018-06-05T09:12:59Z</time>
      </trkpt>
      <trkpt lat="46.06313" lon="4.7193">
        <ele>190</ele>
        <time>2018-06-05T09:13:00Z</time>
      </trkpt>
      <trkpt lat="46.06315" lon="4.71936">
        <ele>190</ele>
        <time>2018-06-05T09:13:01Z</time>
      </trkpt>
      <trkpt lat="46.06318" lon="4.71943">
        <ele>190</ele>
        <time>2018-06-05T09:13:02Z</time>
      </trkpt>
      <trkpt lat="46.06319" lon="4.7195">
        <ele>190</ele>
        <time>2018-06-05T09:13:03Z</time>
      </trkpt>
      <trkpt lat="46.06322" lon="4.71961">
        <ele>190</ele>
        <time>2018-06-05T09:13:05Z</time>
      </trkpt>
      <trkpt lat="46.06324" lon="4.71968">
        <ele>190</ele>
        <time>2018-06-05T09:13:06Z</time>
      </trkpt>
      <trkpt lat="46.06326" lon="4.71975">
        <ele>190</ele>
        <time>2018-06-05T09:13:07Z</time>
      </trkpt>
      <trkpt lat="46.06328" lon="4.71981">
        <ele>190</ele>
        <time>2018-06-05T09:13:08Z</time>
      </trkpt>
      <trkpt lat="46.06329" lon="4.71987">
        <ele>190</ele>
        <time>2018-06-05T09:13:09Z</time>
      </trkpt>
      <trkpt lat="46.06331" lon="4.71995">
        <ele>189</ele>
        <time>2018-06-05T09:13:10Z</time>
      </trkpt>
      <trkpt lat="46.06332" lon="4.72002">
        <ele>189</ele>
        <time>2018-06-05T09:13:11Z</time>
      </trkpt>
      <trkpt lat="46.06335" lon="4.72009">
        <ele>189</ele>
        <time>2018-06-05T09:13:12Z</time>
      </trkpt>
      <trkpt lat="46.06337" lon="4.72018">
        <ele>189</ele>
        <time>2018-06-05T09:13:13Z</time>
      </trkpt>
      <trkpt lat="46.06339" lon="4.72024">
        <ele>189</ele>
        <time>2018-06-05T09:13:14Z</time>
      </trkpt>
      <trkpt lat="46.06341" lon="4.72031">
        <ele>189</ele>
        <time>2018-06-05T09:13:15Z</time>
      </trkpt>
      <trkpt lat="46.06343" lon="4.72039">
        <ele>189</ele>
        <time>2018-06-05T09:13:16Z</time>
      </trkpt>
      <trkpt lat="46.06346" lon="4.72047">
        <ele>189</ele>
        <time>2018-06-05T09:13:17Z</time>
      </trkpt>
      <trkpt lat="46.06349" lon="4.72054">
        <ele>189</ele>
        <time>2018-06-05T09:13:18Z</time>
      </trkpt>
      <trkpt lat="46.06352" lon="4.72061">
        <ele>189</ele>
        <time>2018-06-05T09:13:19Z</time>
      </trkpt>
      <trkpt lat="46.06355" lon="4.72068">
        <ele>189</ele>
        <time>2018-06-05T09:13:20Z</time>
      </trkpt>
      <trkpt lat="46.06357" lon="4.72075">
        <ele>189</ele>
        <time>2018-06-05T09:13:21Z</time>
      </trkpt>
      <trkpt lat="46.0636" lon="4.72084">
        <ele>189</ele>
        <time>2018-06-05T09:13:22Z</time>
      </trkpt>
      <trkpt lat="46.06363" lon="4.7209">
        <ele>189</ele>
        <time>2018-06-05T09:13:23Z</time>
      </trkpt>
      <trkpt lat="46.06366" lon="4.72099">
        <ele>189</ele>
        <time>2018-06-05T09:13:24Z</time>
      </trkpt>
      <trkpt lat="46.06368" lon="4.72106">
        <ele>189</ele>
        <time>2018-06-05T09:13:25Z</time>
      </trkpt>
      <trkpt lat="46.06371" lon="4.72113">
        <ele>189</ele>
        <time>2018-06-05T09:13:26Z</time>
      </trkpt>
      <trkpt lat="46.06374" lon="4.7212">
        <ele>189</ele>
        <time>2018-06-05T09:13:27Z</time>
      </trkpt>
      <trkpt lat="46.06376" lon="4.72128">
        <ele>189</ele>
        <time>2018-06-05T09:13:28Z</time>
      </trkpt>
      <trkpt lat="46.06377" lon="4.72135">
        <ele>189</ele>
        <time>2018-06-05T09:13:29Z</time>
      </trkpt>
      <trkpt lat="46.0638" lon="4.72145">
        <ele>189</ele>
        <time>2018-06-05T09:13:30Z</time>
      </trkpt>
      <trkpt lat="46.06382" lon="4.72152">
        <ele>189</ele>
        <time>2018-06-05T09:13:31Z</time>
      </trkpt>
      <trkpt lat="46.06384" lon="4.72159">
        <ele>189</ele>
        <time>2018-06-05T09:13:32Z</time>
      </trkpt>
      <trkpt lat="46.06387" lon="4.72166">
        <ele>188</ele>
        <time>2018-06-05T09:13:33Z</time>
      </trkpt>
      <trkpt lat="46.0639" lon="4.72172">
        <ele>189</ele>
        <time>2018-06-05T09:13:34Z</time>
      </trkpt>
      <trkpt lat="46.06391" lon="4.72182">
        <ele>189</ele>
        <time>2018-06-05T09:13:36Z</time>
      </trkpt>
      <trkpt lat="46.06392" lon="4.72189">
        <ele>189</ele>
        <time>2018-06-05T09:13:37Z</time>
      </trkpt>
      <trkpt lat="46.06395" lon="4.72196">
        <ele>190</ele>
        <time>2018-06-05T09:13:38Z</time>
      </trkpt>
      <trkpt lat="46.06397" lon="4.72202">
        <ele>190</ele>
        <time>2018-06-05T09:13:39Z</time>
      </trkpt>
      <trkpt lat="46.06402" lon="4.72213">
        <ele>190</ele>
        <time>2018-06-05T09:13:41Z</time>
      </trkpt>
      <trkpt lat="46.06405" lon="4.7222">
        <ele>190</ele>
        <time>2018-06-05T09:13:42Z</time>
      </trkpt>
      <trkpt lat="46.06407" lon="4.7223">
        <ele>190</ele>
        <time>2018-06-05T09:13:44Z</time>
      </trkpt>
      <trkpt lat="46.06409" lon="4.72235">
        <ele>190</ele>
        <time>2018-06-05T09:13:45Z</time>
      </trkpt>
      <trkpt lat="46.06412" lon="4.72247">
        <ele>189</ele>
        <time>2018-06-05T09:13:47Z</time>
      </trkpt>
      <trkpt lat="46.06413" lon="4.72253">
        <ele>190</ele>
        <time>2018-06-05T09:13:48Z</time>
      </trkpt>
      <trkpt lat="46.06413" lon="4.72263">
        <ele>191</ele>
        <time>2018-06-05T09:13:50Z</time>
      </trkpt>
      <trkpt lat="46.06416" lon="4.72269">
        <ele>191</ele>
        <time>2018-06-05T09:13:51Z</time>
      </trkpt>
      <trkpt lat="46.06421" lon="4.72279">
        <ele>190</ele>
        <time>2018-06-05T09:13:53Z</time>
      </trkpt>
      <trkpt lat="46.06424" lon="4.72283">
        <ele>190</ele>
        <time>2018-06-05T09:13:54Z</time>
      </trkpt>
      <trkpt lat="46.06428" lon="4.72283">
        <ele>190</ele>
        <time>2018-06-05T09:13:55Z</time>
      </trkpt>
      <trkpt lat="46.06433" lon="4.72285">
        <ele>190</ele>
        <time>2018-06-05T09:13:56Z</time>
      </trkpt>
      <trkpt lat="46.0644" lon="4.72287">
        <ele>190</ele>
        <time>2018-06-05T09:13:57Z</time>
      </trkpt>
      <trkpt lat="46.06444" lon="4.7229">
        <ele>190</ele>
        <time>2018-06-05T09:13:58Z</time>
      </trkpt>
      <trkpt lat="46.06449" lon="4.72294">
        <ele>190</ele>
        <time>2018-06-05T09:13:59Z</time>
      </trkpt>
      <trkpt lat="46.06451" lon="4.72299">
        <ele>190</ele>
        <time>2018-06-05T09:14:00Z</time>
      </trkpt>
      <trkpt lat="46.06452" lon="4.7231">
        <ele>191</ele>
        <time>2018-06-05T09:14:01Z</time>
      </trkpt>
      <trkpt lat="46.06452" lon="4.72316">
        <ele>191</ele>
        <time>2018-06-05T09:14:02Z</time>
      </trkpt>
      <trkpt lat="46.06452" lon="4.72325">
        <ele>191</ele>
        <time>2018-06-05T09:14:03Z</time>
      </trkpt>
      <trkpt lat="46.06452" lon="4.72331">
        <ele>191</ele>
        <time>2018-06-05T09:14:04Z</time>
      </trkpt>
      <trkpt lat="46.06448" lon="4.72341">
        <ele>194</ele>
        <time>2018-06-05T09:14:06Z</time>
      </trkpt>
      <trkpt lat="46.06446" lon="4.72346">
        <ele>194</ele>
        <time>2018-06-05T09:14:07Z</time>
      </trkpt>
      <trkpt lat="46.06444" lon="4.72352">
        <ele>194</ele>
        <time>2018-06-05T09:14:08Z</time>
      </trkpt>
      <trkpt lat="46.06442" lon="4.72359">
        <ele>194</ele>
        <time>2018-06-05T09:14:09Z</time>
      </trkpt>
      <trkpt lat="46.06441" lon="4.72363">
        <ele>194</ele>
        <time>2018-06-05T09:14:10Z</time>
      </trkpt>
      <trkpt lat="46.06439" lon="4.72371">
        <ele>194</ele>
        <time>2018-06-05T09:14:11Z</time>
      </trkpt>
      <trkpt lat="46.06437" lon="4.72376">
        <ele>195</ele>
        <time>2018-06-05T09:14:13Z</time>
      </trkpt>
      <trkpt lat="46.06435" lon="4.72384">
        <ele>195</ele>
        <time>2018-06-05T09:14:14Z</time>
      </trkpt>
      <trkpt lat="46.06431" lon="4.72394">
        <ele>195</ele>
        <time>2018-06-05T09:14:16Z</time>
      </trkpt>
      <trkpt lat="46.0643" lon="4.72401">
        <ele>195</ele>
        <time>2018-06-05T09:14:17Z</time>
      </trkpt>
      <trkpt lat="46.06429" lon="4.72414">
        <ele>195</ele>
        <time>2018-06-05T09:14:20Z</time>
      </trkpt>
      <trkpt lat="46.06426" lon="4.7242">
        <ele>196</ele>
        <time>2018-06-05T09:14:21Z</time>
      </trkpt>
      <trkpt lat="46.06421" lon="4.7243">
        <ele>196</ele>
        <time>2018-06-05T09:14:23Z</time>
      </trkpt>
      <trkpt lat="46.06425" lon="4.72439">
        <ele>197</ele>
        <time>2018-06-05T09:14:24Z</time>
      </trkpt>
      <trkpt lat="46.06423" lon="4.72451">
        <ele>197</ele>
        <time>2018-06-05T09:14:26Z</time>
      </trkpt>
      <trkpt lat="46.0642" lon="4.72454">
        <ele>197</ele>
        <time>2018-06-05T09:14:27Z</time>
      </trkpt>
      <trkpt lat="46.06415" lon="4.72462">
        <ele>198</ele>
        <time>2018-06-05T09:14:30Z</time>
      </trkpt>
      <trkpt lat="46.06413" lon="4.72465">
        <ele>198</ele>
        <time>2018-06-05T09:14:31Z</time>
      </trkpt>
      <trkpt lat="46.06405" lon="4.72471">
        <ele>198</ele>
        <time>2018-06-05T09:14:33Z</time>
      </trkpt>
      <trkpt lat="46.064" lon="4.72475">
        <ele>198</ele>
        <time>2018-06-05T09:14:34Z</time>
      </trkpt>
      <trkpt lat="46.06398" lon="4.72479">
        <ele>198</ele>
        <time>2018-06-05T09:14:36Z</time>
      </trkpt>
      <trkpt lat="46.06397" lon="4.72488">
        <ele>198</ele>
        <time>2018-06-05T09:14:37Z</time>
      </trkpt>
      <trkpt lat="46.06402" lon="4.72496">
        <ele>199</ele>
        <time>2018-06-05T09:14:38Z</time>
      </trkpt>
      <trkpt lat="46.06407" lon="4.72505">
        <ele>199</ele>
        <time>2018-06-05T09:14:39Z</time>
      </trkpt>
      <trkpt lat="46.06409" lon="4.72512">
        <ele>198</ele>
        <time>2018-06-05T09:14:40Z</time>
      </trkpt>
      <trkpt lat="46.0641" lon="4.72517">
        <ele>198</ele>
        <time>2018-06-05T09:14:41Z</time>
      </trkpt>
      <trkpt lat="46.06412" lon="4.72525">
        <ele>197</ele>
        <time>2018-06-05T09:14:42Z</time>
      </trkpt>
      <trkpt lat="46.06415" lon="4.72534">
        <ele>197</ele>
        <time>2018-06-05T09:14:43Z</time>
      </trkpt>
      <trkpt lat="46.06415" lon="4.72542">
        <ele>197</ele>
        <time>2018-06-05T09:14:44Z</time>
      </trkpt>
      <trkpt lat="46.06417" lon="4.72552">
        <ele>196</ele>
        <time>2018-06-05T09:14:45Z</time>
      </trkpt>
      <trkpt lat="46.06418" lon="4.72561">
        <ele>195</ele>
        <time>2018-06-05T09:14:46Z</time>
      </trkpt>
      <trkpt lat="46.0642" lon="4.7257">
        <ele>195</ele>
        <time>2018-06-05T09:14:47Z</time>
      </trkpt>
      <trkpt lat="46.06421" lon="4.72579">
        <ele>195</ele>
        <time>2018-06-05T09:14:48Z</time>
      </trkpt>
      <trkpt lat="46.06422" lon="4.72587">
        <ele>194</ele>
        <time>2018-06-05T09:14:49Z</time>
      </trkpt>
      <trkpt lat="46.06423" lon="4.72595">
        <ele>194</ele>
        <time>2018-06-05T09:14:50Z</time>
      </trkpt>
      <trkpt lat="46.06425" lon="4.72605">
        <ele>193</ele>
        <time>2018-06-05T09:14:51Z</time>
      </trkpt>
      <trkpt lat="46.06426" lon="4.72615">
        <ele>193</ele>
        <time>2018-06-05T09:14:52Z</time>
      </trkpt>
      <trkpt lat="46.06427" lon="4.72626">
        <ele>193</ele>
        <time>2018-06-05T09:14:53Z</time>
      </trkpt>
      <trkpt lat="46.06428" lon="4.72635">
        <ele>192</ele>
        <time>2018-06-05T09:14:54Z</time>
      </trkpt>
      <trkpt lat="46.0643" lon="4.72644">
        <ele>192</ele>
        <time>2018-06-05T09:14:55Z</time>
      </trkpt>
      <trkpt lat="46.06432" lon="4.72655">
        <ele>192</ele>
        <time>2018-06-05T09:14:56Z</time>
      </trkpt>
      <trkpt lat="46.06433" lon="4.72667">
        <ele>191</ele>
        <time>2018-06-05T09:14:57Z</time>
      </trkpt>
      <trkpt lat="46.06434" lon="4.72677">
        <ele>191</ele>
        <time>2018-06-05T09:14:58Z</time>
      </trkpt>
      <trkpt lat="46.06436" lon="4.72686">
        <ele>191</ele>
        <time>2018-06-05T09:14:59Z</time>
      </trkpt>
      <trkpt lat="46.0644" lon="4.72697">
        <ele>190</ele>
        <time>2018-06-05T09:15:00Z</time>
      </trkpt>
      <trkpt lat="46.0644" lon="4.72708">
        <ele>190</ele>
        <time>2018-06-05T09:15:01Z</time>
      </trkpt>
      <trkpt lat="46.06441" lon="4.72716">
        <ele>190</ele>
        <time>2018-06-05T09:15:02Z</time>
      </trkpt>
      <trkpt lat="46.06443" lon="4.72727">
        <ele>190</ele>
        <time>2018-06-05T09:15:03Z</time>
      </trkpt>
      <trkpt lat="46.06445" lon="4.72737">
        <ele>189</ele>
        <time>2018-06-05T09:15:04Z</time>
      </trkpt>
      <trkpt lat="46.06446" lon="4.72748">
        <ele>189</ele>
        <time>2018-06-05T09:15:05Z</time>
      </trkpt>
      <trkpt lat="46.06447" lon="4.72756">
        <ele>188</ele>
        <time>2018-06-05T09:15:06Z</time>
      </trkpt>
      <trkpt lat="46.06448" lon="4.72766">
        <ele>188</ele>
        <time>2018-06-05T09:15:07Z</time>
      </trkpt>
      <trkpt lat="46.06449" lon="4.72775">
        <ele>188</ele>
        <time>2018-06-05T09:15:08Z</time>
      </trkpt>
      <trkpt lat="46.0645" lon="4.72784">
        <ele>188</ele>
        <time>2018-06-05T09:15:09Z</time>
      </trkpt>
      <trkpt lat="46.06451" lon="4.72792">
        <ele>188</ele>
        <time>2018-06-05T09:15:10Z</time>
      </trkpt>
      <trkpt lat="46.06453" lon="4.72802">
        <ele>188</ele>
        <time>2018-06-05T09:15:11Z</time>
      </trkpt>
      <trkpt lat="46.06455" lon="4.72811">
        <ele>188</ele>
        <time>2018-06-05T09:15:12Z</time>
      </trkpt>
      <trkpt lat="46.06458" lon="4.72822">
        <ele>188</ele>
        <time>2018-06-05T09:15:13Z</time>
      </trkpt>
      <trkpt lat="46.0646" lon="4.72833">
        <ele>188</ele>
        <time>2018-06-05T09:15:14Z</time>
      </trkpt>
      <trkpt lat="46.06462" lon="4.72843">
        <ele>188</ele>
        <time>2018-06-05T09:15:15Z</time>
      </trkpt>
      <trkpt lat="46.06464" lon="4.72853">
        <ele>188</ele>
        <time>2018-06-05T09:15:16Z</time>
      </trkpt>
      <trkpt lat="46.06466" lon="4.7286">
        <ele>188</ele>
        <time>2018-06-05T09:15:17Z</time>
      </trkpt>
      <trkpt lat="46.06469" lon="4.72871">
        <ele>188</ele>
        <time>2018-06-05T09:15:18Z</time>
      </trkpt>
      <trkpt lat="46.06471" lon="4.72882">
        <ele>188</ele>
        <time>2018-06-05T09:15:19Z</time>
      </trkpt>
      <trkpt lat="46.06472" lon="4.72894">
        <ele>188</ele>
        <time>2018-06-05T09:15:20Z</time>
      </trkpt>
      <trkpt lat="46.06474" lon="4.72904">
        <ele>188</ele>
        <time>2018-06-05T09:15:21Z</time>
      </trkpt>
      <trkpt lat="46.06476" lon="4.72913">
        <ele>188</ele>
        <time>2018-06-05T09:15:22Z</time>
      </trkpt>
      <trkpt lat="46.06479" lon="4.72924">
        <ele>188</ele>
        <time>2018-06-05T09:15:23Z</time>
      </trkpt>
      <trkpt lat="46.06481" lon="4.72934">
        <ele>188</ele>
        <time>2018-06-05T09:15:24Z</time>
      </trkpt>
      <trkpt lat="46.06484" lon="4.72942">
        <ele>188</ele>
        <time>2018-06-05T09:15:25Z</time>
      </trkpt>
      <trkpt lat="46.06485" lon="4.72951">
        <ele>188</ele>
        <time>2018-06-05T09:15:26Z</time>
      </trkpt>
      <trkpt lat="46.06486" lon="4.72959">
        <ele>188</ele>
        <time>2018-06-05T09:15:27Z</time>
      </trkpt>
      <trkpt lat="46.06485" lon="4.72968">
        <ele>188</ele>
        <time>2018-06-05T09:15:28Z</time>
      </trkpt>
      <trkpt lat="46.06483" lon="4.72977">
        <ele>189</ele>
        <time>2018-06-05T09:15:29Z</time>
      </trkpt>
      <trkpt lat="46.0648" lon="4.72982">
        <ele>189</ele>
        <time>2018-06-05T09:15:30Z</time>
      </trkpt>
      <trkpt lat="46.0648" lon="4.72989">
        <ele>189</ele>
        <time>2018-06-05T09:15:31Z</time>
      </trkpt>
      <trkpt lat="46.06482" lon="4.72995">
        <ele>189</ele>
        <time>2018-06-05T09:15:32Z</time>
      </trkpt>
      <trkpt lat="46.06486" lon="4.73001">
        <ele>189</ele>
        <time>2018-06-05T09:15:33Z</time>
      </trkpt>
      <trkpt lat="46.0649" lon="4.73006">
        <ele>189</ele>
        <time>2018-06-05T09:15:34Z</time>
      </trkpt>
      <trkpt lat="46.06495" lon="4.73014">
        <ele>189</ele>
        <time>2018-06-05T09:15:35Z</time>
      </trkpt>
      <trkpt lat="46.06499" lon="4.73021">
        <ele>189</ele>
        <time>2018-06-05T09:15:36Z</time>
      </trkpt>
      <trkpt lat="46.06503" lon="4.73029">
        <ele>189</ele>
        <time>2018-06-05T09:15:37Z</time>
      </trkpt>
      <trkpt lat="46.06506" lon="4.73037">
        <ele>189</ele>
        <time>2018-06-05T09:15:38Z</time>
      </trkpt>
      <trkpt lat="46.06509" lon="4.73047">
        <ele>188</ele>
        <time>2018-06-05T09:15:39Z</time>
      </trkpt>
      <trkpt lat="46.06513" lon="4.73055">
        <ele>188</ele>
        <time>2018-06-05T09:15:40Z</time>
      </trkpt>
      <trkpt lat="46.06517" lon="4.73065">
        <ele>188</ele>
        <time>2018-06-05T09:15:41Z</time>
      </trkpt>
      <trkpt lat="46.0652" lon="4.73073">
        <ele>188</ele>
        <time>2018-06-05T09:15:42Z</time>
      </trkpt>
      <trkpt lat="46.06522" lon="4.73081">
        <ele>188</ele>
        <time>2018-06-05T09:15:43Z</time>
      </trkpt>
      <trkpt lat="46.06526" lon="4.73089">
        <ele>188</ele>
        <time>2018-06-05T09:15:44Z</time>
      </trkpt>
      <trkpt lat="46.0653" lon="4.73097">
        <ele>188</ele>
        <time>2018-06-05T09:15:45Z</time>
      </trkpt>
      <trkpt lat="46.06534" lon="4.73105">
        <ele>188</ele>
        <time>2018-06-05T09:15:46Z</time>
      </trkpt>
      <trkpt lat="46.06537" lon="4.73113">
        <ele>188</ele>
        <time>2018-06-05T09:15:47Z</time>
      </trkpt>
      <trkpt lat="46.06539" lon="4.73121">
        <ele>188</ele>
        <time>2018-06-05T09:15:48Z</time>
      </trkpt>
      <trkpt lat="46.06542" lon="4.73129">
        <ele>187</ele>
        <time>2018-06-05T09:15:49Z</time>
      </trkpt>
      <trkpt lat="46.06543" lon="4.7314">
        <ele>187</ele>
        <time>2018-06-05T09:15:50Z</time>
      </trkpt>
      <trkpt lat="46.06544" lon="4.73149">
        <ele>187</ele>
        <time>2018-06-05T09:15:51Z</time>
      </trkpt>
      <trkpt lat="46.06545" lon="4.73158">
        <ele>187</ele>
        <time>2018-06-05T09:15:52Z</time>
      </trkpt>
      <trkpt lat="46.06545" lon="4.73168">
        <ele>187</ele>
        <time>2018-06-05T09:15:53Z</time>
      </trkpt>
      <trkpt lat="46.06545" lon="4.73178">
        <ele>187</ele>
        <time>2018-06-05T09:15:54Z</time>
      </trkpt>
      <trkpt lat="46.06546" lon="4.73187">
        <ele>187</ele>
        <time>2018-06-05T09:15:55Z</time>
      </trkpt>
      <trkpt lat="46.06547" lon="4.73196">
        <ele>187</ele>
        <time>2018-06-05T09:15:56Z</time>
      </trkpt>
      <trkpt lat="46.06548" lon="4.73206">
        <ele>186</ele>
        <time>2018-06-05T09:15:57Z</time>
      </trkpt>
      <trkpt lat="46.06552" lon="4.73217">
        <ele>186</ele>
        <time>2018-06-05T09:15:58Z</time>
      </trkpt>
      <trkpt lat="46.06555" lon="4.73226">
        <ele>186</ele>
        <time>2018-06-05T09:15:59Z</time>
      </trkpt>
      <trkpt lat="46.06558" lon="4.73235">
        <ele>186</ele>
        <time>2018-06-05T09:16:00Z</time>
      </trkpt>
      <trkpt lat="46.06556" lon="4.73239">
        <ele>186</ele>
        <time>2018-06-05T09:16:01Z</time>
      </trkpt>
      <trkpt lat="46.06559" lon="4.73248">
        <ele>186</ele>
        <time>2018-06-05T09:16:02Z</time>
      </trkpt>
      <trkpt lat="46.06565" lon="4.73259">
        <ele>184</ele>
        <time>2018-06-05T09:16:03Z</time>
      </trkpt>
      <trkpt lat="46.06569" lon="4.73268">
        <ele>184</ele>
        <time>2018-06-05T09:16:04Z</time>
      </trkpt>
      <trkpt lat="46.06571" lon="4.73278">
        <ele>184</ele>
        <time>2018-06-05T09:16:05Z</time>
      </trkpt>
      <trkpt lat="46.06574" lon="4.73285">
        <ele>184</ele>
        <time>2018-06-05T09:16:06Z</time>
      </trkpt>
      <trkpt lat="46.06578" lon="4.73295">
        <ele>184</ele>
        <time>2018-06-05T09:16:07Z</time>
      </trkpt>
      <trkpt lat="46.06581" lon="4.73304">
        <ele>183</ele>
        <time>2018-06-05T09:16:08Z</time>
      </trkpt>
      <trkpt lat="46.06583" lon="4.73316">
        <ele>183</ele>
        <time>2018-06-05T09:16:09Z</time>
      </trkpt>
      <trkpt lat="46.06584" lon="4.73325">
        <ele>182</ele>
        <time>2018-06-05T09:16:10Z</time>
      </trkpt>
      <trkpt lat="46.06588" lon="4.73335">
        <ele>182</ele>
        <time>2018-06-05T09:16:11Z</time>
      </trkpt>
      <trkpt lat="46.06591" lon="4.7334">
        <ele>182</ele>
        <time>2018-06-05T09:16:12Z</time>
      </trkpt>
      <trkpt lat="46.06595" lon="4.73344">
        <ele>182</ele>
        <time>2018-06-05T09:16:13Z</time>
      </trkpt>
      <trkpt lat="46.06601" lon="4.73348">
        <ele>182</ele>
        <time>2018-06-05T09:16:14Z</time>
      </trkpt>
      <trkpt lat="46.06607" lon="4.73352">
        <ele>182</ele>
        <time>2018-06-05T09:16:15Z</time>
      </trkpt>
      <trkpt lat="46.06614" lon="4.73355">
        <ele>182</ele>
        <time>2018-06-05T09:16:16Z</time>
      </trkpt>
      <trkpt lat="46.06621" lon="4.73359">
        <ele>182</ele>
        <time>2018-06-05T09:16:17Z</time>
      </trkpt>
      <trkpt lat="46.06627" lon="4.73362">
        <ele>182</ele>
        <time>2018-06-05T09:16:18Z</time>
      </trkpt>
      <trkpt lat="46.06635" lon="4.73365">
        <ele>182</ele>
        <time>2018-06-05T09:16:19Z</time>
      </trkpt>
      <trkpt lat="46.06641" lon="4.73369">
        <ele>182</ele>
        <time>2018-06-05T09:16:20Z</time>
      </trkpt>
      <trkpt lat="46.06647" lon="4.73376">
        <ele>182</ele>
        <time>2018-06-05T09:16:21Z</time>
      </trkpt>
      <trkpt lat="46.06652" lon="4.73382">
        <ele>182</ele>
        <time>2018-06-05T09:16:22Z</time>
      </trkpt>
      <trkpt lat="46.06658" lon="4.73389">
        <ele>182</ele>
        <time>2018-06-05T09:16:23Z</time>
      </trkpt>
      <trkpt lat="46.06662" lon="4.73397">
        <ele>182</ele>
        <time>2018-06-05T09:16:24Z</time>
      </trkpt>
      <trkpt lat="46.06667" lon="4.73404">
        <ele>181</ele>
        <time>2018-06-05T09:16:25Z</time>
      </trkpt>
      <trkpt lat="46.06673" lon="4.73411">
        <ele>182</ele>
        <time>2018-06-05T09:16:26Z</time>
      </trkpt>
      <trkpt lat="46.06678" lon="4.7342">
        <ele>181</ele>
        <time>2018-06-05T09:16:27Z</time>
      </trkpt>
      <trkpt lat="46.06683" lon="4.73428">
        <ele>181</ele>
        <time>2018-06-05T09:16:28Z</time>
      </trkpt>
      <trkpt lat="46.06688" lon="4.73435">
        <ele>181</ele>
        <time>2018-06-05T09:16:29Z</time>
      </trkpt>
      <trkpt lat="46.06693" lon="4.73443">
        <ele>181</ele>
        <time>2018-06-05T09:16:30Z</time>
      </trkpt>
      <trkpt lat="46.06697" lon="4.73451">
        <ele>180</ele>
        <time>2018-06-05T09:16:31Z</time>
      </trkpt>
      <trkpt lat="46.06702" lon="4.73458">
        <ele>180</ele>
        <time>2018-06-05T09:16:32Z</time>
      </trkpt>
      <trkpt lat="46.06707" lon="4.73464">
        <ele>180</ele>
        <time>2018-06-05T09:16:33Z</time>
      </trkpt>
      <trkpt lat="46.06711" lon="4.73471">
        <ele>180</ele>
        <time>2018-06-05T09:16:34Z</time>
      </trkpt>
      <trkpt lat="46.06717" lon="4.73477">
        <ele>180</ele>
        <time>2018-06-05T09:16:35Z</time>
      </trkpt>
      <trkpt lat="46.06721" lon="4.73484">
        <ele>180</ele>
        <time>2018-06-05T09:16:36Z</time>
      </trkpt>
      <trkpt lat="46.06725" lon="4.7349">
        <ele>180</ele>
        <time>2018-06-05T09:16:37Z</time>
      </trkpt>
      <trkpt lat="46.0673" lon="4.73495">
        <ele>180</ele>
        <time>2018-06-05T09:16:38Z</time>
      </trkpt>
      <trkpt lat="46.06734" lon="4.73501">
        <ele>180</ele>
        <time>2018-06-05T09:16:39Z</time>
      </trkpt>
      <trkpt lat="46.06739" lon="4.73509">
        <ele>180</ele>
        <time>2018-06-05T09:16:40Z</time>
      </trkpt>
      <trkpt lat="46.06742" lon="4.73515">
        <ele>180</ele>
        <time>2018-06-05T09:16:41Z</time>
      </trkpt>
      <trkpt lat="46.06747" lon="4.73522">
        <ele>180</ele>
        <time>2018-06-05T09:16:42Z</time>
      </trkpt>
      <trkpt lat="46.06751" lon="4.73529">
        <ele>179</ele>
        <time>2018-06-05T09:16:43Z</time>
      </trkpt>
      <trkpt lat="46.06757" lon="4.73536">
        <ele>179</ele>
        <time>2018-06-05T09:16:44Z</time>
      </trkpt>
      <trkpt lat="46.06761" lon="4.73542">
        <ele>179</ele>
        <time>2018-06-05T09:16:45Z</time>
      </trkpt>
      <trkpt lat="46.06766" lon="4.7355">
        <ele>179</ele>
        <time>2018-06-05T09:16:46Z</time>
      </trkpt>
      <trkpt lat="46.06769" lon="4.73558">
        <ele>180</ele>
        <time>2018-06-05T09:16:47Z</time>
      </trkpt>
      <trkpt lat="46.06775" lon="4.73567">
        <ele>180</ele>
        <time>2018-06-05T09:16:48Z</time>
      </trkpt>
      <trkpt lat="46.06778" lon="4.73576">
        <ele>180</ele>
        <time>2018-06-05T09:16:49Z</time>
      </trkpt>
      <trkpt lat="46.06784" lon="4.73585">
        <ele>179</ele>
        <time>2018-06-05T09:16:50Z</time>
      </trkpt>
      <trkpt lat="46.06788" lon="4.73592">
        <ele>179</ele>
        <time>2018-06-05T09:16:51Z</time>
      </trkpt>
      <trkpt lat="46.06794" lon="4.73601">
        <ele>179</ele>
        <time>2018-06-05T09:16:52Z</time>
      </trkpt>
      <trkpt lat="46.06797" lon="4.73607">
        <ele>178</ele>
        <time>2018-06-05T09:16:53Z</time>
      </trkpt>
      <trkpt lat="46.06802" lon="4.73613">
        <ele>178</ele>
        <time>2018-06-05T09:16:54Z</time>
      </trkpt>
      <trkpt lat="46.06806" lon="4.73619">
        <ele>178</ele>
        <time>2018-06-05T09:16:55Z</time>
      </trkpt>
      <trkpt lat="46.06812" lon="4.73626">
        <ele>178</ele>
        <time>2018-06-05T09:16:56Z</time>
      </trkpt>
      <trkpt lat="46.06817" lon="4.73632">
        <ele>178</ele>
        <time>2018-06-05T09:16:57Z</time>
      </trkpt>
      <trkpt lat="46.06824" lon="4.73638">
        <ele>178</ele>
        <time>2018-06-05T09:16:58Z</time>
      </trkpt>
      <trkpt lat="46.06829" lon="4.73643">
        <ele>177</ele>
        <time>2018-06-05T09:16:59Z</time>
      </trkpt>
      <trkpt lat="46.06833" lon="4.73647">
        <ele>177</ele>
        <time>2018-06-05T09:17:00Z</time>
      </trkpt>
      <trkpt lat="46.06838" lon="4.73653">
        <ele>176</ele>
        <time>2018-06-05T09:17:01Z</time>
      </trkpt>
      <trkpt lat="46.06844" lon="4.73659">
        <ele>176</ele>
        <time>2018-06-05T09:17:02Z</time>
      </trkpt>
      <trkpt lat="46.0685" lon="4.73664">
        <ele>176</ele>
        <time>2018-06-05T09:17:03Z</time>
      </trkpt>
      <trkpt lat="46.06854" lon="4.73669">
        <ele>176</ele>
        <time>2018-06-05T09:17:04Z</time>
      </trkpt>
      <trkpt lat="46.0686" lon="4.73675">
        <ele>176</ele>
        <time>2018-06-05T09:17:05Z</time>
      </trkpt>
      <trkpt lat="46.06866" lon="4.73681">
        <ele>176</ele>
        <time>2018-06-05T09:17:06Z</time>
      </trkpt>
      <trkpt lat="46.06873" lon="4.73687">
        <ele>176</ele>
        <time>2018-06-05T09:17:07Z</time>
      </trkpt>
      <trkpt lat="46.06878" lon="4.73693">
        <ele>176</ele>
        <time>2018-06-05T09:17:08Z</time>
      </trkpt>
      <trkpt lat="46.06884" lon="4.737">
        <ele>176</ele>
        <time>2018-06-05T09:17:09Z</time>
      </trkpt>
      <trkpt lat="46.06889" lon="4.73707">
        <ele>176</ele>
        <time>2018-06-05T09:17:10Z</time>
      </trkpt>
      <trkpt lat="46.06894" lon="4.73714">
        <ele>176</ele>
        <time>2018-06-05T09:17:11Z</time>
      </trkpt>
      <trkpt lat="46.06899" lon="4.73722">
        <ele>176</ele>
        <time>2018-06-05T09:17:12Z</time>
      </trkpt>
      <trkpt lat="46.06903" lon="4.73729">
        <ele>176</ele>
        <time>2018-06-05T09:17:13Z</time>
      </trkpt>
      <trkpt lat="46.06908" lon="4.73736">
        <ele>177</ele>
        <time>2018-06-05T09:17:14Z</time>
      </trkpt>
      <trkpt lat="46.06911" lon="4.73742">
        <ele>177</ele>
        <time>2018-06-05T09:17:15Z</time>
      </trkpt>
      <trkpt lat="46.06916" lon="4.73748">
        <ele>177</ele>
        <time>2018-06-05T09:17:16Z</time>
      </trkpt>
      <trkpt lat="46.0692" lon="4.73755">
        <ele>177</ele>
        <time>2018-06-05T09:17:17Z</time>
      </trkpt>
      <trkpt lat="46.06925" lon="4.73761">
        <ele>177</ele>
        <time>2018-06-05T09:17:18Z</time>
      </trkpt>
      <trkpt lat="46.0693" lon="4.73767">
        <ele>176</ele>
        <time>2018-06-05T09:17:19Z</time>
      </trkpt>
      <trkpt lat="46.06934" lon="4.73769">
        <ele>176</ele>
        <time>2018-06-05T09:17:20Z</time>
      </trkpt>
      <trkpt lat="46.0694" lon="4.73774">
        <ele>176</ele>
        <time>2018-06-05T09:17:21Z</time>
      </trkpt>
      <trkpt lat="46.06945" lon="4.73777">
        <ele>176</ele>
        <time>2018-06-05T09:17:22Z</time>
      </trkpt>
      <trkpt lat="46.06951" lon="4.73781">
        <ele>176</ele>
        <time>2018-06-05T09:17:23Z</time>
      </trkpt>
      <trkpt lat="46.06957" lon="4.73783">
        <ele>176</ele>
        <time>2018-06-05T09:17:24Z</time>
      </trkpt>
      <trkpt lat="46.06964" lon="4.73785">
        <ele>176</ele>
        <time>2018-06-05T09:17:25Z</time>
      </trkpt>
      <trkpt lat="46.06971" lon="4.73787">
        <ele>176</ele>
        <time>2018-06-05T09:17:26Z</time>
      </trkpt>
      <trkpt lat="46.06978" lon="4.73789">
        <ele>176</ele>
        <time>2018-06-05T09:17:27Z</time>
      </trkpt>
      <trkpt lat="46.06984" lon="4.7379">
        <ele>176</ele>
        <time>2018-06-05T09:17:28Z</time>
      </trkpt>
      <trkpt lat="46.06991" lon="4.73791">
        <ele>176</ele>
        <time>2018-06-05T09:17:29Z</time>
      </trkpt>
      <trkpt lat="46.06998" lon="4.73791">
        <ele>176</ele>
        <time>2018-06-05T09:17:30Z</time>
      </trkpt>
      <trkpt lat="46.07006" lon="4.7379">
        <ele>177</ele>
        <time>2018-06-05T09:17:31Z</time>
      </trkpt>
      <trkpt lat="46.07014" lon="4.73787">
        <ele>177</ele>
        <time>2018-06-05T09:17:32Z</time>
      </trkpt>
      <trkpt lat="46.0702" lon="4.73788">
        <ele>177</ele>
        <time>2018-06-05T09:17:33Z</time>
      </trkpt>
      <trkpt lat="46.07027" lon="4.73789">
        <ele>177</ele>
        <time>2018-06-05T09:17:34Z</time>
      </trkpt>
      <trkpt lat="46.07032" lon="4.7379">
        <ele>177</ele>
        <time>2018-06-05T09:17:35Z</time>
      </trkpt>
      <trkpt lat="46.07038" lon="4.73791">
        <ele>177</ele>
        <time>2018-06-05T09:17:36Z</time>
      </trkpt>
      <trkpt lat="46.07043" lon="4.73789">
        <ele>177</ele>
        <time>2018-06-05T09:17:37Z</time>
      </trkpt>
      <trkpt lat="46.07049" lon="4.73791">
        <ele>177</ele>
        <time>2018-06-05T09:17:38Z</time>
      </trkpt>
      <trkpt lat="46.07053" lon="4.73793">
        <ele>177</ele>
        <time>2018-06-05T09:17:39Z</time>
      </trkpt>
      <trkpt lat="46.07058" lon="4.73795">
        <ele>178</ele>
        <time>2018-06-05T09:17:40Z</time>
      </trkpt>
      <trkpt lat="46.07065" lon="4.73797">
        <ele>178</ele>
        <time>2018-06-05T09:17:41Z</time>
      </trkpt>
      <trkpt lat="46.07071" lon="4.73799">
        <ele>178</ele>
        <time>2018-06-05T09:17:42Z</time>
      </trkpt>
      <trkpt lat="46.07077" lon="4.738">
        <ele>178</ele>
        <time>2018-06-05T09:17:43Z</time>
      </trkpt>
      <trkpt lat="46.07083" lon="4.73804">
        <ele>178</ele>
        <time>2018-06-05T09:17:44Z</time>
      </trkpt>
      <trkpt lat="46.07088" lon="4.73808">
        <ele>178</ele>
        <time>2018-06-05T09:17:45Z</time>
      </trkpt>
      <trkpt lat="46.07094" lon="4.73813">
        <ele>178</ele>
        <time>2018-06-05T09:17:46Z</time>
      </trkpt>
      <trkpt lat="46.07099" lon="4.73816">
        <ele>178</ele>
        <time>2018-06-05T09:17:47Z</time>
      </trkpt>
      <trkpt lat="46.07105" lon="4.73821">
        <ele>178</ele>
        <time>2018-06-05T09:17:48Z</time>
      </trkpt>
      <trkpt lat="46.07111" lon="4.73826">
        <ele>177</ele>
        <time>2018-06-05T09:17:49Z</time>
      </trkpt>
      <trkpt lat="46.07116" lon="4.73831">
        <ele>177</ele>
        <time>2018-06-05T09:17:50Z</time>
      </trkpt>
      <trkpt lat="46.07121" lon="4.73835">
        <ele>177</ele>
        <time>2018-06-05T09:17:51Z</time>
      </trkpt>
      <trkpt lat="46.07126" lon="4.73843">
        <ele>176</ele>
        <time>2018-06-05T09:17:52Z</time>
      </trkpt>
      <trkpt lat="46.0713" lon="4.7385">
        <ele>176</ele>
        <time>2018-06-05T09:17:53Z</time>
      </trkpt>
      <trkpt lat="46.07134" lon="4.73857">
        <ele>176</ele>
        <time>2018-06-05T09:17:54Z</time>
      </trkpt>
      <trkpt lat="46.07138" lon="4.73864">
        <ele>176</ele>
        <time>2018-06-05T09:17:55Z</time>
      </trkpt>
      <trkpt lat="46.07142" lon="4.73871">
        <ele>176</ele>
        <time>2018-06-05T09:17:56Z</time>
      </trkpt>
      <trkpt lat="46.07146" lon="4.73879">
        <ele>176</ele>
        <time>2018-06-05T09:17:57Z</time>
      </trkpt>
      <trkpt lat="46.07149" lon="4.73886">
        <ele>176</ele>
        <time>2018-06-05T09:17:58Z</time>
      </trkpt>
      <trkpt lat="46.07153" lon="4.73893">
        <ele>177</ele>
        <time>2018-06-05T09:17:59Z</time>
      </trkpt>
      <trkpt lat="46.07156" lon="4.73902">
        <ele>177</ele>
        <time>2018-06-05T09:18:00Z</time>
      </trkpt>
      <trkpt lat="46.07159" lon="4.73909">
        <ele>177</ele>
        <time>2018-06-05T09:18:01Z</time>
      </trkpt>
      <trkpt lat="46.07161" lon="4.73918">
        <ele>177</ele>
        <time>2018-06-05T09:18:02Z</time>
      </trkpt>
      <trkpt lat="46.07164" lon="4.73926">
        <ele>177</ele>
        <time>2018-06-05T09:18:03Z</time>
      </trkpt>
      <trkpt lat="46.07166" lon="4.73936">
        <ele>177</ele>
        <time>2018-06-05T09:18:04Z</time>
      </trkpt>
      <trkpt lat="46.07169" lon="4.73943">
        <ele>177</ele>
        <time>2018-06-05T09:18:05Z</time>
      </trkpt>
      <trkpt lat="46.07172" lon="4.73951">
        <ele>177</ele>
        <time>2018-06-05T09:18:06Z</time>
      </trkpt>
      <trkpt lat="46.07173" lon="4.73961">
        <ele>178</ele>
        <time>2018-06-05T09:18:07Z</time>
      </trkpt>
      <trkpt lat="46.07176" lon="4.73968">
        <ele>178</ele>
        <time>2018-06-05T09:18:08Z</time>
      </trkpt>
      <trkpt lat="46.07178" lon="4.73977">
        <ele>178</ele>
        <time>2018-06-05T09:18:09Z</time>
      </trkpt>
      <trkpt lat="46.0718" lon="4.73983">
        <ele>178</ele>
        <time>2018-06-05T09:18:10Z</time>
      </trkpt>
      <trkpt lat="46.07183" lon="4.73991">
        <ele>178</ele>
        <time>2018-06-05T09:18:11Z</time>
      </trkpt>
      <trkpt lat="46.07185" lon="4.73998">
        <ele>178</ele>
        <time>2018-06-05T09:18:12Z</time>
      </trkpt>
      <trkpt lat="46.07188" lon="4.74005">
        <ele>178</ele>
        <time>2018-06-05T09:18:13Z</time>
      </trkpt>
      <trkpt lat="46.07191" lon="4.74015">
        <ele>178</ele>
        <time>2018-06-05T09:18:15Z</time>
      </trkpt>
      <trkpt lat="46.07192" lon="4.74021">
        <ele>178</ele>
        <time>2018-06-05T09:18:16Z</time>
      </trkpt>
      <trkpt lat="46.07195" lon="4.74028">
        <ele>178</ele>
        <time>2018-06-05T09:18:17Z</time>
      </trkpt>
      <trkpt lat="46.07196" lon="4.74033">
        <ele>178</ele>
        <time>2018-06-05T09:18:18Z</time>
      </trkpt>
      <trkpt lat="46.072" lon="4.74037">
        <ele>178</ele>
        <time>2018-06-05T09:18:19Z</time>
      </trkpt>
      <trkpt lat="46.07204" lon="4.74042">
        <ele>178</ele>
        <time>2018-06-05T09:18:20Z</time>
      </trkpt>
      <trkpt lat="46.07207" lon="4.74054">
        <ele>178</ele>
        <time>2018-06-05T09:18:23Z</time>
      </trkpt>
      <trkpt lat="46.0721" lon="4.74065">
        <ele>177</ele>
        <time>2018-06-05T09:18:24Z</time>
      </trkpt>
      <trkpt lat="46.07212" lon="4.74073">
        <ele>177</ele>
        <time>2018-06-05T09:18:26Z</time>
      </trkpt>
      <trkpt lat="46.07214" lon="4.7408">
        <ele>177</ele>
        <time>2018-06-05T09:18:27Z</time>
      </trkpt>
      <trkpt lat="46.07218" lon="4.7409">
        <ele>177</ele>
        <time>2018-06-05T09:18:29Z</time>
      </trkpt>
      <trkpt lat="46.0722" lon="4.74096">
        <ele>177</ele>
        <time>2018-06-05T09:18:30Z</time>
      </trkpt>
      <trkpt lat="46.07222" lon="4.74102">
        <ele>177</ele>
        <time>2018-06-05T09:18:31Z</time>
      </trkpt>
      <trkpt lat="46.07223" lon="4.74108">
        <ele>177</ele>
        <time>2018-06-05T09:18:32Z</time>
      </trkpt>
      <trkpt lat="46.07225" lon="4.74114">
        <ele>177</ele>
        <time>2018-06-05T09:18:33Z</time>
      </trkpt>
      <trkpt lat="46.07226" lon="4.74122">
        <ele>177</ele>
        <time>2018-06-05T09:18:34Z</time>
      </trkpt>
      <trkpt lat="46.07229" lon="4.74128">
        <ele>177</ele>
        <time>2018-06-05T09:18:35Z</time>
      </trkpt>
      <trkpt lat="46.07231" lon="4.74134">
        <ele>177</ele>
        <time>2018-06-05T09:18:36Z</time>
      </trkpt>
      <trkpt lat="46.07234" lon="4.74141">
        <ele>177</ele>
        <time>2018-06-05T09:18:37Z</time>
      </trkpt>
      <trkpt lat="46.07237" lon="4.74148">
        <ele>177</ele>
        <time>2018-06-05T09:18:38Z</time>
      </trkpt>
      <trkpt lat="46.07238" lon="4.74155">
        <ele>177</ele>
        <time>2018-06-05T09:18:39Z</time>
      </trkpt>
      <trkpt lat="46.07242" lon="4.74164">
        <ele>177</ele>
        <time>2018-06-05T09:18:40Z</time>
      </trkpt>
      <trkpt lat="46.07245" lon="4.74171">
        <ele>177</ele>
        <time>2018-06-05T09:18:41Z</time>
      </trkpt>
      <trkpt lat="46.07247" lon="4.74178">
        <ele>176</ele>
        <time>2018-06-05T09:18:42Z</time>
      </trkpt>
      <trkpt lat="46.07251" lon="4.74187">
        <ele>176</ele>
        <time>2018-06-05T09:18:43Z</time>
      </trkpt>
      <trkpt lat="46.07253" lon="4.74195">
        <ele>176</ele>
        <time>2018-06-05T09:18:44Z</time>
      </trkpt>
      <trkpt lat="46.07256" lon="4.74204">
        <ele>176</ele>
        <time>2018-06-05T09:18:45Z</time>
      </trkpt>
      <trkpt lat="46.07259" lon="4.74212">
        <ele>176</ele>
        <time>2018-06-05T09:18:46Z</time>
      </trkpt>
      <trkpt lat="46.07261" lon="4.74221">
        <ele>176</ele>
        <time>2018-06-05T09:18:47Z</time>
      </trkpt>
      <trkpt lat="46.07263" lon="4.7423">
        <ele>176</ele>
        <time>2018-06-05T09:18:48Z</time>
      </trkpt>
      <trkpt lat="46.07269" lon="4.7424">
        <ele>175</ele>
        <time>2018-06-05T09:18:49Z</time>
      </trkpt>
      <trkpt lat="46.07273" lon="4.74249">
        <ele>175</ele>
        <time>2018-06-05T09:18:50Z</time>
      </trkpt>
      <trkpt lat="46.07276" lon="4.74258">
        <ele>175</ele>
        <time>2018-06-05T09:18:51Z</time>
      </trkpt>
      <trkpt lat="46.0728" lon="4.74268">
        <ele>175</ele>
        <time>2018-06-05T09:18:52Z</time>
      </trkpt>
      <trkpt lat="46.07284" lon="4.74278">
        <ele>175</ele>
        <time>2018-06-05T09:18:53Z</time>
      </trkpt>
      <trkpt lat="46.07286" lon="4.74289">
        <ele>174</ele>
        <time>2018-06-05T09:18:54Z</time>
      </trkpt>
      <trkpt lat="46.07289" lon="4.74301">
        <ele>174</ele>
        <time>2018-06-05T09:18:55Z</time>
      </trkpt>
      <trkpt lat="46.07291" lon="4.74312">
        <ele>174</ele>
        <time>2018-06-05T09:18:56Z</time>
      </trkpt>
      <trkpt lat="46.07293" lon="4.74322">
        <ele>174</ele>
        <time>2018-06-05T09:18:57Z</time>
      </trkpt>
      <trkpt lat="46.07295" lon="4.74335">
        <ele>174</ele>
        <time>2018-06-05T09:18:58Z</time>
      </trkpt>
      <trkpt lat="46.07296" lon="4.74347">
        <ele>174</ele>
        <time>2018-06-05T09:18:59Z</time>
      </trkpt>
      <trkpt lat="46.07297" lon="4.74358">
        <ele>174</ele>
        <time>2018-06-05T09:19:00Z</time>
      </trkpt>
      <trkpt lat="46.073" lon="4.7437">
        <ele>174</ele>
        <time>2018-06-05T09:19:01Z</time>
      </trkpt>
      <trkpt lat="46.07301" lon="4.74381">
        <ele>174</ele>
        <time>2018-06-05T09:19:02Z</time>
      </trkpt>
      <trkpt lat="46.07301" lon="4.74392">
        <ele>174</ele>
        <time>2018-06-05T09:19:03Z</time>
      </trkpt>
      <trkpt lat="46.07302" lon="4.74403">
        <ele>174</ele>
        <time>2018-06-05T09:19:04Z</time>
      </trkpt>
      <trkpt lat="46.07302" lon="4.74412">
        <ele>174</ele>
        <time>2018-06-05T09:19:05Z</time>
      </trkpt>
      <trkpt lat="46.07303" lon="4.74422">
        <ele>175</ele>
        <time>2018-06-05T09:19:06Z</time>
      </trkpt>
      <trkpt lat="46.07306" lon="4.74434">
        <ele>175</ele>
        <time>2018-06-05T09:19:07Z</time>
      </trkpt>
      <trkpt lat="46.07308" lon="4.74441">
        <ele>175</ele>
        <time>2018-06-05T09:19:08Z</time>
      </trkpt>
      <trkpt lat="46.07309" lon="4.74451">
        <ele>175</ele>
        <time>2018-06-05T09:19:09Z</time>
      </trkpt>
      <trkpt lat="46.07311" lon="4.7446">
        <ele>175</ele>
        <time>2018-06-05T09:19:10Z</time>
      </trkpt>
      <trkpt lat="46.07313" lon="4.74467">
        <ele>175</ele>
        <time>2018-06-05T09:19:11Z</time>
      </trkpt>
      <trkpt lat="46.07316" lon="4.74475">
        <ele>175</ele>
        <time>2018-06-05T09:19:12Z</time>
      </trkpt>
      <trkpt lat="46.07319" lon="4.74482">
        <ele>175</ele>
        <time>2018-06-05T09:19:14Z</time>
      </trkpt>
      <trkpt lat="46.07321" lon="4.74489">
        <ele>175</ele>
        <time>2018-06-05T09:19:15Z</time>
      </trkpt>
      <trkpt lat="46.07326" lon="4.74496">
        <ele>176</ele>
        <time>2018-06-05T09:19:16Z</time>
      </trkpt>
      <trkpt lat="46.07329" lon="4.74502">
        <ele>176</ele>
        <time>2018-06-05T09:19:17Z</time>
      </trkpt>
      <trkpt lat="46.07334" lon="4.7451">
        <ele>176</ele>
        <time>2018-06-05T09:19:18Z</time>
      </trkpt>
      <trkpt lat="46.07339" lon="4.74518">
        <ele>175</ele>
        <time>2018-06-05T09:19:19Z</time>
      </trkpt>
      <trkpt lat="46.07344" lon="4.74527">
        <ele>175</ele>
        <time>2018-06-05T09:19:20Z</time>
      </trkpt>
      <trkpt lat="46.0735" lon="4.74536">
        <ele>175</ele>
        <time>2018-06-05T09:19:21Z</time>
      </trkpt>
      <trkpt lat="46.07357" lon="4.74548">
        <ele>175</ele>
        <time>2018-06-05T09:19:22Z</time>
      </trkpt>
      <trkpt lat="46.07362" lon="4.74556">
        <ele>175</ele>
        <time>2018-06-05T09:19:23Z</time>
      </trkpt>
      <trkpt lat="46.07368" lon="4.74568">
        <ele>175</ele>
        <time>2018-06-05T09:19:24Z</time>
      </trkpt>
      <trkpt lat="46.07372" lon="4.74577">
        <ele>175</ele>
        <time>2018-06-05T09:19:25Z</time>
      </trkpt>
      <trkpt lat="46.07377" lon="4.74588">
        <ele>174</ele>
        <time>2018-06-05T09:19:26Z</time>
      </trkpt>
      <trkpt lat="46.07379" lon="4.74597">
        <ele>174</ele>
        <time>2018-06-05T09:19:27Z</time>
      </trkpt>
      <trkpt lat="46.07383" lon="4.74604">
        <ele>174</ele>
        <time>2018-06-05T09:19:28Z</time>
      </trkpt>
      <trkpt lat="46.07385" lon="4.74612">
        <ele>174</ele>
        <time>2018-06-05T09:19:29Z</time>
      </trkpt>
      <trkpt lat="46.07389" lon="4.74617">
        <ele>174</ele>
        <time>2018-06-05T09:19:30Z</time>
      </trkpt>
      <trkpt lat="46.07395" lon="4.74626">
        <ele>174</ele>
        <time>2018-06-05T09:19:31Z</time>
      </trkpt>
      <trkpt lat="46.07398" lon="4.74634">
        <ele>174</ele>
        <time>2018-06-05T09:19:32Z</time>
      </trkpt>
      <trkpt lat="46.07402" lon="4.74641">
        <ele>174</ele>
        <time>2018-06-05T09:19:33Z</time>
      </trkpt>
      <trkpt lat="46.07406" lon="4.74649">
        <ele>173</ele>
        <time>2018-06-05T09:19:34Z</time>
      </trkpt>
      <trkpt lat="46.0741" lon="4.74657">
        <ele>173</ele>
        <time>2018-06-05T09:19:35Z</time>
      </trkpt>
      <trkpt lat="46.07412" lon="4.74665">
        <ele>172</ele>
        <time>2018-06-05T09:19:36Z</time>
      </trkpt>
      <trkpt lat="46.07413" lon="4.7467">
        <ele>172</ele>
        <time>2018-06-05T09:19:37Z</time>
      </trkpt>
      <trkpt lat="46.07417" lon="4.74677">
        <ele>172</ele>
        <time>2018-06-05T09:19:38Z</time>
      </trkpt>
      <trkpt lat="46.0742" lon="4.74683">
        <ele>172</ele>
        <time>2018-06-05T09:19:39Z</time>
      </trkpt>
      <trkpt lat="46.07424" lon="4.7469">
        <ele>173</ele>
        <time>2018-06-05T09:19:40Z</time>
      </trkpt>
      <trkpt lat="46.07429" lon="4.74699">
        <ele>173</ele>
        <time>2018-06-05T09:19:41Z</time>
      </trkpt>
      <trkpt lat="46.07433" lon="4.74705">
        <ele>173</ele>
        <time>2018-06-05T09:19:42Z</time>
      </trkpt>
      <trkpt lat="46.07437" lon="4.74713">
        <ele>173</ele>
        <time>2018-06-05T09:19:43Z</time>
      </trkpt>
      <trkpt lat="46.0744" lon="4.7472">
        <ele>173</ele>
        <time>2018-06-05T09:19:44Z</time>
      </trkpt>
      <trkpt lat="46.07443" lon="4.74727">
        <ele>173</ele>
        <time>2018-06-05T09:19:45Z</time>
      </trkpt>
      <trkpt lat="46.07448" lon="4.74734">
        <ele>173</ele>
        <time>2018-06-05T09:19:46Z</time>
      </trkpt>
      <trkpt lat="46.07453" lon="4.74741">
        <ele>173</ele>
        <time>2018-06-05T09:19:47Z</time>
      </trkpt>
      <trkpt lat="46.07458" lon="4.74748">
        <ele>173</ele>
        <time>2018-06-05T09:19:48Z</time>
      </trkpt>
      <trkpt lat="46.07463" lon="4.74753">
        <ele>173</ele>
        <time>2018-06-05T09:19:49Z</time>
      </trkpt>
      <trkpt lat="46.07466" lon="4.74758">
        <ele>173</ele>
        <time>2018-06-05T09:19:50Z</time>
      </trkpt>
      <trkpt lat="46.07472" lon="4.74764">
        <ele>173</ele>
        <time>2018-06-05T09:19:51Z</time>
      </trkpt>
      <trkpt lat="46.07476" lon="4.74767">
        <ele>173</ele>
        <time>2018-06-05T09:19:52Z</time>
      </trkpt>
      <trkpt lat="46.07481" lon="4.7477">
        <ele>173</ele>
        <time>2018-06-05T09:19:53Z</time>
      </trkpt>
      <trkpt lat="46.07486" lon="4.74774">
        <ele>173</ele>
        <time>2018-06-05T09:19:54Z</time>
      </trkpt>
      <trkpt lat="46.07492" lon="4.7478">
        <ele>173</ele>
        <time>2018-06-05T09:19:55Z</time>
      </trkpt>
      <trkpt lat="46.07498" lon="4.74785">
        <ele>173</ele>
        <time>2018-06-05T09:19:56Z</time>
      </trkpt>
      <trkpt lat="46.07504" lon="4.7479">
        <ele>172</ele>
        <time>2018-06-05T09:19:57Z</time>
      </trkpt>
      <trkpt lat="46.07511" lon="4.74796">
        <ele>172</ele>
        <time>2018-06-05T09:19:58Z</time>
      </trkpt>
      <trkpt lat="46.07517" lon="4.748">
        <ele>172</ele>
        <time>2018-06-05T09:19:59Z</time>
      </trkpt>
      <trkpt lat="46.07524" lon="4.74804">
        <ele>172</ele>
        <time>2018-06-05T09:20:00Z</time>
      </trkpt>
      <trkpt lat="46.0753" lon="4.74809">
        <ele>172</ele>
        <time>2018-06-05T09:20:01Z</time>
      </trkpt>
      <trkpt lat="46.07536" lon="4.74813">
        <ele>172</ele>
        <time>2018-06-05T09:20:02Z</time>
      </trkpt>
      <trkpt lat="46.0754" lon="4.74817">
        <ele>172</ele>
        <time>2018-06-05T09:20:03Z</time>
      </trkpt>
      <trkpt lat="46.07546" lon="4.74822">
        <ele>172</ele>
        <time>2018-06-05T09:20:04Z</time>
      </trkpt>
      <trkpt lat="46.07551" lon="4.74827">
        <ele>172</ele>
        <time>2018-06-05T09:20:05Z</time>
      </trkpt>
      <trkpt lat="46.07558" lon="4.7483">
        <ele>172</ele>
        <time>2018-06-05T09:20:06Z</time>
      </trkpt>
      <trkpt lat="46.07561" lon="4.74835">
        <ele>171</ele>
        <time>2018-06-05T09:20:07Z</time>
      </trkpt>
      <trkpt lat="46.07567" lon="4.74839">
        <ele>171</ele>
        <time>2018-06-05T09:20:08Z</time>
      </trkpt>
      <trkpt lat="46.07573" lon="4.74844">
        <ele>171</ele>
        <time>2018-06-05T09:20:09Z</time>
      </trkpt>
      <trkpt lat="46.07578" lon="4.74849">
        <ele>171</ele>
        <time>2018-06-05T09:20:10Z</time>
      </trkpt>
      <trkpt lat="46.07583" lon="4.74855">
        <ele>171</ele>
        <time>2018-06-05T09:20:11Z</time>
      </trkpt>
      <trkpt lat="46.07589" lon="4.74859">
        <ele>171</ele>
        <time>2018-06-05T09:20:12Z</time>
      </trkpt>
      <trkpt lat="46.07595" lon="4.74863">
        <ele>171</ele>
        <time>2018-06-05T09:20:13Z</time>
      </trkpt>
      <trkpt lat="46.07602" lon="4.74868">
        <ele>171</ele>
        <time>2018-06-05T09:20:14Z</time>
      </trkpt>
      <trkpt lat="46.07607" lon="4.74872">
        <ele>171</ele>
        <time>2018-06-05T09:20:15Z</time>
      </trkpt>
      <trkpt lat="46.07612" lon="4.74877">
        <ele>171</ele>
        <time>2018-06-05T09:20:16Z</time>
      </trkpt>
      <trkpt lat="46.07618" lon="4.74881">
        <ele>171</ele>
        <time>2018-06-05T09:20:17Z</time>
      </trkpt>
      <trkpt lat="46.07622" lon="4.74884">
        <ele>171</ele>
        <time>2018-06-05T09:20:18Z</time>
      </trkpt>
      <trkpt lat="46.07628" lon="4.74889">
        <ele>171</ele>
        <time>2018-06-05T09:20:19Z</time>
      </trkpt>
      <trkpt lat="46.07632" lon="4.74894">
        <ele>171</ele>
        <time>2018-06-05T09:20:20Z</time>
      </trkpt>
      <trkpt lat="46.07638" lon="4.74899">
        <ele>171</ele>
        <time>2018-06-05T09:20:21Z</time>
      </trkpt>
      <trkpt lat="46.07642" lon="4.74901">
        <ele>171</ele>
        <time>2018-06-05T09:20:22Z</time>
      </trkpt>
      <trkpt lat="46.07648" lon="4.74905">
        <ele>171</ele>
        <time>2018-06-05T09:20:23Z</time>
      </trkpt>
      <trkpt lat="46.07654" lon="4.7491">
        <ele>172</ele>
        <time>2018-06-05T09:20:24Z</time>
      </trkpt>
      <trkpt lat="46.07659" lon="4.74916">
        <ele>172</ele>
        <time>2018-06-05T09:20:25Z</time>
      </trkpt>
      <trkpt lat="46.07664" lon="4.7492">
        <ele>172</ele>
        <time>2018-06-05T09:20:26Z</time>
      </trkpt>
      <trkpt lat="46.07669" lon="4.74925">
        <ele>172</ele>
        <time>2018-06-05T09:20:27Z</time>
      </trkpt>
      <trkpt lat="46.07675" lon="4.7493">
        <ele>172</ele>
        <time>2018-06-05T09:20:28Z</time>
      </trkpt>
      <trkpt lat="46.0768" lon="4.74935">
        <ele>172</ele>
        <time>2018-06-05T09:20:29Z</time>
      </trkpt>
      <trkpt lat="46.07685" lon="4.74938">
        <ele>172</ele>
        <time>2018-06-05T09:20:30Z</time>
      </trkpt>
      <trkpt lat="46.07687" lon="4.74946">
        <ele>172</ele>
        <time>2018-06-05T09:20:31Z</time>
      </trkpt>
      <trkpt lat="46.07693" lon="4.7495">
        <ele>172</ele>
        <time>2018-06-05T09:20:32Z</time>
      </trkpt>
      <trkpt lat="46.07698" lon="4.74952">
        <ele>172</ele>
        <time>2018-06-05T09:20:33Z</time>
      </trkpt>
      <trkpt lat="46.07703" lon="4.74957">
        <ele>172</ele>
        <time>2018-06-05T09:20:34Z</time>
      </trkpt>
      <trkpt lat="46.07708" lon="4.74963">
        <ele>172</ele>
        <time>2018-06-05T09:20:35Z</time>
      </trkpt>
      <trkpt lat="46.07714" lon="4.74966">
        <ele>172</ele>
        <time>2018-06-05T09:20:36Z</time>
      </trkpt>
      <trkpt lat="46.07718" lon="4.74968">
        <ele>172</ele>
        <time>2018-06-05T09:20:37Z</time>
      </trkpt>
      <trkpt lat="46.07723" lon="4.74971">
        <ele>172</ele>
        <time>2018-06-05T09:20:38Z</time>
      </trkpt>
      <trkpt lat="46.07728" lon="4.74974">
        <ele>172</ele>
        <time>2018-06-05T09:20:39Z</time>
      </trkpt>
      <trkpt lat="46.07732" lon="4.74979">
        <ele>172</ele>
        <time>2018-06-05T09:20:40Z</time>
      </trkpt>
      <trkpt lat="46.07738" lon="4.74982">
        <ele>173</ele>
        <time>2018-06-05T09:20:41Z</time>
      </trkpt>
      <trkpt lat="46.07742" lon="4.74985">
        <ele>173</ele>
        <time>2018-06-05T09:20:42Z</time>
      </trkpt>
      <trkpt lat="46.07747" lon="4.74989">
        <ele>173</ele>
        <time>2018-06-05T09:20:43Z</time>
      </trkpt>
      <trkpt lat="46.07752" lon="4.74994">
        <ele>173</ele>
        <time>2018-06-05T09:20:44Z</time>
      </trkpt>
      <trkpt lat="46.07757" lon="4.74997">
        <ele>172</ele>
        <time>2018-06-05T09:20:45Z</time>
      </trkpt>
      <trkpt lat="46.07761" lon="4.75">
        <ele>172</ele>
        <time>2018-06-05T09:20:46Z</time>
      </trkpt>
      <trkpt lat="46.07766" lon="4.75006">
        <ele>172</ele>
        <time>2018-06-05T09:20:47Z</time>
      </trkpt>
      <trkpt lat="46.07771" lon="4.75009">
        <ele>172</ele>
        <time>2018-06-05T09:20:48Z</time>
      </trkpt>
      <trkpt lat="46.07775" lon="4.75013">
        <ele>172</ele>
        <time>2018-06-05T09:20:49Z</time>
      </trkpt>
      <trkpt lat="46.07781" lon="4.75011">
        <ele>172</ele>
        <time>2018-06-05T09:20:50Z</time>
      </trkpt>
      <trkpt lat="46.07786" lon="4.75014">
        <ele>172</ele>
        <time>2018-06-05T09:20:51Z</time>
      </trkpt>
      <trkpt lat="46.0779" lon="4.75019">
        <ele>172</ele>
        <time>2018-06-05T09:20:52Z</time>
      </trkpt>
      <trkpt lat="46.07794" lon="4.75023">
        <ele>171</ele>
        <time>2018-06-05T09:20:53Z</time>
      </trkpt>
      <trkpt lat="46.07799" lon="4.75029">
        <ele>171</ele>
        <time>2018-06-05T09:20:54Z</time>
      </trkpt>
      <trkpt lat="46.07805" lon="4.75034">
        <ele>171</ele>
        <time>2018-06-05T09:20:55Z</time>
      </trkpt>
      <trkpt lat="46.0781" lon="4.75038">
        <ele>171</ele>
        <time>2018-06-05T09:20:56Z</time>
      </trkpt>
      <trkpt lat="46.07816" lon="4.75043">
        <ele>171</ele>
        <time>2018-06-05T09:20:57Z</time>
      </trkpt>
      <trkpt lat="46.07821" lon="4.75047">
        <ele>171</ele>
        <time>2018-06-05T09:20:58Z</time>
      </trkpt>
      <trkpt lat="46.07825" lon="4.75051">
        <ele>171</ele>
        <time>2018-06-05T09:20:59Z</time>
      </trkpt>
      <trkpt lat="46.0783" lon="4.75056">
        <ele>171</ele>
        <time>2018-06-05T09:21:00Z</time>
      </trkpt>
      <trkpt lat="46.07833" lon="4.75059">
        <ele>171</ele>
        <time>2018-06-05T09:21:01Z</time>
      </trkpt>
      <trkpt lat="46.07838" lon="4.75065">
        <ele>171</ele>
        <time>2018-06-05T09:21:02Z</time>
      </trkpt>
      <trkpt lat="46.07842" lon="4.75071">
        <ele>171</ele>
        <time>2018-06-05T09:21:03Z</time>
      </trkpt>
      <trkpt lat="46.07847" lon="4.75077">
        <ele>171</ele>
        <time>2018-06-05T09:21:04Z</time>
      </trkpt>
      <trkpt lat="46.07851" lon="4.75085">
        <ele>171</ele>
        <time>2018-06-05T09:21:05Z</time>
      </trkpt>
      <trkpt lat="46.07854" lon="4.75091">
        <ele>171</ele>
        <time>2018-06-05T09:21:06Z</time>
      </trkpt>
      <trkpt lat="46.07858" lon="4.75099">
        <ele>171</ele>
        <time>2018-06-05T09:21:07Z</time>
      </trkpt>
      <trkpt lat="46.07862" lon="4.75105">
        <ele>171</ele>
        <time>2018-06-05T09:21:08Z</time>
      </trkpt>
      <trkpt lat="46.07865" lon="4.7511">
        <ele>171</ele>
        <time>2018-06-05T09:21:09Z</time>
      </trkpt>
      <trkpt lat="46.07868" lon="4.75115">
        <ele>171</ele>
        <time>2018-06-05T09:21:10Z</time>
      </trkpt>
      <trkpt lat="46.07871" lon="4.7512">
        <ele>171</ele>
        <time>2018-06-05T09:21:11Z</time>
      </trkpt>
      <trkpt lat="46.07875" lon="4.75128">
        <ele>171</ele>
        <time>2018-06-05T09:21:12Z</time>
      </trkpt>
      <trkpt lat="46.07881" lon="4.75133">
        <ele>171</ele>
        <time>2018-06-05T09:21:13Z</time>
      </trkpt>
      <trkpt lat="46.07884" lon="4.75139">
        <ele>171</ele>
        <time>2018-06-05T09:21:14Z</time>
      </trkpt>
      <trkpt lat="46.07887" lon="4.75143">
        <ele>171</ele>
        <time>2018-06-05T09:21:15Z</time>
      </trkpt>
      <trkpt lat="46.0789" lon="4.75149">
        <ele>171</ele>
        <time>2018-06-05T09:21:16Z</time>
      </trkpt>
      <trkpt lat="46.07895" lon="4.75155">
        <ele>171</ele>
        <time>2018-06-05T09:21:17Z</time>
      </trkpt>
      <trkpt lat="46.07898" lon="4.75161">
        <ele>171</ele>
        <time>2018-06-05T09:21:18Z</time>
      </trkpt>
      <trkpt lat="46.07901" lon="4.75168">
        <ele>172</ele>
        <time>2018-06-05T09:21:19Z</time>
      </trkpt>
      <trkpt lat="46.07905" lon="4.75176">
        <ele>172</ele>
        <time>2018-06-05T09:21:20Z</time>
      </trkpt>
      <trkpt lat="46.07911" lon="4.75186">
        <ele>171</ele>
        <time>2018-06-05T09:21:22Z</time>
      </trkpt>
      <trkpt lat="46.07914" lon="4.75193">
        <ele>171</ele>
        <time>2018-06-05T09:21:23Z</time>
      </trkpt>
      <trkpt lat="46.07917" lon="4.75198">
        <ele>171</ele>
        <time>2018-06-05T09:21:24Z</time>
      </trkpt>
      <trkpt lat="46.0792" lon="4.75204">
        <ele>171</ele>
        <time>2018-06-05T09:21:25Z</time>
      </trkpt>
      <trkpt lat="46.07923" lon="4.75215">
        <ele>171</ele>
        <time>2018-06-05T09:21:27Z</time>
      </trkpt>
      <trkpt lat="46.07926" lon="4.75223">
        <ele>171</ele>
        <time>2018-06-05T09:21:28Z</time>
      </trkpt>
      <trkpt lat="46.07929" lon="4.7523">
        <ele>171</ele>
        <time>2018-06-05T09:21:29Z</time>
      </trkpt>
      <trkpt lat="46.0793" lon="4.75236">
        <ele>170</ele>
        <time>2018-06-05T09:21:30Z</time>
      </trkpt>
      <trkpt lat="46.07934" lon="4.75243">
        <ele>170</ele>
        <time>2018-06-05T09:21:31Z</time>
      </trkpt>
      <trkpt lat="46.07937" lon="4.75251">
        <ele>170</ele>
        <time>2018-06-05T09:21:32Z</time>
      </trkpt>
      <trkpt lat="46.07941" lon="4.75256">
        <ele>170</ele>
        <time>2018-06-05T09:21:33Z</time>
      </trkpt>
      <trkpt lat="46.07944" lon="4.75263">
        <ele>169</ele>
        <time>2018-06-05T09:21:34Z</time>
      </trkpt>
      <trkpt lat="46.0795" lon="4.75272">
        <ele>169</ele>
        <time>2018-06-05T09:21:35Z</time>
      </trkpt>
      <trkpt lat="46.07953" lon="4.7528">
        <ele>169</ele>
        <time>2018-06-05T09:21:36Z</time>
      </trkpt>
      <trkpt lat="46.07956" lon="4.75285">
        <ele>169</ele>
        <time>2018-06-05T09:21:37Z</time>
      </trkpt>
      <trkpt lat="46.07961" lon="4.75293">
        <ele>169</ele>
        <time>2018-06-05T09:21:38Z</time>
      </trkpt>
      <trkpt lat="46.07964" lon="4.75303">
        <ele>169</ele>
        <time>2018-06-05T09:21:39Z</time>
      </trkpt>
      <trkpt lat="46.07968" lon="4.7531">
        <ele>169</ele>
        <time>2018-06-05T09:21:40Z</time>
      </trkpt>
      <trkpt lat="46.07972" lon="4.75318">
        <ele>169</ele>
        <time>2018-06-05T09:21:41Z</time>
      </trkpt>
      <trkpt lat="46.07975" lon="4.75325">
        <ele>169</ele>
        <time>2018-06-05T09:21:42Z</time>
      </trkpt>
      <trkpt lat="46.07978" lon="4.75332">
        <ele>169</ele>
        <time>2018-06-05T09:21:43Z</time>
      </trkpt>
      <trkpt lat="46.07982" lon="4.7534">
        <ele>168</ele>
        <time>2018-06-05T09:21:44Z</time>
      </trkpt>
      <trkpt lat="46.07984" lon="4.75347">
        <ele>168</ele>
        <time>2018-06-05T09:21:45Z</time>
      </trkpt>
      <trkpt lat="46.07988" lon="4.75354">
        <ele>168</ele>
        <time>2018-06-05T09:21:46Z</time>
      </trkpt>
      <trkpt lat="46.07991" lon="4.75362">
        <ele>168</ele>
        <time>2018-06-05T09:21:47Z</time>
      </trkpt>
      <trkpt lat="46.07995" lon="4.75369">
        <ele>168</ele>
        <time>2018-06-05T09:21:48Z</time>
      </trkpt>
      <trkpt lat="46.08001" lon="4.75378">
        <ele>167</ele>
        <time>2018-06-05T09:21:49Z</time>
      </trkpt>
      <trkpt lat="46.08005" lon="4.75387">
        <ele>167</ele>
        <time>2018-06-05T09:21:50Z</time>
      </trkpt>
      <trkpt lat="46.08006" lon="4.75391">
        <ele>167</ele>
        <time>2018-06-05T09:21:51Z</time>
      </trkpt>
      <trkpt lat="46.08009" lon="4.75398">
        <ele>167</ele>
        <time>2018-06-05T09:21:52Z</time>
      </trkpt>
      <trkpt lat="46.08011" lon="4.75403">
        <ele>166</ele>
        <time>2018-06-05T09:21:53Z</time>
      </trkpt>
      <trkpt lat="46.08013" lon="4.75409">
        <ele>166</ele>
        <time>2018-06-05T09:21:54Z</time>
      </trkpt>
      <trkpt lat="46.08016" lon="4.75414">
        <ele>166</ele>
        <time>2018-06-05T09:21:55Z</time>
      </trkpt>
      <trkpt lat="46.08019" lon="4.75422">
        <ele>166</ele>
        <time>2018-06-05T09:21:56Z</time>
      </trkpt>
      <trkpt lat="46.08022" lon="4.75425">
        <ele>166</ele>
        <time>2018-06-05T09:21:57Z</time>
      </trkpt>
      <trkpt lat="46.08026" lon="4.75436">
        <ele>166</ele>
        <time>2018-06-05T09:21:59Z</time>
      </trkpt>
      <trkpt lat="46.08028" lon="4.75441">
        <ele>166</ele>
        <time>2018-06-05T09:22:00Z</time>
      </trkpt>
      <trkpt lat="46.08032" lon="4.7545">
        <ele>166</ele>
        <time>2018-06-05T09:22:02Z</time>
      </trkpt>
      <trkpt lat="46.08033" lon="4.75453">
        <ele>166</ele>
        <time>2018-06-05T09:22:03Z</time>
      </trkpt>
      <trkpt lat="46.08037" lon="4.75463">
        <ele>166</ele>
        <time>2018-06-05T09:22:04Z</time>
      </trkpt>
      <trkpt lat="46.08041" lon="4.75466">
        <ele>166</ele>
        <time>2018-06-05T09:22:05Z</time>
      </trkpt>
      <trkpt lat="46.08046" lon="4.75476">
        <ele>166</ele>
        <time>2018-06-05T09:22:07Z</time>
      </trkpt>
      <trkpt lat="46.08049" lon="4.75481">
        <ele>166</ele>
        <time>2018-06-05T09:22:08Z</time>
      </trkpt>
      <trkpt lat="46.08051" lon="4.75486">
        <ele>166</ele>
        <time>2018-06-05T09:22:10Z</time>
      </trkpt>
      <trkpt lat="46.08053" lon="4.75496">
        <ele>166</ele>
        <time>2018-06-05T09:22:11Z</time>
      </trkpt>
      <trkpt lat="46.08056" lon="4.75502">
        <ele>167</ele>
        <time>2018-06-05T09:22:12Z</time>
      </trkpt>
      <trkpt lat="46.08057" lon="4.75508">
        <ele>167</ele>
        <time>2018-06-05T09:22:13Z</time>
      </trkpt>
      <trkpt lat="46.0806" lon="4.75513">
        <ele>167</ele>
        <time>2018-06-05T09:22:14Z</time>
      </trkpt>
      <trkpt lat="46.08063" lon="4.7552">
        <ele>168</ele>
        <time>2018-06-05T09:22:15Z</time>
      </trkpt>
      <trkpt lat="46.08067" lon="4.75527">
        <ele>168</ele>
        <time>2018-06-05T09:22:16Z</time>
      </trkpt>
      <trkpt lat="46.08071" lon="4.75535">
        <ele>168</ele>
        <time>2018-06-05T09:22:17Z</time>
      </trkpt>
      <trkpt lat="46.08074" lon="4.75542">
        <ele>169</ele>
        <time>2018-06-05T09:22:18Z</time>
      </trkpt>
      <trkpt lat="46.08077" lon="4.75549">
        <ele>169</ele>
        <time>2018-06-05T09:22:19Z</time>
      </trkpt>
      <trkpt lat="46.08081" lon="4.75557">
        <ele>170</ele>
        <time>2018-06-05T09:22:21Z</time>
      </trkpt>
      <trkpt lat="46.08085" lon="4.75565">
        <ele>173</ele>
        <time>2018-06-05T09:22:22Z</time>
      </trkpt>
      <trkpt lat="46.08088" lon="4.75569">
        <ele>173</ele>
        <time>2018-06-05T09:22:23Z</time>
      </trkpt>
      <trkpt lat="46.08091" lon="4.75576">
        <ele>173</ele>
        <time>2018-06-05T09:22:24Z</time>
      </trkpt>
      <trkpt lat="46.08089" lon="4.75587">
        <ele>174</ele>
        <time>2018-06-05T09:22:31Z</time>
      </trkpt>
      <trkpt lat="46.08088" lon="4.75589">
        <ele>174</ele>
        <time>2018-06-05T09:22:32Z</time>
      </trkpt>
      <trkpt lat="46.08082" lon="4.75595">
        <ele>174</ele>
        <time>2018-06-05T09:22:35Z</time>
      </trkpt>
      <trkpt lat="46.0808" lon="4.75597">
        <ele>174</ele>
        <time>2018-06-05T09:22:36Z</time>
      </trkpt>
      <trkpt lat="46.08068" lon="4.7561">
        <ele>173</ele>
        <time>2018-06-05T09:22:37Z</time>
      </trkpt>
      <trkpt lat="46.08061" lon="4.75599">
        <ele>173</ele>
        <time>2018-06-05T09:22:38Z</time>
      </trkpt>
      <trkpt lat="46.08055" lon="4.75608">
        <ele>173</ele>
        <time>2018-06-05T09:22:49Z</time>
      </trkpt>
      <trkpt lat="46.08054" lon="4.75609">
        <ele>173</ele>
        <time>2018-06-05T09:22:50Z</time>
      </trkpt>
      <trkpt lat="46.08053" lon="4.75618">
        <ele>173</ele>
        <time>2018-06-05T09:23:03Z</time>
      </trkpt>
      <trkpt lat="46.08053" lon="4.75618">
        <ele>173</ele>
        <time>2018-06-05T09:23:04Z</time>
      </trkpt>
      <trkpt lat="46.08052" lon="4.75618">
        <ele>173</ele>
        <time>2018-06-05T09:23:05Z</time>
      </trkpt>
      <trkpt lat="46.08052" lon="4.75619">
        <ele>173</ele>
        <time>2018-06-05T09:23:06Z</time>
      </trkpt>
      <trkpt lat="46.0805" lon="4.75619">
        <ele>173</ele>
        <time>2018-06-05T09:23:08Z</time>
      </trkpt>
      <trkpt lat="46.08049" lon="4.75619">
        <ele>173</ele>
        <time>2018-06-05T09:23:09Z</time>
      </trkpt>
      <trkpt lat="46.08048" lon="4.7562">
        <ele>173</ele>
        <time>2018-06-05T09:23:10Z</time>
      </trkpt>
      <trkpt lat="46.08045" lon="4.75623">
        <ele>173</ele>
        <time>2018-06-05T09:23:22Z</time>
      </trkpt>
      <trkpt lat="46.08045" lon="4.75623">
        <ele>173</ele>
        <time>2018-06-05T09:23:23Z</time>
      </trkpt>
      <trkpt lat="46.08045" lon="4.75623">
        <ele>173</ele>
        <time>2018-06-05T09:23:24Z</time>
      </trkpt>
      <trkpt lat="46.08044" lon="4.75624">
        <ele>173</ele>
        <time>2018-06-05T09:23:26Z</time>
      </trkpt>
      <trkpt lat="46.08044" lon="4.75624">
        <ele>173</ele>
        <time>2018-06-05T09:23:27Z</time>
      </trkpt>
      <trkpt lat="46.08044" lon="4.75625">
        <ele>173</ele>
        <time>2018-06-05T09:23:28Z</time>
      </trkpt>
      <trkpt lat="46.08043" lon="4.75616">
        <ele>173</ele>
        <time>2018-06-05T09:27:24Z</time>
      </trkpt>
      <trkpt lat="46.08043" lon="4.75616">
        <ele>173</ele>
        <time>2018-06-05T09:27:25Z</time>
      </trkpt>
      <trkpt lat="46.08043" lon="4.75617">
        <ele>173</ele>
        <time>2018-06-05T09:27:26Z</time>
      </trkpt>
      <trkpt lat="46.08044" lon="4.75622">
        <ele>173</ele>
        <time>2018-06-05T09:31:05Z</time>
      </trkpt>
      <trkpt lat="46.08044" lon="4.75623">
        <ele>173</ele>
        <time>2018-06-05T09:31:06Z</time>
      </trkpt>
      <trkpt lat="46.08048" lon="4.75625">
        <ele>173</ele>
        <time>2018-06-05T09:31:40.671Z</time>
      </trkpt>
      <trkpt lat="46.08047" lon="4.75625">
        <ele>173</ele>
        <time>2018-06-05T09:31:37Z</time>
      </trkpt>
      <trkpt lat="46.0804" lon="4.75632">
        <ele>173</ele>
        <time>2018-06-05T09:31:45.91Z</time>
      </trkpt>
      <trkpt lat="46.08038" lon="4.75634">
        <ele>173</ele>
        <time>2018-06-05T09:31:42Z</time>
      </trkpt>
      <trkpt lat="46.08036" lon="4.75636">
        <ele>173</ele>
        <time>2018-06-05T09:31:43Z</time>
      </trkpt>
      <trkpt lat="46.08028" lon="4.75643">
        <ele>174</ele>
        <time>2018-06-05T09:31:44Z</time>
      </trkpt>
      <trkpt lat="46.0802" lon="4.75643">
        <ele>174</ele>
        <time>2018-06-05T09:31:47Z</time>
      </trkpt>
      <trkpt lat="46.08018" lon="4.75643">
        <ele>174</ele>
        <time>2018-06-05T09:31:51.076Z</time>
      </trkpt>
      <trkpt lat="46.08011" lon="4.75646">
        <ele>174</ele>
        <time>2018-06-05T09:31:50Z</time>
      </trkpt>
      <trkpt lat="46.08008" lon="4.75648">
        <ele>174</ele>
        <time>2018-06-05T09:31:51Z</time>
      </trkpt>
      <trkpt lat="46.08001" lon="4.75653">
        <ele>175</ele>
        <time>2018-06-05T09:31:53Z</time>
      </trkpt>
      <trkpt lat="46.07998" lon="4.75656">
        <ele>173</ele>
        <time>2018-06-05T09:31:54Z</time>
      </trkpt>
      <trkpt lat="46.07988" lon="4.75668">
        <ele>175</ele>
        <time>2018-06-05T09:31:55Z</time>
      </trkpt>
      <trkpt lat="46.07982" lon="4.75675">
        <ele>174</ele>
        <time>2018-06-05T09:31:57Z</time>
      </trkpt>
      <trkpt lat="46.07978" lon="4.75679">
        <ele>174</ele>
        <time>2018-06-05T09:31:58Z</time>
      </trkpt>
      <trkpt lat="46.07971" lon="4.75686">
        <ele>173</ele>
        <time>2018-06-05T09:32:00Z</time>
      </trkpt>
      <trkpt lat="46.07968" lon="4.75693">
        <ele>173</ele>
        <time>2018-06-05T09:32:01Z</time>
      </trkpt>
      <trkpt lat="46.07964" lon="4.75696">
        <ele>173</ele>
        <time>2018-06-05T09:32:02Z</time>
      </trkpt>
      <trkpt lat="46.0796" lon="4.757">
        <ele>173</ele>
        <time>2018-06-05T09:32:03Z</time>
      </trkpt>
      <trkpt lat="46.07956" lon="4.75704">
        <ele>173</ele>
        <time>2018-06-05T09:32:04Z</time>
      </trkpt>
      <trkpt lat="46.07951" lon="4.75707">
        <ele>173</ele>
        <time>2018-06-05T09:32:05Z</time>
      </trkpt>
      <trkpt lat="46.07944" lon="4.75714">
        <ele>173</ele>
        <time>2018-06-05T09:32:07Z</time>
      </trkpt>
      <trkpt lat="46.07941" lon="4.75718">
        <ele>173</ele>
        <time>2018-06-05T09:32:08Z</time>
      </trkpt>
      <trkpt lat="46.07937" lon="4.75724">
        <ele>173</ele>
        <time>2018-06-05T09:32:09Z</time>
      </trkpt>
      <trkpt lat="46.07934" lon="4.75728">
        <ele>173</ele>
        <time>2018-06-05T09:32:10Z</time>
      </trkpt>
      <trkpt lat="46.0793" lon="4.75733">
        <ele>173</ele>
        <time>2018-06-05T09:32:11Z</time>
      </trkpt>
      <trkpt lat="46.07927" lon="4.75738">
        <ele>173</ele>
        <time>2018-06-05T09:32:12Z</time>
      </trkpt>
      <trkpt lat="46.07923" lon="4.75742">
        <ele>173</ele>
        <time>2018-06-05T09:32:13Z</time>
      </trkpt>
      <trkpt lat="46.07919" lon="4.75746">
        <ele>173</ele>
        <time>2018-06-05T09:32:14Z</time>
      </trkpt>
      <trkpt lat="46.07914" lon="4.75747">
        <ele>172</ele>
        <time>2018-06-05T09:32:15Z</time>
      </trkpt>
      <trkpt lat="46.07909" lon="4.75748">
        <ele>171</ele>
        <time>2018-06-05T09:32:16Z</time>
      </trkpt>
      <trkpt lat="46.07904" lon="4.75751">
        <ele>172</ele>
        <time>2018-06-05T09:32:17Z</time>
      </trkpt>
      <trkpt lat="46.07901" lon="4.75755">
        <ele>172</ele>
        <time>2018-06-05T09:32:18Z</time>
      </trkpt>
      <trkpt lat="46.07896" lon="4.75759">
        <ele>172</ele>
        <time>2018-06-05T09:32:19Z</time>
      </trkpt>
      <trkpt lat="46.07892" lon="4.75764">
        <ele>172</ele>
        <time>2018-06-05T09:32:20Z</time>
      </trkpt>
      <trkpt lat="46.07889" lon="4.75769">
        <ele>172</ele>
        <time>2018-06-05T09:32:21Z</time>
      </trkpt>
      <trkpt lat="46.07885" lon="4.75772">
        <ele>171</ele>
        <time>2018-06-05T09:32:22Z</time>
      </trkpt>
      <trkpt lat="46.07878" lon="4.75779">
        <ele>171</ele>
        <time>2018-06-05T09:32:24Z</time>
      </trkpt>
      <trkpt lat="46.07875" lon="4.75786">
        <ele>171</ele>
        <time>2018-06-05T09:32:25Z</time>
      </trkpt>
      <trkpt lat="46.07871" lon="4.75789">
        <ele>171</ele>
        <time>2018-06-05T09:32:26Z</time>
      </trkpt>
      <trkpt lat="46.07867" lon="4.75795">
        <ele>171</ele>
        <time>2018-06-05T09:32:27Z</time>
      </trkpt>
      <trkpt lat="46.07863" lon="4.75798">
        <ele>171</ele>
        <time>2018-06-05T09:32:28Z</time>
      </trkpt>
      <trkpt lat="46.07859" lon="4.75801">
        <ele>171</ele>
        <time>2018-06-05T09:32:29Z</time>
      </trkpt>
      <trkpt lat="46.07855" lon="4.75805">
        <ele>172</ele>
        <time>2018-06-05T09:32:30Z</time>
      </trkpt>
      <trkpt lat="46.07852" lon="4.75808">
        <ele>172</ele>
        <time>2018-06-05T09:32:31Z</time>
      </trkpt>
      <trkpt lat="46.07848" lon="4.75811">
        <ele>172</ele>
        <time>2018-06-05T09:32:32Z</time>
      </trkpt>
      <trkpt lat="46.07844" lon="4.75816">
        <ele>172</ele>
        <time>2018-06-05T09:32:33Z</time>
      </trkpt>
      <trkpt lat="46.0784" lon="4.75821">
        <ele>172</ele>
        <time>2018-06-05T09:32:34Z</time>
      </trkpt>
      <trkpt lat="46.07835" lon="4.75827">
        <ele>173</ele>
        <time>2018-06-05T09:32:35Z</time>
      </trkpt>
      <trkpt lat="46.07831" lon="4.75832">
        <ele>172</ele>
        <time>2018-06-05T09:32:36Z</time>
      </trkpt>
      <trkpt lat="46.07826" lon="4.75837">
        <ele>173</ele>
        <time>2018-06-05T09:32:37Z</time>
      </trkpt>
      <trkpt lat="46.07822" lon="4.75842">
        <ele>173</ele>
        <time>2018-06-05T09:32:38Z</time>
      </trkpt>
      <trkpt lat="46.07819" lon="4.75847">
        <ele>172</ele>
        <time>2018-06-05T09:32:39Z</time>
      </trkpt>
      <trkpt lat="46.07814" lon="4.75853">
        <ele>172</ele>
        <time>2018-06-05T09:32:40Z</time>
      </trkpt>
      <trkpt lat="46.07811" lon="4.75858">
        <ele>172</ele>
        <time>2018-06-05T09:32:41Z</time>
      </trkpt>
      <trkpt lat="46.07807" lon="4.75862">
        <ele>172</ele>
        <time>2018-06-05T09:32:42Z</time>
      </trkpt>
      <trkpt lat="46.07803" lon="4.75865">
        <ele>172</ele>
        <time>2018-06-05T09:32:43Z</time>
      </trkpt>
      <trkpt lat="46.07795" lon="4.75872">
        <ele>172</ele>
        <time>2018-06-05T09:32:45Z</time>
      </trkpt>
      <trkpt lat="46.07791" lon="4.75876">
        <ele>172</ele>
        <time>2018-06-05T09:32:46Z</time>
      </trkpt>
      <trkpt lat="46.07784" lon="4.75882">
        <ele>172</ele>
        <time>2018-06-05T09:32:48Z</time>
      </trkpt>
      <trkpt lat="46.07779" lon="4.75885">
        <ele>172</ele>
        <time>2018-06-05T09:32:49Z</time>
      </trkpt>
      <trkpt lat="46.07774" lon="4.75888">
        <ele>172</ele>
        <time>2018-06-05T09:32:50Z</time>
      </trkpt>
      <trkpt lat="46.0777" lon="4.75893">
        <ele>173</ele>
        <time>2018-06-05T09:32:51Z</time>
      </trkpt>
      <trkpt lat="46.07763" lon="4.75901">
        <ele>173</ele>
        <time>2018-06-05T09:32:53Z</time>
      </trkpt>
      <trkpt lat="46.07758" lon="4.75904">
        <ele>173</ele>
        <time>2018-06-05T09:32:54Z</time>
      </trkpt>
      <trkpt lat="46.07754" lon="4.75907">
        <ele>173</ele>
        <time>2018-06-05T09:32:55Z</time>
      </trkpt>
      <trkpt lat="46.0775" lon="4.75912">
        <ele>174</ele>
        <time>2018-06-05T09:32:56Z</time>
      </trkpt>
      <trkpt lat="46.07745" lon="4.75916">
        <ele>173</ele>
        <time>2018-06-05T09:32:57Z</time>
      </trkpt>
      <trkpt lat="46.0774" lon="4.75921">
        <ele>173</ele>
        <time>2018-06-05T09:32:58Z</time>
      </trkpt>
      <trkpt lat="46.07736" lon="4.75924">
        <ele>173</ele>
        <time>2018-06-05T09:32:59Z</time>
      </trkpt>
      <trkpt lat="46.07731" lon="4.75928">
        <ele>173</ele>
        <time>2018-06-05T09:33:00Z</time>
      </trkpt>
      <trkpt lat="46.07726" lon="4.75931">
        <ele>173</ele>
        <time>2018-06-05T09:33:01Z</time>
      </trkpt>
      <trkpt lat="46.07722" lon="4.75934">
        <ele>173</ele>
        <time>2018-06-05T09:33:02Z</time>
      </trkpt>
      <trkpt lat="46.07715" lon="4.7594">
        <ele>172</ele>
        <time>2018-06-05T09:33:04Z</time>
      </trkpt>
      <trkpt lat="46.07711" lon="4.75944">
        <ele>172</ele>
        <time>2018-06-05T09:33:05Z</time>
      </trkpt>
      <trkpt lat="46.07703" lon="4.75949">
        <ele>172</ele>
        <time>2018-06-05T09:33:07Z</time>
      </trkpt>
      <trkpt lat="46.077" lon="4.75951">
        <ele>172</ele>
        <time>2018-06-05T09:33:08Z</time>
      </trkpt>
      <trkpt lat="46.07696" lon="4.75956">
        <ele>172</ele>
        <time>2018-06-05T09:33:09Z</time>
      </trkpt>
      <trkpt lat="46.07692" lon="4.75958">
        <ele>172</ele>
        <time>2018-06-05T09:33:10Z</time>
      </trkpt>
      <trkpt lat="46.07684" lon="4.75963">
        <ele>172</ele>
        <time>2018-06-05T09:33:12Z</time>
      </trkpt>
      <trkpt lat="46.07679" lon="4.75966">
        <ele>172</ele>
        <time>2018-06-05T09:33:13Z</time>
      </trkpt>
      <trkpt lat="46.07674" lon="4.75969">
        <ele>172</ele>
        <time>2018-06-05T09:33:14Z</time>
      </trkpt>
      <trkpt lat="46.07671" lon="4.75973">
        <ele>172</ele>
        <time>2018-06-05T09:33:15Z</time>
      </trkpt>
      <trkpt lat="46.07664" lon="4.75977">
        <ele>170</ele>
        <time>2018-06-05T09:33:17Z</time>
      </trkpt>
      <trkpt lat="46.0766" lon="4.75979">
        <ele>170</ele>
        <time>2018-06-05T09:33:18Z</time>
      </trkpt>
      <trkpt lat="46.07652" lon="4.75984">
        <ele>170</ele>
        <time>2018-06-05T09:33:20Z</time>
      </trkpt>
      <trkpt lat="46.07651" lon="4.75992">
        <ele>170</ele>
        <time>2018-06-05T09:33:21Z</time>
      </trkpt>
      <trkpt lat="46.07647" lon="4.76002">
        <ele>172</ele>
        <time>2018-06-05T09:33:24Z</time>
      </trkpt>
      <trkpt lat="46.07647" lon="4.76006">
        <ele>172</ele>
        <time>2018-06-05T09:33:25Z</time>
      </trkpt>
      <trkpt lat="46.07649" lon="4.76016">
        <ele>172</ele>
        <time>2018-06-05T09:33:26Z</time>
      </trkpt>
      <trkpt lat="46.07653" lon="4.76023">
        <ele>172</ele>
        <time>2018-06-05T09:33:27Z</time>
      </trkpt>
      <trkpt lat="46.07655" lon="4.76029">
        <ele>172</ele>
        <time>2018-06-05T09:33:30Z</time>
      </trkpt>
      <trkpt lat="46.07659" lon="4.76041">
        <ele>172</ele>
        <time>2018-06-05T09:33:31Z</time>
      </trkpt>
      <trkpt lat="46.07662" lon="4.76048">
        <ele>172</ele>
        <time>2018-06-05T09:33:33Z</time>
      </trkpt>
      <trkpt lat="46.07665" lon="4.76056">
        <ele>172</ele>
        <time>2018-06-05T09:33:34Z</time>
      </trkpt>
      <trkpt lat="46.07668" lon="4.76062">
        <ele>174</ele>
        <time>2018-06-05T09:33:35Z</time>
      </trkpt>
      <trkpt lat="46.0767" lon="4.76067">
        <ele>174</ele>
        <time>2018-06-05T09:33:36Z</time>
      </trkpt>
      <trkpt lat="46.07672" lon="4.76077">
        <ele>174</ele>
        <time>2018-06-05T09:33:38Z</time>
      </trkpt>
      <trkpt lat="46.07675" lon="4.76082">
        <ele>173</ele>
        <time>2018-06-05T09:33:39Z</time>
      </trkpt>
      <trkpt lat="46.07679" lon="4.76093">
        <ele>173</ele>
        <time>2018-06-05T09:33:41Z</time>
      </trkpt>
      <trkpt lat="46.0768" lon="4.76098">
        <ele>173</ele>
        <time>2018-06-05T09:33:42Z</time>
      </trkpt>
      <trkpt lat="46.07677" lon="4.76109">
        <ele>173</ele>
        <time>2018-06-05T09:33:46Z</time>
      </trkpt>
      <trkpt lat="46.07672" lon="4.76118">
        <ele>173</ele>
        <time>2018-06-05T09:33:47Z</time>
      </trkpt>
      <trkpt lat="46.07664" lon="4.76125">
        <ele>172</ele>
        <time>2018-06-05T09:33:49Z</time>
      </trkpt>
      <trkpt lat="46.07661" lon="4.76128">
        <ele>172</ele>
        <time>2018-06-05T09:33:50Z</time>
      </trkpt>
      <trkpt lat="46.07656" lon="4.76133">
        <ele>172</ele>
        <time>2018-06-05T09:33:51Z</time>
      </trkpt>
      <trkpt lat="46.07652" lon="4.76138">
        <ele>172</ele>
        <time>2018-06-05T09:33:52Z</time>
      </trkpt>
      <trkpt lat="46.07648" lon="4.76142">
        <ele>172</ele>
        <time>2018-06-05T09:33:53Z</time>
      </trkpt>
      <trkpt lat="46.07645" lon="4.76146">
        <ele>172</ele>
        <time>2018-06-05T09:33:54Z</time>
      </trkpt>
      <trkpt lat="46.07641" lon="4.7615">
        <ele>172</ele>
        <time>2018-06-05T09:33:55Z</time>
      </trkpt>
      <trkpt lat="46.07637" lon="4.76154">
        <ele>172</ele>
        <time>2018-06-05T09:33:56Z</time>
      </trkpt>
      <trkpt lat="46.07632" lon="4.76161">
        <ele>172</ele>
        <time>2018-06-05T09:33:57Z</time>
      </trkpt>
      <trkpt lat="46.07627" lon="4.76164">
        <ele>172</ele>
        <time>2018-06-05T09:33:58Z</time>
      </trkpt>
      <trkpt lat="46.07623" lon="4.76168">
        <ele>173</ele>
        <time>2018-06-05T09:33:59Z</time>
      </trkpt>
      <trkpt lat="46.0762" lon="4.76172">
        <ele>173</ele>
        <time>2018-06-05T09:34:00Z</time>
      </trkpt>
      <trkpt lat="46.07615" lon="4.76177">
        <ele>173</ele>
        <time>2018-06-05T09:34:01Z</time>
      </trkpt>
      <trkpt lat="46.07611" lon="4.76181">
        <ele>173</ele>
        <time>2018-06-05T09:34:02Z</time>
      </trkpt>
      <trkpt lat="46.07608" lon="4.76186">
        <ele>173</ele>
        <time>2018-06-05T09:34:03Z</time>
      </trkpt>
      <trkpt lat="46.07604" lon="4.7619">
        <ele>173</ele>
        <time>2018-06-05T09:34:04Z</time>
      </trkpt>
      <trkpt lat="46.07599" lon="4.76195">
        <ele>173</ele>
        <time>2018-06-05T09:34:05Z</time>
      </trkpt>
      <trkpt lat="46.07595" lon="4.76199">
        <ele>173</ele>
        <time>2018-06-05T09:34:06Z</time>
      </trkpt>
      <trkpt lat="46.0759" lon="4.76204">
        <ele>173</ele>
        <time>2018-06-05T09:34:07Z</time>
      </trkpt>
      <trkpt lat="46.07585" lon="4.76208">
        <ele>173</ele>
        <time>2018-06-05T09:34:08Z</time>
      </trkpt>
      <trkpt lat="46.07581" lon="4.76215">
        <ele>173</ele>
        <time>2018-06-05T09:34:09Z</time>
      </trkpt>
      <trkpt lat="46.07578" lon="4.76217">
        <ele>173</ele>
        <time>2018-06-05T09:34:10Z</time>
      </trkpt>
      <trkpt lat="46.07573" lon="4.76222">
        <ele>173</ele>
        <time>2018-06-05T09:34:11Z</time>
      </trkpt>
      <trkpt lat="46.07568" lon="4.76227">
        <ele>173</ele>
        <time>2018-06-05T09:34:12Z</time>
      </trkpt>
      <trkpt lat="46.07563" lon="4.76231">
        <ele>173</ele>
        <time>2018-06-05T09:34:13Z</time>
      </trkpt>
      <trkpt lat="46.07558" lon="4.76237">
        <ele>173</ele>
        <time>2018-06-05T09:34:14Z</time>
      </trkpt>
      <trkpt lat="46.07552" lon="4.76244">
        <ele>173</ele>
        <time>2018-06-05T09:34:15Z</time>
      </trkpt>
      <trkpt lat="46.07549" lon="4.7625">
        <ele>173</ele>
        <time>2018-06-05T09:34:16Z</time>
      </trkpt>
      <trkpt lat="46.07544" lon="4.76255">
        <ele>174</ele>
        <time>2018-06-05T09:34:17Z</time>
      </trkpt>
      <trkpt lat="46.07539" lon="4.7626">
        <ele>174</ele>
        <time>2018-06-05T09:34:18Z</time>
      </trkpt>
      <trkpt lat="46.07533" lon="4.76267">
        <ele>174</ele>
        <time>2018-06-05T09:34:19Z</time>
      </trkpt>
      <trkpt lat="46.07528" lon="4.76271">
        <ele>174</ele>
        <time>2018-06-05T09:34:20Z</time>
      </trkpt>
      <trkpt lat="46.07522" lon="4.76276">
        <ele>174</ele>
        <time>2018-06-05T09:34:21Z</time>
      </trkpt>
      <trkpt lat="46.07519" lon="4.76282">
        <ele>174</ele>
        <time>2018-06-05T09:34:22Z</time>
      </trkpt>
      <trkpt lat="46.07513" lon="4.76287">
        <ele>174</ele>
        <time>2018-06-05T09:34:23Z</time>
      </trkpt>
      <trkpt lat="46.07507" lon="4.76292">
        <ele>174</ele>
        <time>2018-06-05T09:34:24Z</time>
      </trkpt>
      <trkpt lat="46.07501" lon="4.76299">
        <ele>174</ele>
        <time>2018-06-05T09:34:25Z</time>
      </trkpt>
      <trkpt lat="46.07497" lon="4.76305">
        <ele>173</ele>
        <time>2018-06-05T09:34:26Z</time>
      </trkpt>
      <trkpt lat="46.07492" lon="4.76308">
        <ele>173</ele>
        <time>2018-06-05T09:34:27Z</time>
      </trkpt>
      <trkpt lat="46.07485" lon="4.7631">
        <ele>173</ele>
        <time>2018-06-05T09:34:28Z</time>
      </trkpt>
      <trkpt lat="46.07479" lon="4.76311">
        <ele>173</ele>
        <time>2018-06-05T09:34:29Z</time>
      </trkpt>
      <trkpt lat="46.07472" lon="4.76314">
        <ele>172</ele>
        <time>2018-06-05T09:34:30Z</time>
      </trkpt>
      <trkpt lat="46.07469" lon="4.76319">
        <ele>172</ele>
        <time>2018-06-05T09:34:31Z</time>
      </trkpt>
      <trkpt lat="46.07464" lon="4.76326">
        <ele>172</ele>
        <time>2018-06-05T09:34:32Z</time>
      </trkpt>
      <trkpt lat="46.07462" lon="4.76332">
        <ele>172</ele>
        <time>2018-06-05T09:34:33Z</time>
      </trkpt>
      <trkpt lat="46.0746" lon="4.76339">
        <ele>172</ele>
        <time>2018-06-05T09:34:34Z</time>
      </trkpt>
      <trkpt lat="46.07455" lon="4.76344">
        <ele>172</ele>
        <time>2018-06-05T09:34:35Z</time>
      </trkpt>
      <trkpt lat="46.07451" lon="4.7635">
        <ele>172</ele>
        <time>2018-06-05T09:34:36Z</time>
      </trkpt>
      <trkpt lat="46.07446" lon="4.76355">
        <ele>172</ele>
        <time>2018-06-05T09:34:37Z</time>
      </trkpt>
      <trkpt lat="46.07442" lon="4.76362">
        <ele>171</ele>
        <time>2018-06-05T09:34:38Z</time>
      </trkpt>
      <trkpt lat="46.07437" lon="4.76366">
        <ele>171</ele>
        <time>2018-06-05T09:34:39Z</time>
      </trkpt>
      <trkpt lat="46.07432" lon="4.76372">
        <ele>171</ele>
        <time>2018-06-05T09:34:40Z</time>
      </trkpt>
      <trkpt lat="46.07427" lon="4.76379">
        <ele>171</ele>
        <time>2018-06-05T09:34:41Z</time>
      </trkpt>
      <trkpt lat="46.07422" lon="4.76382">
        <ele>171</ele>
        <time>2018-06-05T09:34:42Z</time>
      </trkpt>
      <trkpt lat="46.07418" lon="4.7639">
        <ele>171</ele>
        <time>2018-06-05T09:34:43Z</time>
      </trkpt>
      <trkpt lat="46.07413" lon="4.76396">
        <ele>170</ele>
        <time>2018-06-05T09:34:44Z</time>
      </trkpt>
      <trkpt lat="46.07407" lon="4.76402">
        <ele>171</ele>
        <time>2018-06-05T09:34:45Z</time>
      </trkpt>
      <trkpt lat="46.07402" lon="4.76409">
        <ele>171</ele>
        <time>2018-06-05T09:34:46Z</time>
      </trkpt>
      <trkpt lat="46.07397" lon="4.76415">
        <ele>171</ele>
        <time>2018-06-05T09:34:47Z</time>
      </trkpt>
      <trkpt lat="46.07392" lon="4.7642">
        <ele>171</ele>
        <time>2018-06-05T09:34:48Z</time>
      </trkpt>
      <trkpt lat="46.07386" lon="4.76429">
        <ele>171</ele>
        <time>2018-06-05T09:34:50Z</time>
      </trkpt>
      <trkpt lat="46.07381" lon="4.76433">
        <ele>171</ele>
        <time>2018-06-05T09:34:51Z</time>
      </trkpt>
      <trkpt lat="46.07377" lon="4.76439">
        <ele>171</ele>
        <time>2018-06-05T09:34:52Z</time>
      </trkpt>
      <trkpt lat="46.07373" lon="4.76444">
        <ele>171</ele>
        <time>2018-06-05T09:34:53Z</time>
      </trkpt>
      <trkpt lat="46.07368" lon="4.76447">
        <ele>171</ele>
        <time>2018-06-05T09:34:54Z</time>
      </trkpt>
      <trkpt lat="46.07363" lon="4.76454">
        <ele>171</ele>
        <time>2018-06-05T09:34:55Z</time>
      </trkpt>
      <trkpt lat="46.07358" lon="4.76459">
        <ele>171</ele>
        <time>2018-06-05T09:34:56Z</time>
      </trkpt>
      <trkpt lat="46.07353" lon="4.76463">
        <ele>171</ele>
        <time>2018-06-05T09:34:57Z</time>
      </trkpt>
      <trkpt lat="46.07348" lon="4.76467">
        <ele>171</ele>
        <time>2018-06-05T09:34:58Z</time>
      </trkpt>
      <trkpt lat="46.07343" lon="4.76472">
        <ele>171</ele>
        <time>2018-06-05T09:34:59Z</time>
      </trkpt>
      <trkpt lat="46.07339" lon="4.76477">
        <ele>171</ele>
        <time>2018-06-05T09:35:00Z</time>
      </trkpt>
      <trkpt lat="46.07335" lon="4.76484">
        <ele>170</ele>
        <time>2018-06-05T09:35:01Z</time>
      </trkpt>
      <trkpt lat="46.0733" lon="4.7649">
        <ele>170</ele>
        <time>2018-06-05T09:35:02Z</time>
      </trkpt>
      <trkpt lat="46.07324" lon="4.76492">
        <ele>170</ele>
        <time>2018-06-05T09:35:03Z</time>
      </trkpt>
      <trkpt lat="46.0732" lon="4.76496">
        <ele>170</ele>
        <time>2018-06-05T09:35:04Z</time>
      </trkpt>
      <trkpt lat="46.07314" lon="4.76504">
        <ele>170</ele>
        <time>2018-06-05T09:35:05Z</time>
      </trkpt>
      <trkpt lat="46.0731" lon="4.76512">
        <ele>170</ele>
        <time>2018-06-05T09:35:06Z</time>
      </trkpt>
      <trkpt lat="46.07305" lon="4.76518">
        <ele>170</ele>
        <time>2018-06-05T09:35:07Z</time>
      </trkpt>
      <trkpt lat="46.073" lon="4.76522">
        <ele>170</ele>
        <time>2018-06-05T09:35:08Z</time>
      </trkpt>
      <trkpt lat="46.07295" lon="4.76528">
        <ele>170</ele>
        <time>2018-06-05T09:35:09Z</time>
      </trkpt>
      <trkpt lat="46.0729" lon="4.76534">
        <ele>170</ele>
        <time>2018-06-05T09:35:10Z</time>
      </trkpt>
      <trkpt lat="46.07285" lon="4.76541">
        <ele>170</ele>
        <time>2018-06-05T09:35:11Z</time>
      </trkpt>
      <trkpt lat="46.0728" lon="4.76546">
        <ele>170</ele>
        <time>2018-06-05T09:35:12Z</time>
      </trkpt>
      <trkpt lat="46.07275" lon="4.76551">
        <ele>170</ele>
        <time>2018-06-05T09:35:13Z</time>
      </trkpt>
      <trkpt lat="46.0727" lon="4.76556">
        <ele>170</ele>
        <time>2018-06-05T09:35:14Z</time>
      </trkpt>
      <trkpt lat="46.07265" lon="4.76561">
        <ele>170</ele>
        <time>2018-06-05T09:35:15Z</time>
      </trkpt>
      <trkpt lat="46.0726" lon="4.76565">
        <ele>170</ele>
        <time>2018-06-05T09:35:16Z</time>
      </trkpt>
      <trkpt lat="46.07256" lon="4.76571">
        <ele>170</ele>
        <time>2018-06-05T09:35:17Z</time>
      </trkpt>
      <trkpt lat="46.07251" lon="4.76576">
        <ele>170</ele>
        <time>2018-06-05T09:35:18Z</time>
      </trkpt>
      <trkpt lat="46.07246" lon="4.76581">
        <ele>170</ele>
        <time>2018-06-05T09:35:19Z</time>
      </trkpt>
      <trkpt lat="46.07242" lon="4.76587">
        <ele>170</ele>
        <time>2018-06-05T09:35:20Z</time>
      </trkpt>
      <trkpt lat="46.07236" lon="4.76592">
        <ele>170</ele>
        <time>2018-06-05T09:35:21Z</time>
      </trkpt>
      <trkpt lat="46.07232" lon="4.76598">
        <ele>170</ele>
        <time>2018-06-05T09:35:22Z</time>
      </trkpt>
      <trkpt lat="46.07229" lon="4.76603">
        <ele>170</ele>
        <time>2018-06-05T09:35:23Z</time>
      </trkpt>
      <trkpt lat="46.07225" lon="4.76608">
        <ele>170</ele>
        <time>2018-06-05T09:35:24Z</time>
      </trkpt>
      <trkpt lat="46.07222" lon="4.76615">
        <ele>170</ele>
        <time>2018-06-05T09:35:25Z</time>
      </trkpt>
      <trkpt lat="46.07218" lon="4.7662">
        <ele>170</ele>
        <time>2018-06-05T09:35:26Z</time>
      </trkpt>
      <trkpt lat="46.07213" lon="4.76625">
        <ele>171</ele>
        <time>2018-06-05T09:35:27Z</time>
      </trkpt>
      <trkpt lat="46.07208" lon="4.76631">
        <ele>170</ele>
        <time>2018-06-05T09:35:28Z</time>
      </trkpt>
      <trkpt lat="46.07204" lon="4.76635">
        <ele>170</ele>
        <time>2018-06-05T09:35:29Z</time>
      </trkpt>
      <trkpt lat="46.07199" lon="4.76641">
        <ele>170</ele>
        <time>2018-06-05T09:35:30Z</time>
      </trkpt>
      <trkpt lat="46.07196" lon="4.76647">
        <ele>170</ele>
        <time>2018-06-05T09:35:31Z</time>
      </trkpt>
      <trkpt lat="46.07191" lon="4.76652">
        <ele>170</ele>
        <time>2018-06-05T09:35:32Z</time>
      </trkpt>
      <trkpt lat="46.07188" lon="4.7666">
        <ele>170</ele>
        <time>2018-06-05T09:35:33Z</time>
      </trkpt>
      <trkpt lat="46.07183" lon="4.76665">
        <ele>170</ele>
        <time>2018-06-05T09:35:34Z</time>
      </trkpt>
      <trkpt lat="46.0718" lon="4.76671">
        <ele>170</ele>
        <time>2018-06-05T09:35:35Z</time>
      </trkpt>
      <trkpt lat="46.07176" lon="4.76678">
        <ele>170</ele>
        <time>2018-06-05T09:35:36Z</time>
      </trkpt>
      <trkpt lat="46.07172" lon="4.76684">
        <ele>170</ele>
        <time>2018-06-05T09:35:37Z</time>
      </trkpt>
      <trkpt lat="46.07169" lon="4.7669">
        <ele>170</ele>
        <time>2018-06-05T09:35:38Z</time>
      </trkpt>
      <trkpt lat="46.07165" lon="4.76696">
        <ele>170</ele>
        <time>2018-06-05T09:35:39Z</time>
      </trkpt>
      <trkpt lat="46.07161" lon="4.76702">
        <ele>170</ele>
        <time>2018-06-05T09:35:40Z</time>
      </trkpt>
      <trkpt lat="46.07157" lon="4.76708">
        <ele>170</ele>
        <time>2018-06-05T09:35:41Z</time>
      </trkpt>
      <trkpt lat="46.07154" lon="4.76714">
        <ele>170</ele>
        <time>2018-06-05T09:35:42Z</time>
      </trkpt>
      <trkpt lat="46.07151" lon="4.76721">
        <ele>170</ele>
        <time>2018-06-05T09:35:43Z</time>
      </trkpt>
      <trkpt lat="46.07147" lon="4.76729">
        <ele>171</ele>
        <time>2018-06-05T09:35:44Z</time>
      </trkpt>
      <trkpt lat="46.07144" lon="4.76737">
        <ele>171</ele>
        <time>2018-06-05T09:35:45Z</time>
      </trkpt>
      <trkpt lat="46.07141" lon="4.76745">
        <ele>171</ele>
        <time>2018-06-05T09:35:46Z</time>
      </trkpt>
      <trkpt lat="46.07137" lon="4.76753">
        <ele>171</ele>
        <time>2018-06-05T09:35:47Z</time>
      </trkpt>
      <trkpt lat="46.07133" lon="4.7676">
        <ele>171</ele>
        <time>2018-06-05T09:35:48Z</time>
      </trkpt>
      <trkpt lat="46.0713" lon="4.76767">
        <ele>171</ele>
        <time>2018-06-05T09:35:49Z</time>
      </trkpt>
      <trkpt lat="46.07126" lon="4.76775">
        <ele>171</ele>
        <time>2018-06-05T09:35:50Z</time>
      </trkpt>
      <trkpt lat="46.07123" lon="4.76779">
        <ele>171</ele>
        <time>2018-06-05T09:35:51Z</time>
      </trkpt>
      <trkpt lat="46.0712" lon="4.76788">
        <ele>171</ele>
        <time>2018-06-05T09:35:52Z</time>
      </trkpt>
      <trkpt lat="46.07117" lon="4.76794">
        <ele>172</ele>
        <time>2018-06-05T09:35:53Z</time>
      </trkpt>
      <trkpt lat="46.07113" lon="4.768">
        <ele>172</ele>
        <time>2018-06-05T09:35:54Z</time>
      </trkpt>
      <trkpt lat="46.0711" lon="4.76809">
        <ele>172</ele>
        <time>2018-06-05T09:35:55Z</time>
      </trkpt>
      <trkpt lat="46.07106" lon="4.76817">
        <ele>172</ele>
        <time>2018-06-05T09:35:56Z</time>
      </trkpt>
      <trkpt lat="46.07102" lon="4.76823">
        <ele>172</ele>
        <time>2018-06-05T09:35:57Z</time>
      </trkpt>
      <trkpt lat="46.07099" lon="4.7683">
        <ele>172</ele>
        <time>2018-06-05T09:35:58Z</time>
      </trkpt>
      <trkpt lat="46.07096" lon="4.76838">
        <ele>172</ele>
        <time>2018-06-05T09:35:59Z</time>
      </trkpt>
      <trkpt lat="46.07093" lon="4.76845">
        <ele>172</ele>
        <time>2018-06-05T09:36:00Z</time>
      </trkpt>
      <trkpt lat="46.0709" lon="4.76855">
        <ele>173</ele>
        <time>2018-06-05T09:36:01Z</time>
      </trkpt>
      <trkpt lat="46.07086" lon="4.76861">
        <ele>173</ele>
        <time>2018-06-05T09:36:02Z</time>
      </trkpt>
      <trkpt lat="46.07082" lon="4.76869">
        <ele>172</ele>
        <time>2018-06-05T09:36:03Z</time>
      </trkpt>
      <trkpt lat="46.07078" lon="4.76876">
        <ele>172</ele>
        <time>2018-06-05T09:36:04Z</time>
      </trkpt>
      <trkpt lat="46.07074" lon="4.76882">
        <ele>172</ele>
        <time>2018-06-05T09:36:05Z</time>
      </trkpt>
      <trkpt lat="46.0707" lon="4.76893">
        <ele>172</ele>
        <time>2018-06-05T09:36:06Z</time>
      </trkpt>
      <trkpt lat="46.07066" lon="4.769">
        <ele>172</ele>
        <time>2018-06-05T09:36:07Z</time>
      </trkpt>
      <trkpt lat="46.07062" lon="4.76906">
        <ele>172</ele>
        <time>2018-06-05T09:36:08Z</time>
      </trkpt>
      <trkpt lat="46.07058" lon="4.76914">
        <ele>172</ele>
        <time>2018-06-05T09:36:09Z</time>
      </trkpt>
      <trkpt lat="46.07054" lon="4.76921">
        <ele>173</ele>
        <time>2018-06-05T09:36:10Z</time>
      </trkpt>
      <trkpt lat="46.07052" lon="4.76928">
        <ele>173</ele>
        <time>2018-06-05T09:36:11Z</time>
      </trkpt>
      <trkpt lat="46.07049" lon="4.76933">
        <ele>173</ele>
        <time>2018-06-05T09:36:12Z</time>
      </trkpt>
      <trkpt lat="46.07046" lon="4.7694">
        <ele>173</ele>
        <time>2018-06-05T09:36:13Z</time>
      </trkpt>
      <trkpt lat="46.07043" lon="4.76947">
        <ele>173</ele>
        <time>2018-06-05T09:36:14Z</time>
      </trkpt>
      <trkpt lat="46.07039" lon="4.76953">
        <ele>173</ele>
        <time>2018-06-05T09:36:15Z</time>
      </trkpt>
      <trkpt lat="46.07036" lon="4.76956">
        <ele>173</ele>
        <time>2018-06-05T09:36:16Z</time>
      </trkpt>
      <trkpt lat="46.07032" lon="4.76963">
        <ele>173</ele>
        <time>2018-06-05T09:36:17Z</time>
      </trkpt>
      <trkpt lat="46.07028" lon="4.7697">
        <ele>173</ele>
        <time>2018-06-05T09:36:18Z</time>
      </trkpt>
      <trkpt lat="46.07024" lon="4.7698">
        <ele>173</ele>
        <time>2018-06-05T09:36:19Z</time>
      </trkpt>
      <trkpt lat="46.07021" lon="4.76987">
        <ele>173</ele>
        <time>2018-06-05T09:36:20Z</time>
      </trkpt>
      <trkpt lat="46.07017" lon="4.76992">
        <ele>173</ele>
        <time>2018-06-05T09:36:21Z</time>
      </trkpt>
      <trkpt lat="46.07014" lon="4.76999">
        <ele>173</ele>
        <time>2018-06-05T09:36:22Z</time>
      </trkpt>
      <trkpt lat="46.0701" lon="4.77005">
        <ele>173</ele>
        <time>2018-06-05T09:36:23Z</time>
      </trkpt>
      <trkpt lat="46.07007" lon="4.77011">
        <ele>174</ele>
        <time>2018-06-05T09:36:24Z</time>
      </trkpt>
      <trkpt lat="46.07003" lon="4.77016">
        <ele>174</ele>
        <time>2018-06-05T09:36:25Z</time>
      </trkpt>
      <trkpt lat="46.07" lon="4.77023">
        <ele>173</ele>
        <time>2018-06-05T09:36:26Z</time>
      </trkpt>
      <trkpt lat="46.06996" lon="4.77028">
        <ele>173</ele>
        <time>2018-06-05T09:36:27Z</time>
      </trkpt>
      <trkpt lat="46.06993" lon="4.77033">
        <ele>173</ele>
        <time>2018-06-05T09:36:28Z</time>
      </trkpt>
      <trkpt lat="46.06989" lon="4.77037">
        <ele>173</ele>
        <time>2018-06-05T09:36:29Z</time>
      </trkpt>
      <trkpt lat="46.06986" lon="4.77044">
        <ele>173</ele>
        <time>2018-06-05T09:36:30Z</time>
      </trkpt>
      <trkpt lat="46.06983" lon="4.7705">
        <ele>173</ele>
        <time>2018-06-05T09:36:31Z</time>
      </trkpt>
      <trkpt lat="46.06981" lon="4.77055">
        <ele>173</ele>
        <time>2018-06-05T09:36:32Z</time>
      </trkpt>
      <trkpt lat="46.06978" lon="4.77062">
        <ele>173</ele>
        <time>2018-06-05T09:36:33Z</time>
      </trkpt>
      <trkpt lat="46.06972" lon="4.77068">
        <ele>173</ele>
        <time>2018-06-05T09:36:35Z</time>
      </trkpt>
      <trkpt lat="46.06968" lon="4.7707">
        <ele>173</ele>
        <time>2018-06-05T09:36:36Z</time>
      </trkpt>
      <trkpt lat="46.06962" lon="4.7707">
        <ele>173</ele>
        <time>2018-06-05T09:36:37Z</time>
      </trkpt>
      <trkpt lat="46.06957" lon="4.77071">
        <ele>173</ele>
        <time>2018-06-05T09:36:38Z</time>
      </trkpt>
      <trkpt lat="46.06951" lon="4.7707">
        <ele>173</ele>
        <time>2018-06-05T09:36:39Z</time>
      </trkpt>
      <trkpt lat="46.06946" lon="4.77071">
        <ele>173</ele>
        <time>2018-06-05T09:36:40Z</time>
      </trkpt>
      <trkpt lat="46.0694" lon="4.77071">
        <ele>173</ele>
        <time>2018-06-05T09:36:41Z</time>
      </trkpt>
      <trkpt lat="46.06933" lon="4.7707">
        <ele>173</ele>
        <time>2018-06-05T09:36:42Z</time>
      </trkpt>
      <trkpt lat="46.06925" lon="4.77071">
        <ele>173</ele>
        <time>2018-06-05T09:36:43Z</time>
      </trkpt>
      <trkpt lat="46.06921" lon="4.7707">
        <ele>173</ele>
        <time>2018-06-05T09:36:44Z</time>
      </trkpt>
      <trkpt lat="46.06911" lon="4.77072">
        <ele>173</ele>
        <time>2018-06-05T09:36:45Z</time>
      </trkpt>
      <trkpt lat="46.06907" lon="4.7707">
        <ele>173</ele>
        <time>2018-06-05T09:36:46Z</time>
      </trkpt>
      <trkpt lat="46.06901" lon="4.77071">
        <ele>173</ele>
        <time>2018-06-05T09:36:47Z</time>
      </trkpt>
      <trkpt lat="46.06896" lon="4.7707">
        <ele>173</ele>
        <time>2018-06-05T09:36:48Z</time>
      </trkpt>
      <trkpt lat="46.0689" lon="4.7707">
        <ele>173</ele>
        <time>2018-06-05T09:36:49Z</time>
      </trkpt>
      <trkpt lat="46.06885" lon="4.77071">
        <ele>173</ele>
        <time>2018-06-05T09:36:50Z</time>
      </trkpt>
      <trkpt lat="46.06879" lon="4.77072">
        <ele>173</ele>
        <time>2018-06-05T09:36:51Z</time>
      </trkpt>
      <trkpt lat="46.06872" lon="4.77073">
        <ele>173</ele>
        <time>2018-06-05T09:36:52Z</time>
      </trkpt>
      <trkpt lat="46.06866" lon="4.77074">
        <ele>173</ele>
        <time>2018-06-05T09:36:53Z</time>
      </trkpt>
      <trkpt lat="46.06861" lon="4.77073">
        <ele>173</ele>
        <time>2018-06-05T09:36:54Z</time>
      </trkpt>
      <trkpt lat="46.06855" lon="4.77075">
        <ele>173</ele>
        <time>2018-06-05T09:36:55Z</time>
      </trkpt>
      <trkpt lat="46.0685" lon="4.77075">
        <ele>173</ele>
        <time>2018-06-05T09:36:56Z</time>
      </trkpt>
      <trkpt lat="46.06844" lon="4.77079">
        <ele>173</ele>
        <time>2018-06-05T09:36:57Z</time>
      </trkpt>
      <trkpt lat="46.06839" lon="4.77082">
        <ele>173</ele>
        <time>2018-06-05T09:36:58Z</time>
      </trkpt>
      <trkpt lat="46.06833" lon="4.77086">
        <ele>173</ele>
        <time>2018-06-05T09:36:59Z</time>
      </trkpt>
      <trkpt lat="46.0683" lon="4.77091">
        <ele>173</ele>
        <time>2018-06-05T09:37:00Z</time>
      </trkpt>
      <trkpt lat="46.06825" lon="4.77097">
        <ele>173</ele>
        <time>2018-06-05T09:37:01Z</time>
      </trkpt>
      <trkpt lat="46.06819" lon="4.771">
        <ele>173</ele>
        <time>2018-06-05T09:37:02Z</time>
      </trkpt>
      <trkpt lat="46.06813" lon="4.77104">
        <ele>172</ele>
        <time>2018-06-05T09:37:03Z</time>
      </trkpt>
      <trkpt lat="46.06808" lon="4.77108">
        <ele>172</ele>
        <time>2018-06-05T09:37:04Z</time>
      </trkpt>
      <trkpt lat="46.06803" lon="4.77114">
        <ele>172</ele>
        <time>2018-06-05T09:37:05Z</time>
      </trkpt>
      <trkpt lat="46.06799" lon="4.77118">
        <ele>172</ele>
        <time>2018-06-05T09:37:06Z</time>
      </trkpt>
      <trkpt lat="46.06794" lon="4.77122">
        <ele>172</ele>
        <time>2018-06-05T09:37:07Z</time>
      </trkpt>
      <trkpt lat="46.0679" lon="4.77125">
        <ele>172</ele>
        <time>2018-06-05T09:37:08Z</time>
      </trkpt>
      <trkpt lat="46.06785" lon="4.7713">
        <ele>172</ele>
        <time>2018-06-05T09:37:09Z</time>
      </trkpt>
      <trkpt lat="46.06781" lon="4.77135">
        <ele>172</ele>
        <time>2018-06-05T09:37:10Z</time>
      </trkpt>
      <trkpt lat="46.06777" lon="4.77139">
        <ele>172</ele>
        <time>2018-06-05T09:37:11Z</time>
      </trkpt>
      <trkpt lat="46.06772" lon="4.77144">
        <ele>172</ele>
        <time>2018-06-05T09:37:12Z</time>
      </trkpt>
      <trkpt lat="46.06767" lon="4.77147">
        <ele>172</ele>
        <time>2018-06-05T09:37:13Z</time>
      </trkpt>
      <trkpt lat="46.06763" lon="4.77151">
        <ele>172</ele>
        <time>2018-06-05T09:37:14Z</time>
      </trkpt>
      <trkpt lat="46.06756" lon="4.77158">
        <ele>172</ele>
        <time>2018-06-05T09:37:15Z</time>
      </trkpt>
      <trkpt lat="46.06751" lon="4.77163">
        <ele>172</ele>
        <time>2018-06-05T09:37:16Z</time>
      </trkpt>
      <trkpt lat="46.06745" lon="4.77168">
        <ele>172</ele>
        <time>2018-06-05T09:37:17Z</time>
      </trkpt>
      <trkpt lat="46.0674" lon="4.77174">
        <ele>172</ele>
        <time>2018-06-05T09:37:18Z</time>
      </trkpt>
      <trkpt lat="46.06734" lon="4.77178">
        <ele>172</ele>
        <time>2018-06-05T09:37:19Z</time>
      </trkpt>
      <trkpt lat="46.06729" lon="4.77181">
        <ele>172</ele>
        <time>2018-06-05T09:37:20Z</time>
      </trkpt>
      <trkpt lat="46.06724" lon="4.77186">
        <ele>172</ele>
        <time>2018-06-05T09:37:21Z</time>
      </trkpt>
      <trkpt lat="46.06718" lon="4.77189">
        <ele>172</ele>
        <time>2018-06-05T09:37:22Z</time>
      </trkpt>
      <trkpt lat="46.06712" lon="4.77193">
        <ele>172</ele>
        <time>2018-06-05T09:37:23Z</time>
      </trkpt>
      <trkpt lat="46.06707" lon="4.77196">
        <ele>172</ele>
        <time>2018-06-05T09:37:24Z</time>
      </trkpt>
      <trkpt lat="46.06701" lon="4.77197">
        <ele>172</ele>
        <time>2018-06-05T09:37:25Z</time>
      </trkpt>
      <trkpt lat="46.06696" lon="4.77198">
        <ele>172</ele>
        <time>2018-06-05T09:37:26Z</time>
      </trkpt>
      <trkpt lat="46.06691" lon="4.77199">
        <ele>172</ele>
        <time>2018-06-05T09:37:27Z</time>
      </trkpt>
      <trkpt lat="46.06686" lon="4.77203">
        <ele>172</ele>
        <time>2018-06-05T09:37:28Z</time>
      </trkpt>
      <trkpt lat="46.06684" lon="4.77208">
        <ele>172</ele>
        <time>2018-06-05T09:37:29Z</time>
      </trkpt>
      <trkpt lat="46.06682" lon="4.77216">
        <ele>172</ele>
        <time>2018-06-05T09:37:30Z</time>
      </trkpt>
      <trkpt lat="46.06682" lon="4.77224">
        <ele>172</ele>
        <time>2018-06-05T09:37:31Z</time>
      </trkpt>
      <trkpt lat="46.06681" lon="4.77231">
        <ele>172</ele>
        <time>2018-06-05T09:37:32Z</time>
      </trkpt>
      <trkpt lat="46.06679" lon="4.77237">
        <ele>172</ele>
        <time>2018-06-05T09:37:33Z</time>
      </trkpt>
      <trkpt lat="46.06677" lon="4.77244">
        <ele>173</ele>
        <time>2018-06-05T09:37:34Z</time>
      </trkpt>
      <trkpt lat="46.06676" lon="4.77252">
        <ele>173</ele>
        <time>2018-06-05T09:37:35Z</time>
      </trkpt>
      <trkpt lat="46.06673" lon="4.77257">
        <ele>173</ele>
        <time>2018-06-05T09:37:36Z</time>
      </trkpt>
      <trkpt lat="46.0667" lon="4.77264">
        <ele>173</ele>
        <time>2018-06-05T09:37:37Z</time>
      </trkpt>
      <trkpt lat="46.06667" lon="4.77272">
        <ele>173</ele>
        <time>2018-06-05T09:37:38Z</time>
      </trkpt>
      <trkpt lat="46.06664" lon="4.77278">
        <ele>174</ele>
        <time>2018-06-05T09:37:39Z</time>
      </trkpt>
      <trkpt lat="46.06662" lon="4.77284">
        <ele>174</ele>
        <time>2018-06-05T09:37:40Z</time>
      </trkpt>
      <trkpt lat="46.06658" lon="4.77291">
        <ele>174</ele>
        <time>2018-06-05T09:37:41Z</time>
      </trkpt>
      <trkpt lat="46.06656" lon="4.77295">
        <ele>174</ele>
        <time>2018-06-05T09:37:42Z</time>
      </trkpt>
      <trkpt lat="46.06653" lon="4.77301">
        <ele>174</ele>
        <time>2018-06-05T09:37:43Z</time>
      </trkpt>
      <trkpt lat="46.06648" lon="4.77311">
        <ele>174</ele>
        <time>2018-06-05T09:37:45Z</time>
      </trkpt>
      <trkpt lat="46.06646" lon="4.77318">
        <ele>174</ele>
        <time>2018-06-05T09:37:46Z</time>
      </trkpt>
      <trkpt lat="46.06643" lon="4.77324">
        <ele>174</ele>
        <time>2018-06-05T09:37:47Z</time>
      </trkpt>
      <trkpt lat="46.06641" lon="4.77331">
        <ele>174</ele>
        <time>2018-06-05T09:37:48Z</time>
      </trkpt>
      <trkpt lat="46.06638" lon="4.77339">
        <ele>176</ele>
        <time>2018-06-05T09:37:49Z</time>
      </trkpt>
      <trkpt lat="46.06636" lon="4.77346">
        <ele>176</ele>
        <time>2018-06-05T09:37:50Z</time>
      </trkpt>
      <trkpt lat="46.06633" lon="4.77353">
        <ele>176</ele>
        <time>2018-06-05T09:37:51Z</time>
      </trkpt>
      <trkpt lat="46.06632" lon="4.77358">
        <ele>176</ele>
        <time>2018-06-05T09:37:52Z</time>
      </trkpt>
      <trkpt lat="46.0663" lon="4.77361">
        <ele>176</ele>
        <time>2018-06-05T09:37:53Z</time>
      </trkpt>
      <trkpt lat="46.06628" lon="4.7737">
        <ele>176</ele>
        <time>2018-06-05T09:37:54Z</time>
      </trkpt>
      <trkpt lat="46.06625" lon="4.77378">
        <ele>176</ele>
        <time>2018-06-05T09:37:55Z</time>
      </trkpt>
      <trkpt lat="46.06623" lon="4.77384">
        <ele>176</ele>
        <time>2018-06-05T09:37:56Z</time>
      </trkpt>
      <trkpt lat="46.06622" lon="4.77388">
        <ele>177</ele>
        <time>2018-06-05T09:37:57Z</time>
      </trkpt>
      <trkpt lat="46.06618" lon="4.77399">
        <ele>177</ele>
        <time>2018-06-05T09:37:58Z</time>
      </trkpt>
      <trkpt lat="46.06614" lon="4.77409">
        <ele>177</ele>
        <time>2018-06-05T09:38:00Z</time>
      </trkpt>
      <trkpt lat="46.0661" lon="4.77415">
        <ele>177</ele>
        <time>2018-06-05T09:38:01Z</time>
      </trkpt>
      <trkpt lat="46.06607" lon="4.77422">
        <ele>179</ele>
        <time>2018-06-05T09:38:04Z</time>
      </trkpt>
      <trkpt lat="46.066" lon="4.77429">
        <ele>179</ele>
        <time>2018-06-05T09:38:05Z</time>
      </trkpt>
      <trkpt lat="46.06598" lon="4.77435">
        <ele>179</ele>
        <time>2018-06-05T09:38:06Z</time>
      </trkpt>
      <trkpt lat="46.06595" lon="4.77445">
        <ele>180</ele>
        <time>2018-06-05T09:38:07Z</time>
      </trkpt>
      <trkpt lat="46.06594" lon="4.77457">
        <ele>180</ele>
        <time>2018-06-05T09:38:09Z</time>
      </trkpt>
      <trkpt lat="46.06594" lon="4.77466">
        <ele>180</ele>
        <time>2018-06-05T09:38:10Z</time>
      </trkpt>
      <trkpt lat="46.06596" lon="4.77475">
        <ele>181</ele>
        <time>2018-06-05T09:38:12Z</time>
      </trkpt>
      <trkpt lat="46.06601" lon="4.77482">
        <ele>181</ele>
        <time>2018-06-05T09:38:13Z</time>
      </trkpt>
      <trkpt lat="46.06606" lon="4.77492">
        <ele>181</ele>
        <time>2018-06-05T09:38:15Z</time>
      </trkpt>
      <trkpt lat="46.06609" lon="4.77496">
        <ele>181</ele>
        <time>2018-06-05T09:38:16Z</time>
      </trkpt>
      <trkpt lat="46.06614" lon="4.77506">
        <ele>183</ele>
        <time>2018-06-05T09:38:18Z</time>
      </trkpt>
      <trkpt lat="46.06616" lon="4.7751">
        <ele>183</ele>
        <time>2018-06-05T09:38:19Z</time>
      </trkpt>
      <trkpt lat="46.0662" lon="4.7752">
        <ele>183</ele>
        <time>2018-06-05T09:38:21Z</time>
      </trkpt>
      <trkpt lat="46.06621" lon="4.77522">
        <ele>183</ele>
        <time>2018-06-05T09:38:22Z</time>
      </trkpt>
      <trkpt lat="46.06624" lon="4.77532">
        <ele>183</ele>
        <time>2018-06-05T09:38:24Z</time>
      </trkpt>
      <trkpt lat="46.06624" lon="4.77535">
        <ele>183</ele>
        <time>2018-06-05T09:38:25Z</time>
      </trkpt>
      <trkpt lat="46.06626" lon="4.77544">
        <ele>183</ele>
        <time>2018-06-05T09:38:28Z</time>
      </trkpt>
      <trkpt lat="46.06627" lon="4.77548">
        <ele>183</ele>
        <time>2018-06-05T09:38:29Z</time>
      </trkpt>
      <trkpt lat="46.06629" lon="4.77557">
        <ele>183</ele>
        <time>2018-06-05T09:38:31Z</time>
      </trkpt>
      <trkpt lat="46.06629" lon="4.77561">
        <ele>183</ele>
        <time>2018-06-05T09:38:32Z</time>
      </trkpt>
      <trkpt lat="46.06631" lon="4.77576">
        <ele>183</ele>
        <time>2018-06-05T09:38:33Z</time>
      </trkpt>
      <trkpt lat="46.06632" lon="4.77586">
        <ele>185</ele>
        <time>2018-06-05T09:38:36Z</time>
      </trkpt>
      <trkpt lat="46.06632" lon="4.77589">
        <ele>185</ele>
        <time>2018-06-05T09:38:37Z</time>
      </trkpt>
      <trkpt lat="46.06633" lon="4.77602">
        <ele>185</ele>
        <time>2018-06-05T09:38:40Z</time>
      </trkpt>
      <trkpt lat="46.06632" lon="4.77606">
        <ele>185</ele>
        <time>2018-06-05T09:38:41Z</time>
      </trkpt>
      <trkpt lat="46.06631" lon="4.77618">
        <ele>185</ele>
        <time>2018-06-05T09:38:44Z</time>
      </trkpt>
      <trkpt lat="46.06631" lon="4.77622">
        <ele>185</ele>
        <time>2018-06-05T09:38:45Z</time>
      </trkpt>
      <trkpt lat="46.0663" lon="4.77626">
        <ele>185</ele>
        <time>2018-06-05T09:38:46Z</time>
      </trkpt>
      <trkpt lat="46.06629" lon="4.77639">
        <ele>185</ele>
        <time>2018-06-05T09:38:47Z</time>
      </trkpt>
      <trkpt lat="46.06626" lon="4.77651">
        <ele>185</ele>
        <time>2018-06-05T09:38:51Z</time>
      </trkpt>
      <trkpt lat="46.06625" lon="4.77654">
        <ele>185</ele>
        <time>2018-06-05T09:38:52Z</time>
      </trkpt>
      <trkpt lat="46.06621" lon="4.77665">
        <ele>185</ele>
        <time>2018-06-05T09:38:55Z</time>
      </trkpt>
      <trkpt lat="46.06618" lon="4.77668">
        <ele>187</ele>
        <time>2018-06-05T09:38:56Z</time>
      </trkpt>
      <trkpt lat="46.06613" lon="4.77673">
        <ele>187</ele>
        <time>2018-06-05T09:38:58Z</time>
      </trkpt>
      <trkpt lat="46.0661" lon="4.77676">
        <ele>187</ele>
        <time>2018-06-05T09:38:59Z</time>
      </trkpt>
      <trkpt lat="46.06604" lon="4.7768">
        <ele>187</ele>
        <time>2018-06-05T09:39:01Z</time>
      </trkpt>
      <trkpt lat="46.06601" lon="4.77681">
        <ele>187</ele>
        <time>2018-06-05T09:39:02Z</time>
      </trkpt>
      <trkpt lat="46.06591" lon="4.77686">
        <ele>187</ele>
        <time>2018-06-05T09:39:03Z</time>
      </trkpt>
      <trkpt lat="46.06584" lon="4.77687">
        <ele>187</ele>
        <time>2018-06-05T09:39:06Z</time>
      </trkpt>
      <trkpt lat="46.06581" lon="4.77688">
        <ele>188</ele>
        <time>2018-06-05T09:39:07Z</time>
      </trkpt>
      <trkpt lat="46.06573" lon="4.77692">
        <ele>188</ele>
        <time>2018-06-05T09:39:08Z</time>
      </trkpt>
      <trkpt lat="46.0657" lon="4.77695">
        <ele>188</ele>
        <time>2018-06-05T09:39:09Z</time>
      </trkpt>
      <trkpt lat="46.06564" lon="4.77701">
        <ele>189</ele>
        <time>2018-06-05T09:39:11Z</time>
      </trkpt>
      <trkpt lat="46.06562" lon="4.77703">
        <ele>189</ele>
        <time>2018-06-05T09:39:12Z</time>
      </trkpt>
      <trkpt lat="46.06558" lon="4.77709">
        <ele>189</ele>
        <time>2018-06-05T09:39:13Z</time>
      </trkpt>
      <trkpt lat="46.06556" lon="4.77714">
        <ele>189</ele>
        <time>2018-06-05T09:39:14Z</time>
      </trkpt>
      <trkpt lat="46.06553" lon="4.77719">
        <ele>189</ele>
        <time>2018-06-05T09:39:15Z</time>
      </trkpt>
      <trkpt lat="46.0655" lon="4.77724">
        <ele>189</ele>
        <time>2018-06-05T09:39:16Z</time>
      </trkpt>
      <trkpt lat="46.06545" lon="4.77734">
        <ele>190</ele>
        <time>2018-06-05T09:39:18Z</time>
      </trkpt>
      <trkpt lat="46.06542" lon="4.77738">
        <ele>190</ele>
        <time>2018-06-05T09:39:19Z</time>
      </trkpt>
      <trkpt lat="46.06537" lon="4.77748">
        <ele>190</ele>
        <time>2018-06-05T09:39:21Z</time>
      </trkpt>
      <trkpt lat="46.06536" lon="4.7775">
        <ele>191</ele>
        <time>2018-06-05T09:39:22Z</time>
      </trkpt>
      <trkpt lat="46.06533" lon="4.77757">
        <ele>191</ele>
        <time>2018-06-05T09:39:23Z</time>
      </trkpt>
      <trkpt lat="46.0653" lon="4.77762">
        <ele>192</ele>
        <time>2018-06-05T09:39:24Z</time>
      </trkpt>
      <trkpt lat="46.06525" lon="4.77771">
        <ele>192</ele>
        <time>2018-06-05T09:39:26Z</time>
      </trkpt>
      <trkpt lat="46.06522" lon="4.77775">
        <ele>192</ele>
        <time>2018-06-05T09:39:27Z</time>
      </trkpt>
      <trkpt lat="46.06516" lon="4.77784">
        <ele>192</ele>
        <time>2018-06-05T09:39:29Z</time>
      </trkpt>
      <trkpt lat="46.06513" lon="4.77788">
        <ele>192</ele>
        <time>2018-06-05T09:39:30Z</time>
      </trkpt>
      <trkpt lat="46.06508" lon="4.77797">
        <ele>192</ele>
        <time>2018-06-05T09:39:32Z</time>
      </trkpt>
      <trkpt lat="46.06505" lon="4.77801">
        <ele>192</ele>
        <time>2018-06-05T09:39:33Z</time>
      </trkpt>
      <trkpt lat="46.06501" lon="4.7781">
        <ele>192</ele>
        <time>2018-06-05T09:39:35Z</time>
      </trkpt>
      <trkpt lat="46.06499" lon="4.77815">
        <ele>192</ele>
        <time>2018-06-05T09:39:36Z</time>
      </trkpt>
      <trkpt lat="46.06495" lon="4.77825">
        <ele>192</ele>
        <time>2018-06-05T09:39:39Z</time>
      </trkpt>
      <trkpt lat="46.06494" lon="4.77828">
        <ele>192</ele>
        <time>2018-06-05T09:39:40Z</time>
      </trkpt>
      <trkpt lat="46.06491" lon="4.77838">
        <ele>192</ele>
        <time>2018-06-05T09:39:41Z</time>
      </trkpt>
      <trkpt lat="46.0649" lon="4.77841">
        <ele>192</ele>
        <time>2018-06-05T09:39:42Z</time>
      </trkpt>
      <trkpt lat="46.06487" lon="4.77848">
        <ele>192</ele>
        <time>2018-06-05T09:39:44Z</time>
      </trkpt>
      <trkpt lat="46.06483" lon="4.77858">
        <ele>192</ele>
        <time>2018-06-05T09:39:45Z</time>
      </trkpt>
      <trkpt lat="46.0648" lon="4.77867">
        <ele>193</ele>
        <time>2018-06-05T09:39:48Z</time>
      </trkpt>
      <trkpt lat="46.06478" lon="4.7787">
        <ele>193</ele>
        <time>2018-06-05T09:39:49Z</time>
      </trkpt>
      <trkpt lat="46.06474" lon="4.77881">
        <ele>193</ele>
        <time>2018-06-05T09:39:52Z</time>
      </trkpt>
      <trkpt lat="46.06472" lon="4.77885">
        <ele>193</ele>
        <time>2018-06-05T09:39:53Z</time>
      </trkpt>
      <trkpt lat="46.06469" lon="4.77894">
        <ele>193</ele>
        <time>2018-06-05T09:39:55Z</time>
      </trkpt>
      <trkpt lat="46.06468" lon="4.77898">
        <ele>193</ele>
        <time>2018-06-05T09:39:56Z</time>
      </trkpt>
      <trkpt lat="46.06464" lon="4.77908">
        <ele>193</ele>
        <time>2018-06-05T09:39:58Z</time>
      </trkpt>
      <trkpt lat="46.06463" lon="4.77912">
        <ele>193</ele>
        <time>2018-06-05T09:39:59Z</time>
      </trkpt>
      <trkpt lat="46.0646" lon="4.77921">
        <ele>194</ele>
        <time>2018-06-05T09:40:01Z</time>
      </trkpt>
      <trkpt lat="46.06458" lon="4.77925">
        <ele>194</ele>
        <time>2018-06-05T09:40:02Z</time>
      </trkpt>
      <trkpt lat="46.06456" lon="4.77933">
        <ele>195</ele>
        <time>2018-06-05T09:40:04Z</time>
      </trkpt>
      <trkpt lat="46.06454" lon="4.77938">
        <ele>195</ele>
        <time>2018-06-05T09:40:05Z</time>
      </trkpt>
      <trkpt lat="46.06453" lon="4.77947">
        <ele>195</ele>
        <time>2018-06-05T09:40:07Z</time>
      </trkpt>
      <trkpt lat="46.06452" lon="4.77951">
        <ele>195</ele>
        <time>2018-06-05T09:40:08Z</time>
      </trkpt>
      <trkpt lat="46.0645" lon="4.77964">
        <ele>195</ele>
        <time>2018-06-05T09:40:11Z</time>
      </trkpt>
      <trkpt lat="46.06449" lon="4.77968">
        <ele>195</ele>
        <time>2018-06-05T09:40:12Z</time>
      </trkpt>
      <trkpt lat="46.06447" lon="4.77977">
        <ele>195</ele>
        <time>2018-06-05T09:40:14Z</time>
      </trkpt>
      <trkpt lat="46.06445" lon="4.77981">
        <ele>195</ele>
        <time>2018-06-05T09:40:15Z</time>
      </trkpt>
      <trkpt lat="46.06443" lon="4.7799">
        <ele>195</ele>
        <time>2018-06-05T09:40:17Z</time>
      </trkpt>
      <trkpt lat="46.06442" lon="4.77994">
        <ele>195</ele>
        <time>2018-06-05T09:40:18Z</time>
      </trkpt>
      <trkpt lat="46.0644" lon="4.78003">
        <ele>197</ele>
        <time>2018-06-05T09:40:20Z</time>
      </trkpt>
      <trkpt lat="46.06439" lon="4.78007">
        <ele>197</ele>
        <time>2018-06-05T09:40:21Z</time>
      </trkpt>
      <trkpt lat="46.06436" lon="4.78017">
        <ele>197</ele>
        <time>2018-06-05T09:40:23Z</time>
      </trkpt>
      <trkpt lat="46.06434" lon="4.78021">
        <ele>197</ele>
        <time>2018-06-05T09:40:24Z</time>
      </trkpt>
      <trkpt lat="46.06432" lon="4.78025">
        <ele>198</ele>
        <time>2018-06-05T09:40:25Z</time>
      </trkpt>
      <trkpt lat="46.06426" lon="4.78037">
        <ele>198</ele>
        <time>2018-06-05T09:40:26Z</time>
      </trkpt>
      <trkpt lat="46.06423" lon="4.78041">
        <ele>198</ele>
        <time>2018-06-05T09:40:28Z</time>
      </trkpt>
      <trkpt lat="46.06418" lon="4.78047">
        <ele>198</ele>
        <time>2018-06-05T09:40:29Z</time>
      </trkpt>
      <trkpt lat="46.06413" lon="4.78051">
        <ele>197</ele>
        <time>2018-06-05T09:40:31Z</time>
      </trkpt>
      <trkpt lat="46.06409" lon="4.78055">
        <ele>198</ele>
        <time>2018-06-05T09:40:32Z</time>
      </trkpt>
      <trkpt lat="46.06404" lon="4.78064">
        <ele>198</ele>
        <time>2018-06-05T09:40:34Z</time>
      </trkpt>
      <trkpt lat="46.06401" lon="4.78069">
        <ele>198</ele>
        <time>2018-06-05T09:40:35Z</time>
      </trkpt>
      <trkpt lat="46.06397" lon="4.7808">
        <ele>198</ele>
        <time>2018-06-05T09:40:37Z</time>
      </trkpt>
      <trkpt lat="46.06395" lon="4.78086">
        <ele>200</ele>
        <time>2018-06-05T09:40:38Z</time>
      </trkpt>
      <trkpt lat="46.06394" lon="4.78092">
        <ele>200</ele>
        <time>2018-06-05T09:40:39Z</time>
      </trkpt>
      <trkpt lat="46.06392" lon="4.78098">
        <ele>200</ele>
        <time>2018-06-05T09:40:40Z</time>
      </trkpt>
      <trkpt lat="46.0639" lon="4.78104">
        <ele>200</ele>
        <time>2018-06-05T09:40:41Z</time>
      </trkpt>
      <trkpt lat="46.06389" lon="4.78111">
        <ele>200</ele>
        <time>2018-06-05T09:40:42Z</time>
      </trkpt>
      <trkpt lat="46.06389" lon="4.78118">
        <ele>200</ele>
        <time>2018-06-05T09:40:43Z</time>
      </trkpt>
      <trkpt lat="46.06388" lon="4.78123">
        <ele>201</ele>
        <time>2018-06-05T09:40:44Z</time>
      </trkpt>
      <trkpt lat="46.06388" lon="4.78131">
        <ele>201</ele>
        <time>2018-06-05T09:40:45Z</time>
      </trkpt>
      <trkpt lat="46.06388" lon="4.78137">
        <ele>201</ele>
        <time>2018-06-05T09:40:46Z</time>
      </trkpt>
      <trkpt lat="46.0639" lon="4.78141">
        <ele>201</ele>
        <time>2018-06-05T09:40:47Z</time>
      </trkpt>
      <trkpt lat="46.06391" lon="4.78149">
        <ele>201</ele>
        <time>2018-06-05T09:40:48Z</time>
      </trkpt>
      <trkpt lat="46.06392" lon="4.78162">
        <ele>202</ele>
        <time>2018-06-05T09:40:50Z</time>
      </trkpt>
      <trkpt lat="46.06392" lon="4.78168">
        <ele>204</ele>
        <time>2018-06-05T09:40:51Z</time>
      </trkpt>
      <trkpt lat="46.06393" lon="4.7818">
        <ele>204</ele>
        <time>2018-06-05T09:40:53Z</time>
      </trkpt>
      <trkpt lat="46.06393" lon="4.78185">
        <ele>204</ele>
        <time>2018-06-05T09:40:54Z</time>
      </trkpt>
      <trkpt lat="46.06392" lon="4.78192">
        <ele>204</ele>
        <time>2018-06-05T09:40:56Z</time>
      </trkpt>
      <trkpt lat="46.06388" lon="4.78198">
        <ele>204</ele>
        <time>2018-06-05T09:40:57Z</time>
      </trkpt>
      <trkpt lat="46.06385" lon="4.78206">
        <ele>204</ele>
        <time>2018-06-05T09:40:59Z</time>
      </trkpt>
      <trkpt lat="46.06381" lon="4.78212">
        <ele>204</ele>
        <time>2018-06-05T09:41:00Z</time>
      </trkpt>
      <trkpt lat="46.06375" lon="4.78219">
        <ele>204</ele>
        <time>2018-06-05T09:41:02Z</time>
      </trkpt>
      <trkpt lat="46.06372" lon="4.78222">
        <ele>205</ele>
        <time>2018-06-05T09:41:03Z</time>
      </trkpt>
      <trkpt lat="46.06367" lon="4.78227">
        <ele>205</ele>
        <time>2018-06-05T09:41:05Z</time>
      </trkpt>
      <trkpt lat="46.06363" lon="4.78232">
        <ele>205</ele>
        <time>2018-06-05T09:41:06Z</time>
      </trkpt>
      <trkpt lat="46.06359" lon="4.78235">
        <ele>205</ele>
        <time>2018-06-05T09:41:08Z</time>
      </trkpt>
      <trkpt lat="46.06352" lon="4.7824">
        <ele>205</ele>
        <time>2018-06-05T09:41:09Z</time>
      </trkpt>
      <trkpt lat="46.06344" lon="4.78243">
        <ele>205</ele>
        <time>2018-06-05T09:41:11Z</time>
      </trkpt>
      <trkpt lat="46.06339" lon="4.78242">
        <ele>205</ele>
        <time>2018-06-05T09:41:12Z</time>
      </trkpt>
      <trkpt lat="46.06333" lon="4.78236">
        <ele>206</ele>
        <time>2018-06-05T09:41:13Z</time>
      </trkpt>
      <trkpt lat="46.06328" lon="4.78234">
        <ele>206</ele>
        <time>2018-06-05T09:41:14Z</time>
      </trkpt>
      <trkpt lat="46.06323" lon="4.7823">
        <ele>205</ele>
        <time>2018-06-05T09:41:15Z</time>
      </trkpt>
      <trkpt lat="46.06319" lon="4.78228">
        <ele>205</ele>
        <time>2018-06-05T09:41:16Z</time>
      </trkpt>
      <trkpt lat="46.0631" lon="4.78226">
        <ele>205</ele>
        <time>2018-06-05T09:41:18Z</time>
      </trkpt>
      <trkpt lat="46.06306" lon="4.78224">
        <ele>205</ele>
        <time>2018-06-05T09:41:19Z</time>
      </trkpt>
      <trkpt lat="46.06298" lon="4.78219">
        <ele>205</ele>
        <time>2018-06-05T09:41:21Z</time>
      </trkpt>
      <trkpt lat="46.06296" lon="4.78215">
        <ele>205</ele>
        <time>2018-06-05T09:41:22Z</time>
      </trkpt>
      <trkpt lat="46.06291" lon="4.78211">
        <ele>205</ele>
        <time>2018-06-05T09:41:23Z</time>
      </trkpt>
      <trkpt lat="46.06286" lon="4.78207">
        <ele>205</ele>
        <time>2018-06-05T09:41:24Z</time>
      </trkpt>
      <trkpt lat="46.06278" lon="4.78202">
        <ele>205</ele>
        <time>2018-06-05T09:41:26Z</time>
      </trkpt>
      <trkpt lat="46.06274" lon="4.782">
        <ele>205</ele>
        <time>2018-06-05T09:41:27Z</time>
      </trkpt>
      <trkpt lat="46.06267" lon="4.78194">
        <ele>205</ele>
        <time>2018-06-05T09:41:29Z</time>
      </trkpt>
      <trkpt lat="46.06263" lon="4.78193">
        <ele>205</ele>
        <time>2018-06-05T09:41:30Z</time>
      </trkpt>
      <trkpt lat="46.06259" lon="4.78191">
        <ele>205</ele>
        <time>2018-06-05T09:41:31Z</time>
      </trkpt>
      <trkpt lat="46.06254" lon="4.78188">
        <ele>205</ele>
        <time>2018-06-05T09:41:32Z</time>
      </trkpt>
      <trkpt lat="46.06246" lon="4.78183">
        <ele>206</ele>
        <time>2018-06-05T09:41:34Z</time>
      </trkpt>
      <trkpt lat="46.06241" lon="4.7818">
        <ele>206</ele>
        <time>2018-06-05T09:41:35Z</time>
      </trkpt>
      <trkpt lat="46.06234" lon="4.78175">
        <ele>206</ele>
        <time>2018-06-05T09:41:37Z</time>
      </trkpt>
      <trkpt lat="46.0623" lon="4.78172">
        <ele>206</ele>
        <time>2018-06-05T09:41:38Z</time>
      </trkpt>
      <trkpt lat="46.06225" lon="4.7817">
        <ele>206</ele>
        <time>2018-06-05T09:41:39Z</time>
      </trkpt>
      <trkpt lat="46.0622" lon="4.78167">
        <ele>205</ele>
        <time>2018-06-05T09:41:40Z</time>
      </trkpt>
      <trkpt lat="46.06215" lon="4.78161">
        <ele>205</ele>
        <time>2018-06-05T09:41:42Z</time>
      </trkpt>
      <trkpt lat="46.06208" lon="4.78157">
        <ele>205</ele>
        <time>2018-06-05T09:41:43Z</time>
      </trkpt>
      <trkpt lat="46.062" lon="4.78152">
        <ele>205</ele>
        <time>2018-06-05T09:41:45Z</time>
      </trkpt>
      <trkpt lat="46.06196" lon="4.78149">
        <ele>205</ele>
        <time>2018-06-05T09:41:46Z</time>
      </trkpt>
      <trkpt lat="46.06188" lon="4.78144">
        <ele>206</ele>
        <time>2018-06-05T09:41:48Z</time>
      </trkpt>
      <trkpt lat="46.06184" lon="4.78142">
        <ele>206</ele>
        <time>2018-06-05T09:41:49Z</time>
      </trkpt>
      <trkpt lat="46.0618" lon="4.78138">
        <ele>206</ele>
        <time>2018-06-05T09:41:50Z</time>
      </trkpt>
      <trkpt lat="46.06176" lon="4.78135">
        <ele>206</ele>
        <time>2018-06-05T09:41:51Z</time>
      </trkpt>
      <trkpt lat="46.06168" lon="4.7813">
        <ele>206</ele>
        <time>2018-06-05T09:41:53Z</time>
      </trkpt>
      <trkpt lat="46.06164" lon="4.78127">
        <ele>208</ele>
        <time>2018-06-05T09:41:54Z</time>
      </trkpt>
      <trkpt lat="46.06157" lon="4.78124">
        <ele>208</ele>
        <time>2018-06-05T09:41:56Z</time>
      </trkpt>
      <trkpt lat="46.06155" lon="4.78122">
        <ele>208</ele>
        <time>2018-06-05T09:41:57Z</time>
      </trkpt>
      <trkpt lat="46.06149" lon="4.78116">
        <ele>208</ele>
        <time>2018-06-05T09:41:59Z</time>
      </trkpt>
      <trkpt lat="46.06146" lon="4.78114">
        <ele>208</ele>
        <time>2018-06-05T09:42:00Z</time>
      </trkpt>
      <trkpt lat="46.06139" lon="4.78108">
        <ele>208</ele>
        <time>2018-06-05T09:42:02Z</time>
      </trkpt>
      <trkpt lat="46.06136" lon="4.78105">
        <ele>208</ele>
        <time>2018-06-05T09:42:03Z</time>
      </trkpt>
      <trkpt lat="46.06131" lon="4.78098">
        <ele>209</ele>
        <time>2018-06-05T09:42:05Z</time>
      </trkpt>
      <trkpt lat="46.06128" lon="4.78094">
        <ele>209</ele>
        <time>2018-06-05T09:42:06Z</time>
      </trkpt>
      <trkpt lat="46.06123" lon="4.78087">
        <ele>209</ele>
        <time>2018-06-05T09:42:08Z</time>
      </trkpt>
      <trkpt lat="46.0612" lon="4.78083">
        <ele>209</ele>
        <time>2018-06-05T09:42:09Z</time>
      </trkpt>
      <trkpt lat="46.06113" lon="4.78076">
        <ele>210</ele>
        <time>2018-06-05T09:42:11Z</time>
      </trkpt>
      <trkpt lat="46.06112" lon="4.78074">
        <ele>210</ele>
        <time>2018-06-05T09:42:12Z</time>
      </trkpt>
      <trkpt lat="46.06107" lon="4.78069">
        <ele>210</ele>
        <time>2018-06-05T09:42:13Z</time>
      </trkpt>
      <trkpt lat="46.06104" lon="4.78065">
        <ele>210</ele>
        <time>2018-06-05T09:42:14Z</time>
      </trkpt>
      <trkpt lat="46.061" lon="4.78061">
        <ele>210</ele>
        <time>2018-06-05T09:42:15Z</time>
      </trkpt>
      <trkpt lat="46.06096" lon="4.78058">
        <ele>210</ele>
        <time>2018-06-05T09:42:16Z</time>
      </trkpt>
      <trkpt lat="46.06091" lon="4.78055">
        <ele>210</ele>
        <time>2018-06-05T09:42:17Z</time>
      </trkpt>
      <trkpt lat="46.06084" lon="4.78053">
        <ele>210</ele>
        <time>2018-06-05T09:42:18Z</time>
      </trkpt>
      <trkpt lat="46.06077" lon="4.78048">
        <ele>211</ele>
        <time>2018-06-05T09:42:20Z</time>
      </trkpt>
      <trkpt lat="46.06074" lon="4.78042">
        <ele>211</ele>
        <time>2018-06-05T09:42:21Z</time>
      </trkpt>
      <trkpt lat="46.0607" lon="4.78039">
        <ele>211</ele>
        <time>2018-06-05T09:42:22Z</time>
      </trkpt>
      <trkpt lat="46.06064" lon="4.78036">
        <ele>211</ele>
        <time>2018-06-05T09:42:23Z</time>
      </trkpt>
      <trkpt lat="46.0606" lon="4.78032">
        <ele>211</ele>
        <time>2018-06-05T09:42:24Z</time>
      </trkpt>
      <trkpt lat="46.06057" lon="4.78026">
        <ele>211</ele>
        <time>2018-06-05T09:42:25Z</time>
      </trkpt>
      <trkpt lat="46.06056" lon="4.78022">
        <ele>211</ele>
        <time>2018-06-05T09:42:26Z</time>
      </trkpt>
      <trkpt lat="46.0605" lon="4.78015">
        <ele>211</ele>
        <time>2018-06-05T09:42:27Z</time>
      </trkpt>
      <trkpt lat="46.06047" lon="4.78011">
        <ele>211</ele>
        <time>2018-06-05T09:42:28Z</time>
      </trkpt>
      <trkpt lat="46.06043" lon="4.78006">
        <ele>211</ele>
        <time>2018-06-05T09:42:29Z</time>
      </trkpt>
      <trkpt lat="46.06038" lon="4.78001">
        <ele>211</ele>
        <time>2018-06-05T09:42:30Z</time>
      </trkpt>
      <trkpt lat="46.06034" lon="4.77996">
        <ele>211</ele>
        <time>2018-06-05T09:42:31Z</time>
      </trkpt>
      <trkpt lat="46.06029" lon="4.77988">
        <ele>211</ele>
        <time>2018-06-05T09:42:33Z</time>
      </trkpt>
      <trkpt lat="46.06024" lon="4.77982">
        <ele>211</ele>
        <time>2018-06-05T09:42:34Z</time>
      </trkpt>
      <trkpt lat="46.06018" lon="4.77976">
        <ele>211</ele>
        <time>2018-06-05T09:42:36Z</time>
      </trkpt>
      <trkpt lat="46.06015" lon="4.77972">
        <ele>211</ele>
        <time>2018-06-05T09:42:37Z</time>
      </trkpt>
      <trkpt lat="46.06008" lon="4.77964">
        <ele>211</ele>
        <time>2018-06-05T09:42:39Z</time>
      </trkpt>
      <trkpt lat="46.06004" lon="4.77961">
        <ele>211</ele>
        <time>2018-06-05T09:42:40Z</time>
      </trkpt>
      <trkpt lat="46.05998" lon="4.77952">
        <ele>212</ele>
        <time>2018-06-05T09:42:42Z</time>
      </trkpt>
      <trkpt lat="46.05995" lon="4.77946">
        <ele>212</ele>
        <time>2018-06-05T09:42:43Z</time>
      </trkpt>
      <trkpt lat="46.05992" lon="4.7794">
        <ele>212</ele>
        <time>2018-06-05T09:42:44Z</time>
      </trkpt>
      <trkpt lat="46.0599" lon="4.77934">
        <ele>212</ele>
        <time>2018-06-05T09:42:45Z</time>
      </trkpt>
      <trkpt lat="46.05986" lon="4.77925">
        <ele>212</ele>
        <time>2018-06-05T09:42:47Z</time>
      </trkpt>
      <trkpt lat="46.05984" lon="4.77919">
        <ele>212</ele>
        <time>2018-06-05T09:42:48Z</time>
      </trkpt>
      <trkpt lat="46.05982" lon="4.77914">
        <ele>211</ele>
        <time>2018-06-05T09:42:49Z</time>
      </trkpt>
      <trkpt lat="46.0598" lon="4.77908">
        <ele>211</ele>
        <time>2018-06-05T09:42:50Z</time>
      </trkpt>
      <trkpt lat="46.05974" lon="4.77899">
        <ele>211</ele>
        <time>2018-06-05T09:42:52Z</time>
      </trkpt>
      <trkpt lat="46.05972" lon="4.77893">
        <ele>211</ele>
        <time>2018-06-05T09:42:53Z</time>
      </trkpt>
      <trkpt lat="46.05967" lon="4.77885">
        <ele>211</ele>
        <time>2018-06-05T09:42:55Z</time>
      </trkpt>
      <trkpt lat="46.05964" lon="4.7788">
        <ele>211</ele>
        <time>2018-06-05T09:42:56Z</time>
      </trkpt>
      <trkpt lat="46.0596" lon="4.77874">
        <ele>211</ele>
        <time>2018-06-05T09:42:57Z</time>
      </trkpt>
      <trkpt lat="46.05956" lon="4.7787">
        <ele>211</ele>
        <time>2018-06-05T09:42:58Z</time>
      </trkpt>
      <trkpt lat="46.05952" lon="4.77864">
        <ele>211</ele>
        <time>2018-06-05T09:42:59Z</time>
      </trkpt>
      <trkpt lat="46.05949" lon="4.77858">
        <ele>211</ele>
        <time>2018-06-05T09:43:00Z</time>
      </trkpt>
      <trkpt lat="46.05946" lon="4.77852">
        <ele>211</ele>
        <time>2018-06-05T09:43:01Z</time>
      </trkpt>
      <trkpt lat="46.05943" lon="4.77847">
        <ele>211</ele>
        <time>2018-06-05T09:43:02Z</time>
      </trkpt>
      <trkpt lat="46.05941" lon="4.77841">
        <ele>211</ele>
        <time>2018-06-05T09:43:03Z</time>
      </trkpt>
      <trkpt lat="46.05938" lon="4.77835">
        <ele>211</ele>
        <time>2018-06-05T09:43:04Z</time>
      </trkpt>
      <trkpt lat="46.05935" lon="4.77829">
        <ele>210</ele>
        <time>2018-06-05T09:43:05Z</time>
      </trkpt>
      <trkpt lat="46.05931" lon="4.77824">
        <ele>210</ele>
        <time>2018-06-05T09:43:06Z</time>
      </trkpt>
      <trkpt lat="46.05927" lon="4.77813">
        <ele>210</ele>
        <time>2018-06-05T09:43:08Z</time>
      </trkpt>
      <trkpt lat="46.05925" lon="4.77808">
        <ele>210</ele>
        <time>2018-06-05T09:43:09Z</time>
      </trkpt>
      <trkpt lat="46.05921" lon="4.77803">
        <ele>210</ele>
        <time>2018-06-05T09:43:10Z</time>
      </trkpt>
      <trkpt lat="46.05917" lon="4.77797">
        <ele>210</ele>
        <time>2018-06-05T09:43:11Z</time>
      </trkpt>
      <trkpt lat="46.05914" lon="4.77791">
        <ele>210</ele>
        <time>2018-06-05T09:43:12Z</time>
      </trkpt>
      <trkpt lat="46.05911" lon="4.77786">
        <ele>210</ele>
        <time>2018-06-05T09:43:13Z</time>
      </trkpt>
      <trkpt lat="46.05908" lon="4.7778">
        <ele>210</ele>
        <time>2018-06-05T09:43:14Z</time>
      </trkpt>
      <trkpt lat="46.05904" lon="4.77773">
        <ele>210</ele>
        <time>2018-06-05T09:43:15Z</time>
      </trkpt>
      <trkpt lat="46.05902" lon="4.77768">
        <ele>209</ele>
        <time>2018-06-05T09:43:16Z</time>
      </trkpt>
      <trkpt lat="46.05901" lon="4.7776">
        <ele>209</ele>
        <time>2018-06-05T09:43:17Z</time>
      </trkpt>
      <trkpt lat="46.05898" lon="4.77752">
        <ele>209</ele>
        <time>2018-06-05T09:43:18Z</time>
      </trkpt>
      <trkpt lat="46.05896" lon="4.77743">
        <ele>209</ele>
        <time>2018-06-05T09:43:19Z</time>
      </trkpt>
      <trkpt lat="46.05895" lon="4.77735">
        <ele>209</ele>
        <time>2018-06-05T09:43:20Z</time>
      </trkpt>
      <trkpt lat="46.05894" lon="4.77728">
        <ele>209</ele>
        <time>2018-06-05T09:43:21Z</time>
      </trkpt>
      <trkpt lat="46.05892" lon="4.77718">
        <ele>208</ele>
        <time>2018-06-05T09:43:22Z</time>
      </trkpt>
      <trkpt lat="46.05891" lon="4.7771">
        <ele>208</ele>
        <time>2018-06-05T09:43:23Z</time>
      </trkpt>
      <trkpt lat="46.0589" lon="4.77701">
        <ele>208</ele>
        <time>2018-06-05T09:43:24Z</time>
      </trkpt>
      <trkpt lat="46.05888" lon="4.77694">
        <ele>208</ele>
        <time>2018-06-05T09:43:25Z</time>
      </trkpt>
      <trkpt lat="46.05886" lon="4.77686">
        <ele>208</ele>
        <time>2018-06-05T09:43:26Z</time>
      </trkpt>
      <trkpt lat="46.05884" lon="4.77678">
        <ele>208</ele>
        <time>2018-06-05T09:43:27Z</time>
      </trkpt>
      <trkpt lat="46.05882" lon="4.77671">
        <ele>208</ele>
        <time>2018-06-05T09:43:28Z</time>
      </trkpt>
      <trkpt lat="46.05879" lon="4.77664">
        <ele>208</ele>
        <time>2018-06-05T09:43:29Z</time>
      </trkpt>
      <trkpt lat="46.05876" lon="4.77658">
        <ele>208</ele>
        <time>2018-06-05T09:43:30Z</time>
      </trkpt>
      <trkpt lat="46.05872" lon="4.77653">
        <ele>208</ele>
        <time>2018-06-05T09:43:31Z</time>
      </trkpt>
      <trkpt lat="46.05867" lon="4.77652">
        <ele>208</ele>
        <time>2018-06-05T09:43:32Z</time>
      </trkpt>
      <trkpt lat="46.05863" lon="4.77648">
        <ele>208</ele>
        <time>2018-06-05T09:43:33Z</time>
      </trkpt>
      <trkpt lat="46.05858" lon="4.77643">
        <ele>208</ele>
        <time>2018-06-05T09:43:34Z</time>
      </trkpt>
      <trkpt lat="46.05855" lon="4.77638">
        <ele>208</ele>
        <time>2018-06-05T09:43:35Z</time>
      </trkpt>
      <trkpt lat="46.0585" lon="4.77633">
        <ele>208</ele>
        <time>2018-06-05T09:43:36Z</time>
      </trkpt>
      <trkpt lat="46.05846" lon="4.77629">
        <ele>208</ele>
        <time>2018-06-05T09:43:37Z</time>
      </trkpt>
      <trkpt lat="46.05842" lon="4.77625">
        <ele>208</ele>
        <time>2018-06-05T09:43:38Z</time>
      </trkpt>
      <trkpt lat="46.05838" lon="4.7762">
        <ele>208</ele>
        <time>2018-06-05T09:43:39Z</time>
      </trkpt>
      <trkpt lat="46.05834" lon="4.77615">
        <ele>208</ele>
        <time>2018-06-05T09:43:40Z</time>
      </trkpt>
      <trkpt lat="46.05829" lon="4.7761">
        <ele>209</ele>
        <time>2018-06-05T09:43:41Z</time>
      </trkpt>
      <trkpt lat="46.05825" lon="4.77605">
        <ele>208</ele>
        <time>2018-06-05T09:43:42Z</time>
      </trkpt>
      <trkpt lat="46.0582" lon="4.776">
        <ele>208</ele>
        <time>2018-06-05T09:43:43Z</time>
      </trkpt>
      <trkpt lat="46.05815" lon="4.77595">
        <ele>208</ele>
        <time>2018-06-05T09:43:44Z</time>
      </trkpt>
      <trkpt lat="46.05811" lon="4.7759">
        <ele>208</ele>
        <time>2018-06-05T09:43:45Z</time>
      </trkpt>
      <trkpt lat="46.05805" lon="4.77582">
        <ele>208</ele>
        <time>2018-06-05T09:43:47Z</time>
      </trkpt>
      <trkpt lat="46.05801" lon="4.77579">
        <ele>208</ele>
        <time>2018-06-05T09:43:48Z</time>
      </trkpt>
      <trkpt lat="46.05798" lon="4.77574">
        <ele>208</ele>
        <time>2018-06-05T09:43:49Z</time>
      </trkpt>
      <trkpt lat="46.05795" lon="4.77568">
        <ele>208</ele>
        <time>2018-06-05T09:43:50Z</time>
      </trkpt>
      <trkpt lat="46.05792" lon="4.77563">
        <ele>208</ele>
        <time>2018-06-05T09:43:51Z</time>
      </trkpt>
      <trkpt lat="46.05789" lon="4.77557">
        <ele>208</ele>
        <time>2018-06-05T09:43:52Z</time>
      </trkpt>
      <trkpt lat="46.05783" lon="4.77553">
        <ele>208</ele>
        <time>2018-06-05T09:43:53Z</time>
      </trkpt>
      <trkpt lat="46.05778" lon="4.77548">
        <ele>208</ele>
        <time>2018-06-05T09:43:54Z</time>
      </trkpt>
      <trkpt lat="46.05775" lon="4.77542">
        <ele>208</ele>
        <time>2018-06-05T09:43:55Z</time>
      </trkpt>
      <trkpt lat="46.05771" lon="4.77536">
        <ele>208</ele>
        <time>2018-06-05T09:43:56Z</time>
      </trkpt>
      <trkpt lat="46.05768" lon="4.77529">
        <ele>208</ele>
        <time>2018-06-05T09:43:57Z</time>
      </trkpt>
      <trkpt lat="46.05765" lon="4.77524">
        <ele>208</ele>
        <time>2018-06-05T09:43:58Z</time>
      </trkpt>
      <trkpt lat="46.05762" lon="4.77519">
        <ele>208</ele>
        <time>2018-06-05T09:43:59Z</time>
      </trkpt>
      <trkpt lat="46.05759" lon="4.77514">
        <ele>208</ele>
        <time>2018-06-05T09:44:00Z</time>
      </trkpt>
      <trkpt lat="46.05753" lon="4.77504">
        <ele>208</ele>
        <time>2018-06-05T09:44:02Z</time>
      </trkpt>
      <trkpt lat="46.0575" lon="4.77499">
        <ele>208</ele>
        <time>2018-06-05T09:44:03Z</time>
      </trkpt>
      <trkpt lat="46.05746" lon="4.77493">
        <ele>208</ele>
        <time>2018-06-05T09:44:04Z</time>
      </trkpt>
      <trkpt lat="46.05742" lon="4.77487">
        <ele>207</ele>
        <time>2018-06-05T09:44:05Z</time>
      </trkpt>
      <trkpt lat="46.05737" lon="4.77482">
        <ele>207</ele>
        <time>2018-06-05T09:44:06Z</time>
      </trkpt>
      <trkpt lat="46.05733" lon="4.77475">
        <ele>207</ele>
        <time>2018-06-05T09:44:07Z</time>
      </trkpt>
      <trkpt lat="46.05728" lon="4.7747">
        <ele>207</ele>
        <time>2018-06-05T09:44:08Z</time>
      </trkpt>
      <trkpt lat="46.05724" lon="4.77465">
        <ele>207</ele>
        <time>2018-06-05T09:44:09Z</time>
      </trkpt>
      <trkpt lat="46.05719" lon="4.7746">
        <ele>207</ele>
        <time>2018-06-05T09:44:10Z</time>
      </trkpt>
      <trkpt lat="46.05714" lon="4.77456">
        <ele>207</ele>
        <time>2018-06-05T09:44:11Z</time>
      </trkpt>
      <trkpt lat="46.05708" lon="4.77455">
        <ele>207</ele>
        <time>2018-06-05T09:44:12Z</time>
      </trkpt>
      <trkpt lat="46.05704" lon="4.77451">
        <ele>207</ele>
        <time>2018-06-05T09:44:13Z</time>
      </trkpt>
      <trkpt lat="46.05699" lon="4.77446">
        <ele>207</ele>
        <time>2018-06-05T09:44:14Z</time>
      </trkpt>
      <trkpt lat="46.05694" lon="4.77442">
        <ele>206</ele>
        <time>2018-06-05T09:44:15Z</time>
      </trkpt>
      <trkpt lat="46.05689" lon="4.77438">
        <ele>206</ele>
        <time>2018-06-05T09:44:16Z</time>
      </trkpt>
      <trkpt lat="46.05683" lon="4.77433">
        <ele>206</ele>
        <time>2018-06-05T09:44:17Z</time>
      </trkpt>
      <trkpt lat="46.05678" lon="4.77427">
        <ele>206</ele>
        <time>2018-06-05T09:44:18Z</time>
      </trkpt>
      <trkpt lat="46.05672" lon="4.77421">
        <ele>205</ele>
        <time>2018-06-05T09:44:19Z</time>
      </trkpt>
      <trkpt lat="46.05667" lon="4.77415">
        <ele>205</ele>
        <time>2018-06-05T09:44:20Z</time>
      </trkpt>
      <trkpt lat="46.05662" lon="4.7741">
        <ele>204</ele>
        <time>2018-06-05T09:44:21Z</time>
      </trkpt>
      <trkpt lat="46.05654" lon="4.77404">
        <ele>204</ele>
        <time>2018-06-05T09:44:22Z</time>
      </trkpt>
      <trkpt lat="46.0565" lon="4.77398">
        <ele>204</ele>
        <time>2018-06-05T09:44:23Z</time>
      </trkpt>
      <trkpt lat="46.05644" lon="4.77392">
        <ele>203</ele>
        <time>2018-06-05T09:44:24Z</time>
      </trkpt>
      <trkpt lat="46.05637" lon="4.77386">
        <ele>203</ele>
        <time>2018-06-05T09:44:25Z</time>
      </trkpt>
      <trkpt lat="46.05631" lon="4.77381">
        <ele>203</ele>
        <time>2018-06-05T09:44:26Z</time>
      </trkpt>
      <trkpt lat="46.05624" lon="4.77376">
        <ele>203</ele>
        <time>2018-06-05T09:44:27Z</time>
      </trkpt>
      <trkpt lat="46.05617" lon="4.77371">
        <ele>203</ele>
        <time>2018-06-05T09:44:28Z</time>
      </trkpt>
      <trkpt lat="46.0561" lon="4.77367">
        <ele>202</ele>
        <time>2018-06-05T09:44:29Z</time>
      </trkpt>
      <trkpt lat="46.05604" lon="4.7736">
        <ele>202</ele>
        <time>2018-06-05T09:44:30Z</time>
      </trkpt>
      <trkpt lat="46.05596" lon="4.77356">
        <ele>202</ele>
        <time>2018-06-05T09:44:31Z</time>
      </trkpt>
      <trkpt lat="46.05589" lon="4.77352">
        <ele>201</ele>
        <time>2018-06-05T09:44:32Z</time>
      </trkpt>
      <trkpt lat="46.0558" lon="4.77348">
        <ele>201</ele>
        <time>2018-06-05T09:44:33Z</time>
      </trkpt>
      <trkpt lat="46.05574" lon="4.77344">
        <ele>201</ele>
        <time>2018-06-05T09:44:34Z</time>
      </trkpt>
      <trkpt lat="46.05567" lon="4.77339">
        <ele>201</ele>
        <time>2018-06-05T09:44:35Z</time>
      </trkpt>
      <trkpt lat="46.05558" lon="4.77337">
        <ele>201</ele>
        <time>2018-06-05T09:44:36Z</time>
      </trkpt>
      <trkpt lat="46.05551" lon="4.77332">
        <ele>200</ele>
        <time>2018-06-05T09:44:37Z</time>
      </trkpt>
      <trkpt lat="46.05544" lon="4.77328">
        <ele>200</ele>
        <time>2018-06-05T09:44:38Z</time>
      </trkpt>
      <trkpt lat="46.05537" lon="4.77323">
        <ele>200</ele>
        <time>2018-06-05T09:44:39Z</time>
      </trkpt>
      <trkpt lat="46.0553" lon="4.77319">
        <ele>200</ele>
        <time>2018-06-05T09:44:40Z</time>
      </trkpt>
      <trkpt lat="46.05523" lon="4.77313">
        <ele>200</ele>
        <time>2018-06-05T09:44:41Z</time>
      </trkpt>
      <trkpt lat="46.05517" lon="4.77311">
        <ele>200</ele>
        <time>2018-06-05T09:44:42Z</time>
      </trkpt>
      <trkpt lat="46.05511" lon="4.77307">
        <ele>200</ele>
        <time>2018-06-05T09:44:43Z</time>
      </trkpt>
      <trkpt lat="46.05504" lon="4.77303">
        <ele>200</ele>
        <time>2018-06-05T09:44:44Z</time>
      </trkpt>
      <trkpt lat="46.05497" lon="4.77299">
        <ele>201</ele>
        <time>2018-06-05T09:44:45Z</time>
      </trkpt>
      <trkpt lat="46.05491" lon="4.77295">
        <ele>201</ele>
        <time>2018-06-05T09:44:46Z</time>
      </trkpt>
      <trkpt lat="46.05485" lon="4.77291">
        <ele>201</ele>
        <time>2018-06-05T09:44:47Z</time>
      </trkpt>
      <trkpt lat="46.0548" lon="4.77287">
        <ele>201</ele>
        <time>2018-06-05T09:44:48Z</time>
      </trkpt>
      <trkpt lat="46.05475" lon="4.77285">
        <ele>201</ele>
        <time>2018-06-05T09:44:49Z</time>
      </trkpt>
      <trkpt lat="46.0547" lon="4.77282">
        <ele>201</ele>
        <time>2018-06-05T09:44:50Z</time>
      </trkpt>
      <trkpt lat="46.05465" lon="4.77279">
        <ele>201</ele>
        <time>2018-06-05T09:44:51Z</time>
      </trkpt>
      <trkpt lat="46.05461" lon="4.77276">
        <ele>201</ele>
        <time>2018-06-05T09:44:52Z</time>
      </trkpt>
      <trkpt lat="46.05457" lon="4.77272">
        <ele>201</ele>
        <time>2018-06-05T09:44:53Z</time>
      </trkpt>
      <trkpt lat="46.05453" lon="4.77269">
        <ele>201</ele>
        <time>2018-06-05T09:44:54Z</time>
      </trkpt>
      <trkpt lat="46.05446" lon="4.77269">
        <ele>201</ele>
        <time>2018-06-05T09:44:55Z</time>
      </trkpt>
      <trkpt lat="46.05441" lon="4.77267">
        <ele>201</ele>
        <time>2018-06-05T09:44:56Z</time>
      </trkpt>
      <trkpt lat="46.05435" lon="4.77264">
        <ele>201</ele>
        <time>2018-06-05T09:44:57Z</time>
      </trkpt>
      <trkpt lat="46.0543" lon="4.77263">
        <ele>201</ele>
        <time>2018-06-05T09:44:58Z</time>
      </trkpt>
      <trkpt lat="46.05423" lon="4.77259">
        <ele>201</ele>
        <time>2018-06-05T09:44:59Z</time>
      </trkpt>
      <trkpt lat="46.05417" lon="4.77257">
        <ele>201</ele>
        <time>2018-06-05T09:45:00Z</time>
      </trkpt>
      <trkpt lat="46.05411" lon="4.77256">
        <ele>202</ele>
        <time>2018-06-05T09:45:01Z</time>
      </trkpt>
      <trkpt lat="46.05406" lon="4.77253">
        <ele>202</ele>
        <time>2018-06-05T09:45:02Z</time>
      </trkpt>
      <trkpt lat="46.05402" lon="4.7725">
        <ele>202</ele>
        <time>2018-06-05T09:45:03Z</time>
      </trkpt>
      <trkpt lat="46.05394" lon="4.77245">
        <ele>202</ele>
        <time>2018-06-05T09:45:05Z</time>
      </trkpt>
      <trkpt lat="46.05389" lon="4.77244">
        <ele>202</ele>
        <time>2018-06-05T09:45:06Z</time>
      </trkpt>
      <trkpt lat="46.05381" lon="4.77239">
        <ele>203</ele>
        <time>2018-06-05T09:45:08Z</time>
      </trkpt>
      <trkpt lat="46.05376" lon="4.77237">
        <ele>203</ele>
        <time>2018-06-05T09:45:09Z</time>
      </trkpt>
      <trkpt lat="46.05372" lon="4.77234">
        <ele>203</ele>
        <time>2018-06-05T09:45:10Z</time>
      </trkpt>
      <trkpt lat="46.05367" lon="4.77232">
        <ele>203</ele>
        <time>2018-06-05T09:45:11Z</time>
      </trkpt>
      <trkpt lat="46.05361" lon="4.77224">
        <ele>203</ele>
        <time>2018-06-05T09:45:13Z</time>
      </trkpt>
      <trkpt lat="46.05358" lon="4.77222">
        <ele>203</ele>
        <time>2018-06-05T09:45:14Z</time>
      </trkpt>
      <trkpt lat="46.05354" lon="4.7722">
        <ele>203</ele>
        <time>2018-06-05T09:45:15Z</time>
      </trkpt>
      <trkpt lat="46.0535" lon="4.77216">
        <ele>203</ele>
        <time>2018-06-05T09:45:16Z</time>
      </trkpt>
      <trkpt lat="46.05346" lon="4.77213">
        <ele>203</ele>
        <time>2018-06-05T09:45:17Z</time>
      </trkpt>
      <trkpt lat="46.05341" lon="4.77211">
        <ele>203</ele>
        <time>2018-06-05T09:45:18Z</time>
      </trkpt>
      <trkpt lat="46.05338" lon="4.77206">
        <ele>203</ele>
        <time>2018-06-05T09:45:19Z</time>
      </trkpt>
      <trkpt lat="46.05335" lon="4.77202">
        <ele>203</ele>
        <time>2018-06-05T09:45:20Z</time>
      </trkpt>
      <trkpt lat="46.05327" lon="4.77197">
        <ele>205</ele>
        <time>2018-06-05T09:45:22Z</time>
      </trkpt>
      <trkpt lat="46.05323" lon="4.77194">
        <ele>205</ele>
        <time>2018-06-05T09:45:23Z</time>
      </trkpt>
      <trkpt lat="46.05319" lon="4.7719">
        <ele>205</ele>
        <time>2018-06-05T09:45:24Z</time>
      </trkpt>
      <trkpt lat="46.05315" lon="4.77185">
        <ele>205</ele>
        <time>2018-06-05T09:45:25Z</time>
      </trkpt>
      <trkpt lat="46.05309" lon="4.7718">
        <ele>205</ele>
        <time>2018-06-05T09:45:26Z</time>
      </trkpt>
      <trkpt lat="46.05305" lon="4.77176">
        <ele>205</ele>
        <time>2018-06-05T09:45:27Z</time>
      </trkpt>
      <trkpt lat="46.05301" lon="4.77173">
        <ele>205</ele>
        <time>2018-06-05T09:45:28Z</time>
      </trkpt>
      <trkpt lat="46.05296" lon="4.77171">
        <ele>205</ele>
        <time>2018-06-05T09:45:29Z</time>
      </trkpt>
      <trkpt lat="46.05293" lon="4.77167">
        <ele>205</ele>
        <time>2018-06-05T09:45:30Z</time>
      </trkpt>
      <trkpt lat="46.05288" lon="4.77163">
        <ele>204</ele>
        <time>2018-06-05T09:45:31Z</time>
      </trkpt>
      <trkpt lat="46.05285" lon="4.77155">
        <ele>204</ele>
        <time>2018-06-05T09:45:32Z</time>
      </trkpt>
      <trkpt lat="46.05281" lon="4.7715">
        <ele>204</ele>
        <time>2018-06-05T09:45:33Z</time>
      </trkpt>
      <trkpt lat="46.05274" lon="4.7715">
        <ele>204</ele>
        <time>2018-06-05T09:45:35Z</time>
      </trkpt>
      <trkpt lat="46.05269" lon="4.77141">
        <ele>204</ele>
        <time>2018-06-05T09:45:36Z</time>
      </trkpt>
      <trkpt lat="46.05266" lon="4.77137">
        <ele>204</ele>
        <time>2018-06-05T09:45:37Z</time>
      </trkpt>
      <trkpt lat="46.05261" lon="4.77131">
        <ele>204</ele>
        <time>2018-06-05T09:45:38Z</time>
      </trkpt>
      <trkpt lat="46.05256" lon="4.77124">
        <ele>204</ele>
        <time>2018-06-05T09:45:39Z</time>
      </trkpt>
      <trkpt lat="46.05251" lon="4.77121">
        <ele>204</ele>
        <time>2018-06-05T09:45:40Z</time>
      </trkpt>
      <trkpt lat="46.05243" lon="4.77113">
        <ele>203</ele>
        <time>2018-06-05T09:45:42Z</time>
      </trkpt>
      <trkpt lat="46.0524" lon="4.77107">
        <ele>203</ele>
        <time>2018-06-05T09:45:43Z</time>
      </trkpt>
      <trkpt lat="46.05236" lon="4.77103">
        <ele>203</ele>
        <time>2018-06-05T09:45:44Z</time>
      </trkpt>
      <trkpt lat="46.05235" lon="4.77094">
        <ele>203</ele>
        <time>2018-06-05T09:45:45Z</time>
      </trkpt>
      <trkpt lat="46.05233" lon="4.77089">
        <ele>203</ele>
        <time>2018-06-05T09:45:46Z</time>
      </trkpt>
      <trkpt lat="46.0523" lon="4.77081">
        <ele>202</ele>
        <time>2018-06-05T09:45:47Z</time>
      </trkpt>
      <trkpt lat="46.05227" lon="4.77074">
        <ele>201</ele>
        <time>2018-06-05T09:45:48Z</time>
      </trkpt>
      <trkpt lat="46.05225" lon="4.77067">
        <ele>201</ele>
        <time>2018-06-05T09:45:49Z</time>
      </trkpt>
      <trkpt lat="46.05223" lon="4.77058">
        <ele>201</ele>
        <time>2018-06-05T09:45:50Z</time>
      </trkpt>
      <trkpt lat="46.0522" lon="4.7705">
        <ele>201</ele>
        <time>2018-06-05T09:45:51Z</time>
      </trkpt>
      <trkpt lat="46.05216" lon="4.77043">
        <ele>201</ele>
        <time>2018-06-05T09:45:52Z</time>
      </trkpt>
      <trkpt lat="46.05213" lon="4.77034">
        <ele>200</ele>
        <time>2018-06-05T09:45:53Z</time>
      </trkpt>
      <trkpt lat="46.05209" lon="4.77026">
        <ele>200</ele>
        <time>2018-06-05T09:45:54Z</time>
      </trkpt>
      <trkpt lat="46.05207" lon="4.77017">
        <ele>200</ele>
        <time>2018-06-05T09:45:55Z</time>
      </trkpt>
      <trkpt lat="46.05203" lon="4.77011">
        <ele>200</ele>
        <time>2018-06-05T09:45:56Z</time>
      </trkpt>
      <trkpt lat="46.05199" lon="4.77002">
        <ele>200</ele>
        <time>2018-06-05T09:45:57Z</time>
      </trkpt>
      <trkpt lat="46.05196" lon="4.76993">
        <ele>198</ele>
        <time>2018-06-05T09:45:58Z</time>
      </trkpt>
      <trkpt lat="46.05191" lon="4.76985">
        <ele>198</ele>
        <time>2018-06-05T09:45:59Z</time>
      </trkpt>
      <trkpt lat="46.05188" lon="4.76976">
        <ele>198</ele>
        <time>2018-06-05T09:46:00Z</time>
      </trkpt>
      <trkpt lat="46.05185" lon="4.76967">
        <ele>198</ele>
        <time>2018-06-05T09:46:01Z</time>
      </trkpt>
      <trkpt lat="46.05183" lon="4.76958">
        <ele>198</ele>
        <time>2018-06-05T09:46:02Z</time>
      </trkpt>
      <trkpt lat="46.05178" lon="4.76949">
        <ele>197</ele>
        <time>2018-06-05T09:46:03Z</time>
      </trkpt>
      <trkpt lat="46.05174" lon="4.7694">
        <ele>197</ele>
        <time>2018-06-05T09:46:04Z</time>
      </trkpt>
      <trkpt lat="46.05169" lon="4.76932">
        <ele>197</ele>
        <time>2018-06-05T09:46:05Z</time>
      </trkpt>
      <trkpt lat="46.05164" lon="4.76924">
        <ele>196</ele>
        <time>2018-06-05T09:46:06Z</time>
      </trkpt>
      <trkpt lat="46.0516" lon="4.76915">
        <ele>196</ele>
        <time>2018-06-05T09:46:07Z</time>
      </trkpt>
      <trkpt lat="46.05156" lon="4.76906">
        <ele>195</ele>
        <time>2018-06-05T09:46:08Z</time>
      </trkpt>
      <trkpt lat="46.05152" lon="4.76897">
        <ele>195</ele>
        <time>2018-06-05T09:46:09Z</time>
      </trkpt>
      <trkpt lat="46.05148" lon="4.7689">
        <ele>195</ele>
        <time>2018-06-05T09:46:10Z</time>
      </trkpt>
      <trkpt lat="46.05145" lon="4.76883">
        <ele>195</ele>
        <time>2018-06-05T09:46:11Z</time>
      </trkpt>
      <trkpt lat="46.05141" lon="4.76875">
        <ele>195</ele>
        <time>2018-06-05T09:46:12Z</time>
      </trkpt>
      <trkpt lat="46.05137" lon="4.76866">
        <ele>195</ele>
        <time>2018-06-05T09:46:13Z</time>
      </trkpt>
      <trkpt lat="46.05132" lon="4.76858">
        <ele>195</ele>
        <time>2018-06-05T09:46:14Z</time>
      </trkpt>
      <trkpt lat="46.05129" lon="4.76849">
        <ele>195</ele>
        <time>2018-06-05T09:46:15Z</time>
      </trkpt>
      <trkpt lat="46.05127" lon="4.7684">
        <ele>195</ele>
        <time>2018-06-05T09:46:16Z</time>
      </trkpt>
      <trkpt lat="46.0512" lon="4.76831">
        <ele>194</ele>
        <time>2018-06-05T09:46:17Z</time>
      </trkpt>
      <trkpt lat="46.05115" lon="4.76822">
        <ele>194</ele>
        <time>2018-06-05T09:46:18Z</time>
      </trkpt>
      <trkpt lat="46.05115" lon="4.76814">
        <ele>194</ele>
        <time>2018-06-05T09:46:19Z</time>
      </trkpt>
      <trkpt lat="46.05111" lon="4.76806">
        <ele>194</ele>
        <time>2018-06-05T09:46:20Z</time>
      </trkpt>
      <trkpt lat="46.05109" lon="4.76798">
        <ele>194</ele>
        <time>2018-06-05T09:46:21Z</time>
      </trkpt>
      <trkpt lat="46.05106" lon="4.76787">
        <ele>194</ele>
        <time>2018-06-05T09:46:22Z</time>
      </trkpt>
      <trkpt lat="46.05104" lon="4.76778">
        <ele>194</ele>
        <time>2018-06-05T09:46:23Z</time>
      </trkpt>
      <trkpt lat="46.05101" lon="4.76769">
        <ele>194</ele>
        <time>2018-06-05T09:46:24Z</time>
      </trkpt>
      <trkpt lat="46.05101" lon="4.7676">
        <ele>194</ele>
        <time>2018-06-05T09:46:25Z</time>
      </trkpt>
      <trkpt lat="46.05099" lon="4.76752">
        <ele>194</ele>
        <time>2018-06-05T09:46:26Z</time>
      </trkpt>
      <trkpt lat="46.05096" lon="4.76743">
        <ele>193</ele>
        <time>2018-06-05T09:46:27Z</time>
      </trkpt>
      <trkpt lat="46.05095" lon="4.76734">
        <ele>193</ele>
        <time>2018-06-05T09:46:28Z</time>
      </trkpt>
      <trkpt lat="46.05091" lon="4.76725">
        <ele>193</ele>
        <time>2018-06-05T09:46:29Z</time>
      </trkpt>
      <trkpt lat="46.0509" lon="4.76716">
        <ele>193</ele>
        <time>2018-06-05T09:46:30Z</time>
      </trkpt>
      <trkpt lat="46.0509" lon="4.76708">
        <ele>193</ele>
        <time>2018-06-05T09:46:31Z</time>
      </trkpt>
      <trkpt lat="46.05089" lon="4.76701">
        <ele>193</ele>
        <time>2018-06-05T09:46:32Z</time>
      </trkpt>
      <trkpt lat="46.05087" lon="4.76692">
        <ele>193</ele>
        <time>2018-06-05T09:46:33Z</time>
      </trkpt>
      <trkpt lat="46.05086" lon="4.76683">
        <ele>193</ele>
        <time>2018-06-05T09:46:34Z</time>
      </trkpt>
      <trkpt lat="46.05085" lon="4.76675">
        <ele>193</ele>
        <time>2018-06-05T09:46:35Z</time>
      </trkpt>
      <trkpt lat="46.05084" lon="4.76666">
        <ele>193</ele>
        <time>2018-06-05T09:46:36Z</time>
      </trkpt>
      <trkpt lat="46.05084" lon="4.76657">
        <ele>192</ele>
        <time>2018-06-05T09:46:37Z</time>
      </trkpt>
      <trkpt lat="46.05084" lon="4.7665">
        <ele>192</ele>
        <time>2018-06-05T09:46:38Z</time>
      </trkpt>
      <trkpt lat="46.05086" lon="4.76643">
        <ele>191</ele>
        <time>2018-06-05T09:46:39Z</time>
      </trkpt>
      <trkpt lat="46.05084" lon="4.76631">
        <ele>191</ele>
        <time>2018-06-05T09:46:41Z</time>
      </trkpt>
      <trkpt lat="46.05084" lon="4.76628">
        <ele>191</ele>
        <time>2018-06-05T09:46:42Z</time>
      </trkpt>
      <trkpt lat="46.05085" lon="4.76618">
        <ele>190</ele>
        <time>2018-06-05T09:46:45Z</time>
      </trkpt>
      <trkpt lat="46.05084" lon="4.76615">
        <ele>190</ele>
        <time>2018-06-05T09:46:46Z</time>
      </trkpt>
      <trkpt lat="46.05082" lon="4.76611">
        <ele>191</ele>
        <time>2018-06-05T09:46:47Z</time>
      </trkpt>
      <trkpt lat="46.05075" lon="4.76603">
        <ele>191</ele>
        <time>2018-06-05T09:46:48Z</time>
      </trkpt>
      <trkpt lat="46.05069" lon="4.76598">
        <ele>191</ele>
        <time>2018-06-05T09:46:51Z</time>
      </trkpt>
      <trkpt lat="46.05062" lon="4.76594">
        <ele>191</ele>
        <time>2018-06-05T09:46:52Z</time>
      </trkpt>
      <trkpt lat="46.05056" lon="4.76587">
        <ele>191</ele>
        <time>2018-06-05T09:46:54Z</time>
      </trkpt>
      <trkpt lat="46.05051" lon="4.76581">
        <ele>190</ele>
        <time>2018-06-05T09:46:55Z</time>
      </trkpt>
      <trkpt lat="46.05046" lon="4.76578">
        <ele>190</ele>
        <time>2018-06-05T09:46:56Z</time>
      </trkpt>
      <trkpt lat="46.05042" lon="4.76575">
        <ele>190</ele>
        <time>2018-06-05T09:46:57Z</time>
      </trkpt>
      <trkpt lat="46.05038" lon="4.76572">
        <ele>190</ele>
        <time>2018-06-05T09:46:58Z</time>
      </trkpt>
      <trkpt lat="46.05033" lon="4.76569">
        <ele>190</ele>
        <time>2018-06-05T09:46:59Z</time>
      </trkpt>
      <trkpt lat="46.05027" lon="4.76567">
        <ele>190</ele>
        <time>2018-06-05T09:47:00Z</time>
      </trkpt>
      <trkpt lat="46.05022" lon="4.76565">
        <ele>190</ele>
        <time>2018-06-05T09:47:01Z</time>
      </trkpt>
      <trkpt lat="46.05015" lon="4.76559">
        <ele>190</ele>
        <time>2018-06-05T09:47:03Z</time>
      </trkpt>
      <trkpt lat="46.05011" lon="4.76555">
        <ele>190</ele>
        <time>2018-06-05T09:47:04Z</time>
      </trkpt>
      <trkpt lat="46.05007" lon="4.7655">
        <ele>190</ele>
        <time>2018-06-05T09:47:05Z</time>
      </trkpt>
      <trkpt lat="46.05005" lon="4.76546">
        <ele>190</ele>
        <time>2018-06-05T09:47:06Z</time>
      </trkpt>
      <trkpt lat="46.05002" lon="4.7654">
        <ele>190</ele>
        <time>2018-06-05T09:47:07Z</time>
      </trkpt>
      <trkpt lat="46.04999" lon="4.76534">
        <ele>191</ele>
        <time>2018-06-05T09:47:08Z</time>
      </trkpt>
      <trkpt lat="46.04993" lon="4.76529">
        <ele>191</ele>
        <time>2018-06-05T09:47:09Z</time>
      </trkpt>
      <trkpt lat="46.04993" lon="4.76522">
        <ele>191</ele>
        <time>2018-06-05T09:47:10Z</time>
      </trkpt>
      <trkpt lat="46.04988" lon="4.76512">
        <ele>191</ele>
        <time>2018-06-05T09:47:12Z</time>
      </trkpt>
      <trkpt lat="46.04986" lon="4.76507">
        <ele>191</ele>
        <time>2018-06-05T09:47:13Z</time>
      </trkpt>
      <trkpt lat="46.04982" lon="4.76496">
        <ele>190</ele>
        <time>2018-06-05T09:47:15Z</time>
      </trkpt>
      <trkpt lat="46.04981" lon="4.7649">
        <ele>190</ele>
        <time>2018-06-05T09:47:16Z</time>
      </trkpt>
      <trkpt lat="46.04978" lon="4.76478">
        <ele>191</ele>
        <time>2018-06-05T09:47:18Z</time>
      </trkpt>
      <trkpt lat="46.04975" lon="4.76472">
        <ele>191</ele>
        <time>2018-06-05T09:47:19Z</time>
      </trkpt>
      <trkpt lat="46.04972" lon="4.76465">
        <ele>191</ele>
        <time>2018-06-05T09:47:20Z</time>
      </trkpt>
      <trkpt lat="46.0497" lon="4.76458">
        <ele>191</ele>
        <time>2018-06-05T09:47:21Z</time>
      </trkpt>
      <trkpt lat="46.04968" lon="4.76452">
        <ele>190</ele>
        <time>2018-06-05T09:47:22Z</time>
      </trkpt>
      <trkpt lat="46.04964" lon="4.76446">
        <ele>190</ele>
        <time>2018-06-05T09:47:23Z</time>
      </trkpt>
      <trkpt lat="46.04962" lon="4.7644">
        <ele>191</ele>
        <time>2018-06-05T09:47:24Z</time>
      </trkpt>
      <trkpt lat="46.04958" lon="4.76435">
        <ele>191</ele>
        <time>2018-06-05T09:47:25Z</time>
      </trkpt>
      <trkpt lat="46.0495" lon="4.76431">
        <ele>191</ele>
        <time>2018-06-05T09:47:27Z</time>
      </trkpt>
      <trkpt lat="46.04946" lon="4.76431">
        <ele>191</ele>
        <time>2018-06-05T09:47:28Z</time>
      </trkpt>
      <trkpt lat="46.04937" lon="4.7643">
        <ele>191</ele>
        <time>2018-06-05T09:47:30Z</time>
      </trkpt>
      <trkpt lat="46.04932" lon="4.7643">
        <ele>191</ele>
        <time>2018-06-05T09:47:31Z</time>
      </trkpt>
      <trkpt lat="46.04927" lon="4.76433">
        <ele>191</ele>
        <time>2018-06-05T09:47:32Z</time>
      </trkpt>
      <trkpt lat="46.04922" lon="4.76434">
        <ele>191</ele>
        <time>2018-06-05T09:47:33Z</time>
      </trkpt>
      <trkpt lat="46.04914" lon="4.76437">
        <ele>193</ele>
        <time>2018-06-05T09:47:35Z</time>
      </trkpt>
      <trkpt lat="46.04911" lon="4.76439">
        <ele>193</ele>
        <time>2018-06-05T09:47:36Z</time>
      </trkpt>
      <trkpt lat="46.04904" lon="4.7644">
        <ele>193</ele>
        <time>2018-06-05T09:47:37Z</time>
      </trkpt>
      <trkpt lat="46.04898" lon="4.76442">
        <ele>193</ele>
        <time>2018-06-05T09:47:38Z</time>
      </trkpt>
      <trkpt lat="46.04892" lon="4.76441">
        <ele>193</ele>
        <time>2018-06-05T09:47:40Z</time>
      </trkpt>
      <trkpt lat="46.04888" lon="4.76441">
        <ele>193</ele>
        <time>2018-06-05T09:47:41Z</time>
      </trkpt>
      <trkpt lat="46.0488" lon="4.76444">
        <ele>193</ele>
        <time>2018-06-05T09:47:43Z</time>
      </trkpt>
      <trkpt lat="46.04875" lon="4.76445">
        <ele>193</ele>
        <time>2018-06-05T09:47:44Z</time>
      </trkpt>
      <trkpt lat="46.04868" lon="4.76445">
        <ele>193</ele>
        <time>2018-06-05T09:47:46Z</time>
      </trkpt>
      <trkpt lat="46.04865" lon="4.76443">
        <ele>193</ele>
        <time>2018-06-05T09:47:47Z</time>
      </trkpt>
      <trkpt lat="46.04858" lon="4.76443">
        <ele>193</ele>
        <time>2018-06-05T09:47:49Z</time>
      </trkpt>
      <trkpt lat="46.04855" lon="4.76443">
        <ele>193</ele>
        <time>2018-06-05T09:47:50Z</time>
      </trkpt>
      <trkpt lat="46.04846" lon="4.76443">
        <ele>194</ele>
        <time>2018-06-05T09:47:53Z</time>
      </trkpt>
      <trkpt lat="46.0484" lon="4.76442">
        <ele>194</ele>
        <time>2018-06-05T09:47:54Z</time>
      </trkpt>
      <trkpt lat="46.04835" lon="4.76442">
        <ele>194</ele>
        <time>2018-06-05T09:47:55Z</time>
      </trkpt>
      <trkpt lat="46.0483" lon="4.76442">
        <ele>193</ele>
        <time>2018-06-05T09:47:56Z</time>
      </trkpt>
      <trkpt lat="46.04826" lon="4.76442">
        <ele>193</ele>
        <time>2018-06-05T09:47:57Z</time>
      </trkpt>
      <trkpt lat="46.04821" lon="4.76443">
        <ele>193</ele>
        <time>2018-06-05T09:47:58Z</time>
      </trkpt>
      <trkpt lat="46.04813" lon="4.76441">
        <ele>193</ele>
        <time>2018-06-05T09:48:00Z</time>
      </trkpt>
      <trkpt lat="46.0481" lon="4.76441">
        <ele>193</ele>
        <time>2018-06-05T09:48:01Z</time>
      </trkpt>
      <trkpt lat="46.04804" lon="4.76441">
        <ele>193</ele>
        <time>2018-06-05T09:48:02Z</time>
      </trkpt>
      <trkpt lat="46.04797" lon="4.76441">
        <ele>193</ele>
        <time>2018-06-05T09:48:03Z</time>
      </trkpt>
      <trkpt lat="46.04789" lon="4.76444">
        <ele>192</ele>
        <time>2018-06-05T09:48:04Z</time>
      </trkpt>
      <trkpt lat="46.04785" lon="4.76448">
        <ele>192</ele>
        <time>2018-06-05T09:48:05Z</time>
      </trkpt>
      <trkpt lat="46.04778" lon="4.76451">
        <ele>192</ele>
        <time>2018-06-05T09:48:06Z</time>
      </trkpt>
      <trkpt lat="46.04772" lon="4.76457">
        <ele>192</ele>
        <time>2018-06-05T09:48:07Z</time>
      </trkpt>
      <trkpt lat="46.04769" lon="4.76463">
        <ele>192</ele>
        <time>2018-06-05T09:48:08Z</time>
      </trkpt>
      <trkpt lat="46.04763" lon="4.76464">
        <ele>192</ele>
        <time>2018-06-05T09:48:09Z</time>
      </trkpt>
      <trkpt lat="46.04758" lon="4.76471">
        <ele>192</ele>
        <time>2018-06-05T09:48:11Z</time>
      </trkpt>
      <trkpt lat="46.04748" lon="4.76473">
        <ele>190</ele>
        <time>2018-06-05T09:48:12Z</time>
      </trkpt>
      <trkpt lat="46.04739" lon="4.76476">
        <ele>190</ele>
        <time>2018-06-05T09:48:13Z</time>
      </trkpt>
      <trkpt lat="46.04737" lon="4.76484">
        <ele>190</ele>
        <time>2018-06-05T09:48:14Z</time>
      </trkpt>
      <trkpt lat="46.04731" lon="4.76481">
        <ele>189</ele>
        <time>2018-06-05T09:48:15Z</time>
      </trkpt>
      <trkpt lat="46.04724" lon="4.76479">
        <ele>189</ele>
        <time>2018-06-05T09:48:16Z</time>
      </trkpt>
      <trkpt lat="46.04719" lon="4.76477">
        <ele>189</ele>
        <time>2018-06-05T09:48:17Z</time>
      </trkpt>
      <trkpt lat="46.04713" lon="4.76478">
        <ele>189</ele>
        <time>2018-06-05T09:48:18Z</time>
      </trkpt>
      <trkpt lat="46.04709" lon="4.76483">
        <ele>189</ele>
        <time>2018-06-05T09:48:19Z</time>
      </trkpt>
      <trkpt lat="46.04703" lon="4.76486">
        <ele>188</ele>
        <time>2018-06-05T09:48:20Z</time>
      </trkpt>
      <trkpt lat="46.04695" lon="4.76489">
        <ele>188</ele>
        <time>2018-06-05T09:48:22Z</time>
      </trkpt>
      <trkpt lat="46.04693" lon="4.7649">
        <ele>188</ele>
        <time>2018-06-05T09:48:23Z</time>
      </trkpt>
      <trkpt lat="46.04687" lon="4.76495">
        <ele>188</ele>
        <time>2018-06-05T09:48:37Z</time>
      </trkpt>
      <trkpt lat="46.04687" lon="4.76495">
        <ele>188</ele>
        <time>2018-06-05T09:48:38Z</time>
      </trkpt>
      <trkpt lat="46.04687" lon="4.76496">
        <ele>188</ele>
        <time>2018-06-05T09:48:41Z</time>
      </trkpt>
      <trkpt lat="46.04687" lon="4.76496">
        <ele>188</ele>
        <time>2018-06-05T09:48:42Z</time>
      </trkpt>
      <trkpt lat="46.04681" lon="4.76498">
        <ele>187</ele>
        <time>2018-06-05T09:48:47Z</time>
      </trkpt>
      <trkpt lat="46.04675" lon="4.76502">
        <ele>187</ele>
        <time>2018-06-05T09:48:48Z</time>
      </trkpt>
      <trkpt lat="46.04669" lon="4.76508">
        <ele>186</ele>
        <time>2018-06-05T09:48:50Z</time>
      </trkpt>
      <trkpt lat="46.04664" lon="4.7651">
        <ele>186</ele>
        <time>2018-06-05T09:48:51Z</time>
      </trkpt>
      <trkpt lat="46.0466" lon="4.76511">
        <ele>186</ele>
        <time>2018-06-05T09:48:52Z</time>
      </trkpt>
      <trkpt lat="46.04653" lon="4.76511">
        <ele>186</ele>
        <time>2018-06-05T09:48:53Z</time>
      </trkpt>
      <trkpt lat="46.04647" lon="4.76512">
        <ele>186</ele>
        <time>2018-06-05T09:48:54Z</time>
      </trkpt>
      <trkpt lat="46.04641" lon="4.76512">
        <ele>186</ele>
        <time>2018-06-05T09:48:55Z</time>
      </trkpt>
      <trkpt lat="46.04637" lon="4.76519">
        <ele>186</ele>
        <time>2018-06-05T09:48:56Z</time>
      </trkpt>
      <trkpt lat="46.04631" lon="4.76519">
        <ele>186</ele>
        <time>2018-06-05T09:48:57Z</time>
      </trkpt>
      <trkpt lat="46.04626" lon="4.76522">
        <ele>186</ele>
        <time>2018-06-05T09:48:58Z</time>
      </trkpt>
      <trkpt lat="46.04621" lon="4.76522">
        <ele>186</ele>
        <time>2018-06-05T09:48:59Z</time>
      </trkpt>
      <trkpt lat="46.04614" lon="4.76525">
        <ele>186</ele>
        <time>2018-06-05T09:49:01Z</time>
      </trkpt>
      <trkpt lat="46.04608" lon="4.76525">
        <ele>186</ele>
        <time>2018-06-05T09:49:02Z</time>
      </trkpt>
      <trkpt lat="46.04601" lon="4.76527">
        <ele>186</ele>
        <time>2018-06-05T09:49:04Z</time>
      </trkpt>
      <trkpt lat="46.04597" lon="4.7653">
        <ele>186</ele>
        <time>2018-06-05T09:49:05Z</time>
      </trkpt>
      <trkpt lat="46.04589" lon="4.76533">
        <ele>186</ele>
        <time>2018-06-05T09:49:06Z</time>
      </trkpt>
      <trkpt lat="46.04584" lon="4.76535">
        <ele>186</ele>
        <time>2018-06-05T09:49:07Z</time>
      </trkpt>
      <trkpt lat="46.04579" lon="4.76537">
        <ele>187</ele>
        <time>2018-06-05T09:49:08Z</time>
      </trkpt>
      <trkpt lat="46.04571" lon="4.76539">
        <ele>187</ele>
        <time>2018-06-05T09:49:09Z</time>
      </trkpt>
      <trkpt lat="46.04565" lon="4.76542">
        <ele>187</ele>
        <time>2018-06-05T09:49:10Z</time>
      </trkpt>
      <trkpt lat="46.0456" lon="4.76545">
        <ele>188</ele>
        <time>2018-06-05T09:49:11Z</time>
      </trkpt>
      <trkpt lat="46.04554" lon="4.76546">
        <ele>188</ele>
        <time>2018-06-05T09:49:12Z</time>
      </trkpt>
      <trkpt lat="46.04548" lon="4.76549">
        <ele>188</ele>
        <time>2018-06-05T09:49:13Z</time>
      </trkpt>
      <trkpt lat="46.04539" lon="4.76552">
        <ele>188</ele>
        <time>2018-06-05T09:49:15Z</time>
      </trkpt>
      <trkpt lat="46.04535" lon="4.76552">
        <ele>188</ele>
        <time>2018-06-05T09:49:16Z</time>
      </trkpt>
      <trkpt lat="46.04528" lon="4.76552">
        <ele>188</ele>
        <time>2018-06-05T09:49:18Z</time>
      </trkpt>
      <trkpt lat="46.04522" lon="4.76555">
        <ele>189</ele>
        <time>2018-06-05T09:49:19Z</time>
      </trkpt>
      <trkpt lat="46.04515" lon="4.76557">
        <ele>189</ele>
        <time>2018-06-05T09:49:21Z</time>
      </trkpt>
      <trkpt lat="46.04513" lon="4.76558">
        <ele>189</ele>
        <time>2018-06-05T09:49:22Z</time>
      </trkpt>
      <trkpt lat="46.04504" lon="4.76559">
        <ele>189</ele>
        <time>2018-06-05T09:49:25Z</time>
      </trkpt>
      <trkpt lat="46.04503" lon="4.76558">
        <ele>189</ele>
        <time>2018-06-05T09:49:26Z</time>
      </trkpt>
      <trkpt lat="46.04494" lon="4.76558">
        <ele>192</ele>
        <time>2018-06-05T09:49:30Z</time>
      </trkpt>
      <trkpt lat="46.04493" lon="4.76559">
        <ele>192</ele>
        <time>2018-06-05T09:49:31Z</time>
      </trkpt>
      <trkpt lat="46.04486" lon="4.7656">
        <ele>193</ele>
        <time>2018-06-05T09:49:33Z</time>
      </trkpt>
      <trkpt lat="46.04483" lon="4.7656">
        <ele>193</ele>
        <time>2018-06-05T09:49:34Z</time>
      </trkpt>
      <trkpt lat="46.04473" lon="4.7656">
        <ele>193</ele>
        <time>2018-06-05T09:49:35Z</time>
      </trkpt>
      <trkpt lat="46.04465" lon="4.76559">
        <ele>193</ele>
        <time>2018-06-05T09:49:37Z</time>
      </trkpt>
      <trkpt lat="46.0446" lon="4.76558">
        <ele>194</ele>
        <time>2018-06-05T09:49:38Z</time>
      </trkpt>
      <trkpt lat="46.04453" lon="4.76558">
        <ele>194</ele>
        <time>2018-06-05T09:49:40Z</time>
      </trkpt>
      <trkpt lat="46.04442" lon="4.76561">
        <ele>195</ele>
        <time>2018-06-05T09:49:41Z</time>
      </trkpt>
      <trkpt lat="46.04435" lon="4.76562">
        <ele>195</ele>
        <time>2018-06-05T09:49:45Z</time>
      </trkpt>
      <trkpt lat="46.04422" lon="4.76565">
        <ele>196</ele>
        <time>2018-06-05T09:49:46Z</time>
      </trkpt>
      <trkpt lat="46.04415" lon="4.76565">
        <ele>198</ele>
        <time>2018-06-05T09:49:48Z</time>
      </trkpt>
      <trkpt lat="46.04409" lon="4.76566">
        <ele>198</ele>
        <time>2018-06-05T09:49:49Z</time>
      </trkpt>
      <trkpt lat="46.04402" lon="4.76567">
        <ele>198</ele>
        <time>2018-06-05T09:49:50Z</time>
      </trkpt>
      <trkpt lat="46.04398" lon="4.76565">
        <ele>197</ele>
        <time>2018-06-05T09:49:51Z</time>
      </trkpt>
      <trkpt lat="46.04393" lon="4.76564">
        <ele>197</ele>
        <time>2018-06-05T09:49:52Z</time>
      </trkpt>
      <trkpt lat="46.04388" lon="4.76563">
        <ele>197</ele>
        <time>2018-06-05T09:49:53Z</time>
      </trkpt>
      <trkpt lat="46.0438" lon="4.76563">
        <ele>197</ele>
        <time>2018-06-05T09:49:55Z</time>
      </trkpt>
      <trkpt lat="46.04377" lon="4.76565">
        <ele>197</ele>
        <time>2018-06-05T09:49:56Z</time>
      </trkpt>
      <trkpt lat="46.04372" lon="4.76566">
        <ele>197</ele>
        <time>2018-06-05T09:49:58Z</time>
      </trkpt>
      <trkpt lat="46.04362" lon="4.76567">
        <ele>197</ele>
        <time>2018-06-05T09:49:59Z</time>
      </trkpt>
      <trkpt lat="46.04355" lon="4.76568">
        <ele>197</ele>
        <time>2018-06-05T09:50:01Z</time>
      </trkpt>
      <trkpt lat="46.04345" lon="4.76572">
        <ele>198</ele>
        <time>2018-06-05T09:50:02Z</time>
      </trkpt>
      <trkpt lat="46.0434" lon="4.76572">
        <ele>198</ele>
        <time>2018-06-05T09:50:05Z</time>
      </trkpt>
      <trkpt lat="46.04334" lon="4.76573">
        <ele>198</ele>
        <time>2018-06-05T09:50:06Z</time>
      </trkpt>
      <trkpt lat="46.04329" lon="4.76573">
        <ele>198</ele>
        <time>2018-06-05T09:50:07Z</time>
      </trkpt>
      <trkpt lat="46.04323" lon="4.76574">
        <ele>198</ele>
        <time>2018-06-05T09:50:08Z</time>
      </trkpt>
      <trkpt lat="46.04316" lon="4.76574">
        <ele>197</ele>
        <time>2018-06-05T09:50:10Z</time>
      </trkpt>
      <trkpt lat="46.04311" lon="4.76575">
        <ele>197</ele>
        <time>2018-06-05T09:50:11Z</time>
      </trkpt>
      <trkpt lat="46.04307" lon="4.76575">
        <ele>197</ele>
        <time>2018-06-05T09:50:12Z</time>
      </trkpt>
      <trkpt lat="46.04302" lon="4.76576">
        <ele>197</ele>
        <time>2018-06-05T09:50:13Z</time>
      </trkpt>
      <trkpt lat="46.04294" lon="4.76577">
        <ele>197</ele>
        <time>2018-06-05T09:50:15Z</time>
      </trkpt>
      <trkpt lat="46.04288" lon="4.76579">
        <ele>197</ele>
        <time>2018-06-05T09:50:16Z</time>
      </trkpt>
      <trkpt lat="46.0428" lon="4.76579">
        <ele>197</ele>
        <time>2018-06-05T09:50:18Z</time>
      </trkpt>
      <trkpt lat="46.04279" lon="4.7658">
        <ele>197</ele>
        <time>2018-06-05T09:50:19Z</time>
      </trkpt>
      <trkpt lat="46.04274" lon="4.7658">
        <ele>197</ele>
        <time>2018-06-05T09:50:22Z</time>
      </trkpt>
      <trkpt lat="46.04264" lon="4.76582">
        <ele>197</ele>
        <time>2018-06-05T09:50:23Z</time>
      </trkpt>
      <trkpt lat="46.04258" lon="4.76582">
        <ele>197</ele>
        <time>2018-06-05T09:50:26Z</time>
      </trkpt>
      <trkpt lat="46.0425" lon="4.76583">
        <ele>197</ele>
        <time>2018-06-05T09:50:27Z</time>
      </trkpt>
      <trkpt lat="46.04245" lon="4.76584">
        <ele>197</ele>
        <time>2018-06-05T09:50:28Z</time>
      </trkpt>
      <trkpt lat="46.04241" lon="4.76585">
        <ele>197</ele>
        <time>2018-06-05T09:50:29Z</time>
      </trkpt>
      <trkpt lat="46.04236" lon="4.76585">
        <ele>197</ele>
        <time>2018-06-05T09:50:30Z</time>
      </trkpt>
      <trkpt lat="46.04232" lon="4.76586">
        <ele>198</ele>
        <time>2018-06-05T09:50:31Z</time>
      </trkpt>
      <trkpt lat="46.04227" lon="4.76586">
        <ele>198</ele>
        <time>2018-06-05T09:50:32Z</time>
      </trkpt>
      <trkpt lat="46.04223" lon="4.76586">
        <ele>198</ele>
        <time>2018-06-05T09:50:33Z</time>
      </trkpt>
      <trkpt lat="46.04218" lon="4.76587">
        <ele>198</ele>
        <time>2018-06-05T09:50:34Z</time>
      </trkpt>
      <trkpt lat="46.04213" lon="4.76588">
        <ele>198</ele>
        <time>2018-06-05T09:50:35Z</time>
      </trkpt>
      <trkpt lat="46.04209" lon="4.76589">
        <ele>198</ele>
        <time>2018-06-05T09:50:36Z</time>
      </trkpt>
      <trkpt lat="46.04204" lon="4.7659">
        <ele>198</ele>
        <time>2018-06-05T09:50:37Z</time>
      </trkpt>
      <trkpt lat="46.04198" lon="4.76593">
        <ele>198</ele>
        <time>2018-06-05T09:50:39Z</time>
      </trkpt>
      <trkpt lat="46.04193" lon="4.76596">
        <ele>198</ele>
        <time>2018-06-05T09:50:40Z</time>
      </trkpt>
      <trkpt lat="46.04186" lon="4.766">
        <ele>198</ele>
        <time>2018-06-05T09:50:42Z</time>
      </trkpt>
      <trkpt lat="46.04184" lon="4.76602">
        <ele>198</ele>
        <time>2018-06-05T09:50:43Z</time>
      </trkpt>
      <trkpt lat="46.0418" lon="4.76606">
        <ele>198</ele>
        <time>2018-06-05T09:50:44Z</time>
      </trkpt>
      <trkpt lat="46.04176" lon="4.76609">
        <ele>198</ele>
        <time>2018-06-05T09:50:45Z</time>
      </trkpt>
      <trkpt lat="46.04169" lon="4.76616">
        <ele>198</ele>
        <time>2018-06-05T09:50:47Z</time>
      </trkpt>
      <trkpt lat="46.04165" lon="4.76619">
        <ele>199</ele>
        <time>2018-06-05T09:50:48Z</time>
      </trkpt>
      <trkpt lat="46.04158" lon="4.76625">
        <ele>199</ele>
        <time>2018-06-05T09:50:50Z</time>
      </trkpt>
      <trkpt lat="46.04154" lon="4.76628">
        <ele>200</ele>
        <time>2018-06-05T09:50:51Z</time>
      </trkpt>
      <trkpt lat="46.04146" lon="4.76634">
        <ele>200</ele>
        <time>2018-06-05T09:50:53Z</time>
      </trkpt>
      <trkpt lat="46.04142" lon="4.76637">
        <ele>200</ele>
        <time>2018-06-05T09:50:54Z</time>
      </trkpt>
      <trkpt lat="46.04135" lon="4.76641">
        <ele>200</ele>
        <time>2018-06-05T09:50:56Z</time>
      </trkpt>
      <trkpt lat="46.04131" lon="4.76642">
        <ele>200</ele>
        <time>2018-06-05T09:50:57Z</time>
      </trkpt>
      <trkpt lat="46.04126" lon="4.76644">
        <ele>200</ele>
        <time>2018-06-05T09:50:59Z</time>
      </trkpt>
      <trkpt lat="46.0412" lon="4.76645">
        <ele>200</ele>
        <time>2018-06-05T09:51:00Z</time>
      </trkpt>
      <trkpt lat="46.04111" lon="4.76646">
        <ele>200</ele>
        <time>2018-06-05T09:51:02Z</time>
      </trkpt>
      <trkpt lat="46.04107" lon="4.76646">
        <ele>200</ele>
        <time>2018-06-05T09:51:03Z</time>
      </trkpt>
      <trkpt lat="46.04099" lon="4.76648">
        <ele>201</ele>
        <time>2018-06-05T09:51:05Z</time>
      </trkpt>
      <trkpt lat="46.04095" lon="4.76649">
        <ele>201</ele>
        <time>2018-06-05T09:51:06Z</time>
      </trkpt>
      <trkpt lat="46.04088" lon="4.7665">
        <ele>201</ele>
        <time>2018-06-05T09:51:08Z</time>
      </trkpt>
      <trkpt lat="46.04084" lon="4.7665">
        <ele>201</ele>
        <time>2018-06-05T09:51:09Z</time>
      </trkpt>
      <trkpt lat="46.04079" lon="4.7665">
        <ele>201</ele>
        <time>2018-06-05T09:51:10Z</time>
      </trkpt>
      <trkpt lat="46.04072" lon="4.76652">
        <ele>201</ele>
        <time>2018-06-05T09:51:11Z</time>
      </trkpt>
      <trkpt lat="46.04065" lon="4.76652">
        <ele>201</ele>
        <time>2018-06-05T09:51:15Z</time>
      </trkpt>
      <trkpt lat="46.04055" lon="4.76655">
        <ele>201</ele>
        <time>2018-06-05T09:51:16Z</time>
      </trkpt>
      <trkpt lat="46.0405" lon="4.76657">
        <ele>201</ele>
        <time>2018-06-05T09:51:17Z</time>
      </trkpt>
      <trkpt lat="46.04046" lon="4.76659">
        <ele>201</ele>
        <time>2018-06-05T09:51:18Z</time>
      </trkpt>
      <trkpt lat="46.04037" lon="4.7666">
        <ele>201</ele>
        <time>2018-06-05T09:51:20Z</time>
      </trkpt>
      <trkpt lat="46.04033" lon="4.76663">
        <ele>201</ele>
        <time>2018-06-05T09:51:21Z</time>
      </trkpt>
      <trkpt lat="46.04025" lon="4.76664">
        <ele>201</ele>
        <time>2018-06-05T09:51:23Z</time>
      </trkpt>
      <trkpt lat="46.0402" lon="4.76665">
        <ele>201</ele>
        <time>2018-06-05T09:51:24Z</time>
      </trkpt>
      <trkpt lat="46.04016" lon="4.76668">
        <ele>202</ele>
        <time>2018-06-05T09:51:25Z</time>
      </trkpt>
      <trkpt lat="46.04012" lon="4.76669">
        <ele>202</ele>
        <time>2018-06-05T09:51:26Z</time>
      </trkpt>
      <trkpt lat="46.04003" lon="4.76669">
        <ele>202</ele>
        <time>2018-06-05T09:51:28Z</time>
      </trkpt>
      <trkpt lat="46.03999" lon="4.76669">
        <ele>202</ele>
        <time>2018-06-05T09:51:29Z</time>
      </trkpt>
      <trkpt lat="46.03994" lon="4.7667">
        <ele>202</ele>
        <time>2018-06-05T09:51:30Z</time>
      </trkpt>
      <trkpt lat="46.03989" lon="4.76671">
        <ele>203</ele>
        <time>2018-06-05T09:51:31Z</time>
      </trkpt>
      <trkpt lat="46.0398" lon="4.76673">
        <ele>203</ele>
        <time>2018-06-05T09:51:33Z</time>
      </trkpt>
      <trkpt lat="46.03976" lon="4.76673">
        <ele>203</ele>
        <time>2018-06-05T09:51:34Z</time>
      </trkpt>
      <trkpt lat="46.03967" lon="4.76675">
        <ele>203</ele>
        <time>2018-06-05T09:51:36Z</time>
      </trkpt>
      <trkpt lat="46.03962" lon="4.76677">
        <ele>203</ele>
        <time>2018-06-05T09:51:37Z</time>
      </trkpt>
      <trkpt lat="46.03954" lon="4.76681">
        <ele>204</ele>
        <time>2018-06-05T09:51:39Z</time>
      </trkpt>
      <trkpt lat="46.03949" lon="4.76681">
        <ele>204</ele>
        <time>2018-06-05T09:51:40Z</time>
      </trkpt>
      <trkpt lat="46.03944" lon="4.76685">
        <ele>204</ele>
        <time>2018-06-05T09:51:41Z</time>
      </trkpt>
      <trkpt lat="46.03939" lon="4.76685">
        <ele>204</ele>
        <time>2018-06-05T09:51:42Z</time>
      </trkpt>
      <trkpt lat="46.03931" lon="4.76689">
        <ele>204</ele>
        <time>2018-06-05T09:51:44Z</time>
      </trkpt>
      <trkpt lat="46.03927" lon="4.76689">
        <ele>204</ele>
        <time>2018-06-05T09:51:45Z</time>
      </trkpt>
      <trkpt lat="46.03918" lon="4.7669">
        <ele>204</ele>
        <time>2018-06-05T09:51:47Z</time>
      </trkpt>
      <trkpt lat="46.03913" lon="4.76693">
        <ele>205</ele>
        <time>2018-06-05T09:51:48Z</time>
      </trkpt>
      <trkpt lat="46.03909" lon="4.76694">
        <ele>205</ele>
        <time>2018-06-05T09:51:49Z</time>
      </trkpt>
      <trkpt lat="46.03904" lon="4.76696">
        <ele>205</ele>
        <time>2018-06-05T09:51:50Z</time>
      </trkpt>
      <trkpt lat="46.03899" lon="4.76697">
        <ele>205</ele>
        <time>2018-06-05T09:51:51Z</time>
      </trkpt>
      <trkpt lat="46.03893" lon="4.76698">
        <ele>205</ele>
        <time>2018-06-05T09:51:52Z</time>
      </trkpt>
      <trkpt lat="46.03884" lon="4.76699">
        <ele>205</ele>
        <time>2018-06-05T09:51:54Z</time>
      </trkpt>
      <trkpt lat="46.03879" lon="4.767">
        <ele>205</ele>
        <time>2018-06-05T09:51:55Z</time>
      </trkpt>
      <trkpt lat="46.03871" lon="4.76703">
        <ele>205</ele>
        <time>2018-06-05T09:51:57Z</time>
      </trkpt>
      <trkpt lat="46.03867" lon="4.76705">
        <ele>205</ele>
        <time>2018-06-05T09:51:58Z</time>
      </trkpt>
      <trkpt lat="46.03863" lon="4.76706">
        <ele>205</ele>
        <time>2018-06-05T09:51:59Z</time>
      </trkpt>
      <trkpt lat="46.03858" lon="4.76707">
        <ele>205</ele>
        <time>2018-06-05T09:52:00Z</time>
      </trkpt>
      <trkpt lat="46.0385" lon="4.7671">
        <ele>205</ele>
        <time>2018-06-05T09:52:02Z</time>
      </trkpt>
      <trkpt lat="46.03849" lon="4.7671">
        <ele>205</ele>
        <time>2018-06-05T09:52:03Z</time>
      </trkpt>
      <trkpt lat="46.03841" lon="4.76713">
        <ele>205</ele>
        <time>2018-06-05T09:52:05Z</time>
      </trkpt>
      <trkpt lat="46.03838" lon="4.76713">
        <ele>205</ele>
        <time>2018-06-05T09:52:06Z</time>
      </trkpt>
      <trkpt lat="46.03833" lon="4.76712">
        <ele>205</ele>
        <time>2018-06-05T09:52:07Z</time>
      </trkpt>
      <trkpt lat="46.03828" lon="4.76713">
        <ele>205</ele>
        <time>2018-06-05T09:52:08Z</time>
      </trkpt>
      <trkpt lat="46.03823" lon="4.76712">
        <ele>205</ele>
        <time>2018-06-05T09:52:09Z</time>
      </trkpt>
      <trkpt lat="46.03819" lon="4.76714">
        <ele>205</ele>
        <time>2018-06-05T09:52:10Z</time>
      </trkpt>
      <trkpt lat="46.03814" lon="4.76715">
        <ele>205</ele>
        <time>2018-06-05T09:52:11Z</time>
      </trkpt>
      <trkpt lat="46.03809" lon="4.76715">
        <ele>205</ele>
        <time>2018-06-05T09:52:12Z</time>
      </trkpt>
      <trkpt lat="46.03803" lon="4.76715">
        <ele>205</ele>
        <time>2018-06-05T09:52:13Z</time>
      </trkpt>
      <trkpt lat="46.03799" lon="4.76713">
        <ele>205</ele>
        <time>2018-06-05T09:52:14Z</time>
      </trkpt>
      <trkpt lat="46.03792" lon="4.76713">
        <ele>205</ele>
        <time>2018-06-05T09:52:15Z</time>
      </trkpt>
      <trkpt lat="46.03787" lon="4.76713">
        <ele>205</ele>
        <time>2018-06-05T09:52:16Z</time>
      </trkpt>
      <trkpt lat="46.03783" lon="4.76712">
        <ele>205</ele>
        <time>2018-06-05T09:52:17Z</time>
      </trkpt>
      <trkpt lat="46.03778" lon="4.76711">
        <ele>205</ele>
        <time>2018-06-05T09:52:18Z</time>
      </trkpt>
      <trkpt lat="46.03772" lon="4.76708">
        <ele>205</ele>
        <time>2018-06-05T09:52:19Z</time>
      </trkpt>
      <trkpt lat="46.03767" lon="4.76707">
        <ele>205</ele>
        <time>2018-06-05T09:52:20Z</time>
      </trkpt>
      <trkpt lat="46.03762" lon="4.76704">
        <ele>205</ele>
        <time>2018-06-05T09:52:21Z</time>
      </trkpt>
      <trkpt lat="46.03754" lon="4.76703">
        <ele>205</ele>
        <time>2018-06-05T09:52:22Z</time>
      </trkpt>
      <trkpt lat="46.0375" lon="4.76698">
        <ele>205</ele>
        <time>2018-06-05T09:52:23Z</time>
      </trkpt>
      <trkpt lat="46.03745" lon="4.76696">
        <ele>205</ele>
        <time>2018-06-05T09:52:24Z</time>
      </trkpt>
      <trkpt lat="46.03741" lon="4.76694">
        <ele>205</ele>
        <time>2018-06-05T09:52:25Z</time>
      </trkpt>
      <trkpt lat="46.03735" lon="4.76691">
        <ele>205</ele>
        <time>2018-06-05T09:52:26Z</time>
      </trkpt>
      <trkpt lat="46.03728" lon="4.7669">
        <ele>205</ele>
        <time>2018-06-05T09:52:27Z</time>
      </trkpt>
      <trkpt lat="46.03724" lon="4.76688">
        <ele>205</ele>
        <time>2018-06-05T09:52:28Z</time>
      </trkpt>
      <trkpt lat="46.03717" lon="4.76686">
        <ele>205</ele>
        <time>2018-06-05T09:52:29Z</time>
      </trkpt>
      <trkpt lat="46.03713" lon="4.76683">
        <ele>205</ele>
        <time>2018-06-05T09:52:30Z</time>
      </trkpt>
      <trkpt lat="46.03709" lon="4.76678">
        <ele>205</ele>
        <time>2018-06-05T09:52:31Z</time>
      </trkpt>
      <trkpt lat="46.03701" lon="4.76676">
        <ele>205</ele>
        <time>2018-06-05T09:52:32Z</time>
      </trkpt>
      <trkpt lat="46.03696" lon="4.76668">
        <ele>205</ele>
        <time>2018-06-05T09:52:33Z</time>
      </trkpt>
      <trkpt lat="46.03695" lon="4.76659">
        <ele>204</ele>
        <time>2018-06-05T09:52:34Z</time>
      </trkpt>
      <trkpt lat="46.03692" lon="4.76651">
        <ele>204</ele>
        <time>2018-06-05T09:52:35Z</time>
      </trkpt>
      <trkpt lat="46.03691" lon="4.76641">
        <ele>204</ele>
        <time>2018-06-05T09:52:36Z</time>
      </trkpt>
      <trkpt lat="46.03689" lon="4.76633">
        <ele>203</ele>
        <time>2018-06-05T09:52:37Z</time>
      </trkpt>
      <trkpt lat="46.03689" lon="4.76624">
        <ele>203</ele>
        <time>2018-06-05T09:52:38Z</time>
      </trkpt>
      <trkpt lat="46.03685" lon="4.76618">
        <ele>203</ele>
        <time>2018-06-05T09:52:39Z</time>
      </trkpt>
      <trkpt lat="46.03684" lon="4.76609">
        <ele>203</ele>
        <time>2018-06-05T09:52:40Z</time>
      </trkpt>
      <trkpt lat="46.0368" lon="4.76602">
        <ele>203</ele>
        <time>2018-06-05T09:52:41Z</time>
      </trkpt>
      <trkpt lat="46.03676" lon="4.76594">
        <ele>203</ele>
        <time>2018-06-05T09:52:42Z</time>
      </trkpt>
      <trkpt lat="46.03672" lon="4.76589">
        <ele>202</ele>
        <time>2018-06-05T09:52:43Z</time>
      </trkpt>
      <trkpt lat="46.03666" lon="4.76584">
        <ele>202</ele>
        <time>2018-06-05T09:52:44Z</time>
      </trkpt>
      <trkpt lat="46.03662" lon="4.76579">
        <ele>202</ele>
        <time>2018-06-05T09:52:45Z</time>
      </trkpt>
      <trkpt lat="46.03656" lon="4.76572">
        <ele>201</ele>
        <time>2018-06-05T09:52:46Z</time>
      </trkpt>
      <trkpt lat="46.03651" lon="4.76563">
        <ele>201</ele>
        <time>2018-06-05T09:52:47Z</time>
      </trkpt>
      <trkpt lat="46.03647" lon="4.76555">
        <ele>201</ele>
        <time>2018-06-05T09:52:48Z</time>
      </trkpt>
      <trkpt lat="46.03639" lon="4.76527">
        <ele>200</ele>
        <time>2018-06-05T09:52:51Z</time>
      </trkpt>
      <trkpt lat="46.03633" lon="4.76518">
        <ele>200</ele>
        <time>2018-06-05T09:52:52Z</time>
      </trkpt>
      <trkpt lat="46.03626" lon="4.76509">
        <ele>200</ele>
        <time>2018-06-05T09:52:53Z</time>
      </trkpt>
      <trkpt lat="46.03622" lon="4.765">
        <ele>200</ele>
        <time>2018-06-05T09:52:54Z</time>
      </trkpt>
      <trkpt lat="46.03615" lon="4.76493">
        <ele>199</ele>
        <time>2018-06-05T09:52:55Z</time>
      </trkpt>
      <trkpt lat="46.03614" lon="4.76488">
        <ele>199</ele>
        <time>2018-06-05T09:52:56Z</time>
      </trkpt>
      <trkpt lat="46.03605" lon="4.76483">
        <ele>199</ele>
        <time>2018-06-05T09:52:57Z</time>
      </trkpt>
      <trkpt lat="46.03603" lon="4.76475">
        <ele>199</ele>
        <time>2018-06-05T09:52:58Z</time>
      </trkpt>
      <trkpt lat="46.03602" lon="4.76464">
        <ele>199</ele>
        <time>2018-06-05T09:52:59Z</time>
      </trkpt>
      <trkpt lat="46.03601" lon="4.76454">
        <ele>199</ele>
        <time>2018-06-05T09:53:00Z</time>
      </trkpt>
      <trkpt lat="46.03601" lon="4.76447">
        <ele>199</ele>
        <time>2018-06-05T09:53:01Z</time>
      </trkpt>
      <trkpt lat="46.03599" lon="4.76436">
        <ele>199</ele>
        <time>2018-06-05T09:53:02Z</time>
      </trkpt>
      <trkpt lat="46.036" lon="4.76427">
        <ele>199</ele>
        <time>2018-06-05T09:53:03Z</time>
      </trkpt>
      <trkpt lat="46.03604" lon="4.76417">
        <ele>199</ele>
        <time>2018-06-05T09:53:04Z</time>
      </trkpt>
      <trkpt lat="46.03605" lon="4.76409">
        <ele>198</ele>
        <time>2018-06-05T09:53:05Z</time>
      </trkpt>
      <trkpt lat="46.03606" lon="4.76398">
        <ele>197</ele>
        <time>2018-06-05T09:53:06Z</time>
      </trkpt>
      <trkpt lat="46.03605" lon="4.76387">
        <ele>197</ele>
        <time>2018-06-05T09:53:07Z</time>
      </trkpt>
      <trkpt lat="46.03605" lon="4.76376">
        <ele>197</ele>
        <time>2018-06-05T09:53:08Z</time>
      </trkpt>
      <trkpt lat="46.03607" lon="4.76368">
        <ele>197</ele>
        <time>2018-06-05T09:53:09Z</time>
      </trkpt>
      <trkpt lat="46.03606" lon="4.76358">
        <ele>196</ele>
        <time>2018-06-05T09:53:10Z</time>
      </trkpt>
      <trkpt lat="46.03607" lon="4.76349">
        <ele>196</ele>
        <time>2018-06-05T09:53:11Z</time>
      </trkpt>
      <trkpt lat="46.03608" lon="4.76338">
        <ele>196</ele>
        <time>2018-06-05T09:53:12Z</time>
      </trkpt>
      <trkpt lat="46.03608" lon="4.76327">
        <ele>195</ele>
        <time>2018-06-05T09:53:13Z</time>
      </trkpt>
      <trkpt lat="46.03609" lon="4.76316">
        <ele>195</ele>
        <time>2018-06-05T09:53:14Z</time>
      </trkpt>
      <trkpt lat="46.03608" lon="4.76305">
        <ele>195</ele>
        <time>2018-06-05T09:53:15Z</time>
      </trkpt>
      <trkpt lat="46.0361" lon="4.76296">
        <ele>195</ele>
        <time>2018-06-05T09:53:16Z</time>
      </trkpt>
      <trkpt lat="46.03612" lon="4.76286">
        <ele>194</ele>
        <time>2018-06-05T09:53:17Z</time>
      </trkpt>
      <trkpt lat="46.03612" lon="4.76278">
        <ele>194</ele>
        <time>2018-06-05T09:53:18Z</time>
      </trkpt>
      <trkpt lat="46.03613" lon="4.76266">
        <ele>194</ele>
        <time>2018-06-05T09:53:19Z</time>
      </trkpt>
      <trkpt lat="46.03614" lon="4.76256">
        <ele>194</ele>
        <time>2018-06-05T09:53:20Z</time>
      </trkpt>
      <trkpt lat="46.03616" lon="4.76245">
        <ele>193</ele>
        <time>2018-06-05T09:53:21Z</time>
      </trkpt>
      <trkpt lat="46.03618" lon="4.76235">
        <ele>193</ele>
        <time>2018-06-05T09:53:22Z</time>
      </trkpt>
      <trkpt lat="46.03621" lon="4.76226">
        <ele>193</ele>
        <time>2018-06-05T09:53:23Z</time>
      </trkpt>
      <trkpt lat="46.03622" lon="4.76216">
        <ele>193</ele>
        <time>2018-06-05T09:53:24Z</time>
      </trkpt>
      <trkpt lat="46.03622" lon="4.76207">
        <ele>193</ele>
        <time>2018-06-05T09:53:25Z</time>
      </trkpt>
      <trkpt lat="46.03623" lon="4.76198">
        <ele>193</ele>
        <time>2018-06-05T09:53:26Z</time>
      </trkpt>
      <trkpt lat="46.03624" lon="4.76189">
        <ele>193</ele>
        <time>2018-06-05T09:53:27Z</time>
      </trkpt>
      <trkpt lat="46.03624" lon="4.76179">
        <ele>193</ele>
        <time>2018-06-05T09:53:28Z</time>
      </trkpt>
      <trkpt lat="46.03625" lon="4.7617">
        <ele>192</ele>
        <time>2018-06-05T09:53:29Z</time>
      </trkpt>
      <trkpt lat="46.03625" lon="4.76161">
        <ele>192</ele>
        <time>2018-06-05T09:53:30Z</time>
      </trkpt>
      <trkpt lat="46.03627" lon="4.76152">
        <ele>192</ele>
        <time>2018-06-05T09:53:31Z</time>
      </trkpt>
      <trkpt lat="46.03628" lon="4.76143">
        <ele>192</ele>
        <time>2018-06-05T09:53:32Z</time>
      </trkpt>
      <trkpt lat="46.03626" lon="4.76136">
        <ele>192</ele>
        <time>2018-06-05T09:53:33Z</time>
      </trkpt>
      <trkpt lat="46.03626" lon="4.76128">
        <ele>192</ele>
        <time>2018-06-05T09:53:34Z</time>
      </trkpt>
      <trkpt lat="46.03626" lon="4.76121">
        <ele>192</ele>
        <time>2018-06-05T09:53:35Z</time>
      </trkpt>
      <trkpt lat="46.03625" lon="4.76113">
        <ele>192</ele>
        <time>2018-06-05T09:53:36Z</time>
      </trkpt>
      <trkpt lat="46.03624" lon="4.76105">
        <ele>192</ele>
        <time>2018-06-05T09:53:37Z</time>
      </trkpt>
      <trkpt lat="46.03624" lon="4.76097">
        <ele>192</ele>
        <time>2018-06-05T09:53:38Z</time>
      </trkpt>
      <trkpt lat="46.03623" lon="4.76089">
        <ele>192</ele>
        <time>2018-06-05T09:53:39Z</time>
      </trkpt>
      <trkpt lat="46.03623" lon="4.76081">
        <ele>191</ele>
        <time>2018-06-05T09:53:40Z</time>
      </trkpt>
      <trkpt lat="46.03622" lon="4.76074">
        <ele>191</ele>
        <time>2018-06-05T09:53:41Z</time>
      </trkpt>
      <trkpt lat="46.03618" lon="4.76066">
        <ele>191</ele>
        <time>2018-06-05T09:53:42Z</time>
      </trkpt>
      <trkpt lat="46.03616" lon="4.76057">
        <ele>191</ele>
        <time>2018-06-05T09:53:43Z</time>
      </trkpt>
      <trkpt lat="46.03614" lon="4.7605">
        <ele>191</ele>
        <time>2018-06-05T09:53:44Z</time>
      </trkpt>
      <trkpt lat="46.03612" lon="4.76043">
        <ele>191</ele>
        <time>2018-06-05T09:53:45Z</time>
      </trkpt>
      <trkpt lat="46.0361" lon="4.76035">
        <ele>191</ele>
        <time>2018-06-05T09:53:46Z</time>
      </trkpt>
      <trkpt lat="46.03607" lon="4.76027">
        <ele>191</ele>
        <time>2018-06-05T09:53:47Z</time>
      </trkpt>
      <trkpt lat="46.03604" lon="4.76019">
        <ele>191</ele>
        <time>2018-06-05T09:53:48Z</time>
      </trkpt>
      <trkpt lat="46.03601" lon="4.76011">
        <ele>191</ele>
        <time>2018-06-05T09:53:49Z</time>
      </trkpt>
      <trkpt lat="46.03598" lon="4.76004">
        <ele>191</ele>
        <time>2018-06-05T09:53:50Z</time>
      </trkpt>
      <trkpt lat="46.03595" lon="4.75996">
        <ele>190</ele>
        <time>2018-06-05T09:53:51Z</time>
      </trkpt>
      <trkpt lat="46.03593" lon="4.75988">
        <ele>190</ele>
        <time>2018-06-05T09:53:52Z</time>
      </trkpt>
      <trkpt lat="46.0359" lon="4.75979">
        <ele>190</ele>
        <time>2018-06-05T09:53:53Z</time>
      </trkpt>
      <trkpt lat="46.03587" lon="4.75972">
        <ele>190</ele>
        <time>2018-06-05T09:53:54Z</time>
      </trkpt>
      <trkpt lat="46.03584" lon="4.75965">
        <ele>190</ele>
        <time>2018-06-05T09:53:55Z</time>
      </trkpt>
      <trkpt lat="46.03581" lon="4.75957">
        <ele>190</ele>
        <time>2018-06-05T09:53:56Z</time>
      </trkpt>
      <trkpt lat="46.03576" lon="4.7595">
        <ele>190</ele>
        <time>2018-06-05T09:53:57Z</time>
      </trkpt>
      <trkpt lat="46.03572" lon="4.75944">
        <ele>190</ele>
        <time>2018-06-05T09:53:58Z</time>
      </trkpt>
      <trkpt lat="46.03569" lon="4.75937">
        <ele>190</ele>
        <time>2018-06-05T09:53:59Z</time>
      </trkpt>
      <trkpt lat="46.03568" lon="4.75929">
        <ele>190</ele>
        <time>2018-06-05T09:54:00Z</time>
      </trkpt>
      <trkpt lat="46.03564" lon="4.75923">
        <ele>190</ele>
        <time>2018-06-05T09:54:01Z</time>
      </trkpt>
      <trkpt lat="46.03562" lon="4.75915">
        <ele>189</ele>
        <time>2018-06-05T09:54:02Z</time>
      </trkpt>
      <trkpt lat="46.03559" lon="4.75907">
        <ele>189</ele>
        <time>2018-06-05T09:54:03Z</time>
      </trkpt>
      <trkpt lat="46.03556" lon="4.759">
        <ele>189</ele>
        <time>2018-06-05T09:54:04Z</time>
      </trkpt>
      <trkpt lat="46.03553" lon="4.75894">
        <ele>189</ele>
        <time>2018-06-05T09:54:05Z</time>
      </trkpt>
      <trkpt lat="46.0355" lon="4.75887">
        <ele>189</ele>
        <time>2018-06-05T09:54:06Z</time>
      </trkpt>
      <trkpt lat="46.03547" lon="4.7588">
        <ele>189</ele>
        <time>2018-06-05T09:54:07Z</time>
      </trkpt>
      <trkpt lat="46.03542" lon="4.7587">
        <ele>189</ele>
        <time>2018-06-05T09:54:08Z</time>
      </trkpt>
      <trkpt lat="46.03539" lon="4.75862">
        <ele>190</ele>
        <time>2018-06-05T09:54:09Z</time>
      </trkpt>
      <trkpt lat="46.03535" lon="4.75854">
        <ele>190</ele>
        <time>2018-06-05T09:54:10Z</time>
      </trkpt>
      <trkpt lat="46.0353" lon="4.75846">
        <ele>190</ele>
        <time>2018-06-05T09:54:11Z</time>
      </trkpt>
      <trkpt lat="46.03526" lon="4.7584">
        <ele>190</ele>
        <time>2018-06-05T09:54:12Z</time>
      </trkpt>
      <trkpt lat="46.03523" lon="4.75833">
        <ele>190</ele>
        <time>2018-06-05T09:54:13Z</time>
      </trkpt>
      <trkpt lat="46.03519" lon="4.75823">
        <ele>190</ele>
        <time>2018-06-05T09:54:14Z</time>
      </trkpt>
      <trkpt lat="46.03516" lon="4.75815">
        <ele>190</ele>
        <time>2018-06-05T09:54:15Z</time>
      </trkpt>
      <trkpt lat="46.03513" lon="4.75807">
        <ele>189</ele>
        <time>2018-06-05T09:54:16Z</time>
      </trkpt>
      <trkpt lat="46.03511" lon="4.75798">
        <ele>189</ele>
        <time>2018-06-05T09:54:17Z</time>
      </trkpt>
      <trkpt lat="46.03509" lon="4.75789">
        <ele>189</ele>
        <time>2018-06-05T09:54:18Z</time>
      </trkpt>
      <trkpt lat="46.03503" lon="4.75784">
        <ele>189</ele>
        <time>2018-06-05T09:54:19Z</time>
      </trkpt>
      <trkpt lat="46.035" lon="4.75775">
        <ele>189</ele>
        <time>2018-06-05T09:54:20Z</time>
      </trkpt>
      <trkpt lat="46.03497" lon="4.75768">
        <ele>189</ele>
        <time>2018-06-05T09:54:21Z</time>
      </trkpt>
      <trkpt lat="46.03494" lon="4.75759">
        <ele>189</ele>
        <time>2018-06-05T09:54:22Z</time>
      </trkpt>
      <trkpt lat="46.03491" lon="4.75751">
        <ele>189</ele>
        <time>2018-06-05T09:54:23Z</time>
      </trkpt>
      <trkpt lat="46.03488" lon="4.75742">
        <ele>189</ele>
        <time>2018-06-05T09:54:24Z</time>
      </trkpt>
      <trkpt lat="46.03484" lon="4.75736">
        <ele>189</ele>
        <time>2018-06-05T09:54:25Z</time>
      </trkpt>
      <trkpt lat="46.0348" lon="4.75728">
        <ele>189</ele>
        <time>2018-06-05T09:54:26Z</time>
      </trkpt>
      <trkpt lat="46.03477" lon="4.75721">
        <ele>189</ele>
        <time>2018-06-05T09:54:27Z</time>
      </trkpt>
      <trkpt lat="46.03476" lon="4.75714">
        <ele>189</ele>
        <time>2018-06-05T09:54:28Z</time>
      </trkpt>
      <trkpt lat="46.03472" lon="4.75706">
        <ele>189</ele>
        <time>2018-06-05T09:54:29Z</time>
      </trkpt>
      <trkpt lat="46.0347" lon="4.757">
        <ele>189</ele>
        <time>2018-06-05T09:54:30Z</time>
      </trkpt>
      <trkpt lat="46.03467" lon="4.75693">
        <ele>189</ele>
        <time>2018-06-05T09:54:31Z</time>
      </trkpt>
      <trkpt lat="46.03464" lon="4.75686">
        <ele>189</ele>
        <time>2018-06-05T09:54:32Z</time>
      </trkpt>
      <trkpt lat="46.03461" lon="4.75678">
        <ele>189</ele>
        <time>2018-06-05T09:54:33Z</time>
      </trkpt>
      <trkpt lat="46.03459" lon="4.75671">
        <ele>189</ele>
        <time>2018-06-05T09:54:34Z</time>
      </trkpt>
      <trkpt lat="46.03455" lon="4.75663">
        <ele>188</ele>
        <time>2018-06-05T09:54:35Z</time>
      </trkpt>
      <trkpt lat="46.03452" lon="4.75656">
        <ele>188</ele>
        <time>2018-06-05T09:54:36Z</time>
      </trkpt>
      <trkpt lat="46.03449" lon="4.75649">
        <ele>188</ele>
        <time>2018-06-05T09:54:37Z</time>
      </trkpt>
      <trkpt lat="46.03446" lon="4.75639">
        <ele>188</ele>
        <time>2018-06-05T09:54:39Z</time>
      </trkpt>
      <trkpt lat="46.03444" lon="4.75636">
        <ele>188</ele>
        <time>2018-06-05T09:54:40Z</time>
      </trkpt>
      <trkpt lat="46.03441" lon="4.75627">
        <ele>188</ele>
        <time>2018-06-05T09:54:43Z</time>
      </trkpt>
      <trkpt lat="46.03439" lon="4.75625">
        <ele>188</ele>
        <time>2018-06-05T09:54:44Z</time>
      </trkpt>
      <trkpt lat="46.03432" lon="4.75622">
        <ele>188</ele>
        <time>2018-06-05T09:54:45Z</time>
      </trkpt>
      <trkpt lat="46.03428" lon="4.75621">
        <ele>188</ele>
        <time>2018-06-05T09:54:46Z</time>
      </trkpt>
      <trkpt lat="46.03424" lon="4.7562">
        <ele>188</ele>
        <time>2018-06-05T09:54:47Z</time>
      </trkpt>
      <trkpt lat="46.03419" lon="4.7562">
        <ele>188</ele>
        <time>2018-06-05T09:54:48Z</time>
      </trkpt>
      <trkpt lat="46.03414" lon="4.75621">
        <ele>188</ele>
        <time>2018-06-05T09:54:49Z</time>
      </trkpt>
      <trkpt lat="46.03409" lon="4.75622">
        <ele>188</ele>
        <time>2018-06-05T09:54:50Z</time>
      </trkpt>
      <trkpt lat="46.03405" lon="4.75623">
        <ele>188</ele>
        <time>2018-06-05T09:54:51Z</time>
      </trkpt>
      <trkpt lat="46.03399" lon="4.75624">
        <ele>188</ele>
        <time>2018-06-05T09:54:52Z</time>
      </trkpt>
      <trkpt lat="46.03393" lon="4.75625">
        <ele>188</ele>
        <time>2018-06-05T09:54:53Z</time>
      </trkpt>
      <trkpt lat="46.03387" lon="4.75627">
        <ele>188</ele>
        <time>2018-06-05T09:54:54Z</time>
      </trkpt>
      <trkpt lat="46.03381" lon="4.75628">
        <ele>188</ele>
        <time>2018-06-05T09:54:55Z</time>
      </trkpt>
      <trkpt lat="46.03375" lon="4.75628">
        <ele>188</ele>
        <time>2018-06-05T09:54:56Z</time>
      </trkpt>
      <trkpt lat="46.03369" lon="4.75628">
        <ele>188</ele>
        <time>2018-06-05T09:54:57Z</time>
      </trkpt>
      <trkpt lat="46.03361" lon="4.75628">
        <ele>188</ele>
        <time>2018-06-05T09:54:58Z</time>
      </trkpt>
      <trkpt lat="46.03354" lon="4.75627">
        <ele>188</ele>
        <time>2018-06-05T09:54:59Z</time>
      </trkpt>
      <trkpt lat="46.03348" lon="4.75629">
        <ele>188</ele>
        <time>2018-06-05T09:55:00Z</time>
      </trkpt>
      <trkpt lat="46.03341" lon="4.7563">
        <ele>188</ele>
        <time>2018-06-05T09:55:01Z</time>
      </trkpt>
      <trkpt lat="46.03334" lon="4.7563">
        <ele>188</ele>
        <time>2018-06-05T09:55:02Z</time>
      </trkpt>
      <trkpt lat="46.03328" lon="4.75629">
        <ele>189</ele>
        <time>2018-06-05T09:55:03Z</time>
      </trkpt>
      <trkpt lat="46.03322" lon="4.75628">
        <ele>189</ele>
        <time>2018-06-05T09:55:04Z</time>
      </trkpt>
      <trkpt lat="46.03316" lon="4.7563">
        <ele>189</ele>
        <time>2018-06-05T09:55:05Z</time>
      </trkpt>
      <trkpt lat="46.0331" lon="4.75629">
        <ele>189</ele>
        <time>2018-06-05T09:55:06Z</time>
      </trkpt>
      <trkpt lat="46.03304" lon="4.75625">
        <ele>189</ele>
        <time>2018-06-05T09:55:07Z</time>
      </trkpt>
      <trkpt lat="46.03299" lon="4.75628">
        <ele>189</ele>
        <time>2018-06-05T09:55:08Z</time>
      </trkpt>
      <trkpt lat="46.03293" lon="4.75631">
        <ele>189</ele>
        <time>2018-06-05T09:55:09Z</time>
      </trkpt>
      <trkpt lat="46.03288" lon="4.75635">
        <ele>190</ele>
        <time>2018-06-05T09:55:10Z</time>
      </trkpt>
      <trkpt lat="46.03283" lon="4.75645">
        <ele>190</ele>
        <time>2018-06-05T09:55:11Z</time>
      </trkpt>
      <trkpt lat="46.03279" lon="4.75651">
        <ele>191</ele>
        <time>2018-06-05T09:55:12Z</time>
      </trkpt>
      <trkpt lat="46.03275" lon="4.75659">
        <ele>191</ele>
        <time>2018-06-05T09:55:13Z</time>
      </trkpt>
      <trkpt lat="46.03268" lon="4.75662">
        <ele>192</ele>
        <time>2018-06-05T09:55:14Z</time>
      </trkpt>
      <trkpt lat="46.03264" lon="4.75665">
        <ele>192</ele>
        <time>2018-06-05T09:55:15Z</time>
      </trkpt>
      <trkpt lat="46.03259" lon="4.75664">
        <ele>193</ele>
        <time>2018-06-05T09:55:16Z</time>
      </trkpt>
      <trkpt lat="46.03251" lon="4.75664">
        <ele>194</ele>
        <time>2018-06-05T09:55:17Z</time>
      </trkpt>
      <trkpt lat="46.03246" lon="4.75665">
        <ele>194</ele>
        <time>2018-06-05T09:55:18Z</time>
      </trkpt>
      <trkpt lat="46.03239" lon="4.75666">
        <ele>193</ele>
        <time>2018-06-05T09:55:19Z</time>
      </trkpt>
      <trkpt lat="46.03232" lon="4.75667">
        <ele>194</ele>
        <time>2018-06-05T09:55:20Z</time>
      </trkpt>
      <trkpt lat="46.03227" lon="4.75668">
        <ele>194</ele>
        <time>2018-06-05T09:55:21Z</time>
      </trkpt>
      <trkpt lat="46.0322" lon="4.75669">
        <ele>193</ele>
        <time>2018-06-05T09:55:22Z</time>
      </trkpt>
      <trkpt lat="46.03214" lon="4.7567">
        <ele>193</ele>
        <time>2018-06-05T09:55:23Z</time>
      </trkpt>
      <trkpt lat="46.03207" lon="4.75671">
        <ele>193</ele>
        <time>2018-06-05T09:55:24Z</time>
      </trkpt>
      <trkpt lat="46.032" lon="4.75673">
        <ele>192</ele>
        <time>2018-06-05T09:55:25Z</time>
      </trkpt>
      <trkpt lat="46.03193" lon="4.75674">
        <ele>192</ele>
        <time>2018-06-05T09:55:26Z</time>
      </trkpt>
      <trkpt lat="46.03187" lon="4.75675">
        <ele>191</ele>
        <time>2018-06-05T09:55:27Z</time>
      </trkpt>
      <trkpt lat="46.0318" lon="4.75677">
        <ele>191</ele>
        <time>2018-06-05T09:55:28Z</time>
      </trkpt>
      <trkpt lat="46.03174" lon="4.75677">
        <ele>190</ele>
        <time>2018-06-05T09:55:29Z</time>
      </trkpt>
      <trkpt lat="46.03167" lon="4.75678">
        <ele>190</ele>
        <time>2018-06-05T09:55:30Z</time>
      </trkpt>
      <trkpt lat="46.03161" lon="4.75679">
        <ele>188</ele>
        <time>2018-06-05T09:55:31Z</time>
      </trkpt>
      <trkpt lat="46.03154" lon="4.75679">
        <ele>187</ele>
        <time>2018-06-05T09:55:32Z</time>
      </trkpt>
      <trkpt lat="46.03147" lon="4.75678">
        <ele>187</ele>
        <time>2018-06-05T09:55:33Z</time>
      </trkpt>
      <trkpt lat="46.0314" lon="4.7568">
        <ele>187</ele>
        <time>2018-06-05T09:55:34Z</time>
      </trkpt>
      <trkpt lat="46.03135" lon="4.75681">
        <ele>187</ele>
        <time>2018-06-05T09:55:35Z</time>
      </trkpt>
      <trkpt lat="46.03129" lon="4.75681">
        <ele>187</ele>
        <time>2018-06-05T09:55:36Z</time>
      </trkpt>
      <trkpt lat="46.03123" lon="4.75682">
        <ele>186</ele>
        <time>2018-06-05T09:55:37Z</time>
      </trkpt>
      <trkpt lat="46.03117" lon="4.75682">
        <ele>186</ele>
        <time>2018-06-05T09:55:38Z</time>
      </trkpt>
      <trkpt lat="46.03112" lon="4.75683">
        <ele>186</ele>
        <time>2018-06-05T09:55:39Z</time>
      </trkpt>
      <trkpt lat="46.03107" lon="4.75683">
        <ele>186</ele>
        <time>2018-06-05T09:55:40Z</time>
      </trkpt>
      <trkpt lat="46.03101" lon="4.75684">
        <ele>186</ele>
        <time>2018-06-05T09:55:41Z</time>
      </trkpt>
      <trkpt lat="46.03094" lon="4.7568">
        <ele>185</ele>
        <time>2018-06-05T09:55:42Z</time>
      </trkpt>
      <trkpt lat="46.03087" lon="4.75679">
        <ele>185</ele>
        <time>2018-06-05T09:55:43Z</time>
      </trkpt>
      <trkpt lat="46.03081" lon="4.75679">
        <ele>184</ele>
        <time>2018-06-05T09:55:44Z</time>
      </trkpt>
      <trkpt lat="46.03074" lon="4.75679">
        <ele>184</ele>
        <time>2018-06-05T09:55:45Z</time>
      </trkpt>
      <trkpt lat="46.03067" lon="4.75679">
        <ele>184</ele>
        <time>2018-06-05T09:55:46Z</time>
      </trkpt>
      <trkpt lat="46.0306" lon="4.7568">
        <ele>184</ele>
        <time>2018-06-05T09:55:47Z</time>
      </trkpt>
      <trkpt lat="46.03053" lon="4.7568">
        <ele>184</ele>
        <time>2018-06-05T09:55:48Z</time>
      </trkpt>
      <trkpt lat="46.03047" lon="4.75681">
        <ele>184</ele>
        <time>2018-06-05T09:55:49Z</time>
      </trkpt>
      <trkpt lat="46.03041" lon="4.75684">
        <ele>184</ele>
        <time>2018-06-05T09:55:50Z</time>
      </trkpt>
      <trkpt lat="46.03035" lon="4.75687">
        <ele>183</ele>
        <time>2018-06-05T09:55:51Z</time>
      </trkpt>
      <trkpt lat="46.03029" lon="4.75689">
        <ele>183</ele>
        <time>2018-06-05T09:55:52Z</time>
      </trkpt>
      <trkpt lat="46.03022" lon="4.75695">
        <ele>183</ele>
        <time>2018-06-05T09:55:53Z</time>
      </trkpt>
      <trkpt lat="46.03015" lon="4.757">
        <ele>184</ele>
        <time>2018-06-05T09:55:54Z</time>
      </trkpt>
      <trkpt lat="46.03009" lon="4.75702">
        <ele>184</ele>
        <time>2018-06-05T09:55:55Z</time>
      </trkpt>
      <trkpt lat="46.03003" lon="4.75703">
        <ele>184</ele>
        <time>2018-06-05T09:55:56Z</time>
      </trkpt>
      <trkpt lat="46.02997" lon="4.75704">
        <ele>183</ele>
        <time>2018-06-05T09:55:57Z</time>
      </trkpt>
      <trkpt lat="46.02991" lon="4.75705">
        <ele>183</ele>
        <time>2018-06-05T09:55:58Z</time>
      </trkpt>
      <trkpt lat="46.02985" lon="4.75707">
        <ele>183</ele>
        <time>2018-06-05T09:55:59Z</time>
      </trkpt>
      <trkpt lat="46.0298" lon="4.7571">
        <ele>183</ele>
        <time>2018-06-05T09:56:00Z</time>
      </trkpt>
      <trkpt lat="46.02973" lon="4.75712">
        <ele>183</ele>
        <time>2018-06-05T09:56:01Z</time>
      </trkpt>
      <trkpt lat="46.02967" lon="4.75713">
        <ele>183</ele>
        <time>2018-06-05T09:56:02Z</time>
      </trkpt>
      <trkpt lat="46.02961" lon="4.75714">
        <ele>183</ele>
        <time>2018-06-05T09:56:03Z</time>
      </trkpt>
      <trkpt lat="46.02954" lon="4.75716">
        <ele>183</ele>
        <time>2018-06-05T09:56:04Z</time>
      </trkpt>
      <trkpt lat="46.02947" lon="4.75717">
        <ele>183</ele>
        <time>2018-06-05T09:56:05Z</time>
      </trkpt>
      <trkpt lat="46.02943" lon="4.75725">
        <ele>183</ele>
        <time>2018-06-05T09:56:06Z</time>
      </trkpt>
      <trkpt lat="46.02938" lon="4.75727">
        <ele>183</ele>
        <time>2018-06-05T09:56:07Z</time>
      </trkpt>
      <trkpt lat="46.02931" lon="4.75727">
        <ele>183</ele>
        <time>2018-06-05T09:56:08Z</time>
      </trkpt>
      <trkpt lat="46.02924" lon="4.75729">
        <ele>183</ele>
        <time>2018-06-05T09:56:09Z</time>
      </trkpt>
      <trkpt lat="46.02918" lon="4.7573">
        <ele>183</ele>
        <time>2018-06-05T09:56:10Z</time>
      </trkpt>
      <trkpt lat="46.02913" lon="4.75729">
        <ele>183</ele>
        <time>2018-06-05T09:56:11Z</time>
      </trkpt>
      <trkpt lat="46.02906" lon="4.75729">
        <ele>183</ele>
        <time>2018-06-05T09:56:12Z</time>
      </trkpt>
      <trkpt lat="46.02899" lon="4.75729">
        <ele>183</ele>
        <time>2018-06-05T09:56:13Z</time>
      </trkpt>
      <trkpt lat="46.02893" lon="4.7573">
        <ele>183</ele>
        <time>2018-06-05T09:56:14Z</time>
      </trkpt>
      <trkpt lat="46.02885" lon="4.7573">
        <ele>183</ele>
        <time>2018-06-05T09:56:15Z</time>
      </trkpt>
      <trkpt lat="46.02878" lon="4.75729">
        <ele>183</ele>
        <time>2018-06-05T09:56:16Z</time>
      </trkpt>
      <trkpt lat="46.0287" lon="4.75726">
        <ele>183</ele>
        <time>2018-06-05T09:56:17Z</time>
      </trkpt>
      <trkpt lat="46.02863" lon="4.75723">
        <ele>183</ele>
        <time>2018-06-05T09:56:18Z</time>
      </trkpt>
      <trkpt lat="46.02856" lon="4.75722">
        <ele>183</ele>
        <time>2018-06-05T09:56:19Z</time>
      </trkpt>
      <trkpt lat="46.0285" lon="4.75724">
        <ele>184</ele>
        <time>2018-06-05T09:56:20Z</time>
      </trkpt>
      <trkpt lat="46.02842" lon="4.75722">
        <ele>184</ele>
        <time>2018-06-05T09:56:21Z</time>
      </trkpt>
      <trkpt lat="46.02835" lon="4.75718">
        <ele>183</ele>
        <time>2018-06-05T09:56:22Z</time>
      </trkpt>
      <trkpt lat="46.02827" lon="4.75716">
        <ele>183</ele>
        <time>2018-06-05T09:56:23Z</time>
      </trkpt>
      <trkpt lat="46.02821" lon="4.75716">
        <ele>183</ele>
        <time>2018-06-05T09:56:24Z</time>
      </trkpt>
      <trkpt lat="46.02814" lon="4.75715">
        <ele>183</ele>
        <time>2018-06-05T09:56:25Z</time>
      </trkpt>
      <trkpt lat="46.02807" lon="4.75713">
        <ele>183</ele>
        <time>2018-06-05T09:56:26Z</time>
      </trkpt>
      <trkpt lat="46.028" lon="4.75712">
        <ele>183</ele>
        <time>2018-06-05T09:56:27Z</time>
      </trkpt>
      <trkpt lat="46.02793" lon="4.75708">
        <ele>183</ele>
        <time>2018-06-05T09:56:28Z</time>
      </trkpt>
      <trkpt lat="46.02788" lon="4.75712">
        <ele>183</ele>
        <time>2018-06-05T09:56:29Z</time>
      </trkpt>
      <trkpt lat="46.02781" lon="4.75713">
        <ele>183</ele>
        <time>2018-06-05T09:56:30Z</time>
      </trkpt>
      <trkpt lat="46.02772" lon="4.75704">
        <ele>182</ele>
        <time>2018-06-05T09:56:31Z</time>
      </trkpt>
      <trkpt lat="46.02767" lon="4.75704">
        <ele>182</ele>
        <time>2018-06-05T09:56:32Z</time>
      </trkpt>
      <trkpt lat="46.02759" lon="4.757">
        <ele>182</ele>
        <time>2018-06-05T09:56:33Z</time>
      </trkpt>
      <trkpt lat="46.02753" lon="4.75703">
        <ele>182</ele>
        <time>2018-06-05T09:56:34Z</time>
      </trkpt>
      <trkpt lat="46.02748" lon="4.75705">
        <ele>182</ele>
        <time>2018-06-05T09:56:35Z</time>
      </trkpt>
      <trkpt lat="46.02743" lon="4.75707">
        <ele>182</ele>
        <time>2018-06-05T09:56:36Z</time>
      </trkpt>
      <trkpt lat="46.02735" lon="4.75714">
        <ele>182</ele>
        <time>2018-06-05T09:56:37Z</time>
      </trkpt>
      <trkpt lat="46.0273" lon="4.75716">
        <ele>182</ele>
        <time>2018-06-05T09:56:38Z</time>
      </trkpt>
      <trkpt lat="46.02726" lon="4.75721">
        <ele>182</ele>
        <time>2018-06-05T09:56:39Z</time>
      </trkpt>
      <trkpt lat="46.02719" lon="4.75727">
        <ele>182</ele>
        <time>2018-06-05T09:56:41Z</time>
      </trkpt>
      <trkpt lat="46.02715" lon="4.75729">
        <ele>182</ele>
        <time>2018-06-05T09:56:42Z</time>
      </trkpt>
      <trkpt lat="46.0271" lon="4.7573">
        <ele>182</ele>
        <time>2018-06-05T09:56:43Z</time>
      </trkpt>
      <trkpt lat="46.02706" lon="4.75732">
        <ele>182</ele>
        <time>2018-06-05T09:56:44Z</time>
      </trkpt>
      <trkpt lat="46.02701" lon="4.75734">
        <ele>182</ele>
        <time>2018-06-05T09:56:45Z</time>
      </trkpt>
      <trkpt lat="46.02697" lon="4.75738">
        <ele>182</ele>
        <time>2018-06-05T09:56:46Z</time>
      </trkpt>
      <trkpt lat="46.02692" lon="4.75739">
        <ele>182</ele>
        <time>2018-06-05T09:56:47Z</time>
      </trkpt>
      <trkpt lat="46.02688" lon="4.7574">
        <ele>182</ele>
        <time>2018-06-05T09:56:48Z</time>
      </trkpt>
      <trkpt lat="46.02679" lon="4.75745">
        <ele>181</ele>
        <time>2018-06-05T09:56:50Z</time>
      </trkpt>
      <trkpt lat="46.02676" lon="4.75746">
        <ele>181</ele>
        <time>2018-06-05T09:56:51Z</time>
      </trkpt>
      <trkpt lat="46.02671" lon="4.75745">
        <ele>181</ele>
        <time>2018-06-05T09:56:52Z</time>
      </trkpt>
      <trkpt lat="46.02666" lon="4.75746">
        <ele>181</ele>
        <time>2018-06-05T09:56:53Z</time>
      </trkpt>
      <trkpt lat="46.02658" lon="4.75745">
        <ele>181</ele>
        <time>2018-06-05T09:56:55Z</time>
      </trkpt>
      <trkpt lat="46.02654" lon="4.75749">
        <ele>181</ele>
        <time>2018-06-05T09:56:56Z</time>
      </trkpt>
      <trkpt lat="46.02646" lon="4.7575">
        <ele>182</ele>
        <time>2018-06-05T09:56:59Z</time>
      </trkpt>
      <trkpt lat="46.02643" lon="4.75749">
        <ele>182</ele>
        <time>2018-06-05T09:57:00Z</time>
      </trkpt>
      <trkpt lat="46.02636" lon="4.75746">
        <ele>182</ele>
        <time>2018-06-05T09:57:02Z</time>
      </trkpt>
      <trkpt lat="46.02628" lon="4.75745">
        <ele>182</ele>
        <time>2018-06-05T09:57:03Z</time>
      </trkpt>
      <trkpt lat="46.0262" lon="4.75744">
        <ele>182</ele>
        <time>2018-06-05T09:57:07Z</time>
      </trkpt>
      <trkpt lat="46.02617" lon="4.75744">
        <ele>182</ele>
        <time>2018-06-05T09:57:08Z</time>
      </trkpt>
      <trkpt lat="46.02609" lon="4.75742">
        <ele>182</ele>
        <time>2018-06-05T09:57:11Z</time>
      </trkpt>
      <trkpt lat="46.02606" lon="4.75742">
        <ele>183</ele>
        <time>2018-06-05T09:57:12Z</time>
      </trkpt>
      <trkpt lat="46.02597" lon="4.75741">
        <ele>183</ele>
        <time>2018-06-05T09:57:15Z</time>
      </trkpt>
      <trkpt lat="46.02594" lon="4.75741">
        <ele>183</ele>
        <time>2018-06-05T09:57:16Z</time>
      </trkpt>
      <trkpt lat="46.02588" lon="4.7574">
        <ele>183</ele>
        <time>2018-06-05T09:57:18Z</time>
      </trkpt>
      <trkpt lat="46.02585" lon="4.75739">
        <ele>183</ele>
        <time>2018-06-05T09:57:19Z</time>
      </trkpt>
      <trkpt lat="46.02577" lon="4.75738">
        <ele>184</ele>
        <time>2018-06-05T09:57:22Z</time>
      </trkpt>
      <trkpt lat="46.02574" lon="4.75738">
        <ele>185</ele>
        <time>2018-06-05T09:57:23Z</time>
      </trkpt>
      <trkpt lat="46.02566" lon="4.75738">
        <ele>185</ele>
        <time>2018-06-05T09:57:26Z</time>
      </trkpt>
      <trkpt lat="46.02564" lon="4.75737">
        <ele>185</ele>
        <time>2018-06-05T09:57:27Z</time>
      </trkpt>
      <trkpt lat="46.02557" lon="4.75737">
        <ele>186</ele>
        <time>2018-06-05T09:57:30Z</time>
      </trkpt>
      <trkpt lat="46.02554" lon="4.75737">
        <ele>186</ele>
        <time>2018-06-05T09:57:31Z</time>
      </trkpt>
      <trkpt lat="46.02546" lon="4.75738">
        <ele>186</ele>
        <time>2018-06-05T09:57:34Z</time>
      </trkpt>
      <trkpt lat="46.02544" lon="4.75738">
        <ele>186</ele>
        <time>2018-06-05T09:57:35Z</time>
      </trkpt>
      <trkpt lat="46.02536" lon="4.7574">
        <ele>187</ele>
        <time>2018-06-05T09:57:38Z</time>
      </trkpt>
      <trkpt lat="46.02533" lon="4.7574">
        <ele>187</ele>
        <time>2018-06-05T09:57:39Z</time>
      </trkpt>
      <trkpt lat="46.02525" lon="4.75743">
        <ele>187</ele>
        <time>2018-06-05T09:57:42Z</time>
      </trkpt>
      <trkpt lat="46.02522" lon="4.75744">
        <ele>188</ele>
        <time>2018-06-05T09:57:43Z</time>
      </trkpt>
      <trkpt lat="46.02514" lon="4.75746">
        <ele>188</ele>
        <time>2018-06-05T09:57:46Z</time>
      </trkpt>
      <trkpt lat="46.02512" lon="4.75748">
        <ele>188</ele>
        <time>2018-06-05T09:57:47Z</time>
      </trkpt>
      <trkpt lat="46.02503" lon="4.75751">
        <ele>189</ele>
        <time>2018-06-05T09:57:50Z</time>
      </trkpt>
      <trkpt lat="46.02501" lon="4.75752">
        <ele>190</ele>
        <time>2018-06-05T09:57:51Z</time>
      </trkpt>
      <trkpt lat="46.02494" lon="4.75755">
        <ele>190</ele>
        <time>2018-06-05T09:57:53Z</time>
      </trkpt>
      <trkpt lat="46.02491" lon="4.75757">
        <ele>190</ele>
        <time>2018-06-05T09:57:54Z</time>
      </trkpt>
      <trkpt lat="46.02486" lon="4.7576">
        <ele>190</ele>
        <time>2018-06-05T09:57:56Z</time>
      </trkpt>
      <trkpt lat="46.02483" lon="4.75761">
        <ele>191</ele>
        <time>2018-06-05T09:57:57Z</time>
      </trkpt>
      <trkpt lat="46.02477" lon="4.75764">
        <ele>191</ele>
        <time>2018-06-05T09:57:59Z</time>
      </trkpt>
      <trkpt lat="46.02474" lon="4.75766">
        <ele>191</ele>
        <time>2018-06-05T09:58:00Z</time>
      </trkpt>
      <trkpt lat="46.02466" lon="4.75769">
        <ele>191</ele>
        <time>2018-06-05T09:58:03Z</time>
      </trkpt>
      <trkpt lat="46.02463" lon="4.7577">
        <ele>191</ele>
        <time>2018-06-05T09:58:04Z</time>
      </trkpt>
      <trkpt lat="46.02456" lon="4.75773">
        <ele>191</ele>
        <time>2018-06-05T09:58:07Z</time>
      </trkpt>
      <trkpt lat="46.02453" lon="4.75774">
        <ele>191</ele>
        <time>2018-06-05T09:58:08Z</time>
      </trkpt>
      <trkpt lat="46.02445" lon="4.75779">
        <ele>191</ele>
        <time>2018-06-05T09:58:11Z</time>
      </trkpt>
      <trkpt lat="46.02443" lon="4.7578">
        <ele>191</ele>
        <time>2018-06-05T09:58:12Z</time>
      </trkpt>
      <trkpt lat="46.02437" lon="4.75783">
        <ele>191</ele>
        <time>2018-06-05T09:58:14Z</time>
      </trkpt>
      <trkpt lat="46.02434" lon="4.75785">
        <ele>191</ele>
        <time>2018-06-05T09:58:15Z</time>
      </trkpt>
      <trkpt lat="46.02431" lon="4.75786">
        <ele>191</ele>
        <time>2018-06-05T09:58:16Z</time>
      </trkpt>
      <trkpt lat="46.02422" lon="4.7579">
        <ele>192</ele>
        <time>2018-06-05T09:58:17Z</time>
      </trkpt>
      <trkpt lat="46.02416" lon="4.75794">
        <ele>192</ele>
        <time>2018-06-05T09:58:20Z</time>
      </trkpt>
      <trkpt lat="46.02414" lon="4.75795">
        <ele>192</ele>
        <time>2018-06-05T09:58:21Z</time>
      </trkpt>
      <trkpt lat="46.02408" lon="4.75799">
        <ele>192</ele>
        <time>2018-06-05T09:58:23Z</time>
      </trkpt>
      <trkpt lat="46.02405" lon="4.75801">
        <ele>192</ele>
        <time>2018-06-05T09:58:24Z</time>
      </trkpt>
      <trkpt lat="46.02399" lon="4.75805">
        <ele>192</ele>
        <time>2018-06-05T09:58:26Z</time>
      </trkpt>
      <trkpt lat="46.02396" lon="4.75807">
        <ele>192</ele>
        <time>2018-06-05T09:58:27Z</time>
      </trkpt>
      <trkpt lat="46.0239" lon="4.75812">
        <ele>192</ele>
        <time>2018-06-05T09:58:29Z</time>
      </trkpt>
      <trkpt lat="46.02387" lon="4.75814">
        <ele>192</ele>
        <time>2018-06-05T09:58:30Z</time>
      </trkpt>
      <trkpt lat="46.02383" lon="4.75817">
        <ele>192</ele>
        <time>2018-06-05T09:58:31Z</time>
      </trkpt>
      <trkpt lat="46.02375" lon="4.75823">
        <ele>192</ele>
        <time>2018-06-05T09:58:32Z</time>
      </trkpt>
      <trkpt lat="46.02367" lon="4.75828">
        <ele>192</ele>
        <time>2018-06-05T09:58:34Z</time>
      </trkpt>
      <trkpt lat="46.02364" lon="4.7583">
        <ele>192</ele>
        <time>2018-06-05T09:58:35Z</time>
      </trkpt>
      <trkpt lat="46.02359" lon="4.75834">
        <ele>193</ele>
        <time>2018-06-05T09:58:37Z</time>
      </trkpt>
      <trkpt lat="46.02354" lon="4.75839">
        <ele>193</ele>
        <time>2018-06-05T09:58:38Z</time>
      </trkpt>
      <trkpt lat="46.02348" lon="4.75846">
        <ele>193</ele>
        <time>2018-06-05T09:58:40Z</time>
      </trkpt>
      <trkpt lat="46.02344" lon="4.75849">
        <ele>193</ele>
        <time>2018-06-05T09:58:41Z</time>
      </trkpt>
      <trkpt lat="46.02337" lon="4.75855">
        <ele>193</ele>
        <time>2018-06-05T09:58:43Z</time>
      </trkpt>
      <trkpt lat="46.02332" lon="4.75858">
        <ele>193</ele>
        <time>2018-06-05T09:58:44Z</time>
      </trkpt>
      <trkpt lat="46.02329" lon="4.75863">
        <ele>193</ele>
        <time>2018-06-05T09:58:45Z</time>
      </trkpt>
      <trkpt lat="46.02326" lon="4.75868">
        <ele>193</ele>
        <time>2018-06-05T09:58:46Z</time>
      </trkpt>
      <trkpt lat="46.02318" lon="4.75873">
        <ele>193</ele>
        <time>2018-06-05T09:58:48Z</time>
      </trkpt>
      <trkpt lat="46.02314" lon="4.75876">
        <ele>193</ele>
        <time>2018-06-05T09:58:49Z</time>
      </trkpt>
      <trkpt lat="46.02311" lon="4.75879">
        <ele>193</ele>
        <time>2018-06-05T09:58:50Z</time>
      </trkpt>
      <trkpt lat="46.02305" lon="4.75882">
        <ele>193</ele>
        <time>2018-06-05T09:58:51Z</time>
      </trkpt>
      <trkpt lat="46.02301" lon="4.75887">
        <ele>193</ele>
        <time>2018-06-05T09:58:52Z</time>
      </trkpt>
      <trkpt lat="46.02297" lon="4.75891">
        <ele>193</ele>
        <time>2018-06-05T09:58:53Z</time>
      </trkpt>
      <trkpt lat="46.02292" lon="4.75897">
        <ele>193</ele>
        <time>2018-06-05T09:58:54Z</time>
      </trkpt>
      <trkpt lat="46.02287" lon="4.75901">
        <ele>193</ele>
        <time>2018-06-05T09:58:55Z</time>
      </trkpt>
      <trkpt lat="46.02282" lon="4.75905">
        <ele>193</ele>
        <time>2018-06-05T09:58:56Z</time>
      </trkpt>
      <trkpt lat="46.02277" lon="4.7591">
        <ele>193</ele>
        <time>2018-06-05T09:58:57Z</time>
      </trkpt>
      <trkpt lat="46.02272" lon="4.75915">
        <ele>193</ele>
        <time>2018-06-05T09:58:58Z</time>
      </trkpt>
      <trkpt lat="46.02267" lon="4.75919">
        <ele>193</ele>
        <time>2018-06-05T09:58:59Z</time>
      </trkpt>
      <trkpt lat="46.02262" lon="4.75924">
        <ele>193</ele>
        <time>2018-06-05T09:59:00Z</time>
      </trkpt>
      <trkpt lat="46.02257" lon="4.75929">
        <ele>193</ele>
        <time>2018-06-05T09:59:01Z</time>
      </trkpt>
      <trkpt lat="46.02252" lon="4.75933">
        <ele>193</ele>
        <time>2018-06-05T09:59:02Z</time>
      </trkpt>
      <trkpt lat="46.02247" lon="4.75938">
        <ele>193</ele>
        <time>2018-06-05T09:59:03Z</time>
      </trkpt>
      <trkpt lat="46.02242" lon="4.75942">
        <ele>193</ele>
        <time>2018-06-05T09:59:04Z</time>
      </trkpt>
      <trkpt lat="46.02237" lon="4.75947">
        <ele>193</ele>
        <time>2018-06-05T09:59:05Z</time>
      </trkpt>
      <trkpt lat="46.02231" lon="4.75951">
        <ele>193</ele>
        <time>2018-06-05T09:59:06Z</time>
      </trkpt>
      <trkpt lat="46.02226" lon="4.75958">
        <ele>193</ele>
        <time>2018-06-05T09:59:07Z</time>
      </trkpt>
      <trkpt lat="46.02221" lon="4.75963">
        <ele>193</ele>
        <time>2018-06-05T09:59:08Z</time>
      </trkpt>
      <trkpt lat="46.02216" lon="4.75968">
        <ele>193</ele>
        <time>2018-06-05T09:59:09Z</time>
      </trkpt>
      <trkpt lat="46.02212" lon="4.75974">
        <ele>193</ele>
        <time>2018-06-05T09:59:10Z</time>
      </trkpt>
      <trkpt lat="46.02206" lon="4.75978">
        <ele>192</ele>
        <time>2018-06-05T09:59:11Z</time>
      </trkpt>
      <trkpt lat="46.02201" lon="4.75981">
        <ele>192</ele>
        <time>2018-06-05T09:59:12Z</time>
      </trkpt>
      <trkpt lat="46.02196" lon="4.75985">
        <ele>192</ele>
        <time>2018-06-05T09:59:13Z</time>
      </trkpt>
      <trkpt lat="46.02191" lon="4.7599">
        <ele>192</ele>
        <time>2018-06-05T09:59:14Z</time>
      </trkpt>
      <trkpt lat="46.02186" lon="4.75997">
        <ele>192</ele>
        <time>2018-06-05T09:59:15Z</time>
      </trkpt>
      <trkpt lat="46.02181" lon="4.75999">
        <ele>192</ele>
        <time>2018-06-05T09:59:16Z</time>
      </trkpt>
      <trkpt lat="46.02177" lon="4.76002">
        <ele>193</ele>
        <time>2018-06-05T09:59:17Z</time>
      </trkpt>
      <trkpt lat="46.02171" lon="4.76004">
        <ele>192</ele>
        <time>2018-06-05T09:59:18Z</time>
      </trkpt>
      <trkpt lat="46.02167" lon="4.76009">
        <ele>192</ele>
        <time>2018-06-05T09:59:19Z</time>
      </trkpt>
      <trkpt lat="46.02162" lon="4.76013">
        <ele>193</ele>
        <time>2018-06-05T09:59:20Z</time>
      </trkpt>
      <trkpt lat="46.02158" lon="4.76017">
        <ele>193</ele>
        <time>2018-06-05T09:59:21Z</time>
      </trkpt>
      <trkpt lat="46.02154" lon="4.76021">
        <ele>193</ele>
        <time>2018-06-05T09:59:22Z</time>
      </trkpt>
      <trkpt lat="46.02149" lon="4.76025">
        <ele>193</ele>
        <time>2018-06-05T09:59:23Z</time>
      </trkpt>
      <trkpt lat="46.02145" lon="4.76029">
        <ele>193</ele>
        <time>2018-06-05T09:59:24Z</time>
      </trkpt>
      <trkpt lat="46.02141" lon="4.76033">
        <ele>193</ele>
        <time>2018-06-05T09:59:25Z</time>
      </trkpt>
      <trkpt lat="46.02137" lon="4.76036">
        <ele>193</ele>
        <time>2018-06-05T09:59:26Z</time>
      </trkpt>
      <trkpt lat="46.02133" lon="4.7604">
        <ele>193</ele>
        <time>2018-06-05T09:59:27Z</time>
      </trkpt>
      <trkpt lat="46.02129" lon="4.76044">
        <ele>194</ele>
        <time>2018-06-05T09:59:28Z</time>
      </trkpt>
      <trkpt lat="46.02125" lon="4.76048">
        <ele>194</ele>
        <time>2018-06-05T09:59:29Z</time>
      </trkpt>
      <trkpt lat="46.02121" lon="4.7605">
        <ele>194</ele>
        <time>2018-06-05T09:59:30Z</time>
      </trkpt>
      <trkpt lat="46.02117" lon="4.76054">
        <ele>194</ele>
        <time>2018-06-05T09:59:31Z</time>
      </trkpt>
      <trkpt lat="46.02113" lon="4.76058">
        <ele>194</ele>
        <time>2018-06-05T09:59:32Z</time>
      </trkpt>
      <trkpt lat="46.02109" lon="4.76061">
        <ele>194</ele>
        <time>2018-06-05T09:59:33Z</time>
      </trkpt>
      <trkpt lat="46.02106" lon="4.76065">
        <ele>194</ele>
        <time>2018-06-05T09:59:34Z</time>
      </trkpt>
      <trkpt lat="46.02101" lon="4.76068">
        <ele>194</ele>
        <time>2018-06-05T09:59:35Z</time>
      </trkpt>
      <trkpt lat="46.02097" lon="4.76071">
        <ele>195</ele>
        <time>2018-06-05T09:59:36Z</time>
      </trkpt>
      <trkpt lat="46.02093" lon="4.76074">
        <ele>195</ele>
        <time>2018-06-05T09:59:37Z</time>
      </trkpt>
      <trkpt lat="46.02086" lon="4.76078">
        <ele>195</ele>
        <time>2018-06-05T09:59:39Z</time>
      </trkpt>
      <trkpt lat="46.02082" lon="4.76079">
        <ele>196</ele>
        <time>2018-06-05T09:59:40Z</time>
      </trkpt>
      <trkpt lat="46.02073" lon="4.76081">
        <ele>196</ele>
        <time>2018-06-05T09:59:42Z</time>
      </trkpt>
      <trkpt lat="46.02072" lon="4.76081">
        <ele>196</ele>
        <time>2018-06-05T09:59:43Z</time>
      </trkpt>
      <trkpt lat="46.02063" lon="4.76083">
        <ele>195</ele>
        <time>2018-06-05T09:59:46Z</time>
      </trkpt>
      <trkpt lat="46.02053" lon="4.76085">
        <ele>197</ele>
        <time>2018-06-05T09:59:47Z</time>
      </trkpt>
      <trkpt lat="46.02047" lon="4.76087">
        <ele>197</ele>
        <time>2018-06-05T09:59:49Z</time>
      </trkpt>
      <trkpt lat="46.02039" lon="4.76089">
        <ele>197</ele>
        <time>2018-06-05T09:59:50Z</time>
      </trkpt>
      <trkpt lat="46.02034" lon="4.76091">
        <ele>197</ele>
        <time>2018-06-05T09:59:51Z</time>
      </trkpt>
      <trkpt lat="46.02029" lon="4.76093">
        <ele>197</ele>
        <time>2018-06-05T09:59:52Z</time>
      </trkpt>
      <trkpt lat="46.02024" lon="4.76096">
        <ele>197</ele>
        <time>2018-06-05T09:59:53Z</time>
      </trkpt>
      <trkpt lat="46.02012" lon="4.76097">
        <ele>197</ele>
        <time>2018-06-05T09:59:54Z</time>
      </trkpt>
      <trkpt lat="46.02007" lon="4.76103">
        <ele>197</ele>
        <time>2018-06-05T09:59:56Z</time>
      </trkpt>
      <trkpt lat="46.02002" lon="4.76104">
        <ele>197</ele>
        <time>2018-06-05T09:59:57Z</time>
      </trkpt>
      <trkpt lat="46.01997" lon="4.76106">
        <ele>198</ele>
        <time>2018-06-05T09:59:58Z</time>
      </trkpt>
      <trkpt lat="46.01993" lon="4.76109">
        <ele>198</ele>
        <time>2018-06-05T09:59:59Z</time>
      </trkpt>
      <trkpt lat="46.01984" lon="4.76109">
        <ele>198</ele>
        <time>2018-06-05T10:00:01Z</time>
      </trkpt>
      <trkpt lat="46.0198" lon="4.76111">
        <ele>198</ele>
        <time>2018-06-05T10:00:02Z</time>
      </trkpt>
      <trkpt lat="46.01972" lon="4.76113">
        <ele>198</ele>
        <time>2018-06-05T10:00:04Z</time>
      </trkpt>
      <trkpt lat="46.01968" lon="4.76113">
        <ele>198</ele>
        <time>2018-06-05T10:00:05Z</time>
      </trkpt>
      <trkpt lat="46.01965" lon="4.76114">
        <ele>198</ele>
        <time>2018-06-05T10:00:06Z</time>
      </trkpt>
      <trkpt lat="46.01958" lon="4.76115">
        <ele>198</ele>
        <time>2018-06-05T10:00:07Z</time>
      </trkpt>
      <trkpt lat="46.01953" lon="4.76115">
        <ele>198</ele>
        <time>2018-06-05T10:00:08Z</time>
      </trkpt>
      <trkpt lat="46.01947" lon="4.76115">
        <ele>198</ele>
        <time>2018-06-05T10:00:09Z</time>
      </trkpt>
      <trkpt lat="46.01942" lon="4.76118">
        <ele>198</ele>
        <time>2018-06-05T10:00:10Z</time>
      </trkpt>
      <trkpt lat="46.01937" lon="4.76121">
        <ele>198</ele>
        <time>2018-06-05T10:00:11Z</time>
      </trkpt>
      <trkpt lat="46.01932" lon="4.76124">
        <ele>198</ele>
        <time>2018-06-05T10:00:12Z</time>
      </trkpt>
      <trkpt lat="46.01928" lon="4.76123">
        <ele>198</ele>
        <time>2018-06-05T10:00:13Z</time>
      </trkpt>
      <trkpt lat="46.01922" lon="4.76128">
        <ele>199</ele>
        <time>2018-06-05T10:00:14Z</time>
      </trkpt>
      <trkpt lat="46.01918" lon="4.76127">
        <ele>199</ele>
        <time>2018-06-05T10:00:15Z</time>
      </trkpt>
      <trkpt lat="46.01909" lon="4.76126">
        <ele>199</ele>
        <time>2018-06-05T10:00:17Z</time>
      </trkpt>
      <trkpt lat="46.01904" lon="4.76126">
        <ele>199</ele>
        <time>2018-06-05T10:00:18Z</time>
      </trkpt>
      <trkpt lat="46.01896" lon="4.7613">
        <ele>199</ele>
        <time>2018-06-05T10:00:20Z</time>
      </trkpt>
      <trkpt lat="46.01891" lon="4.7613">
        <ele>199</ele>
        <time>2018-06-05T10:00:21Z</time>
      </trkpt>
      <trkpt lat="46.01882" lon="4.7613">
        <ele>199</ele>
        <time>2018-06-05T10:00:23Z</time>
      </trkpt>
      <trkpt lat="46.01878" lon="4.76131">
        <ele>199</ele>
        <time>2018-06-05T10:00:24Z</time>
      </trkpt>
      <trkpt lat="46.01873" lon="4.76133">
        <ele>199</ele>
        <time>2018-06-05T10:00:25Z</time>
      </trkpt>
      <trkpt lat="46.01869" lon="4.76132">
        <ele>199</ele>
        <time>2018-06-05T10:00:26Z</time>
      </trkpt>
      <trkpt lat="46.01862" lon="4.76134">
        <ele>199</ele>
        <time>2018-06-05T10:00:28Z</time>
      </trkpt>
      <trkpt lat="46.01858" lon="4.76133">
        <ele>199</ele>
        <time>2018-06-05T10:00:29Z</time>
      </trkpt>
      <trkpt lat="46.0185" lon="4.76131">
        <ele>199</ele>
        <time>2018-06-05T10:00:31Z</time>
      </trkpt>
      <trkpt lat="46.01844" lon="4.76131">
        <ele>199</ele>
        <time>2018-06-05T10:00:32Z</time>
      </trkpt>
      <trkpt lat="46.01838" lon="4.76131">
        <ele>199</ele>
        <time>2018-06-05T10:00:33Z</time>
      </trkpt>
      <trkpt lat="46.01833" lon="4.76131">
        <ele>198</ele>
        <time>2018-06-05T10:00:34Z</time>
      </trkpt>
      <trkpt lat="46.01829" lon="4.76126">
        <ele>198</ele>
        <time>2018-06-05T10:00:35Z</time>
      </trkpt>
      <trkpt lat="46.01824" lon="4.76128">
        <ele>198</ele>
        <time>2018-06-05T10:00:36Z</time>
      </trkpt>
      <trkpt lat="46.01815" lon="4.76125">
        <ele>198</ele>
        <time>2018-06-05T10:00:38Z</time>
      </trkpt>
      <trkpt lat="46.01813" lon="4.76126">
        <ele>198</ele>
        <time>2018-06-05T10:00:39Z</time>
      </trkpt>
      <trkpt lat="46.01805" lon="4.76128">
        <ele>198</ele>
        <time>2018-06-05T10:00:40Z</time>
      </trkpt>
      <trkpt lat="46.01799" lon="4.76129">
        <ele>198</ele>
        <time>2018-06-05T10:00:41Z</time>
      </trkpt>
      <trkpt lat="46.01791" lon="4.76127">
        <ele>198</ele>
        <time>2018-06-05T10:00:43Z</time>
      </trkpt>
      <trkpt lat="46.01786" lon="4.76126">
        <ele>198</ele>
        <time>2018-06-05T10:00:44Z</time>
      </trkpt>
      <trkpt lat="46.0178" lon="4.76126">
        <ele>198</ele>
        <time>2018-06-05T10:00:45Z</time>
      </trkpt>
      <trkpt lat="46.01775" lon="4.76126">
        <ele>198</ele>
        <time>2018-06-05T10:00:46Z</time>
      </trkpt>
      <trkpt lat="46.0177" lon="4.76124">
        <ele>198</ele>
        <time>2018-06-05T10:00:47Z</time>
      </trkpt>
      <trkpt lat="46.01764" lon="4.76125">
        <ele>198</ele>
        <time>2018-06-05T10:00:48Z</time>
      </trkpt>
      <trkpt lat="46.01759" lon="4.76126">
        <ele>198</ele>
        <time>2018-06-05T10:00:49Z</time>
      </trkpt>
      <trkpt lat="46.01754" lon="4.76127">
        <ele>198</ele>
        <time>2018-06-05T10:00:50Z</time>
      </trkpt>
      <trkpt lat="46.01749" lon="4.76127">
        <ele>197</ele>
        <time>2018-06-05T10:00:51Z</time>
      </trkpt>
      <trkpt lat="46.01744" lon="4.76127">
        <ele>197</ele>
        <time>2018-06-05T10:00:52Z</time>
      </trkpt>
      <trkpt lat="46.01735" lon="4.76128">
        <ele>197</ele>
        <time>2018-06-05T10:00:54Z</time>
      </trkpt>
      <trkpt lat="46.01731" lon="4.76125">
        <ele>197</ele>
        <time>2018-06-05T10:00:55Z</time>
      </trkpt>
      <trkpt lat="46.01726" lon="4.76124">
        <ele>197</ele>
        <time>2018-06-05T10:00:56Z</time>
      </trkpt>
      <trkpt lat="46.01721" lon="4.76123">
        <ele>197</ele>
        <time>2018-06-05T10:00:57Z</time>
      </trkpt>
      <trkpt lat="46.01713" lon="4.76121">
        <ele>198</ele>
        <time>2018-06-05T10:00:59Z</time>
      </trkpt>
      <trkpt lat="46.01707" lon="4.76121">
        <ele>198</ele>
        <time>2018-06-05T10:01:00Z</time>
      </trkpt>
      <trkpt lat="46.01699" lon="4.76121">
        <ele>198</ele>
        <time>2018-06-05T10:01:02Z</time>
      </trkpt>
      <trkpt lat="46.01695" lon="4.7612">
        <ele>198</ele>
        <time>2018-06-05T10:01:03Z</time>
      </trkpt>
      <trkpt lat="46.01688" lon="4.7612">
        <ele>198</ele>
        <time>2018-06-05T10:01:05Z</time>
      </trkpt>
      <trkpt lat="46.01683" lon="4.76119">
        <ele>198</ele>
        <time>2018-06-05T10:01:06Z</time>
      </trkpt>
      <trkpt lat="46.01678" lon="4.76118">
        <ele>198</ele>
        <time>2018-06-05T10:01:07Z</time>
      </trkpt>
      <trkpt lat="46.01673" lon="4.76118">
        <ele>198</ele>
        <time>2018-06-05T10:01:08Z</time>
      </trkpt>
      <trkpt lat="46.01664" lon="4.76116">
        <ele>199</ele>
        <time>2018-06-05T10:01:10Z</time>
      </trkpt>
      <trkpt lat="46.01659" lon="4.76115">
        <ele>199</ele>
        <time>2018-06-05T10:01:11Z</time>
      </trkpt>
      <trkpt lat="46.01654" lon="4.76113">
        <ele>199</ele>
        <time>2018-06-05T10:01:12Z</time>
      </trkpt>
      <trkpt lat="46.01649" lon="4.76112">
        <ele>199</ele>
        <time>2018-06-05T10:01:13Z</time>
      </trkpt>
      <trkpt lat="46.0164" lon="4.7611">
        <ele>199</ele>
        <time>2018-06-05T10:01:15Z</time>
      </trkpt>
      <trkpt lat="46.01636" lon="4.76109">
        <ele>199</ele>
        <time>2018-06-05T10:01:16Z</time>
      </trkpt>
      <trkpt lat="46.01627" lon="4.76107">
        <ele>199</ele>
        <time>2018-06-05T10:01:18Z</time>
      </trkpt>
      <trkpt lat="46.01624" lon="4.76109">
        <ele>200</ele>
        <time>2018-06-05T10:01:19Z</time>
      </trkpt>
      <trkpt lat="46.01615" lon="4.76107">
        <ele>200</ele>
        <time>2018-06-05T10:01:21Z</time>
      </trkpt>
      <trkpt lat="46.0161" lon="4.76107">
        <ele>200</ele>
        <time>2018-06-05T10:01:22Z</time>
      </trkpt>
      <trkpt lat="46.01602" lon="4.76107">
        <ele>200</ele>
        <time>2018-06-05T10:01:24Z</time>
      </trkpt>
      <trkpt lat="46.01597" lon="4.76106">
        <ele>200</ele>
        <time>2018-06-05T10:01:25Z</time>
      </trkpt>
      <trkpt lat="46.01589" lon="4.76104">
        <ele>200</ele>
        <time>2018-06-05T10:01:27Z</time>
      </trkpt>
      <trkpt lat="46.01584" lon="4.76104">
        <ele>200</ele>
        <time>2018-06-05T10:01:28Z</time>
      </trkpt>
      <trkpt lat="46.01576" lon="4.76102">
        <ele>202</ele>
        <time>2018-06-05T10:01:30Z</time>
      </trkpt>
      <trkpt lat="46.01572" lon="4.76101">
        <ele>202</ele>
        <time>2018-06-05T10:01:31Z</time>
      </trkpt>
      <trkpt lat="46.01564" lon="4.761">
        <ele>202</ele>
        <time>2018-06-05T10:01:33Z</time>
      </trkpt>
      <trkpt lat="46.0156" lon="4.76098">
        <ele>202</ele>
        <time>2018-06-05T10:01:34Z</time>
      </trkpt>
      <trkpt lat="46.01552" lon="4.76094">
        <ele>202</ele>
        <time>2018-06-05T10:01:36Z</time>
      </trkpt>
      <trkpt lat="46.01548" lon="4.76092">
        <ele>202</ele>
        <time>2018-06-05T10:01:37Z</time>
      </trkpt>
      <trkpt lat="46.01544" lon="4.7609">
        <ele>202</ele>
        <time>2018-06-05T10:01:38Z</time>
      </trkpt>
      <trkpt lat="46.0154" lon="4.76088">
        <ele>202</ele>
        <time>2018-06-05T10:01:39Z</time>
      </trkpt>
      <trkpt lat="46.01535" lon="4.76089">
        <ele>202</ele>
        <time>2018-06-05T10:01:40Z</time>
      </trkpt>
      <trkpt lat="46.0153" lon="4.76087">
        <ele>202</ele>
        <time>2018-06-05T10:01:41Z</time>
      </trkpt>
      <trkpt lat="46.01522" lon="4.76086">
        <ele>203</ele>
        <time>2018-06-05T10:01:43Z</time>
      </trkpt>
      <trkpt lat="46.01517" lon="4.76085">
        <ele>203</ele>
        <time>2018-06-05T10:01:44Z</time>
      </trkpt>
      <trkpt lat="46.01509" lon="4.76083">
        <ele>203</ele>
        <time>2018-06-05T10:01:46Z</time>
      </trkpt>
      <trkpt lat="46.01506" lon="4.76082">
        <ele>203</ele>
        <time>2018-06-05T10:01:47Z</time>
      </trkpt>
      <trkpt lat="46.01501" lon="4.76081">
        <ele>203</ele>
        <time>2018-06-05T10:01:48Z</time>
      </trkpt>
      <trkpt lat="46.01497" lon="4.7608">
        <ele>203</ele>
        <time>2018-06-05T10:01:49Z</time>
      </trkpt>
      <trkpt lat="46.01492" lon="4.76078">
        <ele>203</ele>
        <time>2018-06-05T10:01:50Z</time>
      </trkpt>
      <trkpt lat="46.01488" lon="4.76077">
        <ele>203</ele>
        <time>2018-06-05T10:01:51Z</time>
      </trkpt>
      <trkpt lat="46.01483" lon="4.76076">
        <ele>203</ele>
        <time>2018-06-05T10:01:52Z</time>
      </trkpt>
      <trkpt lat="46.01479" lon="4.76074">
        <ele>203</ele>
        <time>2018-06-05T10:01:53Z</time>
      </trkpt>
      <trkpt lat="46.0147" lon="4.76073">
        <ele>203</ele>
        <time>2018-06-05T10:01:55Z</time>
      </trkpt>
      <trkpt lat="46.01466" lon="4.76071">
        <ele>203</ele>
        <time>2018-06-05T10:01:56Z</time>
      </trkpt>
      <trkpt lat="46.01461" lon="4.7607">
        <ele>203</ele>
        <time>2018-06-05T10:01:57Z</time>
      </trkpt>
      <trkpt lat="46.01457" lon="4.76068">
        <ele>203</ele>
        <time>2018-06-05T10:01:58Z</time>
      </trkpt>
      <trkpt lat="46.01453" lon="4.76065">
        <ele>203</ele>
        <time>2018-06-05T10:01:59Z</time>
      </trkpt>
      <trkpt lat="46.01448" lon="4.76062">
        <ele>203</ele>
        <time>2018-06-05T10:02:00Z</time>
      </trkpt>
      <trkpt lat="46.01442" lon="4.76058">
        <ele>203</ele>
        <time>2018-06-05T10:02:02Z</time>
      </trkpt>
      <trkpt lat="46.01435" lon="4.76052">
        <ele>204</ele>
        <time>2018-06-05T10:02:03Z</time>
      </trkpt>
      <trkpt lat="46.01431" lon="4.76049">
        <ele>204</ele>
        <time>2018-06-05T10:02:04Z</time>
      </trkpt>
      <trkpt lat="46.01427" lon="4.76046">
        <ele>204</ele>
        <time>2018-06-05T10:02:05Z</time>
      </trkpt>
      <trkpt lat="46.01423" lon="4.76042">
        <ele>204</ele>
        <time>2018-06-05T10:02:06Z</time>
      </trkpt>
      <trkpt lat="46.01418" lon="4.7604">
        <ele>204</ele>
        <time>2018-06-05T10:02:07Z</time>
      </trkpt>
      <trkpt lat="46.01414" lon="4.76038">
        <ele>204</ele>
        <time>2018-06-05T10:02:08Z</time>
      </trkpt>
      <trkpt lat="46.01409" lon="4.76037">
        <ele>204</ele>
        <time>2018-06-05T10:02:09Z</time>
      </trkpt>
      <trkpt lat="46.01404" lon="4.76035">
        <ele>204</ele>
        <time>2018-06-05T10:02:10Z</time>
      </trkpt>
      <trkpt lat="46.01399" lon="4.76035">
        <ele>204</ele>
        <time>2018-06-05T10:02:11Z</time>
      </trkpt>
      <trkpt lat="46.01394" lon="4.76034">
        <ele>204</ele>
        <time>2018-06-05T10:02:12Z</time>
      </trkpt>
      <trkpt lat="46.01389" lon="4.76034">
        <ele>203</ele>
        <time>2018-06-05T10:02:13Z</time>
      </trkpt>
      <trkpt lat="46.01384" lon="4.76035">
        <ele>203</ele>
        <time>2018-06-05T10:02:14Z</time>
      </trkpt>
      <trkpt lat="46.01379" lon="4.76035">
        <ele>203</ele>
        <time>2018-06-05T10:02:15Z</time>
      </trkpt>
      <trkpt lat="46.01373" lon="4.76037">
        <ele>203</ele>
        <time>2018-06-05T10:02:16Z</time>
      </trkpt>
      <trkpt lat="46.01369" lon="4.76038">
        <ele>203</ele>
        <time>2018-06-05T10:02:17Z</time>
      </trkpt>
      <trkpt lat="46.01364" lon="4.76039">
        <ele>203</ele>
        <time>2018-06-05T10:02:18Z</time>
      </trkpt>
      <trkpt lat="46.01359" lon="4.7604">
        <ele>203</ele>
        <time>2018-06-05T10:02:19Z</time>
      </trkpt>
      <trkpt lat="46.01354" lon="4.76043">
        <ele>203</ele>
        <time>2018-06-05T10:02:20Z</time>
      </trkpt>
      <trkpt lat="46.0135" lon="4.76043">
        <ele>203</ele>
        <time>2018-06-05T10:02:21Z</time>
      </trkpt>
      <trkpt lat="46.01345" lon="4.76045">
        <ele>203</ele>
        <time>2018-06-05T10:02:22Z</time>
      </trkpt>
      <trkpt lat="46.0134" lon="4.76046">
        <ele>203</ele>
        <time>2018-06-05T10:02:23Z</time>
      </trkpt>
      <trkpt lat="46.01332" lon="4.76049">
        <ele>203</ele>
        <time>2018-06-05T10:02:25Z</time>
      </trkpt>
      <trkpt lat="46.01328" lon="4.7605">
        <ele>203</ele>
        <time>2018-06-05T10:02:26Z</time>
      </trkpt>
      <trkpt lat="46.01323" lon="4.7605">
        <ele>203</ele>
        <time>2018-06-05T10:02:27Z</time>
      </trkpt>
      <trkpt lat="46.01319" lon="4.76052">
        <ele>203</ele>
        <time>2018-06-05T10:02:28Z</time>
      </trkpt>
      <trkpt lat="46.01314" lon="4.76052">
        <ele>203</ele>
        <time>2018-06-05T10:02:29Z</time>
      </trkpt>
      <trkpt lat="46.01309" lon="4.76055">
        <ele>203</ele>
        <time>2018-06-05T10:02:30Z</time>
      </trkpt>
      <trkpt lat="46.01304" lon="4.76057">
        <ele>203</ele>
        <time>2018-06-05T10:02:31Z</time>
      </trkpt>
      <trkpt lat="46.01299" lon="4.76059">
        <ele>203</ele>
        <time>2018-06-05T10:02:32Z</time>
      </trkpt>
      <trkpt lat="46.01292" lon="4.76058">
        <ele>204</ele>
        <time>2018-06-05T10:02:34Z</time>
      </trkpt>
      <trkpt lat="46.01284" lon="4.7606">
        <ele>204</ele>
        <time>2018-06-05T10:02:35Z</time>
      </trkpt>
      <trkpt lat="46.01276" lon="4.76061">
        <ele>204</ele>
        <time>2018-06-05T10:02:37Z</time>
      </trkpt>
      <trkpt lat="46.01271" lon="4.76062">
        <ele>204</ele>
        <time>2018-06-05T10:02:38Z</time>
      </trkpt>
      <trkpt lat="46.01267" lon="4.76062">
        <ele>204</ele>
        <time>2018-06-05T10:02:39Z</time>
      </trkpt>
      <trkpt lat="46.01262" lon="4.76062">
        <ele>204</ele>
        <time>2018-06-05T10:02:40Z</time>
      </trkpt>
      <trkpt lat="46.01255" lon="4.76061">
        <ele>204</ele>
        <time>2018-06-05T10:02:42Z</time>
      </trkpt>
      <trkpt lat="46.01251" lon="4.76062">
        <ele>204</ele>
        <time>2018-06-05T10:02:43Z</time>
      </trkpt>
      <trkpt lat="46.01242" lon="4.76061">
        <ele>205</ele>
        <time>2018-06-05T10:02:45Z</time>
      </trkpt>
      <trkpt lat="46.01238" lon="4.7606">
        <ele>205</ele>
        <time>2018-06-05T10:02:46Z</time>
      </trkpt>
      <trkpt lat="46.01229" lon="4.7606">
        <ele>206</ele>
        <time>2018-06-05T10:02:48Z</time>
      </trkpt>
      <trkpt lat="46.01225" lon="4.76059">
        <ele>206</ele>
        <time>2018-06-05T10:02:49Z</time>
      </trkpt>
      <trkpt lat="46.01216" lon="4.76057">
        <ele>206</ele>
        <time>2018-06-05T10:02:51Z</time>
      </trkpt>
      <trkpt lat="46.01212" lon="4.76055">
        <ele>206</ele>
        <time>2018-06-05T10:02:52Z</time>
      </trkpt>
      <trkpt lat="46.01203" lon="4.76053">
        <ele>206</ele>
        <time>2018-06-05T10:02:54Z</time>
      </trkpt>
      <trkpt lat="46.01198" lon="4.76051">
        <ele>206</ele>
        <time>2018-06-05T10:02:55Z</time>
      </trkpt>
      <trkpt lat="46.01194" lon="4.7605">
        <ele>206</ele>
        <time>2018-06-05T10:02:56Z</time>
      </trkpt>
      <trkpt lat="46.01188" lon="4.76049">
        <ele>206</ele>
        <time>2018-06-05T10:02:57Z</time>
      </trkpt>
      <trkpt lat="46.0118" lon="4.76046">
        <ele>207</ele>
        <time>2018-06-05T10:02:59Z</time>
      </trkpt>
      <trkpt lat="46.01176" lon="4.76048">
        <ele>207</ele>
        <time>2018-06-05T10:03:00Z</time>
      </trkpt>
      <trkpt lat="46.01169" lon="4.76047">
        <ele>207</ele>
        <time>2018-06-05T10:03:03Z</time>
      </trkpt>
      <trkpt lat="46.01166" lon="4.76046">
        <ele>208</ele>
        <time>2018-06-05T10:03:04Z</time>
      </trkpt>
      <trkpt lat="46.0116" lon="4.76044">
        <ele>208</ele>
        <time>2018-06-05T10:03:06Z</time>
      </trkpt>
      <trkpt lat="46.01157" lon="4.76043">
        <ele>208</ele>
        <time>2018-06-05T10:03:07Z</time>
      </trkpt>
      <trkpt lat="46.01143" lon="4.76043">
        <ele>208</ele>
        <time>2018-06-05T10:03:08Z</time>
      </trkpt>
      <trkpt lat="46.01137" lon="4.76046">
        <ele>208</ele>
        <time>2018-06-05T10:03:11Z</time>
      </trkpt>
      <trkpt lat="46.01127" lon="4.76049">
        <ele>208</ele>
        <time>2018-06-05T10:03:12Z</time>
      </trkpt>
      <trkpt lat="46.01123" lon="4.76051">
        <ele>208</ele>
        <time>2018-06-05T10:03:13Z</time>
      </trkpt>
      <trkpt lat="46.01117" lon="4.76052">
        <ele>208</ele>
        <time>2018-06-05T10:03:14Z</time>
      </trkpt>
      <trkpt lat="46.01109" lon="4.76053">
        <ele>208</ele>
        <time>2018-06-05T10:03:16Z</time>
      </trkpt>
      <trkpt lat="46.01104" lon="4.76053">
        <ele>208</ele>
        <time>2018-06-05T10:03:17Z</time>
      </trkpt>
      <trkpt lat="46.01096" lon="4.76053">
        <ele>208</ele>
        <time>2018-06-05T10:03:19Z</time>
      </trkpt>
      <trkpt lat="46.01091" lon="4.76057">
        <ele>208</ele>
        <time>2018-06-05T10:03:20Z</time>
      </trkpt>
      <trkpt lat="46.01083" lon="4.76059">
        <ele>209</ele>
        <time>2018-06-05T10:03:24Z</time>
      </trkpt>
      <trkpt lat="46.01081" lon="4.7606">
        <ele>209</ele>
        <time>2018-06-05T10:03:25Z</time>
      </trkpt>
      <trkpt lat="46.01076" lon="4.76061">
        <ele>209</ele>
        <time>2018-06-05T10:03:27Z</time>
      </trkpt>
      <trkpt lat="46.01066" lon="4.76061">
        <ele>209</ele>
        <time>2018-06-05T10:03:28Z</time>
      </trkpt>
      <trkpt lat="46.01062" lon="4.76061">
        <ele>209</ele>
        <time>2018-06-05T10:03:30Z</time>
      </trkpt>
      <trkpt lat="46.01054" lon="4.76062">
        <ele>210</ele>
        <time>2018-06-05T10:03:31Z</time>
      </trkpt>
      <trkpt lat="46.01047" lon="4.76061">
        <ele>210</ele>
        <time>2018-06-05T10:03:33Z</time>
      </trkpt>
      <trkpt lat="46.01043" lon="4.76062">
        <ele>210</ele>
        <time>2018-06-05T10:03:34Z</time>
      </trkpt>
      <trkpt lat="46.01039" lon="4.76062">
        <ele>210</ele>
        <time>2018-06-05T10:03:36Z</time>
      </trkpt>
      <trkpt lat="46.01032" lon="4.76062">
        <ele>210</ele>
        <time>2018-06-05T10:03:37Z</time>
      </trkpt>
      <trkpt lat="46.01026" lon="4.76061">
        <ele>210</ele>
        <time>2018-06-05T10:03:40Z</time>
      </trkpt>
      <trkpt lat="46.01019" lon="4.76061">
        <ele>210</ele>
        <time>2018-06-05T10:03:41Z</time>
      </trkpt>
      <trkpt lat="46.01011" lon="4.76062">
        <ele>210</ele>
        <time>2018-06-05T10:03:44Z</time>
      </trkpt>
      <trkpt lat="46.01009" lon="4.76062">
        <ele>210</ele>
        <time>2018-06-05T10:03:45Z</time>
      </trkpt>
      <trkpt lat="46.00997" lon="4.76061">
        <ele>212</ele>
        <time>2018-06-05T10:03:46Z</time>
      </trkpt>
      <trkpt lat="46.00992" lon="4.76064">
        <ele>212</ele>
        <time>2018-06-05T10:03:47Z</time>
      </trkpt>
      <trkpt lat="46.00987" lon="4.76063">
        <ele>212</ele>
        <time>2018-06-05T10:03:48Z</time>
      </trkpt>
      <trkpt lat="46.00979" lon="4.76066">
        <ele>212</ele>
        <time>2018-06-05T10:03:50Z</time>
      </trkpt>
      <trkpt lat="46.00975" lon="4.76066">
        <ele>212</ele>
        <time>2018-06-05T10:03:51Z</time>
      </trkpt>
      <trkpt lat="46.00971" lon="4.76068">
        <ele>212</ele>
        <time>2018-06-05T10:03:53Z</time>
      </trkpt>
      <trkpt lat="46.00963" lon="4.76071">
        <ele>212</ele>
        <time>2018-06-05T10:03:54Z</time>
      </trkpt>
      <trkpt lat="46.00955" lon="4.76073">
        <ele>212</ele>
        <time>2018-06-05T10:03:56Z</time>
      </trkpt>
      <trkpt lat="46.00951" lon="4.76073">
        <ele>212</ele>
        <time>2018-06-05T10:03:57Z</time>
      </trkpt>
      <trkpt lat="46.00942" lon="4.76074">
        <ele>212</ele>
        <time>2018-06-05T10:03:59Z</time>
      </trkpt>
      <trkpt lat="46.00938" lon="4.76074">
        <ele>212</ele>
        <time>2018-06-05T10:04:00Z</time>
      </trkpt>
      <trkpt lat="46.0093" lon="4.76076">
        <ele>212</ele>
        <time>2018-06-05T10:04:02Z</time>
      </trkpt>
      <trkpt lat="46.00926" lon="4.76077">
        <ele>213</ele>
        <time>2018-06-05T10:04:03Z</time>
      </trkpt>
      <trkpt lat="46.00918" lon="4.76078">
        <ele>213</ele>
        <time>2018-06-05T10:04:05Z</time>
      </trkpt>
      <trkpt lat="46.00915" lon="4.7608">
        <ele>213</ele>
        <time>2018-06-05T10:04:06Z</time>
      </trkpt>
      <trkpt lat="46.00907" lon="4.76082">
        <ele>213</ele>
        <time>2018-06-05T10:04:08Z</time>
      </trkpt>
      <trkpt lat="46.00904" lon="4.76084">
        <ele>214</ele>
        <time>2018-06-05T10:04:09Z</time>
      </trkpt>
      <trkpt lat="46.00896" lon="4.76085">
        <ele>214</ele>
        <time>2018-06-05T10:04:11Z</time>
      </trkpt>
      <trkpt lat="46.00893" lon="4.76086">
        <ele>214</ele>
        <time>2018-06-05T10:04:12Z</time>
      </trkpt>
      <trkpt lat="46.00885" lon="4.76089">
        <ele>215</ele>
        <time>2018-06-05T10:04:14Z</time>
      </trkpt>
      <trkpt lat="46.00881" lon="4.7609">
        <ele>215</ele>
        <time>2018-06-05T10:04:15Z</time>
      </trkpt>
      <trkpt lat="46.00873" lon="4.76093">
        <ele>215</ele>
        <time>2018-06-05T10:04:17Z</time>
      </trkpt>
      <trkpt lat="46.00869" lon="4.76094">
        <ele>215</ele>
        <time>2018-06-05T10:04:18Z</time>
      </trkpt>
      <trkpt lat="46.00861" lon="4.76096">
        <ele>215</ele>
        <time>2018-06-05T10:04:20Z</time>
      </trkpt>
      <trkpt lat="46.00857" lon="4.76096">
        <ele>215</ele>
        <time>2018-06-05T10:04:21Z</time>
      </trkpt>
      <trkpt lat="46.0085" lon="4.76098">
        <ele>216</ele>
        <time>2018-06-05T10:04:23Z</time>
      </trkpt>
      <trkpt lat="46.00846" lon="4.76098">
        <ele>216</ele>
        <time>2018-06-05T10:04:24Z</time>
      </trkpt>
      <trkpt lat="46.00838" lon="4.761">
        <ele>216</ele>
        <time>2018-06-05T10:04:27Z</time>
      </trkpt>
      <trkpt lat="46.00832" lon="4.76101">
        <ele>217</ele>
        <time>2018-06-05T10:04:28Z</time>
      </trkpt>
      <trkpt lat="46.00828" lon="4.76102">
        <ele>217</ele>
        <time>2018-06-05T10:04:30Z</time>
      </trkpt>
      <trkpt lat="46.00821" lon="4.76104">
        <ele>218</ele>
        <time>2018-06-05T10:04:31Z</time>
      </trkpt>
      <trkpt lat="46.00813" lon="4.76106">
        <ele>218</ele>
        <time>2018-06-05T10:04:34Z</time>
      </trkpt>
      <trkpt lat="46.0081" lon="4.76106">
        <ele>218</ele>
        <time>2018-06-05T10:04:35Z</time>
      </trkpt>
      <trkpt lat="46.00801" lon="4.76107">
        <ele>218</ele>
        <time>2018-06-05T10:04:38Z</time>
      </trkpt>
      <trkpt lat="46.00798" lon="4.76107">
        <ele>218</ele>
        <time>2018-06-05T10:04:39Z</time>
      </trkpt>
      <trkpt lat="46.00792" lon="4.76108">
        <ele>219</ele>
        <time>2018-06-05T10:04:41Z</time>
      </trkpt>
      <trkpt lat="46.00789" lon="4.76108">
        <ele>219</ele>
        <time>2018-06-05T10:04:42Z</time>
      </trkpt>
      <trkpt lat="46.0078" lon="4.7611">
        <ele>219</ele>
        <time>2018-06-05T10:04:45Z</time>
      </trkpt>
      <trkpt lat="46.00777" lon="4.7611">
        <ele>219</ele>
        <time>2018-06-05T10:04:46Z</time>
      </trkpt>
      <trkpt lat="46.00769" lon="4.76112">
        <ele>219</ele>
        <time>2018-06-05T10:04:49Z</time>
      </trkpt>
      <trkpt lat="46.00766" lon="4.76113">
        <ele>219</ele>
        <time>2018-06-05T10:04:50Z</time>
      </trkpt>
      <trkpt lat="46.00757" lon="4.76114">
        <ele>219</ele>
        <time>2018-06-05T10:04:53Z</time>
      </trkpt>
      <trkpt lat="46.00754" lon="4.76114">
        <ele>219</ele>
        <time>2018-06-05T10:04:54Z</time>
      </trkpt>
      <trkpt lat="46.00746" lon="4.76115">
        <ele>223</ele>
        <time>2018-06-05T10:04:57Z</time>
      </trkpt>
      <trkpt lat="46.00743" lon="4.76115">
        <ele>223</ele>
        <time>2018-06-05T10:04:58Z</time>
      </trkpt>
      <trkpt lat="46.00734" lon="4.76115">
        <ele>223</ele>
        <time>2018-06-05T10:05:01Z</time>
      </trkpt>
      <trkpt lat="46.0073" lon="4.76115">
        <ele>223</ele>
        <time>2018-06-05T10:05:02Z</time>
      </trkpt>
      <trkpt lat="46.00722" lon="4.76116">
        <ele>224</ele>
        <time>2018-06-05T10:05:05Z</time>
      </trkpt>
      <trkpt lat="46.00719" lon="4.76116">
        <ele>224</ele>
        <time>2018-06-05T10:05:06Z</time>
      </trkpt>
      <trkpt lat="46.00711" lon="4.76115">
        <ele>224</ele>
        <time>2018-06-05T10:05:10Z</time>
      </trkpt>
      <trkpt lat="46.00709" lon="4.76115">
        <ele>224</ele>
        <time>2018-06-05T10:05:11Z</time>
      </trkpt>
      <trkpt lat="46.00701" lon="4.76115">
        <ele>225</ele>
        <time>2018-06-05T10:05:14Z</time>
      </trkpt>
      <trkpt lat="46.00699" lon="4.76115">
        <ele>225</ele>
        <time>2018-06-05T10:05:15Z</time>
      </trkpt>
      <trkpt lat="46.00691" lon="4.76116">
        <ele>225</ele>
        <time>2018-06-05T10:05:19Z</time>
      </trkpt>
      <trkpt lat="46.00689" lon="4.76116">
        <ele>225</ele>
        <time>2018-06-05T10:05:20Z</time>
      </trkpt>
      <trkpt lat="46.00681" lon="4.76117">
        <ele>225</ele>
        <time>2018-06-05T10:05:24Z</time>
      </trkpt>
      <trkpt lat="46.00679" lon="4.76117">
        <ele>225</ele>
        <time>2018-06-05T10:05:25Z</time>
      </trkpt>
      <trkpt lat="46.00672" lon="4.76118">
        <ele>226</ele>
        <time>2018-06-05T10:05:29Z</time>
      </trkpt>
      <trkpt lat="46.0067" lon="4.76118">
        <ele>226</ele>
        <time>2018-06-05T10:05:30Z</time>
      </trkpt>
      <trkpt lat="46.00662" lon="4.76119">
        <ele>228</ele>
        <time>2018-06-05T10:05:34Z</time>
      </trkpt>
      <trkpt lat="46.0066" lon="4.76119">
        <ele>228</ele>
        <time>2018-06-05T10:05:35Z</time>
      </trkpt>
      <trkpt lat="46.00652" lon="4.76119">
        <ele>228</ele>
        <time>2018-06-05T10:05:40Z</time>
      </trkpt>
      <trkpt lat="46.0065" lon="4.76119">
        <ele>228</ele>
        <time>2018-06-05T10:05:41Z</time>
      </trkpt>
      <trkpt lat="46.00642" lon="4.76114">
        <ele>228</ele>
        <time>2018-06-05T10:05:46Z</time>
      </trkpt>
      <trkpt lat="46.0064" lon="4.76112">
        <ele>228</ele>
        <time>2018-06-05T10:05:47Z</time>
      </trkpt>
      <trkpt lat="46.00631" lon="4.76109">
        <ele>227</ele>
        <time>2018-06-05T10:05:51Z</time>
      </trkpt>
      <trkpt lat="46.00629" lon="4.76111">
        <ele>227</ele>
        <time>2018-06-05T10:05:52Z</time>
      </trkpt>
      <trkpt lat="46.00625" lon="4.76119">
        <ele>228</ele>
        <time>2018-06-05T10:05:55Z</time>
      </trkpt>
      <trkpt lat="46.00625" lon="4.76123">
        <ele>228</ele>
        <time>2018-06-05T10:05:56Z</time>
      </trkpt>
      <trkpt lat="46.00625" lon="4.76132">
        <ele>228</ele>
        <time>2018-06-05T10:05:58Z</time>
      </trkpt>
      <trkpt lat="46.00625" lon="4.76136">
        <ele>228</ele>
        <time>2018-06-05T10:05:59Z</time>
      </trkpt>
      <trkpt lat="46.00625" lon="4.76145">
        <ele>228</ele>
        <time>2018-06-05T10:06:01Z</time>
      </trkpt>
      <trkpt lat="46.00624" lon="4.7615">
        <ele>228</ele>
        <time>2018-06-05T10:06:02Z</time>
      </trkpt>
      <trkpt lat="46.00624" lon="4.7616">
        <ele>228</ele>
        <time>2018-06-05T10:06:04Z</time>
      </trkpt>
      <trkpt lat="46.00624" lon="4.76175">
        <ele>230</ele>
        <time>2018-06-05T10:06:05Z</time>
      </trkpt>
      <trkpt lat="46.00624" lon="4.76187">
        <ele>230</ele>
        <time>2018-06-05T10:06:09Z</time>
      </trkpt>
      <trkpt lat="46.00623" lon="4.76191">
        <ele>230</ele>
        <time>2018-06-05T10:06:10Z</time>
      </trkpt>
      <trkpt lat="46.0062" lon="4.76197">
        <ele>230</ele>
        <time>2018-06-05T10:06:12Z</time>
      </trkpt>
      <trkpt lat="46.00613" lon="4.76204">
        <ele>230</ele>
        <time>2018-06-05T10:06:13Z</time>
      </trkpt>
      <trkpt lat="46.00609" lon="4.76203">
        <ele>230</ele>
        <time>2018-06-05T10:06:14Z</time>
      </trkpt>
      <trkpt lat="46.00605" lon="4.76196">
        <ele>230</ele>
        <time>2018-06-05T10:06:15Z</time>
      </trkpt>
      <trkpt lat="46.00601" lon="4.76195">
        <ele>230</ele>
        <time>2018-06-05T10:06:16Z</time>
      </trkpt>
      <trkpt lat="46.00596" lon="4.76193">
        <ele>230</ele>
        <time>2018-06-05T10:06:17Z</time>
      </trkpt>
      <trkpt lat="46.0059" lon="4.76192">
        <ele>230</ele>
        <time>2018-06-05T10:06:18Z</time>
      </trkpt>
      <trkpt lat="46.00584" lon="4.7619">
        <ele>230</ele>
        <time>2018-06-05T10:06:19Z</time>
      </trkpt>
      <trkpt lat="46.00578" lon="4.76187">
        <ele>230</ele>
        <time>2018-06-05T10:06:20Z</time>
      </trkpt>
      <trkpt lat="46.00572" lon="4.76185">
        <ele>230</ele>
        <time>2018-06-05T10:06:21Z</time>
      </trkpt>
      <trkpt lat="46.00566" lon="4.76183">
        <ele>230</ele>
        <time>2018-06-05T10:06:22Z</time>
      </trkpt>
      <trkpt lat="46.00561" lon="4.76182">
        <ele>230</ele>
        <time>2018-06-05T10:06:23Z</time>
      </trkpt>
      <trkpt lat="46.00554" lon="4.7618">
        <ele>230</ele>
        <time>2018-06-05T10:06:24Z</time>
      </trkpt>
      <trkpt lat="46.00547" lon="4.76177">
        <ele>230</ele>
        <time>2018-06-05T10:06:25Z</time>
      </trkpt>
      <trkpt lat="46.0054" lon="4.76172">
        <ele>230</ele>
        <time>2018-06-05T10:06:26Z</time>
      </trkpt>
      <trkpt lat="46.00532" lon="4.76167">
        <ele>230</ele>
        <time>2018-06-05T10:06:27Z</time>
      </trkpt>
      <trkpt lat="46.00525" lon="4.7616">
        <ele>228</ele>
        <time>2018-06-05T10:06:28Z</time>
      </trkpt>
      <trkpt lat="46.00519" lon="4.76152">
        <ele>228</ele>
        <time>2018-06-05T10:06:29Z</time>
      </trkpt>
      <trkpt lat="46.00512" lon="4.76144">
        <ele>228</ele>
        <time>2018-06-05T10:06:30Z</time>
      </trkpt>
      <trkpt lat="46.00504" lon="4.76135">
        <ele>227</ele>
        <time>2018-06-05T10:06:31Z</time>
      </trkpt>
      <trkpt lat="46.00497" lon="4.76126">
        <ele>227</ele>
        <time>2018-06-05T10:06:32Z</time>
      </trkpt>
      <trkpt lat="46.00489" lon="4.76118">
        <ele>227</ele>
        <time>2018-06-05T10:06:33Z</time>
      </trkpt>
      <trkpt lat="46.00482" lon="4.76112">
        <ele>227</ele>
        <time>2018-06-05T10:06:34Z</time>
      </trkpt>
      <trkpt lat="46.00475" lon="4.76103">
        <ele>227</ele>
        <time>2018-06-05T10:06:35Z</time>
      </trkpt>
      <trkpt lat="46.00466" lon="4.76095">
        <ele>227</ele>
        <time>2018-06-05T10:06:36Z</time>
      </trkpt>
      <trkpt lat="46.00458" lon="4.76087">
        <ele>227</ele>
        <time>2018-06-05T10:06:37Z</time>
      </trkpt>
      <trkpt lat="46.00449" lon="4.76081">
        <ele>224</ele>
        <time>2018-06-05T10:06:38Z</time>
      </trkpt>
      <trkpt lat="46.00439" lon="4.76078">
        <ele>224</ele>
        <time>2018-06-05T10:06:39Z</time>
      </trkpt>
      <trkpt lat="46.00429" lon="4.76074">
        <ele>224</ele>
        <time>2018-06-05T10:06:40Z</time>
      </trkpt>
      <trkpt lat="46.00419" lon="4.7607">
        <ele>225</ele>
        <time>2018-06-05T10:06:41Z</time>
      </trkpt>
      <trkpt lat="46.0041" lon="4.76071">
        <ele>226</ele>
        <time>2018-06-05T10:06:42Z</time>
      </trkpt>
      <trkpt lat="46.00401" lon="4.76072">
        <ele>226</ele>
        <time>2018-06-05T10:06:43Z</time>
      </trkpt>
      <trkpt lat="46.00393" lon="4.76073">
        <ele>226</ele>
        <time>2018-06-05T10:06:44Z</time>
      </trkpt>
      <trkpt lat="46.00385" lon="4.76073">
        <ele>226</ele>
        <time>2018-06-05T10:06:45Z</time>
      </trkpt>
      <trkpt lat="46.00379" lon="4.76063">
        <ele>226</ele>
        <time>2018-06-05T10:06:47Z</time>
      </trkpt>
      <trkpt lat="46.00377" lon="4.76064">
        <ele>226</ele>
        <time>2018-06-05T10:06:48Z</time>
      </trkpt>
      <trkpt lat="46.00374" lon="4.76059">
        <ele>226</ele>
        <time>2018-06-05T10:06:49Z</time>
      </trkpt>
      <trkpt lat="46.00379" lon="4.76051">
        <ele>225</ele>
        <time>2018-06-05T10:06:50Z</time>
      </trkpt>
      <trkpt lat="46.0038" lon="4.76044">
        <ele>225</ele>
        <time>2018-06-05T10:06:51Z</time>
      </trkpt>
      <trkpt lat="46.0039" lon="4.76039">
        <ele>225</ele>
        <time>2018-06-05T10:06:52Z</time>
      </trkpt>
      <trkpt lat="46.00394" lon="4.76035">
        <ele>225</ele>
        <time>2018-06-05T10:06:53Z</time>
      </trkpt>
      <trkpt lat="46.00398" lon="4.76029">
        <ele>224</ele>
        <time>2018-06-05T10:06:54Z</time>
      </trkpt>
      <trkpt lat="46.00404" lon="4.76023">
        <ele>224</ele>
        <time>2018-06-05T10:06:55Z</time>
      </trkpt>
      <trkpt lat="46.0041" lon="4.76018">
        <ele>223</ele>
        <time>2018-06-05T10:06:56Z</time>
      </trkpt>
      <trkpt lat="46.00416" lon="4.76013">
        <ele>223</ele>
        <time>2018-06-05T10:06:57Z</time>
      </trkpt>
      <trkpt lat="46.00423" lon="4.76007">
        <ele>222</ele>
        <time>2018-06-05T10:06:58Z</time>
      </trkpt>
      <trkpt lat="46.00429" lon="4.76">
        <ele>220</ele>
        <time>2018-06-05T10:06:59Z</time>
      </trkpt>
      <trkpt lat="46.00435" lon="4.75992">
        <ele>220</ele>
        <time>2018-06-05T10:07:00Z</time>
      </trkpt>
      <trkpt lat="46.00441" lon="4.75984">
        <ele>220</ele>
        <time>2018-06-05T10:07:01Z</time>
      </trkpt>
      <trkpt lat="46.00448" lon="4.75975">
        <ele>219</ele>
        <time>2018-06-05T10:07:02Z</time>
      </trkpt>
      <trkpt lat="46.00451" lon="4.75965">
        <ele>219</ele>
        <time>2018-06-05T10:07:03Z</time>
      </trkpt>
      <trkpt lat="46.00454" lon="4.75952">
        <ele>219</ele>
        <time>2018-06-05T10:07:04Z</time>
      </trkpt>
      <trkpt lat="46.00453" lon="4.75939">
        <ele>219</ele>
        <time>2018-06-05T10:07:05Z</time>
      </trkpt>
      <trkpt lat="46.00445" lon="4.75929">
        <ele>218</ele>
        <time>2018-06-05T10:07:06Z</time>
      </trkpt>
      <trkpt lat="46.00441" lon="4.7592">
        <ele>218</ele>
        <time>2018-06-05T10:07:07Z</time>
      </trkpt>
      <trkpt lat="46.00438" lon="4.75911">
        <ele>217</ele>
        <time>2018-06-05T10:07:08Z</time>
      </trkpt>
      <trkpt lat="46.00434" lon="4.759">
        <ele>217</ele>
        <time>2018-06-05T10:07:09Z</time>
      </trkpt>
      <trkpt lat="46.0043" lon="4.75888">
        <ele>217</ele>
        <time>2018-06-05T10:07:10Z</time>
      </trkpt>
      <trkpt lat="46.00426" lon="4.75874">
        <ele>217</ele>
        <time>2018-06-05T10:07:11Z</time>
      </trkpt>
      <trkpt lat="46.00421" lon="4.75863">
        <ele>216</ele>
        <time>2018-06-05T10:07:12Z</time>
      </trkpt>
      <trkpt lat="46.00413" lon="4.75854">
        <ele>214</ele>
        <time>2018-06-05T10:07:13Z</time>
      </trkpt>
      <trkpt lat="46.00408" lon="4.75841">
        <ele>214</ele>
        <time>2018-06-05T10:07:14Z</time>
      </trkpt>
      <trkpt lat="46.00403" lon="4.7583">
        <ele>213</ele>
        <time>2018-06-05T10:07:15Z</time>
      </trkpt>
      <trkpt lat="46.00395" lon="4.75819">
        <ele>213</ele>
        <time>2018-06-05T10:07:16Z</time>
      </trkpt>
      <trkpt lat="46.00388" lon="4.75807">
        <ele>213</ele>
        <time>2018-06-05T10:07:17Z</time>
      </trkpt>
      <trkpt lat="46.00382" lon="4.75793">
        <ele>213</ele>
        <time>2018-06-05T10:07:18Z</time>
      </trkpt>
      <trkpt lat="46.00376" lon="4.75783">
        <ele>213</ele>
        <time>2018-06-05T10:07:19Z</time>
      </trkpt>
      <trkpt lat="46.0037" lon="4.7577">
        <ele>213</ele>
        <time>2018-06-05T10:07:20Z</time>
      </trkpt>
      <trkpt lat="46.00364" lon="4.75758">
        <ele>212</ele>
        <time>2018-06-05T10:07:21Z</time>
      </trkpt>
      <trkpt lat="46.00356" lon="4.7575">
        <ele>211</ele>
        <time>2018-06-05T10:07:22Z</time>
      </trkpt>
      <trkpt lat="46.00349" lon="4.75739">
        <ele>210</ele>
        <time>2018-06-05T10:07:23Z</time>
      </trkpt>
      <trkpt lat="46.00343" lon="4.75731">
        <ele>210</ele>
        <time>2018-06-05T10:07:24Z</time>
      </trkpt>
      <trkpt lat="46.00336" lon="4.7572">
        <ele>210</ele>
        <time>2018-06-05T10:07:25Z</time>
      </trkpt>
      <trkpt lat="46.00328" lon="4.75711">
        <ele>208</ele>
        <time>2018-06-05T10:07:26Z</time>
      </trkpt>
      <trkpt lat="46.00321" lon="4.75697">
        <ele>208</ele>
        <time>2018-06-05T10:07:27Z</time>
      </trkpt>
      <trkpt lat="46.00314" lon="4.75686">
        <ele>207</ele>
        <time>2018-06-05T10:07:28Z</time>
      </trkpt>
      <trkpt lat="46.00308" lon="4.75678">
        <ele>208</ele>
        <time>2018-06-05T10:07:29Z</time>
      </trkpt>
      <trkpt lat="46.00301" lon="4.75667">
        <ele>208</ele>
        <time>2018-06-05T10:07:30Z</time>
      </trkpt>
      <trkpt lat="46.00293" lon="4.75656">
        <ele>206</ele>
        <time>2018-06-05T10:07:31Z</time>
      </trkpt>
      <trkpt lat="46.00285" lon="4.75643">
        <ele>206</ele>
        <time>2018-06-05T10:07:32Z</time>
      </trkpt>
      <trkpt lat="46.00277" lon="4.75631">
        <ele>206</ele>
        <time>2018-06-05T10:07:33Z</time>
      </trkpt>
      <trkpt lat="46.00269" lon="4.7562">
        <ele>206</ele>
        <time>2018-06-05T10:07:34Z</time>
      </trkpt>
      <trkpt lat="46.00262" lon="4.75608">
        <ele>206</ele>
        <time>2018-06-05T10:07:35Z</time>
      </trkpt>
      <trkpt lat="46.00255" lon="4.75596">
        <ele>205</ele>
        <time>2018-06-05T10:07:36Z</time>
      </trkpt>
      <trkpt lat="46.00247" lon="4.75585">
        <ele>206</ele>
        <time>2018-06-05T10:07:37Z</time>
      </trkpt>
      <trkpt lat="46.00239" lon="4.75573">
        <ele>205</ele>
        <time>2018-06-05T10:07:38Z</time>
      </trkpt>
      <trkpt lat="46.00231" lon="4.75562">
        <ele>206</ele>
        <time>2018-06-05T10:07:39Z</time>
      </trkpt>
      <trkpt lat="46.00224" lon="4.75549">
        <ele>206</ele>
        <time>2018-06-05T10:07:40Z</time>
      </trkpt>
      <trkpt lat="46.00217" lon="4.75536">
        <ele>205</ele>
        <time>2018-06-05T10:07:41Z</time>
      </trkpt>
      <trkpt lat="46.00224" lon="4.75515">
        <ele>203</ele>
        <time>2018-06-05T10:07:42Z</time>
      </trkpt>
      <trkpt lat="46.00221" lon="4.75499">
        <ele>198</ele>
        <time>2018-06-05T10:07:43Z</time>
      </trkpt>
      <trkpt lat="46.0022" lon="4.75481">
        <ele>198</ele>
        <time>2018-06-05T10:07:44Z</time>
      </trkpt>
      <trkpt lat="46.00218" lon="4.75464">
        <ele>197</ele>
        <time>2018-06-05T10:07:45Z</time>
      </trkpt>
      <trkpt lat="46.00218" lon="4.75447">
        <ele>197</ele>
        <time>2018-06-05T10:07:46Z</time>
      </trkpt>
      <trkpt lat="46.00217" lon="4.75431">
        <ele>196</ele>
        <time>2018-06-05T10:07:47Z</time>
      </trkpt>
      <trkpt lat="46.00218" lon="4.75415">
        <ele>192</ele>
        <time>2018-06-05T10:07:48Z</time>
      </trkpt>
      <trkpt lat="46.00218" lon="4.754">
        <ele>192</ele>
        <time>2018-06-05T10:07:49Z</time>
      </trkpt>
      <trkpt lat="46.00218" lon="4.75383">
        <ele>192</ele>
        <time>2018-06-05T10:07:50Z</time>
      </trkpt>
      <trkpt lat="46.00219" lon="4.75367">
        <ele>191</ele>
        <time>2018-06-05T10:07:51Z</time>
      </trkpt>
      <trkpt lat="46.00216" lon="4.75351">
        <ele>190</ele>
        <time>2018-06-05T10:07:52Z</time>
      </trkpt>
      <trkpt lat="46.00216" lon="4.75333">
        <ele>186</ele>
        <time>2018-06-05T10:07:53Z</time>
      </trkpt>
      <trkpt lat="46.00215" lon="4.75315">
        <ele>186</ele>
        <time>2018-06-05T10:07:54Z</time>
      </trkpt>
      <trkpt lat="46.00215" lon="4.75299">
        <ele>185</ele>
        <time>2018-06-05T10:07:55Z</time>
      </trkpt>
      <trkpt lat="46.00214" lon="4.7528">
        <ele>185</ele>
        <time>2018-06-05T10:07:56Z</time>
      </trkpt>
      <trkpt lat="46.00213" lon="4.75262">
        <ele>184</ele>
        <time>2018-06-05T10:07:57Z</time>
      </trkpt>
      <trkpt lat="46.00215" lon="4.75244">
        <ele>180</ele>
        <time>2018-06-05T10:07:58Z</time>
      </trkpt>
      <trkpt lat="46.00214" lon="4.75227">
        <ele>180</ele>
        <time>2018-06-05T10:07:59Z</time>
      </trkpt>
      <trkpt lat="46.00214" lon="4.75211">
        <ele>180</ele>
        <time>2018-06-05T10:08:00Z</time>
      </trkpt>
      <trkpt lat="46.00214" lon="4.75195">
        <ele>179</ele>
        <time>2018-06-05T10:08:01Z</time>
      </trkpt>
      <trkpt lat="46.00214" lon="4.75181">
        <ele>179</ele>
        <time>2018-06-05T10:08:02Z</time>
      </trkpt>
      <trkpt lat="46.00215" lon="4.75169">
        <ele>179</ele>
        <time>2018-06-05T10:08:03Z</time>
      </trkpt>
      <trkpt lat="46.00215" lon="4.75158">
        <ele>177</ele>
        <time>2018-06-05T10:08:04Z</time>
      </trkpt>
      <trkpt lat="46.00215" lon="4.75148">
        <ele>177</ele>
        <time>2018-06-05T10:08:05Z</time>
      </trkpt>
      <trkpt lat="46.00215" lon="4.75139">
        <ele>176</ele>
        <time>2018-06-05T10:08:06Z</time>
      </trkpt>
      <trkpt lat="46.00216" lon="4.75132">
        <ele>176</ele>
        <time>2018-06-05T10:08:07Z</time>
      </trkpt>
      <trkpt lat="46.00218" lon="4.75126">
        <ele>176</ele>
        <time>2018-06-05T10:08:08Z</time>
      </trkpt>
      <trkpt lat="46.00222" lon="4.75115">
        <ele>176</ele>
        <time>2018-06-05T10:08:13Z</time>
      </trkpt>
      <trkpt lat="46.00222" lon="4.75114">
        <ele>176</ele>
        <time>2018-06-05T10:08:14Z</time>
      </trkpt>
      <trkpt lat="46.00215" lon="4.75107">
        <ele>176</ele>
        <time>2018-06-05T10:08:22Z</time>
      </trkpt>
      <trkpt lat="46.00213" lon="4.75107">
        <ele>176</ele>
        <time>2018-06-05T10:08:23Z</time>
      </trkpt>
      <trkpt lat="46.00204" lon="4.75106">
        <ele>176</ele>
        <time>2018-06-05T10:08:24Z</time>
      </trkpt>
      <trkpt lat="46.00192" lon="4.75106">
        <ele>176</ele>
        <time>2018-06-05T10:08:25Z</time>
      </trkpt>
      <trkpt lat="46.0019" lon="4.75108">
        <ele>176</ele>
        <time>2018-06-05T10:08:26Z</time>
      </trkpt>
      <trkpt lat="46.00181" lon="4.75108">
        <ele>176</ele>
        <time>2018-06-05T10:08:27Z</time>
      </trkpt>
      <trkpt lat="46.00176" lon="4.75108">
        <ele>176</ele>
        <time>2018-06-05T10:08:28Z</time>
      </trkpt>
      <trkpt lat="46.0017" lon="4.75109">
        <ele>176</ele>
        <time>2018-06-05T10:08:29Z</time>
      </trkpt>
      <trkpt lat="46.00163" lon="4.75106">
        <ele>175</ele>
        <time>2018-06-05T10:08:31Z</time>
      </trkpt>
      <trkpt lat="46.00157" lon="4.75107">
        <ele>175</ele>
        <time>2018-06-05T10:08:32Z</time>
      </trkpt>
      <trkpt lat="46.00153" lon="4.75107">
        <ele>175</ele>
        <time>2018-06-05T10:08:33Z</time>
      </trkpt>
      <trkpt lat="46.00147" lon="4.75108">
        <ele>175</ele>
        <time>2018-06-05T10:08:34Z</time>
      </trkpt>
      <trkpt lat="46.00142" lon="4.75108">
        <ele>175</ele>
        <time>2018-06-05T10:08:35Z</time>
      </trkpt>
      <trkpt lat="46.00138" lon="4.75107">
        <ele>175</ele>
        <time>2018-06-05T10:08:36Z</time>
      </trkpt>
      <trkpt lat="46.00132" lon="4.75107">
        <ele>175</ele>
        <time>2018-06-05T10:08:37Z</time>
      </trkpt>
      <trkpt lat="46.00126" lon="4.75107">
        <ele>175</ele>
        <time>2018-06-05T10:08:38Z</time>
      </trkpt>
      <trkpt lat="46.00122" lon="4.75106">
        <ele>175</ele>
        <time>2018-06-05T10:08:39Z</time>
      </trkpt>
      <trkpt lat="46.00117" lon="4.75107">
        <ele>175</ele>
        <time>2018-06-05T10:08:40Z</time>
      </trkpt>
      <trkpt lat="46.00112" lon="4.75107">
        <ele>175</ele>
        <time>2018-06-05T10:08:41Z</time>
      </trkpt>
      <trkpt lat="46.00107" lon="4.75108">
        <ele>175</ele>
        <time>2018-06-05T10:08:42Z</time>
      </trkpt>
      <trkpt lat="46.00102" lon="4.75107">
        <ele>175</ele>
        <time>2018-06-05T10:08:43Z</time>
      </trkpt>
      <trkpt lat="46.00098" lon="4.75107">
        <ele>175</ele>
        <time>2018-06-05T10:08:44Z</time>
      </trkpt>
      <trkpt lat="46.00092" lon="4.75108">
        <ele>174</ele>
        <time>2018-06-05T10:08:45Z</time>
      </trkpt>
      <trkpt lat="46.00087" lon="4.75107">
        <ele>174</ele>
        <time>2018-06-05T10:08:46Z</time>
      </trkpt>
      <trkpt lat="46.00082" lon="4.75107">
        <ele>174</ele>
        <time>2018-06-05T10:08:47Z</time>
      </trkpt>
      <trkpt lat="46.00078" lon="4.75105">
        <ele>174</ele>
        <time>2018-06-05T10:08:48Z</time>
      </trkpt>
      <trkpt lat="46.00073" lon="4.75105">
        <ele>174</ele>
        <time>2018-06-05T10:08:49Z</time>
      </trkpt>
      <trkpt lat="46.00067" lon="4.75104">
        <ele>174</ele>
        <time>2018-06-05T10:08:50Z</time>
      </trkpt>
      <trkpt lat="46.00063" lon="4.75103">
        <ele>174</ele>
        <time>2018-06-05T10:08:51Z</time>
      </trkpt>
      <trkpt lat="46.00057" lon="4.75103">
        <ele>174</ele>
        <time>2018-06-05T10:08:52Z</time>
      </trkpt>
      <trkpt lat="46.00051" lon="4.75104">
        <ele>174</ele>
        <time>2018-06-05T10:08:53Z</time>
      </trkpt>
      <trkpt lat="46.00045" lon="4.75106">
        <ele>174</ele>
        <time>2018-06-05T10:08:54Z</time>
      </trkpt>
      <trkpt lat="46.00039" lon="4.75107">
        <ele>174</ele>
        <time>2018-06-05T10:08:55Z</time>
      </trkpt>
      <trkpt lat="46.00033" lon="4.75107">
        <ele>174</ele>
        <time>2018-06-05T10:08:56Z</time>
      </trkpt>
      <trkpt lat="46.00026" lon="4.75106">
        <ele>174</ele>
        <time>2018-06-05T10:08:57Z</time>
      </trkpt>
      <trkpt lat="46.00021" lon="4.75106">
        <ele>174</ele>
        <time>2018-06-05T10:08:58Z</time>
      </trkpt>
      <trkpt lat="46.00016" lon="4.75106">
        <ele>174</ele>
        <time>2018-06-05T10:08:59Z</time>
      </trkpt>
      <trkpt lat="46.00011" lon="4.75107">
        <ele>174</ele>
        <time>2018-06-05T10:09:00Z</time>
      </trkpt>
      <trkpt lat="46.00005" lon="4.75109">
        <ele>174</ele>
        <time>2018-06-05T10:09:01Z</time>
      </trkpt>
      <trkpt lat="46.00001" lon="4.75111">
        <ele>174</ele>
        <time>2018-06-05T10:09:02Z</time>
      </trkpt>
      <trkpt lat="45.99995" lon="4.75114">
        <ele>173</ele>
        <time>2018-06-05T10:09:03Z</time>
      </trkpt>
      <trkpt lat="45.99991" lon="4.75117">
        <ele>173</ele>
        <time>2018-06-05T10:09:04Z</time>
      </trkpt>
      <trkpt lat="45.99985" lon="4.75117">
        <ele>173</ele>
        <time>2018-06-05T10:09:05Z</time>
      </trkpt>
      <trkpt lat="45.9998" lon="4.7512">
        <ele>173</ele>
        <time>2018-06-05T10:09:06Z</time>
      </trkpt>
      <trkpt lat="45.99975" lon="4.75122">
        <ele>173</ele>
        <time>2018-06-05T10:09:07Z</time>
      </trkpt>
      <trkpt lat="45.99969" lon="4.75125">
        <ele>173</ele>
        <time>2018-06-05T10:09:08Z</time>
      </trkpt>
      <trkpt lat="45.99963" lon="4.75128">
        <ele>173</ele>
        <time>2018-06-05T10:09:09Z</time>
      </trkpt>
      <trkpt lat="45.99957" lon="4.7513">
        <ele>173</ele>
        <time>2018-06-05T10:09:10Z</time>
      </trkpt>
      <trkpt lat="45.99951" lon="4.75132">
        <ele>172</ele>
        <time>2018-06-05T10:09:11Z</time>
      </trkpt>
      <trkpt lat="45.99943" lon="4.75136">
        <ele>172</ele>
        <time>2018-06-05T10:09:12Z</time>
      </trkpt>
      <trkpt lat="45.99936" lon="4.75139">
        <ele>172</ele>
        <time>2018-06-05T10:09:13Z</time>
      </trkpt>
      <trkpt lat="45.99931" lon="4.75142">
        <ele>173</ele>
        <time>2018-06-05T10:09:14Z</time>
      </trkpt>
      <trkpt lat="45.99925" lon="4.75144">
        <ele>173</ele>
        <time>2018-06-05T10:09:15Z</time>
      </trkpt>
      <trkpt lat="45.99919" lon="4.75147">
        <ele>173</ele>
        <time>2018-06-05T10:09:16Z</time>
      </trkpt>
      <trkpt lat="45.99912" lon="4.7515">
        <ele>172</ele>
        <time>2018-06-05T10:09:17Z</time>
      </trkpt>
      <trkpt lat="45.99907" lon="4.75153">
        <ele>172</ele>
        <time>2018-06-05T10:09:18Z</time>
      </trkpt>
      <trkpt lat="45.99901" lon="4.75155">
        <ele>172</ele>
        <time>2018-06-05T10:09:19Z</time>
      </trkpt>
      <trkpt lat="45.99896" lon="4.75157">
        <ele>172</ele>
        <time>2018-06-05T10:09:20Z</time>
      </trkpt>
      <trkpt lat="45.9989" lon="4.75159">
        <ele>172</ele>
        <time>2018-06-05T10:09:21Z</time>
      </trkpt>
      <trkpt lat="45.99884" lon="4.75162">
        <ele>172</ele>
        <time>2018-06-05T10:09:22Z</time>
      </trkpt>
      <trkpt lat="45.9988" lon="4.75162">
        <ele>172</ele>
        <time>2018-06-05T10:09:23Z</time>
      </trkpt>
      <trkpt lat="45.99875" lon="4.75165">
        <ele>172</ele>
        <time>2018-06-05T10:09:24Z</time>
      </trkpt>
      <trkpt lat="45.99871" lon="4.75169">
        <ele>174</ele>
        <time>2018-06-05T10:09:25Z</time>
      </trkpt>
      <trkpt lat="45.99866" lon="4.75171">
        <ele>174</ele>
        <time>2018-06-05T10:09:26Z</time>
      </trkpt>
      <trkpt lat="45.99861" lon="4.75173">
        <ele>174</ele>
        <time>2018-06-05T10:09:27Z</time>
      </trkpt>
      <trkpt lat="45.99857" lon="4.75176">
        <ele>174</ele>
        <time>2018-06-05T10:09:28Z</time>
      </trkpt>
      <trkpt lat="45.99852" lon="4.75176">
        <ele>174</ele>
        <time>2018-06-05T10:09:29Z</time>
      </trkpt>
      <trkpt lat="45.99848" lon="4.75178">
        <ele>173</ele>
        <time>2018-06-05T10:09:30Z</time>
      </trkpt>
      <trkpt lat="45.99842" lon="4.7518">
        <ele>173</ele>
        <time>2018-06-05T10:09:31Z</time>
      </trkpt>
      <trkpt lat="45.99838" lon="4.75184">
        <ele>174</ele>
        <time>2018-06-05T10:09:32Z</time>
      </trkpt>
      <trkpt lat="45.99833" lon="4.75187">
        <ele>173</ele>
        <time>2018-06-05T10:09:33Z</time>
      </trkpt>
      <trkpt lat="45.99827" lon="4.75191">
        <ele>174</ele>
        <time>2018-06-05T10:09:34Z</time>
      </trkpt>
      <trkpt lat="45.99821" lon="4.75193">
        <ele>174</ele>
        <time>2018-06-05T10:09:35Z</time>
      </trkpt>
      <trkpt lat="45.99816" lon="4.75196">
        <ele>174</ele>
        <time>2018-06-05T10:09:36Z</time>
      </trkpt>
      <trkpt lat="45.9981" lon="4.75198">
        <ele>174</ele>
        <time>2018-06-05T10:09:37Z</time>
      </trkpt>
      <trkpt lat="45.99805" lon="4.752">
        <ele>174</ele>
        <time>2018-06-05T10:09:38Z</time>
      </trkpt>
      <trkpt lat="45.99798" lon="4.75202">
        <ele>174</ele>
        <time>2018-06-05T10:09:39Z</time>
      </trkpt>
      <trkpt lat="45.99793" lon="4.75206">
        <ele>174</ele>
        <time>2018-06-05T10:09:40Z</time>
      </trkpt>
      <trkpt lat="45.99787" lon="4.75209">
        <ele>174</ele>
        <time>2018-06-05T10:09:41Z</time>
      </trkpt>
      <trkpt lat="45.99781" lon="4.7521">
        <ele>174</ele>
        <time>2018-06-05T10:09:42Z</time>
      </trkpt>
      <trkpt lat="45.99776" lon="4.75212">
        <ele>174</ele>
        <time>2018-06-05T10:09:43Z</time>
      </trkpt>
      <trkpt lat="45.9977" lon="4.75214">
        <ele>174</ele>
        <time>2018-06-05T10:09:44Z</time>
      </trkpt>
      <trkpt lat="45.99765" lon="4.75217">
        <ele>175</ele>
        <time>2018-06-05T10:09:45Z</time>
      </trkpt>
      <trkpt lat="45.9976" lon="4.75219">
        <ele>175</ele>
        <time>2018-06-05T10:09:46Z</time>
      </trkpt>
      <trkpt lat="45.99755" lon="4.75221">
        <ele>175</ele>
        <time>2018-06-05T10:09:47Z</time>
      </trkpt>
      <trkpt lat="45.9975" lon="4.75226">
        <ele>175</ele>
        <time>2018-06-05T10:09:48Z</time>
      </trkpt>
      <trkpt lat="45.99744" lon="4.75229">
        <ele>175</ele>
        <time>2018-06-05T10:09:49Z</time>
      </trkpt>
      <trkpt lat="45.99739" lon="4.75232">
        <ele>175</ele>
        <time>2018-06-05T10:09:50Z</time>
      </trkpt>
      <trkpt lat="45.99734" lon="4.75236">
        <ele>175</ele>
        <time>2018-06-05T10:09:51Z</time>
      </trkpt>
      <trkpt lat="45.99728" lon="4.7524">
        <ele>175</ele>
        <time>2018-06-05T10:09:52Z</time>
      </trkpt>
      <trkpt lat="45.99723" lon="4.75242">
        <ele>174</ele>
        <time>2018-06-05T10:09:53Z</time>
      </trkpt>
      <trkpt lat="45.99717" lon="4.75244">
        <ele>174</ele>
        <time>2018-06-05T10:09:54Z</time>
      </trkpt>
      <trkpt lat="45.99712" lon="4.75247">
        <ele>174</ele>
        <time>2018-06-05T10:09:55Z</time>
      </trkpt>
      <trkpt lat="45.99707" lon="4.75251">
        <ele>176</ele>
        <time>2018-06-05T10:09:56Z</time>
      </trkpt>
      <trkpt lat="45.99702" lon="4.75254">
        <ele>176</ele>
        <time>2018-06-05T10:09:57Z</time>
      </trkpt>
      <trkpt lat="45.99696" lon="4.75256">
        <ele>176</ele>
        <time>2018-06-05T10:09:58Z</time>
      </trkpt>
      <trkpt lat="45.99691" lon="4.75259">
        <ele>176</ele>
        <time>2018-06-05T10:09:59Z</time>
      </trkpt>
      <trkpt lat="45.99685" lon="4.75262">
        <ele>175</ele>
        <time>2018-06-05T10:10:00Z</time>
      </trkpt>
      <trkpt lat="45.99679" lon="4.75261">
        <ele>175</ele>
        <time>2018-06-05T10:10:01Z</time>
      </trkpt>
      <trkpt lat="45.99674" lon="4.75264">
        <ele>175</ele>
        <time>2018-06-05T10:10:02Z</time>
      </trkpt>
      <trkpt lat="45.99669" lon="4.75265">
        <ele>175</ele>
        <time>2018-06-05T10:10:03Z</time>
      </trkpt>
      <trkpt lat="45.99664" lon="4.75267">
        <ele>174</ele>
        <time>2018-06-05T10:10:04Z</time>
      </trkpt>
      <trkpt lat="45.99658" lon="4.75268">
        <ele>174</ele>
        <time>2018-06-05T10:10:05Z</time>
      </trkpt>
      <trkpt lat="45.99654" lon="4.75269">
        <ele>174</ele>
        <time>2018-06-05T10:10:06Z</time>
      </trkpt>
      <trkpt lat="45.99649" lon="4.7527">
        <ele>174</ele>
        <time>2018-06-05T10:10:07Z</time>
      </trkpt>
      <trkpt lat="45.99644" lon="4.7527">
        <ele>174</ele>
        <time>2018-06-05T10:10:08Z</time>
      </trkpt>
      <trkpt lat="45.99636" lon="4.7527">
        <ele>174</ele>
        <time>2018-06-05T10:10:10Z</time>
      </trkpt>
      <trkpt lat="45.99632" lon="4.75269">
        <ele>174</ele>
        <time>2018-06-05T10:10:11Z</time>
      </trkpt>
      <trkpt lat="45.99624" lon="4.75267">
        <ele>174</ele>
        <time>2018-06-05T10:10:13Z</time>
      </trkpt>
      <trkpt lat="45.99619" lon="4.75268">
        <ele>174</ele>
        <time>2018-06-05T10:10:14Z</time>
      </trkpt>
      <trkpt lat="45.99611" lon="4.75269">
        <ele>173</ele>
        <time>2018-06-05T10:10:16Z</time>
      </trkpt>
      <trkpt lat="45.99608" lon="4.7527">
        <ele>173</ele>
        <time>2018-06-05T10:10:17Z</time>
      </trkpt>
      <trkpt lat="45.99599" lon="4.75272">
        <ele>173</ele>
        <time>2018-06-05T10:10:19Z</time>
      </trkpt>
      <trkpt lat="45.99595" lon="4.75271">
        <ele>173</ele>
        <time>2018-06-05T10:10:20Z</time>
      </trkpt>
      <trkpt lat="45.99588" lon="4.75265">
        <ele>173</ele>
        <time>2018-06-05T10:10:22Z</time>
      </trkpt>
      <trkpt lat="45.99583" lon="4.75262">
        <ele>172</ele>
        <time>2018-06-05T10:10:23Z</time>
      </trkpt>
      <trkpt lat="45.99578" lon="4.75261">
        <ele>172</ele>
        <time>2018-06-05T10:10:24Z</time>
      </trkpt>
      <trkpt lat="45.99573" lon="4.7526">
        <ele>172</ele>
        <time>2018-06-05T10:10:25Z</time>
      </trkpt>
      <trkpt lat="45.99565" lon="4.75264">
        <ele>172</ele>
        <time>2018-06-05T10:10:27Z</time>
      </trkpt>
      <trkpt lat="45.99561" lon="4.75268">
        <ele>172</ele>
        <time>2018-06-05T10:10:28Z</time>
      </trkpt>
      <trkpt lat="45.99557" lon="4.75274">
        <ele>172</ele>
        <time>2018-06-05T10:10:29Z</time>
      </trkpt>
      <trkpt lat="45.99553" lon="4.75279">
        <ele>172</ele>
        <time>2018-06-05T10:10:30Z</time>
      </trkpt>
      <trkpt lat="45.9955" lon="4.75284">
        <ele>172</ele>
        <time>2018-06-05T10:10:31Z</time>
      </trkpt>
      <trkpt lat="45.99546" lon="4.75288">
        <ele>172</ele>
        <time>2018-06-05T10:10:32Z</time>
      </trkpt>
      <trkpt lat="45.99542" lon="4.7529">
        <ele>172</ele>
        <time>2018-06-05T10:10:33Z</time>
      </trkpt>
      <trkpt lat="45.99538" lon="4.75292">
        <ele>172</ele>
        <time>2018-06-05T10:10:34Z</time>
      </trkpt>
      <trkpt lat="45.99533" lon="4.75293">
        <ele>172</ele>
        <time>2018-06-05T10:10:35Z</time>
      </trkpt>
      <trkpt lat="45.99526" lon="4.75293">
        <ele>172</ele>
        <time>2018-06-05T10:10:36Z</time>
      </trkpt>
      <trkpt lat="45.99521" lon="4.75294">
        <ele>172</ele>
        <time>2018-06-05T10:10:37Z</time>
      </trkpt>
      <trkpt lat="45.99516" lon="4.75295">
        <ele>172</ele>
        <time>2018-06-05T10:10:38Z</time>
      </trkpt>
      <trkpt lat="45.99511" lon="4.75296">
        <ele>172</ele>
        <time>2018-06-05T10:10:39Z</time>
      </trkpt>
      <trkpt lat="45.99505" lon="4.75296">
        <ele>172</ele>
        <time>2018-06-05T10:10:40Z</time>
      </trkpt>
      <trkpt lat="45.995" lon="4.75298">
        <ele>171</ele>
        <time>2018-06-05T10:10:41Z</time>
      </trkpt>
      <trkpt lat="45.99495" lon="4.75298">
        <ele>171</ele>
        <time>2018-06-05T10:10:42Z</time>
      </trkpt>
      <trkpt lat="45.9949" lon="4.75301">
        <ele>171</ele>
        <time>2018-06-05T10:10:43Z</time>
      </trkpt>
      <trkpt lat="45.99485" lon="4.75303">
        <ele>171</ele>
        <time>2018-06-05T10:10:44Z</time>
      </trkpt>
      <trkpt lat="45.99479" lon="4.75302">
        <ele>171</ele>
        <time>2018-06-05T10:10:45Z</time>
      </trkpt>
      <trkpt lat="45.99474" lon="4.75304">
        <ele>171</ele>
        <time>2018-06-05T10:10:46Z</time>
      </trkpt>
      <trkpt lat="45.99468" lon="4.75304">
        <ele>171</ele>
        <time>2018-06-05T10:10:47Z</time>
      </trkpt>
      <trkpt lat="45.99462" lon="4.75304">
        <ele>171</ele>
        <time>2018-06-05T10:10:48Z</time>
      </trkpt>
      <trkpt lat="45.99456" lon="4.75304">
        <ele>171</ele>
        <time>2018-06-05T10:10:49Z</time>
      </trkpt>
      <trkpt lat="45.9945" lon="4.75305">
        <ele>171</ele>
        <time>2018-06-05T10:10:50Z</time>
      </trkpt>
      <trkpt lat="45.99445" lon="4.75307">
        <ele>171</ele>
        <time>2018-06-05T10:10:51Z</time>
      </trkpt>
      <trkpt lat="45.99439" lon="4.75308">
        <ele>171</ele>
        <time>2018-06-05T10:10:52Z</time>
      </trkpt>
      <trkpt lat="45.99433" lon="4.75308">
        <ele>171</ele>
        <time>2018-06-05T10:10:53Z</time>
      </trkpt>
      <trkpt lat="45.99426" lon="4.75308">
        <ele>171</ele>
        <time>2018-06-05T10:10:54Z</time>
      </trkpt>
      <trkpt lat="45.9942" lon="4.7531">
        <ele>171</ele>
        <time>2018-06-05T10:10:55Z</time>
      </trkpt>
      <trkpt lat="45.99415" lon="4.75312">
        <ele>170</ele>
        <time>2018-06-05T10:10:56Z</time>
      </trkpt>
      <trkpt lat="45.9941" lon="4.75315">
        <ele>170</ele>
        <time>2018-06-05T10:10:57Z</time>
      </trkpt>
      <trkpt lat="45.99404" lon="4.75318">
        <ele>170</ele>
        <time>2018-06-05T10:10:58Z</time>
      </trkpt>
      <trkpt lat="45.99399" lon="4.75321">
        <ele>170</ele>
        <time>2018-06-05T10:10:59Z</time>
      </trkpt>
      <trkpt lat="45.99394" lon="4.75324">
        <ele>170</ele>
        <time>2018-06-05T10:11:00Z</time>
      </trkpt>
      <trkpt lat="45.99389" lon="4.75327">
        <ele>170</ele>
        <time>2018-06-05T10:11:01Z</time>
      </trkpt>
      <trkpt lat="45.99384" lon="4.75331">
        <ele>170</ele>
        <time>2018-06-05T10:11:02Z</time>
      </trkpt>
      <trkpt lat="45.9938" lon="4.75338">
        <ele>171</ele>
        <time>2018-06-05T10:11:03Z</time>
      </trkpt>
      <trkpt lat="45.99375" lon="4.75343">
        <ele>172</ele>
        <time>2018-06-05T10:11:04Z</time>
      </trkpt>
      <trkpt lat="45.99372" lon="4.75351">
        <ele>172</ele>
        <time>2018-06-05T10:11:05Z</time>
      </trkpt>
      <trkpt lat="45.99369" lon="4.75356">
        <ele>172</ele>
        <time>2018-06-05T10:11:06Z</time>
      </trkpt>
      <trkpt lat="45.99365" lon="4.75362">
        <ele>172</ele>
        <time>2018-06-05T10:11:07Z</time>
      </trkpt>
      <trkpt lat="45.99362" lon="4.75368">
        <ele>172</ele>
        <time>2018-06-05T10:11:08Z</time>
      </trkpt>
      <trkpt lat="45.99359" lon="4.75375">
        <ele>172</ele>
        <time>2018-06-05T10:11:09Z</time>
      </trkpt>
      <trkpt lat="45.99356" lon="4.75381">
        <ele>172</ele>
        <time>2018-06-05T10:11:10Z</time>
      </trkpt>
      <trkpt lat="45.99353" lon="4.75387">
        <ele>172</ele>
        <time>2018-06-05T10:11:11Z</time>
      </trkpt>
      <trkpt lat="45.99349" lon="4.75392">
        <ele>172</ele>
        <time>2018-06-05T10:11:12Z</time>
      </trkpt>
      <trkpt lat="45.99346" lon="4.75397">
        <ele>173</ele>
        <time>2018-06-05T10:11:13Z</time>
      </trkpt>
      <trkpt lat="45.99343" lon="4.75404">
        <ele>173</ele>
        <time>2018-06-05T10:11:14Z</time>
      </trkpt>
      <trkpt lat="45.99341" lon="4.7541">
        <ele>173</ele>
        <time>2018-06-05T10:11:15Z</time>
      </trkpt>
      <trkpt lat="45.99339" lon="4.75417">
        <ele>174</ele>
        <time>2018-06-05T10:11:16Z</time>
      </trkpt>
      <trkpt lat="45.99337" lon="4.75425">
        <ele>174</ele>
        <time>2018-06-05T10:11:17Z</time>
      </trkpt>
      <trkpt lat="45.99336" lon="4.75432">
        <ele>175</ele>
        <time>2018-06-05T10:11:18Z</time>
      </trkpt>
      <trkpt lat="45.99334" lon="4.75438">
        <ele>176</ele>
        <time>2018-06-05T10:11:19Z</time>
      </trkpt>
      <trkpt lat="45.99333" lon="4.75444">
        <ele>173</ele>
        <time>2018-06-05T10:11:20Z</time>
      </trkpt>
      <trkpt lat="45.99331" lon="4.75451">
        <ele>174</ele>
        <time>2018-06-05T10:11:21Z</time>
      </trkpt>
      <trkpt lat="45.99329" lon="4.75457">
        <ele>174</ele>
        <time>2018-06-05T10:11:22Z</time>
      </trkpt>
      <trkpt lat="45.99326" lon="4.75463">
        <ele>174</ele>
        <time>2018-06-05T10:11:23Z</time>
      </trkpt>
      <trkpt lat="45.99322" lon="4.75471">
        <ele>174</ele>
        <time>2018-06-05T10:11:24Z</time>
      </trkpt>
      <trkpt lat="45.99318" lon="4.75477">
        <ele>174</ele>
        <time>2018-06-05T10:11:25Z</time>
      </trkpt>
      <trkpt lat="45.99314" lon="4.75484">
        <ele>174</ele>
        <time>2018-06-05T10:11:26Z</time>
      </trkpt>
      <trkpt lat="45.99311" lon="4.7549">
        <ele>174</ele>
        <time>2018-06-05T10:11:27Z</time>
      </trkpt>
      <trkpt lat="45.99306" lon="4.75494">
        <ele>174</ele>
        <time>2018-06-05T10:11:28Z</time>
      </trkpt>
      <trkpt lat="45.99302" lon="4.75498">
        <ele>174</ele>
        <time>2018-06-05T10:11:29Z</time>
      </trkpt>
      <trkpt lat="45.99298" lon="4.75503">
        <ele>176</ele>
        <time>2018-06-05T10:11:30Z</time>
      </trkpt>
      <trkpt lat="45.99294" lon="4.75508">
        <ele>176</ele>
        <time>2018-06-05T10:11:31Z</time>
      </trkpt>
      <trkpt lat="45.9929" lon="4.75513">
        <ele>176</ele>
        <time>2018-06-05T10:11:32Z</time>
      </trkpt>
      <trkpt lat="45.99286" lon="4.75518">
        <ele>176</ele>
        <time>2018-06-05T10:11:33Z</time>
      </trkpt>
      <trkpt lat="45.99282" lon="4.75523">
        <ele>176</ele>
        <time>2018-06-05T10:11:34Z</time>
      </trkpt>
      <trkpt lat="45.99278" lon="4.75527">
        <ele>176</ele>
        <time>2018-06-05T10:11:35Z</time>
      </trkpt>
      <trkpt lat="45.99274" lon="4.75533">
        <ele>176</ele>
        <time>2018-06-05T10:11:36Z</time>
      </trkpt>
      <trkpt lat="45.9927" lon="4.75537">
        <ele>176</ele>
        <time>2018-06-05T10:11:37Z</time>
      </trkpt>
      <trkpt lat="45.99265" lon="4.75539">
        <ele>176</ele>
        <time>2018-06-05T10:11:38Z</time>
      </trkpt>
      <trkpt lat="45.99261" lon="4.75543">
        <ele>176</ele>
        <time>2018-06-05T10:11:39Z</time>
      </trkpt>
      <trkpt lat="45.99257" lon="4.75545">
        <ele>176</ele>
        <time>2018-06-05T10:11:40Z</time>
      </trkpt>
      <trkpt lat="45.99249" lon="4.75552">
        <ele>175</ele>
        <time>2018-06-05T10:11:42Z</time>
      </trkpt>
      <trkpt lat="45.99245" lon="4.75555">
        <ele>175</ele>
        <time>2018-06-05T10:11:43Z</time>
      </trkpt>
      <trkpt lat="45.99241" lon="4.75557">
        <ele>175</ele>
        <time>2018-06-05T10:11:44Z</time>
      </trkpt>
      <trkpt lat="45.99237" lon="4.7556">
        <ele>175</ele>
        <time>2018-06-05T10:11:45Z</time>
      </trkpt>
      <trkpt lat="45.99232" lon="4.75562">
        <ele>175</ele>
        <time>2018-06-05T10:11:46Z</time>
      </trkpt>
      <trkpt lat="45.99228" lon="4.75568">
        <ele>175</ele>
        <time>2018-06-05T10:11:47Z</time>
      </trkpt>
      <trkpt lat="45.99224" lon="4.7557">
        <ele>175</ele>
        <time>2018-06-05T10:11:48Z</time>
      </trkpt>
      <trkpt lat="45.9922" lon="4.75573">
        <ele>175</ele>
        <time>2018-06-05T10:11:49Z</time>
      </trkpt>
      <trkpt lat="45.99216" lon="4.75576">
        <ele>175</ele>
        <time>2018-06-05T10:11:50Z</time>
      </trkpt>
      <trkpt lat="45.99211" lon="4.75579">
        <ele>175</ele>
        <time>2018-06-05T10:11:51Z</time>
      </trkpt>
      <trkpt lat="45.99207" lon="4.7558">
        <ele>175</ele>
        <time>2018-06-05T10:11:52Z</time>
      </trkpt>
      <trkpt lat="45.99202" lon="4.75583">
        <ele>175</ele>
        <time>2018-06-05T10:11:53Z</time>
      </trkpt>
      <trkpt lat="45.99198" lon="4.75585">
        <ele>178</ele>
        <time>2018-06-05T10:11:54Z</time>
      </trkpt>
      <trkpt lat="45.99193" lon="4.75589">
        <ele>178</ele>
        <time>2018-06-05T10:11:55Z</time>
      </trkpt>
      <trkpt lat="45.9919" lon="4.75592">
        <ele>178</ele>
        <time>2018-06-05T10:11:56Z</time>
      </trkpt>
      <trkpt lat="45.99186" lon="4.75596">
        <ele>177</ele>
        <time>2018-06-05T10:11:57Z</time>
      </trkpt>
      <trkpt lat="45.9918" lon="4.75597">
        <ele>177</ele>
        <time>2018-06-05T10:11:58Z</time>
      </trkpt>
      <trkpt lat="45.99176" lon="4.75599">
        <ele>177</ele>
        <time>2018-06-05T10:11:59Z</time>
      </trkpt>
      <trkpt lat="45.99167" lon="4.75602">
        <ele>177</ele>
        <time>2018-06-05T10:12:01Z</time>
      </trkpt>
      <trkpt lat="45.99163" lon="4.75602">
        <ele>176</ele>
        <time>2018-06-05T10:12:02Z</time>
      </trkpt>
      <trkpt lat="45.99158" lon="4.75604">
        <ele>176</ele>
        <time>2018-06-05T10:12:03Z</time>
      </trkpt>
      <trkpt lat="45.99153" lon="4.75603">
        <ele>176</ele>
        <time>2018-06-05T10:12:04Z</time>
      </trkpt>
      <trkpt lat="45.99148" lon="4.75607">
        <ele>176</ele>
        <time>2018-06-05T10:12:05Z</time>
      </trkpt>
      <trkpt lat="45.99141" lon="4.75608">
        <ele>176</ele>
        <time>2018-06-05T10:12:06Z</time>
      </trkpt>
      <trkpt lat="45.99135" lon="4.75607">
        <ele>176</ele>
        <time>2018-06-05T10:12:07Z</time>
      </trkpt>
      <trkpt lat="45.99129" lon="4.7561">
        <ele>177</ele>
        <time>2018-06-05T10:12:08Z</time>
      </trkpt>
      <trkpt lat="45.99124" lon="4.75615">
        <ele>177</ele>
        <time>2018-06-05T10:12:09Z</time>
      </trkpt>
      <trkpt lat="45.99121" lon="4.7562">
        <ele>177</ele>
        <time>2018-06-05T10:12:10Z</time>
      </trkpt>
      <trkpt lat="45.99117" lon="4.75627">
        <ele>177</ele>
        <time>2018-06-05T10:12:11Z</time>
      </trkpt>
      <trkpt lat="45.99115" lon="4.75635">
        <ele>177</ele>
        <time>2018-06-05T10:12:12Z</time>
      </trkpt>
      <trkpt lat="45.99109" lon="4.75639">
        <ele>178</ele>
        <time>2018-06-05T10:12:13Z</time>
      </trkpt>
      <trkpt lat="45.99105" lon="4.75644">
        <ele>178</ele>
        <time>2018-06-05T10:12:14Z</time>
      </trkpt>
      <trkpt lat="45.991" lon="4.75648">
        <ele>178</ele>
        <time>2018-06-05T10:12:15Z</time>
      </trkpt>
      <trkpt lat="45.99096" lon="4.75652">
        <ele>178</ele>
        <time>2018-06-05T10:12:16Z</time>
      </trkpt>
      <trkpt lat="45.99091" lon="4.75654">
        <ele>179</ele>
        <time>2018-06-05T10:12:17Z</time>
      </trkpt>
      <trkpt lat="45.99086" lon="4.75656">
        <ele>179</ele>
        <time>2018-06-05T10:12:18Z</time>
      </trkpt>
      <trkpt lat="45.99081" lon="4.75658">
        <ele>179</ele>
        <time>2018-06-05T10:12:19Z</time>
      </trkpt>
      <trkpt lat="45.99075" lon="4.75659">
        <ele>179</ele>
        <time>2018-06-05T10:12:20Z</time>
      </trkpt>
      <trkpt lat="45.99069" lon="4.75659">
        <ele>178</ele>
        <time>2018-06-05T10:12:21Z</time>
      </trkpt>
      <trkpt lat="45.99063" lon="4.75661">
        <ele>178</ele>
        <time>2018-06-05T10:12:22Z</time>
      </trkpt>
      <trkpt lat="45.99058" lon="4.75662">
        <ele>178</ele>
        <time>2018-06-05T10:12:23Z</time>
      </trkpt>
      <trkpt lat="45.99052" lon="4.75662">
        <ele>178</ele>
        <time>2018-06-05T10:12:24Z</time>
      </trkpt>
      <trkpt lat="45.99046" lon="4.75656">
        <ele>178</ele>
        <time>2018-06-05T10:12:25Z</time>
      </trkpt>
      <trkpt lat="45.99041" lon="4.75654">
        <ele>178</ele>
        <time>2018-06-05T10:12:26Z</time>
      </trkpt>
      <trkpt lat="45.99035" lon="4.75654">
        <ele>178</ele>
        <time>2018-06-05T10:12:27Z</time>
      </trkpt>
      <trkpt lat="45.9903" lon="4.75653">
        <ele>178</ele>
        <time>2018-06-05T10:12:28Z</time>
      </trkpt>
      <trkpt lat="45.99024" lon="4.75652">
        <ele>178</ele>
        <time>2018-06-05T10:12:29Z</time>
      </trkpt>
      <trkpt lat="45.99019" lon="4.75654">
        <ele>178</ele>
        <time>2018-06-05T10:12:30Z</time>
      </trkpt>
      <trkpt lat="45.99014" lon="4.75655">
        <ele>178</ele>
        <time>2018-06-05T10:12:31Z</time>
      </trkpt>
      <trkpt lat="45.9901" lon="4.75656">
        <ele>178</ele>
        <time>2018-06-05T10:12:32Z</time>
      </trkpt>
      <trkpt lat="45.99004" lon="4.75654">
        <ele>179</ele>
        <time>2018-06-05T10:12:33Z</time>
      </trkpt>
      <trkpt lat="45.98999" lon="4.75655">
        <ele>178</ele>
        <time>2018-06-05T10:12:34Z</time>
      </trkpt>
      <trkpt lat="45.98994" lon="4.75655">
        <ele>178</ele>
        <time>2018-06-05T10:12:35Z</time>
      </trkpt>
      <trkpt lat="45.98988" lon="4.75656">
        <ele>178</ele>
        <time>2018-06-05T10:12:36Z</time>
      </trkpt>
      <trkpt lat="45.98982" lon="4.75657">
        <ele>178</ele>
        <time>2018-06-05T10:12:37Z</time>
      </trkpt>
      <trkpt lat="45.98978" lon="4.75657">
        <ele>177</ele>
        <time>2018-06-05T10:12:38Z</time>
      </trkpt>
      <trkpt lat="45.98973" lon="4.75657">
        <ele>177</ele>
        <time>2018-06-05T10:12:39Z</time>
      </trkpt>
      <trkpt lat="45.98969" lon="4.75664">
        <ele>177</ele>
        <time>2018-06-05T10:12:40Z</time>
      </trkpt>
      <trkpt lat="45.98964" lon="4.75665">
        <ele>177</ele>
        <time>2018-06-05T10:12:41Z</time>
      </trkpt>
      <trkpt lat="45.98959" lon="4.75667">
        <ele>181</ele>
        <time>2018-06-05T10:12:42Z</time>
      </trkpt>
      <trkpt lat="45.98954" lon="4.75669">
        <ele>181</ele>
        <time>2018-06-05T10:12:43Z</time>
      </trkpt>
      <trkpt lat="45.98949" lon="4.75671">
        <ele>181</ele>
        <time>2018-06-05T10:12:44Z</time>
      </trkpt>
      <trkpt lat="45.98944" lon="4.75673">
        <ele>181</ele>
        <time>2018-06-05T10:12:45Z</time>
      </trkpt>
      <trkpt lat="45.98939" lon="4.75676">
        <ele>180</ele>
        <time>2018-06-05T10:12:46Z</time>
      </trkpt>
      <trkpt lat="45.98934" lon="4.75678">
        <ele>180</ele>
        <time>2018-06-05T10:12:47Z</time>
      </trkpt>
      <trkpt lat="45.98929" lon="4.75682">
        <ele>180</ele>
        <time>2018-06-05T10:12:48Z</time>
      </trkpt>
      <trkpt lat="45.98923" lon="4.75684">
        <ele>180</ele>
        <time>2018-06-05T10:12:49Z</time>
      </trkpt>
      <trkpt lat="45.98918" lon="4.7569">
        <ele>180</ele>
        <time>2018-06-05T10:12:50Z</time>
      </trkpt>
      <trkpt lat="45.98912" lon="4.75694">
        <ele>179</ele>
        <time>2018-06-05T10:12:51Z</time>
      </trkpt>
      <trkpt lat="45.98907" lon="4.75696">
        <ele>180</ele>
        <time>2018-06-05T10:12:52Z</time>
      </trkpt>
      <trkpt lat="45.98901" lon="4.75698">
        <ele>180</ele>
        <time>2018-06-05T10:12:53Z</time>
      </trkpt>
      <trkpt lat="45.98896" lon="4.75701">
        <ele>180</ele>
        <time>2018-06-05T10:12:54Z</time>
      </trkpt>
      <trkpt lat="45.98891" lon="4.75703">
        <ele>180</ele>
        <time>2018-06-05T10:12:55Z</time>
      </trkpt>
      <trkpt lat="45.98885" lon="4.75704">
        <ele>180</ele>
        <time>2018-06-05T10:12:56Z</time>
      </trkpt>
      <trkpt lat="45.98881" lon="4.75705">
        <ele>180</ele>
        <time>2018-06-05T10:12:57Z</time>
      </trkpt>
      <trkpt lat="45.98876" lon="4.75708">
        <ele>180</ele>
        <time>2018-06-05T10:12:58Z</time>
      </trkpt>
      <trkpt lat="45.98871" lon="4.7571">
        <ele>180</ele>
        <time>2018-06-05T10:12:59Z</time>
      </trkpt>
      <trkpt lat="45.98866" lon="4.75711">
        <ele>180</ele>
        <time>2018-06-05T10:13:00Z</time>
      </trkpt>
      <trkpt lat="45.98861" lon="4.75711">
        <ele>180</ele>
        <time>2018-06-05T10:13:01Z</time>
      </trkpt>
      <trkpt lat="45.98856" lon="4.75713">
        <ele>180</ele>
        <time>2018-06-05T10:13:02Z</time>
      </trkpt>
      <trkpt lat="45.98851" lon="4.75714">
        <ele>180</ele>
        <time>2018-06-05T10:13:03Z</time>
      </trkpt>
      <trkpt lat="45.98846" lon="4.75713">
        <ele>180</ele>
        <time>2018-06-05T10:13:04Z</time>
      </trkpt>
      <trkpt lat="45.98841" lon="4.75713">
        <ele>180</ele>
        <time>2018-06-05T10:13:05Z</time>
      </trkpt>
      <trkpt lat="45.98835" lon="4.75714">
        <ele>180</ele>
        <time>2018-06-05T10:13:06Z</time>
      </trkpt>
      <trkpt lat="45.98829" lon="4.75715">
        <ele>179</ele>
        <time>2018-06-05T10:13:07Z</time>
      </trkpt>
      <trkpt lat="45.98824" lon="4.75715">
        <ele>179</ele>
        <time>2018-06-05T10:13:08Z</time>
      </trkpt>
      <trkpt lat="45.98818" lon="4.75716">
        <ele>179</ele>
        <time>2018-06-05T10:13:09Z</time>
      </trkpt>
      <trkpt lat="45.98812" lon="4.75717">
        <ele>179</ele>
        <time>2018-06-05T10:13:10Z</time>
      </trkpt>
      <trkpt lat="45.98806" lon="4.75716">
        <ele>179</ele>
        <time>2018-06-05T10:13:11Z</time>
      </trkpt>
      <trkpt lat="45.988" lon="4.75716">
        <ele>178</ele>
        <time>2018-06-05T10:13:12Z</time>
      </trkpt>
      <trkpt lat="45.98795" lon="4.75715">
        <ele>178</ele>
        <time>2018-06-05T10:13:13Z</time>
      </trkpt>
      <trkpt lat="45.98789" lon="4.75715">
        <ele>178</ele>
        <time>2018-06-05T10:13:14Z</time>
      </trkpt>
      <trkpt lat="45.98785" lon="4.75717">
        <ele>178</ele>
        <time>2018-06-05T10:13:15Z</time>
      </trkpt>
      <trkpt lat="45.9878" lon="4.75716">
        <ele>178</ele>
        <time>2018-06-05T10:13:16Z</time>
      </trkpt>
      <trkpt lat="45.98775" lon="4.75714">
        <ele>178</ele>
        <time>2018-06-05T10:13:17Z</time>
      </trkpt>
      <trkpt lat="45.9877" lon="4.75712">
        <ele>178</ele>
        <time>2018-06-05T10:13:18Z</time>
      </trkpt>
      <trkpt lat="45.98764" lon="4.75718">
        <ele>178</ele>
        <time>2018-06-05T10:13:19Z</time>
      </trkpt>
      <trkpt lat="45.9876" lon="4.75721">
        <ele>178</ele>
        <time>2018-06-05T10:13:20Z</time>
      </trkpt>
      <trkpt lat="45.98755" lon="4.75723">
        <ele>178</ele>
        <time>2018-06-05T10:13:21Z</time>
      </trkpt>
      <trkpt lat="45.98751" lon="4.75725">
        <ele>178</ele>
        <time>2018-06-05T10:13:22Z</time>
      </trkpt>
      <trkpt lat="45.98746" lon="4.75725">
        <ele>177</ele>
        <time>2018-06-05T10:13:23Z</time>
      </trkpt>
      <trkpt lat="45.98741" lon="4.75724">
        <ele>177</ele>
        <time>2018-06-05T10:13:24Z</time>
      </trkpt>
      <trkpt lat="45.98735" lon="4.75723">
        <ele>177</ele>
        <time>2018-06-05T10:13:25Z</time>
      </trkpt>
      <trkpt lat="45.98729" lon="4.75723">
        <ele>177</ele>
        <time>2018-06-05T10:13:26Z</time>
      </trkpt>
      <trkpt lat="45.98724" lon="4.75724">
        <ele>177</ele>
        <time>2018-06-05T10:13:27Z</time>
      </trkpt>
      <trkpt lat="45.98719" lon="4.75724">
        <ele>177</ele>
        <time>2018-06-05T10:13:28Z</time>
      </trkpt>
      <trkpt lat="45.98713" lon="4.75723">
        <ele>177</ele>
        <time>2018-06-05T10:13:29Z</time>
      </trkpt>
      <trkpt lat="45.98706" lon="4.75722">
        <ele>177</ele>
        <time>2018-06-05T10:13:30Z</time>
      </trkpt>
      <trkpt lat="45.98701" lon="4.75722">
        <ele>177</ele>
        <time>2018-06-05T10:13:31Z</time>
      </trkpt>
      <trkpt lat="45.98694" lon="4.75726">
        <ele>177</ele>
        <time>2018-06-05T10:13:32Z</time>
      </trkpt>
      <trkpt lat="45.98688" lon="4.75726">
        <ele>177</ele>
        <time>2018-06-05T10:13:33Z</time>
      </trkpt>
      <trkpt lat="45.98682" lon="4.75724">
        <ele>177</ele>
        <time>2018-06-05T10:13:34Z</time>
      </trkpt>
      <trkpt lat="45.98676" lon="4.75725">
        <ele>177</ele>
        <time>2018-06-05T10:13:35Z</time>
      </trkpt>
      <trkpt lat="45.9867" lon="4.75725">
        <ele>177</ele>
        <time>2018-06-05T10:13:36Z</time>
      </trkpt>
      <trkpt lat="45.98664" lon="4.75725">
        <ele>176</ele>
        <time>2018-06-05T10:13:37Z</time>
      </trkpt>
      <trkpt lat="45.98658" lon="4.75725">
        <ele>176</ele>
        <time>2018-06-05T10:13:38Z</time>
      </trkpt>
      <trkpt lat="45.98651" lon="4.7573">
        <ele>176</ele>
        <time>2018-06-05T10:13:39Z</time>
      </trkpt>
      <trkpt lat="45.98646" lon="4.7573">
        <ele>176</ele>
        <time>2018-06-05T10:13:40Z</time>
      </trkpt>
      <trkpt lat="45.9864" lon="4.7573">
        <ele>175</ele>
        <time>2018-06-05T10:13:41Z</time>
      </trkpt>
      <trkpt lat="45.98633" lon="4.75731">
        <ele>175</ele>
        <time>2018-06-05T10:13:42Z</time>
      </trkpt>
      <trkpt lat="45.98627" lon="4.75731">
        <ele>175</ele>
        <time>2018-06-05T10:13:43Z</time>
      </trkpt>
      <trkpt lat="45.98621" lon="4.7573">
        <ele>175</ele>
        <time>2018-06-05T10:13:44Z</time>
      </trkpt>
      <trkpt lat="45.98616" lon="4.75729">
        <ele>175</ele>
        <time>2018-06-05T10:13:45Z</time>
      </trkpt>
      <trkpt lat="45.9861" lon="4.75729">
        <ele>175</ele>
        <time>2018-06-05T10:13:46Z</time>
      </trkpt>
      <trkpt lat="45.98605" lon="4.75727">
        <ele>174</ele>
        <time>2018-06-05T10:13:47Z</time>
      </trkpt>
      <trkpt lat="45.986" lon="4.75726">
        <ele>174</ele>
        <time>2018-06-05T10:13:48Z</time>
      </trkpt>
      <trkpt lat="45.98598" lon="4.75725">
        <ele>174</ele>
        <time>2018-06-05T10:13:49Z</time>
      </trkpt>
      <trkpt lat="45.98591" lon="4.75723">
        <ele>174</ele>
        <time>2018-06-05T10:13:50Z</time>
      </trkpt>
      <trkpt lat="45.98587" lon="4.75722">
        <ele>174</ele>
        <time>2018-06-05T10:13:51Z</time>
      </trkpt>
      <trkpt lat="45.98581" lon="4.7572">
        <ele>174</ele>
        <time>2018-06-05T10:13:52Z</time>
      </trkpt>
      <trkpt lat="45.98576" lon="4.75719">
        <ele>174</ele>
        <time>2018-06-05T10:13:53Z</time>
      </trkpt>
      <trkpt lat="45.98572" lon="4.75717">
        <ele>174</ele>
        <time>2018-06-05T10:13:54Z</time>
      </trkpt>
      <trkpt lat="45.98566" lon="4.75717">
        <ele>174</ele>
        <time>2018-06-05T10:13:55Z</time>
      </trkpt>
      <trkpt lat="45.9856" lon="4.75715">
        <ele>174</ele>
        <time>2018-06-05T10:13:56Z</time>
      </trkpt>
      <trkpt lat="45.98554" lon="4.75715">
        <ele>174</ele>
        <time>2018-06-05T10:13:57Z</time>
      </trkpt>
      <trkpt lat="45.98548" lon="4.75714">
        <ele>174</ele>
        <time>2018-06-05T10:13:58Z</time>
      </trkpt>
      <trkpt lat="45.98543" lon="4.75714">
        <ele>174</ele>
        <time>2018-06-05T10:13:59Z</time>
      </trkpt>
      <trkpt lat="45.98537" lon="4.75712">
        <ele>174</ele>
        <time>2018-06-05T10:14:00Z</time>
      </trkpt>
      <trkpt lat="45.98531" lon="4.75712">
        <ele>174</ele>
        <time>2018-06-05T10:14:01Z</time>
      </trkpt>
      <trkpt lat="45.98526" lon="4.7571">
        <ele>174</ele>
        <time>2018-06-05T10:14:02Z</time>
      </trkpt>
      <trkpt lat="45.9852" lon="4.75709">
        <ele>174</ele>
        <time>2018-06-05T10:14:03Z</time>
      </trkpt>
      <trkpt lat="45.98516" lon="4.75709">
        <ele>174</ele>
        <time>2018-06-05T10:14:04Z</time>
      </trkpt>
      <trkpt lat="45.98511" lon="4.7571">
        <ele>174</ele>
        <time>2018-06-05T10:14:05Z</time>
      </trkpt>
      <trkpt lat="45.98506" lon="4.75711">
        <ele>174</ele>
        <time>2018-06-05T10:14:06Z</time>
      </trkpt>
      <trkpt lat="45.98502" lon="4.7571">
        <ele>174</ele>
        <time>2018-06-05T10:14:07Z</time>
      </trkpt>
      <trkpt lat="45.98497" lon="4.75708">
        <ele>174</ele>
        <time>2018-06-05T10:14:08Z</time>
      </trkpt>
      <trkpt lat="45.98492" lon="4.75708">
        <ele>174</ele>
        <time>2018-06-05T10:14:09Z</time>
      </trkpt>
      <trkpt lat="45.98488" lon="4.75706">
        <ele>174</ele>
        <time>2018-06-05T10:14:10Z</time>
      </trkpt>
      <trkpt lat="45.98483" lon="4.75704">
        <ele>174</ele>
        <time>2018-06-05T10:14:11Z</time>
      </trkpt>
      <trkpt lat="45.98478" lon="4.75702">
        <ele>174</ele>
        <time>2018-06-05T10:14:12Z</time>
      </trkpt>
      <trkpt lat="45.98473" lon="4.75702">
        <ele>174</ele>
        <time>2018-06-05T10:14:13Z</time>
      </trkpt>
      <trkpt lat="45.98468" lon="4.75703">
        <ele>174</ele>
        <time>2018-06-05T10:14:14Z</time>
      </trkpt>
      <trkpt lat="45.98463" lon="4.75702">
        <ele>174</ele>
        <time>2018-06-05T10:14:15Z</time>
      </trkpt>
      <trkpt lat="45.98459" lon="4.757">
        <ele>174</ele>
        <time>2018-06-05T10:14:16Z</time>
      </trkpt>
      <trkpt lat="45.9845" lon="4.75697">
        <ele>175</ele>
        <time>2018-06-05T10:14:18Z</time>
      </trkpt>
      <trkpt lat="45.98446" lon="4.75697">
        <ele>175</ele>
        <time>2018-06-05T10:14:19Z</time>
      </trkpt>
      <trkpt lat="45.9844" lon="4.75694">
        <ele>175</ele>
        <time>2018-06-05T10:14:20Z</time>
      </trkpt>
      <trkpt lat="45.98435" lon="4.75693">
        <ele>175</ele>
        <time>2018-06-05T10:14:21Z</time>
      </trkpt>
      <trkpt lat="45.98428" lon="4.75691">
        <ele>175</ele>
        <time>2018-06-05T10:14:22Z</time>
      </trkpt>
      <trkpt lat="45.98423" lon="4.7569">
        <ele>175</ele>
        <time>2018-06-05T10:14:23Z</time>
      </trkpt>
      <trkpt lat="45.98416" lon="4.75689">
        <ele>175</ele>
        <time>2018-06-05T10:14:24Z</time>
      </trkpt>
      <trkpt lat="45.9841" lon="4.75688">
        <ele>175</ele>
        <time>2018-06-05T10:14:25Z</time>
      </trkpt>
      <trkpt lat="45.98404" lon="4.75688">
        <ele>175</ele>
        <time>2018-06-05T10:14:26Z</time>
      </trkpt>
      <trkpt lat="45.98398" lon="4.75683">
        <ele>175</ele>
        <time>2018-06-05T10:14:27Z</time>
      </trkpt>
      <trkpt lat="45.98393" lon="4.75677">
        <ele>174</ele>
        <time>2018-06-05T10:14:28Z</time>
      </trkpt>
      <trkpt lat="45.98388" lon="4.75678">
        <ele>174</ele>
        <time>2018-06-05T10:14:29Z</time>
      </trkpt>
      <trkpt lat="45.98383" lon="4.75675">
        <ele>174</ele>
        <time>2018-06-05T10:14:30Z</time>
      </trkpt>
      <trkpt lat="45.98375" lon="4.75681">
        <ele>174</ele>
        <time>2018-06-05T10:14:31Z</time>
      </trkpt>
      <trkpt lat="45.9837" lon="4.75684">
        <ele>174</ele>
        <time>2018-06-05T10:14:32Z</time>
      </trkpt>
      <trkpt lat="45.98364" lon="4.75682">
        <ele>174</ele>
        <time>2018-06-05T10:14:33Z</time>
      </trkpt>
      <trkpt lat="45.98358" lon="4.75682">
        <ele>174</ele>
        <time>2018-06-05T10:14:34Z</time>
      </trkpt>
      <trkpt lat="45.98351" lon="4.7568">
        <ele>174</ele>
        <time>2018-06-05T10:14:35Z</time>
      </trkpt>
      <trkpt lat="45.98346" lon="4.75678">
        <ele>174</ele>
        <time>2018-06-05T10:14:36Z</time>
      </trkpt>
      <trkpt lat="45.9834" lon="4.75678">
        <ele>174</ele>
        <time>2018-06-05T10:14:37Z</time>
      </trkpt>
      <trkpt lat="45.98335" lon="4.75677">
        <ele>174</ele>
        <time>2018-06-05T10:14:38Z</time>
      </trkpt>
      <trkpt lat="45.9833" lon="4.75677">
        <ele>174</ele>
        <time>2018-06-05T10:14:39Z</time>
      </trkpt>
      <trkpt lat="45.98326" lon="4.75672">
        <ele>174</ele>
        <time>2018-06-05T10:14:40Z</time>
      </trkpt>
      <trkpt lat="45.9832" lon="4.75672">
        <ele>174</ele>
        <time>2018-06-05T10:14:41Z</time>
      </trkpt>
      <trkpt lat="45.98314" lon="4.75673">
        <ele>174</ele>
        <time>2018-06-05T10:14:42Z</time>
      </trkpt>
      <trkpt lat="45.98309" lon="4.75673">
        <ele>174</ele>
        <time>2018-06-05T10:14:43Z</time>
      </trkpt>
      <trkpt lat="45.98303" lon="4.75673">
        <ele>174</ele>
        <time>2018-06-05T10:14:44Z</time>
      </trkpt>
      <trkpt lat="45.98298" lon="4.75672">
        <ele>174</ele>
        <time>2018-06-05T10:14:45Z</time>
      </trkpt>
      <trkpt lat="45.98292" lon="4.75671">
        <ele>174</ele>
        <time>2018-06-05T10:14:46Z</time>
      </trkpt>
      <trkpt lat="45.98287" lon="4.75669">
        <ele>174</ele>
        <time>2018-06-05T10:14:47Z</time>
      </trkpt>
      <trkpt lat="45.9828" lon="4.75671">
        <ele>174</ele>
        <time>2018-06-05T10:14:48Z</time>
      </trkpt>
      <trkpt lat="45.98275" lon="4.7567">
        <ele>173</ele>
        <time>2018-06-05T10:14:49Z</time>
      </trkpt>
      <trkpt lat="45.98269" lon="4.75671">
        <ele>173</ele>
        <time>2018-06-05T10:14:50Z</time>
      </trkpt>
      <trkpt lat="45.98263" lon="4.75671">
        <ele>173</ele>
        <time>2018-06-05T10:14:51Z</time>
      </trkpt>
      <trkpt lat="45.98258" lon="4.75672">
        <ele>173</ele>
        <time>2018-06-05T10:14:52Z</time>
      </trkpt>
      <trkpt lat="45.98253" lon="4.75671">
        <ele>173</ele>
        <time>2018-06-05T10:14:53Z</time>
      </trkpt>
      <trkpt lat="45.98246" lon="4.75673">
        <ele>173</ele>
        <time>2018-06-05T10:14:54Z</time>
      </trkpt>
      <trkpt lat="45.98241" lon="4.75674">
        <ele>173</ele>
        <time>2018-06-05T10:14:55Z</time>
      </trkpt>
      <trkpt lat="45.98237" lon="4.75675">
        <ele>173</ele>
        <time>2018-06-05T10:14:56Z</time>
      </trkpt>
      <trkpt lat="45.98231" lon="4.75676">
        <ele>174</ele>
        <time>2018-06-05T10:14:57Z</time>
      </trkpt>
      <trkpt lat="45.98226" lon="4.75677">
        <ele>174</ele>
        <time>2018-06-05T10:14:58Z</time>
      </trkpt>
      <trkpt lat="45.98222" lon="4.75675">
        <ele>174</ele>
        <time>2018-06-05T10:14:59Z</time>
      </trkpt>
      <trkpt lat="45.98216" lon="4.75675">
        <ele>174</ele>
        <time>2018-06-05T10:15:00Z</time>
      </trkpt>
      <trkpt lat="45.98211" lon="4.75679">
        <ele>174</ele>
        <time>2018-06-05T10:15:01Z</time>
      </trkpt>
      <trkpt lat="45.98205" lon="4.75682">
        <ele>174</ele>
        <time>2018-06-05T10:15:02Z</time>
      </trkpt>
      <trkpt lat="45.98199" lon="4.75682">
        <ele>174</ele>
        <time>2018-06-05T10:15:03Z</time>
      </trkpt>
      <trkpt lat="45.98193" lon="4.75683">
        <ele>174</ele>
        <time>2018-06-05T10:15:04Z</time>
      </trkpt>
      <trkpt lat="45.98187" lon="4.75683">
        <ele>174</ele>
        <time>2018-06-05T10:15:05Z</time>
      </trkpt>
      <trkpt lat="45.98182" lon="4.75685">
        <ele>174</ele>
        <time>2018-06-05T10:15:06Z</time>
      </trkpt>
      <trkpt lat="45.98177" lon="4.75685">
        <ele>174</ele>
        <time>2018-06-05T10:15:07Z</time>
      </trkpt>
      <trkpt lat="45.98169" lon="4.75685">
        <ele>174</ele>
        <time>2018-06-05T10:15:08Z</time>
      </trkpt>
      <trkpt lat="45.98164" lon="4.75685">
        <ele>174</ele>
        <time>2018-06-05T10:15:09Z</time>
      </trkpt>
      <trkpt lat="45.98159" lon="4.75686">
        <ele>174</ele>
        <time>2018-06-05T10:15:10Z</time>
      </trkpt>
      <trkpt lat="45.98154" lon="4.75686">
        <ele>174</ele>
        <time>2018-06-05T10:15:11Z</time>
      </trkpt>
      <trkpt lat="45.98148" lon="4.75686">
        <ele>174</ele>
        <time>2018-06-05T10:15:12Z</time>
      </trkpt>
      <trkpt lat="45.98144" lon="4.75687">
        <ele>174</ele>
        <time>2018-06-05T10:15:13Z</time>
      </trkpt>
      <trkpt lat="45.98138" lon="4.75688">
        <ele>174</ele>
        <time>2018-06-05T10:15:14Z</time>
      </trkpt>
      <trkpt lat="45.98133" lon="4.75691">
        <ele>174</ele>
        <time>2018-06-05T10:15:15Z</time>
      </trkpt>
      <trkpt lat="45.98128" lon="4.75692">
        <ele>174</ele>
        <time>2018-06-05T10:15:16Z</time>
      </trkpt>
      <trkpt lat="45.98123" lon="4.75693">
        <ele>174</ele>
        <time>2018-06-05T10:15:17Z</time>
      </trkpt>
      <trkpt lat="45.98118" lon="4.75693">
        <ele>174</ele>
        <time>2018-06-05T10:15:18Z</time>
      </trkpt>
      <trkpt lat="45.98112" lon="4.75695">
        <ele>174</ele>
        <time>2018-06-05T10:15:19Z</time>
      </trkpt>
      <trkpt lat="45.98108" lon="4.75696">
        <ele>174</ele>
        <time>2018-06-05T10:15:20Z</time>
      </trkpt>
      <trkpt lat="45.98102" lon="4.75696">
        <ele>174</ele>
        <time>2018-06-05T10:15:21Z</time>
      </trkpt>
      <trkpt lat="45.98097" lon="4.75697">
        <ele>174</ele>
        <time>2018-06-05T10:15:22Z</time>
      </trkpt>
      <trkpt lat="45.98091" lon="4.75697">
        <ele>174</ele>
        <time>2018-06-05T10:15:23Z</time>
      </trkpt>
      <trkpt lat="45.98086" lon="4.75697">
        <ele>174</ele>
        <time>2018-06-05T10:15:24Z</time>
      </trkpt>
      <trkpt lat="45.98081" lon="4.75698">
        <ele>174</ele>
        <time>2018-06-05T10:15:25Z</time>
      </trkpt>
      <trkpt lat="45.98076" lon="4.75697">
        <ele>174</ele>
        <time>2018-06-05T10:15:26Z</time>
      </trkpt>
      <trkpt lat="45.9807" lon="4.75698">
        <ele>174</ele>
        <time>2018-06-05T10:15:27Z</time>
      </trkpt>
      <trkpt lat="45.98065" lon="4.75698">
        <ele>174</ele>
        <time>2018-06-05T10:15:28Z</time>
      </trkpt>
      <trkpt lat="45.9806" lon="4.75698">
        <ele>174</ele>
        <time>2018-06-05T10:15:29Z</time>
      </trkpt>
      <trkpt lat="45.98055" lon="4.757">
        <ele>174</ele>
        <time>2018-06-05T10:15:30Z</time>
      </trkpt>
      <trkpt lat="45.98049" lon="4.75701">
        <ele>174</ele>
        <time>2018-06-05T10:15:31Z</time>
      </trkpt>
      <trkpt lat="45.98044" lon="4.75702">
        <ele>174</ele>
        <time>2018-06-05T10:15:32Z</time>
      </trkpt>
      <trkpt lat="45.98039" lon="4.75703">
        <ele>174</ele>
        <time>2018-06-05T10:15:33Z</time>
      </trkpt>
      <trkpt lat="45.98033" lon="4.75705">
        <ele>174</ele>
        <time>2018-06-05T10:15:34Z</time>
      </trkpt>
      <trkpt lat="45.98027" lon="4.75706">
        <ele>174</ele>
        <time>2018-06-05T10:15:35Z</time>
      </trkpt>
      <trkpt lat="45.98022" lon="4.75706">
        <ele>174</ele>
        <time>2018-06-05T10:15:36Z</time>
      </trkpt>
      <trkpt lat="45.98016" lon="4.75707">
        <ele>174</ele>
        <time>2018-06-05T10:15:37Z</time>
      </trkpt>
      <trkpt lat="45.9801" lon="4.75709">
        <ele>174</ele>
        <time>2018-06-05T10:15:38Z</time>
      </trkpt>
      <trkpt lat="45.98005" lon="4.75711">
        <ele>174</ele>
        <time>2018-06-05T10:15:39Z</time>
      </trkpt>
      <trkpt lat="45.98" lon="4.75713">
        <ele>174</ele>
        <time>2018-06-05T10:15:40Z</time>
      </trkpt>
      <trkpt lat="45.97994" lon="4.75714">
        <ele>174</ele>
        <time>2018-06-05T10:15:41Z</time>
      </trkpt>
      <trkpt lat="45.9799" lon="4.75716">
        <ele>174</ele>
        <time>2018-06-05T10:15:42Z</time>
      </trkpt>
      <trkpt lat="45.97985" lon="4.75718">
        <ele>174</ele>
        <time>2018-06-05T10:15:43Z</time>
      </trkpt>
      <trkpt lat="45.97981" lon="4.7572">
        <ele>174</ele>
        <time>2018-06-05T10:15:44Z</time>
      </trkpt>
      <trkpt lat="45.97975" lon="4.75723">
        <ele>174</ele>
        <time>2018-06-05T10:15:45Z</time>
      </trkpt>
      <trkpt lat="45.97969" lon="4.75726">
        <ele>174</ele>
        <time>2018-06-05T10:15:46Z</time>
      </trkpt>
      <trkpt lat="45.97964" lon="4.75727">
        <ele>174</ele>
        <time>2018-06-05T10:15:47Z</time>
      </trkpt>
      <trkpt lat="45.97959" lon="4.75727">
        <ele>174</ele>
        <time>2018-06-05T10:15:48Z</time>
      </trkpt>
      <trkpt lat="45.97954" lon="4.75726">
        <ele>174</ele>
        <time>2018-06-05T10:15:49Z</time>
      </trkpt>
      <trkpt lat="45.97949" lon="4.75723">
        <ele>174</ele>
        <time>2018-06-05T10:15:50Z</time>
      </trkpt>
      <trkpt lat="45.97942" lon="4.75721">
        <ele>174</ele>
        <time>2018-06-05T10:15:51Z</time>
      </trkpt>
      <trkpt lat="45.97935" lon="4.75718">
        <ele>174</ele>
        <time>2018-06-05T10:15:52Z</time>
      </trkpt>
      <trkpt lat="45.9793" lon="4.75715">
        <ele>174</ele>
        <time>2018-06-05T10:15:53Z</time>
      </trkpt>
      <trkpt lat="45.97923" lon="4.75711">
        <ele>174</ele>
        <time>2018-06-05T10:15:54Z</time>
      </trkpt>
      <trkpt lat="45.97918" lon="4.75707">
        <ele>174</ele>
        <time>2018-06-05T10:15:55Z</time>
      </trkpt>
      <trkpt lat="45.97911" lon="4.75704">
        <ele>175</ele>
        <time>2018-06-05T10:15:56Z</time>
      </trkpt>
      <trkpt lat="45.97905" lon="4.757">
        <ele>175</ele>
        <time>2018-06-05T10:15:57Z</time>
      </trkpt>
      <trkpt lat="45.97899" lon="4.75697">
        <ele>175</ele>
        <time>2018-06-05T10:15:58Z</time>
      </trkpt>
      <trkpt lat="45.97894" lon="4.75693">
        <ele>175</ele>
        <time>2018-06-05T10:15:59Z</time>
      </trkpt>
      <trkpt lat="45.97889" lon="4.75689">
        <ele>175</ele>
        <time>2018-06-05T10:16:00Z</time>
      </trkpt>
      <trkpt lat="45.97883" lon="4.75686">
        <ele>175</ele>
        <time>2018-06-05T10:16:01Z</time>
      </trkpt>
      <trkpt lat="45.97878" lon="4.75683">
        <ele>175</ele>
        <time>2018-06-05T10:16:02Z</time>
      </trkpt>
      <trkpt lat="45.97872" lon="4.7568">
        <ele>175</ele>
        <time>2018-06-05T10:16:03Z</time>
      </trkpt>
      <trkpt lat="45.97865" lon="4.75678">
        <ele>175</ele>
        <time>2018-06-05T10:16:04Z</time>
      </trkpt>
      <trkpt lat="45.97858" lon="4.75678">
        <ele>175</ele>
        <time>2018-06-05T10:16:05Z</time>
      </trkpt>
      <trkpt lat="45.97852" lon="4.75676">
        <ele>175</ele>
        <time>2018-06-05T10:16:06Z</time>
      </trkpt>
      <trkpt lat="45.97845" lon="4.75674">
        <ele>175</ele>
        <time>2018-06-05T10:16:07Z</time>
      </trkpt>
      <trkpt lat="45.97838" lon="4.75672">
        <ele>175</ele>
        <time>2018-06-05T10:16:08Z</time>
      </trkpt>
      <trkpt lat="45.97834" lon="4.75671">
        <ele>175</ele>
        <time>2018-06-05T10:16:09Z</time>
      </trkpt>
      <trkpt lat="45.97827" lon="4.7567">
        <ele>175</ele>
        <time>2018-06-05T10:16:10Z</time>
      </trkpt>
      <trkpt lat="45.97821" lon="4.75669">
        <ele>175</ele>
        <time>2018-06-05T10:16:11Z</time>
      </trkpt>
      <trkpt lat="45.97815" lon="4.75668">
        <ele>175</ele>
        <time>2018-06-05T10:16:12Z</time>
      </trkpt>
      <trkpt lat="45.97808" lon="4.75667">
        <ele>175</ele>
        <time>2018-06-05T10:16:13Z</time>
      </trkpt>
      <trkpt lat="45.97802" lon="4.75667">
        <ele>175</ele>
        <time>2018-06-05T10:16:14Z</time>
      </trkpt>
      <trkpt lat="45.97797" lon="4.75666">
        <ele>172</ele>
        <time>2018-06-05T10:16:15Z</time>
      </trkpt>
      <trkpt lat="45.9779" lon="4.75665">
        <ele>172</ele>
        <time>2018-06-05T10:16:16Z</time>
      </trkpt>
      <trkpt lat="45.97784" lon="4.75665">
        <ele>172</ele>
        <time>2018-06-05T10:16:17Z</time>
      </trkpt>
      <trkpt lat="45.97778" lon="4.75664">
        <ele>172</ele>
        <time>2018-06-05T10:16:18Z</time>
      </trkpt>
      <trkpt lat="45.97772" lon="4.75665">
        <ele>172</ele>
        <time>2018-06-05T10:16:19Z</time>
      </trkpt>
      <trkpt lat="45.97766" lon="4.75664">
        <ele>172</ele>
        <time>2018-06-05T10:16:20Z</time>
      </trkpt>
      <trkpt lat="45.97759" lon="4.75664">
        <ele>172</ele>
        <time>2018-06-05T10:16:21Z</time>
      </trkpt>
      <trkpt lat="45.97753" lon="4.75664">
        <ele>172</ele>
        <time>2018-06-05T10:16:22Z</time>
      </trkpt>
      <trkpt lat="45.97747" lon="4.75666">
        <ele>172</ele>
        <time>2018-06-05T10:16:23Z</time>
      </trkpt>
      <trkpt lat="45.97741" lon="4.75666">
        <ele>172</ele>
        <time>2018-06-05T10:16:24Z</time>
      </trkpt>
      <trkpt lat="45.97735" lon="4.75665">
        <ele>171</ele>
        <time>2018-06-05T10:16:25Z</time>
      </trkpt>
      <trkpt lat="45.97729" lon="4.75665">
        <ele>171</ele>
        <time>2018-06-05T10:16:26Z</time>
      </trkpt>
      <trkpt lat="45.97723" lon="4.75665">
        <ele>171</ele>
        <time>2018-06-05T10:16:27Z</time>
      </trkpt>
      <trkpt lat="45.97718" lon="4.75666">
        <ele>171</ele>
        <time>2018-06-05T10:16:28Z</time>
      </trkpt>
      <trkpt lat="45.97711" lon="4.75666">
        <ele>171</ele>
        <time>2018-06-05T10:16:29Z</time>
      </trkpt>
      <trkpt lat="45.97705" lon="4.75666">
        <ele>171</ele>
        <time>2018-06-05T10:16:30Z</time>
      </trkpt>
      <trkpt lat="45.97696" lon="4.75666">
        <ele>170</ele>
        <time>2018-06-05T10:16:31Z</time>
      </trkpt>
      <trkpt lat="45.97691" lon="4.75666">
        <ele>170</ele>
        <time>2018-06-05T10:16:32Z</time>
      </trkpt>
      <trkpt lat="45.97683" lon="4.75667">
        <ele>170</ele>
        <time>2018-06-05T10:16:33Z</time>
      </trkpt>
      <trkpt lat="45.97677" lon="4.75668">
        <ele>170</ele>
        <time>2018-06-05T10:16:34Z</time>
      </trkpt>
      <trkpt lat="45.97672" lon="4.75667">
        <ele>169</ele>
        <time>2018-06-05T10:16:35Z</time>
      </trkpt>
      <trkpt lat="45.97667" lon="4.75667">
        <ele>169</ele>
        <time>2018-06-05T10:16:36Z</time>
      </trkpt>
      <trkpt lat="45.97662" lon="4.75669">
        <ele>169</ele>
        <time>2018-06-05T10:16:37Z</time>
      </trkpt>
      <trkpt lat="45.97656" lon="4.75669">
        <ele>170</ele>
        <time>2018-06-05T10:16:38Z</time>
      </trkpt>
      <trkpt lat="45.97651" lon="4.75669">
        <ele>170</ele>
        <time>2018-06-05T10:16:39Z</time>
      </trkpt>
      <trkpt lat="45.97646" lon="4.7567">
        <ele>170</ele>
        <time>2018-06-05T10:16:40Z</time>
      </trkpt>
      <trkpt lat="45.97642" lon="4.75669">
        <ele>170</ele>
        <time>2018-06-05T10:16:41Z</time>
      </trkpt>
      <trkpt lat="45.97637" lon="4.7567">
        <ele>170</ele>
        <time>2018-06-05T10:16:42Z</time>
      </trkpt>
      <trkpt lat="45.97631" lon="4.7567">
        <ele>171</ele>
        <time>2018-06-05T10:16:43Z</time>
      </trkpt>
      <trkpt lat="45.97625" lon="4.75671">
        <ele>171</ele>
        <time>2018-06-05T10:16:44Z</time>
      </trkpt>
      <trkpt lat="45.9762" lon="4.75671">
        <ele>171</ele>
        <time>2018-06-05T10:16:45Z</time>
      </trkpt>
      <trkpt lat="45.97614" lon="4.75672">
        <ele>171</ele>
        <time>2018-06-05T10:16:46Z</time>
      </trkpt>
      <trkpt lat="45.97609" lon="4.75673">
        <ele>171</ele>
        <time>2018-06-05T10:16:47Z</time>
      </trkpt>
      <trkpt lat="45.97604" lon="4.75677">
        <ele>171</ele>
        <time>2018-06-05T10:16:48Z</time>
      </trkpt>
      <trkpt lat="45.97599" lon="4.7568">
        <ele>171</ele>
        <time>2018-06-05T10:16:49Z</time>
      </trkpt>
      <trkpt lat="45.97594" lon="4.75683">
        <ele>171</ele>
        <time>2018-06-05T10:16:50Z</time>
      </trkpt>
      <trkpt lat="45.9759" lon="4.75684">
        <ele>171</ele>
        <time>2018-06-05T10:16:51Z</time>
      </trkpt>
      <trkpt lat="45.97584" lon="4.75683">
        <ele>171</ele>
        <time>2018-06-05T10:16:52Z</time>
      </trkpt>
      <trkpt lat="45.97578" lon="4.75679">
        <ele>171</ele>
        <time>2018-06-05T10:16:53Z</time>
      </trkpt>
      <trkpt lat="45.97572" lon="4.7567">
        <ele>171</ele>
        <time>2018-06-05T10:16:55Z</time>
      </trkpt>
      <trkpt lat="45.97568" lon="4.75666">
        <ele>170</ele>
        <time>2018-06-05T10:16:56Z</time>
      </trkpt>
      <trkpt lat="45.97564" lon="4.75664">
        <ele>170</ele>
        <time>2018-06-05T10:16:57Z</time>
      </trkpt>
      <trkpt lat="45.97559" lon="4.75662">
        <ele>169</ele>
        <time>2018-06-05T10:16:58Z</time>
      </trkpt>
      <trkpt lat="45.97554" lon="4.75659">
        <ele>169</ele>
        <time>2018-06-05T10:16:59Z</time>
      </trkpt>
      <trkpt lat="45.97548" lon="4.75657">
        <ele>169</ele>
        <time>2018-06-05T10:17:00Z</time>
      </trkpt>
      <trkpt lat="45.97542" lon="4.75655">
        <ele>169</ele>
        <time>2018-06-05T10:17:01Z</time>
      </trkpt>
      <trkpt lat="45.97537" lon="4.75654">
        <ele>169</ele>
        <time>2018-06-05T10:17:02Z</time>
      </trkpt>
      <trkpt lat="45.97531" lon="4.75656">
        <ele>169</ele>
        <time>2018-06-05T10:17:03Z</time>
      </trkpt>
      <trkpt lat="45.97525" lon="4.75658">
        <ele>169</ele>
        <time>2018-06-05T10:17:04Z</time>
      </trkpt>
      <trkpt lat="45.9752" lon="4.7566">
        <ele>169</ele>
        <time>2018-06-05T10:17:05Z</time>
      </trkpt>
      <trkpt lat="45.97515" lon="4.75663">
        <ele>169</ele>
        <time>2018-06-05T10:17:06Z</time>
      </trkpt>
      <trkpt lat="45.9751" lon="4.75665">
        <ele>169</ele>
        <time>2018-06-05T10:17:07Z</time>
      </trkpt>
      <trkpt lat="45.97505" lon="4.75666">
        <ele>170</ele>
        <time>2018-06-05T10:17:08Z</time>
      </trkpt>
      <trkpt lat="45.97499" lon="4.75669">
        <ele>170</ele>
        <time>2018-06-05T10:17:09Z</time>
      </trkpt>
      <trkpt lat="45.97495" lon="4.75669">
        <ele>170</ele>
        <time>2018-06-05T10:17:10Z</time>
      </trkpt>
      <trkpt lat="45.9749" lon="4.75671">
        <ele>170</ele>
        <time>2018-06-05T10:17:11Z</time>
      </trkpt>
      <trkpt lat="45.97485" lon="4.75672">
        <ele>170</ele>
        <time>2018-06-05T10:17:12Z</time>
      </trkpt>
      <trkpt lat="45.9748" lon="4.75673">
        <ele>170</ele>
        <time>2018-06-05T10:17:13Z</time>
      </trkpt>
      <trkpt lat="45.97476" lon="4.75674">
        <ele>171</ele>
        <time>2018-06-05T10:17:14Z</time>
      </trkpt>
      <trkpt lat="45.97467" lon="4.75674">
        <ele>171</ele>
        <time>2018-06-05T10:17:16Z</time>
      </trkpt>
      <trkpt lat="45.97464" lon="4.75674">
        <ele>171</ele>
        <time>2018-06-05T10:17:17Z</time>
      </trkpt>
      <trkpt lat="45.97456" lon="4.75674">
        <ele>170</ele>
        <time>2018-06-05T10:17:20Z</time>
      </trkpt>
      <trkpt lat="45.97454" lon="4.75674">
        <ele>170</ele>
        <time>2018-06-05T10:17:21Z</time>
      </trkpt>
      <trkpt lat="45.97445" lon="4.75673">
        <ele>170</ele>
        <time>2018-06-05T10:17:26Z</time>
      </trkpt>
      <trkpt lat="45.97445" lon="4.75673">
        <ele>170</ele>
        <time>2018-06-05T10:17:27Z</time>
      </trkpt>
      <trkpt lat="45.97436" lon="4.75672">
        <ele>170</ele>
        <time>2018-06-05T10:19:08Z</time>
      </trkpt>
      <trkpt lat="45.97435" lon="4.75672">
        <ele>170</ele>
        <time>2018-06-05T10:19:09Z</time>
      </trkpt>
      <trkpt lat="45.97427" lon="4.75675">
        <ele>170</ele>
        <time>2018-06-05T10:19:15Z</time>
      </trkpt>
      <trkpt lat="45.97426" lon="4.75676">
        <ele>170</ele>
        <time>2018-06-05T10:19:16Z</time>
      </trkpt>
      <trkpt lat="45.97417" lon="4.75676">
        <ele>170</ele>
        <time>2018-06-05T10:19:20Z</time>
      </trkpt>
      <trkpt lat="45.97414" lon="4.75676">
        <ele>171</ele>
        <time>2018-06-05T10:19:21Z</time>
      </trkpt>
      <trkpt lat="45.97405" lon="4.75675">
        <ele>171</ele>
        <time>2018-06-05T10:19:22Z</time>
      </trkpt>
      <trkpt lat="45.97396" lon="4.75675">
        <ele>172</ele>
        <time>2018-06-05T10:19:24Z</time>
      </trkpt>
      <trkpt lat="45.97392" lon="4.75674">
        <ele>172</ele>
        <time>2018-06-05T10:19:25Z</time>
      </trkpt>
      <trkpt lat="45.97383" lon="4.75674">
        <ele>173</ele>
        <time>2018-06-05T10:19:27Z</time>
      </trkpt>
      <trkpt lat="45.97379" lon="4.75674">
        <ele>173</ele>
        <time>2018-06-05T10:19:28Z</time>
      </trkpt>
      <trkpt lat="45.97371" lon="4.75676">
        <ele>174</ele>
        <time>2018-06-05T10:19:30Z</time>
      </trkpt>
      <trkpt lat="45.97366" lon="4.75674">
        <ele>174</ele>
        <time>2018-06-05T10:19:31Z</time>
      </trkpt>
      <trkpt lat="45.97361" lon="4.75674">
        <ele>174</ele>
        <time>2018-06-05T10:19:32Z</time>
      </trkpt>
      <trkpt lat="45.97356" lon="4.75674">
        <ele>175</ele>
        <time>2018-06-05T10:19:33Z</time>
      </trkpt>
      <trkpt lat="45.97351" lon="4.75673">
        <ele>175</ele>
        <time>2018-06-05T10:19:34Z</time>
      </trkpt>
      <trkpt lat="45.97345" lon="4.75673">
        <ele>175</ele>
        <time>2018-06-05T10:19:35Z</time>
      </trkpt>
      <trkpt lat="45.9734" lon="4.75672">
        <ele>175</ele>
        <time>2018-06-05T10:19:36Z</time>
      </trkpt>
      <trkpt lat="45.97334" lon="4.75671">
        <ele>176</ele>
        <time>2018-06-05T10:19:37Z</time>
      </trkpt>
      <trkpt lat="45.97328" lon="4.7567">
        <ele>176</ele>
        <time>2018-06-05T10:19:38Z</time>
      </trkpt>
      <trkpt lat="45.97323" lon="4.75669">
        <ele>176</ele>
        <time>2018-06-05T10:19:39Z</time>
      </trkpt>
      <trkpt lat="45.97317" lon="4.7567">
        <ele>176</ele>
        <time>2018-06-05T10:19:40Z</time>
      </trkpt>
      <trkpt lat="45.97312" lon="4.75669">
        <ele>176</ele>
        <time>2018-06-05T10:19:41Z</time>
      </trkpt>
      <trkpt lat="45.97306" lon="4.75669">
        <ele>176</ele>
        <time>2018-06-05T10:19:42Z</time>
      </trkpt>
      <trkpt lat="45.97301" lon="4.75667">
        <ele>176</ele>
        <time>2018-06-05T10:19:43Z</time>
      </trkpt>
      <trkpt lat="45.97295" lon="4.75667">
        <ele>172</ele>
        <time>2018-06-05T10:19:44Z</time>
      </trkpt>
      <trkpt lat="45.97289" lon="4.75665">
        <ele>172</ele>
        <time>2018-06-05T10:19:45Z</time>
      </trkpt>
      <trkpt lat="45.97283" lon="4.75662">
        <ele>172</ele>
        <time>2018-06-05T10:19:46Z</time>
      </trkpt>
      <trkpt lat="45.97278" lon="4.75662">
        <ele>172</ele>
        <time>2018-06-05T10:19:47Z</time>
      </trkpt>
      <trkpt lat="45.97272" lon="4.75661">
        <ele>172</ele>
        <time>2018-06-05T10:19:48Z</time>
      </trkpt>
      <trkpt lat="45.97265" lon="4.75662">
        <ele>173</ele>
        <time>2018-06-05T10:19:49Z</time>
      </trkpt>
      <trkpt lat="45.9726" lon="4.75661">
        <ele>173</ele>
        <time>2018-06-05T10:19:50Z</time>
      </trkpt>
      <trkpt lat="45.97255" lon="4.75659">
        <ele>173</ele>
        <time>2018-06-05T10:19:51Z</time>
      </trkpt>
      <trkpt lat="45.97249" lon="4.75658">
        <ele>173</ele>
        <time>2018-06-05T10:19:52Z</time>
      </trkpt>
      <trkpt lat="45.97242" lon="4.75656">
        <ele>173</ele>
        <time>2018-06-05T10:19:53Z</time>
      </trkpt>
      <trkpt lat="45.97236" lon="4.75654">
        <ele>173</ele>
        <time>2018-06-05T10:19:54Z</time>
      </trkpt>
      <trkpt lat="45.9723" lon="4.75652">
        <ele>173</ele>
        <time>2018-06-05T10:19:55Z</time>
      </trkpt>
      <trkpt lat="45.97225" lon="4.75651">
        <ele>173</ele>
        <time>2018-06-05T10:19:56Z</time>
      </trkpt>
      <trkpt lat="45.97219" lon="4.75649">
        <ele>173</ele>
        <time>2018-06-05T10:19:57Z</time>
      </trkpt>
      <trkpt lat="45.97214" lon="4.75647">
        <ele>173</ele>
        <time>2018-06-05T10:19:58Z</time>
      </trkpt>
      <trkpt lat="45.97209" lon="4.75646">
        <ele>173</ele>
        <time>2018-06-05T10:19:59Z</time>
      </trkpt>
      <trkpt lat="45.97203" lon="4.75644">
        <ele>173</ele>
        <time>2018-06-05T10:20:00Z</time>
      </trkpt>
      <trkpt lat="45.97197" lon="4.75643">
        <ele>173</ele>
        <time>2018-06-05T10:20:01Z</time>
      </trkpt>
      <trkpt lat="45.97191" lon="4.7564">
        <ele>174</ele>
        <time>2018-06-05T10:20:02Z</time>
      </trkpt>
      <trkpt lat="45.97186" lon="4.75637">
        <ele>174</ele>
        <time>2018-06-05T10:20:03Z</time>
      </trkpt>
      <trkpt lat="45.97181" lon="4.75634">
        <ele>174</ele>
        <time>2018-06-05T10:20:04Z</time>
      </trkpt>
      <trkpt lat="45.97176" lon="4.75632">
        <ele>174</ele>
        <time>2018-06-05T10:20:05Z</time>
      </trkpt>
      <trkpt lat="45.97171" lon="4.75629">
        <ele>174</ele>
        <time>2018-06-05T10:20:06Z</time>
      </trkpt>
      <trkpt lat="45.97164" lon="4.75628">
        <ele>176</ele>
        <time>2018-06-05T10:20:07Z</time>
      </trkpt>
      <trkpt lat="45.97159" lon="4.75626">
        <ele>176</ele>
        <time>2018-06-05T10:20:08Z</time>
      </trkpt>
      <trkpt lat="45.97154" lon="4.75623">
        <ele>176</ele>
        <time>2018-06-05T10:20:09Z</time>
      </trkpt>
      <trkpt lat="45.97147" lon="4.75619">
        <ele>176</ele>
        <time>2018-06-05T10:20:10Z</time>
      </trkpt>
      <trkpt lat="45.97142" lon="4.75616">
        <ele>176</ele>
        <time>2018-06-05T10:20:11Z</time>
      </trkpt>
      <trkpt lat="45.97136" lon="4.75613">
        <ele>176</ele>
        <time>2018-06-05T10:20:12Z</time>
      </trkpt>
      <trkpt lat="45.97131" lon="4.75609">
        <ele>176</ele>
        <time>2018-06-05T10:20:13Z</time>
      </trkpt>
      <trkpt lat="45.97125" lon="4.75607">
        <ele>176</ele>
        <time>2018-06-05T10:20:14Z</time>
      </trkpt>
      <trkpt lat="45.97119" lon="4.75605">
        <ele>176</ele>
        <time>2018-06-05T10:20:15Z</time>
      </trkpt>
      <trkpt lat="45.97115" lon="4.75604">
        <ele>176</ele>
        <time>2018-06-05T10:20:16Z</time>
      </trkpt>
      <trkpt lat="45.9711" lon="4.75601">
        <ele>176</ele>
        <time>2018-06-05T10:20:17Z</time>
      </trkpt>
      <trkpt lat="45.97105" lon="4.75598">
        <ele>176</ele>
        <time>2018-06-05T10:20:18Z</time>
      </trkpt>
      <trkpt lat="45.97099" lon="4.75596">
        <ele>176</ele>
        <time>2018-06-05T10:20:19Z</time>
      </trkpt>
      <trkpt lat="45.97094" lon="4.75594">
        <ele>176</ele>
        <time>2018-06-05T10:20:20Z</time>
      </trkpt>
      <trkpt lat="45.97088" lon="4.7559">
        <ele>176</ele>
        <time>2018-06-05T10:20:21Z</time>
      </trkpt>
      <trkpt lat="45.97083" lon="4.75588">
        <ele>176</ele>
        <time>2018-06-05T10:20:22Z</time>
      </trkpt>
      <trkpt lat="45.97076" lon="4.75586">
        <ele>177</ele>
        <time>2018-06-05T10:20:23Z</time>
      </trkpt>
      <trkpt lat="45.97071" lon="4.75584">
        <ele>178</ele>
        <time>2018-06-05T10:20:24Z</time>
      </trkpt>
      <trkpt lat="45.97066" lon="4.75582">
        <ele>174</ele>
        <time>2018-06-05T10:20:25Z</time>
      </trkpt>
      <trkpt lat="45.97059" lon="4.7558">
        <ele>174</ele>
        <time>2018-06-05T10:20:26Z</time>
      </trkpt>
      <trkpt lat="45.97053" lon="4.75578">
        <ele>174</ele>
        <time>2018-06-05T10:20:27Z</time>
      </trkpt>
      <trkpt lat="45.97047" lon="4.75575">
        <ele>174</ele>
        <time>2018-06-05T10:20:28Z</time>
      </trkpt>
      <trkpt lat="45.97041" lon="4.75573">
        <ele>174</ele>
        <time>2018-06-05T10:20:29Z</time>
      </trkpt>
      <trkpt lat="45.97037" lon="4.7557">
        <ele>174</ele>
        <time>2018-06-05T10:20:30Z</time>
      </trkpt>
      <trkpt lat="45.97031" lon="4.75567">
        <ele>174</ele>
        <time>2018-06-05T10:20:31Z</time>
      </trkpt>
      <trkpt lat="45.97026" lon="4.75565">
        <ele>174</ele>
        <time>2018-06-05T10:20:32Z</time>
      </trkpt>
      <trkpt lat="45.97021" lon="4.75561">
        <ele>174</ele>
        <time>2018-06-05T10:20:33Z</time>
      </trkpt>
      <trkpt lat="45.97015" lon="4.75559">
        <ele>174</ele>
        <time>2018-06-05T10:20:34Z</time>
      </trkpt>
      <trkpt lat="45.9701" lon="4.75554">
        <ele>174</ele>
        <time>2018-06-05T10:20:35Z</time>
      </trkpt>
      <trkpt lat="45.97004" lon="4.75552">
        <ele>173</ele>
        <time>2018-06-05T10:20:36Z</time>
      </trkpt>
      <trkpt lat="45.96998" lon="4.75549">
        <ele>175</ele>
        <time>2018-06-05T10:20:37Z</time>
      </trkpt>
      <trkpt lat="45.96993" lon="4.75547">
        <ele>175</ele>
        <time>2018-06-05T10:20:38Z</time>
      </trkpt>
      <trkpt lat="45.96987" lon="4.75545">
        <ele>175</ele>
        <time>2018-06-05T10:20:39Z</time>
      </trkpt>
      <trkpt lat="45.96981" lon="4.75542">
        <ele>175</ele>
        <time>2018-06-05T10:20:40Z</time>
      </trkpt>
      <trkpt lat="45.96976" lon="4.75539">
        <ele>174</ele>
        <time>2018-06-05T10:20:41Z</time>
      </trkpt>
      <trkpt lat="45.96971" lon="4.75537">
        <ele>174</ele>
        <time>2018-06-05T10:20:42Z</time>
      </trkpt>
      <trkpt lat="45.96964" lon="4.75536">
        <ele>174</ele>
        <time>2018-06-05T10:20:43Z</time>
      </trkpt>
      <trkpt lat="45.96958" lon="4.75535">
        <ele>175</ele>
        <time>2018-06-05T10:20:44Z</time>
      </trkpt>
      <trkpt lat="45.96952" lon="4.75533">
        <ele>175</ele>
        <time>2018-06-05T10:20:45Z</time>
      </trkpt>
      <trkpt lat="45.96947" lon="4.75532">
        <ele>175</ele>
        <time>2018-06-05T10:20:46Z</time>
      </trkpt>
      <trkpt lat="45.96941" lon="4.75529">
        <ele>175</ele>
        <time>2018-06-05T10:20:47Z</time>
      </trkpt>
      <trkpt lat="45.96935" lon="4.75527">
        <ele>175</ele>
        <time>2018-06-05T10:20:48Z</time>
      </trkpt>
      <trkpt lat="45.96929" lon="4.75525">
        <ele>174</ele>
        <time>2018-06-05T10:20:49Z</time>
      </trkpt>
      <trkpt lat="45.96923" lon="4.75522">
        <ele>174</ele>
        <time>2018-06-05T10:20:50Z</time>
      </trkpt>
      <trkpt lat="45.96917" lon="4.75519">
        <ele>174</ele>
        <time>2018-06-05T10:20:51Z</time>
      </trkpt>
      <trkpt lat="45.96911" lon="4.75517">
        <ele>177</ele>
        <time>2018-06-05T10:20:52Z</time>
      </trkpt>
      <trkpt lat="45.96906" lon="4.75514">
        <ele>177</ele>
        <time>2018-06-05T10:20:53Z</time>
      </trkpt>
      <trkpt lat="45.96898" lon="4.75511">
        <ele>177</ele>
        <time>2018-06-05T10:20:54Z</time>
      </trkpt>
      <trkpt lat="45.96892" lon="4.75508">
        <ele>178</ele>
        <time>2018-06-05T10:20:55Z</time>
      </trkpt>
      <trkpt lat="45.96885" lon="4.75506">
        <ele>178</ele>
        <time>2018-06-05T10:20:56Z</time>
      </trkpt>
      <trkpt lat="45.96879" lon="4.75504">
        <ele>178</ele>
        <time>2018-06-05T10:20:57Z</time>
      </trkpt>
      <trkpt lat="45.96873" lon="4.75502">
        <ele>178</ele>
        <time>2018-06-05T10:20:58Z</time>
      </trkpt>
      <trkpt lat="45.96868" lon="4.75499">
        <ele>171</ele>
        <time>2018-06-05T10:20:59Z</time>
      </trkpt>
      <trkpt lat="45.96862" lon="4.75498">
        <ele>171</ele>
        <time>2018-06-05T10:21:00Z</time>
      </trkpt>
      <trkpt lat="45.96854" lon="4.75496">
        <ele>172</ele>
        <time>2018-06-05T10:21:01Z</time>
      </trkpt>
      <trkpt lat="45.96848" lon="4.75495">
        <ele>172</ele>
        <time>2018-06-05T10:21:02Z</time>
      </trkpt>
      <trkpt lat="45.96842" lon="4.7549">
        <ele>172</ele>
        <time>2018-06-05T10:21:03Z</time>
      </trkpt>
      <trkpt lat="45.96836" lon="4.75488">
        <ele>172</ele>
        <time>2018-06-05T10:21:04Z</time>
      </trkpt>
      <trkpt lat="45.96829" lon="4.75486">
        <ele>174</ele>
        <time>2018-06-05T10:21:05Z</time>
      </trkpt>
      <trkpt lat="45.96822" lon="4.75483">
        <ele>174</ele>
        <time>2018-06-05T10:21:06Z</time>
      </trkpt>
      <trkpt lat="45.96816" lon="4.7548">
        <ele>174</ele>
        <time>2018-06-05T10:21:07Z</time>
      </trkpt>
      <trkpt lat="45.96809" lon="4.75478">
        <ele>174</ele>
        <time>2018-06-05T10:21:08Z</time>
      </trkpt>
      <trkpt lat="45.96802" lon="4.75475">
        <ele>174</ele>
        <time>2018-06-05T10:21:09Z</time>
      </trkpt>
      <trkpt lat="45.96796" lon="4.75473">
        <ele>174</ele>
        <time>2018-06-05T10:21:10Z</time>
      </trkpt>
      <trkpt lat="45.9679" lon="4.7547">
        <ele>174</ele>
        <time>2018-06-05T10:21:11Z</time>
      </trkpt>
      <trkpt lat="45.96783" lon="4.75467">
        <ele>174</ele>
        <time>2018-06-05T10:21:12Z</time>
      </trkpt>
      <trkpt lat="45.96777" lon="4.75464">
        <ele>174</ele>
        <time>2018-06-05T10:21:13Z</time>
      </trkpt>
      <trkpt lat="45.96771" lon="4.75462">
        <ele>174</ele>
        <time>2018-06-05T10:21:14Z</time>
      </trkpt>
      <trkpt lat="45.96765" lon="4.75462">
        <ele>174</ele>
        <time>2018-06-05T10:21:15Z</time>
      </trkpt>
      <trkpt lat="45.96759" lon="4.7546">
        <ele>174</ele>
        <time>2018-06-05T10:21:16Z</time>
      </trkpt>
      <trkpt lat="45.96752" lon="4.75456">
        <ele>174</ele>
        <time>2018-06-05T10:21:17Z</time>
      </trkpt>
      <trkpt lat="45.96745" lon="4.75453">
        <ele>179</ele>
        <time>2018-06-05T10:21:18Z</time>
      </trkpt>
      <trkpt lat="45.96738" lon="4.7545">
        <ele>179</ele>
        <time>2018-06-05T10:21:19Z</time>
      </trkpt>
      <trkpt lat="45.96732" lon="4.75446">
        <ele>179</ele>
        <time>2018-06-05T10:21:20Z</time>
      </trkpt>
      <trkpt lat="45.96726" lon="4.75442">
        <ele>179</ele>
        <time>2018-06-05T10:21:21Z</time>
      </trkpt>
      <trkpt lat="45.9672" lon="4.75439">
        <ele>179</ele>
        <time>2018-06-05T10:21:22Z</time>
      </trkpt>
      <trkpt lat="45.96715" lon="4.75435">
        <ele>179</ele>
        <time>2018-06-05T10:21:23Z</time>
      </trkpt>
      <trkpt lat="45.96709" lon="4.75427">
        <ele>179</ele>
        <time>2018-06-05T10:21:24Z</time>
      </trkpt>
      <trkpt lat="45.96704" lon="4.75425">
        <ele>179</ele>
        <time>2018-06-05T10:21:25Z</time>
      </trkpt>
      <trkpt lat="45.96697" lon="4.75421">
        <ele>179</ele>
        <time>2018-06-05T10:21:26Z</time>
      </trkpt>
      <trkpt lat="45.96692" lon="4.75418">
        <ele>179</ele>
        <time>2018-06-05T10:21:27Z</time>
      </trkpt>
      <trkpt lat="45.96687" lon="4.75414">
        <ele>172</ele>
        <time>2018-06-05T10:21:28Z</time>
      </trkpt>
      <trkpt lat="45.96681" lon="4.7541">
        <ele>172</ele>
        <time>2018-06-05T10:21:29Z</time>
      </trkpt>
      <trkpt lat="45.96676" lon="4.75407">
        <ele>173</ele>
        <time>2018-06-05T10:21:30Z</time>
      </trkpt>
      <trkpt lat="45.9667" lon="4.75404">
        <ele>173</ele>
        <time>2018-06-05T10:21:31Z</time>
      </trkpt>
      <trkpt lat="45.96665" lon="4.75401">
        <ele>177</ele>
        <time>2018-06-05T10:21:32Z</time>
      </trkpt>
      <trkpt lat="45.96659" lon="4.75398">
        <ele>178</ele>
        <time>2018-06-05T10:21:33Z</time>
      </trkpt>
      <trkpt lat="45.96654" lon="4.75397">
        <ele>178</ele>
        <time>2018-06-05T10:21:34Z</time>
      </trkpt>
      <trkpt lat="45.9665" lon="4.75392">
        <ele>178</ele>
        <time>2018-06-05T10:21:35Z</time>
      </trkpt>
      <trkpt lat="45.96645" lon="4.75389">
        <ele>178</ele>
        <time>2018-06-05T10:21:36Z</time>
      </trkpt>
      <trkpt lat="45.9664" lon="4.75386">
        <ele>179</ele>
        <time>2018-06-05T10:21:37Z</time>
      </trkpt>
      <trkpt lat="45.96635" lon="4.75383">
        <ele>179</ele>
        <time>2018-06-05T10:21:38Z</time>
      </trkpt>
      <trkpt lat="45.96629" lon="4.75381">
        <ele>179</ele>
        <time>2018-06-05T10:21:39Z</time>
      </trkpt>
      <trkpt lat="45.96624" lon="4.75378">
        <ele>180</ele>
        <time>2018-06-05T10:21:40Z</time>
      </trkpt>
      <trkpt lat="45.96618" lon="4.75374">
        <ele>180</ele>
        <time>2018-06-05T10:21:41Z</time>
      </trkpt>
      <trkpt lat="45.96612" lon="4.75372">
        <ele>180</ele>
        <time>2018-06-05T10:21:42Z</time>
      </trkpt>
      <trkpt lat="45.96608" lon="4.75369">
        <ele>180</ele>
        <time>2018-06-05T10:21:43Z</time>
      </trkpt>
      <trkpt lat="45.96603" lon="4.75367">
        <ele>180</ele>
        <time>2018-06-05T10:21:44Z</time>
      </trkpt>
      <trkpt lat="45.96598" lon="4.75364">
        <ele>180</ele>
        <time>2018-06-05T10:21:45Z</time>
      </trkpt>
      <trkpt lat="45.96593" lon="4.7536">
        <ele>179</ele>
        <time>2018-06-05T10:21:46Z</time>
      </trkpt>
      <trkpt lat="45.96587" lon="4.75358">
        <ele>179</ele>
        <time>2018-06-05T10:21:47Z</time>
      </trkpt>
      <trkpt lat="45.96582" lon="4.75355">
        <ele>186</ele>
        <time>2018-06-05T10:21:48Z</time>
      </trkpt>
      <trkpt lat="45.96577" lon="4.75351">
        <ele>185</ele>
        <time>2018-06-05T10:21:49Z</time>
      </trkpt>
      <trkpt lat="45.96571" lon="4.75349">
        <ele>186</ele>
        <time>2018-06-05T10:21:50Z</time>
      </trkpt>
      <trkpt lat="45.96565" lon="4.75346">
        <ele>186</ele>
        <time>2018-06-05T10:21:51Z</time>
      </trkpt>
      <trkpt lat="45.9656" lon="4.75343">
        <ele>187</ele>
        <time>2018-06-05T10:21:52Z</time>
      </trkpt>
      <trkpt lat="45.96555" lon="4.7534">
        <ele>188</ele>
        <time>2018-06-05T10:21:53Z</time>
      </trkpt>
      <trkpt lat="45.9655" lon="4.75337">
        <ele>188</ele>
        <time>2018-06-05T10:21:54Z</time>
      </trkpt>
      <trkpt lat="45.96545" lon="4.75334">
        <ele>189</ele>
        <time>2018-06-05T10:21:55Z</time>
      </trkpt>
      <trkpt lat="45.96538" lon="4.75332">
        <ele>178</ele>
        <time>2018-06-05T10:21:56Z</time>
      </trkpt>
      <trkpt lat="45.96532" lon="4.75329">
        <ele>178</ele>
        <time>2018-06-05T10:21:57Z</time>
      </trkpt>
      <trkpt lat="45.96528" lon="4.75326">
        <ele>179</ele>
        <time>2018-06-05T10:21:58Z</time>
      </trkpt>
      <trkpt lat="45.96523" lon="4.75322">
        <ele>179</ele>
        <time>2018-06-05T10:21:59Z</time>
      </trkpt>
      <trkpt lat="45.96519" lon="4.75319">
        <ele>180</ele>
        <time>2018-06-05T10:22:00Z</time>
      </trkpt>
      <trkpt lat="45.96514" lon="4.75315">
        <ele>180</ele>
        <time>2018-06-05T10:22:01Z</time>
      </trkpt>
      <trkpt lat="45.96508" lon="4.75312">
        <ele>180</ele>
        <time>2018-06-05T10:22:02Z</time>
      </trkpt>
      <trkpt lat="45.96502" lon="4.7531">
        <ele>180</ele>
        <time>2018-06-05T10:22:03Z</time>
      </trkpt>
      <trkpt lat="45.96496" lon="4.75308">
        <ele>186</ele>
        <time>2018-06-05T10:22:04Z</time>
      </trkpt>
      <trkpt lat="45.9649" lon="4.75305">
        <ele>186</ele>
        <time>2018-06-05T10:22:05Z</time>
      </trkpt>
      <trkpt lat="45.96485" lon="4.75302">
        <ele>186</ele>
        <time>2018-06-05T10:22:06Z</time>
      </trkpt>
      <trkpt lat="45.96481" lon="4.753">
        <ele>186</ele>
        <time>2018-06-05T10:22:07Z</time>
      </trkpt>
      <trkpt lat="45.96473" lon="4.75296">
        <ele>186</ele>
        <time>2018-06-05T10:22:09Z</time>
      </trkpt>
      <trkpt lat="45.96467" lon="4.75291">
        <ele>185</ele>
        <time>2018-06-05T10:22:10Z</time>
      </trkpt>
      <trkpt lat="45.96462" lon="4.7529">
        <ele>186</ele>
        <time>2018-06-05T10:22:11Z</time>
      </trkpt>
      <trkpt lat="45.96457" lon="4.75291">
        <ele>186</ele>
        <time>2018-06-05T10:22:12Z</time>
      </trkpt>
      <trkpt lat="45.96451" lon="4.7529">
        <ele>187</ele>
        <time>2018-06-05T10:22:13Z</time>
      </trkpt>
      <trkpt lat="45.96447" lon="4.75287">
        <ele>187</ele>
        <time>2018-06-05T10:22:14Z</time>
      </trkpt>
      <trkpt lat="45.96439" lon="4.75282">
        <ele>186</ele>
        <time>2018-06-05T10:22:16Z</time>
      </trkpt>
      <trkpt lat="45.96435" lon="4.7528">
        <ele>186</ele>
        <time>2018-06-05T10:22:17Z</time>
      </trkpt>
      <trkpt lat="45.96428" lon="4.75279">
        <ele>186</ele>
        <time>2018-06-05T10:22:19Z</time>
      </trkpt>
      <trkpt lat="45.96424" lon="4.75275">
        <ele>186</ele>
        <time>2018-06-05T10:22:20Z</time>
      </trkpt>
      <trkpt lat="45.96419" lon="4.75273">
        <ele>186</ele>
        <time>2018-06-05T10:22:21Z</time>
      </trkpt>
      <trkpt lat="45.96414" lon="4.75269">
        <ele>190</ele>
        <time>2018-06-05T10:22:22Z</time>
      </trkpt>
      <trkpt lat="45.96405" lon="4.75264">
        <ele>190</ele>
        <time>2018-06-05T10:22:24Z</time>
      </trkpt>
      <trkpt lat="45.96402" lon="4.75262">
        <ele>190</ele>
        <time>2018-06-05T10:22:25Z</time>
      </trkpt>
      <trkpt lat="45.96397" lon="4.75258">
        <ele>190</ele>
        <time>2018-06-05T10:22:26Z</time>
      </trkpt>
      <trkpt lat="45.96394" lon="4.75254">
        <ele>190</ele>
        <time>2018-06-05T10:22:27Z</time>
      </trkpt>
      <trkpt lat="45.96387" lon="4.75252">
        <ele>191</ele>
        <time>2018-06-05T10:22:29Z</time>
      </trkpt>
      <trkpt lat="45.96385" lon="4.75251">
        <ele>192</ele>
        <time>2018-06-05T10:22:30Z</time>
      </trkpt>
      <trkpt lat="45.96377" lon="4.75249">
        <ele>180</ele>
        <time>2018-06-05T10:22:31Z</time>
      </trkpt>
      <trkpt lat="45.96372" lon="4.75245">
        <ele>180</ele>
        <time>2018-06-05T10:22:32Z</time>
      </trkpt>
      <trkpt lat="45.96364" lon="4.75239">
        <ele>181</ele>
        <time>2018-06-05T10:22:34Z</time>
      </trkpt>
      <trkpt lat="45.96359" lon="4.75238">
        <ele>181</ele>
        <time>2018-06-05T10:22:35Z</time>
      </trkpt>
      <trkpt lat="45.9635" lon="4.75234">
        <ele>182</ele>
        <time>2018-06-05T10:22:37Z</time>
      </trkpt>
      <trkpt lat="45.96346" lon="4.75233">
        <ele>182</ele>
        <time>2018-06-05T10:22:38Z</time>
      </trkpt>
      <trkpt lat="45.96338" lon="4.75231">
        <ele>182</ele>
        <time>2018-06-05T10:22:40Z</time>
      </trkpt>
      <trkpt lat="45.96333" lon="4.75228">
        <ele>186</ele>
        <time>2018-06-05T10:22:41Z</time>
      </trkpt>
      <trkpt lat="45.96328" lon="4.75226">
        <ele>186</ele>
        <time>2018-06-05T10:22:42Z</time>
      </trkpt>
      <trkpt lat="45.96323" lon="4.75224">
        <ele>185</ele>
        <time>2018-06-05T10:22:43Z</time>
      </trkpt>
      <trkpt lat="45.96315" lon="4.75221">
        <ele>185</ele>
        <time>2018-06-05T10:22:45Z</time>
      </trkpt>
      <trkpt lat="45.9631" lon="4.75219">
        <ele>185</ele>
        <time>2018-06-05T10:22:46Z</time>
      </trkpt>
      <trkpt lat="45.96305" lon="4.75221">
        <ele>185</ele>
        <time>2018-06-05T10:22:47Z</time>
      </trkpt>
      <trkpt lat="45.96301" lon="4.7522">
        <ele>185</ele>
        <time>2018-06-05T10:22:48Z</time>
      </trkpt>
      <trkpt lat="45.96292" lon="4.75217">
        <ele>186</ele>
        <time>2018-06-05T10:22:50Z</time>
      </trkpt>
      <trkpt lat="45.96288" lon="4.75216">
        <ele>186</ele>
        <time>2018-06-05T10:22:51Z</time>
      </trkpt>
      <trkpt lat="45.96282" lon="4.75216">
        <ele>186</ele>
        <time>2018-06-05T10:22:52Z</time>
      </trkpt>
      <trkpt lat="45.96278" lon="4.75215">
        <ele>186</ele>
        <time>2018-06-05T10:22:53Z</time>
      </trkpt>
      <trkpt lat="45.96274" lon="4.75213">
        <ele>186</ele>
        <time>2018-06-05T10:22:54Z</time>
      </trkpt>
      <trkpt lat="45.9627" lon="4.75212">
        <ele>186</ele>
        <time>2018-06-05T10:22:55Z</time>
      </trkpt>
      <trkpt lat="45.96264" lon="4.75208">
        <ele>186</ele>
        <time>2018-06-05T10:22:57Z</time>
      </trkpt>
      <trkpt lat="45.96259" lon="4.75206">
        <ele>186</ele>
        <time>2018-06-05T10:22:58Z</time>
      </trkpt>
      <trkpt lat="45.96252" lon="4.75203">
        <ele>186</ele>
        <time>2018-06-05T10:23:00Z</time>
      </trkpt>
      <trkpt lat="45.96248" lon="4.75201">
        <ele>192</ele>
        <time>2018-06-05T10:23:01Z</time>
      </trkpt>
      <trkpt lat="45.96243" lon="4.75197">
        <ele>192</ele>
        <time>2018-06-05T10:23:02Z</time>
      </trkpt>
      <trkpt lat="45.96239" lon="4.75194">
        <ele>192</ele>
        <time>2018-06-05T10:23:03Z</time>
      </trkpt>
      <trkpt lat="45.96235" lon="4.75192">
        <ele>192</ele>
        <time>2018-06-05T10:23:04Z</time>
      </trkpt>
      <trkpt lat="45.9623" lon="4.75187">
        <ele>192</ele>
        <time>2018-06-05T10:23:05Z</time>
      </trkpt>
      <trkpt lat="45.96222" lon="4.75184">
        <ele>192</ele>
        <time>2018-06-05T10:23:07Z</time>
      </trkpt>
      <trkpt lat="45.96219" lon="4.7518">
        <ele>192</ele>
        <time>2018-06-05T10:23:08Z</time>
      </trkpt>
      <trkpt lat="45.96214" lon="4.75178">
        <ele>193</ele>
        <time>2018-06-05T10:23:09Z</time>
      </trkpt>
      <trkpt lat="45.96209" lon="4.75175">
        <ele>193</ele>
        <time>2018-06-05T10:23:10Z</time>
      </trkpt>
      <trkpt lat="45.96204" lon="4.75171">
        <ele>194</ele>
        <time>2018-06-05T10:23:12Z</time>
      </trkpt>
      <trkpt lat="45.96198" lon="4.75166">
        <ele>186</ele>
        <time>2018-06-05T10:23:13Z</time>
      </trkpt>
      <trkpt lat="45.96193" lon="4.7516">
        <ele>187</ele>
        <time>2018-06-05T10:23:15Z</time>
      </trkpt>
      <trkpt lat="45.96189" lon="4.75157">
        <ele>187</ele>
        <time>2018-06-05T10:23:16Z</time>
      </trkpt>
      <trkpt lat="45.96185" lon="4.75153">
        <ele>187</ele>
        <time>2018-06-05T10:23:17Z</time>
      </trkpt>
      <trkpt lat="45.96181" lon="4.75149">
        <ele>187</ele>
        <time>2018-06-05T10:23:18Z</time>
      </trkpt>
      <trkpt lat="45.96174" lon="4.75142">
        <ele>187</ele>
        <time>2018-06-05T10:23:20Z</time>
      </trkpt>
      <trkpt lat="45.96169" lon="4.75138">
        <ele>186</ele>
        <time>2018-06-05T10:23:21Z</time>
      </trkpt>
      <trkpt lat="45.96162" lon="4.75132">
        <ele>190</ele>
        <time>2018-06-05T10:23:23Z</time>
      </trkpt>
      <trkpt lat="45.96159" lon="4.75129">
        <ele>190</ele>
        <time>2018-06-05T10:23:24Z</time>
      </trkpt>
      <trkpt lat="45.96152" lon="4.75123">
        <ele>189</ele>
        <time>2018-06-05T10:23:26Z</time>
      </trkpt>
      <trkpt lat="45.96151" lon="4.75122">
        <ele>189</ele>
        <time>2018-06-05T10:23:27Z</time>
      </trkpt>
      <trkpt lat="45.96144" lon="4.75115">
        <ele>189</ele>
        <time>2018-06-05T10:23:29Z</time>
      </trkpt>
      <trkpt lat="45.96142" lon="4.75114">
        <ele>189</ele>
        <time>2018-06-05T10:23:30Z</time>
      </trkpt>
      <trkpt lat="45.96137" lon="4.75107">
        <ele>188</ele>
        <time>2018-06-05T10:23:31Z</time>
      </trkpt>
      <trkpt lat="45.96134" lon="4.75102">
        <ele>188</ele>
        <time>2018-06-05T10:23:32Z</time>
      </trkpt>
      <trkpt lat="45.96128" lon="4.75096">
        <ele>188</ele>
        <time>2018-06-05T10:23:34Z</time>
      </trkpt>
      <trkpt lat="45.96125" lon="4.75092">
        <ele>189</ele>
        <time>2018-06-05T10:23:35Z</time>
      </trkpt>
      <trkpt lat="45.96118" lon="4.75086">
        <ele>189</ele>
        <time>2018-06-05T10:23:37Z</time>
      </trkpt>
      <trkpt lat="45.96114" lon="4.75082">
        <ele>183</ele>
        <time>2018-06-05T10:23:38Z</time>
      </trkpt>
      <trkpt lat="45.96108" lon="4.75077">
        <ele>184</ele>
        <time>2018-06-05T10:23:40Z</time>
      </trkpt>
      <trkpt lat="45.96105" lon="4.75073">
        <ele>184</ele>
        <time>2018-06-05T10:23:41Z</time>
      </trkpt>
      <trkpt lat="45.96098" lon="4.75067">
        <ele>185</ele>
        <time>2018-06-05T10:23:43Z</time>
      </trkpt>
      <trkpt lat="45.96094" lon="4.75064">
        <ele>185</ele>
        <time>2018-06-05T10:23:44Z</time>
      </trkpt>
      <trkpt lat="45.96086" lon="4.75058">
        <ele>184</ele>
        <time>2018-06-05T10:23:46Z</time>
      </trkpt>
      <trkpt lat="45.96082" lon="4.75055">
        <ele>189</ele>
        <time>2018-06-05T10:23:47Z</time>
      </trkpt>
      <trkpt lat="45.96075" lon="4.75051">
        <ele>188</ele>
        <time>2018-06-05T10:23:49Z</time>
      </trkpt>
      <trkpt lat="45.96071" lon="4.7505">
        <ele>188</ele>
        <time>2018-06-05T10:23:50Z</time>
      </trkpt>
      <trkpt lat="45.96062" lon="4.75049">
        <ele>188</ele>
        <time>2018-06-05T10:23:52Z</time>
      </trkpt>
      <trkpt lat="45.96059" lon="4.75047">
        <ele>188</ele>
        <time>2018-06-05T10:23:53Z</time>
      </trkpt>
      <trkpt lat="45.96051" lon="4.75045">
        <ele>188</ele>
        <time>2018-06-05T10:23:55Z</time>
      </trkpt>
      <trkpt lat="45.96047" lon="4.75044">
        <ele>188</ele>
        <time>2018-06-05T10:23:56Z</time>
      </trkpt>
      <trkpt lat="45.96039" lon="4.75048">
        <ele>189</ele>
        <time>2018-06-05T10:23:58Z</time>
      </trkpt>
      <trkpt lat="45.96035" lon="4.75049">
        <ele>189</ele>
        <time>2018-06-05T10:23:59Z</time>
      </trkpt>
      <trkpt lat="45.96028" lon="4.7505">
        <ele>189</ele>
        <time>2018-06-05T10:24:01Z</time>
      </trkpt>
      <trkpt lat="45.96023" lon="4.75051">
        <ele>190</ele>
        <time>2018-06-05T10:24:02Z</time>
      </trkpt>
      <trkpt lat="45.96017" lon="4.75052">
        <ele>190</ele>
        <time>2018-06-05T10:24:04Z</time>
      </trkpt>
      <trkpt lat="45.96011" lon="4.75055">
        <ele>190</ele>
        <time>2018-06-05T10:24:05Z</time>
      </trkpt>
      <trkpt lat="45.96003" lon="4.75059">
        <ele>191</ele>
        <time>2018-06-05T10:24:08Z</time>
      </trkpt>
      <trkpt lat="45.95997" lon="4.7506">
        <ele>191</ele>
        <time>2018-06-05T10:24:09Z</time>
      </trkpt>
      <trkpt lat="45.95993" lon="4.75063">
        <ele>192</ele>
        <time>2018-06-05T10:24:10Z</time>
      </trkpt>
      <trkpt lat="45.95989" lon="4.75066">
        <ele>192</ele>
        <time>2018-06-05T10:24:11Z</time>
      </trkpt>
      <trkpt lat="45.95984" lon="4.75066">
        <ele>192</ele>
        <time>2018-06-05T10:24:13Z</time>
      </trkpt>
      <trkpt lat="45.95977" lon="4.75067">
        <ele>191</ele>
        <time>2018-06-05T10:24:14Z</time>
      </trkpt>
      <trkpt lat="45.95972" lon="4.75069">
        <ele>191</ele>
        <time>2018-06-05T10:24:16Z</time>
      </trkpt>
      <trkpt lat="45.95964" lon="4.75072">
        <ele>191</ele>
        <time>2018-06-05T10:24:17Z</time>
      </trkpt>
      <trkpt lat="45.95957" lon="4.75073">
        <ele>190</ele>
        <time>2018-06-05T10:24:19Z</time>
      </trkpt>
      <trkpt lat="45.95955" lon="4.75073">
        <ele>190</ele>
        <time>2018-06-05T10:24:20Z</time>
      </trkpt>
      <trkpt lat="45.95949" lon="4.75076">
        <ele>190</ele>
        <time>2018-06-05T10:24:21Z</time>
      </trkpt>
      <trkpt lat="45.95945" lon="4.75078">
        <ele>190</ele>
        <time>2018-06-05T10:24:22Z</time>
      </trkpt>
      <trkpt lat="45.95938" lon="4.75085">
        <ele>192</ele>
        <time>2018-06-05T10:24:24Z</time>
      </trkpt>
      <trkpt lat="45.95934" lon="4.75086">
        <ele>192</ele>
        <time>2018-06-05T10:24:25Z</time>
      </trkpt>
      <trkpt lat="45.95926" lon="4.7509">
        <ele>191</ele>
        <time>2018-06-05T10:24:27Z</time>
      </trkpt>
      <trkpt lat="45.95922" lon="4.75091">
        <ele>191</ele>
        <time>2018-06-05T10:24:28Z</time>
      </trkpt>
      <trkpt lat="45.95914" lon="4.75093">
        <ele>190</ele>
        <time>2018-06-05T10:24:30Z</time>
      </trkpt>
      <trkpt lat="45.9591" lon="4.75095">
        <ele>190</ele>
        <time>2018-06-05T10:24:31Z</time>
      </trkpt>
      <trkpt lat="45.95903" lon="4.75098">
        <ele>190</ele>
        <time>2018-06-05T10:24:34Z</time>
      </trkpt>
      <trkpt lat="45.95896" lon="4.75102">
        <ele>190</ele>
        <time>2018-06-05T10:24:35Z</time>
      </trkpt>
      <trkpt lat="45.95888" lon="4.75107">
        <ele>190</ele>
        <time>2018-06-05T10:24:37Z</time>
      </trkpt>
      <trkpt lat="45.95885" lon="4.75108">
        <ele>190</ele>
        <time>2018-06-05T10:24:38Z</time>
      </trkpt>
      <trkpt lat="45.95878" lon="4.75115">
        <ele>191</ele>
        <time>2018-06-05T10:24:40Z</time>
      </trkpt>
      <trkpt lat="45.95874" lon="4.75118">
        <ele>191</ele>
        <time>2018-06-05T10:24:41Z</time>
      </trkpt>
      <trkpt lat="45.9587" lon="4.75122">
        <ele>191</ele>
        <time>2018-06-05T10:24:42Z</time>
      </trkpt>
      <trkpt lat="45.95867" lon="4.75127">
        <ele>191</ele>
        <time>2018-06-05T10:24:43Z</time>
      </trkpt>
      <trkpt lat="45.95861" lon="4.75135">
        <ele>191</ele>
        <time>2018-06-05T10:24:45Z</time>
      </trkpt>
      <trkpt lat="45.95857" lon="4.75139">
        <ele>191</ele>
        <time>2018-06-05T10:24:46Z</time>
      </trkpt>
      <trkpt lat="45.9585" lon="4.75147">
        <ele>191</ele>
        <time>2018-06-05T10:24:48Z</time>
      </trkpt>
      <trkpt lat="45.95847" lon="4.75152">
        <ele>191</ele>
        <time>2018-06-05T10:24:49Z</time>
      </trkpt>
      <trkpt lat="45.95844" lon="4.75156">
        <ele>191</ele>
        <time>2018-06-05T10:24:50Z</time>
      </trkpt>
      <trkpt lat="45.95841" lon="4.75161">
        <ele>192</ele>
        <time>2018-06-05T10:24:51Z</time>
      </trkpt>
      <trkpt lat="45.95837" lon="4.75166">
        <ele>192</ele>
        <time>2018-06-05T10:24:52Z</time>
      </trkpt>
      <trkpt lat="45.95834" lon="4.75171">
        <ele>192</ele>
        <time>2018-06-05T10:24:53Z</time>
      </trkpt>
      <trkpt lat="45.95831" lon="4.75176">
        <ele>192</ele>
        <time>2018-06-05T10:24:54Z</time>
      </trkpt>
      <trkpt lat="45.95827" lon="4.75181">
        <ele>192</ele>
        <time>2018-06-05T10:24:55Z</time>
      </trkpt>
      <trkpt lat="45.95823" lon="4.75186">
        <ele>192</ele>
        <time>2018-06-05T10:24:56Z</time>
      </trkpt>
      <trkpt lat="45.9582" lon="4.75192">
        <ele>193</ele>
        <time>2018-06-05T10:24:57Z</time>
      </trkpt>
      <trkpt lat="45.95816" lon="4.75197">
        <ele>193</ele>
        <time>2018-06-05T10:24:58Z</time>
      </trkpt>
      <trkpt lat="45.95813" lon="4.75204">
        <ele>193</ele>
        <time>2018-06-05T10:24:59Z</time>
      </trkpt>
      <trkpt lat="45.95809" lon="4.75209">
        <ele>193</ele>
        <time>2018-06-05T10:25:00Z</time>
      </trkpt>
      <trkpt lat="45.95803" lon="4.75214">
        <ele>193</ele>
        <time>2018-06-05T10:25:01Z</time>
      </trkpt>
      <trkpt lat="45.958" lon="4.7522">
        <ele>193</ele>
        <time>2018-06-05T10:25:02Z</time>
      </trkpt>
      <trkpt lat="45.95796" lon="4.75226">
        <ele>193</ele>
        <time>2018-06-05T10:25:03Z</time>
      </trkpt>
      <trkpt lat="45.95792" lon="4.75231">
        <ele>193</ele>
        <time>2018-06-05T10:25:04Z</time>
      </trkpt>
      <trkpt lat="45.95788" lon="4.75236">
        <ele>193</ele>
        <time>2018-06-05T10:25:05Z</time>
      </trkpt>
      <trkpt lat="45.95784" lon="4.75241">
        <ele>193</ele>
        <time>2018-06-05T10:25:06Z</time>
      </trkpt>
      <trkpt lat="45.9578" lon="4.75246">
        <ele>193</ele>
        <time>2018-06-05T10:25:07Z</time>
      </trkpt>
      <trkpt lat="45.95776" lon="4.75251">
        <ele>193</ele>
        <time>2018-06-05T10:25:08Z</time>
      </trkpt>
      <trkpt lat="45.95772" lon="4.75256">
        <ele>193</ele>
        <time>2018-06-05T10:25:09Z</time>
      </trkpt>
      <trkpt lat="45.95766" lon="4.75266">
        <ele>193</ele>
        <time>2018-06-05T10:25:11Z</time>
      </trkpt>
      <trkpt lat="45.95761" lon="4.75271">
        <ele>193</ele>
        <time>2018-06-05T10:25:12Z</time>
      </trkpt>
      <trkpt lat="45.95754" lon="4.75278">
        <ele>193</ele>
        <time>2018-06-05T10:25:14Z</time>
      </trkpt>
      <trkpt lat="45.95751" lon="4.75283">
        <ele>193</ele>
        <time>2018-06-05T10:25:15Z</time>
      </trkpt>
      <trkpt lat="45.95747" lon="4.75287">
        <ele>193</ele>
        <time>2018-06-05T10:25:16Z</time>
      </trkpt>
      <trkpt lat="45.95743" lon="4.7529">
        <ele>193</ele>
        <time>2018-06-05T10:25:17Z</time>
      </trkpt>
      <trkpt lat="45.95737" lon="4.75297">
        <ele>193</ele>
        <time>2018-06-05T10:25:19Z</time>
      </trkpt>
      <trkpt lat="45.95733" lon="4.75301">
        <ele>193</ele>
        <time>2018-06-05T10:25:20Z</time>
      </trkpt>
      <trkpt lat="45.95729" lon="4.75305">
        <ele>193</ele>
        <time>2018-06-05T10:25:21Z</time>
      </trkpt>
      <trkpt lat="45.95725" lon="4.75309">
        <ele>193</ele>
        <time>2018-06-05T10:25:22Z</time>
      </trkpt>
      <trkpt lat="45.95721" lon="4.75312">
        <ele>193</ele>
        <time>2018-06-05T10:25:23Z</time>
      </trkpt>
      <trkpt lat="45.95717" lon="4.75316">
        <ele>193</ele>
        <time>2018-06-05T10:25:24Z</time>
      </trkpt>
      <trkpt lat="45.95712" lon="4.75321">
        <ele>193</ele>
        <time>2018-06-05T10:25:25Z</time>
      </trkpt>
      <trkpt lat="45.95707" lon="4.75326">
        <ele>193</ele>
        <time>2018-06-05T10:25:26Z</time>
      </trkpt>
      <trkpt lat="45.95703" lon="4.7533">
        <ele>193</ele>
        <time>2018-06-05T10:25:27Z</time>
      </trkpt>
      <trkpt lat="45.95698" lon="4.75333">
        <ele>193</ele>
        <time>2018-06-05T10:25:28Z</time>
      </trkpt>
      <trkpt lat="45.95694" lon="4.75338">
        <ele>193</ele>
        <time>2018-06-05T10:25:29Z</time>
      </trkpt>
      <trkpt lat="45.95691" lon="4.75342">
        <ele>193</ele>
        <time>2018-06-05T10:25:30Z</time>
      </trkpt>
      <trkpt lat="45.95686" lon="4.75346">
        <ele>193</ele>
        <time>2018-06-05T10:25:31Z</time>
      </trkpt>
      <trkpt lat="45.95681" lon="4.75351">
        <ele>193</ele>
        <time>2018-06-05T10:25:32Z</time>
      </trkpt>
      <trkpt lat="45.95676" lon="4.75356">
        <ele>193</ele>
        <time>2018-06-05T10:25:33Z</time>
      </trkpt>
      <trkpt lat="45.95671" lon="4.7536">
        <ele>193</ele>
        <time>2018-06-05T10:25:34Z</time>
      </trkpt>
      <trkpt lat="45.95667" lon="4.75364">
        <ele>193</ele>
        <time>2018-06-05T10:25:35Z</time>
      </trkpt>
      <trkpt lat="45.95662" lon="4.75368">
        <ele>193</ele>
        <time>2018-06-05T10:25:36Z</time>
      </trkpt>
      <trkpt lat="45.95656" lon="4.75372">
        <ele>193</ele>
        <time>2018-06-05T10:25:37Z</time>
      </trkpt>
      <trkpt lat="45.9565" lon="4.75377">
        <ele>193</ele>
        <time>2018-06-05T10:25:38Z</time>
      </trkpt>
      <trkpt lat="45.95644" lon="4.75381">
        <ele>193</ele>
        <time>2018-06-05T10:25:39Z</time>
      </trkpt>
      <trkpt lat="45.95639" lon="4.75387">
        <ele>193</ele>
        <time>2018-06-05T10:25:40Z</time>
      </trkpt>
      <trkpt lat="45.95633" lon="4.75391">
        <ele>193</ele>
        <time>2018-06-05T10:25:41Z</time>
      </trkpt>
      <trkpt lat="45.95626" lon="4.75398">
        <ele>193</ele>
        <time>2018-06-05T10:25:42Z</time>
      </trkpt>
      <trkpt lat="45.9562" lon="4.75403">
        <ele>193</ele>
        <time>2018-06-05T10:25:43Z</time>
      </trkpt>
      <trkpt lat="45.95613" lon="4.75408">
        <ele>193</ele>
        <time>2018-06-05T10:25:44Z</time>
      </trkpt>
      <trkpt lat="45.95607" lon="4.75414">
        <ele>193</ele>
        <time>2018-06-05T10:25:45Z</time>
      </trkpt>
      <trkpt lat="45.95601" lon="4.75418">
        <ele>192</ele>
        <time>2018-06-05T10:25:46Z</time>
      </trkpt>
      <trkpt lat="45.95594" lon="4.75422">
        <ele>192</ele>
        <time>2018-06-05T10:25:47Z</time>
      </trkpt>
      <trkpt lat="45.95587" lon="4.75425">
        <ele>192</ele>
        <time>2018-06-05T10:25:48Z</time>
      </trkpt>
      <trkpt lat="45.95579" lon="4.75429">
        <ele>190</ele>
        <time>2018-06-05T10:25:49Z</time>
      </trkpt>
      <trkpt lat="45.95571" lon="4.75435">
        <ele>189</ele>
        <time>2018-06-05T10:25:50Z</time>
      </trkpt>
      <trkpt lat="45.95564" lon="4.7544">
        <ele>189</ele>
        <time>2018-06-05T10:25:51Z</time>
      </trkpt>
      <trkpt lat="45.95556" lon="4.75443">
        <ele>188</ele>
        <time>2018-06-05T10:25:52Z</time>
      </trkpt>
      <trkpt lat="45.95549" lon="4.75447">
        <ele>188</ele>
        <time>2018-06-05T10:25:53Z</time>
      </trkpt>
      <trkpt lat="45.95543" lon="4.7545">
        <ele>188</ele>
        <time>2018-06-05T10:25:54Z</time>
      </trkpt>
      <trkpt lat="45.95538" lon="4.7545">
        <ele>187</ele>
        <time>2018-06-05T10:25:55Z</time>
      </trkpt>
      <trkpt lat="45.95532" lon="4.75448">
        <ele>187</ele>
        <time>2018-06-05T10:25:56Z</time>
      </trkpt>
      <trkpt lat="45.95528" lon="4.75444">
        <ele>187</ele>
        <time>2018-06-05T10:25:57Z</time>
      </trkpt>
      <trkpt lat="45.95524" lon="4.75439">
        <ele>187</ele>
        <time>2018-06-05T10:25:58Z</time>
      </trkpt>
      <trkpt lat="45.9552" lon="4.75432">
        <ele>187</ele>
        <time>2018-06-05T10:25:59Z</time>
      </trkpt>
      <trkpt lat="45.95518" lon="4.75426">
        <ele>186</ele>
        <time>2018-06-05T10:26:00Z</time>
      </trkpt>
      <trkpt lat="45.95516" lon="4.75419">
        <ele>186</ele>
        <time>2018-06-05T10:26:01Z</time>
      </trkpt>
      <trkpt lat="45.95514" lon="4.75413">
        <ele>187</ele>
        <time>2018-06-05T10:26:02Z</time>
      </trkpt>
      <trkpt lat="45.95511" lon="4.75407">
        <ele>187</ele>
        <time>2018-06-05T10:26:03Z</time>
      </trkpt>
      <trkpt lat="45.95508" lon="4.754">
        <ele>187</ele>
        <time>2018-06-05T10:26:04Z</time>
      </trkpt>
      <trkpt lat="45.95506" lon="4.75394">
        <ele>188</ele>
        <time>2018-06-05T10:26:05Z</time>
      </trkpt>
      <trkpt lat="45.95503" lon="4.75386">
        <ele>188</ele>
        <time>2018-06-05T10:26:06Z</time>
      </trkpt>
      <trkpt lat="45.955" lon="4.7538">
        <ele>185</ele>
        <time>2018-06-05T10:26:07Z</time>
      </trkpt>
      <trkpt lat="45.95498" lon="4.75374">
        <ele>185</ele>
        <time>2018-06-05T10:26:08Z</time>
      </trkpt>
      <trkpt lat="45.95495" lon="4.75368">
        <ele>186</ele>
        <time>2018-06-05T10:26:09Z</time>
      </trkpt>
      <trkpt lat="45.95492" lon="4.75362">
        <ele>186</ele>
        <time>2018-06-05T10:26:10Z</time>
      </trkpt>
      <trkpt lat="45.95489" lon="4.75356">
        <ele>186</ele>
        <time>2018-06-05T10:26:11Z</time>
      </trkpt>
      <trkpt lat="45.95487" lon="4.7535">
        <ele>186</ele>
        <time>2018-06-05T10:26:12Z</time>
      </trkpt>
      <trkpt lat="45.95484" lon="4.75344">
        <ele>187</ele>
        <time>2018-06-05T10:26:13Z</time>
      </trkpt>
      <trkpt lat="45.9548" lon="4.75337">
        <ele>186</ele>
        <time>2018-06-05T10:26:14Z</time>
      </trkpt>
      <trkpt lat="45.95478" lon="4.75331">
        <ele>188</ele>
        <time>2018-06-05T10:26:15Z</time>
      </trkpt>
      <trkpt lat="45.95474" lon="4.75324">
        <ele>188</ele>
        <time>2018-06-05T10:26:16Z</time>
      </trkpt>
      <trkpt lat="45.95471" lon="4.75319">
        <ele>188</ele>
        <time>2018-06-05T10:26:17Z</time>
      </trkpt>
      <trkpt lat="45.95468" lon="4.75313">
        <ele>188</ele>
        <time>2018-06-05T10:26:18Z</time>
      </trkpt>
      <trkpt lat="45.95466" lon="4.75307">
        <ele>188</ele>
        <time>2018-06-05T10:26:19Z</time>
      </trkpt>
      <trkpt lat="45.95463" lon="4.75302">
        <ele>188</ele>
        <time>2018-06-05T10:26:20Z</time>
      </trkpt>
      <trkpt lat="45.9546" lon="4.75297">
        <ele>188</ele>
        <time>2018-06-05T10:26:21Z</time>
      </trkpt>
      <trkpt lat="45.95458" lon="4.75291">
        <ele>189</ele>
        <time>2018-06-05T10:26:22Z</time>
      </trkpt>
      <trkpt lat="45.95455" lon="4.75286">
        <ele>189</ele>
        <time>2018-06-05T10:26:23Z</time>
      </trkpt>
      <trkpt lat="45.95453" lon="4.75279">
        <ele>189</ele>
        <time>2018-06-05T10:26:24Z</time>
      </trkpt>
      <trkpt lat="45.9545" lon="4.75273">
        <ele>189</ele>
        <time>2018-06-05T10:26:25Z</time>
      </trkpt>
      <trkpt lat="45.95446" lon="4.75268">
        <ele>189</ele>
        <time>2018-06-05T10:26:26Z</time>
      </trkpt>
      <trkpt lat="45.95443" lon="4.75263">
        <ele>189</ele>
        <time>2018-06-05T10:26:27Z</time>
      </trkpt>
      <trkpt lat="45.9544" lon="4.75258">
        <ele>189</ele>
        <time>2018-06-05T10:26:28Z</time>
      </trkpt>
      <trkpt lat="45.95438" lon="4.75252">
        <ele>189</ele>
        <time>2018-06-05T10:26:29Z</time>
      </trkpt>
      <trkpt lat="45.95434" lon="4.75247">
        <ele>190</ele>
        <time>2018-06-05T10:26:30Z</time>
      </trkpt>
      <trkpt lat="45.95432" lon="4.75241">
        <ele>190</ele>
        <time>2018-06-05T10:26:31Z</time>
      </trkpt>
      <trkpt lat="45.95429" lon="4.75235">
        <ele>190</ele>
        <time>2018-06-05T10:26:32Z</time>
      </trkpt>
      <trkpt lat="45.95426" lon="4.75229">
        <ele>191</ele>
        <time>2018-06-05T10:26:33Z</time>
      </trkpt>
      <trkpt lat="45.95424" lon="4.75224">
        <ele>191</ele>
        <time>2018-06-05T10:26:34Z</time>
      </trkpt>
      <trkpt lat="45.95421" lon="4.75218">
        <ele>191</ele>
        <time>2018-06-05T10:26:35Z</time>
      </trkpt>
      <trkpt lat="45.95419" lon="4.75212">
        <ele>191</ele>
        <time>2018-06-05T10:26:36Z</time>
      </trkpt>
      <trkpt lat="45.95411" lon="4.75207">
        <ele>189</ele>
        <time>2018-06-05T10:26:38Z</time>
      </trkpt>
      <trkpt lat="45.95407" lon="4.75202">
        <ele>189</ele>
        <time>2018-06-05T10:26:39Z</time>
      </trkpt>
      <trkpt lat="45.95404" lon="4.75197">
        <ele>189</ele>
        <time>2018-06-05T10:26:40Z</time>
      </trkpt>
      <trkpt lat="45.95401" lon="4.75192">
        <ele>189</ele>
        <time>2018-06-05T10:26:41Z</time>
      </trkpt>
      <trkpt lat="45.95397" lon="4.75186">
        <ele>189</ele>
        <time>2018-06-05T10:26:42Z</time>
      </trkpt>
      <trkpt lat="45.95395" lon="4.7518">
        <ele>189</ele>
        <time>2018-06-05T10:26:43Z</time>
      </trkpt>
      <trkpt lat="45.95392" lon="4.75175">
        <ele>189</ele>
        <time>2018-06-05T10:26:44Z</time>
      </trkpt>
      <trkpt lat="45.95389" lon="4.75169">
        <ele>189</ele>
        <time>2018-06-05T10:26:45Z</time>
      </trkpt>
      <trkpt lat="45.95387" lon="4.75162">
        <ele>191</ele>
        <time>2018-06-05T10:26:46Z</time>
      </trkpt>
      <trkpt lat="45.95383" lon="4.75156">
        <ele>191</ele>
        <time>2018-06-05T10:26:47Z</time>
      </trkpt>
      <trkpt lat="45.95379" lon="4.75151">
        <ele>191</ele>
        <time>2018-06-05T10:26:48Z</time>
      </trkpt>
      <trkpt lat="45.95377" lon="4.75147">
        <ele>191</ele>
        <time>2018-06-05T10:26:49Z</time>
      </trkpt>
      <trkpt lat="45.95373" lon="4.7514">
        <ele>191</ele>
        <time>2018-06-05T10:26:50Z</time>
      </trkpt>
      <trkpt lat="45.9537" lon="4.75134">
        <ele>191</ele>
        <time>2018-06-05T10:26:51Z</time>
      </trkpt>
      <trkpt lat="45.95366" lon="4.75126">
        <ele>191</ele>
        <time>2018-06-05T10:26:52Z</time>
      </trkpt>
      <trkpt lat="45.95363" lon="4.7512">
        <ele>191</ele>
        <time>2018-06-05T10:26:53Z</time>
      </trkpt>
      <trkpt lat="45.95359" lon="4.75115">
        <ele>192</ele>
        <time>2018-06-05T10:26:54Z</time>
      </trkpt>
      <trkpt lat="45.95356" lon="4.7511">
        <ele>192</ele>
        <time>2018-06-05T10:26:55Z</time>
      </trkpt>
      <trkpt lat="45.9535" lon="4.75105">
        <ele>192</ele>
        <time>2018-06-05T10:26:56Z</time>
      </trkpt>
      <trkpt lat="45.95347" lon="4.751">
        <ele>192</ele>
        <time>2018-06-05T10:26:57Z</time>
      </trkpt>
      <trkpt lat="45.95342" lon="4.75094">
        <ele>192</ele>
        <time>2018-06-05T10:26:58Z</time>
      </trkpt>
      <trkpt lat="45.95339" lon="4.75089">
        <ele>193</ele>
        <time>2018-06-05T10:26:59Z</time>
      </trkpt>
      <trkpt lat="45.95336" lon="4.75084">
        <ele>193</ele>
        <time>2018-06-05T10:27:00Z</time>
      </trkpt>
      <trkpt lat="45.95333" lon="4.75078">
        <ele>193</ele>
        <time>2018-06-05T10:27:01Z</time>
      </trkpt>
      <trkpt lat="45.95329" lon="4.75072">
        <ele>192</ele>
        <time>2018-06-05T10:27:02Z</time>
      </trkpt>
      <trkpt lat="45.95325" lon="4.75066">
        <ele>192</ele>
        <time>2018-06-05T10:27:03Z</time>
      </trkpt>
      <trkpt lat="45.95321" lon="4.7506">
        <ele>192</ele>
        <time>2018-06-05T10:27:04Z</time>
      </trkpt>
      <trkpt lat="45.95318" lon="4.75056">
        <ele>192</ele>
        <time>2018-06-05T10:27:05Z</time>
      </trkpt>
      <trkpt lat="45.95314" lon="4.7505">
        <ele>192</ele>
        <time>2018-06-05T10:27:06Z</time>
      </trkpt>
      <trkpt lat="45.95311" lon="4.75045">
        <ele>192</ele>
        <time>2018-06-05T10:27:07Z</time>
      </trkpt>
      <trkpt lat="45.95305" lon="4.75036">
        <ele>192</ele>
        <time>2018-06-05T10:27:09Z</time>
      </trkpt>
      <trkpt lat="45.95302" lon="4.75031">
        <ele>192</ele>
        <time>2018-06-05T10:27:10Z</time>
      </trkpt>
      <trkpt lat="45.95297" lon="4.75027">
        <ele>191</ele>
        <time>2018-06-05T10:27:11Z</time>
      </trkpt>
      <trkpt lat="45.95294" lon="4.75022">
        <ele>191</ele>
        <time>2018-06-05T10:27:12Z</time>
      </trkpt>
      <trkpt lat="45.95292" lon="4.75014">
        <ele>191</ele>
        <time>2018-06-05T10:27:13Z</time>
      </trkpt>
      <trkpt lat="45.95288" lon="4.75009">
        <ele>191</ele>
        <time>2018-06-05T10:27:14Z</time>
      </trkpt>
      <trkpt lat="45.95286" lon="4.75004">
        <ele>191</ele>
        <time>2018-06-05T10:27:15Z</time>
      </trkpt>
      <trkpt lat="45.95282" lon="4.74998">
        <ele>192</ele>
        <time>2018-06-05T10:27:16Z</time>
      </trkpt>
      <trkpt lat="45.95278" lon="4.7499">
        <ele>192</ele>
        <time>2018-06-05T10:27:18Z</time>
      </trkpt>
      <trkpt lat="45.95272" lon="4.74983">
        <ele>192</ele>
        <time>2018-06-05T10:27:19Z</time>
      </trkpt>
      <trkpt lat="45.95269" lon="4.74978">
        <ele>192</ele>
        <time>2018-06-05T10:27:20Z</time>
      </trkpt>
      <trkpt lat="45.95265" lon="4.74973">
        <ele>192</ele>
        <time>2018-06-05T10:27:21Z</time>
      </trkpt>
      <trkpt lat="45.9526" lon="4.74963">
        <ele>192</ele>
        <time>2018-06-05T10:27:23Z</time>
      </trkpt>
      <trkpt lat="45.95256" lon="4.74957">
        <ele>192</ele>
        <time>2018-06-05T10:27:24Z</time>
      </trkpt>
      <trkpt lat="45.95254" lon="4.74952">
        <ele>192</ele>
        <time>2018-06-05T10:27:25Z</time>
      </trkpt>
      <trkpt lat="45.9525" lon="4.74947">
        <ele>192</ele>
        <time>2018-06-05T10:27:26Z</time>
      </trkpt>
      <trkpt lat="45.95247" lon="4.74941">
        <ele>192</ele>
        <time>2018-06-05T10:27:27Z</time>
      </trkpt>
      <trkpt lat="45.95243" lon="4.74937">
        <ele>192</ele>
        <time>2018-06-05T10:27:28Z</time>
      </trkpt>
      <trkpt lat="45.95239" lon="4.74931">
        <ele>192</ele>
        <time>2018-06-05T10:27:29Z</time>
      </trkpt>
      <trkpt lat="45.95235" lon="4.74925">
        <ele>192</ele>
        <time>2018-06-05T10:27:30Z</time>
      </trkpt>
      <trkpt lat="45.95232" lon="4.74918">
        <ele>192</ele>
        <time>2018-06-05T10:27:31Z</time>
      </trkpt>
      <trkpt lat="45.95228" lon="4.74912">
        <ele>193</ele>
        <time>2018-06-05T10:27:32Z</time>
      </trkpt>
      <trkpt lat="45.95224" lon="4.74906">
        <ele>193</ele>
        <time>2018-06-05T10:27:33Z</time>
      </trkpt>
      <trkpt lat="45.9522" lon="4.74902">
        <ele>193</ele>
        <time>2018-06-05T10:27:34Z</time>
      </trkpt>
      <trkpt lat="45.95216" lon="4.74894">
        <ele>193</ele>
        <time>2018-06-05T10:27:35Z</time>
      </trkpt>
      <trkpt lat="45.95213" lon="4.74889">
        <ele>193</ele>
        <time>2018-06-05T10:27:36Z</time>
      </trkpt>
      <trkpt lat="45.95207" lon="4.7488">
        <ele>194</ele>
        <time>2018-06-05T10:27:38Z</time>
      </trkpt>
      <trkpt lat="45.95204" lon="4.74875">
        <ele>194</ele>
        <time>2018-06-05T10:27:39Z</time>
      </trkpt>
      <trkpt lat="45.95197" lon="4.74866">
        <ele>194</ele>
        <time>2018-06-05T10:27:41Z</time>
      </trkpt>
      <trkpt lat="45.95194" lon="4.7486">
        <ele>194</ele>
        <time>2018-06-05T10:27:42Z</time>
      </trkpt>
      <trkpt lat="45.95189" lon="4.74854">
        <ele>194</ele>
        <time>2018-06-05T10:27:43Z</time>
      </trkpt>
      <trkpt lat="45.95186" lon="4.74848">
        <ele>194</ele>
        <time>2018-06-05T10:27:44Z</time>
      </trkpt>
      <trkpt lat="45.95183" lon="4.74842">
        <ele>194</ele>
        <time>2018-06-05T10:27:45Z</time>
      </trkpt>
      <trkpt lat="45.9518" lon="4.74837">
        <ele>194</ele>
        <time>2018-06-05T10:27:46Z</time>
      </trkpt>
      <trkpt lat="45.95177" lon="4.74831">
        <ele>194</ele>
        <time>2018-06-05T10:27:47Z</time>
      </trkpt>
      <trkpt lat="45.95174" lon="4.74826">
        <ele>194</ele>
        <time>2018-06-05T10:27:48Z</time>
      </trkpt>
      <trkpt lat="45.95171" lon="4.7482">
        <ele>194</ele>
        <time>2018-06-05T10:27:49Z</time>
      </trkpt>
      <trkpt lat="45.95167" lon="4.74814">
        <ele>194</ele>
        <time>2018-06-05T10:27:50Z</time>
      </trkpt>
      <trkpt lat="45.95164" lon="4.74808">
        <ele>194</ele>
        <time>2018-06-05T10:27:51Z</time>
      </trkpt>
      <trkpt lat="45.95161" lon="4.74802">
        <ele>194</ele>
        <time>2018-06-05T10:27:52Z</time>
      </trkpt>
      <trkpt lat="45.95157" lon="4.74796">
        <ele>194</ele>
        <time>2018-06-05T10:27:53Z</time>
      </trkpt>
      <trkpt lat="45.95153" lon="4.74792">
        <ele>194</ele>
        <time>2018-06-05T10:27:54Z</time>
      </trkpt>
      <trkpt lat="45.95151" lon="4.74784">
        <ele>194</ele>
        <time>2018-06-05T10:27:55Z</time>
      </trkpt>
      <trkpt lat="45.95147" lon="4.74777">
        <ele>194</ele>
        <time>2018-06-05T10:27:56Z</time>
      </trkpt>
      <trkpt lat="45.95143" lon="4.74771">
        <ele>194</ele>
        <time>2018-06-05T10:27:57Z</time>
      </trkpt>
      <trkpt lat="45.95138" lon="4.74765">
        <ele>194</ele>
        <time>2018-06-05T10:27:58Z</time>
      </trkpt>
      <trkpt lat="45.95135" lon="4.74758">
        <ele>194</ele>
        <time>2018-06-05T10:27:59Z</time>
      </trkpt>
      <trkpt lat="45.9513" lon="4.74754">
        <ele>194</ele>
        <time>2018-06-05T10:28:00Z</time>
      </trkpt>
      <trkpt lat="45.95127" lon="4.74749">
        <ele>194</ele>
        <time>2018-06-05T10:28:01Z</time>
      </trkpt>
      <trkpt lat="45.95122" lon="4.74743">
        <ele>194</ele>
        <time>2018-06-05T10:28:02Z</time>
      </trkpt>
      <trkpt lat="45.95119" lon="4.74736">
        <ele>194</ele>
        <time>2018-06-05T10:28:03Z</time>
      </trkpt>
      <trkpt lat="45.95117" lon="4.7473">
        <ele>194</ele>
        <time>2018-06-05T10:28:04Z</time>
      </trkpt>
      <trkpt lat="45.95114" lon="4.74723">
        <ele>194</ele>
        <time>2018-06-05T10:28:05Z</time>
      </trkpt>
      <trkpt lat="45.9511" lon="4.74716">
        <ele>194</ele>
        <time>2018-06-05T10:28:06Z</time>
      </trkpt>
      <trkpt lat="45.95103" lon="4.74711">
        <ele>194</ele>
        <time>2018-06-05T10:28:07Z</time>
      </trkpt>
      <trkpt lat="45.951" lon="4.74705">
        <ele>194</ele>
        <time>2018-06-05T10:28:08Z</time>
      </trkpt>
      <trkpt lat="45.95096" lon="4.74698">
        <ele>194</ele>
        <time>2018-06-05T10:28:09Z</time>
      </trkpt>
      <trkpt lat="45.95093" lon="4.74694">
        <ele>194</ele>
        <time>2018-06-05T10:28:10Z</time>
      </trkpt>
      <trkpt lat="45.95089" lon="4.7469">
        <ele>195</ele>
        <time>2018-06-05T10:28:11Z</time>
      </trkpt>
      <trkpt lat="45.95085" lon="4.74685">
        <ele>195</ele>
        <time>2018-06-05T10:28:12Z</time>
      </trkpt>
      <trkpt lat="45.9508" lon="4.74675">
        <ele>195</ele>
        <time>2018-06-05T10:28:14Z</time>
      </trkpt>
      <trkpt lat="45.95077" lon="4.74669">
        <ele>195</ele>
        <time>2018-06-05T10:28:15Z</time>
      </trkpt>
      <trkpt lat="45.95072" lon="4.74663">
        <ele>195</ele>
        <time>2018-06-05T10:28:16Z</time>
      </trkpt>
      <trkpt lat="45.95069" lon="4.74657">
        <ele>195</ele>
        <time>2018-06-05T10:28:17Z</time>
      </trkpt>
      <trkpt lat="45.95066" lon="4.74651">
        <ele>195</ele>
        <time>2018-06-05T10:28:18Z</time>
      </trkpt>
      <trkpt lat="45.95063" lon="4.74645">
        <ele>195</ele>
        <time>2018-06-05T10:28:19Z</time>
      </trkpt>
      <trkpt lat="45.9506" lon="4.74638">
        <ele>194</ele>
        <time>2018-06-05T10:28:20Z</time>
      </trkpt>
      <trkpt lat="45.95056" lon="4.74631">
        <ele>194</ele>
        <time>2018-06-05T10:28:21Z</time>
      </trkpt>
      <trkpt lat="45.95052" lon="4.74624">
        <ele>194</ele>
        <time>2018-06-05T10:28:22Z</time>
      </trkpt>
      <trkpt lat="45.95049" lon="4.74618">
        <ele>194</ele>
        <time>2018-06-05T10:28:23Z</time>
      </trkpt>
      <trkpt lat="45.95043" lon="4.74612">
        <ele>194</ele>
        <time>2018-06-05T10:28:24Z</time>
      </trkpt>
      <trkpt lat="45.9504" lon="4.74606">
        <ele>194</ele>
        <time>2018-06-05T10:28:25Z</time>
      </trkpt>
      <trkpt lat="45.95037" lon="4.746">
        <ele>194</ele>
        <time>2018-06-05T10:28:26Z</time>
      </trkpt>
      <trkpt lat="45.95034" lon="4.74594">
        <ele>194</ele>
        <time>2018-06-05T10:28:27Z</time>
      </trkpt>
      <trkpt lat="45.95032" lon="4.74588">
        <ele>194</ele>
        <time>2018-06-05T10:28:28Z</time>
      </trkpt>
      <trkpt lat="45.95029" lon="4.74582">
        <ele>194</ele>
        <time>2018-06-05T10:28:29Z</time>
      </trkpt>
      <trkpt lat="45.95026" lon="4.74576">
        <ele>194</ele>
        <time>2018-06-05T10:28:30Z</time>
      </trkpt>
      <trkpt lat="45.9502" lon="4.7457">
        <ele>194</ele>
        <time>2018-06-05T10:28:31Z</time>
      </trkpt>
      <trkpt lat="45.95018" lon="4.74565">
        <ele>194</ele>
        <time>2018-06-05T10:28:32Z</time>
      </trkpt>
      <trkpt lat="45.95014" lon="4.74558">
        <ele>194</ele>
        <time>2018-06-05T10:28:33Z</time>
      </trkpt>
      <trkpt lat="45.95011" lon="4.74552">
        <ele>194</ele>
        <time>2018-06-05T10:28:34Z</time>
      </trkpt>
      <trkpt lat="45.95008" lon="4.74547">
        <ele>194</ele>
        <time>2018-06-05T10:28:35Z</time>
      </trkpt>
      <trkpt lat="45.95005" lon="4.7454">
        <ele>194</ele>
        <time>2018-06-05T10:28:36Z</time>
      </trkpt>
      <trkpt lat="45.95001" lon="4.74535">
        <ele>194</ele>
        <time>2018-06-05T10:28:37Z</time>
      </trkpt>
      <trkpt lat="45.94997" lon="4.74529">
        <ele>193</ele>
        <time>2018-06-05T10:28:38Z</time>
      </trkpt>
      <trkpt lat="45.94995" lon="4.74521">
        <ele>193</ele>
        <time>2018-06-05T10:28:39Z</time>
      </trkpt>
      <trkpt lat="45.94991" lon="4.74515">
        <ele>193</ele>
        <time>2018-06-05T10:28:40Z</time>
      </trkpt>
      <trkpt lat="45.94988" lon="4.74507">
        <ele>193</ele>
        <time>2018-06-05T10:28:41Z</time>
      </trkpt>
      <trkpt lat="45.94984" lon="4.745">
        <ele>193</ele>
        <time>2018-06-05T10:28:42Z</time>
      </trkpt>
      <trkpt lat="45.94981" lon="4.74491">
        <ele>193</ele>
        <time>2018-06-05T10:28:43Z</time>
      </trkpt>
      <trkpt lat="45.94977" lon="4.74482">
        <ele>193</ele>
        <time>2018-06-05T10:28:44Z</time>
      </trkpt>
      <trkpt lat="45.94972" lon="4.74474">
        <ele>193</ele>
        <time>2018-06-05T10:28:45Z</time>
      </trkpt>
      <trkpt lat="45.94969" lon="4.74469">
        <ele>193</ele>
        <time>2018-06-05T10:28:46Z</time>
      </trkpt>
      <trkpt lat="45.94965" lon="4.74461">
        <ele>193</ele>
        <time>2018-06-05T10:28:47Z</time>
      </trkpt>
      <trkpt lat="45.9496" lon="4.74453">
        <ele>192</ele>
        <time>2018-06-05T10:28:48Z</time>
      </trkpt>
      <trkpt lat="45.94956" lon="4.74445">
        <ele>192</ele>
        <time>2018-06-05T10:28:49Z</time>
      </trkpt>
      <trkpt lat="45.9495" lon="4.74434">
        <ele>192</ele>
        <time>2018-06-05T10:28:50Z</time>
      </trkpt>
      <trkpt lat="45.94946" lon="4.74426">
        <ele>192</ele>
        <time>2018-06-05T10:28:51Z</time>
      </trkpt>
      <trkpt lat="45.94942" lon="4.74418">
        <ele>192</ele>
        <time>2018-06-05T10:28:52Z</time>
      </trkpt>
      <trkpt lat="45.94939" lon="4.74411">
        <ele>192</ele>
        <time>2018-06-05T10:28:53Z</time>
      </trkpt>
      <trkpt lat="45.94935" lon="4.74402">
        <ele>192</ele>
        <time>2018-06-05T10:28:54Z</time>
      </trkpt>
      <trkpt lat="45.9493" lon="4.74394">
        <ele>192</ele>
        <time>2018-06-05T10:28:55Z</time>
      </trkpt>
      <trkpt lat="45.94926" lon="4.74386">
        <ele>192</ele>
        <time>2018-06-05T10:28:56Z</time>
      </trkpt>
      <trkpt lat="45.94921" lon="4.74378">
        <ele>192</ele>
        <time>2018-06-05T10:28:57Z</time>
      </trkpt>
      <trkpt lat="45.94916" lon="4.74368">
        <ele>191</ele>
        <time>2018-06-05T10:28:58Z</time>
      </trkpt>
      <trkpt lat="45.94913" lon="4.74359">
        <ele>191</ele>
        <time>2018-06-05T10:28:59Z</time>
      </trkpt>
      <trkpt lat="45.94909" lon="4.74351">
        <ele>191</ele>
        <time>2018-06-05T10:29:00Z</time>
      </trkpt>
      <trkpt lat="45.94905" lon="4.74344">
        <ele>191</ele>
        <time>2018-06-05T10:29:01Z</time>
      </trkpt>
      <trkpt lat="45.94901" lon="4.74337">
        <ele>191</ele>
        <time>2018-06-05T10:29:02Z</time>
      </trkpt>
      <trkpt lat="45.94897" lon="4.74329">
        <ele>191</ele>
        <time>2018-06-05T10:29:03Z</time>
      </trkpt>
      <trkpt lat="45.94894" lon="4.74322">
        <ele>191</ele>
        <time>2018-06-05T10:29:04Z</time>
      </trkpt>
      <trkpt lat="45.94891" lon="4.74315">
        <ele>191</ele>
        <time>2018-06-05T10:29:05Z</time>
      </trkpt>
      <trkpt lat="45.94886" lon="4.74306">
        <ele>191</ele>
        <time>2018-06-05T10:29:06Z</time>
      </trkpt>
      <trkpt lat="45.94882" lon="4.74299">
        <ele>191</ele>
        <time>2018-06-05T10:29:07Z</time>
      </trkpt>
      <trkpt lat="45.94878" lon="4.74292">
        <ele>191</ele>
        <time>2018-06-05T10:29:08Z</time>
      </trkpt>
      <trkpt lat="45.94873" lon="4.74283">
        <ele>191</ele>
        <time>2018-06-05T10:29:09Z</time>
      </trkpt>
      <trkpt lat="45.94869" lon="4.74276">
        <ele>191</ele>
        <time>2018-06-05T10:29:10Z</time>
      </trkpt>
      <trkpt lat="45.94865" lon="4.74268">
        <ele>190</ele>
        <time>2018-06-05T10:29:11Z</time>
      </trkpt>
      <trkpt lat="45.94861" lon="4.7426">
        <ele>190</ele>
        <time>2018-06-05T10:29:12Z</time>
      </trkpt>
      <trkpt lat="45.94859" lon="4.74253">
        <ele>190</ele>
        <time>2018-06-05T10:29:13Z</time>
      </trkpt>
      <trkpt lat="45.94855" lon="4.74245">
        <ele>190</ele>
        <time>2018-06-05T10:29:14Z</time>
      </trkpt>
      <trkpt lat="45.94851" lon="4.74237">
        <ele>190</ele>
        <time>2018-06-05T10:29:15Z</time>
      </trkpt>
      <trkpt lat="45.94848" lon="4.7423">
        <ele>190</ele>
        <time>2018-06-05T10:29:16Z</time>
      </trkpt>
      <trkpt lat="45.94845" lon="4.74222">
        <ele>190</ele>
        <time>2018-06-05T10:29:17Z</time>
      </trkpt>
      <trkpt lat="45.94842" lon="4.74215">
        <ele>190</ele>
        <time>2018-06-05T10:29:18Z</time>
      </trkpt>
      <trkpt lat="45.94838" lon="4.74208">
        <ele>190</ele>
        <time>2018-06-05T10:29:19Z</time>
      </trkpt>
      <trkpt lat="45.94835" lon="4.74202">
        <ele>190</ele>
        <time>2018-06-05T10:29:20Z</time>
      </trkpt>
      <trkpt lat="45.94831" lon="4.74196">
        <ele>189</ele>
        <time>2018-06-05T10:29:21Z</time>
      </trkpt>
      <trkpt lat="45.94828" lon="4.7419">
        <ele>189</ele>
        <time>2018-06-05T10:29:22Z</time>
      </trkpt>
      <trkpt lat="45.94824" lon="4.74183">
        <ele>189</ele>
        <time>2018-06-05T10:29:23Z</time>
      </trkpt>
      <trkpt lat="45.94817" lon="4.74177">
        <ele>189</ele>
        <time>2018-06-05T10:29:24Z</time>
      </trkpt>
      <trkpt lat="45.94813" lon="4.7417">
        <ele>189</ele>
        <time>2018-06-05T10:29:25Z</time>
      </trkpt>
      <trkpt lat="45.94809" lon="4.74164">
        <ele>189</ele>
        <time>2018-06-05T10:29:26Z</time>
      </trkpt>
      <trkpt lat="45.94804" lon="4.74158">
        <ele>189</ele>
        <time>2018-06-05T10:29:27Z</time>
      </trkpt>
      <trkpt lat="45.94798" lon="4.74151">
        <ele>189</ele>
        <time>2018-06-05T10:29:28Z</time>
      </trkpt>
      <trkpt lat="45.94795" lon="4.74144">
        <ele>189</ele>
        <time>2018-06-05T10:29:29Z</time>
      </trkpt>
      <trkpt lat="45.94793" lon="4.74137">
        <ele>189</ele>
        <time>2018-06-05T10:29:30Z</time>
      </trkpt>
      <trkpt lat="45.94789" lon="4.74131">
        <ele>189</ele>
        <time>2018-06-05T10:29:31Z</time>
      </trkpt>
      <trkpt lat="45.94785" lon="4.74125">
        <ele>189</ele>
        <time>2018-06-05T10:29:32Z</time>
      </trkpt>
      <trkpt lat="45.94781" lon="4.74119">
        <ele>189</ele>
        <time>2018-06-05T10:29:33Z</time>
      </trkpt>
      <trkpt lat="45.94778" lon="4.74113">
        <ele>189</ele>
        <time>2018-06-05T10:29:34Z</time>
      </trkpt>
      <trkpt lat="45.94774" lon="4.74107">
        <ele>189</ele>
        <time>2018-06-05T10:29:35Z</time>
      </trkpt>
      <trkpt lat="45.9477" lon="4.74102">
        <ele>189</ele>
        <time>2018-06-05T10:29:36Z</time>
      </trkpt>
      <trkpt lat="45.94767" lon="4.74096">
        <ele>189</ele>
        <time>2018-06-05T10:29:37Z</time>
      </trkpt>
      <trkpt lat="45.94763" lon="4.74091">
        <ele>189</ele>
        <time>2018-06-05T10:29:38Z</time>
      </trkpt>
      <trkpt lat="45.94761" lon="4.74084">
        <ele>189</ele>
        <time>2018-06-05T10:29:39Z</time>
      </trkpt>
      <trkpt lat="45.94757" lon="4.74079">
        <ele>189</ele>
        <time>2018-06-05T10:29:40Z</time>
      </trkpt>
      <trkpt lat="45.94753" lon="4.74074">
        <ele>189</ele>
        <time>2018-06-05T10:29:41Z</time>
      </trkpt>
      <trkpt lat="45.94747" lon="4.7407">
        <ele>188</ele>
        <time>2018-06-05T10:29:42Z</time>
      </trkpt>
      <trkpt lat="45.94743" lon="4.74062">
        <ele>188</ele>
        <time>2018-06-05T10:29:43Z</time>
      </trkpt>
      <trkpt lat="45.94738" lon="4.74057">
        <ele>188</ele>
        <time>2018-06-05T10:29:44Z</time>
      </trkpt>
      <trkpt lat="45.94734" lon="4.74051">
        <ele>188</ele>
        <time>2018-06-05T10:29:45Z</time>
      </trkpt>
      <trkpt lat="45.94729" lon="4.74045">
        <ele>188</ele>
        <time>2018-06-05T10:29:46Z</time>
      </trkpt>
      <trkpt lat="45.94724" lon="4.74038">
        <ele>187</ele>
        <time>2018-06-05T10:29:47Z</time>
      </trkpt>
      <trkpt lat="45.9472" lon="4.74031">
        <ele>187</ele>
        <time>2018-06-05T10:29:48Z</time>
      </trkpt>
      <trkpt lat="45.94716" lon="4.74025">
        <ele>187</ele>
        <time>2018-06-05T10:29:49Z</time>
      </trkpt>
      <trkpt lat="45.94712" lon="4.74019">
        <ele>187</ele>
        <time>2018-06-05T10:29:50Z</time>
      </trkpt>
      <trkpt lat="45.94709" lon="4.74013">
        <ele>187</ele>
        <time>2018-06-05T10:29:51Z</time>
      </trkpt>
      <trkpt lat="45.94704" lon="4.74007">
        <ele>187</ele>
        <time>2018-06-05T10:29:52Z</time>
      </trkpt>
      <trkpt lat="45.947" lon="4.74002">
        <ele>187</ele>
        <time>2018-06-05T10:29:53Z</time>
      </trkpt>
      <trkpt lat="45.94694" lon="4.73996">
        <ele>187</ele>
        <time>2018-06-05T10:29:54Z</time>
      </trkpt>
      <trkpt lat="45.9469" lon="4.7399">
        <ele>187</ele>
        <time>2018-06-05T10:29:55Z</time>
      </trkpt>
      <trkpt lat="45.94685" lon="4.73984">
        <ele>187</ele>
        <time>2018-06-05T10:29:56Z</time>
      </trkpt>
      <trkpt lat="45.9468" lon="4.73979">
        <ele>187</ele>
        <time>2018-06-05T10:29:57Z</time>
      </trkpt>
      <trkpt lat="45.94678" lon="4.73975">
        <ele>187</ele>
        <time>2018-06-05T10:29:58Z</time>
      </trkpt>
      <trkpt lat="45.94674" lon="4.7397">
        <ele>187</ele>
        <time>2018-06-05T10:29:59Z</time>
      </trkpt>
      <trkpt lat="45.94671" lon="4.73964">
        <ele>187</ele>
        <time>2018-06-05T10:30:00Z</time>
      </trkpt>
      <trkpt lat="45.94667" lon="4.73958">
        <ele>187</ele>
        <time>2018-06-05T10:30:01Z</time>
      </trkpt>
      <trkpt lat="45.94662" lon="4.73952">
        <ele>187</ele>
        <time>2018-06-05T10:30:02Z</time>
      </trkpt>
      <trkpt lat="45.94657" lon="4.73946">
        <ele>187</ele>
        <time>2018-06-05T10:30:03Z</time>
      </trkpt>
      <trkpt lat="45.94653" lon="4.73941">
        <ele>187</ele>
        <time>2018-06-05T10:30:04Z</time>
      </trkpt>
      <trkpt lat="45.94649" lon="4.73935">
        <ele>187</ele>
        <time>2018-06-05T10:30:05Z</time>
      </trkpt>
      <trkpt lat="45.94644" lon="4.73929">
        <ele>187</ele>
        <time>2018-06-05T10:30:06Z</time>
      </trkpt>
      <trkpt lat="45.9464" lon="4.73923">
        <ele>187</ele>
        <time>2018-06-05T10:30:07Z</time>
      </trkpt>
      <trkpt lat="45.94635" lon="4.73917">
        <ele>187</ele>
        <time>2018-06-05T10:30:08Z</time>
      </trkpt>
      <trkpt lat="45.94631" lon="4.73912">
        <ele>187</ele>
        <time>2018-06-05T10:30:09Z</time>
      </trkpt>
      <trkpt lat="45.94628" lon="4.73905">
        <ele>187</ele>
        <time>2018-06-05T10:30:10Z</time>
      </trkpt>
      <trkpt lat="45.94623" lon="4.73899">
        <ele>187</ele>
        <time>2018-06-05T10:30:11Z</time>
      </trkpt>
      <trkpt lat="45.94618" lon="4.73893">
        <ele>187</ele>
        <time>2018-06-05T10:30:12Z</time>
      </trkpt>
      <trkpt lat="45.94613" lon="4.73888">
        <ele>187</ele>
        <time>2018-06-05T10:30:13Z</time>
      </trkpt>
      <trkpt lat="45.9461" lon="4.73882">
        <ele>187</ele>
        <time>2018-06-05T10:30:14Z</time>
      </trkpt>
      <trkpt lat="45.94605" lon="4.73877">
        <ele>187</ele>
        <time>2018-06-05T10:30:15Z</time>
      </trkpt>
      <trkpt lat="45.94599" lon="4.73872">
        <ele>187</ele>
        <time>2018-06-05T10:30:16Z</time>
      </trkpt>
      <trkpt lat="45.94595" lon="4.73867">
        <ele>187</ele>
        <time>2018-06-05T10:30:17Z</time>
      </trkpt>
      <trkpt lat="45.94589" lon="4.73861">
        <ele>187</ele>
        <time>2018-06-05T10:30:18Z</time>
      </trkpt>
      <trkpt lat="45.94585" lon="4.73856">
        <ele>187</ele>
        <time>2018-06-05T10:30:19Z</time>
      </trkpt>
      <trkpt lat="45.94581" lon="4.7385">
        <ele>186</ele>
        <time>2018-06-05T10:30:20Z</time>
      </trkpt>
      <trkpt lat="45.94574" lon="4.73845">
        <ele>186</ele>
        <time>2018-06-05T10:30:21Z</time>
      </trkpt>
      <trkpt lat="45.9457" lon="4.73839">
        <ele>186</ele>
        <time>2018-06-05T10:30:22Z</time>
      </trkpt>
      <trkpt lat="45.94565" lon="4.73835">
        <ele>186</ele>
        <time>2018-06-05T10:30:23Z</time>
      </trkpt>
      <trkpt lat="45.9456" lon="4.7383">
        <ele>186</ele>
        <time>2018-06-05T10:30:24Z</time>
      </trkpt>
      <trkpt lat="45.94556" lon="4.73823">
        <ele>186</ele>
        <time>2018-06-05T10:30:25Z</time>
      </trkpt>
      <trkpt lat="45.9455" lon="4.73818">
        <ele>186</ele>
        <time>2018-06-05T10:30:26Z</time>
      </trkpt>
      <trkpt lat="45.94545" lon="4.73814">
        <ele>186</ele>
        <time>2018-06-05T10:30:27Z</time>
      </trkpt>
      <trkpt lat="45.9454" lon="4.73809">
        <ele>186</ele>
        <time>2018-06-05T10:30:28Z</time>
      </trkpt>
      <trkpt lat="45.94536" lon="4.73804">
        <ele>186</ele>
        <time>2018-06-05T10:30:29Z</time>
      </trkpt>
      <trkpt lat="45.94533" lon="4.73799">
        <ele>186</ele>
        <time>2018-06-05T10:30:30Z</time>
      </trkpt>
      <trkpt lat="45.94529" lon="4.73795">
        <ele>186</ele>
        <time>2018-06-05T10:30:31Z</time>
      </trkpt>
      <trkpt lat="45.94524" lon="4.73791">
        <ele>186</ele>
        <time>2018-06-05T10:30:32Z</time>
      </trkpt>
      <trkpt lat="45.9452" lon="4.73787">
        <ele>186</ele>
        <time>2018-06-05T10:30:33Z</time>
      </trkpt>
      <trkpt lat="45.94515" lon="4.73783">
        <ele>186</ele>
        <time>2018-06-05T10:30:34Z</time>
      </trkpt>
      <trkpt lat="45.94511" lon="4.7378">
        <ele>186</ele>
        <time>2018-06-05T10:30:35Z</time>
      </trkpt>
      <trkpt lat="45.94506" lon="4.73776">
        <ele>186</ele>
        <time>2018-06-05T10:30:36Z</time>
      </trkpt>
      <trkpt lat="45.945" lon="4.73773">
        <ele>186</ele>
        <time>2018-06-05T10:30:37Z</time>
      </trkpt>
      <trkpt lat="45.94497" lon="4.73768">
        <ele>186</ele>
        <time>2018-06-05T10:30:38Z</time>
      </trkpt>
      <trkpt lat="45.94492" lon="4.73759">
        <ele>186</ele>
        <time>2018-06-05T10:30:40Z</time>
      </trkpt>
      <trkpt lat="45.94489" lon="4.73753">
        <ele>186</ele>
        <time>2018-06-05T10:30:41Z</time>
      </trkpt>
      <trkpt lat="45.94489" lon="4.73747">
        <ele>186</ele>
        <time>2018-06-05T10:30:42Z</time>
      </trkpt>
      <trkpt lat="45.94489" lon="4.7374">
        <ele>186</ele>
        <time>2018-06-05T10:30:43Z</time>
      </trkpt>
      <trkpt lat="45.94489" lon="4.73733">
        <ele>186</ele>
        <time>2018-06-05T10:30:44Z</time>
      </trkpt>
      <trkpt lat="45.9449" lon="4.73725">
        <ele>186</ele>
        <time>2018-06-05T10:30:45Z</time>
      </trkpt>
      <trkpt lat="45.9449" lon="4.73718">
        <ele>186</ele>
        <time>2018-06-05T10:30:46Z</time>
      </trkpt>
      <trkpt lat="45.94491" lon="4.7371">
        <ele>186</ele>
        <time>2018-06-05T10:30:47Z</time>
      </trkpt>
      <trkpt lat="45.94492" lon="4.73701">
        <ele>186</ele>
        <time>2018-06-05T10:30:48Z</time>
      </trkpt>
      <trkpt lat="45.94495" lon="4.73692">
        <ele>186</ele>
        <time>2018-06-05T10:30:49Z</time>
      </trkpt>
      <trkpt lat="45.94496" lon="4.73684">
        <ele>186</ele>
        <time>2018-06-05T10:30:50Z</time>
      </trkpt>
      <trkpt lat="45.94497" lon="4.73673">
        <ele>185</ele>
        <time>2018-06-05T10:30:51Z</time>
      </trkpt>
      <trkpt lat="45.945" lon="4.73665">
        <ele>185</ele>
        <time>2018-06-05T10:30:52Z</time>
      </trkpt>
      <trkpt lat="45.94502" lon="4.73655">
        <ele>184</ele>
        <time>2018-06-05T10:30:53Z</time>
      </trkpt>
      <trkpt lat="45.94501" lon="4.73645">
        <ele>184</ele>
        <time>2018-06-05T10:30:54Z</time>
      </trkpt>
      <trkpt lat="45.94502" lon="4.73637">
        <ele>184</ele>
        <time>2018-06-05T10:30:55Z</time>
      </trkpt>
      <trkpt lat="45.94505" lon="4.73629">
        <ele>184</ele>
        <time>2018-06-05T10:30:56Z</time>
      </trkpt>
      <trkpt lat="45.94506" lon="4.7362">
        <ele>184</ele>
        <time>2018-06-05T10:30:57Z</time>
      </trkpt>
      <trkpt lat="45.94506" lon="4.73611">
        <ele>184</ele>
        <time>2018-06-05T10:30:58Z</time>
      </trkpt>
      <trkpt lat="45.94507" lon="4.736">
        <ele>184</ele>
        <time>2018-06-05T10:30:59Z</time>
      </trkpt>
      <trkpt lat="45.94508" lon="4.7359">
        <ele>184</ele>
        <time>2018-06-05T10:31:00Z</time>
      </trkpt>
      <trkpt lat="45.94509" lon="4.73578">
        <ele>184</ele>
        <time>2018-06-05T10:31:01Z</time>
      </trkpt>
      <trkpt lat="45.94511" lon="4.73568">
        <ele>184</ele>
        <time>2018-06-05T10:31:02Z</time>
      </trkpt>
      <trkpt lat="45.94512" lon="4.73557">
        <ele>183</ele>
        <time>2018-06-05T10:31:03Z</time>
      </trkpt>
      <trkpt lat="45.94512" lon="4.73547">
        <ele>183</ele>
        <time>2018-06-05T10:31:04Z</time>
      </trkpt>
      <trkpt lat="45.94513" lon="4.73536">
        <ele>183</ele>
        <time>2018-06-05T10:31:05Z</time>
      </trkpt>
      <trkpt lat="45.94513" lon="4.73525">
        <ele>183</ele>
        <time>2018-06-05T10:31:06Z</time>
      </trkpt>
      <trkpt lat="45.94512" lon="4.73514">
        <ele>183</ele>
        <time>2018-06-05T10:31:07Z</time>
      </trkpt>
      <trkpt lat="45.94512" lon="4.73503">
        <ele>183</ele>
        <time>2018-06-05T10:31:08Z</time>
      </trkpt>
      <trkpt lat="45.94513" lon="4.73491">
        <ele>182</ele>
        <time>2018-06-05T10:31:09Z</time>
      </trkpt>
      <trkpt lat="45.94513" lon="4.73481">
        <ele>182</ele>
        <time>2018-06-05T10:31:10Z</time>
      </trkpt>
      <trkpt lat="45.94512" lon="4.7347">
        <ele>181</ele>
        <time>2018-06-05T10:31:11Z</time>
      </trkpt>
      <trkpt lat="45.94511" lon="4.73458">
        <ele>181</ele>
        <time>2018-06-05T10:31:12Z</time>
      </trkpt>
      <trkpt lat="45.9451" lon="4.73446">
        <ele>181</ele>
        <time>2018-06-05T10:31:13Z</time>
      </trkpt>
      <trkpt lat="45.9451" lon="4.73435">
        <ele>181</ele>
        <time>2018-06-05T10:31:14Z</time>
      </trkpt>
      <trkpt lat="45.9451" lon="4.73424">
        <ele>180</ele>
        <time>2018-06-05T10:31:15Z</time>
      </trkpt>
      <trkpt lat="45.94509" lon="4.73412">
        <ele>179</ele>
        <time>2018-06-05T10:31:16Z</time>
      </trkpt>
      <trkpt lat="45.94509" lon="4.73402">
        <ele>179</ele>
        <time>2018-06-05T10:31:17Z</time>
      </trkpt>
      <trkpt lat="45.94508" lon="4.7339">
        <ele>179</ele>
        <time>2018-06-05T10:31:18Z</time>
      </trkpt>
      <trkpt lat="45.94503" lon="4.73378">
        <ele>178</ele>
        <time>2018-06-05T10:31:19Z</time>
      </trkpt>
      <trkpt lat="45.94502" lon="4.73367">
        <ele>178</ele>
        <time>2018-06-05T10:31:20Z</time>
      </trkpt>
      <trkpt lat="45.945" lon="4.73354">
        <ele>178</ele>
        <time>2018-06-05T10:31:21Z</time>
      </trkpt>
      <trkpt lat="45.94499" lon="4.73342">
        <ele>178</ele>
        <time>2018-06-05T10:31:22Z</time>
      </trkpt>
      <trkpt lat="45.94496" lon="4.73329">
        <ele>177</ele>
        <time>2018-06-05T10:31:23Z</time>
      </trkpt>
      <trkpt lat="45.94494" lon="4.73317">
        <ele>177</ele>
        <time>2018-06-05T10:31:24Z</time>
      </trkpt>
      <trkpt lat="45.94492" lon="4.73302">
        <ele>177</ele>
        <time>2018-06-05T10:31:25Z</time>
      </trkpt>
      <trkpt lat="45.9449" lon="4.7329">
        <ele>177</ele>
        <time>2018-06-05T10:31:26Z</time>
      </trkpt>
      <trkpt lat="45.94491" lon="4.73281">
        <ele>177</ele>
        <time>2018-06-05T10:31:27Z</time>
      </trkpt>
      <trkpt lat="45.94489" lon="4.73269">
        <ele>177</ele>
        <time>2018-06-05T10:31:28Z</time>
      </trkpt>
      <trkpt lat="45.94486" lon="4.73254">
        <ele>176</ele>
        <time>2018-06-05T10:31:29Z</time>
      </trkpt>
      <trkpt lat="45.94485" lon="4.73242">
        <ele>175</ele>
        <time>2018-06-05T10:31:30Z</time>
      </trkpt>
      <trkpt lat="45.94485" lon="4.73229">
        <ele>175</ele>
        <time>2018-06-05T10:31:31Z</time>
      </trkpt>
      <trkpt lat="45.94483" lon="4.73219">
        <ele>175</ele>
        <time>2018-06-05T10:31:32Z</time>
      </trkpt>
      <trkpt lat="45.94481" lon="4.73207">
        <ele>175</ele>
        <time>2018-06-05T10:31:33Z</time>
      </trkpt>
      <trkpt lat="45.94481" lon="4.73195">
        <ele>174</ele>
        <time>2018-06-05T10:31:34Z</time>
      </trkpt>
      <trkpt lat="45.94478" lon="4.73182">
        <ele>174</ele>
        <time>2018-06-05T10:31:35Z</time>
      </trkpt>
      <trkpt lat="45.94476" lon="4.73173">
        <ele>174</ele>
        <time>2018-06-05T10:31:36Z</time>
      </trkpt>
      <trkpt lat="45.94474" lon="4.73161">
        <ele>173</ele>
        <time>2018-06-05T10:31:37Z</time>
      </trkpt>
      <trkpt lat="45.94473" lon="4.7315">
        <ele>172</ele>
        <time>2018-06-05T10:31:38Z</time>
      </trkpt>
      <trkpt lat="45.94471" lon="4.7314">
        <ele>172</ele>
        <time>2018-06-05T10:31:39Z</time>
      </trkpt>
      <trkpt lat="45.94471" lon="4.73129">
        <ele>172</ele>
        <time>2018-06-05T10:31:40Z</time>
      </trkpt>
      <trkpt lat="45.94469" lon="4.73118">
        <ele>172</ele>
        <time>2018-06-05T10:31:41Z</time>
      </trkpt>
      <trkpt lat="45.94469" lon="4.73108">
        <ele>172</ele>
        <time>2018-06-05T10:31:42Z</time>
      </trkpt>
      <trkpt lat="45.94468" lon="4.73098">
        <ele>172</ele>
        <time>2018-06-05T10:31:43Z</time>
      </trkpt>
      <trkpt lat="45.94465" lon="4.73088">
        <ele>171</ele>
        <time>2018-06-05T10:31:44Z</time>
      </trkpt>
      <trkpt lat="45.94462" lon="4.73078">
        <ele>170</ele>
        <time>2018-06-05T10:31:45Z</time>
      </trkpt>
      <trkpt lat="45.94461" lon="4.73069">
        <ele>170</ele>
        <time>2018-06-05T10:31:46Z</time>
      </trkpt>
      <trkpt lat="45.9446" lon="4.7306">
        <ele>170</ele>
        <time>2018-06-05T10:31:47Z</time>
      </trkpt>
      <trkpt lat="45.94459" lon="4.73051">
        <ele>170</ele>
        <time>2018-06-05T10:31:48Z</time>
      </trkpt>
      <trkpt lat="45.94459" lon="4.73046">
        <ele>170</ele>
        <time>2018-06-05T10:31:49Z</time>
      </trkpt>
      <trkpt lat="45.94458" lon="4.73037">
        <ele>169</ele>
        <time>2018-06-05T10:31:50Z</time>
      </trkpt>
      <trkpt lat="45.94457" lon="4.73028">
        <ele>169</ele>
        <time>2018-06-05T10:31:51Z</time>
      </trkpt>
      <trkpt lat="45.94456" lon="4.7302">
        <ele>169</ele>
        <time>2018-06-05T10:31:52Z</time>
      </trkpt>
      <trkpt lat="45.94455" lon="4.73012">
        <ele>169</ele>
        <time>2018-06-05T10:31:53Z</time>
      </trkpt>
      <trkpt lat="45.94451" lon="4.73002">
        <ele>169</ele>
        <time>2018-06-05T10:31:54Z</time>
      </trkpt>
      <trkpt lat="45.9445" lon="4.72995">
        <ele>167</ele>
        <time>2018-06-05T10:31:55Z</time>
      </trkpt>
      <trkpt lat="45.94448" lon="4.72985">
        <ele>167</ele>
        <time>2018-06-05T10:31:56Z</time>
      </trkpt>
      <trkpt lat="45.94447" lon="4.72978">
        <ele>167</ele>
        <time>2018-06-05T10:31:57Z</time>
      </trkpt>
      <trkpt lat="45.94445" lon="4.72969">
        <ele>167</ele>
        <time>2018-06-05T10:31:58Z</time>
      </trkpt>
      <trkpt lat="45.94445" lon="4.72962">
        <ele>167</ele>
        <time>2018-06-05T10:31:59Z</time>
      </trkpt>
      <trkpt lat="45.94445" lon="4.72954">
        <ele>167</ele>
        <time>2018-06-05T10:32:00Z</time>
      </trkpt>
      <trkpt lat="45.94443" lon="4.72945">
        <ele>167</ele>
        <time>2018-06-05T10:32:01Z</time>
      </trkpt>
      <trkpt lat="45.94442" lon="4.72937">
        <ele>167</ele>
        <time>2018-06-05T10:32:02Z</time>
      </trkpt>
      <trkpt lat="45.94441" lon="4.72929">
        <ele>167</ele>
        <time>2018-06-05T10:32:03Z</time>
      </trkpt>
      <trkpt lat="45.9444" lon="4.72922">
        <ele>167</ele>
        <time>2018-06-05T10:32:04Z</time>
      </trkpt>
      <trkpt lat="45.94439" lon="4.72914">
        <ele>166</ele>
        <time>2018-06-05T10:32:05Z</time>
      </trkpt>
      <trkpt lat="45.94438" lon="4.72906">
        <ele>166</ele>
        <time>2018-06-05T10:32:06Z</time>
      </trkpt>
      <trkpt lat="45.94435" lon="4.72898">
        <ele>166</ele>
        <time>2018-06-05T10:32:07Z</time>
      </trkpt>
      <trkpt lat="45.94434" lon="4.7289">
        <ele>166</ele>
        <time>2018-06-05T10:32:08Z</time>
      </trkpt>
      <trkpt lat="45.94433" lon="4.72881">
        <ele>166</ele>
        <time>2018-06-05T10:32:09Z</time>
      </trkpt>
      <trkpt lat="45.94432" lon="4.72872">
        <ele>166</ele>
        <time>2018-06-05T10:32:10Z</time>
      </trkpt>
      <trkpt lat="45.94431" lon="4.72862">
        <ele>166</ele>
        <time>2018-06-05T10:32:11Z</time>
      </trkpt>
      <trkpt lat="45.9443" lon="4.72853">
        <ele>166</ele>
        <time>2018-06-05T10:32:12Z</time>
      </trkpt>
      <trkpt lat="45.94429" lon="4.72844">
        <ele>166</ele>
        <time>2018-06-05T10:32:13Z</time>
      </trkpt>
      <trkpt lat="45.94428" lon="4.72833">
        <ele>166</ele>
        <time>2018-06-05T10:32:14Z</time>
      </trkpt>
      <trkpt lat="45.94426" lon="4.72824">
        <ele>167</ele>
        <time>2018-06-05T10:32:15Z</time>
      </trkpt>
      <trkpt lat="45.94425" lon="4.72815">
        <ele>167</ele>
        <time>2018-06-05T10:32:16Z</time>
      </trkpt>
      <trkpt lat="45.94424" lon="4.72804">
        <ele>167</ele>
        <time>2018-06-05T10:32:17Z</time>
      </trkpt>
      <trkpt lat="45.94424" lon="4.72794">
        <ele>168</ele>
        <time>2018-06-05T10:32:18Z</time>
      </trkpt>
      <trkpt lat="45.94422" lon="4.72783">
        <ele>168</ele>
        <time>2018-06-05T10:32:19Z</time>
      </trkpt>
      <trkpt lat="45.94422" lon="4.72772">
        <ele>169</ele>
        <time>2018-06-05T10:32:20Z</time>
      </trkpt>
      <trkpt lat="45.9442" lon="4.72761">
        <ele>170</ele>
        <time>2018-06-05T10:32:21Z</time>
      </trkpt>
      <trkpt lat="45.94418" lon="4.7275">
        <ele>171</ele>
        <time>2018-06-05T10:32:22Z</time>
      </trkpt>
      <trkpt lat="45.94416" lon="4.72739">
        <ele>171</ele>
        <time>2018-06-05T10:32:23Z</time>
      </trkpt>
      <trkpt lat="45.94416" lon="4.72731">
        <ele>172</ele>
        <time>2018-06-05T10:32:24Z</time>
      </trkpt>
      <trkpt lat="45.94412" lon="4.7272">
        <ele>172</ele>
        <time>2018-06-05T10:32:25Z</time>
      </trkpt>
      <trkpt lat="45.94411" lon="4.7271">
        <ele>172</ele>
        <time>2018-06-05T10:32:26Z</time>
      </trkpt>
      <trkpt lat="45.94409" lon="4.727">
        <ele>172</ele>
        <time>2018-06-05T10:32:27Z</time>
      </trkpt>
      <trkpt lat="45.94407" lon="4.7269">
        <ele>173</ele>
        <time>2018-06-05T10:32:28Z</time>
      </trkpt>
      <trkpt lat="45.94406" lon="4.7268">
        <ele>173</ele>
        <time>2018-06-05T10:32:29Z</time>
      </trkpt>
      <trkpt lat="45.94407" lon="4.72672">
        <ele>173</ele>
        <time>2018-06-05T10:32:30Z</time>
      </trkpt>
      <trkpt lat="45.94407" lon="4.72661">
        <ele>174</ele>
        <time>2018-06-05T10:32:31Z</time>
      </trkpt>
      <trkpt lat="45.94405" lon="4.72651">
        <ele>174</ele>
        <time>2018-06-05T10:32:32Z</time>
      </trkpt>
      <trkpt lat="45.94404" lon="4.72641">
        <ele>174</ele>
        <time>2018-06-05T10:32:33Z</time>
      </trkpt>
      <trkpt lat="45.94404" lon="4.7263">
        <ele>174</ele>
        <time>2018-06-05T10:32:34Z</time>
      </trkpt>
      <trkpt lat="45.94405" lon="4.72621">
        <ele>173</ele>
        <time>2018-06-05T10:32:35Z</time>
      </trkpt>
      <trkpt lat="45.94405" lon="4.72613">
        <ele>173</ele>
        <time>2018-06-05T10:32:36Z</time>
      </trkpt>
      <trkpt lat="45.94405" lon="4.72604">
        <ele>173</ele>
        <time>2018-06-05T10:32:37Z</time>
      </trkpt>
      <trkpt lat="45.94404" lon="4.72595">
        <ele>173</ele>
        <time>2018-06-05T10:32:38Z</time>
      </trkpt>
      <trkpt lat="45.94401" lon="4.72585">
        <ele>173</ele>
        <time>2018-06-05T10:32:39Z</time>
      </trkpt>
      <trkpt lat="45.94402" lon="4.72577">
        <ele>173</ele>
        <time>2018-06-05T10:32:40Z</time>
      </trkpt>
      <trkpt lat="45.94401" lon="4.72569">
        <ele>173</ele>
        <time>2018-06-05T10:32:41Z</time>
      </trkpt>
      <trkpt lat="45.94399" lon="4.72559">
        <ele>173</ele>
        <time>2018-06-05T10:32:42Z</time>
      </trkpt>
      <trkpt lat="45.94399" lon="4.72551">
        <ele>173</ele>
        <time>2018-06-05T10:32:43Z</time>
      </trkpt>
      <trkpt lat="45.94397" lon="4.72542">
        <ele>173</ele>
        <time>2018-06-05T10:32:44Z</time>
      </trkpt>
      <trkpt lat="45.94395" lon="4.72533">
        <ele>174</ele>
        <time>2018-06-05T10:32:45Z</time>
      </trkpt>
      <trkpt lat="45.94392" lon="4.72524">
        <ele>174</ele>
        <time>2018-06-05T10:32:46Z</time>
      </trkpt>
      <trkpt lat="45.94389" lon="4.72516">
        <ele>174</ele>
        <time>2018-06-05T10:32:47Z</time>
      </trkpt>
      <trkpt lat="45.94387" lon="4.72507">
        <ele>174</ele>
        <time>2018-06-05T10:32:48Z</time>
      </trkpt>
      <trkpt lat="45.94383" lon="4.72497">
        <ele>173</ele>
        <time>2018-06-05T10:32:49Z</time>
      </trkpt>
      <trkpt lat="45.9438" lon="4.72489">
        <ele>173</ele>
        <time>2018-06-05T10:32:50Z</time>
      </trkpt>
      <trkpt lat="45.94378" lon="4.7248">
        <ele>173</ele>
        <time>2018-06-05T10:32:51Z</time>
      </trkpt>
      <trkpt lat="45.94375" lon="4.72473">
        <ele>173</ele>
        <time>2018-06-05T10:32:52Z</time>
      </trkpt>
      <trkpt lat="45.94371" lon="4.72466">
        <ele>173</ele>
        <time>2018-06-05T10:32:53Z</time>
      </trkpt>
      <trkpt lat="45.94369" lon="4.7246">
        <ele>173</ele>
        <time>2018-06-05T10:32:54Z</time>
      </trkpt>
      <trkpt lat="45.94367" lon="4.72455">
        <ele>173</ele>
        <time>2018-06-05T10:32:55Z</time>
      </trkpt>
      <trkpt lat="45.94363" lon="4.72448">
        <ele>173</ele>
        <time>2018-06-05T10:32:56Z</time>
      </trkpt>
      <trkpt lat="45.94362" lon="4.72442">
        <ele>173</ele>
        <time>2018-06-05T10:32:57Z</time>
      </trkpt>
      <trkpt lat="45.94358" lon="4.72436">
        <ele>173</ele>
        <time>2018-06-05T10:32:58Z</time>
      </trkpt>
      <trkpt lat="45.94355" lon="4.7243">
        <ele>173</ele>
        <time>2018-06-05T10:32:59Z</time>
      </trkpt>
      <trkpt lat="45.94352" lon="4.72425">
        <ele>173</ele>
        <time>2018-06-05T10:33:00Z</time>
      </trkpt>
      <trkpt lat="45.9435" lon="4.72417">
        <ele>173</ele>
        <time>2018-06-05T10:33:01Z</time>
      </trkpt>
      <trkpt lat="45.94346" lon="4.72412">
        <ele>173</ele>
        <time>2018-06-05T10:33:02Z</time>
      </trkpt>
      <trkpt lat="45.94343" lon="4.72405">
        <ele>173</ele>
        <time>2018-06-05T10:33:03Z</time>
      </trkpt>
      <trkpt lat="45.9434" lon="4.72398">
        <ele>172</ele>
        <time>2018-06-05T10:33:04Z</time>
      </trkpt>
      <trkpt lat="45.94337" lon="4.72391">
        <ele>172</ele>
        <time>2018-06-05T10:33:05Z</time>
      </trkpt>
      <trkpt lat="45.94335" lon="4.72384">
        <ele>172</ele>
        <time>2018-06-05T10:33:06Z</time>
      </trkpt>
      <trkpt lat="45.94333" lon="4.72376">
        <ele>172</ele>
        <time>2018-06-05T10:33:07Z</time>
      </trkpt>
      <trkpt lat="45.9433" lon="4.72369">
        <ele>172</ele>
        <time>2018-06-05T10:33:08Z</time>
      </trkpt>
      <trkpt lat="45.94327" lon="4.72362">
        <ele>172</ele>
        <time>2018-06-05T10:33:09Z</time>
      </trkpt>
      <trkpt lat="45.94324" lon="4.72351">
        <ele>172</ele>
        <time>2018-06-05T10:33:11Z</time>
      </trkpt>
      <trkpt lat="45.94321" lon="4.72343">
        <ele>172</ele>
        <time>2018-06-05T10:33:12Z</time>
      </trkpt>
      <trkpt lat="45.94318" lon="4.72332">
        <ele>172</ele>
        <time>2018-06-05T10:33:14Z</time>
      </trkpt>
      <trkpt lat="45.94313" lon="4.72325">
        <ele>172</ele>
        <time>2018-06-05T10:33:15Z</time>
      </trkpt>
      <trkpt lat="45.94311" lon="4.7232">
        <ele>171</ele>
        <time>2018-06-05T10:33:16Z</time>
      </trkpt>
      <trkpt lat="45.94306" lon="4.72314">
        <ele>171</ele>
        <time>2018-06-05T10:33:17Z</time>
      </trkpt>
      <trkpt lat="45.94304" lon="4.72307">
        <ele>171</ele>
        <time>2018-06-05T10:33:18Z</time>
      </trkpt>
      <trkpt lat="45.94301" lon="4.72301">
        <ele>171</ele>
        <time>2018-06-05T10:33:19Z</time>
      </trkpt>
      <trkpt lat="45.94298" lon="4.7229">
        <ele>171</ele>
        <time>2018-06-05T10:33:21Z</time>
      </trkpt>
      <trkpt lat="45.94296" lon="4.72286">
        <ele>171</ele>
        <time>2018-06-05T10:33:22Z</time>
      </trkpt>
      <trkpt lat="45.94292" lon="4.72276">
        <ele>171</ele>
        <time>2018-06-05T10:33:25Z</time>
      </trkpt>
      <trkpt lat="45.94291" lon="4.72273">
        <ele>171</ele>
        <time>2018-06-05T10:33:26Z</time>
      </trkpt>
      <trkpt lat="45.94287" lon="4.72267">
        <ele>171</ele>
        <time>2018-06-05T10:33:28Z</time>
      </trkpt>
      <trkpt lat="45.9428" lon="4.7226">
        <ele>171</ele>
        <time>2018-06-05T10:33:29Z</time>
      </trkpt>
      <trkpt lat="45.94272" lon="4.72262">
        <ele>171</ele>
        <time>2018-06-05T10:33:31Z</time>
      </trkpt>
      <trkpt lat="45.94268" lon="4.72264">
        <ele>171</ele>
        <time>2018-06-05T10:33:32Z</time>
      </trkpt>
      <trkpt lat="45.94265" lon="4.7227">
        <ele>171</ele>
        <time>2018-06-05T10:33:33Z</time>
      </trkpt>
      <trkpt lat="45.94259" lon="4.7227">
        <ele>171</ele>
        <time>2018-06-05T10:33:34Z</time>
      </trkpt>
      <trkpt lat="45.94255" lon="4.72273">
        <ele>171</ele>
        <time>2018-06-05T10:33:35Z</time>
      </trkpt>
      <trkpt lat="45.9425" lon="4.72276">
        <ele>171</ele>
        <time>2018-06-05T10:33:36Z</time>
      </trkpt>
      <trkpt lat="45.94245" lon="4.72279">
        <ele>171</ele>
        <time>2018-06-05T10:33:37Z</time>
      </trkpt>
      <trkpt lat="45.9424" lon="4.72281">
        <ele>171</ele>
        <time>2018-06-05T10:33:38Z</time>
      </trkpt>
      <trkpt lat="45.94234" lon="4.72283">
        <ele>171</ele>
        <time>2018-06-05T10:33:39Z</time>
      </trkpt>
      <trkpt lat="45.94228" lon="4.72283">
        <ele>171</ele>
        <time>2018-06-05T10:33:40Z</time>
      </trkpt>
      <trkpt lat="45.94221" lon="4.72284">
        <ele>171</ele>
        <time>2018-06-05T10:33:41Z</time>
      </trkpt>
      <trkpt lat="45.94215" lon="4.72284">
        <ele>171</ele>
        <time>2018-06-05T10:33:42Z</time>
      </trkpt>
      <trkpt lat="45.9421" lon="4.72285">
        <ele>171</ele>
        <time>2018-06-05T10:33:43Z</time>
      </trkpt>
      <trkpt lat="45.94204" lon="4.72284">
        <ele>171</ele>
        <time>2018-06-05T10:33:44Z</time>
      </trkpt>
      <trkpt lat="45.94197" lon="4.72284">
        <ele>171</ele>
        <time>2018-06-05T10:33:45Z</time>
      </trkpt>
      <trkpt lat="45.94191" lon="4.72284">
        <ele>171</ele>
        <time>2018-06-05T10:33:46Z</time>
      </trkpt>
      <trkpt lat="45.94186" lon="4.72283">
        <ele>171</ele>
        <time>2018-06-05T10:33:47Z</time>
      </trkpt>
      <trkpt lat="45.94181" lon="4.72283">
        <ele>171</ele>
        <time>2018-06-05T10:33:48Z</time>
      </trkpt>
      <trkpt lat="45.94175" lon="4.72283">
        <ele>171</ele>
        <time>2018-06-05T10:33:49Z</time>
      </trkpt>
      <trkpt lat="45.94168" lon="4.72282">
        <ele>171</ele>
        <time>2018-06-05T10:33:50Z</time>
      </trkpt>
      <trkpt lat="45.94163" lon="4.7228">
        <ele>171</ele>
        <time>2018-06-05T10:33:51Z</time>
      </trkpt>
      <trkpt lat="45.94157" lon="4.72278">
        <ele>171</ele>
        <time>2018-06-05T10:33:52Z</time>
      </trkpt>
      <trkpt lat="45.94152" lon="4.72275">
        <ele>171</ele>
        <time>2018-06-05T10:33:53Z</time>
      </trkpt>
      <trkpt lat="45.94146" lon="4.72273">
        <ele>171</ele>
        <time>2018-06-05T10:33:54Z</time>
      </trkpt>
      <trkpt lat="45.94141" lon="4.72272">
        <ele>171</ele>
        <time>2018-06-05T10:33:55Z</time>
      </trkpt>
      <trkpt lat="45.94135" lon="4.7227">
        <ele>171</ele>
        <time>2018-06-05T10:33:56Z</time>
      </trkpt>
      <trkpt lat="45.94129" lon="4.72267">
        <ele>171</ele>
        <time>2018-06-05T10:33:57Z</time>
      </trkpt>
      <trkpt lat="45.94124" lon="4.72264">
        <ele>171</ele>
        <time>2018-06-05T10:33:58Z</time>
      </trkpt>
      <trkpt lat="45.94118" lon="4.72262">
        <ele>171</ele>
        <time>2018-06-05T10:33:59Z</time>
      </trkpt>
      <trkpt lat="45.94113" lon="4.72261">
        <ele>171</ele>
        <time>2018-06-05T10:34:00Z</time>
      </trkpt>
      <trkpt lat="45.94107" lon="4.7226">
        <ele>171</ele>
        <time>2018-06-05T10:34:01Z</time>
      </trkpt>
      <trkpt lat="45.94101" lon="4.7226">
        <ele>171</ele>
        <time>2018-06-05T10:34:02Z</time>
      </trkpt>
      <trkpt lat="45.94096" lon="4.72261">
        <ele>171</ele>
        <time>2018-06-05T10:34:03Z</time>
      </trkpt>
      <trkpt lat="45.9409" lon="4.72261">
        <ele>171</ele>
        <time>2018-06-05T10:34:04Z</time>
      </trkpt>
      <trkpt lat="45.94085" lon="4.72263">
        <ele>171</ele>
        <time>2018-06-05T10:34:05Z</time>
      </trkpt>
      <trkpt lat="45.9408" lon="4.72267">
        <ele>171</ele>
        <time>2018-06-05T10:34:06Z</time>
      </trkpt>
      <trkpt lat="45.94076" lon="4.7227">
        <ele>171</ele>
        <time>2018-06-05T10:34:07Z</time>
      </trkpt>
      <trkpt lat="45.94072" lon="4.72275">
        <ele>171</ele>
        <time>2018-06-05T10:34:08Z</time>
      </trkpt>
      <trkpt lat="45.94068" lon="4.7228">
        <ele>171</ele>
        <time>2018-06-05T10:34:09Z</time>
      </trkpt>
      <trkpt lat="45.94063" lon="4.72285">
        <ele>171</ele>
        <time>2018-06-05T10:34:10Z</time>
      </trkpt>
      <trkpt lat="45.94058" lon="4.72291">
        <ele>171</ele>
        <time>2018-06-05T10:34:11Z</time>
      </trkpt>
      <trkpt lat="45.94054" lon="4.72296">
        <ele>171</ele>
        <time>2018-06-05T10:34:12Z</time>
      </trkpt>
      <trkpt lat="45.94049" lon="4.72302">
        <ele>171</ele>
        <time>2018-06-05T10:34:13Z</time>
      </trkpt>
      <trkpt lat="45.94044" lon="4.72307">
        <ele>171</ele>
        <time>2018-06-05T10:34:14Z</time>
      </trkpt>
      <trkpt lat="45.94039" lon="4.72316">
        <ele>171</ele>
        <time>2018-06-05T10:34:15Z</time>
      </trkpt>
      <trkpt lat="45.94034" lon="4.72323">
        <ele>171</ele>
        <time>2018-06-05T10:34:16Z</time>
      </trkpt>
      <trkpt lat="45.9403" lon="4.72328">
        <ele>171</ele>
        <time>2018-06-05T10:34:17Z</time>
      </trkpt>
      <trkpt lat="45.94025" lon="4.72335">
        <ele>171</ele>
        <time>2018-06-05T10:34:18Z</time>
      </trkpt>
      <trkpt lat="45.9402" lon="4.7234">
        <ele>171</ele>
        <time>2018-06-05T10:34:19Z</time>
      </trkpt>
      <trkpt lat="45.94016" lon="4.72346">
        <ele>171</ele>
        <time>2018-06-05T10:34:20Z</time>
      </trkpt>
      <trkpt lat="45.94011" lon="4.72352">
        <ele>171</ele>
        <time>2018-06-05T10:34:21Z</time>
      </trkpt>
      <trkpt lat="45.94007" lon="4.72356">
        <ele>171</ele>
        <time>2018-06-05T10:34:22Z</time>
      </trkpt>
      <trkpt lat="45.94002" lon="4.72361">
        <ele>171</ele>
        <time>2018-06-05T10:34:23Z</time>
      </trkpt>
      <trkpt lat="45.93999" lon="4.72367">
        <ele>171</ele>
        <time>2018-06-05T10:34:24Z</time>
      </trkpt>
      <trkpt lat="45.93995" lon="4.72372">
        <ele>171</ele>
        <time>2018-06-05T10:34:25Z</time>
      </trkpt>
      <trkpt lat="45.9399" lon="4.72376">
        <ele>171</ele>
        <time>2018-06-05T10:34:26Z</time>
      </trkpt>
      <trkpt lat="45.93985" lon="4.72381">
        <ele>171</ele>
        <time>2018-06-05T10:34:27Z</time>
      </trkpt>
      <trkpt lat="45.93981" lon="4.72386">
        <ele>171</ele>
        <time>2018-06-05T10:34:28Z</time>
      </trkpt>
      <trkpt lat="45.93976" lon="4.72391">
        <ele>171</ele>
        <time>2018-06-05T10:34:29Z</time>
      </trkpt>
      <trkpt lat="45.93971" lon="4.72399">
        <ele>171</ele>
        <time>2018-06-05T10:34:30Z</time>
      </trkpt>
      <trkpt lat="45.93966" lon="4.72404">
        <ele>171</ele>
        <time>2018-06-05T10:34:31Z</time>
      </trkpt>
      <trkpt lat="45.93962" lon="4.72409">
        <ele>171</ele>
        <time>2018-06-05T10:34:32Z</time>
      </trkpt>
      <trkpt lat="45.93957" lon="4.72414">
        <ele>171</ele>
        <time>2018-06-05T10:34:33Z</time>
      </trkpt>
      <trkpt lat="45.93954" lon="4.72418">
        <ele>171</ele>
        <time>2018-06-05T10:34:34Z</time>
      </trkpt>
      <trkpt lat="45.93948" lon="4.72423">
        <ele>171</ele>
        <time>2018-06-05T10:34:35Z</time>
      </trkpt>
      <trkpt lat="45.93944" lon="4.72428">
        <ele>171</ele>
        <time>2018-06-05T10:34:36Z</time>
      </trkpt>
      <trkpt lat="45.9394" lon="4.72433">
        <ele>171</ele>
        <time>2018-06-05T10:34:37Z</time>
      </trkpt>
      <trkpt lat="45.93936" lon="4.72438">
        <ele>171</ele>
        <time>2018-06-05T10:34:38Z</time>
      </trkpt>
      <trkpt lat="45.93932" lon="4.72443">
        <ele>171</ele>
        <time>2018-06-05T10:34:39Z</time>
      </trkpt>
      <trkpt lat="45.93928" lon="4.72449">
        <ele>171</ele>
        <time>2018-06-05T10:34:40Z</time>
      </trkpt>
      <trkpt lat="45.93924" lon="4.72453">
        <ele>171</ele>
        <time>2018-06-05T10:34:41Z</time>
      </trkpt>
      <trkpt lat="45.9392" lon="4.72458">
        <ele>171</ele>
        <time>2018-06-05T10:34:42Z</time>
      </trkpt>
      <trkpt lat="45.93917" lon="4.72464">
        <ele>171</ele>
        <time>2018-06-05T10:34:43Z</time>
      </trkpt>
      <trkpt lat="45.93913" lon="4.72469">
        <ele>172</ele>
        <time>2018-06-05T10:34:44Z</time>
      </trkpt>
      <trkpt lat="45.93909" lon="4.72474">
        <ele>172</ele>
        <time>2018-06-05T10:34:45Z</time>
      </trkpt>
      <trkpt lat="45.93905" lon="4.72477">
        <ele>172</ele>
        <time>2018-06-05T10:34:46Z</time>
      </trkpt>
      <trkpt lat="45.93901" lon="4.7248">
        <ele>172</ele>
        <time>2018-06-05T10:34:47Z</time>
      </trkpt>
      <trkpt lat="45.93897" lon="4.72486">
        <ele>172</ele>
        <time>2018-06-05T10:34:48Z</time>
      </trkpt>
      <trkpt lat="45.93891" lon="4.72495">
        <ele>172</ele>
        <time>2018-06-05T10:34:50Z</time>
      </trkpt>
      <trkpt lat="45.93888" lon="4.725">
        <ele>173</ele>
        <time>2018-06-05T10:34:51Z</time>
      </trkpt>
      <trkpt lat="45.9388" lon="4.72507">
        <ele>173</ele>
        <time>2018-06-05T10:34:53Z</time>
      </trkpt>
      <trkpt lat="45.93876" lon="4.72511">
        <ele>173</ele>
        <time>2018-06-05T10:34:54Z</time>
      </trkpt>
      <trkpt lat="45.93867" lon="4.72512">
        <ele>173</ele>
        <time>2018-06-05T10:34:56Z</time>
      </trkpt>
      <trkpt lat="45.93862" lon="4.7251">
        <ele>173</ele>
        <time>2018-06-05T10:34:57Z</time>
      </trkpt>
      <trkpt lat="45.93858" lon="4.72505">
        <ele>173</ele>
        <time>2018-06-05T10:34:58Z</time>
      </trkpt>
      <trkpt lat="45.93822" lon="4.72475">
        <ele>172</ele>
        <time>2018-06-05T10:35:06Z</time>
      </trkpt>
      <trkpt lat="45.93822" lon="4.72468">
        <ele>172</ele>
        <time>2018-06-05T10:35:07Z</time>
      </trkpt>
      <trkpt lat="45.93817" lon="4.72461">
        <ele>172</ele>
        <time>2018-06-05T10:35:08Z</time>
      </trkpt>
      <trkpt lat="45.9381" lon="4.72455">
        <ele>172</ele>
        <time>2018-06-05T10:35:10Z</time>
      </trkpt>
      <trkpt lat="45.93806" lon="4.72452">
        <ele>172</ele>
        <time>2018-06-05T10:35:11Z</time>
      </trkpt>
      <trkpt lat="45.93802" lon="4.72442">
        <ele>172</ele>
        <time>2018-06-05T10:35:13Z</time>
      </trkpt>
      <trkpt lat="45.93796" lon="4.72441">
        <ele>172</ele>
        <time>2018-06-05T10:35:14Z</time>
      </trkpt>
      <trkpt lat="45.93791" lon="4.72432">
        <ele>172</ele>
        <time>2018-06-05T10:35:16Z</time>
      </trkpt>
      <trkpt lat="45.93787" lon="4.7243">
        <ele>172</ele>
        <time>2018-06-05T10:35:17Z</time>
      </trkpt>
      <trkpt lat="45.93783" lon="4.72426">
        <ele>172</ele>
        <time>2018-06-05T10:35:18Z</time>
      </trkpt>
      <trkpt lat="45.93778" lon="4.72423">
        <ele>171</ele>
        <time>2018-06-05T10:35:19Z</time>
      </trkpt>
      <trkpt lat="45.9377" lon="4.72416">
        <ele>171</ele>
        <time>2018-06-05T10:35:21Z</time>
      </trkpt>
      <trkpt lat="45.93767" lon="4.72412">
        <ele>171</ele>
        <time>2018-06-05T10:35:22Z</time>
      </trkpt>
      <trkpt lat="45.9376" lon="4.72405">
        <ele>171</ele>
        <time>2018-06-05T10:35:24Z</time>
      </trkpt>
      <trkpt lat="45.93755" lon="4.72401">
        <ele>171</ele>
        <time>2018-06-05T10:35:25Z</time>
      </trkpt>
      <trkpt lat="45.93751" lon="4.72396">
        <ele>171</ele>
        <time>2018-06-05T10:35:26Z</time>
      </trkpt>
      <trkpt lat="45.93745" lon="4.72393">
        <ele>171</ele>
        <time>2018-06-05T10:35:27Z</time>
      </trkpt>
      <trkpt lat="45.93741" lon="4.72389">
        <ele>171</ele>
        <time>2018-06-05T10:35:28Z</time>
      </trkpt>
      <trkpt lat="45.93737" lon="4.72384">
        <ele>171</ele>
        <time>2018-06-05T10:35:29Z</time>
      </trkpt>
      <trkpt lat="45.93733" lon="4.72381">
        <ele>171</ele>
        <time>2018-06-05T10:35:30Z</time>
      </trkpt>
      <trkpt lat="45.93729" lon="4.72377">
        <ele>171</ele>
        <time>2018-06-05T10:35:31Z</time>
      </trkpt>
      <trkpt lat="45.93723" lon="4.72368">
        <ele>172</ele>
        <time>2018-06-05T10:35:33Z</time>
      </trkpt>
      <trkpt lat="45.93719" lon="4.72365">
        <ele>172</ele>
        <time>2018-06-05T10:35:34Z</time>
      </trkpt>
      <trkpt lat="45.93715" lon="4.7236">
        <ele>172</ele>
        <time>2018-06-05T10:35:35Z</time>
      </trkpt>
      <trkpt lat="45.93711" lon="4.72357">
        <ele>172</ele>
        <time>2018-06-05T10:35:36Z</time>
      </trkpt>
      <trkpt lat="45.93706" lon="4.72355">
        <ele>171</ele>
        <time>2018-06-05T10:35:37Z</time>
      </trkpt>
      <trkpt lat="45.93703" lon="4.72351">
        <ele>171</ele>
        <time>2018-06-05T10:35:38Z</time>
      </trkpt>
      <trkpt lat="45.93699" lon="4.72347">
        <ele>171</ele>
        <time>2018-06-05T10:35:39Z</time>
      </trkpt>
      <trkpt lat="45.93682" lon="4.72337">
        <ele>171</ele>
        <time>2018-06-05T10:35:43Z</time>
      </trkpt>
      <trkpt lat="45.93676" lon="4.72329">
        <ele>171</ele>
        <time>2018-06-05T10:35:45Z</time>
      </trkpt>
      <trkpt lat="45.93673" lon="4.72324">
        <ele>171</ele>
        <time>2018-06-05T10:35:46Z</time>
      </trkpt>
      <trkpt lat="45.9367" lon="4.72319">
        <ele>171</ele>
        <time>2018-06-05T10:35:47Z</time>
      </trkpt>
      <trkpt lat="45.93665" lon="4.72316">
        <ele>172</ele>
        <time>2018-06-05T10:35:48Z</time>
      </trkpt>
      <trkpt lat="45.93658" lon="4.72308">
        <ele>172</ele>
        <time>2018-06-05T10:35:50Z</time>
      </trkpt>
      <trkpt lat="45.93654" lon="4.72304">
        <ele>172</ele>
        <time>2018-06-05T10:35:51Z</time>
      </trkpt>
      <trkpt lat="45.9365" lon="4.72298">
        <ele>172</ele>
        <time>2018-06-05T10:35:52Z</time>
      </trkpt>
      <trkpt lat="45.93646" lon="4.72295">
        <ele>172</ele>
        <time>2018-06-05T10:35:53Z</time>
      </trkpt>
      <trkpt lat="45.93642" lon="4.72289">
        <ele>172</ele>
        <time>2018-06-05T10:35:54Z</time>
      </trkpt>
      <trkpt lat="45.93638" lon="4.72287">
        <ele>172</ele>
        <time>2018-06-05T10:35:55Z</time>
      </trkpt>
      <trkpt lat="45.93631" lon="4.72282">
        <ele>172</ele>
        <time>2018-06-05T10:35:57Z</time>
      </trkpt>
      <trkpt lat="45.93626" lon="4.72282">
        <ele>172</ele>
        <time>2018-06-05T10:35:58Z</time>
      </trkpt>
      <trkpt lat="45.93624" lon="4.72274">
        <ele>172</ele>
        <time>2018-06-05T10:35:59Z</time>
      </trkpt>
      <trkpt lat="45.9362" lon="4.72271">
        <ele>172</ele>
        <time>2018-06-05T10:36:00Z</time>
      </trkpt>
      <trkpt lat="45.93617" lon="4.72267">
        <ele>172</ele>
        <time>2018-06-05T10:36:01Z</time>
      </trkpt>
      <trkpt lat="45.93614" lon="4.72259">
        <ele>172</ele>
        <time>2018-06-05T10:36:02Z</time>
      </trkpt>
      <trkpt lat="45.9361" lon="4.72256">
        <ele>173</ele>
        <time>2018-06-05T10:36:03Z</time>
      </trkpt>
      <trkpt lat="45.93605" lon="4.72253">
        <ele>173</ele>
        <time>2018-06-05T10:36:04Z</time>
      </trkpt>
      <trkpt lat="45.93598" lon="4.72246">
        <ele>173</ele>
        <time>2018-06-05T10:36:06Z</time>
      </trkpt>
      <trkpt lat="45.93595" lon="4.72243">
        <ele>173</ele>
        <time>2018-06-05T10:36:07Z</time>
      </trkpt>
      <trkpt lat="45.93591" lon="4.7224">
        <ele>173</ele>
        <time>2018-06-05T10:36:08Z</time>
      </trkpt>
      <trkpt lat="45.93587" lon="4.72236">
        <ele>173</ele>
        <time>2018-06-05T10:36:09Z</time>
      </trkpt>
      <trkpt lat="45.9358" lon="4.72232">
        <ele>173</ele>
        <time>2018-06-05T10:36:11Z</time>
      </trkpt>
      <trkpt lat="45.93577" lon="4.72228">
        <ele>173</ele>
        <time>2018-06-05T10:36:12Z</time>
      </trkpt>
      <trkpt lat="45.9357" lon="4.7222">
        <ele>173</ele>
        <time>2018-06-05T10:36:14Z</time>
      </trkpt>
      <trkpt lat="45.93569" lon="4.72219">
        <ele>173</ele>
        <time>2018-06-05T10:36:15Z</time>
      </trkpt>
      <trkpt lat="45.9356" lon="4.72215">
        <ele>173</ele>
        <time>2018-06-05T10:36:22Z</time>
      </trkpt>
      <trkpt lat="45.9356" lon="4.72214">
        <ele>173</ele>
        <time>2018-06-05T10:36:23Z</time>
      </trkpt>
      <trkpt lat="45.93552" lon="4.72213">
        <ele>173</ele>
        <time>2018-06-05T10:36:28Z</time>
      </trkpt>
      <trkpt lat="45.9355" lon="4.72215">
        <ele>173</ele>
        <time>2018-06-05T10:36:29Z</time>
      </trkpt>
      <trkpt lat="45.93546" lon="4.72224">
        <ele>172</ele>
        <time>2018-06-05T10:36:32Z</time>
      </trkpt>
      <trkpt lat="45.93545" lon="4.72228">
        <ele>172</ele>
        <time>2018-06-05T10:36:33Z</time>
      </trkpt>
      <trkpt lat="45.93542" lon="4.72236">
        <ele>172</ele>
        <time>2018-06-05T10:36:35Z</time>
      </trkpt>
      <trkpt lat="45.93541" lon="4.7224">
        <ele>172</ele>
        <time>2018-06-05T10:36:36Z</time>
      </trkpt>
      <trkpt lat="45.93537" lon="4.72249">
        <ele>172</ele>
        <time>2018-06-05T10:36:38Z</time>
      </trkpt>
      <trkpt lat="45.93536" lon="4.72253">
        <ele>172</ele>
        <time>2018-06-05T10:36:39Z</time>
      </trkpt>
      <trkpt lat="45.9353" lon="4.72265">
        <ele>172</ele>
        <time>2018-06-05T10:36:40Z</time>
      </trkpt>
      <trkpt lat="45.93526" lon="4.72275">
        <ele>172</ele>
        <time>2018-06-05T10:36:42Z</time>
      </trkpt>
      <trkpt lat="45.93522" lon="4.72281">
        <ele>172</ele>
        <time>2018-06-05T10:36:43Z</time>
      </trkpt>
      <trkpt lat="45.93519" lon="4.72287">
        <ele>172</ele>
        <time>2018-06-05T10:36:44Z</time>
      </trkpt>
      <trkpt lat="45.93516" lon="4.72293">
        <ele>172</ele>
        <time>2018-06-05T10:36:45Z</time>
      </trkpt>
      <trkpt lat="45.93513" lon="4.72298">
        <ele>172</ele>
        <time>2018-06-05T10:36:46Z</time>
      </trkpt>
      <trkpt lat="45.9351" lon="4.72304">
        <ele>173</ele>
        <time>2018-06-05T10:36:47Z</time>
      </trkpt>
      <trkpt lat="45.93507" lon="4.7231">
        <ele>173</ele>
        <time>2018-06-05T10:36:48Z</time>
      </trkpt>
      <trkpt lat="45.93503" lon="4.72315">
        <ele>173</ele>
        <time>2018-06-05T10:36:49Z</time>
      </trkpt>
      <trkpt lat="45.93499" lon="4.7232">
        <ele>173</ele>
        <time>2018-06-05T10:36:50Z</time>
      </trkpt>
      <trkpt lat="45.93495" lon="4.72326">
        <ele>173</ele>
        <time>2018-06-05T10:36:51Z</time>
      </trkpt>
      <trkpt lat="45.93491" lon="4.7233">
        <ele>173</ele>
        <time>2018-06-05T10:36:52Z</time>
      </trkpt>
      <trkpt lat="45.93487" lon="4.72335">
        <ele>173</ele>
        <time>2018-06-05T10:36:53Z</time>
      </trkpt>
      <trkpt lat="45.93483" lon="4.72341">
        <ele>173</ele>
        <time>2018-06-05T10:36:54Z</time>
      </trkpt>
      <trkpt lat="45.93478" lon="4.72346">
        <ele>173</ele>
        <time>2018-06-05T10:36:55Z</time>
      </trkpt>
      <trkpt lat="45.93475" lon="4.72352">
        <ele>173</ele>
        <time>2018-06-05T10:36:56Z</time>
      </trkpt>
      <trkpt lat="45.93471" lon="4.72357">
        <ele>173</ele>
        <time>2018-06-05T10:36:57Z</time>
      </trkpt>
      <trkpt lat="45.93467" lon="4.72362">
        <ele>173</ele>
        <time>2018-06-05T10:36:58Z</time>
      </trkpt>
      <trkpt lat="45.93465" lon="4.72368">
        <ele>173</ele>
        <time>2018-06-05T10:36:59Z</time>
      </trkpt>
      <trkpt lat="45.9346" lon="4.72373">
        <ele>173</ele>
        <time>2018-06-05T10:37:00Z</time>
      </trkpt>
      <trkpt lat="45.93457" lon="4.72377">
        <ele>173</ele>
        <time>2018-06-05T10:37:01Z</time>
      </trkpt>
      <trkpt lat="45.93449" lon="4.72383">
        <ele>173</ele>
        <time>2018-06-05T10:37:03Z</time>
      </trkpt>
      <trkpt lat="45.93445" lon="4.72387">
        <ele>173</ele>
        <time>2018-06-05T10:37:04Z</time>
      </trkpt>
      <trkpt lat="45.93441" lon="4.7239">
        <ele>173</ele>
        <time>2018-06-05T10:37:05Z</time>
      </trkpt>
      <trkpt lat="45.93436" lon="4.72394">
        <ele>173</ele>
        <time>2018-06-05T10:37:06Z</time>
      </trkpt>
      <trkpt lat="45.93431" lon="4.72397">
        <ele>174</ele>
        <time>2018-06-05T10:37:07Z</time>
      </trkpt>
      <trkpt lat="45.93425" lon="4.72399">
        <ele>174</ele>
        <time>2018-06-05T10:37:08Z</time>
      </trkpt>
      <trkpt lat="45.9342" lon="4.72401">
        <ele>174</ele>
        <time>2018-06-05T10:37:09Z</time>
      </trkpt>
      <trkpt lat="45.93414" lon="4.72404">
        <ele>174</ele>
        <time>2018-06-05T10:37:10Z</time>
      </trkpt>
      <trkpt lat="45.93409" lon="4.72405">
        <ele>174</ele>
        <time>2018-06-05T10:37:11Z</time>
      </trkpt>
      <trkpt lat="45.93405" lon="4.72404">
        <ele>174</ele>
        <time>2018-06-05T10:37:12Z</time>
      </trkpt>
      <trkpt lat="45.934" lon="4.72404">
        <ele>174</ele>
        <time>2018-06-05T10:37:13Z</time>
      </trkpt>
      <trkpt lat="45.93396" lon="4.72403">
        <ele>174</ele>
        <time>2018-06-05T10:37:14Z</time>
      </trkpt>
      <trkpt lat="45.93391" lon="4.72402">
        <ele>174</ele>
        <time>2018-06-05T10:37:15Z</time>
      </trkpt>
      <trkpt lat="45.93386" lon="4.72409">
        <ele>174</ele>
        <time>2018-06-05T10:37:16Z</time>
      </trkpt>
      <trkpt lat="45.93383" lon="4.72414">
        <ele>174</ele>
        <time>2018-06-05T10:37:17Z</time>
      </trkpt>
      <trkpt lat="45.93382" lon="4.72422">
        <ele>173</ele>
        <time>2018-06-05T10:37:18Z</time>
      </trkpt>
      <trkpt lat="45.93384" lon="4.7243">
        <ele>173</ele>
        <time>2018-06-05T10:37:19Z</time>
      </trkpt>
      <trkpt lat="45.93385" lon="4.72435">
        <ele>173</ele>
        <time>2018-06-05T10:37:20Z</time>
      </trkpt>
      <trkpt lat="45.93386" lon="4.72441">
        <ele>173</ele>
        <time>2018-06-05T10:37:21Z</time>
      </trkpt>
      <trkpt lat="45.93387" lon="4.7245">
        <ele>173</ele>
        <time>2018-06-05T10:37:22Z</time>
      </trkpt>
      <trkpt lat="45.93387" lon="4.72457">
        <ele>173</ele>
        <time>2018-06-05T10:37:23Z</time>
      </trkpt>
      <trkpt lat="45.93387" lon="4.72464">
        <ele>173</ele>
        <time>2018-06-05T10:37:24Z</time>
      </trkpt>
      <trkpt lat="45.93384" lon="4.72469">
        <ele>173</ele>
        <time>2018-06-05T10:37:25Z</time>
      </trkpt>
      <trkpt lat="45.93381" lon="4.72474">
        <ele>173</ele>
        <time>2018-06-05T10:37:26Z</time>
      </trkpt>
      <trkpt lat="45.93376" lon="4.72479">
        <ele>173</ele>
        <time>2018-06-05T10:37:27Z</time>
      </trkpt>
      <trkpt lat="45.93373" lon="4.72484">
        <ele>173</ele>
        <time>2018-06-05T10:37:28Z</time>
      </trkpt>
      <trkpt lat="45.93368" lon="4.72488">
        <ele>173</ele>
        <time>2018-06-05T10:37:29Z</time>
      </trkpt>
      <trkpt lat="45.93364" lon="4.72494">
        <ele>173</ele>
        <time>2018-06-05T10:37:30Z</time>
      </trkpt>
      <trkpt lat="45.9336" lon="4.72497">
        <ele>173</ele>
        <time>2018-06-05T10:37:31Z</time>
      </trkpt>
      <trkpt lat="45.93356" lon="4.72501">
        <ele>172</ele>
        <time>2018-06-05T10:37:32Z</time>
      </trkpt>
      <trkpt lat="45.9335" lon="4.72505">
        <ele>172</ele>
        <time>2018-06-05T10:37:33Z</time>
      </trkpt>
      <trkpt lat="45.93347" lon="4.7251">
        <ele>172</ele>
        <time>2018-06-05T10:37:34Z</time>
      </trkpt>
      <trkpt lat="45.93343" lon="4.72514">
        <ele>172</ele>
        <time>2018-06-05T10:37:35Z</time>
      </trkpt>
      <trkpt lat="45.93339" lon="4.72521">
        <ele>172</ele>
        <time>2018-06-05T10:37:36Z</time>
      </trkpt>
      <trkpt lat="45.93335" lon="4.72525">
        <ele>172</ele>
        <time>2018-06-05T10:37:37Z</time>
      </trkpt>
      <trkpt lat="45.93331" lon="4.7253">
        <ele>172</ele>
        <time>2018-06-05T10:37:38Z</time>
      </trkpt>
      <trkpt lat="45.93326" lon="4.72535">
        <ele>172</ele>
        <time>2018-06-05T10:37:39Z</time>
      </trkpt>
      <trkpt lat="45.93323" lon="4.72539">
        <ele>172</ele>
        <time>2018-06-05T10:37:40Z</time>
      </trkpt>
      <trkpt lat="45.93319" lon="4.72544">
        <ele>172</ele>
        <time>2018-06-05T10:37:41Z</time>
      </trkpt>
      <trkpt lat="45.93314" lon="4.7255">
        <ele>172</ele>
        <time>2018-06-05T10:37:42Z</time>
      </trkpt>
      <trkpt lat="45.9331" lon="4.72555">
        <ele>172</ele>
        <time>2018-06-05T10:37:43Z</time>
      </trkpt>
      <trkpt lat="45.93304" lon="4.72559">
        <ele>172</ele>
        <time>2018-06-05T10:37:44Z</time>
      </trkpt>
      <trkpt lat="45.933" lon="4.72565">
        <ele>172</ele>
        <time>2018-06-05T10:37:45Z</time>
      </trkpt>
      <trkpt lat="45.93297" lon="4.72569">
        <ele>172</ele>
        <time>2018-06-05T10:37:46Z</time>
      </trkpt>
      <trkpt lat="45.93291" lon="4.72575">
        <ele>171</ele>
        <time>2018-06-05T10:37:47Z</time>
      </trkpt>
      <trkpt lat="45.93287" lon="4.7258">
        <ele>171</ele>
        <time>2018-06-05T10:37:48Z</time>
      </trkpt>
      <trkpt lat="45.93282" lon="4.72585">
        <ele>170</ele>
        <time>2018-06-05T10:37:49Z</time>
      </trkpt>
      <trkpt lat="45.93278" lon="4.7259">
        <ele>170</ele>
        <time>2018-06-05T10:37:50Z</time>
      </trkpt>
      <trkpt lat="45.93275" lon="4.72595">
        <ele>170</ele>
        <time>2018-06-05T10:37:51Z</time>
      </trkpt>
      <trkpt lat="45.93271" lon="4.72599">
        <ele>170</ele>
        <time>2018-06-05T10:37:52Z</time>
      </trkpt>
      <trkpt lat="45.93264" lon="4.72607">
        <ele>170</ele>
        <time>2018-06-05T10:37:54Z</time>
      </trkpt>
      <trkpt lat="45.9326" lon="4.72612">
        <ele>170</ele>
        <time>2018-06-05T10:37:55Z</time>
      </trkpt>
      <trkpt lat="45.93255" lon="4.72617">
        <ele>170</ele>
        <time>2018-06-05T10:37:56Z</time>
      </trkpt>
      <trkpt lat="45.9325" lon="4.72623">
        <ele>170</ele>
        <time>2018-06-05T10:37:57Z</time>
      </trkpt>
      <trkpt lat="45.93245" lon="4.72627">
        <ele>170</ele>
        <time>2018-06-05T10:37:58Z</time>
      </trkpt>
      <trkpt lat="45.93241" lon="4.72632">
        <ele>170</ele>
        <time>2018-06-05T10:37:59Z</time>
      </trkpt>
      <trkpt lat="45.93237" lon="4.72636">
        <ele>170</ele>
        <time>2018-06-05T10:38:00Z</time>
      </trkpt>
      <trkpt lat="45.93233" lon="4.72641">
        <ele>170</ele>
        <time>2018-06-05T10:38:01Z</time>
      </trkpt>
      <trkpt lat="45.93229" lon="4.72646">
        <ele>170</ele>
        <time>2018-06-05T10:38:02Z</time>
      </trkpt>
      <trkpt lat="45.93225" lon="4.72649">
        <ele>170</ele>
        <time>2018-06-05T10:38:03Z</time>
      </trkpt>
      <trkpt lat="45.93219" lon="4.72657">
        <ele>170</ele>
        <time>2018-06-05T10:38:05Z</time>
      </trkpt>
      <trkpt lat="45.93215" lon="4.72662">
        <ele>170</ele>
        <time>2018-06-05T10:38:06Z</time>
      </trkpt>
      <trkpt lat="45.93211" lon="4.72666">
        <ele>170</ele>
        <time>2018-06-05T10:38:07Z</time>
      </trkpt>
      <trkpt lat="45.93206" lon="4.72671">
        <ele>169</ele>
        <time>2018-06-05T10:38:08Z</time>
      </trkpt>
      <trkpt lat="45.93202" lon="4.72678">
        <ele>169</ele>
        <time>2018-06-05T10:38:09Z</time>
      </trkpt>
      <trkpt lat="45.93198" lon="4.72684">
        <ele>169</ele>
        <time>2018-06-05T10:38:10Z</time>
      </trkpt>
      <trkpt lat="45.93193" lon="4.72689">
        <ele>169</ele>
        <time>2018-06-05T10:38:11Z</time>
      </trkpt>
      <trkpt lat="45.93189" lon="4.72695">
        <ele>169</ele>
        <time>2018-06-05T10:38:12Z</time>
      </trkpt>
      <trkpt lat="45.93184" lon="4.72699">
        <ele>169</ele>
        <time>2018-06-05T10:38:13Z</time>
      </trkpt>
      <trkpt lat="45.93179" lon="4.72704">
        <ele>169</ele>
        <time>2018-06-05T10:38:14Z</time>
      </trkpt>
      <trkpt lat="45.93174" lon="4.72709">
        <ele>170</ele>
        <time>2018-06-05T10:38:15Z</time>
      </trkpt>
      <trkpt lat="45.9317" lon="4.72715">
        <ele>170</ele>
        <time>2018-06-05T10:38:16Z</time>
      </trkpt>
      <trkpt lat="45.93166" lon="4.72719">
        <ele>170</ele>
        <time>2018-06-05T10:38:17Z</time>
      </trkpt>
      <trkpt lat="45.93162" lon="4.72723">
        <ele>170</ele>
        <time>2018-06-05T10:38:18Z</time>
      </trkpt>
      <trkpt lat="45.93157" lon="4.72728">
        <ele>170</ele>
        <time>2018-06-05T10:38:19Z</time>
      </trkpt>
      <trkpt lat="45.93152" lon="4.72733">
        <ele>170</ele>
        <time>2018-06-05T10:38:20Z</time>
      </trkpt>
      <trkpt lat="45.93148" lon="4.72738">
        <ele>170</ele>
        <time>2018-06-05T10:38:21Z</time>
      </trkpt>
      <trkpt lat="45.93143" lon="4.72743">
        <ele>170</ele>
        <time>2018-06-05T10:38:22Z</time>
      </trkpt>
      <trkpt lat="45.93139" lon="4.72748">
        <ele>170</ele>
        <time>2018-06-05T10:38:23Z</time>
      </trkpt>
      <trkpt lat="45.93135" lon="4.72753">
        <ele>171</ele>
        <time>2018-06-05T10:38:24Z</time>
      </trkpt>
      <trkpt lat="45.9313" lon="4.72759">
        <ele>171</ele>
        <time>2018-06-05T10:38:25Z</time>
      </trkpt>
      <trkpt lat="45.93124" lon="4.72765">
        <ele>171</ele>
        <time>2018-06-05T10:38:26Z</time>
      </trkpt>
      <trkpt lat="45.9312" lon="4.72769">
        <ele>171</ele>
        <time>2018-06-05T10:38:27Z</time>
      </trkpt>
      <trkpt lat="45.93116" lon="4.72775">
        <ele>171</ele>
        <time>2018-06-05T10:38:28Z</time>
      </trkpt>
      <trkpt lat="45.93112" lon="4.72781">
        <ele>171</ele>
        <time>2018-06-05T10:38:29Z</time>
      </trkpt>
      <trkpt lat="45.93109" lon="4.72786">
        <ele>171</ele>
        <time>2018-06-05T10:38:30Z</time>
      </trkpt>
      <trkpt lat="45.93105" lon="4.72792">
        <ele>171</ele>
        <time>2018-06-05T10:38:31Z</time>
      </trkpt>
      <trkpt lat="45.93102" lon="4.72796">
        <ele>171</ele>
        <time>2018-06-05T10:38:32Z</time>
      </trkpt>
      <trkpt lat="45.93098" lon="4.728">
        <ele>171</ele>
        <time>2018-06-05T10:38:33Z</time>
      </trkpt>
      <trkpt lat="45.93093" lon="4.72804">
        <ele>171</ele>
        <time>2018-06-05T10:38:34Z</time>
      </trkpt>
      <trkpt lat="45.93089" lon="4.72811">
        <ele>172</ele>
        <time>2018-06-05T10:38:35Z</time>
      </trkpt>
      <trkpt lat="45.93084" lon="4.72815">
        <ele>172</ele>
        <time>2018-06-05T10:38:36Z</time>
      </trkpt>
      <trkpt lat="45.9308" lon="4.7282">
        <ele>173</ele>
        <time>2018-06-05T10:38:37Z</time>
      </trkpt>
      <trkpt lat="45.93075" lon="4.72824">
        <ele>173</ele>
        <time>2018-06-05T10:38:38Z</time>
      </trkpt>
      <trkpt lat="45.93037" lon="4.72873">
        <ele>172</ele>
        <time>2018-06-05T10:38:46Z</time>
      </trkpt>
      <trkpt lat="45.9303" lon="4.72878">
        <ele>172</ele>
        <time>2018-06-05T10:38:47Z</time>
      </trkpt>
      <trkpt lat="45.93027" lon="4.72882">
        <ele>172</ele>
        <time>2018-06-05T10:38:48Z</time>
      </trkpt>
      <trkpt lat="45.93023" lon="4.72888">
        <ele>172</ele>
        <time>2018-06-05T10:38:49Z</time>
      </trkpt>
      <trkpt lat="45.93018" lon="4.72893">
        <ele>172</ele>
        <time>2018-06-05T10:38:50Z</time>
      </trkpt>
      <trkpt lat="45.93013" lon="4.72899">
        <ele>172</ele>
        <time>2018-06-05T10:38:51Z</time>
      </trkpt>
      <trkpt lat="45.93009" lon="4.72904">
        <ele>171</ele>
        <time>2018-06-05T10:38:52Z</time>
      </trkpt>
      <trkpt lat="45.93005" lon="4.72909">
        <ele>171</ele>
        <time>2018-06-05T10:38:53Z</time>
      </trkpt>
      <trkpt lat="45.93003" lon="4.72916">
        <ele>171</ele>
        <time>2018-06-05T10:38:54Z</time>
      </trkpt>
      <trkpt lat="45.93" lon="4.72921">
        <ele>171</ele>
        <time>2018-06-05T10:38:55Z</time>
      </trkpt>
      <trkpt lat="45.92996" lon="4.72925">
        <ele>171</ele>
        <time>2018-06-05T10:38:56Z</time>
      </trkpt>
      <trkpt lat="45.92992" lon="4.7293">
        <ele>171</ele>
        <time>2018-06-05T10:38:57Z</time>
      </trkpt>
      <trkpt lat="45.92987" lon="4.72936">
        <ele>171</ele>
        <time>2018-06-05T10:38:58Z</time>
      </trkpt>
      <trkpt lat="45.92984" lon="4.72942">
        <ele>171</ele>
        <time>2018-06-05T10:38:59Z</time>
      </trkpt>
      <trkpt lat="45.92979" lon="4.72948">
        <ele>171</ele>
        <time>2018-06-05T10:39:00Z</time>
      </trkpt>
      <trkpt lat="45.92975" lon="4.72952">
        <ele>171</ele>
        <time>2018-06-05T10:39:01Z</time>
      </trkpt>
      <trkpt lat="45.92971" lon="4.72958">
        <ele>171</ele>
        <time>2018-06-05T10:39:02Z</time>
      </trkpt>
      <trkpt lat="45.92966" lon="4.72962">
        <ele>171</ele>
        <time>2018-06-05T10:39:03Z</time>
      </trkpt>
      <trkpt lat="45.92963" lon="4.72968">
        <ele>171</ele>
        <time>2018-06-05T10:39:04Z</time>
      </trkpt>
      <trkpt lat="45.92959" lon="4.72972">
        <ele>171</ele>
        <time>2018-06-05T10:39:05Z</time>
      </trkpt>
      <trkpt lat="45.92956" lon="4.72975">
        <ele>171</ele>
        <time>2018-06-05T10:39:06Z</time>
      </trkpt>
      <trkpt lat="45.92951" lon="4.72981">
        <ele>171</ele>
        <time>2018-06-05T10:39:07Z</time>
      </trkpt>
      <trkpt lat="45.92946" lon="4.72986">
        <ele>171</ele>
        <time>2018-06-05T10:39:08Z</time>
      </trkpt>
      <trkpt lat="45.92943" lon="4.72991">
        <ele>171</ele>
        <time>2018-06-05T10:39:09Z</time>
      </trkpt>
      <trkpt lat="45.92939" lon="4.72995">
        <ele>171</ele>
        <time>2018-06-05T10:39:10Z</time>
      </trkpt>
      <trkpt lat="45.92936" lon="4.73">
        <ele>172</ele>
        <time>2018-06-05T10:39:11Z</time>
      </trkpt>
      <trkpt lat="45.92931" lon="4.73003">
        <ele>172</ele>
        <time>2018-06-05T10:39:12Z</time>
      </trkpt>
      <trkpt lat="45.92927" lon="4.73007">
        <ele>172</ele>
        <time>2018-06-05T10:39:13Z</time>
      </trkpt>
      <trkpt lat="45.92926" lon="4.73015">
        <ele>172</ele>
        <time>2018-06-05T10:39:14Z</time>
      </trkpt>
      <trkpt lat="45.92921" lon="4.7302">
        <ele>172</ele>
        <time>2018-06-05T10:39:15Z</time>
      </trkpt>
      <trkpt lat="45.92917" lon="4.73025">
        <ele>172</ele>
        <time>2018-06-05T10:39:16Z</time>
      </trkpt>
      <trkpt lat="45.92913" lon="4.73031">
        <ele>172</ele>
        <time>2018-06-05T10:39:17Z</time>
      </trkpt>
      <trkpt lat="45.92909" lon="4.73036">
        <ele>172</ele>
        <time>2018-06-05T10:39:18Z</time>
      </trkpt>
      <trkpt lat="45.92905" lon="4.73042">
        <ele>172</ele>
        <time>2018-06-05T10:39:19Z</time>
      </trkpt>
      <trkpt lat="45.92901" lon="4.73048">
        <ele>172</ele>
        <time>2018-06-05T10:39:20Z</time>
      </trkpt>
      <trkpt lat="45.92896" lon="4.73054">
        <ele>172</ele>
        <time>2018-06-05T10:39:21Z</time>
      </trkpt>
      <trkpt lat="45.92893" lon="4.7306">
        <ele>172</ele>
        <time>2018-06-05T10:39:22Z</time>
      </trkpt>
      <trkpt lat="45.9289" lon="4.73065">
        <ele>172</ele>
        <time>2018-06-05T10:39:23Z</time>
      </trkpt>
      <trkpt lat="45.92886" lon="4.73069">
        <ele>172</ele>
        <time>2018-06-05T10:39:24Z</time>
      </trkpt>
      <trkpt lat="45.92883" lon="4.73074">
        <ele>172</ele>
        <time>2018-06-05T10:39:25Z</time>
      </trkpt>
      <trkpt lat="45.92879" lon="4.73079">
        <ele>172</ele>
        <time>2018-06-05T10:39:26Z</time>
      </trkpt>
      <trkpt lat="45.92875" lon="4.73082">
        <ele>172</ele>
        <time>2018-06-05T10:39:27Z</time>
      </trkpt>
      <trkpt lat="45.92871" lon="4.73086">
        <ele>172</ele>
        <time>2018-06-05T10:39:28Z</time>
      </trkpt>
      <trkpt lat="45.92866" lon="4.73092">
        <ele>172</ele>
        <time>2018-06-05T10:39:29Z</time>
      </trkpt>
      <trkpt lat="45.92863" lon="4.73098">
        <ele>171</ele>
        <time>2018-06-05T10:39:30Z</time>
      </trkpt>
      <trkpt lat="45.92856" lon="4.73104">
        <ele>171</ele>
        <time>2018-06-05T10:39:32Z</time>
      </trkpt>
      <trkpt lat="45.92853" lon="4.73103">
        <ele>171</ele>
        <time>2018-06-05T10:39:33Z</time>
      </trkpt>
      <trkpt lat="45.92849" lon="4.73095">
        <ele>171</ele>
        <time>2018-06-05T10:39:35Z</time>
      </trkpt>
      <trkpt lat="45.92847" lon="4.73091">
        <ele>171</ele>
        <time>2018-06-05T10:39:36Z</time>
      </trkpt>
      <trkpt lat="45.92845" lon="4.73084">
        <ele>171</ele>
        <time>2018-06-05T10:39:37Z</time>
      </trkpt>
      <trkpt lat="45.92845" lon="4.73077">
        <ele>171</ele>
        <time>2018-06-05T10:39:38Z</time>
      </trkpt>
      <trkpt lat="45.92844" lon="4.73065">
        <ele>171</ele>
        <time>2018-06-05T10:39:40Z</time>
      </trkpt>
      <trkpt lat="45.92843" lon="4.73058">
        <ele>171</ele>
        <time>2018-06-05T10:39:41Z</time>
      </trkpt>
      <trkpt lat="45.92841" lon="4.73046">
        <ele>171</ele>
        <time>2018-06-05T10:39:43Z</time>
      </trkpt>
      <trkpt lat="45.9284" lon="4.7304">
        <ele>171</ele>
        <time>2018-06-05T10:39:44Z</time>
      </trkpt>
      <trkpt lat="45.92837" lon="4.73033">
        <ele>171</ele>
        <time>2018-06-05T10:39:45Z</time>
      </trkpt>
      <trkpt lat="45.92835" lon="4.73027">
        <ele>171</ele>
        <time>2018-06-05T10:39:46Z</time>
      </trkpt>
      <trkpt lat="45.92831" lon="4.73016">
        <ele>170</ele>
        <time>2018-06-05T10:39:48Z</time>
      </trkpt>
      <trkpt lat="45.92829" lon="4.73008">
        <ele>170</ele>
        <time>2018-06-05T10:39:49Z</time>
      </trkpt>
      <trkpt lat="45.92829" lon="4.72999">
        <ele>170</ele>
        <time>2018-06-05T10:39:51Z</time>
      </trkpt>
      <trkpt lat="45.92828" lon="4.72994">
        <ele>170</ele>
        <time>2018-06-05T10:39:52Z</time>
      </trkpt>
      <trkpt lat="45.92828" lon="4.72982">
        <ele>170</ele>
        <time>2018-06-05T10:39:54Z</time>
      </trkpt>
      <trkpt lat="45.92827" lon="4.72977">
        <ele>170</ele>
        <time>2018-06-05T10:39:55Z</time>
      </trkpt>
      <trkpt lat="45.92829" lon="4.72965">
        <ele>170</ele>
        <time>2018-06-05T10:39:57Z</time>
      </trkpt>
      <trkpt lat="45.92828" lon="4.7296">
        <ele>170</ele>
        <time>2018-06-05T10:39:58Z</time>
      </trkpt>
      <trkpt lat="45.92827" lon="4.72949">
        <ele>170</ele>
        <time>2018-06-05T10:40:01Z</time>
      </trkpt>
      <trkpt lat="45.92827" lon="4.72945">
        <ele>170</ele>
        <time>2018-06-05T10:40:02Z</time>
      </trkpt>
      <trkpt lat="45.92826" lon="4.72935">
        <ele>170</ele>
        <time>2018-06-05T10:40:03Z</time>
      </trkpt>
      <trkpt lat="45.92825" lon="4.72929">
        <ele>170</ele>
        <time>2018-06-05T10:40:04Z</time>
      </trkpt>
      <trkpt lat="45.92825" lon="4.72923">
        <ele>170</ele>
        <time>2018-06-05T10:40:05Z</time>
      </trkpt>
      <trkpt lat="45.92824" lon="4.72916">
        <ele>170</ele>
        <time>2018-06-05T10:40:06Z</time>
      </trkpt>
      <trkpt lat="45.92822" lon="4.72908">
        <ele>170</ele>
        <time>2018-06-05T10:40:07Z</time>
      </trkpt>
      <trkpt lat="45.92821" lon="4.72901">
        <ele>170</ele>
        <time>2018-06-05T10:40:08Z</time>
      </trkpt>
      <trkpt lat="45.92819" lon="4.72894">
        <ele>170</ele>
        <time>2018-06-05T10:40:09Z</time>
      </trkpt>
      <trkpt lat="45.92818" lon="4.72887">
        <ele>170</ele>
        <time>2018-06-05T10:40:10Z</time>
      </trkpt>
      <trkpt lat="45.92816" lon="4.7288">
        <ele>170</ele>
        <time>2018-06-05T10:40:11Z</time>
      </trkpt>
      <trkpt lat="45.92815" lon="4.72872">
        <ele>170</ele>
        <time>2018-06-05T10:40:12Z</time>
      </trkpt>
      <trkpt lat="45.92813" lon="4.72862">
        <ele>170</ele>
        <time>2018-06-05T10:40:14Z</time>
      </trkpt>
      <trkpt lat="45.92813" lon="4.72856">
        <ele>170</ele>
        <time>2018-06-05T10:40:15Z</time>
      </trkpt>
      <trkpt lat="45.92812" lon="4.72847">
        <ele>170</ele>
        <time>2018-06-05T10:40:17Z</time>
      </trkpt>
      <trkpt lat="45.92812" lon="4.72839">
        <ele>170</ele>
        <time>2018-06-05T10:40:18Z</time>
      </trkpt>
      <trkpt lat="45.9281" lon="4.72828">
        <ele>171</ele>
        <time>2018-06-05T10:40:20Z</time>
      </trkpt>
      <trkpt lat="45.92809" lon="4.72822">
        <ele>171</ele>
        <time>2018-06-05T10:40:21Z</time>
      </trkpt>
      <trkpt lat="45.92808" lon="4.72809">
        <ele>171</ele>
        <time>2018-06-05T10:40:23Z</time>
      </trkpt>
      <trkpt lat="45.92809" lon="4.72803">
        <ele>171</ele>
        <time>2018-06-05T10:40:24Z</time>
      </trkpt>
      <trkpt lat="45.92804" lon="4.72797">
        <ele>171</ele>
        <time>2018-06-05T10:40:25Z</time>
      </trkpt>
      <trkpt lat="45.92803" lon="4.72793">
        <ele>171</ele>
        <time>2018-06-05T10:40:26Z</time>
      </trkpt>
      <trkpt lat="45.92798" lon="4.72789">
        <ele>171</ele>
        <time>2018-06-05T10:40:27Z</time>
      </trkpt>
      <trkpt lat="45.92793" lon="4.7279">
        <ele>171</ele>
        <time>2018-06-05T10:40:28Z</time>
      </trkpt>
      <trkpt lat="45.92789" lon="4.72792">
        <ele>170</ele>
        <time>2018-06-05T10:40:29Z</time>
      </trkpt>
      <trkpt lat="45.92783" lon="4.72794">
        <ele>170</ele>
        <time>2018-06-05T10:40:30Z</time>
      </trkpt>
      <trkpt lat="45.92779" lon="4.72799">
        <ele>170</ele>
        <time>2018-06-05T10:40:31Z</time>
      </trkpt>
      <trkpt lat="45.92774" lon="4.72799">
        <ele>170</ele>
        <time>2018-06-05T10:40:32Z</time>
      </trkpt>
      <trkpt lat="45.92768" lon="4.72803">
        <ele>170</ele>
        <time>2018-06-05T10:40:33Z</time>
      </trkpt>
      <trkpt lat="45.92766" lon="4.72809">
        <ele>170</ele>
        <time>2018-06-05T10:40:34Z</time>
      </trkpt>
      <trkpt lat="45.92761" lon="4.72813">
        <ele>170</ele>
        <time>2018-06-05T10:40:35Z</time>
      </trkpt>
      <trkpt lat="45.92755" lon="4.72817">
        <ele>170</ele>
        <time>2018-06-05T10:40:36Z</time>
      </trkpt>
      <trkpt lat="45.9275" lon="4.72821">
        <ele>169</ele>
        <time>2018-06-05T10:40:37Z</time>
      </trkpt>
      <trkpt lat="45.92746" lon="4.72825">
        <ele>169</ele>
        <time>2018-06-05T10:40:38Z</time>
      </trkpt>
      <trkpt lat="45.9274" lon="4.72828">
        <ele>169</ele>
        <time>2018-06-05T10:40:39Z</time>
      </trkpt>
      <trkpt lat="45.92738" lon="4.72833">
        <ele>169</ele>
        <time>2018-06-05T10:40:40Z</time>
      </trkpt>
      <trkpt lat="45.92733" lon="4.72837">
        <ele>169</ele>
        <time>2018-06-05T10:40:41Z</time>
      </trkpt>
      <trkpt lat="45.92729" lon="4.7284">
        <ele>169</ele>
        <time>2018-06-05T10:40:42Z</time>
      </trkpt>
      <trkpt lat="45.92725" lon="4.72843">
        <ele>169</ele>
        <time>2018-06-05T10:40:43Z</time>
      </trkpt>
      <trkpt lat="45.92721" lon="4.72848">
        <ele>169</ele>
        <time>2018-06-05T10:40:44Z</time>
      </trkpt>
      <trkpt lat="45.92714" lon="4.72852">
        <ele>169</ele>
        <time>2018-06-05T10:40:46Z</time>
      </trkpt>
      <trkpt lat="45.92709" lon="4.72855">
        <ele>169</ele>
        <time>2018-06-05T10:40:47Z</time>
      </trkpt>
      <trkpt lat="45.92703" lon="4.72862">
        <ele>169</ele>
        <time>2018-06-05T10:40:48Z</time>
      </trkpt>
      <trkpt lat="45.92699" lon="4.72865">
        <ele>169</ele>
        <time>2018-06-05T10:40:49Z</time>
      </trkpt>
      <trkpt lat="45.92693" lon="4.72869">
        <ele>169</ele>
        <time>2018-06-05T10:40:50Z</time>
      </trkpt>
      <trkpt lat="45.92688" lon="4.72872">
        <ele>169</ele>
        <time>2018-06-05T10:40:51Z</time>
      </trkpt>
      <trkpt lat="45.92682" lon="4.72876">
        <ele>170</ele>
        <time>2018-06-05T10:40:52Z</time>
      </trkpt>
      <trkpt lat="45.92677" lon="4.72879">
        <ele>170</ele>
        <time>2018-06-05T10:40:53Z</time>
      </trkpt>
      <trkpt lat="45.92672" lon="4.72883">
        <ele>170</ele>
        <time>2018-06-05T10:40:54Z</time>
      </trkpt>
      <trkpt lat="45.92666" lon="4.72888">
        <ele>169</ele>
        <time>2018-06-05T10:40:55Z</time>
      </trkpt>
      <trkpt lat="45.92662" lon="4.72893">
        <ele>170</ele>
        <time>2018-06-05T10:40:56Z</time>
      </trkpt>
      <trkpt lat="45.92657" lon="4.72897">
        <ele>170</ele>
        <time>2018-06-05T10:40:57Z</time>
      </trkpt>
      <trkpt lat="45.92652" lon="4.72901">
        <ele>170</ele>
        <time>2018-06-05T10:40:58Z</time>
      </trkpt>
      <trkpt lat="45.92648" lon="4.72904">
        <ele>170</ele>
        <time>2018-06-05T10:40:59Z</time>
      </trkpt>
      <trkpt lat="45.92643" lon="4.72907">
        <ele>169</ele>
        <time>2018-06-05T10:41:00Z</time>
      </trkpt>
      <trkpt lat="45.92638" lon="4.72909">
        <ele>169</ele>
        <time>2018-06-05T10:41:01Z</time>
      </trkpt>
      <trkpt lat="45.92634" lon="4.72913">
        <ele>169</ele>
        <time>2018-06-05T10:41:02Z</time>
      </trkpt>
      <trkpt lat="45.92629" lon="4.72916">
        <ele>169</ele>
        <time>2018-06-05T10:41:03Z</time>
      </trkpt>
      <trkpt lat="45.92624" lon="4.72919">
        <ele>169</ele>
        <time>2018-06-05T10:41:04Z</time>
      </trkpt>
      <trkpt lat="45.9262" lon="4.72922">
        <ele>169</ele>
        <time>2018-06-05T10:41:05Z</time>
      </trkpt>
      <trkpt lat="45.92617" lon="4.72925">
        <ele>169</ele>
        <time>2018-06-05T10:41:06Z</time>
      </trkpt>
      <trkpt lat="45.92611" lon="4.7293">
        <ele>169</ele>
        <time>2018-06-05T10:41:07Z</time>
      </trkpt>
      <trkpt lat="45.92607" lon="4.72934">
        <ele>169</ele>
        <time>2018-06-05T10:41:08Z</time>
      </trkpt>
      <trkpt lat="45.92601" lon="4.72938">
        <ele>169</ele>
        <time>2018-06-05T10:41:09Z</time>
      </trkpt>
      <trkpt lat="45.92599" lon="4.72943">
        <ele>169</ele>
        <time>2018-06-05T10:41:10Z</time>
      </trkpt>
      <trkpt lat="45.92594" lon="4.72949">
        <ele>169</ele>
        <time>2018-06-05T10:41:11Z</time>
      </trkpt>
      <trkpt lat="45.9259" lon="4.72954">
        <ele>169</ele>
        <time>2018-06-05T10:41:12Z</time>
      </trkpt>
      <trkpt lat="45.92584" lon="4.7296">
        <ele>169</ele>
        <time>2018-06-05T10:41:13Z</time>
      </trkpt>
      <trkpt lat="45.92581" lon="4.72966">
        <ele>169</ele>
        <time>2018-06-05T10:41:14Z</time>
      </trkpt>
      <trkpt lat="45.92576" lon="4.72971">
        <ele>169</ele>
        <time>2018-06-05T10:41:15Z</time>
      </trkpt>
      <trkpt lat="45.9257" lon="4.72977">
        <ele>169</ele>
        <time>2018-06-05T10:41:16Z</time>
      </trkpt>
      <trkpt lat="45.92565" lon="4.72983">
        <ele>169</ele>
        <time>2018-06-05T10:41:17Z</time>
      </trkpt>
      <trkpt lat="45.9256" lon="4.72988">
        <ele>169</ele>
        <time>2018-06-05T10:41:18Z</time>
      </trkpt>
      <trkpt lat="45.92556" lon="4.72995">
        <ele>169</ele>
        <time>2018-06-05T10:41:19Z</time>
      </trkpt>
      <trkpt lat="45.9255" lon="4.72999">
        <ele>169</ele>
        <time>2018-06-05T10:41:20Z</time>
      </trkpt>
      <trkpt lat="45.92546" lon="4.73003">
        <ele>169</ele>
        <time>2018-06-05T10:41:21Z</time>
      </trkpt>
      <trkpt lat="45.92542" lon="4.73008">
        <ele>169</ele>
        <time>2018-06-05T10:41:22Z</time>
      </trkpt>
      <trkpt lat="45.92537" lon="4.73011">
        <ele>169</ele>
        <time>2018-06-05T10:41:23Z</time>
      </trkpt>
      <trkpt lat="45.92531" lon="4.73015">
        <ele>169</ele>
        <time>2018-06-05T10:41:24Z</time>
      </trkpt>
      <trkpt lat="45.92526" lon="4.73018">
        <ele>169</ele>
        <time>2018-06-05T10:41:25Z</time>
      </trkpt>
      <trkpt lat="45.92522" lon="4.73022">
        <ele>169</ele>
        <time>2018-06-05T10:41:26Z</time>
      </trkpt>
      <trkpt lat="45.92517" lon="4.73025">
        <ele>169</ele>
        <time>2018-06-05T10:41:27Z</time>
      </trkpt>
      <trkpt lat="45.92513" lon="4.73029">
        <ele>169</ele>
        <time>2018-06-05T10:41:28Z</time>
      </trkpt>
      <trkpt lat="45.92507" lon="4.73032">
        <ele>169</ele>
        <time>2018-06-05T10:41:29Z</time>
      </trkpt>
      <trkpt lat="45.92503" lon="4.73037">
        <ele>169</ele>
        <time>2018-06-05T10:41:30Z</time>
      </trkpt>
      <trkpt lat="45.92498" lon="4.73042">
        <ele>170</ele>
        <time>2018-06-05T10:41:31Z</time>
      </trkpt>
      <trkpt lat="45.92492" lon="4.73047">
        <ele>170</ele>
        <time>2018-06-05T10:41:32Z</time>
      </trkpt>
      <trkpt lat="45.92487" lon="4.73051">
        <ele>170</ele>
        <time>2018-06-05T10:41:33Z</time>
      </trkpt>
      <trkpt lat="45.92481" lon="4.73056">
        <ele>170</ele>
        <time>2018-06-05T10:41:34Z</time>
      </trkpt>
      <trkpt lat="45.92477" lon="4.7306">
        <ele>170</ele>
        <time>2018-06-05T10:41:35Z</time>
      </trkpt>
      <trkpt lat="45.92472" lon="4.73063">
        <ele>170</ele>
        <time>2018-06-05T10:41:36Z</time>
      </trkpt>
      <trkpt lat="45.92468" lon="4.73067">
        <ele>170</ele>
        <time>2018-06-05T10:41:37Z</time>
      </trkpt>
      <trkpt lat="45.92464" lon="4.73071">
        <ele>170</ele>
        <time>2018-06-05T10:41:38Z</time>
      </trkpt>
      <trkpt lat="45.92458" lon="4.73075">
        <ele>170</ele>
        <time>2018-06-05T10:41:39Z</time>
      </trkpt>
      <trkpt lat="45.92454" lon="4.7308">
        <ele>170</ele>
        <time>2018-06-05T10:41:40Z</time>
      </trkpt>
      <trkpt lat="45.9245" lon="4.73085">
        <ele>170</ele>
        <time>2018-06-05T10:41:41Z</time>
      </trkpt>
      <trkpt lat="45.92446" lon="4.73088">
        <ele>170</ele>
        <time>2018-06-05T10:41:42Z</time>
      </trkpt>
      <trkpt lat="45.92441" lon="4.73092">
        <ele>170</ele>
        <time>2018-06-05T10:41:43Z</time>
      </trkpt>
      <trkpt lat="45.92433" lon="4.73096">
        <ele>171</ele>
        <time>2018-06-05T10:41:45Z</time>
      </trkpt>
      <trkpt lat="45.92429" lon="4.731">
        <ele>171</ele>
        <time>2018-06-05T10:41:46Z</time>
      </trkpt>
      <trkpt lat="45.92423" lon="4.73105">
        <ele>171</ele>
        <time>2018-06-05T10:41:47Z</time>
      </trkpt>
      <trkpt lat="45.92419" lon="4.73108">
        <ele>171</ele>
        <time>2018-06-05T10:41:48Z</time>
      </trkpt>
      <trkpt lat="45.92414" lon="4.73111">
        <ele>171</ele>
        <time>2018-06-05T10:41:49Z</time>
      </trkpt>
      <trkpt lat="45.9241" lon="4.73115">
        <ele>171</ele>
        <time>2018-06-05T10:41:50Z</time>
      </trkpt>
      <trkpt lat="45.92406" lon="4.73127">
        <ele>171</ele>
        <time>2018-06-05T10:41:52Z</time>
      </trkpt>
      <trkpt lat="45.92406" lon="4.73134">
        <ele>171</ele>
        <time>2018-06-05T10:41:53Z</time>
      </trkpt>
      <trkpt lat="45.92405" lon="4.73143">
        <ele>171</ele>
        <time>2018-06-05T10:41:54Z</time>
      </trkpt>
      <trkpt lat="45.92406" lon="4.7315">
        <ele>171</ele>
        <time>2018-06-05T10:41:55Z</time>
      </trkpt>
      <trkpt lat="45.92406" lon="4.73162">
        <ele>170</ele>
        <time>2018-06-05T10:41:57Z</time>
      </trkpt>
      <trkpt lat="45.92406" lon="4.7317">
        <ele>170</ele>
        <time>2018-06-05T10:41:58Z</time>
      </trkpt>
      <trkpt lat="45.92405" lon="4.73179">
        <ele>171</ele>
        <time>2018-06-05T10:41:59Z</time>
      </trkpt>
      <trkpt lat="45.92406" lon="4.73186">
        <ele>171</ele>
        <time>2018-06-05T10:42:00Z</time>
      </trkpt>
      <trkpt lat="45.92406" lon="4.73196">
        <ele>171</ele>
        <time>2018-06-05T10:42:01Z</time>
      </trkpt>
      <trkpt lat="45.92406" lon="4.73203">
        <ele>171</ele>
        <time>2018-06-05T10:42:02Z</time>
      </trkpt>
      <trkpt lat="45.92406" lon="4.7321">
        <ele>171</ele>
        <time>2018-06-05T10:42:03Z</time>
      </trkpt>
      <trkpt lat="45.92406" lon="4.73217">
        <ele>171</ele>
        <time>2018-06-05T10:42:04Z</time>
      </trkpt>
      <trkpt lat="45.92407" lon="4.7323">
        <ele>171</ele>
        <time>2018-06-05T10:42:06Z</time>
      </trkpt>
      <trkpt lat="45.92408" lon="4.73237">
        <ele>171</ele>
        <time>2018-06-05T10:42:07Z</time>
      </trkpt>
      <trkpt lat="45.92408" lon="4.73244">
        <ele>171</ele>
        <time>2018-06-05T10:42:08Z</time>
      </trkpt>
      <trkpt lat="45.92409" lon="4.73251">
        <ele>171</ele>
        <time>2018-06-05T10:42:09Z</time>
      </trkpt>
      <trkpt lat="45.9241" lon="4.73258">
        <ele>171</ele>
        <time>2018-06-05T10:42:10Z</time>
      </trkpt>
      <trkpt lat="45.92411" lon="4.73265">
        <ele>171</ele>
        <time>2018-06-05T10:42:11Z</time>
      </trkpt>
      <trkpt lat="45.92411" lon="4.73272">
        <ele>171</ele>
        <time>2018-06-05T10:42:12Z</time>
      </trkpt>
      <trkpt lat="45.92411" lon="4.73279">
        <ele>171</ele>
        <time>2018-06-05T10:42:13Z</time>
      </trkpt>
      <trkpt lat="45.92412" lon="4.7329">
        <ele>171</ele>
        <time>2018-06-05T10:42:14Z</time>
      </trkpt>
      <trkpt lat="45.92412" lon="4.73298">
        <ele>171</ele>
        <time>2018-06-05T10:42:15Z</time>
      </trkpt>
      <trkpt lat="45.92413" lon="4.73305">
        <ele>171</ele>
        <time>2018-06-05T10:42:16Z</time>
      </trkpt>
      <trkpt lat="45.92412" lon="4.73315">
        <ele>171</ele>
        <time>2018-06-05T10:42:17Z</time>
      </trkpt>
      <trkpt lat="45.92412" lon="4.73322">
        <ele>171</ele>
        <time>2018-06-05T10:42:18Z</time>
      </trkpt>
      <trkpt lat="45.92413" lon="4.7333">
        <ele>171</ele>
        <time>2018-06-05T10:42:19Z</time>
      </trkpt>
      <trkpt lat="45.92413" lon="4.73338">
        <ele>171</ele>
        <time>2018-06-05T10:42:20Z</time>
      </trkpt>
      <trkpt lat="45.92415" lon="4.73344">
        <ele>171</ele>
        <time>2018-06-05T10:42:21Z</time>
      </trkpt>
      <trkpt lat="45.92418" lon="4.73356">
        <ele>171</ele>
        <time>2018-06-05T10:42:23Z</time>
      </trkpt>
      <trkpt lat="45.92419" lon="4.73362">
        <ele>172</ele>
        <time>2018-06-05T10:42:24Z</time>
      </trkpt>
      <trkpt lat="45.92419" lon="4.73367">
        <ele>172</ele>
        <time>2018-06-05T10:42:25Z</time>
      </trkpt>
      <trkpt lat="45.92421" lon="4.73374">
        <ele>172</ele>
        <time>2018-06-05T10:42:26Z</time>
      </trkpt>
      <trkpt lat="45.92421" lon="4.7338">
        <ele>172</ele>
        <time>2018-06-05T10:42:27Z</time>
      </trkpt>
      <trkpt lat="45.92423" lon="4.73388">
        <ele>172</ele>
        <time>2018-06-05T10:42:28Z</time>
      </trkpt>
      <trkpt lat="45.92425" lon="4.73394">
        <ele>172</ele>
        <time>2018-06-05T10:42:29Z</time>
      </trkpt>
      <trkpt lat="45.92426" lon="4.73401">
        <ele>172</ele>
        <time>2018-06-05T10:42:30Z</time>
      </trkpt>
      <trkpt lat="45.9243" lon="4.73407">
        <ele>172</ele>
        <time>2018-06-05T10:42:31Z</time>
      </trkpt>
      <trkpt lat="45.92434" lon="4.73412">
        <ele>172</ele>
        <time>2018-06-05T10:42:32Z</time>
      </trkpt>
      <trkpt lat="45.9244" lon="4.73419">
        <ele>173</ele>
        <time>2018-06-05T10:42:34Z</time>
      </trkpt>
      <trkpt lat="45.92444" lon="4.73421">
        <ele>173</ele>
        <time>2018-06-05T10:42:35Z</time>
      </trkpt>
      <trkpt lat="45.92452" lon="4.73425">
        <ele>173</ele>
        <time>2018-06-05T10:42:37Z</time>
      </trkpt>
      <trkpt lat="45.92456" lon="4.7343">
        <ele>173</ele>
        <time>2018-06-05T10:42:38Z</time>
      </trkpt>
      <trkpt lat="45.9246" lon="4.73435">
        <ele>173</ele>
        <time>2018-06-05T10:42:39Z</time>
      </trkpt>
      <trkpt lat="45.92463" lon="4.73439">
        <ele>173</ele>
        <time>2018-06-05T10:42:40Z</time>
      </trkpt>
      <trkpt lat="45.92465" lon="4.73447">
        <ele>173</ele>
        <time>2018-06-05T10:42:41Z</time>
      </trkpt>
      <trkpt lat="45.92467" lon="4.73452">
        <ele>173</ele>
        <time>2018-06-05T10:42:42Z</time>
      </trkpt>
      <trkpt lat="45.9247" lon="4.73464">
        <ele>173</ele>
        <time>2018-06-05T10:42:44Z</time>
      </trkpt>
      <trkpt lat="45.9247" lon="4.7347">
        <ele>173</ele>
        <time>2018-06-05T10:42:45Z</time>
      </trkpt>
      <trkpt lat="45.92473" lon="4.73476">
        <ele>173</ele>
        <time>2018-06-05T10:42:46Z</time>
      </trkpt>
      <trkpt lat="45.92473" lon="4.73486">
        <ele>173</ele>
        <time>2018-06-05T10:42:47Z</time>
      </trkpt>
      <trkpt lat="45.92473" lon="4.73494">
        <ele>173</ele>
        <time>2018-06-05T10:42:48Z</time>
      </trkpt>
      <trkpt lat="45.92472" lon="4.73503">
        <ele>174</ele>
        <time>2018-06-05T10:42:49Z</time>
      </trkpt>
      <trkpt lat="45.92472" lon="4.73512">
        <ele>174</ele>
        <time>2018-06-05T10:42:50Z</time>
      </trkpt>
      <trkpt lat="45.92473" lon="4.73519">
        <ele>174</ele>
        <time>2018-06-05T10:42:51Z</time>
      </trkpt>
      <trkpt lat="45.92471" lon="4.73532">
        <ele>174</ele>
        <time>2018-06-05T10:42:53Z</time>
      </trkpt>
      <trkpt lat="45.92471" lon="4.73539">
        <ele>174</ele>
        <time>2018-06-05T10:42:54Z</time>
      </trkpt>
      <trkpt lat="45.92471" lon="4.73547">
        <ele>173</ele>
        <time>2018-06-05T10:42:55Z</time>
      </trkpt>
      <trkpt lat="45.9247" lon="4.73553">
        <ele>173</ele>
        <time>2018-06-05T10:42:56Z</time>
      </trkpt>
      <trkpt lat="45.92469" lon="4.73563">
        <ele>173</ele>
        <time>2018-06-05T10:42:58Z</time>
      </trkpt>
      <trkpt lat="45.92468" lon="4.73569">
        <ele>173</ele>
        <time>2018-06-05T10:42:59Z</time>
      </trkpt>
      <trkpt lat="45.92468" lon="4.73578">
        <ele>173</ele>
        <time>2018-06-05T10:43:00Z</time>
      </trkpt>
      <trkpt lat="45.92469" lon="4.73585">
        <ele>174</ele>
        <time>2018-06-05T10:43:01Z</time>
      </trkpt>
      <trkpt lat="45.9247" lon="4.73593">
        <ele>174</ele>
        <time>2018-06-05T10:43:02Z</time>
      </trkpt>
      <trkpt lat="45.92471" lon="4.73601">
        <ele>174</ele>
        <time>2018-06-05T10:43:03Z</time>
      </trkpt>
      <trkpt lat="45.92473" lon="4.73609">
        <ele>174</ele>
        <time>2018-06-05T10:43:04Z</time>
      </trkpt>
      <trkpt lat="45.92474" lon="4.73615">
        <ele>174</ele>
        <time>2018-06-05T10:43:05Z</time>
      </trkpt>
      <trkpt lat="45.92474" lon="4.73621">
        <ele>174</ele>
        <time>2018-06-05T10:43:06Z</time>
      </trkpt>
      <trkpt lat="45.92474" lon="4.73629">
        <ele>174</ele>
        <time>2018-06-05T10:43:07Z</time>
      </trkpt>
      <trkpt lat="45.92475" lon="4.73635">
        <ele>174</ele>
        <time>2018-06-05T10:43:08Z</time>
      </trkpt>
      <trkpt lat="45.92475" lon="4.73643">
        <ele>174</ele>
        <time>2018-06-05T10:43:09Z</time>
      </trkpt>
      <trkpt lat="45.92473" lon="4.73655">
        <ele>174</ele>
        <time>2018-06-05T10:43:11Z</time>
      </trkpt>
      <trkpt lat="45.92472" lon="4.73663">
        <ele>174</ele>
        <time>2018-06-05T10:43:12Z</time>
      </trkpt>
      <trkpt lat="45.92471" lon="4.73674">
        <ele>174</ele>
        <time>2018-06-05T10:43:14Z</time>
      </trkpt>
      <trkpt lat="45.9247" lon="4.73677">
        <ele>174</ele>
        <time>2018-06-05T10:43:15Z</time>
      </trkpt>
      <trkpt lat="45.92467" lon="4.73689">
        <ele>174</ele>
        <time>2018-06-05T10:43:18Z</time>
      </trkpt>
      <trkpt lat="45.92466" lon="4.73692">
        <ele>174</ele>
        <time>2018-06-05T10:43:19Z</time>
      </trkpt>
      <trkpt lat="45.92464" lon="4.73703">
        <ele>174</ele>
        <time>2018-06-05T10:43:24Z</time>
      </trkpt>
      <trkpt lat="45.92465" lon="4.73704">
        <ele>174</ele>
        <time>2018-06-05T10:43:25Z</time>
      </trkpt>
      <trkpt lat="45.92465" lon="4.73706">
        <ele>174</ele>
        <time>2018-06-05T10:43:30Z</time>
      </trkpt>
      <trkpt lat="45.92465" lon="4.73707">
        <ele>174</ele>
        <time>2018-06-05T10:43:31Z</time>
      </trkpt>
      <trkpt lat="45.92458" lon="4.73712">
        <ele>174</ele>
        <time>2018-06-05T10:44:04.217Z</time>
      </trkpt>
    </trkseg>
  </trk>
</gpx>